<?xml version="1.0" encoding="UTF-8" standalone="no" ?>
<gpx xmlns="http://www.topografix.com/GPX/1/1" xmlns:xsi="http://www.w3.org/2001/XMLSchema-instance" xsi:schemaLocation="http://www.topografix.com/GPX/1/1 http://www.topografix.com/GPX/1/1/gpx.xsd" version="1.1" creator="VisuGPX - https://www.visugpx.com">
  <metadata>
    <name>A C Rospez 15-02-2015</name>
    <desc><![CDATA[A C Rospez 15-02-2015]]></desc>
  </metadata>
  <trk>
    <name><![CDATA[A C Rospez 15-02-2015_1]]></name>
    <trkseg>
      <trkpt lat="48.73015" lon="-3.38382">
        <ele>84</ele>
        <time>2015-02-15T08:03:04Z</time>
      </trkpt>
      <trkpt lat="48.72996" lon="-3.38413">
        <ele>85</ele>
        <time>2015-02-15T08:03:10Z</time>
      </trkpt>
      <trkpt lat="48.72993" lon="-3.38418">
        <ele>85</ele>
        <time>2015-02-15T08:03:11Z</time>
      </trkpt>
      <trkpt lat="48.7299" lon="-3.38423">
        <ele>85</ele>
        <time>2015-02-15T08:03:12Z</time>
      </trkpt>
      <trkpt lat="48.72987" lon="-3.38428">
        <ele>85</ele>
        <time>2015-02-15T08:03:13Z</time>
      </trkpt>
      <trkpt lat="48.72983" lon="-3.38432">
        <ele>85</ele>
        <time>2015-02-15T08:03:14Z</time>
      </trkpt>
      <trkpt lat="48.72979" lon="-3.38436">
        <ele>85</ele>
        <time>2015-02-15T08:03:15Z</time>
      </trkpt>
      <trkpt lat="48.72975" lon="-3.38439">
        <ele>85</ele>
        <time>2015-02-15T08:03:16Z</time>
      </trkpt>
      <trkpt lat="48.72971" lon="-3.38443">
        <ele>85</ele>
        <time>2015-02-15T08:03:17Z</time>
      </trkpt>
      <trkpt lat="48.72966" lon="-3.38445">
        <ele>85</ele>
        <time>2015-02-15T08:03:18Z</time>
      </trkpt>
      <trkpt lat="48.72962" lon="-3.38448">
        <ele>85</ele>
        <time>2015-02-15T08:03:19Z</time>
      </trkpt>
      <trkpt lat="48.72958" lon="-3.38449">
        <ele>85</ele>
        <time>2015-02-15T08:03:20Z</time>
      </trkpt>
      <trkpt lat="48.72954" lon="-3.38451">
        <ele>85</ele>
        <time>2015-02-15T08:03:21Z</time>
      </trkpt>
      <trkpt lat="48.72951" lon="-3.38453">
        <ele>85</ele>
        <time>2015-02-15T08:03:22Z</time>
      </trkpt>
      <trkpt lat="48.72947" lon="-3.38454">
        <ele>85</ele>
        <time>2015-02-15T08:03:23Z</time>
      </trkpt>
      <trkpt lat="48.72944" lon="-3.38455">
        <ele>85</ele>
        <time>2015-02-15T08:03:24Z</time>
      </trkpt>
      <trkpt lat="48.7294" lon="-3.38456">
        <ele>85</ele>
        <time>2015-02-15T08:03:25Z</time>
      </trkpt>
      <trkpt lat="48.72937" lon="-3.38455">
        <ele>85</ele>
        <time>2015-02-15T08:03:26Z</time>
      </trkpt>
      <trkpt lat="48.72934" lon="-3.38452">
        <ele>85</ele>
        <time>2015-02-15T08:03:27Z</time>
      </trkpt>
      <trkpt lat="48.72932" lon="-3.38448">
        <ele>85</ele>
        <time>2015-02-15T08:03:28Z</time>
      </trkpt>
      <trkpt lat="48.7293" lon="-3.38443">
        <ele>85</ele>
        <time>2015-02-15T08:03:29Z</time>
      </trkpt>
      <trkpt lat="48.72928" lon="-3.38438">
        <ele>85</ele>
        <time>2015-02-15T08:03:30Z</time>
      </trkpt>
      <trkpt lat="48.72928" lon="-3.38433">
        <ele>85</ele>
        <time>2015-02-15T08:03:31Z</time>
      </trkpt>
      <trkpt lat="48.72927" lon="-3.3842">
        <ele>85</ele>
        <time>2015-02-15T08:03:33Z</time>
      </trkpt>
      <trkpt lat="48.72928" lon="-3.38414">
        <ele>85</ele>
        <time>2015-02-15T08:03:34Z</time>
      </trkpt>
      <trkpt lat="48.72928" lon="-3.38408">
        <ele>85</ele>
        <time>2015-02-15T08:03:35Z</time>
      </trkpt>
      <trkpt lat="48.72929" lon="-3.38403">
        <ele>85</ele>
        <time>2015-02-15T08:03:36Z</time>
      </trkpt>
      <trkpt lat="48.72929" lon="-3.38396">
        <ele>85</ele>
        <time>2015-02-15T08:03:37Z</time>
      </trkpt>
      <trkpt lat="48.7293" lon="-3.3839">
        <ele>85</ele>
        <time>2015-02-15T08:03:38Z</time>
      </trkpt>
      <trkpt lat="48.72931" lon="-3.38383">
        <ele>85</ele>
        <time>2015-02-15T08:03:39Z</time>
      </trkpt>
      <trkpt lat="48.72932" lon="-3.38376">
        <ele>85</ele>
        <time>2015-02-15T08:03:40Z</time>
      </trkpt>
      <trkpt lat="48.72933" lon="-3.38368">
        <ele>85</ele>
        <time>2015-02-15T08:03:41Z</time>
      </trkpt>
      <trkpt lat="48.72934" lon="-3.38362">
        <ele>85</ele>
        <time>2015-02-15T08:03:42Z</time>
      </trkpt>
      <trkpt lat="48.72935" lon="-3.38355">
        <ele>85</ele>
        <time>2015-02-15T08:03:43Z</time>
      </trkpt>
      <trkpt lat="48.72936" lon="-3.38348">
        <ele>85</ele>
        <time>2015-02-15T08:03:44Z</time>
      </trkpt>
      <trkpt lat="48.72938" lon="-3.38341">
        <ele>85</ele>
        <time>2015-02-15T08:03:45Z</time>
      </trkpt>
      <trkpt lat="48.72939" lon="-3.38334">
        <ele>85</ele>
        <time>2015-02-15T08:03:46Z</time>
      </trkpt>
      <trkpt lat="48.72941" lon="-3.38327">
        <ele>85</ele>
        <time>2015-02-15T08:03:47Z</time>
      </trkpt>
      <trkpt lat="48.72943" lon="-3.38319">
        <ele>85</ele>
        <time>2015-02-15T08:03:48Z</time>
      </trkpt>
      <trkpt lat="48.72945" lon="-3.38312">
        <ele>85</ele>
        <time>2015-02-15T08:03:49Z</time>
      </trkpt>
      <trkpt lat="48.72946" lon="-3.38305">
        <ele>85</ele>
        <time>2015-02-15T08:03:50Z</time>
      </trkpt>
      <trkpt lat="48.72948" lon="-3.38297">
        <ele>85</ele>
        <time>2015-02-15T08:03:51Z</time>
      </trkpt>
      <trkpt lat="48.7295" lon="-3.38289">
        <ele>85</ele>
        <time>2015-02-15T08:03:52Z</time>
      </trkpt>
      <trkpt lat="48.72952" lon="-3.38282">
        <ele>85</ele>
        <time>2015-02-15T08:03:53Z</time>
      </trkpt>
      <trkpt lat="48.72954" lon="-3.38274">
        <ele>85</ele>
        <time>2015-02-15T08:03:54Z</time>
      </trkpt>
      <trkpt lat="48.72956" lon="-3.38266">
        <ele>85</ele>
        <time>2015-02-15T08:03:55Z</time>
      </trkpt>
      <trkpt lat="48.72959" lon="-3.38259">
        <ele>85</ele>
        <time>2015-02-15T08:03:56Z</time>
      </trkpt>
      <trkpt lat="48.72962" lon="-3.38251">
        <ele>85</ele>
        <time>2015-02-15T08:03:57Z</time>
      </trkpt>
      <trkpt lat="48.72965" lon="-3.38243">
        <ele>85</ele>
        <time>2015-02-15T08:03:58Z</time>
      </trkpt>
      <trkpt lat="48.72968" lon="-3.38236">
        <ele>84</ele>
        <time>2015-02-15T08:03:59Z</time>
      </trkpt>
      <trkpt lat="48.72971" lon="-3.38228">
        <ele>84</ele>
        <time>2015-02-15T08:04:00Z</time>
      </trkpt>
      <trkpt lat="48.72975" lon="-3.38221">
        <ele>84</ele>
        <time>2015-02-15T08:04:01Z</time>
      </trkpt>
      <trkpt lat="48.72979" lon="-3.38213">
        <ele>84</ele>
        <time>2015-02-15T08:04:02Z</time>
      </trkpt>
      <trkpt lat="48.72982" lon="-3.38206">
        <ele>84</ele>
        <time>2015-02-15T08:04:03Z</time>
      </trkpt>
      <trkpt lat="48.72986" lon="-3.38199">
        <ele>84</ele>
        <time>2015-02-15T08:04:04Z</time>
      </trkpt>
      <trkpt lat="48.7299" lon="-3.38191">
        <ele>83</ele>
        <time>2015-02-15T08:04:05Z</time>
      </trkpt>
      <trkpt lat="48.72994" lon="-3.38184">
        <ele>83</ele>
        <time>2015-02-15T08:04:06Z</time>
      </trkpt>
      <trkpt lat="48.72998" lon="-3.38176">
        <ele>83</ele>
        <time>2015-02-15T08:04:07Z</time>
      </trkpt>
      <trkpt lat="48.73002" lon="-3.38169">
        <ele>83</ele>
        <time>2015-02-15T08:04:08Z</time>
      </trkpt>
      <trkpt lat="48.73006" lon="-3.38161">
        <ele>83</ele>
        <time>2015-02-15T08:04:09Z</time>
      </trkpt>
      <trkpt lat="48.73011" lon="-3.38154">
        <ele>83</ele>
        <time>2015-02-15T08:04:10Z</time>
      </trkpt>
      <trkpt lat="48.73015" lon="-3.38146">
        <ele>82</ele>
        <time>2015-02-15T08:04:11Z</time>
      </trkpt>
      <trkpt lat="48.73019" lon="-3.38138">
        <ele>82</ele>
        <time>2015-02-15T08:04:12Z</time>
      </trkpt>
      <trkpt lat="48.73023" lon="-3.3813">
        <ele>82</ele>
        <time>2015-02-15T08:04:13Z</time>
      </trkpt>
      <trkpt lat="48.73027" lon="-3.38122">
        <ele>82</ele>
        <time>2015-02-15T08:04:14Z</time>
      </trkpt>
      <trkpt lat="48.73031" lon="-3.38113">
        <ele>82</ele>
        <time>2015-02-15T08:04:15Z</time>
      </trkpt>
      <trkpt lat="48.73034" lon="-3.38104">
        <ele>82</ele>
        <time>2015-02-15T08:04:16Z</time>
      </trkpt>
      <trkpt lat="48.73037" lon="-3.38094">
        <ele>82</ele>
        <time>2015-02-15T08:04:17Z</time>
      </trkpt>
      <trkpt lat="48.7304" lon="-3.38084">
        <ele>82</ele>
        <time>2015-02-15T08:04:18Z</time>
      </trkpt>
      <trkpt lat="48.73042" lon="-3.38075">
        <ele>82</ele>
        <time>2015-02-15T08:04:19Z</time>
      </trkpt>
      <trkpt lat="48.73043" lon="-3.38065">
        <ele>82</ele>
        <time>2015-02-15T08:04:20Z</time>
      </trkpt>
      <trkpt lat="48.73044" lon="-3.38055">
        <ele>82</ele>
        <time>2015-02-15T08:04:21Z</time>
      </trkpt>
      <trkpt lat="48.73045" lon="-3.38046">
        <ele>81</ele>
        <time>2015-02-15T08:04:22Z</time>
      </trkpt>
      <trkpt lat="48.73044" lon="-3.38017">
        <ele>81</ele>
        <time>2015-02-15T08:04:25Z</time>
      </trkpt>
      <trkpt lat="48.73043" lon="-3.38007">
        <ele>81</ele>
        <time>2015-02-15T08:04:26Z</time>
      </trkpt>
      <trkpt lat="48.73042" lon="-3.37997">
        <ele>81</ele>
        <time>2015-02-15T08:04:27Z</time>
      </trkpt>
      <trkpt lat="48.73041" lon="-3.37987">
        <ele>81</ele>
        <time>2015-02-15T08:04:28Z</time>
      </trkpt>
      <trkpt lat="48.7304" lon="-3.37978">
        <ele>81</ele>
        <time>2015-02-15T08:04:29Z</time>
      </trkpt>
      <trkpt lat="48.73038" lon="-3.37968">
        <ele>81</ele>
        <time>2015-02-15T08:04:30Z</time>
      </trkpt>
      <trkpt lat="48.73037" lon="-3.37958">
        <ele>81</ele>
        <time>2015-02-15T08:04:31Z</time>
      </trkpt>
      <trkpt lat="48.73035" lon="-3.37948">
        <ele>80</ele>
        <time>2015-02-15T08:04:32Z</time>
      </trkpt>
      <trkpt lat="48.73034" lon="-3.37939">
        <ele>80</ele>
        <time>2015-02-15T08:04:33Z</time>
      </trkpt>
      <trkpt lat="48.73032" lon="-3.37929">
        <ele>80</ele>
        <time>2015-02-15T08:04:34Z</time>
      </trkpt>
      <trkpt lat="48.73031" lon="-3.3792">
        <ele>80</ele>
        <time>2015-02-15T08:04:35Z</time>
      </trkpt>
      <trkpt lat="48.73029" lon="-3.3791">
        <ele>80</ele>
        <time>2015-02-15T08:04:36Z</time>
      </trkpt>
      <trkpt lat="48.73028" lon="-3.37901">
        <ele>80</ele>
        <time>2015-02-15T08:04:37Z</time>
      </trkpt>
      <trkpt lat="48.73027" lon="-3.37891">
        <ele>80</ele>
        <time>2015-02-15T08:04:38Z</time>
      </trkpt>
      <trkpt lat="48.73026" lon="-3.37882">
        <ele>80</ele>
        <time>2015-02-15T08:04:39Z</time>
      </trkpt>
      <trkpt lat="48.73024" lon="-3.37872">
        <ele>80</ele>
        <time>2015-02-15T08:04:40Z</time>
      </trkpt>
      <trkpt lat="48.73022" lon="-3.37863">
        <ele>80</ele>
        <time>2015-02-15T08:04:41Z</time>
      </trkpt>
      <trkpt lat="48.73021" lon="-3.37853">
        <ele>80</ele>
        <time>2015-02-15T08:04:42Z</time>
      </trkpt>
      <trkpt lat="48.73019" lon="-3.37843">
        <ele>80</ele>
        <time>2015-02-15T08:04:43Z</time>
      </trkpt>
      <trkpt lat="48.73018" lon="-3.37834">
        <ele>80</ele>
        <time>2015-02-15T08:04:44Z</time>
      </trkpt>
      <trkpt lat="48.73017" lon="-3.37824">
        <ele>80</ele>
        <time>2015-02-15T08:04:45Z</time>
      </trkpt>
      <trkpt lat="48.73015" lon="-3.37814">
        <ele>80</ele>
        <time>2015-02-15T08:04:46Z</time>
      </trkpt>
      <trkpt lat="48.73013" lon="-3.37804">
        <ele>80</ele>
        <time>2015-02-15T08:04:47Z</time>
      </trkpt>
      <trkpt lat="48.7301" lon="-3.37794">
        <ele>80</ele>
        <time>2015-02-15T08:04:48Z</time>
      </trkpt>
      <trkpt lat="48.73007" lon="-3.37785">
        <ele>80</ele>
        <time>2015-02-15T08:04:49Z</time>
      </trkpt>
      <trkpt lat="48.73004" lon="-3.37776">
        <ele>80</ele>
        <time>2015-02-15T08:04:50Z</time>
      </trkpt>
      <trkpt lat="48.73" lon="-3.37767">
        <ele>80</ele>
        <time>2015-02-15T08:04:51Z</time>
      </trkpt>
      <trkpt lat="48.72996" lon="-3.37759">
        <ele>80</ele>
        <time>2015-02-15T08:04:52Z</time>
      </trkpt>
      <trkpt lat="48.72991" lon="-3.37752">
        <ele>80</ele>
        <time>2015-02-15T08:04:53Z</time>
      </trkpt>
      <trkpt lat="48.72987" lon="-3.37744">
        <ele>80</ele>
        <time>2015-02-15T08:04:54Z</time>
      </trkpt>
      <trkpt lat="48.72982" lon="-3.37737">
        <ele>80</ele>
        <time>2015-02-15T08:04:55Z</time>
      </trkpt>
      <trkpt lat="48.72978" lon="-3.3773">
        <ele>80</ele>
        <time>2015-02-15T08:04:56Z</time>
      </trkpt>
      <trkpt lat="48.72974" lon="-3.37723">
        <ele>80</ele>
        <time>2015-02-15T08:04:57Z</time>
      </trkpt>
      <trkpt lat="48.72969" lon="-3.37717">
        <ele>80</ele>
        <time>2015-02-15T08:04:58Z</time>
      </trkpt>
      <trkpt lat="48.72964" lon="-3.3771">
        <ele>80</ele>
        <time>2015-02-15T08:04:59Z</time>
      </trkpt>
      <trkpt lat="48.7296" lon="-3.37703">
        <ele>80</ele>
        <time>2015-02-15T08:05:00Z</time>
      </trkpt>
      <trkpt lat="48.72955" lon="-3.37696">
        <ele>80</ele>
        <time>2015-02-15T08:05:01Z</time>
      </trkpt>
      <trkpt lat="48.72951" lon="-3.37689">
        <ele>80</ele>
        <time>2015-02-15T08:05:02Z</time>
      </trkpt>
      <trkpt lat="48.72947" lon="-3.37682">
        <ele>80</ele>
        <time>2015-02-15T08:05:03Z</time>
      </trkpt>
      <trkpt lat="48.72943" lon="-3.37674">
        <ele>80</ele>
        <time>2015-02-15T08:05:04Z</time>
      </trkpt>
      <trkpt lat="48.72939" lon="-3.37665">
        <ele>80</ele>
        <time>2015-02-15T08:05:05Z</time>
      </trkpt>
      <trkpt lat="48.72936" lon="-3.37656">
        <ele>80</ele>
        <time>2015-02-15T08:05:06Z</time>
      </trkpt>
      <trkpt lat="48.72933" lon="-3.37647">
        <ele>80</ele>
        <time>2015-02-15T08:05:07Z</time>
      </trkpt>
      <trkpt lat="48.72931" lon="-3.37637">
        <ele>80</ele>
        <time>2015-02-15T08:05:08Z</time>
      </trkpt>
      <trkpt lat="48.72929" lon="-3.37627">
        <ele>80</ele>
        <time>2015-02-15T08:05:09Z</time>
      </trkpt>
      <trkpt lat="48.72927" lon="-3.37616">
        <ele>80</ele>
        <time>2015-02-15T08:05:10Z</time>
      </trkpt>
      <trkpt lat="48.72926" lon="-3.37606">
        <ele>80</ele>
        <time>2015-02-15T08:05:11Z</time>
      </trkpt>
      <trkpt lat="48.72927" lon="-3.37584">
        <ele>79</ele>
        <time>2015-02-15T08:05:13Z</time>
      </trkpt>
      <trkpt lat="48.72928" lon="-3.37573">
        <ele>79</ele>
        <time>2015-02-15T08:05:14Z</time>
      </trkpt>
      <trkpt lat="48.7293" lon="-3.37563">
        <ele>79</ele>
        <time>2015-02-15T08:05:15Z</time>
      </trkpt>
      <trkpt lat="48.72932" lon="-3.37552">
        <ele>79</ele>
        <time>2015-02-15T08:05:16Z</time>
      </trkpt>
      <trkpt lat="48.72934" lon="-3.37542">
        <ele>78</ele>
        <time>2015-02-15T08:05:17Z</time>
      </trkpt>
      <trkpt lat="48.72937" lon="-3.37532">
        <ele>78</ele>
        <time>2015-02-15T08:05:18Z</time>
      </trkpt>
      <trkpt lat="48.7294" lon="-3.37521">
        <ele>78</ele>
        <time>2015-02-15T08:05:19Z</time>
      </trkpt>
      <trkpt lat="48.72942" lon="-3.37511">
        <ele>78</ele>
        <time>2015-02-15T08:05:20Z</time>
      </trkpt>
      <trkpt lat="48.72945" lon="-3.37501">
        <ele>78</ele>
        <time>2015-02-15T08:05:21Z</time>
      </trkpt>
      <trkpt lat="48.72947" lon="-3.37491">
        <ele>78</ele>
        <time>2015-02-15T08:05:22Z</time>
      </trkpt>
      <trkpt lat="48.7295" lon="-3.37481">
        <ele>77</ele>
        <time>2015-02-15T08:05:23Z</time>
      </trkpt>
      <trkpt lat="48.72953" lon="-3.3747">
        <ele>77</ele>
        <time>2015-02-15T08:05:24Z</time>
      </trkpt>
      <trkpt lat="48.72955" lon="-3.3746">
        <ele>77</ele>
        <time>2015-02-15T08:05:25Z</time>
      </trkpt>
      <trkpt lat="48.72958" lon="-3.37449">
        <ele>77</ele>
        <time>2015-02-15T08:05:26Z</time>
      </trkpt>
      <trkpt lat="48.7296" lon="-3.37439">
        <ele>77</ele>
        <time>2015-02-15T08:05:27Z</time>
      </trkpt>
      <trkpt lat="48.72963" lon="-3.37429">
        <ele>77</ele>
        <time>2015-02-15T08:05:28Z</time>
      </trkpt>
      <trkpt lat="48.72965" lon="-3.37418">
        <ele>76</ele>
        <time>2015-02-15T08:05:29Z</time>
      </trkpt>
      <trkpt lat="48.72966" lon="-3.37407">
        <ele>76</ele>
        <time>2015-02-15T08:05:30Z</time>
      </trkpt>
      <trkpt lat="48.72968" lon="-3.37396">
        <ele>76</ele>
        <time>2015-02-15T08:05:31Z</time>
      </trkpt>
      <trkpt lat="48.72968" lon="-3.37385">
        <ele>76</ele>
        <time>2015-02-15T08:05:32Z</time>
      </trkpt>
      <trkpt lat="48.72969" lon="-3.37374">
        <ele>76</ele>
        <time>2015-02-15T08:05:33Z</time>
      </trkpt>
      <trkpt lat="48.72968" lon="-3.37363">
        <ele>76</ele>
        <time>2015-02-15T08:05:34Z</time>
      </trkpt>
      <trkpt lat="48.72967" lon="-3.37351">
        <ele>75</ele>
        <time>2015-02-15T08:05:35Z</time>
      </trkpt>
      <trkpt lat="48.72965" lon="-3.3734">
        <ele>75</ele>
        <time>2015-02-15T08:05:36Z</time>
      </trkpt>
      <trkpt lat="48.72962" lon="-3.37329">
        <ele>75</ele>
        <time>2015-02-15T08:05:37Z</time>
      </trkpt>
      <trkpt lat="48.72958" lon="-3.3732">
        <ele>75</ele>
        <time>2015-02-15T08:05:38Z</time>
      </trkpt>
      <trkpt lat="48.72953" lon="-3.37311">
        <ele>75</ele>
        <time>2015-02-15T08:05:39Z</time>
      </trkpt>
      <trkpt lat="48.72947" lon="-3.37304">
        <ele>75</ele>
        <time>2015-02-15T08:05:40Z</time>
      </trkpt>
      <trkpt lat="48.72941" lon="-3.37298">
        <ele>75</ele>
        <time>2015-02-15T08:05:41Z</time>
      </trkpt>
      <trkpt lat="48.72935" lon="-3.37292">
        <ele>75</ele>
        <time>2015-02-15T08:05:42Z</time>
      </trkpt>
      <trkpt lat="48.72929" lon="-3.37286">
        <ele>75</ele>
        <time>2015-02-15T08:05:43Z</time>
      </trkpt>
      <trkpt lat="48.72923" lon="-3.3728">
        <ele>75</ele>
        <time>2015-02-15T08:05:44Z</time>
      </trkpt>
      <trkpt lat="48.72917" lon="-3.37275">
        <ele>75</ele>
        <time>2015-02-15T08:05:45Z</time>
      </trkpt>
      <trkpt lat="48.72911" lon="-3.37269">
        <ele>75</ele>
        <time>2015-02-15T08:05:46Z</time>
      </trkpt>
      <trkpt lat="48.72905" lon="-3.37263">
        <ele>75</ele>
        <time>2015-02-15T08:05:47Z</time>
      </trkpt>
      <trkpt lat="48.72898" lon="-3.37257">
        <ele>75</ele>
        <time>2015-02-15T08:05:48Z</time>
      </trkpt>
      <trkpt lat="48.72892" lon="-3.37251">
        <ele>75</ele>
        <time>2015-02-15T08:05:49Z</time>
      </trkpt>
      <trkpt lat="48.72886" lon="-3.37245">
        <ele>75</ele>
        <time>2015-02-15T08:05:50Z</time>
      </trkpt>
      <trkpt lat="48.72879" lon="-3.37239">
        <ele>75</ele>
        <time>2015-02-15T08:05:51Z</time>
      </trkpt>
      <trkpt lat="48.72872" lon="-3.37233">
        <ele>75</ele>
        <time>2015-02-15T08:05:52Z</time>
      </trkpt>
      <trkpt lat="48.72865" lon="-3.37228">
        <ele>75</ele>
        <time>2015-02-15T08:05:53Z</time>
      </trkpt>
      <trkpt lat="48.72858" lon="-3.37223">
        <ele>75</ele>
        <time>2015-02-15T08:05:54Z</time>
      </trkpt>
      <trkpt lat="48.7285" lon="-3.37219">
        <ele>74</ele>
        <time>2015-02-15T08:05:55Z</time>
      </trkpt>
      <trkpt lat="48.72843" lon="-3.37216">
        <ele>74</ele>
        <time>2015-02-15T08:05:56Z</time>
      </trkpt>
      <trkpt lat="48.72835" lon="-3.37212">
        <ele>74</ele>
        <time>2015-02-15T08:05:57Z</time>
      </trkpt>
      <trkpt lat="48.72828" lon="-3.3721">
        <ele>74</ele>
        <time>2015-02-15T08:05:58Z</time>
      </trkpt>
      <trkpt lat="48.7282" lon="-3.37208">
        <ele>74</ele>
        <time>2015-02-15T08:05:59Z</time>
      </trkpt>
      <trkpt lat="48.72812" lon="-3.37206">
        <ele>74</ele>
        <time>2015-02-15T08:06:00Z</time>
      </trkpt>
      <trkpt lat="48.72805" lon="-3.37203">
        <ele>74</ele>
        <time>2015-02-15T08:06:01Z</time>
      </trkpt>
      <trkpt lat="48.72797" lon="-3.37201">
        <ele>74</ele>
        <time>2015-02-15T08:06:02Z</time>
      </trkpt>
      <trkpt lat="48.72789" lon="-3.37199">
        <ele>74</ele>
        <time>2015-02-15T08:06:03Z</time>
      </trkpt>
      <trkpt lat="48.72781" lon="-3.37197">
        <ele>74</ele>
        <time>2015-02-15T08:06:04Z</time>
      </trkpt>
      <trkpt lat="48.72773" lon="-3.37195">
        <ele>74</ele>
        <time>2015-02-15T08:06:05Z</time>
      </trkpt>
      <trkpt lat="48.72765" lon="-3.37193">
        <ele>74</ele>
        <time>2015-02-15T08:06:06Z</time>
      </trkpt>
      <trkpt lat="48.72757" lon="-3.3719">
        <ele>74</ele>
        <time>2015-02-15T08:06:07Z</time>
      </trkpt>
      <trkpt lat="48.7275" lon="-3.37186">
        <ele>74</ele>
        <time>2015-02-15T08:06:08Z</time>
      </trkpt>
      <trkpt lat="48.72742" lon="-3.37182">
        <ele>74</ele>
        <time>2015-02-15T08:06:09Z</time>
      </trkpt>
      <trkpt lat="48.72736" lon="-3.37177">
        <ele>74</ele>
        <time>2015-02-15T08:06:10Z</time>
      </trkpt>
      <trkpt lat="48.72729" lon="-3.37172">
        <ele>74</ele>
        <time>2015-02-15T08:06:11Z</time>
      </trkpt>
      <trkpt lat="48.72723" lon="-3.37166">
        <ele>74</ele>
        <time>2015-02-15T08:06:12Z</time>
      </trkpt>
      <trkpt lat="48.72717" lon="-3.37159">
        <ele>74</ele>
        <time>2015-02-15T08:06:13Z</time>
      </trkpt>
      <trkpt lat="48.7271" lon="-3.37152">
        <ele>74</ele>
        <time>2015-02-15T08:06:14Z</time>
      </trkpt>
      <trkpt lat="48.72705" lon="-3.37143">
        <ele>74</ele>
        <time>2015-02-15T08:06:15Z</time>
      </trkpt>
      <trkpt lat="48.72699" lon="-3.37135">
        <ele>74</ele>
        <time>2015-02-15T08:06:16Z</time>
      </trkpt>
      <trkpt lat="48.72693" lon="-3.37127">
        <ele>73</ele>
        <time>2015-02-15T08:06:17Z</time>
      </trkpt>
      <trkpt lat="48.72687" lon="-3.37119">
        <ele>73</ele>
        <time>2015-02-15T08:06:18Z</time>
      </trkpt>
      <trkpt lat="48.72681" lon="-3.3711">
        <ele>73</ele>
        <time>2015-02-15T08:06:19Z</time>
      </trkpt>
      <trkpt lat="48.72675" lon="-3.37102">
        <ele>73</ele>
        <time>2015-02-15T08:06:20Z</time>
      </trkpt>
      <trkpt lat="48.72669" lon="-3.37093">
        <ele>73</ele>
        <time>2015-02-15T08:06:21Z</time>
      </trkpt>
      <trkpt lat="48.72663" lon="-3.37084">
        <ele>73</ele>
        <time>2015-02-15T08:06:22Z</time>
      </trkpt>
      <trkpt lat="48.72657" lon="-3.37075">
        <ele>72</ele>
        <time>2015-02-15T08:06:23Z</time>
      </trkpt>
      <trkpt lat="48.72652" lon="-3.37065">
        <ele>72</ele>
        <time>2015-02-15T08:06:24Z</time>
      </trkpt>
      <trkpt lat="48.72647" lon="-3.37055">
        <ele>72</ele>
        <time>2015-02-15T08:06:25Z</time>
      </trkpt>
      <trkpt lat="48.72642" lon="-3.37045">
        <ele>72</ele>
        <time>2015-02-15T08:06:26Z</time>
      </trkpt>
      <trkpt lat="48.72638" lon="-3.37033">
        <ele>71</ele>
        <time>2015-02-15T08:06:27Z</time>
      </trkpt>
      <trkpt lat="48.72634" lon="-3.37022">
        <ele>71</ele>
        <time>2015-02-15T08:06:28Z</time>
      </trkpt>
      <trkpt lat="48.72631" lon="-3.3701">
        <ele>71</ele>
        <time>2015-02-15T08:06:29Z</time>
      </trkpt>
      <trkpt lat="48.72628" lon="-3.36997">
        <ele>71</ele>
        <time>2015-02-15T08:06:30Z</time>
      </trkpt>
      <trkpt lat="48.72627" lon="-3.36983">
        <ele>70</ele>
        <time>2015-02-15T08:06:31Z</time>
      </trkpt>
      <trkpt lat="48.72625" lon="-3.3697">
        <ele>70</ele>
        <time>2015-02-15T08:06:32Z</time>
      </trkpt>
      <trkpt lat="48.72625" lon="-3.36956">
        <ele>70</ele>
        <time>2015-02-15T08:06:33Z</time>
      </trkpt>
      <trkpt lat="48.72626" lon="-3.36928">
        <ele>69</ele>
        <time>2015-02-15T08:06:35Z</time>
      </trkpt>
      <trkpt lat="48.72627" lon="-3.36914">
        <ele>69</ele>
        <time>2015-02-15T08:06:36Z</time>
      </trkpt>
      <trkpt lat="48.72628" lon="-3.369">
        <ele>68</ele>
        <time>2015-02-15T08:06:37Z</time>
      </trkpt>
      <trkpt lat="48.7263" lon="-3.36885">
        <ele>68</ele>
        <time>2015-02-15T08:06:38Z</time>
      </trkpt>
      <trkpt lat="48.72633" lon="-3.3687">
        <ele>68</ele>
        <time>2015-02-15T08:06:39Z</time>
      </trkpt>
      <trkpt lat="48.72635" lon="-3.36855">
        <ele>68</ele>
        <time>2015-02-15T08:06:40Z</time>
      </trkpt>
      <trkpt lat="48.72637" lon="-3.36841">
        <ele>67</ele>
        <time>2015-02-15T08:06:41Z</time>
      </trkpt>
      <trkpt lat="48.72639" lon="-3.36826">
        <ele>67</ele>
        <time>2015-02-15T08:06:42Z</time>
      </trkpt>
      <trkpt lat="48.72641" lon="-3.36812">
        <ele>67</ele>
        <time>2015-02-15T08:06:43Z</time>
      </trkpt>
      <trkpt lat="48.72643" lon="-3.36798">
        <ele>67</ele>
        <time>2015-02-15T08:06:44Z</time>
      </trkpt>
      <trkpt lat="48.72645" lon="-3.36784">
        <ele>67</ele>
        <time>2015-02-15T08:06:45Z</time>
      </trkpt>
      <trkpt lat="48.72647" lon="-3.3677">
        <ele>67</ele>
        <time>2015-02-15T08:06:46Z</time>
      </trkpt>
      <trkpt lat="48.72649" lon="-3.36756">
        <ele>67</ele>
        <time>2015-02-15T08:06:47Z</time>
      </trkpt>
      <trkpt lat="48.72651" lon="-3.36742">
        <ele>67</ele>
        <time>2015-02-15T08:06:48Z</time>
      </trkpt>
      <trkpt lat="48.72652" lon="-3.36728">
        <ele>67</ele>
        <time>2015-02-15T08:06:49Z</time>
      </trkpt>
      <trkpt lat="48.72654" lon="-3.36714">
        <ele>66</ele>
        <time>2015-02-15T08:06:50Z</time>
      </trkpt>
      <trkpt lat="48.72654" lon="-3.36699">
        <ele>66</ele>
        <time>2015-02-15T08:06:51Z</time>
      </trkpt>
      <trkpt lat="48.72654" lon="-3.3667">
        <ele>66</ele>
        <time>2015-02-15T08:06:53Z</time>
      </trkpt>
      <trkpt lat="48.72652" lon="-3.36656">
        <ele>66</ele>
        <time>2015-02-15T08:06:54Z</time>
      </trkpt>
      <trkpt lat="48.72651" lon="-3.36642">
        <ele>66</ele>
        <time>2015-02-15T08:06:55Z</time>
      </trkpt>
      <trkpt lat="48.72648" lon="-3.36628">
        <ele>66</ele>
        <time>2015-02-15T08:06:56Z</time>
      </trkpt>
      <trkpt lat="48.72645" lon="-3.36615">
        <ele>66</ele>
        <time>2015-02-15T08:06:57Z</time>
      </trkpt>
      <trkpt lat="48.72641" lon="-3.36602">
        <ele>66</ele>
        <time>2015-02-15T08:06:58Z</time>
      </trkpt>
      <trkpt lat="48.72637" lon="-3.3659">
        <ele>66</ele>
        <time>2015-02-15T08:06:59Z</time>
      </trkpt>
      <trkpt lat="48.72632" lon="-3.36578">
        <ele>66</ele>
        <time>2015-02-15T08:07:00Z</time>
      </trkpt>
      <trkpt lat="48.72627" lon="-3.36567">
        <ele>66</ele>
        <time>2015-02-15T08:07:01Z</time>
      </trkpt>
      <trkpt lat="48.72622" lon="-3.36556">
        <ele>66</ele>
        <time>2015-02-15T08:07:02Z</time>
      </trkpt>
      <trkpt lat="48.72617" lon="-3.36546">
        <ele>66</ele>
        <time>2015-02-15T08:07:03Z</time>
      </trkpt>
      <trkpt lat="48.72612" lon="-3.36536">
        <ele>66</ele>
        <time>2015-02-15T08:07:04Z</time>
      </trkpt>
      <trkpt lat="48.72608" lon="-3.36527">
        <ele>66</ele>
        <time>2015-02-15T08:07:05Z</time>
      </trkpt>
      <trkpt lat="48.72604" lon="-3.36517">
        <ele>66</ele>
        <time>2015-02-15T08:07:06Z</time>
      </trkpt>
      <trkpt lat="48.72599" lon="-3.36508">
        <ele>66</ele>
        <time>2015-02-15T08:07:07Z</time>
      </trkpt>
      <trkpt lat="48.72596" lon="-3.36498">
        <ele>66</ele>
        <time>2015-02-15T08:07:08Z</time>
      </trkpt>
      <trkpt lat="48.72592" lon="-3.36488">
        <ele>66</ele>
        <time>2015-02-15T08:07:09Z</time>
      </trkpt>
      <trkpt lat="48.72589" lon="-3.36478">
        <ele>66</ele>
        <time>2015-02-15T08:07:10Z</time>
      </trkpt>
      <trkpt lat="48.72587" lon="-3.36468">
        <ele>66</ele>
        <time>2015-02-15T08:07:11Z</time>
      </trkpt>
      <trkpt lat="48.72585" lon="-3.36457">
        <ele>66</ele>
        <time>2015-02-15T08:07:12Z</time>
      </trkpt>
      <trkpt lat="48.72583" lon="-3.36446">
        <ele>66</ele>
        <time>2015-02-15T08:07:13Z</time>
      </trkpt>
      <trkpt lat="48.72583" lon="-3.36434">
        <ele>66</ele>
        <time>2015-02-15T08:07:14Z</time>
      </trkpt>
      <trkpt lat="48.72583" lon="-3.36422">
        <ele>66</ele>
        <time>2015-02-15T08:07:15Z</time>
      </trkpt>
      <trkpt lat="48.72585" lon="-3.36411">
        <ele>66</ele>
        <time>2015-02-15T08:07:16Z</time>
      </trkpt>
      <trkpt lat="48.72587" lon="-3.36399">
        <ele>66</ele>
        <time>2015-02-15T08:07:17Z</time>
      </trkpt>
      <trkpt lat="48.72589" lon="-3.36388">
        <ele>66</ele>
        <time>2015-02-15T08:07:18Z</time>
      </trkpt>
      <trkpt lat="48.72592" lon="-3.36377">
        <ele>66</ele>
        <time>2015-02-15T08:07:19Z</time>
      </trkpt>
      <trkpt lat="48.72596" lon="-3.36365">
        <ele>66</ele>
        <time>2015-02-15T08:07:20Z</time>
      </trkpt>
      <trkpt lat="48.726" lon="-3.36355">
        <ele>66</ele>
        <time>2015-02-15T08:07:21Z</time>
      </trkpt>
      <trkpt lat="48.72605" lon="-3.36344">
        <ele>65</ele>
        <time>2015-02-15T08:07:22Z</time>
      </trkpt>
      <trkpt lat="48.7261" lon="-3.36334">
        <ele>65</ele>
        <time>2015-02-15T08:07:23Z</time>
      </trkpt>
      <trkpt lat="48.72616" lon="-3.36324">
        <ele>65</ele>
        <time>2015-02-15T08:07:24Z</time>
      </trkpt>
      <trkpt lat="48.72622" lon="-3.36315">
        <ele>65</ele>
        <time>2015-02-15T08:07:25Z</time>
      </trkpt>
      <trkpt lat="48.72627" lon="-3.36305">
        <ele>64</ele>
        <time>2015-02-15T08:07:26Z</time>
      </trkpt>
      <trkpt lat="48.72633" lon="-3.36295">
        <ele>64</ele>
        <time>2015-02-15T08:07:27Z</time>
      </trkpt>
      <trkpt lat="48.72639" lon="-3.36285">
        <ele>63</ele>
        <time>2015-02-15T08:07:28Z</time>
      </trkpt>
      <trkpt lat="48.72644" lon="-3.36274">
        <ele>63</ele>
        <time>2015-02-15T08:07:29Z</time>
      </trkpt>
      <trkpt lat="48.7265" lon="-3.36263">
        <ele>63</ele>
        <time>2015-02-15T08:07:30Z</time>
      </trkpt>
      <trkpt lat="48.72655" lon="-3.36252">
        <ele>62</ele>
        <time>2015-02-15T08:07:31Z</time>
      </trkpt>
      <trkpt lat="48.7266" lon="-3.36241">
        <ele>62</ele>
        <time>2015-02-15T08:07:32Z</time>
      </trkpt>
      <trkpt lat="48.72664" lon="-3.36229">
        <ele>61</ele>
        <time>2015-02-15T08:07:33Z</time>
      </trkpt>
      <trkpt lat="48.72667" lon="-3.36218">
        <ele>61</ele>
        <time>2015-02-15T08:07:34Z</time>
      </trkpt>
      <trkpt lat="48.7267" lon="-3.36207">
        <ele>60</ele>
        <time>2015-02-15T08:07:35Z</time>
      </trkpt>
      <trkpt lat="48.72673" lon="-3.36195">
        <ele>59</ele>
        <time>2015-02-15T08:07:36Z</time>
      </trkpt>
      <trkpt lat="48.72676" lon="-3.36182">
        <ele>59</ele>
        <time>2015-02-15T08:07:37Z</time>
      </trkpt>
      <trkpt lat="48.72679" lon="-3.36169">
        <ele>58</ele>
        <time>2015-02-15T08:07:38Z</time>
      </trkpt>
      <trkpt lat="48.72682" lon="-3.36154">
        <ele>57</ele>
        <time>2015-02-15T08:07:39Z</time>
      </trkpt>
      <trkpt lat="48.72684" lon="-3.36139">
        <ele>56</ele>
        <time>2015-02-15T08:07:40Z</time>
      </trkpt>
      <trkpt lat="48.72687" lon="-3.36125">
        <ele>55</ele>
        <time>2015-02-15T08:07:41Z</time>
      </trkpt>
      <trkpt lat="48.72689" lon="-3.3611">
        <ele>54</ele>
        <time>2015-02-15T08:07:42Z</time>
      </trkpt>
      <trkpt lat="48.72692" lon="-3.36095">
        <ele>53</ele>
        <time>2015-02-15T08:07:43Z</time>
      </trkpt>
      <trkpt lat="48.72694" lon="-3.36079">
        <ele>52</ele>
        <time>2015-02-15T08:07:44Z</time>
      </trkpt>
      <trkpt lat="48.72696" lon="-3.36063">
        <ele>51</ele>
        <time>2015-02-15T08:07:45Z</time>
      </trkpt>
      <trkpt lat="48.72697" lon="-3.36046">
        <ele>50</ele>
        <time>2015-02-15T08:07:46Z</time>
      </trkpt>
      <trkpt lat="48.72698" lon="-3.36028">
        <ele>49</ele>
        <time>2015-02-15T08:07:47Z</time>
      </trkpt>
      <trkpt lat="48.72697" lon="-3.35991">
        <ele>47</ele>
        <time>2015-02-15T08:07:49Z</time>
      </trkpt>
      <trkpt lat="48.72696" lon="-3.35971">
        <ele>46</ele>
        <time>2015-02-15T08:07:50Z</time>
      </trkpt>
      <trkpt lat="48.72694" lon="-3.35952">
        <ele>45</ele>
        <time>2015-02-15T08:07:51Z</time>
      </trkpt>
      <trkpt lat="48.72691" lon="-3.35933">
        <ele>44</ele>
        <time>2015-02-15T08:07:52Z</time>
      </trkpt>
      <trkpt lat="48.72689" lon="-3.35914">
        <ele>43</ele>
        <time>2015-02-15T08:07:53Z</time>
      </trkpt>
      <trkpt lat="48.72688" lon="-3.35896">
        <ele>43</ele>
        <time>2015-02-15T08:07:54Z</time>
      </trkpt>
      <trkpt lat="48.72687" lon="-3.35878">
        <ele>43</ele>
        <time>2015-02-15T08:07:55Z</time>
      </trkpt>
      <trkpt lat="48.72688" lon="-3.35847">
        <ele>43</ele>
        <time>2015-02-15T08:07:57Z</time>
      </trkpt>
      <trkpt lat="48.72689" lon="-3.35833">
        <ele>43</ele>
        <time>2015-02-15T08:07:58Z</time>
      </trkpt>
      <trkpt lat="48.72691" lon="-3.35819">
        <ele>43</ele>
        <time>2015-02-15T08:07:59Z</time>
      </trkpt>
      <trkpt lat="48.72693" lon="-3.35807">
        <ele>43</ele>
        <time>2015-02-15T08:08:00Z</time>
      </trkpt>
      <trkpt lat="48.72695" lon="-3.35795">
        <ele>43</ele>
        <time>2015-02-15T08:08:01Z</time>
      </trkpt>
      <trkpt lat="48.72697" lon="-3.35783">
        <ele>43</ele>
        <time>2015-02-15T08:08:02Z</time>
      </trkpt>
      <trkpt lat="48.72699" lon="-3.35772">
        <ele>43</ele>
        <time>2015-02-15T08:08:03Z</time>
      </trkpt>
      <trkpt lat="48.72702" lon="-3.35762">
        <ele>43</ele>
        <time>2015-02-15T08:08:04Z</time>
      </trkpt>
      <trkpt lat="48.72704" lon="-3.35752">
        <ele>43</ele>
        <time>2015-02-15T08:08:05Z</time>
      </trkpt>
      <trkpt lat="48.72707" lon="-3.35743">
        <ele>43</ele>
        <time>2015-02-15T08:08:06Z</time>
      </trkpt>
      <trkpt lat="48.72709" lon="-3.35735">
        <ele>43</ele>
        <time>2015-02-15T08:08:07Z</time>
      </trkpt>
      <trkpt lat="48.72711" lon="-3.35727">
        <ele>44</ele>
        <time>2015-02-15T08:08:08Z</time>
      </trkpt>
      <trkpt lat="48.72713" lon="-3.35719">
        <ele>44</ele>
        <time>2015-02-15T08:08:09Z</time>
      </trkpt>
      <trkpt lat="48.72716" lon="-3.3571">
        <ele>45</ele>
        <time>2015-02-15T08:08:10Z</time>
      </trkpt>
      <trkpt lat="48.72718" lon="-3.35702">
        <ele>45</ele>
        <time>2015-02-15T08:08:11Z</time>
      </trkpt>
      <trkpt lat="48.7272" lon="-3.35694">
        <ele>45</ele>
        <time>2015-02-15T08:08:12Z</time>
      </trkpt>
      <trkpt lat="48.72722" lon="-3.35685">
        <ele>45</ele>
        <time>2015-02-15T08:08:13Z</time>
      </trkpt>
      <trkpt lat="48.72724" lon="-3.35677">
        <ele>46</ele>
        <time>2015-02-15T08:08:14Z</time>
      </trkpt>
      <trkpt lat="48.72726" lon="-3.35668">
        <ele>46</ele>
        <time>2015-02-15T08:08:15Z</time>
      </trkpt>
      <trkpt lat="48.72728" lon="-3.35659">
        <ele>46</ele>
        <time>2015-02-15T08:08:16Z</time>
      </trkpt>
      <trkpt lat="48.72729" lon="-3.3565">
        <ele>46</ele>
        <time>2015-02-15T08:08:17Z</time>
      </trkpt>
      <trkpt lat="48.72731" lon="-3.35641">
        <ele>46</ele>
        <time>2015-02-15T08:08:18Z</time>
      </trkpt>
      <trkpt lat="48.72732" lon="-3.35632">
        <ele>46</ele>
        <time>2015-02-15T08:08:19Z</time>
      </trkpt>
      <trkpt lat="48.72733" lon="-3.35624">
        <ele>46</ele>
        <time>2015-02-15T08:08:20Z</time>
      </trkpt>
      <trkpt lat="48.72734" lon="-3.35615">
        <ele>47</ele>
        <time>2015-02-15T08:08:21Z</time>
      </trkpt>
      <trkpt lat="48.72735" lon="-3.35607">
        <ele>47</ele>
        <time>2015-02-15T08:08:22Z</time>
      </trkpt>
      <trkpt lat="48.72736" lon="-3.35599">
        <ele>47</ele>
        <time>2015-02-15T08:08:23Z</time>
      </trkpt>
      <trkpt lat="48.72738" lon="-3.35591">
        <ele>48</ele>
        <time>2015-02-15T08:08:24Z</time>
      </trkpt>
      <trkpt lat="48.72739" lon="-3.35584">
        <ele>48</ele>
        <time>2015-02-15T08:08:25Z</time>
      </trkpt>
      <trkpt lat="48.7274" lon="-3.35576">
        <ele>48</ele>
        <time>2015-02-15T08:08:26Z</time>
      </trkpt>
      <trkpt lat="48.72742" lon="-3.35568">
        <ele>48</ele>
        <time>2015-02-15T08:08:27Z</time>
      </trkpt>
      <trkpt lat="48.72744" lon="-3.3556">
        <ele>49</ele>
        <time>2015-02-15T08:08:28Z</time>
      </trkpt>
      <trkpt lat="48.72746" lon="-3.35553">
        <ele>49</ele>
        <time>2015-02-15T08:08:29Z</time>
      </trkpt>
      <trkpt lat="48.72749" lon="-3.35545">
        <ele>49</ele>
        <time>2015-02-15T08:08:30Z</time>
      </trkpt>
      <trkpt lat="48.72752" lon="-3.35537">
        <ele>49</ele>
        <time>2015-02-15T08:08:31Z</time>
      </trkpt>
      <trkpt lat="48.72755" lon="-3.35529">
        <ele>49</ele>
        <time>2015-02-15T08:08:32Z</time>
      </trkpt>
      <trkpt lat="48.72758" lon="-3.35521">
        <ele>49</ele>
        <time>2015-02-15T08:08:33Z</time>
      </trkpt>
      <trkpt lat="48.72763" lon="-3.35513">
        <ele>49</ele>
        <time>2015-02-15T08:08:34Z</time>
      </trkpt>
      <trkpt lat="48.72767" lon="-3.35504">
        <ele>49</ele>
        <time>2015-02-15T08:08:35Z</time>
      </trkpt>
      <trkpt lat="48.72771" lon="-3.35496">
        <ele>49</ele>
        <time>2015-02-15T08:08:36Z</time>
      </trkpt>
      <trkpt lat="48.72776" lon="-3.35487">
        <ele>49</ele>
        <time>2015-02-15T08:08:37Z</time>
      </trkpt>
      <trkpt lat="48.72782" lon="-3.35478">
        <ele>49</ele>
        <time>2015-02-15T08:08:38Z</time>
      </trkpt>
      <trkpt lat="48.72787" lon="-3.35468">
        <ele>49</ele>
        <time>2015-02-15T08:08:39Z</time>
      </trkpt>
      <trkpt lat="48.72792" lon="-3.35458">
        <ele>49</ele>
        <time>2015-02-15T08:08:40Z</time>
      </trkpt>
      <trkpt lat="48.72797" lon="-3.35447">
        <ele>49</ele>
        <time>2015-02-15T08:08:41Z</time>
      </trkpt>
      <trkpt lat="48.72801" lon="-3.35435">
        <ele>49</ele>
        <time>2015-02-15T08:08:42Z</time>
      </trkpt>
      <trkpt lat="48.72805" lon="-3.35423">
        <ele>49</ele>
        <time>2015-02-15T08:08:43Z</time>
      </trkpt>
      <trkpt lat="48.72809" lon="-3.3541">
        <ele>49</ele>
        <time>2015-02-15T08:08:44Z</time>
      </trkpt>
      <trkpt lat="48.72813" lon="-3.35398">
        <ele>49</ele>
        <time>2015-02-15T08:08:45Z</time>
      </trkpt>
      <trkpt lat="48.72817" lon="-3.35385">
        <ele>49</ele>
        <time>2015-02-15T08:08:46Z</time>
      </trkpt>
      <trkpt lat="48.72821" lon="-3.35374">
        <ele>49</ele>
        <time>2015-02-15T08:08:47Z</time>
      </trkpt>
      <trkpt lat="48.72826" lon="-3.35362">
        <ele>49</ele>
        <time>2015-02-15T08:08:48Z</time>
      </trkpt>
      <trkpt lat="48.7283" lon="-3.3535">
        <ele>49</ele>
        <time>2015-02-15T08:08:49Z</time>
      </trkpt>
      <trkpt lat="48.72834" lon="-3.35339">
        <ele>49</ele>
        <time>2015-02-15T08:08:50Z</time>
      </trkpt>
      <trkpt lat="48.72837" lon="-3.35327">
        <ele>49</ele>
        <time>2015-02-15T08:08:51Z</time>
      </trkpt>
      <trkpt lat="48.72841" lon="-3.35316">
        <ele>49</ele>
        <time>2015-02-15T08:08:52Z</time>
      </trkpt>
      <trkpt lat="48.72845" lon="-3.35304">
        <ele>49</ele>
        <time>2015-02-15T08:08:53Z</time>
      </trkpt>
      <trkpt lat="48.72849" lon="-3.35293">
        <ele>49</ele>
        <time>2015-02-15T08:08:54Z</time>
      </trkpt>
      <trkpt lat="48.72853" lon="-3.35281">
        <ele>49</ele>
        <time>2015-02-15T08:08:55Z</time>
      </trkpt>
      <trkpt lat="48.72857" lon="-3.35269">
        <ele>49</ele>
        <time>2015-02-15T08:08:56Z</time>
      </trkpt>
      <trkpt lat="48.7286" lon="-3.35258">
        <ele>49</ele>
        <time>2015-02-15T08:08:57Z</time>
      </trkpt>
      <trkpt lat="48.72863" lon="-3.35247">
        <ele>49</ele>
        <time>2015-02-15T08:08:58Z</time>
      </trkpt>
      <trkpt lat="48.72865" lon="-3.35236">
        <ele>49</ele>
        <time>2015-02-15T08:08:59Z</time>
      </trkpt>
      <trkpt lat="48.72867" lon="-3.35226">
        <ele>49</ele>
        <time>2015-02-15T08:09:00Z</time>
      </trkpt>
      <trkpt lat="48.72868" lon="-3.35215">
        <ele>49</ele>
        <time>2015-02-15T08:09:01Z</time>
      </trkpt>
      <trkpt lat="48.72869" lon="-3.35205">
        <ele>49</ele>
        <time>2015-02-15T08:09:02Z</time>
      </trkpt>
      <trkpt lat="48.7287" lon="-3.35194">
        <ele>49</ele>
        <time>2015-02-15T08:09:03Z</time>
      </trkpt>
      <trkpt lat="48.72869" lon="-3.35174">
        <ele>49</ele>
        <time>2015-02-15T08:09:05Z</time>
      </trkpt>
      <trkpt lat="48.72868" lon="-3.35165">
        <ele>49</ele>
        <time>2015-02-15T08:09:06Z</time>
      </trkpt>
      <trkpt lat="48.72866" lon="-3.35156">
        <ele>49</ele>
        <time>2015-02-15T08:09:07Z</time>
      </trkpt>
      <trkpt lat="48.72863" lon="-3.35147">
        <ele>49</ele>
        <time>2015-02-15T08:09:08Z</time>
      </trkpt>
      <trkpt lat="48.72861" lon="-3.3514">
        <ele>49</ele>
        <time>2015-02-15T08:09:09Z</time>
      </trkpt>
      <trkpt lat="48.72858" lon="-3.35133">
        <ele>49</ele>
        <time>2015-02-15T08:09:10Z</time>
      </trkpt>
      <trkpt lat="48.72856" lon="-3.35126">
        <ele>49</ele>
        <time>2015-02-15T08:09:11Z</time>
      </trkpt>
      <trkpt lat="48.72853" lon="-3.35119">
        <ele>49</ele>
        <time>2015-02-15T08:09:12Z</time>
      </trkpt>
      <trkpt lat="48.72852" lon="-3.35113">
        <ele>49</ele>
        <time>2015-02-15T08:09:13Z</time>
      </trkpt>
      <trkpt lat="48.7285" lon="-3.35106">
        <ele>49</ele>
        <time>2015-02-15T08:09:14Z</time>
      </trkpt>
      <trkpt lat="48.72849" lon="-3.351">
        <ele>49</ele>
        <time>2015-02-15T08:09:15Z</time>
      </trkpt>
      <trkpt lat="48.72847" lon="-3.35094">
        <ele>49</ele>
        <time>2015-02-15T08:09:16Z</time>
      </trkpt>
      <trkpt lat="48.72847" lon="-3.35088">
        <ele>49</ele>
        <time>2015-02-15T08:09:17Z</time>
      </trkpt>
      <trkpt lat="48.72846" lon="-3.35082">
        <ele>49</ele>
        <time>2015-02-15T08:09:18Z</time>
      </trkpt>
      <trkpt lat="48.72845" lon="-3.35076">
        <ele>49</ele>
        <time>2015-02-15T08:09:19Z</time>
      </trkpt>
      <trkpt lat="48.72845" lon="-3.3507">
        <ele>49</ele>
        <time>2015-02-15T08:09:20Z</time>
      </trkpt>
      <trkpt lat="48.72844" lon="-3.35063">
        <ele>49</ele>
        <time>2015-02-15T08:09:21Z</time>
      </trkpt>
      <trkpt lat="48.72845" lon="-3.35006">
        <ele>52</ele>
        <time>2015-02-15T08:09:31Z</time>
      </trkpt>
      <trkpt lat="48.72845" lon="-3.34995">
        <ele>53</ele>
        <time>2015-02-15T08:09:33Z</time>
      </trkpt>
      <trkpt lat="48.72845" lon="-3.34972">
        <ele>54</ele>
        <time>2015-02-15T08:09:37Z</time>
      </trkpt>
      <trkpt lat="48.72845" lon="-3.34954">
        <ele>55</ele>
        <time>2015-02-15T08:09:40Z</time>
      </trkpt>
      <trkpt lat="48.72845" lon="-3.34943">
        <ele>56</ele>
        <time>2015-02-15T08:09:42Z</time>
      </trkpt>
      <trkpt lat="48.72844" lon="-3.34937">
        <ele>56</ele>
        <time>2015-02-15T08:09:43Z</time>
      </trkpt>
      <trkpt lat="48.72844" lon="-3.34931">
        <ele>57</ele>
        <time>2015-02-15T08:09:44Z</time>
      </trkpt>
      <trkpt lat="48.72844" lon="-3.34926">
        <ele>57</ele>
        <time>2015-02-15T08:09:45Z</time>
      </trkpt>
      <trkpt lat="48.72843" lon="-3.34921">
        <ele>57</ele>
        <time>2015-02-15T08:09:46Z</time>
      </trkpt>
      <trkpt lat="48.72843" lon="-3.34915">
        <ele>58</ele>
        <time>2015-02-15T08:09:47Z</time>
      </trkpt>
      <trkpt lat="48.72842" lon="-3.3491">
        <ele>58</ele>
        <time>2015-02-15T08:09:48Z</time>
      </trkpt>
      <trkpt lat="48.72842" lon="-3.34905">
        <ele>59</ele>
        <time>2015-02-15T08:09:49Z</time>
      </trkpt>
      <trkpt lat="48.72841" lon="-3.34893">
        <ele>59</ele>
        <time>2015-02-15T08:09:51Z</time>
      </trkpt>
      <trkpt lat="48.72841" lon="-3.34887">
        <ele>60</ele>
        <time>2015-02-15T08:09:52Z</time>
      </trkpt>
      <trkpt lat="48.7284" lon="-3.34875">
        <ele>61</ele>
        <time>2015-02-15T08:09:54Z</time>
      </trkpt>
      <trkpt lat="48.7284" lon="-3.34847">
        <ele>62</ele>
        <time>2015-02-15T08:09:58Z</time>
      </trkpt>
      <trkpt lat="48.72839" lon="-3.34826">
        <ele>62</ele>
        <time>2015-02-15T08:10:01Z</time>
      </trkpt>
      <trkpt lat="48.72839" lon="-3.34811">
        <ele>63</ele>
        <time>2015-02-15T08:10:03Z</time>
      </trkpt>
      <trkpt lat="48.72838" lon="-3.34804">
        <ele>63</ele>
        <time>2015-02-15T08:10:04Z</time>
      </trkpt>
      <trkpt lat="48.72837" lon="-3.34797">
        <ele>64</ele>
        <time>2015-02-15T08:10:05Z</time>
      </trkpt>
      <trkpt lat="48.72837" lon="-3.34789">
        <ele>64</ele>
        <time>2015-02-15T08:10:06Z</time>
      </trkpt>
      <trkpt lat="48.72836" lon="-3.34782">
        <ele>65</ele>
        <time>2015-02-15T08:10:07Z</time>
      </trkpt>
      <trkpt lat="48.72835" lon="-3.34775">
        <ele>65</ele>
        <time>2015-02-15T08:10:08Z</time>
      </trkpt>
      <trkpt lat="48.72834" lon="-3.34769">
        <ele>65</ele>
        <time>2015-02-15T08:10:09Z</time>
      </trkpt>
      <trkpt lat="48.72832" lon="-3.34762">
        <ele>65</ele>
        <time>2015-02-15T08:10:10Z</time>
      </trkpt>
      <trkpt lat="48.72831" lon="-3.34756">
        <ele>66</ele>
        <time>2015-02-15T08:10:11Z</time>
      </trkpt>
      <trkpt lat="48.72829" lon="-3.3475">
        <ele>66</ele>
        <time>2015-02-15T08:10:12Z</time>
      </trkpt>
      <trkpt lat="48.72827" lon="-3.34744">
        <ele>66</ele>
        <time>2015-02-15T08:10:13Z</time>
      </trkpt>
      <trkpt lat="48.72825" lon="-3.34737">
        <ele>66</ele>
        <time>2015-02-15T08:10:14Z</time>
      </trkpt>
      <trkpt lat="48.72823" lon="-3.34732">
        <ele>67</ele>
        <time>2015-02-15T08:10:15Z</time>
      </trkpt>
      <trkpt lat="48.7282" lon="-3.34726">
        <ele>67</ele>
        <time>2015-02-15T08:10:16Z</time>
      </trkpt>
      <trkpt lat="48.72818" lon="-3.34719">
        <ele>67</ele>
        <time>2015-02-15T08:10:17Z</time>
      </trkpt>
      <trkpt lat="48.72815" lon="-3.34714">
        <ele>68</ele>
        <time>2015-02-15T08:10:18Z</time>
      </trkpt>
      <trkpt lat="48.72813" lon="-3.34708">
        <ele>68</ele>
        <time>2015-02-15T08:10:19Z</time>
      </trkpt>
      <trkpt lat="48.7281" lon="-3.34702">
        <ele>68</ele>
        <time>2015-02-15T08:10:20Z</time>
      </trkpt>
      <trkpt lat="48.72808" lon="-3.34696">
        <ele>69</ele>
        <time>2015-02-15T08:10:21Z</time>
      </trkpt>
      <trkpt lat="48.72806" lon="-3.34691">
        <ele>69</ele>
        <time>2015-02-15T08:10:22Z</time>
      </trkpt>
      <trkpt lat="48.72804" lon="-3.34685">
        <ele>69</ele>
        <time>2015-02-15T08:10:23Z</time>
      </trkpt>
      <trkpt lat="48.72801" lon="-3.3468">
        <ele>70</ele>
        <time>2015-02-15T08:10:24Z</time>
      </trkpt>
      <trkpt lat="48.72799" lon="-3.34674">
        <ele>70</ele>
        <time>2015-02-15T08:10:25Z</time>
      </trkpt>
      <trkpt lat="48.72796" lon="-3.34669">
        <ele>70</ele>
        <time>2015-02-15T08:10:26Z</time>
      </trkpt>
      <trkpt lat="48.72794" lon="-3.34663">
        <ele>70</ele>
        <time>2015-02-15T08:10:27Z</time>
      </trkpt>
      <trkpt lat="48.72792" lon="-3.34658">
        <ele>71</ele>
        <time>2015-02-15T08:10:28Z</time>
      </trkpt>
      <trkpt lat="48.72789" lon="-3.34652">
        <ele>71</ele>
        <time>2015-02-15T08:10:29Z</time>
      </trkpt>
      <trkpt lat="48.72787" lon="-3.34646">
        <ele>71</ele>
        <time>2015-02-15T08:10:30Z</time>
      </trkpt>
      <trkpt lat="48.72785" lon="-3.34641">
        <ele>72</ele>
        <time>2015-02-15T08:10:31Z</time>
      </trkpt>
      <trkpt lat="48.72783" lon="-3.34635">
        <ele>72</ele>
        <time>2015-02-15T08:10:32Z</time>
      </trkpt>
      <trkpt lat="48.72781" lon="-3.3463">
        <ele>72</ele>
        <time>2015-02-15T08:10:33Z</time>
      </trkpt>
      <trkpt lat="48.72778" lon="-3.34626">
        <ele>73</ele>
        <time>2015-02-15T08:10:34Z</time>
      </trkpt>
      <trkpt lat="48.72776" lon="-3.34621">
        <ele>73</ele>
        <time>2015-02-15T08:10:35Z</time>
      </trkpt>
      <trkpt lat="48.72774" lon="-3.34616">
        <ele>73</ele>
        <time>2015-02-15T08:10:36Z</time>
      </trkpt>
      <trkpt lat="48.72772" lon="-3.34611">
        <ele>73</ele>
        <time>2015-02-15T08:10:37Z</time>
      </trkpt>
      <trkpt lat="48.7277" lon="-3.34606">
        <ele>74</ele>
        <time>2015-02-15T08:10:38Z</time>
      </trkpt>
      <trkpt lat="48.72768" lon="-3.34601">
        <ele>74</ele>
        <time>2015-02-15T08:10:39Z</time>
      </trkpt>
      <trkpt lat="48.72766" lon="-3.34596">
        <ele>74</ele>
        <time>2015-02-15T08:10:40Z</time>
      </trkpt>
      <trkpt lat="48.72763" lon="-3.34591">
        <ele>74</ele>
        <time>2015-02-15T08:10:41Z</time>
      </trkpt>
      <trkpt lat="48.72761" lon="-3.34586">
        <ele>75</ele>
        <time>2015-02-15T08:10:42Z</time>
      </trkpt>
      <trkpt lat="48.72759" lon="-3.3458">
        <ele>75</ele>
        <time>2015-02-15T08:10:43Z</time>
      </trkpt>
      <trkpt lat="48.72757" lon="-3.34575">
        <ele>75</ele>
        <time>2015-02-15T08:10:44Z</time>
      </trkpt>
      <trkpt lat="48.72754" lon="-3.3457">
        <ele>75</ele>
        <time>2015-02-15T08:10:45Z</time>
      </trkpt>
      <trkpt lat="48.72752" lon="-3.34565">
        <ele>75</ele>
        <time>2015-02-15T08:10:46Z</time>
      </trkpt>
      <trkpt lat="48.72749" lon="-3.34559">
        <ele>76</ele>
        <time>2015-02-15T08:10:47Z</time>
      </trkpt>
      <trkpt lat="48.72747" lon="-3.34554">
        <ele>76</ele>
        <time>2015-02-15T08:10:48Z</time>
      </trkpt>
      <trkpt lat="48.72744" lon="-3.34549">
        <ele>76</ele>
        <time>2015-02-15T08:10:49Z</time>
      </trkpt>
      <trkpt lat="48.72742" lon="-3.34544">
        <ele>76</ele>
        <time>2015-02-15T08:10:50Z</time>
      </trkpt>
      <trkpt lat="48.7274" lon="-3.3454">
        <ele>77</ele>
        <time>2015-02-15T08:10:51Z</time>
      </trkpt>
      <trkpt lat="48.72738" lon="-3.34534">
        <ele>77</ele>
        <time>2015-02-15T08:10:52Z</time>
      </trkpt>
      <trkpt lat="48.72735" lon="-3.34529">
        <ele>77</ele>
        <time>2015-02-15T08:10:53Z</time>
      </trkpt>
      <trkpt lat="48.72733" lon="-3.34524">
        <ele>77</ele>
        <time>2015-02-15T08:10:54Z</time>
      </trkpt>
      <trkpt lat="48.72731" lon="-3.34519">
        <ele>78</ele>
        <time>2015-02-15T08:10:55Z</time>
      </trkpt>
      <trkpt lat="48.72728" lon="-3.34513">
        <ele>78</ele>
        <time>2015-02-15T08:10:56Z</time>
      </trkpt>
      <trkpt lat="48.72726" lon="-3.34507">
        <ele>78</ele>
        <time>2015-02-15T08:10:57Z</time>
      </trkpt>
      <trkpt lat="48.72724" lon="-3.34501">
        <ele>78</ele>
        <time>2015-02-15T08:10:58Z</time>
      </trkpt>
      <trkpt lat="48.72722" lon="-3.34496">
        <ele>78</ele>
        <time>2015-02-15T08:10:59Z</time>
      </trkpt>
      <trkpt lat="48.7272" lon="-3.3449">
        <ele>79</ele>
        <time>2015-02-15T08:11:00Z</time>
      </trkpt>
      <trkpt lat="48.72718" lon="-3.34485">
        <ele>79</ele>
        <time>2015-02-15T08:11:01Z</time>
      </trkpt>
      <trkpt lat="48.72715" lon="-3.3448">
        <ele>79</ele>
        <time>2015-02-15T08:11:02Z</time>
      </trkpt>
      <trkpt lat="48.72713" lon="-3.34474">
        <ele>79</ele>
        <time>2015-02-15T08:11:03Z</time>
      </trkpt>
      <trkpt lat="48.7271" lon="-3.34469">
        <ele>79</ele>
        <time>2015-02-15T08:11:04Z</time>
      </trkpt>
      <trkpt lat="48.72708" lon="-3.34463">
        <ele>79</ele>
        <time>2015-02-15T08:11:05Z</time>
      </trkpt>
      <trkpt lat="48.72706" lon="-3.34457">
        <ele>79</ele>
        <time>2015-02-15T08:11:06Z</time>
      </trkpt>
      <trkpt lat="48.72703" lon="-3.34452">
        <ele>80</ele>
        <time>2015-02-15T08:11:07Z</time>
      </trkpt>
      <trkpt lat="48.72701" lon="-3.34447">
        <ele>80</ele>
        <time>2015-02-15T08:11:08Z</time>
      </trkpt>
      <trkpt lat="48.72698" lon="-3.34441">
        <ele>80</ele>
        <time>2015-02-15T08:11:09Z</time>
      </trkpt>
      <trkpt lat="48.72696" lon="-3.34436">
        <ele>80</ele>
        <time>2015-02-15T08:11:10Z</time>
      </trkpt>
      <trkpt lat="48.72693" lon="-3.34431">
        <ele>80</ele>
        <time>2015-02-15T08:11:11Z</time>
      </trkpt>
      <trkpt lat="48.7269" lon="-3.34426">
        <ele>80</ele>
        <time>2015-02-15T08:11:12Z</time>
      </trkpt>
      <trkpt lat="48.72688" lon="-3.3442">
        <ele>81</ele>
        <time>2015-02-15T08:11:13Z</time>
      </trkpt>
      <trkpt lat="48.72685" lon="-3.34415">
        <ele>81</ele>
        <time>2015-02-15T08:11:14Z</time>
      </trkpt>
      <trkpt lat="48.72682" lon="-3.34411">
        <ele>81</ele>
        <time>2015-02-15T08:11:15Z</time>
      </trkpt>
      <trkpt lat="48.72679" lon="-3.34405">
        <ele>81</ele>
        <time>2015-02-15T08:11:16Z</time>
      </trkpt>
      <trkpt lat="48.72676" lon="-3.34401">
        <ele>81</ele>
        <time>2015-02-15T08:11:17Z</time>
      </trkpt>
      <trkpt lat="48.72673" lon="-3.34396">
        <ele>81</ele>
        <time>2015-02-15T08:11:18Z</time>
      </trkpt>
      <trkpt lat="48.7267" lon="-3.34391">
        <ele>82</ele>
        <time>2015-02-15T08:11:19Z</time>
      </trkpt>
      <trkpt lat="48.72668" lon="-3.34385">
        <ele>82</ele>
        <time>2015-02-15T08:11:20Z</time>
      </trkpt>
      <trkpt lat="48.72665" lon="-3.3438">
        <ele>82</ele>
        <time>2015-02-15T08:11:21Z</time>
      </trkpt>
      <trkpt lat="48.72662" lon="-3.34375">
        <ele>82</ele>
        <time>2015-02-15T08:11:22Z</time>
      </trkpt>
      <trkpt lat="48.72659" lon="-3.34369">
        <ele>82</ele>
        <time>2015-02-15T08:11:23Z</time>
      </trkpt>
      <trkpt lat="48.72656" lon="-3.34363">
        <ele>82</ele>
        <time>2015-02-15T08:11:24Z</time>
      </trkpt>
      <trkpt lat="48.72653" lon="-3.34358">
        <ele>82</ele>
        <time>2015-02-15T08:11:25Z</time>
      </trkpt>
      <trkpt lat="48.7265" lon="-3.34352">
        <ele>82</ele>
        <time>2015-02-15T08:11:26Z</time>
      </trkpt>
      <trkpt lat="48.72647" lon="-3.34347">
        <ele>83</ele>
        <time>2015-02-15T08:11:27Z</time>
      </trkpt>
      <trkpt lat="48.72644" lon="-3.34341">
        <ele>83</ele>
        <time>2015-02-15T08:11:28Z</time>
      </trkpt>
      <trkpt lat="48.72641" lon="-3.34335">
        <ele>83</ele>
        <time>2015-02-15T08:11:29Z</time>
      </trkpt>
      <trkpt lat="48.72638" lon="-3.3433">
        <ele>83</ele>
        <time>2015-02-15T08:11:30Z</time>
      </trkpt>
      <trkpt lat="48.72636" lon="-3.34325">
        <ele>83</ele>
        <time>2015-02-15T08:11:31Z</time>
      </trkpt>
      <trkpt lat="48.72633" lon="-3.3432">
        <ele>83</ele>
        <time>2015-02-15T08:11:32Z</time>
      </trkpt>
      <trkpt lat="48.7263" lon="-3.34314">
        <ele>83</ele>
        <time>2015-02-15T08:11:33Z</time>
      </trkpt>
      <trkpt lat="48.72628" lon="-3.3431">
        <ele>83</ele>
        <time>2015-02-15T08:11:34Z</time>
      </trkpt>
      <trkpt lat="48.72625" lon="-3.34305">
        <ele>83</ele>
        <time>2015-02-15T08:11:35Z</time>
      </trkpt>
      <trkpt lat="48.72622" lon="-3.343">
        <ele>83</ele>
        <time>2015-02-15T08:11:36Z</time>
      </trkpt>
      <trkpt lat="48.7262" lon="-3.34295">
        <ele>84</ele>
        <time>2015-02-15T08:11:37Z</time>
      </trkpt>
      <trkpt lat="48.72617" lon="-3.3429">
        <ele>84</ele>
        <time>2015-02-15T08:11:38Z</time>
      </trkpt>
      <trkpt lat="48.72615" lon="-3.34285">
        <ele>84</ele>
        <time>2015-02-15T08:11:39Z</time>
      </trkpt>
      <trkpt lat="48.72612" lon="-3.3428">
        <ele>84</ele>
        <time>2015-02-15T08:11:40Z</time>
      </trkpt>
      <trkpt lat="48.72609" lon="-3.34275">
        <ele>84</ele>
        <time>2015-02-15T08:11:41Z</time>
      </trkpt>
      <trkpt lat="48.72607" lon="-3.3427">
        <ele>84</ele>
        <time>2015-02-15T08:11:42Z</time>
      </trkpt>
      <trkpt lat="48.72604" lon="-3.34265">
        <ele>84</ele>
        <time>2015-02-15T08:11:43Z</time>
      </trkpt>
      <trkpt lat="48.72602" lon="-3.3426">
        <ele>84</ele>
        <time>2015-02-15T08:11:44Z</time>
      </trkpt>
      <trkpt lat="48.72599" lon="-3.34254">
        <ele>85</ele>
        <time>2015-02-15T08:11:45Z</time>
      </trkpt>
      <trkpt lat="48.72597" lon="-3.34249">
        <ele>85</ele>
        <time>2015-02-15T08:11:46Z</time>
      </trkpt>
      <trkpt lat="48.72594" lon="-3.34244">
        <ele>85</ele>
        <time>2015-02-15T08:11:47Z</time>
      </trkpt>
      <trkpt lat="48.72591" lon="-3.34239">
        <ele>85</ele>
        <time>2015-02-15T08:11:48Z</time>
      </trkpt>
      <trkpt lat="48.72589" lon="-3.34233">
        <ele>85</ele>
        <time>2015-02-15T08:11:49Z</time>
      </trkpt>
      <trkpt lat="48.72586" lon="-3.34227">
        <ele>85</ele>
        <time>2015-02-15T08:11:50Z</time>
      </trkpt>
      <trkpt lat="48.72583" lon="-3.34222">
        <ele>85</ele>
        <time>2015-02-15T08:11:51Z</time>
      </trkpt>
      <trkpt lat="48.7258" lon="-3.34216">
        <ele>85</ele>
        <time>2015-02-15T08:11:52Z</time>
      </trkpt>
      <trkpt lat="48.72577" lon="-3.34211">
        <ele>85</ele>
        <time>2015-02-15T08:11:53Z</time>
      </trkpt>
      <trkpt lat="48.72575" lon="-3.34206">
        <ele>85</ele>
        <time>2015-02-15T08:11:54Z</time>
      </trkpt>
      <trkpt lat="48.72572" lon="-3.342">
        <ele>86</ele>
        <time>2015-02-15T08:11:55Z</time>
      </trkpt>
      <trkpt lat="48.72569" lon="-3.34195">
        <ele>86</ele>
        <time>2015-02-15T08:11:56Z</time>
      </trkpt>
      <trkpt lat="48.72567" lon="-3.34189">
        <ele>86</ele>
        <time>2015-02-15T08:11:57Z</time>
      </trkpt>
      <trkpt lat="48.72564" lon="-3.34183">
        <ele>86</ele>
        <time>2015-02-15T08:11:58Z</time>
      </trkpt>
      <trkpt lat="48.72562" lon="-3.34177">
        <ele>86</ele>
        <time>2015-02-15T08:11:59Z</time>
      </trkpt>
      <trkpt lat="48.72559" lon="-3.34171">
        <ele>86</ele>
        <time>2015-02-15T08:12:00Z</time>
      </trkpt>
      <trkpt lat="48.72557" lon="-3.34164">
        <ele>86</ele>
        <time>2015-02-15T08:12:01Z</time>
      </trkpt>
      <trkpt lat="48.72555" lon="-3.34157">
        <ele>86</ele>
        <time>2015-02-15T08:12:02Z</time>
      </trkpt>
      <trkpt lat="48.72552" lon="-3.34151">
        <ele>86</ele>
        <time>2015-02-15T08:12:03Z</time>
      </trkpt>
      <trkpt lat="48.7255" lon="-3.34144">
        <ele>86</ele>
        <time>2015-02-15T08:12:04Z</time>
      </trkpt>
      <trkpt lat="48.72548" lon="-3.34137">
        <ele>86</ele>
        <time>2015-02-15T08:12:05Z</time>
      </trkpt>
      <trkpt lat="48.72545" lon="-3.3413">
        <ele>87</ele>
        <time>2015-02-15T08:12:06Z</time>
      </trkpt>
      <trkpt lat="48.72543" lon="-3.34123">
        <ele>87</ele>
        <time>2015-02-15T08:12:07Z</time>
      </trkpt>
      <trkpt lat="48.7254" lon="-3.34116">
        <ele>87</ele>
        <time>2015-02-15T08:12:08Z</time>
      </trkpt>
      <trkpt lat="48.72538" lon="-3.3411">
        <ele>87</ele>
        <time>2015-02-15T08:12:09Z</time>
      </trkpt>
      <trkpt lat="48.72535" lon="-3.34103">
        <ele>87</ele>
        <time>2015-02-15T08:12:10Z</time>
      </trkpt>
      <trkpt lat="48.72533" lon="-3.34097">
        <ele>87</ele>
        <time>2015-02-15T08:12:11Z</time>
      </trkpt>
      <trkpt lat="48.7253" lon="-3.3409">
        <ele>87</ele>
        <time>2015-02-15T08:12:12Z</time>
      </trkpt>
      <trkpt lat="48.72528" lon="-3.34084">
        <ele>87</ele>
        <time>2015-02-15T08:12:13Z</time>
      </trkpt>
      <trkpt lat="48.72526" lon="-3.34078">
        <ele>87</ele>
        <time>2015-02-15T08:12:14Z</time>
      </trkpt>
      <trkpt lat="48.72523" lon="-3.34071">
        <ele>87</ele>
        <time>2015-02-15T08:12:15Z</time>
      </trkpt>
      <trkpt lat="48.72521" lon="-3.34065">
        <ele>87</ele>
        <time>2015-02-15T08:12:16Z</time>
      </trkpt>
      <trkpt lat="48.72519" lon="-3.34058">
        <ele>87</ele>
        <time>2015-02-15T08:12:17Z</time>
      </trkpt>
      <trkpt lat="48.72517" lon="-3.34052">
        <ele>87</ele>
        <time>2015-02-15T08:12:18Z</time>
      </trkpt>
      <trkpt lat="48.72514" lon="-3.34045">
        <ele>87</ele>
        <time>2015-02-15T08:12:19Z</time>
      </trkpt>
      <trkpt lat="48.72512" lon="-3.34037">
        <ele>87</ele>
        <time>2015-02-15T08:12:20Z</time>
      </trkpt>
      <trkpt lat="48.72509" lon="-3.3403">
        <ele>87</ele>
        <time>2015-02-15T08:12:21Z</time>
      </trkpt>
      <trkpt lat="48.72507" lon="-3.34023">
        <ele>87</ele>
        <time>2015-02-15T08:12:22Z</time>
      </trkpt>
      <trkpt lat="48.72504" lon="-3.34016">
        <ele>87</ele>
        <time>2015-02-15T08:12:23Z</time>
      </trkpt>
      <trkpt lat="48.72502" lon="-3.34009">
        <ele>88</ele>
        <time>2015-02-15T08:12:24Z</time>
      </trkpt>
      <trkpt lat="48.72499" lon="-3.34002">
        <ele>88</ele>
        <time>2015-02-15T08:12:25Z</time>
      </trkpt>
      <trkpt lat="48.72497" lon="-3.33994">
        <ele>88</ele>
        <time>2015-02-15T08:12:26Z</time>
      </trkpt>
      <trkpt lat="48.72495" lon="-3.33987">
        <ele>88</ele>
        <time>2015-02-15T08:12:27Z</time>
      </trkpt>
      <trkpt lat="48.72492" lon="-3.33979">
        <ele>88</ele>
        <time>2015-02-15T08:12:28Z</time>
      </trkpt>
      <trkpt lat="48.72489" lon="-3.33972">
        <ele>88</ele>
        <time>2015-02-15T08:12:29Z</time>
      </trkpt>
      <trkpt lat="48.72486" lon="-3.33964">
        <ele>88</ele>
        <time>2015-02-15T08:12:30Z</time>
      </trkpt>
      <trkpt lat="48.72483" lon="-3.33956">
        <ele>88</ele>
        <time>2015-02-15T08:12:31Z</time>
      </trkpt>
      <trkpt lat="48.7248" lon="-3.33948">
        <ele>88</ele>
        <time>2015-02-15T08:12:32Z</time>
      </trkpt>
      <trkpt lat="48.72477" lon="-3.33941">
        <ele>88</ele>
        <time>2015-02-15T08:12:33Z</time>
      </trkpt>
      <trkpt lat="48.72474" lon="-3.33933">
        <ele>88</ele>
        <time>2015-02-15T08:12:34Z</time>
      </trkpt>
      <trkpt lat="48.72471" lon="-3.33926">
        <ele>88</ele>
        <time>2015-02-15T08:12:35Z</time>
      </trkpt>
      <trkpt lat="48.72469" lon="-3.33918">
        <ele>89</ele>
        <time>2015-02-15T08:12:36Z</time>
      </trkpt>
      <trkpt lat="48.72466" lon="-3.33911">
        <ele>89</ele>
        <time>2015-02-15T08:12:37Z</time>
      </trkpt>
      <trkpt lat="48.72463" lon="-3.33904">
        <ele>89</ele>
        <time>2015-02-15T08:12:38Z</time>
      </trkpt>
      <trkpt lat="48.72461" lon="-3.33898">
        <ele>89</ele>
        <time>2015-02-15T08:12:39Z</time>
      </trkpt>
      <trkpt lat="48.72459" lon="-3.33891">
        <ele>89</ele>
        <time>2015-02-15T08:12:40Z</time>
      </trkpt>
      <trkpt lat="48.72456" lon="-3.33885">
        <ele>89</ele>
        <time>2015-02-15T08:12:41Z</time>
      </trkpt>
      <trkpt lat="48.72454" lon="-3.33879">
        <ele>89</ele>
        <time>2015-02-15T08:12:42Z</time>
      </trkpt>
      <trkpt lat="48.72452" lon="-3.33874">
        <ele>89</ele>
        <time>2015-02-15T08:12:43Z</time>
      </trkpt>
      <trkpt lat="48.7245" lon="-3.33869">
        <ele>89</ele>
        <time>2015-02-15T08:12:44Z</time>
      </trkpt>
      <trkpt lat="48.72448" lon="-3.33864">
        <ele>89</ele>
        <time>2015-02-15T08:12:45Z</time>
      </trkpt>
      <trkpt lat="48.72447" lon="-3.33859">
        <ele>89</ele>
        <time>2015-02-15T08:12:46Z</time>
      </trkpt>
      <trkpt lat="48.72445" lon="-3.33854">
        <ele>89</ele>
        <time>2015-02-15T08:12:47Z</time>
      </trkpt>
      <trkpt lat="48.72443" lon="-3.33849">
        <ele>90</ele>
        <time>2015-02-15T08:12:48Z</time>
      </trkpt>
      <trkpt lat="48.72441" lon="-3.33844">
        <ele>90</ele>
        <time>2015-02-15T08:12:49Z</time>
      </trkpt>
      <trkpt lat="48.7244" lon="-3.33839">
        <ele>90</ele>
        <time>2015-02-15T08:12:50Z</time>
      </trkpt>
      <trkpt lat="48.72438" lon="-3.33833">
        <ele>90</ele>
        <time>2015-02-15T08:12:51Z</time>
      </trkpt>
      <trkpt lat="48.72435" lon="-3.33827">
        <ele>90</ele>
        <time>2015-02-15T08:12:52Z</time>
      </trkpt>
      <trkpt lat="48.72433" lon="-3.33822">
        <ele>90</ele>
        <time>2015-02-15T08:12:53Z</time>
      </trkpt>
      <trkpt lat="48.72431" lon="-3.33816">
        <ele>90</ele>
        <time>2015-02-15T08:12:54Z</time>
      </trkpt>
      <trkpt lat="48.72429" lon="-3.33811">
        <ele>90</ele>
        <time>2015-02-15T08:12:55Z</time>
      </trkpt>
      <trkpt lat="48.72427" lon="-3.33805">
        <ele>90</ele>
        <time>2015-02-15T08:12:56Z</time>
      </trkpt>
      <trkpt lat="48.72425" lon="-3.338">
        <ele>90</ele>
        <time>2015-02-15T08:12:57Z</time>
      </trkpt>
      <trkpt lat="48.72423" lon="-3.33794">
        <ele>90</ele>
        <time>2015-02-15T08:12:58Z</time>
      </trkpt>
      <trkpt lat="48.72421" lon="-3.33788">
        <ele>90</ele>
        <time>2015-02-15T08:12:59Z</time>
      </trkpt>
      <trkpt lat="48.72419" lon="-3.33782">
        <ele>90</ele>
        <time>2015-02-15T08:13:00Z</time>
      </trkpt>
      <trkpt lat="48.72417" lon="-3.33777">
        <ele>90</ele>
        <time>2015-02-15T08:13:01Z</time>
      </trkpt>
      <trkpt lat="48.72415" lon="-3.3377">
        <ele>90</ele>
        <time>2015-02-15T08:13:02Z</time>
      </trkpt>
      <trkpt lat="48.72413" lon="-3.33764">
        <ele>90</ele>
        <time>2015-02-15T08:13:03Z</time>
      </trkpt>
      <trkpt lat="48.72411" lon="-3.33757">
        <ele>90</ele>
        <time>2015-02-15T08:13:04Z</time>
      </trkpt>
      <trkpt lat="48.72409" lon="-3.33751">
        <ele>90</ele>
        <time>2015-02-15T08:13:05Z</time>
      </trkpt>
      <trkpt lat="48.72406" lon="-3.33744">
        <ele>90</ele>
        <time>2015-02-15T08:13:06Z</time>
      </trkpt>
      <trkpt lat="48.72404" lon="-3.33737">
        <ele>90</ele>
        <time>2015-02-15T08:13:07Z</time>
      </trkpt>
      <trkpt lat="48.72402" lon="-3.3373">
        <ele>90</ele>
        <time>2015-02-15T08:13:08Z</time>
      </trkpt>
      <trkpt lat="48.72401" lon="-3.33724">
        <ele>90</ele>
        <time>2015-02-15T08:13:09Z</time>
      </trkpt>
      <trkpt lat="48.72398" lon="-3.33718">
        <ele>90</ele>
        <time>2015-02-15T08:13:10Z</time>
      </trkpt>
      <trkpt lat="48.72396" lon="-3.33711">
        <ele>90</ele>
        <time>2015-02-15T08:13:11Z</time>
      </trkpt>
      <trkpt lat="48.72394" lon="-3.33705">
        <ele>90</ele>
        <time>2015-02-15T08:13:12Z</time>
      </trkpt>
      <trkpt lat="48.72392" lon="-3.33698">
        <ele>90</ele>
        <time>2015-02-15T08:13:13Z</time>
      </trkpt>
      <trkpt lat="48.72389" lon="-3.33691">
        <ele>90</ele>
        <time>2015-02-15T08:13:14Z</time>
      </trkpt>
      <trkpt lat="48.72387" lon="-3.33684">
        <ele>90</ele>
        <time>2015-02-15T08:13:15Z</time>
      </trkpt>
      <trkpt lat="48.72384" lon="-3.33676">
        <ele>90</ele>
        <time>2015-02-15T08:13:16Z</time>
      </trkpt>
      <trkpt lat="48.72381" lon="-3.33668">
        <ele>90</ele>
        <time>2015-02-15T08:13:17Z</time>
      </trkpt>
      <trkpt lat="48.72378" lon="-3.33661">
        <ele>90</ele>
        <time>2015-02-15T08:13:18Z</time>
      </trkpt>
      <trkpt lat="48.72375" lon="-3.33653">
        <ele>90</ele>
        <time>2015-02-15T08:13:19Z</time>
      </trkpt>
      <trkpt lat="48.72372" lon="-3.33645">
        <ele>90</ele>
        <time>2015-02-15T08:13:20Z</time>
      </trkpt>
      <trkpt lat="48.72369" lon="-3.33636">
        <ele>90</ele>
        <time>2015-02-15T08:13:21Z</time>
      </trkpt>
      <trkpt lat="48.72366" lon="-3.33628">
        <ele>90</ele>
        <time>2015-02-15T08:13:22Z</time>
      </trkpt>
      <trkpt lat="48.72363" lon="-3.33621">
        <ele>90</ele>
        <time>2015-02-15T08:13:23Z</time>
      </trkpt>
      <trkpt lat="48.72361" lon="-3.33613">
        <ele>90</ele>
        <time>2015-02-15T08:13:24Z</time>
      </trkpt>
      <trkpt lat="48.72358" lon="-3.33606">
        <ele>90</ele>
        <time>2015-02-15T08:13:25Z</time>
      </trkpt>
      <trkpt lat="48.72355" lon="-3.33599">
        <ele>90</ele>
        <time>2015-02-15T08:13:26Z</time>
      </trkpt>
      <trkpt lat="48.72352" lon="-3.33592">
        <ele>90</ele>
        <time>2015-02-15T08:13:27Z</time>
      </trkpt>
      <trkpt lat="48.7235" lon="-3.33585">
        <ele>90</ele>
        <time>2015-02-15T08:13:28Z</time>
      </trkpt>
      <trkpt lat="48.72347" lon="-3.33578">
        <ele>90</ele>
        <time>2015-02-15T08:13:29Z</time>
      </trkpt>
      <trkpt lat="48.72345" lon="-3.3357">
        <ele>90</ele>
        <time>2015-02-15T08:13:30Z</time>
      </trkpt>
      <trkpt lat="48.72343" lon="-3.33562">
        <ele>90</ele>
        <time>2015-02-15T08:13:31Z</time>
      </trkpt>
      <trkpt lat="48.7234" lon="-3.33554">
        <ele>90</ele>
        <time>2015-02-15T08:13:32Z</time>
      </trkpt>
      <trkpt lat="48.72338" lon="-3.33546">
        <ele>90</ele>
        <time>2015-02-15T08:13:33Z</time>
      </trkpt>
      <trkpt lat="48.72336" lon="-3.33537">
        <ele>90</ele>
        <time>2015-02-15T08:13:34Z</time>
      </trkpt>
      <trkpt lat="48.72335" lon="-3.33528">
        <ele>90</ele>
        <time>2015-02-15T08:13:35Z</time>
      </trkpt>
      <trkpt lat="48.72333" lon="-3.3352">
        <ele>90</ele>
        <time>2015-02-15T08:13:36Z</time>
      </trkpt>
      <trkpt lat="48.72332" lon="-3.33511">
        <ele>90</ele>
        <time>2015-02-15T08:13:37Z</time>
      </trkpt>
      <trkpt lat="48.72332" lon="-3.33502">
        <ele>90</ele>
        <time>2015-02-15T08:13:38Z</time>
      </trkpt>
      <trkpt lat="48.72331" lon="-3.33493">
        <ele>90</ele>
        <time>2015-02-15T08:13:39Z</time>
      </trkpt>
      <trkpt lat="48.72331" lon="-3.33485">
        <ele>90</ele>
        <time>2015-02-15T08:13:40Z</time>
      </trkpt>
      <trkpt lat="48.7233" lon="-3.3346">
        <ele>90</ele>
        <time>2015-02-15T08:13:43Z</time>
      </trkpt>
      <trkpt lat="48.72329" lon="-3.33451">
        <ele>90</ele>
        <time>2015-02-15T08:13:44Z</time>
      </trkpt>
      <trkpt lat="48.72328" lon="-3.33443">
        <ele>90</ele>
        <time>2015-02-15T08:13:45Z</time>
      </trkpt>
      <trkpt lat="48.72327" lon="-3.33435">
        <ele>90</ele>
        <time>2015-02-15T08:13:46Z</time>
      </trkpt>
      <trkpt lat="48.72326" lon="-3.33426">
        <ele>90</ele>
        <time>2015-02-15T08:13:47Z</time>
      </trkpt>
      <trkpt lat="48.72325" lon="-3.33417">
        <ele>90</ele>
        <time>2015-02-15T08:13:48Z</time>
      </trkpt>
      <trkpt lat="48.72324" lon="-3.33408">
        <ele>90</ele>
        <time>2015-02-15T08:13:49Z</time>
      </trkpt>
      <trkpt lat="48.72322" lon="-3.33399">
        <ele>90</ele>
        <time>2015-02-15T08:13:50Z</time>
      </trkpt>
      <trkpt lat="48.72321" lon="-3.3339">
        <ele>90</ele>
        <time>2015-02-15T08:13:51Z</time>
      </trkpt>
      <trkpt lat="48.72319" lon="-3.33381">
        <ele>90</ele>
        <time>2015-02-15T08:13:52Z</time>
      </trkpt>
      <trkpt lat="48.72318" lon="-3.33371">
        <ele>90</ele>
        <time>2015-02-15T08:13:53Z</time>
      </trkpt>
      <trkpt lat="48.72317" lon="-3.33361">
        <ele>90</ele>
        <time>2015-02-15T08:13:54Z</time>
      </trkpt>
      <trkpt lat="48.72316" lon="-3.33352">
        <ele>90</ele>
        <time>2015-02-15T08:13:55Z</time>
      </trkpt>
      <trkpt lat="48.72316" lon="-3.33342">
        <ele>90</ele>
        <time>2015-02-15T08:13:56Z</time>
      </trkpt>
      <trkpt lat="48.72316" lon="-3.33332">
        <ele>90</ele>
        <time>2015-02-15T08:13:57Z</time>
      </trkpt>
      <trkpt lat="48.72316" lon="-3.33322">
        <ele>90</ele>
        <time>2015-02-15T08:13:58Z</time>
      </trkpt>
      <trkpt lat="48.72316" lon="-3.33313">
        <ele>90</ele>
        <time>2015-02-15T08:13:59Z</time>
      </trkpt>
      <trkpt lat="48.72315" lon="-3.33302">
        <ele>90</ele>
        <time>2015-02-15T08:14:00Z</time>
      </trkpt>
      <trkpt lat="48.72314" lon="-3.33292">
        <ele>90</ele>
        <time>2015-02-15T08:14:01Z</time>
      </trkpt>
      <trkpt lat="48.72313" lon="-3.33282">
        <ele>90</ele>
        <time>2015-02-15T08:14:02Z</time>
      </trkpt>
      <trkpt lat="48.72312" lon="-3.33271">
        <ele>90</ele>
        <time>2015-02-15T08:14:03Z</time>
      </trkpt>
      <trkpt lat="48.7231" lon="-3.33261">
        <ele>90</ele>
        <time>2015-02-15T08:14:04Z</time>
      </trkpt>
      <trkpt lat="48.72308" lon="-3.3325">
        <ele>90</ele>
        <time>2015-02-15T08:14:05Z</time>
      </trkpt>
      <trkpt lat="48.72306" lon="-3.33239">
        <ele>90</ele>
        <time>2015-02-15T08:14:06Z</time>
      </trkpt>
      <trkpt lat="48.72304" lon="-3.33227">
        <ele>90</ele>
        <time>2015-02-15T08:14:07Z</time>
      </trkpt>
      <trkpt lat="48.72302" lon="-3.33215">
        <ele>90</ele>
        <time>2015-02-15T08:14:08Z</time>
      </trkpt>
      <trkpt lat="48.72299" lon="-3.33203">
        <ele>90</ele>
        <time>2015-02-15T08:14:09Z</time>
      </trkpt>
      <trkpt lat="48.72296" lon="-3.3319">
        <ele>90</ele>
        <time>2015-02-15T08:14:10Z</time>
      </trkpt>
      <trkpt lat="48.72293" lon="-3.33179">
        <ele>89</ele>
        <time>2015-02-15T08:14:11Z</time>
      </trkpt>
      <trkpt lat="48.7229" lon="-3.33167">
        <ele>89</ele>
        <time>2015-02-15T08:14:12Z</time>
      </trkpt>
      <trkpt lat="48.72287" lon="-3.33155">
        <ele>89</ele>
        <time>2015-02-15T08:14:13Z</time>
      </trkpt>
      <trkpt lat="48.72284" lon="-3.33142">
        <ele>89</ele>
        <time>2015-02-15T08:14:14Z</time>
      </trkpt>
      <trkpt lat="48.72282" lon="-3.3313">
        <ele>88</ele>
        <time>2015-02-15T08:14:15Z</time>
      </trkpt>
      <trkpt lat="48.7228" lon="-3.33117">
        <ele>88</ele>
        <time>2015-02-15T08:14:16Z</time>
      </trkpt>
      <trkpt lat="48.72277" lon="-3.33104">
        <ele>88</ele>
        <time>2015-02-15T08:14:17Z</time>
      </trkpt>
      <trkpt lat="48.72275" lon="-3.33091">
        <ele>87</ele>
        <time>2015-02-15T08:14:18Z</time>
      </trkpt>
      <trkpt lat="48.72273" lon="-3.33078">
        <ele>87</ele>
        <time>2015-02-15T08:14:19Z</time>
      </trkpt>
      <trkpt lat="48.72271" lon="-3.33064">
        <ele>86</ele>
        <time>2015-02-15T08:14:20Z</time>
      </trkpt>
      <trkpt lat="48.72268" lon="-3.3305">
        <ele>86</ele>
        <time>2015-02-15T08:14:21Z</time>
      </trkpt>
      <trkpt lat="48.72266" lon="-3.33036">
        <ele>86</ele>
        <time>2015-02-15T08:14:22Z</time>
      </trkpt>
      <trkpt lat="48.72263" lon="-3.33022">
        <ele>86</ele>
        <time>2015-02-15T08:14:23Z</time>
      </trkpt>
      <trkpt lat="48.72261" lon="-3.33008">
        <ele>85</ele>
        <time>2015-02-15T08:14:24Z</time>
      </trkpt>
      <trkpt lat="48.72259" lon="-3.32994">
        <ele>85</ele>
        <time>2015-02-15T08:14:25Z</time>
      </trkpt>
      <trkpt lat="48.72257" lon="-3.3298">
        <ele>85</ele>
        <time>2015-02-15T08:14:26Z</time>
      </trkpt>
      <trkpt lat="48.72255" lon="-3.32966">
        <ele>85</ele>
        <time>2015-02-15T08:14:27Z</time>
      </trkpt>
      <trkpt lat="48.72253" lon="-3.32953">
        <ele>85</ele>
        <time>2015-02-15T08:14:28Z</time>
      </trkpt>
      <trkpt lat="48.72252" lon="-3.32939">
        <ele>85</ele>
        <time>2015-02-15T08:14:29Z</time>
      </trkpt>
      <trkpt lat="48.7225" lon="-3.32926">
        <ele>85</ele>
        <time>2015-02-15T08:14:30Z</time>
      </trkpt>
      <trkpt lat="48.72248" lon="-3.32912">
        <ele>85</ele>
        <time>2015-02-15T08:14:31Z</time>
      </trkpt>
      <trkpt lat="48.72247" lon="-3.32898">
        <ele>84</ele>
        <time>2015-02-15T08:14:32Z</time>
      </trkpt>
      <trkpt lat="48.72246" lon="-3.32885">
        <ele>84</ele>
        <time>2015-02-15T08:14:33Z</time>
      </trkpt>
      <trkpt lat="48.72245" lon="-3.32871">
        <ele>84</ele>
        <time>2015-02-15T08:14:34Z</time>
      </trkpt>
      <trkpt lat="48.72243" lon="-3.32857">
        <ele>84</ele>
        <time>2015-02-15T08:14:35Z</time>
      </trkpt>
      <trkpt lat="48.72242" lon="-3.32844">
        <ele>84</ele>
        <time>2015-02-15T08:14:36Z</time>
      </trkpt>
      <trkpt lat="48.72241" lon="-3.3283">
        <ele>83</ele>
        <time>2015-02-15T08:14:37Z</time>
      </trkpt>
      <trkpt lat="48.7224" lon="-3.32816">
        <ele>83</ele>
        <time>2015-02-15T08:14:38Z</time>
      </trkpt>
      <trkpt lat="48.72238" lon="-3.32803">
        <ele>83</ele>
        <time>2015-02-15T08:14:39Z</time>
      </trkpt>
      <trkpt lat="48.72237" lon="-3.32789">
        <ele>83</ele>
        <time>2015-02-15T08:14:40Z</time>
      </trkpt>
      <trkpt lat="48.72235" lon="-3.32776">
        <ele>83</ele>
        <time>2015-02-15T08:14:41Z</time>
      </trkpt>
      <trkpt lat="48.72233" lon="-3.32763">
        <ele>82</ele>
        <time>2015-02-15T08:14:42Z</time>
      </trkpt>
      <trkpt lat="48.7223" lon="-3.32749">
        <ele>82</ele>
        <time>2015-02-15T08:14:43Z</time>
      </trkpt>
      <trkpt lat="48.72227" lon="-3.32736">
        <ele>82</ele>
        <time>2015-02-15T08:14:44Z</time>
      </trkpt>
      <trkpt lat="48.72224" lon="-3.32724">
        <ele>82</ele>
        <time>2015-02-15T08:14:45Z</time>
      </trkpt>
      <trkpt lat="48.7222" lon="-3.32712">
        <ele>82</ele>
        <time>2015-02-15T08:14:46Z</time>
      </trkpt>
      <trkpt lat="48.72217" lon="-3.327">
        <ele>82</ele>
        <time>2015-02-15T08:14:47Z</time>
      </trkpt>
      <trkpt lat="48.72213" lon="-3.32688">
        <ele>82</ele>
        <time>2015-02-15T08:14:48Z</time>
      </trkpt>
      <trkpt lat="48.72211" lon="-3.32676">
        <ele>82</ele>
        <time>2015-02-15T08:14:49Z</time>
      </trkpt>
      <trkpt lat="48.72209" lon="-3.32663">
        <ele>82</ele>
        <time>2015-02-15T08:14:50Z</time>
      </trkpt>
      <trkpt lat="48.72208" lon="-3.32652">
        <ele>82</ele>
        <time>2015-02-15T08:14:51Z</time>
      </trkpt>
      <trkpt lat="48.72207" lon="-3.3264">
        <ele>82</ele>
        <time>2015-02-15T08:14:52Z</time>
      </trkpt>
      <trkpt lat="48.72207" lon="-3.32619">
        <ele>81</ele>
        <time>2015-02-15T08:14:54Z</time>
      </trkpt>
      <trkpt lat="48.72206" lon="-3.32598">
        <ele>81</ele>
        <time>2015-02-15T08:14:56Z</time>
      </trkpt>
      <trkpt lat="48.72205" lon="-3.32577">
        <ele>80</ele>
        <time>2015-02-15T08:14:58Z</time>
      </trkpt>
      <trkpt lat="48.72205" lon="-3.32567">
        <ele>80</ele>
        <time>2015-02-15T08:14:59Z</time>
      </trkpt>
      <trkpt lat="48.72204" lon="-3.32556">
        <ele>80</ele>
        <time>2015-02-15T08:15:00Z</time>
      </trkpt>
      <trkpt lat="48.72203" lon="-3.32545">
        <ele>80</ele>
        <time>2015-02-15T08:15:01Z</time>
      </trkpt>
      <trkpt lat="48.72203" lon="-3.32534">
        <ele>79</ele>
        <time>2015-02-15T08:15:02Z</time>
      </trkpt>
      <trkpt lat="48.72202" lon="-3.32523">
        <ele>79</ele>
        <time>2015-02-15T08:15:03Z</time>
      </trkpt>
      <trkpt lat="48.72202" lon="-3.32512">
        <ele>79</ele>
        <time>2015-02-15T08:15:04Z</time>
      </trkpt>
      <trkpt lat="48.72202" lon="-3.32501">
        <ele>79</ele>
        <time>2015-02-15T08:15:05Z</time>
      </trkpt>
      <trkpt lat="48.72201" lon="-3.3248">
        <ele>79</ele>
        <time>2015-02-15T08:15:07Z</time>
      </trkpt>
      <trkpt lat="48.72201" lon="-3.32438">
        <ele>79</ele>
        <time>2015-02-15T08:15:11Z</time>
      </trkpt>
      <trkpt lat="48.72201" lon="-3.32417">
        <ele>78</ele>
        <time>2015-02-15T08:15:13Z</time>
      </trkpt>
      <trkpt lat="48.72202" lon="-3.32385">
        <ele>78</ele>
        <time>2015-02-15T08:15:16Z</time>
      </trkpt>
      <trkpt lat="48.72202" lon="-3.32374">
        <ele>78</ele>
        <time>2015-02-15T08:15:17Z</time>
      </trkpt>
      <trkpt lat="48.72203" lon="-3.32363">
        <ele>78</ele>
        <time>2015-02-15T08:15:18Z</time>
      </trkpt>
      <trkpt lat="48.72203" lon="-3.3234">
        <ele>78</ele>
        <time>2015-02-15T08:15:20Z</time>
      </trkpt>
      <trkpt lat="48.72204" lon="-3.32328">
        <ele>78</ele>
        <time>2015-02-15T08:15:21Z</time>
      </trkpt>
      <trkpt lat="48.72204" lon="-3.32317">
        <ele>78</ele>
        <time>2015-02-15T08:15:22Z</time>
      </trkpt>
      <trkpt lat="48.72205" lon="-3.32305">
        <ele>78</ele>
        <time>2015-02-15T08:15:23Z</time>
      </trkpt>
      <trkpt lat="48.72205" lon="-3.32294">
        <ele>78</ele>
        <time>2015-02-15T08:15:24Z</time>
      </trkpt>
      <trkpt lat="48.72206" lon="-3.32282">
        <ele>78</ele>
        <time>2015-02-15T08:15:25Z</time>
      </trkpt>
      <trkpt lat="48.72207" lon="-3.32271">
        <ele>78</ele>
        <time>2015-02-15T08:15:26Z</time>
      </trkpt>
      <trkpt lat="48.72208" lon="-3.32259">
        <ele>78</ele>
        <time>2015-02-15T08:15:27Z</time>
      </trkpt>
      <trkpt lat="48.72208" lon="-3.32248">
        <ele>78</ele>
        <time>2015-02-15T08:15:28Z</time>
      </trkpt>
      <trkpt lat="48.72209" lon="-3.32238">
        <ele>78</ele>
        <time>2015-02-15T08:15:29Z</time>
      </trkpt>
      <trkpt lat="48.72209" lon="-3.32227">
        <ele>78</ele>
        <time>2015-02-15T08:15:30Z</time>
      </trkpt>
      <trkpt lat="48.7221" lon="-3.32205">
        <ele>78</ele>
        <time>2015-02-15T08:15:32Z</time>
      </trkpt>
      <trkpt lat="48.72209" lon="-3.32171">
        <ele>78</ele>
        <time>2015-02-15T08:15:35Z</time>
      </trkpt>
      <trkpt lat="48.72208" lon="-3.3216">
        <ele>78</ele>
        <time>2015-02-15T08:15:36Z</time>
      </trkpt>
      <trkpt lat="48.72208" lon="-3.32148">
        <ele>78</ele>
        <time>2015-02-15T08:15:37Z</time>
      </trkpt>
      <trkpt lat="48.72207" lon="-3.32137">
        <ele>78</ele>
        <time>2015-02-15T08:15:38Z</time>
      </trkpt>
      <trkpt lat="48.72205" lon="-3.32125">
        <ele>78</ele>
        <time>2015-02-15T08:15:39Z</time>
      </trkpt>
      <trkpt lat="48.72204" lon="-3.32113">
        <ele>78</ele>
        <time>2015-02-15T08:15:40Z</time>
      </trkpt>
      <trkpt lat="48.72202" lon="-3.32101">
        <ele>78</ele>
        <time>2015-02-15T08:15:41Z</time>
      </trkpt>
      <trkpt lat="48.722" lon="-3.32088">
        <ele>77</ele>
        <time>2015-02-15T08:15:42Z</time>
      </trkpt>
      <trkpt lat="48.72199" lon="-3.32075">
        <ele>77</ele>
        <time>2015-02-15T08:15:43Z</time>
      </trkpt>
      <trkpt lat="48.72197" lon="-3.32062">
        <ele>77</ele>
        <time>2015-02-15T08:15:44Z</time>
      </trkpt>
      <trkpt lat="48.72196" lon="-3.32049">
        <ele>76</ele>
        <time>2015-02-15T08:15:45Z</time>
      </trkpt>
      <trkpt lat="48.72195" lon="-3.32036">
        <ele>76</ele>
        <time>2015-02-15T08:15:46Z</time>
      </trkpt>
      <trkpt lat="48.72194" lon="-3.32022">
        <ele>76</ele>
        <time>2015-02-15T08:15:47Z</time>
      </trkpt>
      <trkpt lat="48.72193" lon="-3.32009">
        <ele>75</ele>
        <time>2015-02-15T08:15:48Z</time>
      </trkpt>
      <trkpt lat="48.72194" lon="-3.31972">
        <ele>75</ele>
        <time>2015-02-15T08:15:51Z</time>
      </trkpt>
      <trkpt lat="48.72194" lon="-3.31959">
        <ele>74</ele>
        <time>2015-02-15T08:15:52Z</time>
      </trkpt>
      <trkpt lat="48.72194" lon="-3.31946">
        <ele>74</ele>
        <time>2015-02-15T08:15:53Z</time>
      </trkpt>
      <trkpt lat="48.72195" lon="-3.31933">
        <ele>74</ele>
        <time>2015-02-15T08:15:54Z</time>
      </trkpt>
      <trkpt lat="48.72195" lon="-3.31906">
        <ele>73</ele>
        <time>2015-02-15T08:15:56Z</time>
      </trkpt>
      <trkpt lat="48.72196" lon="-3.31893">
        <ele>73</ele>
        <time>2015-02-15T08:15:57Z</time>
      </trkpt>
      <trkpt lat="48.72195" lon="-3.31865">
        <ele>72</ele>
        <time>2015-02-15T08:15:59Z</time>
      </trkpt>
      <trkpt lat="48.72195" lon="-3.31851">
        <ele>72</ele>
        <time>2015-02-15T08:16:00Z</time>
      </trkpt>
      <trkpt lat="48.72195" lon="-3.31836">
        <ele>71</ele>
        <time>2015-02-15T08:16:01Z</time>
      </trkpt>
      <trkpt lat="48.72194" lon="-3.31821">
        <ele>71</ele>
        <time>2015-02-15T08:16:02Z</time>
      </trkpt>
      <trkpt lat="48.72192" lon="-3.31807">
        <ele>70</ele>
        <time>2015-02-15T08:16:03Z</time>
      </trkpt>
      <trkpt lat="48.72191" lon="-3.31792">
        <ele>70</ele>
        <time>2015-02-15T08:16:04Z</time>
      </trkpt>
      <trkpt lat="48.72189" lon="-3.31777">
        <ele>70</ele>
        <time>2015-02-15T08:16:05Z</time>
      </trkpt>
      <trkpt lat="48.72188" lon="-3.31763">
        <ele>69</ele>
        <time>2015-02-15T08:16:06Z</time>
      </trkpt>
      <trkpt lat="48.72187" lon="-3.31748">
        <ele>69</ele>
        <time>2015-02-15T08:16:07Z</time>
      </trkpt>
      <trkpt lat="48.72186" lon="-3.31734">
        <ele>68</ele>
        <time>2015-02-15T08:16:08Z</time>
      </trkpt>
      <trkpt lat="48.72184" lon="-3.31719">
        <ele>68</ele>
        <time>2015-02-15T08:16:09Z</time>
      </trkpt>
      <trkpt lat="48.72184" lon="-3.31691">
        <ele>67</ele>
        <time>2015-02-15T08:16:11Z</time>
      </trkpt>
      <trkpt lat="48.72184" lon="-3.31677">
        <ele>67</ele>
        <time>2015-02-15T08:16:12Z</time>
      </trkpt>
      <trkpt lat="48.72185" lon="-3.3165">
        <ele>67</ele>
        <time>2015-02-15T08:16:14Z</time>
      </trkpt>
      <trkpt lat="48.72185" lon="-3.31611">
        <ele>66</ele>
        <time>2015-02-15T08:16:17Z</time>
      </trkpt>
      <trkpt lat="48.72184" lon="-3.31554">
        <ele>66</ele>
        <time>2015-02-15T08:16:22Z</time>
      </trkpt>
      <trkpt lat="48.72184" lon="-3.31543">
        <ele>65</ele>
        <time>2015-02-15T08:16:23Z</time>
      </trkpt>
      <trkpt lat="48.72183" lon="-3.31532">
        <ele>65</ele>
        <time>2015-02-15T08:16:24Z</time>
      </trkpt>
      <trkpt lat="48.72184" lon="-3.31496">
        <ele>64</ele>
        <time>2015-02-15T08:16:27Z</time>
      </trkpt>
      <trkpt lat="48.72184" lon="-3.31483">
        <ele>64</ele>
        <time>2015-02-15T08:16:28Z</time>
      </trkpt>
      <trkpt lat="48.72186" lon="-3.31471">
        <ele>64</ele>
        <time>2015-02-15T08:16:29Z</time>
      </trkpt>
      <trkpt lat="48.72188" lon="-3.31458">
        <ele>63</ele>
        <time>2015-02-15T08:16:30Z</time>
      </trkpt>
      <trkpt lat="48.7219" lon="-3.31444">
        <ele>63</ele>
        <time>2015-02-15T08:16:31Z</time>
      </trkpt>
      <trkpt lat="48.72192" lon="-3.31431">
        <ele>62</ele>
        <time>2015-02-15T08:16:32Z</time>
      </trkpt>
      <trkpt lat="48.72193" lon="-3.31416">
        <ele>62</ele>
        <time>2015-02-15T08:16:33Z</time>
      </trkpt>
      <trkpt lat="48.72195" lon="-3.31401">
        <ele>61</ele>
        <time>2015-02-15T08:16:34Z</time>
      </trkpt>
      <trkpt lat="48.72196" lon="-3.31387">
        <ele>60</ele>
        <time>2015-02-15T08:16:34Z</time>
      </trkpt>
      <trkpt lat="48.72198" lon="-3.31371">
        <ele>59</ele>
        <time>2015-02-15T08:16:36Z</time>
      </trkpt>
      <trkpt lat="48.722" lon="-3.31356">
        <ele>59</ele>
        <time>2015-02-15T08:16:36Z</time>
      </trkpt>
      <trkpt lat="48.72201" lon="-3.31339">
        <ele>58</ele>
        <time>2015-02-15T08:16:37Z</time>
      </trkpt>
      <trkpt lat="48.72203" lon="-3.31321">
        <ele>57</ele>
        <time>2015-02-15T08:16:38Z</time>
      </trkpt>
      <trkpt lat="48.72205" lon="-3.31303">
        <ele>56</ele>
        <time>2015-02-15T08:16:39Z</time>
      </trkpt>
      <trkpt lat="48.72207" lon="-3.31285">
        <ele>55</ele>
        <time>2015-02-15T08:16:40Z</time>
      </trkpt>
      <trkpt lat="48.72208" lon="-3.31266">
        <ele>54</ele>
        <time>2015-02-15T08:16:41Z</time>
      </trkpt>
      <trkpt lat="48.72207" lon="-3.31229">
        <ele>52</ele>
        <time>2015-02-15T08:16:43Z</time>
      </trkpt>
      <trkpt lat="48.72205" lon="-3.31211">
        <ele>51</ele>
        <time>2015-02-15T08:16:44Z</time>
      </trkpt>
      <trkpt lat="48.72203" lon="-3.31195">
        <ele>51</ele>
        <time>2015-02-15T08:16:46Z</time>
      </trkpt>
      <trkpt lat="48.722" lon="-3.3118">
        <ele>50</ele>
        <time>2015-02-15T08:16:46Z</time>
      </trkpt>
      <trkpt lat="48.72196" lon="-3.31167">
        <ele>50</ele>
        <time>2015-02-15T08:16:48Z</time>
      </trkpt>
      <trkpt lat="48.72192" lon="-3.31155">
        <ele>50</ele>
        <time>2015-02-15T08:16:49Z</time>
      </trkpt>
      <trkpt lat="48.72188" lon="-3.31145">
        <ele>50</ele>
        <time>2015-02-15T08:16:50Z</time>
      </trkpt>
      <trkpt lat="48.72184" lon="-3.31135">
        <ele>50</ele>
        <time>2015-02-15T08:16:51Z</time>
      </trkpt>
      <trkpt lat="48.72181" lon="-3.31126">
        <ele>50</ele>
        <time>2015-02-15T08:16:52Z</time>
      </trkpt>
      <trkpt lat="48.72177" lon="-3.31117">
        <ele>50</ele>
        <time>2015-02-15T08:16:53Z</time>
      </trkpt>
      <trkpt lat="48.72174" lon="-3.31109">
        <ele>50</ele>
        <time>2015-02-15T08:16:54Z</time>
      </trkpt>
      <trkpt lat="48.72171" lon="-3.311">
        <ele>50</ele>
        <time>2015-02-15T08:16:55Z</time>
      </trkpt>
      <trkpt lat="48.72168" lon="-3.31092">
        <ele>50</ele>
        <time>2015-02-15T08:16:56Z</time>
      </trkpt>
      <trkpt lat="48.72166" lon="-3.31084">
        <ele>50</ele>
        <time>2015-02-15T08:16:57Z</time>
      </trkpt>
      <trkpt lat="48.72163" lon="-3.31075">
        <ele>50</ele>
        <time>2015-02-15T08:16:58Z</time>
      </trkpt>
      <trkpt lat="48.7216" lon="-3.31067">
        <ele>50</ele>
        <time>2015-02-15T08:16:59Z</time>
      </trkpt>
      <trkpt lat="48.72156" lon="-3.31058">
        <ele>50</ele>
        <time>2015-02-15T08:17:00Z</time>
      </trkpt>
      <trkpt lat="48.72153" lon="-3.3105">
        <ele>50</ele>
        <time>2015-02-15T08:17:01Z</time>
      </trkpt>
      <trkpt lat="48.7215" lon="-3.31042">
        <ele>50</ele>
        <time>2015-02-15T08:17:02Z</time>
      </trkpt>
      <trkpt lat="48.72146" lon="-3.31034">
        <ele>50</ele>
        <time>2015-02-15T08:17:03Z</time>
      </trkpt>
      <trkpt lat="48.72143" lon="-3.31025">
        <ele>50</ele>
        <time>2015-02-15T08:17:04Z</time>
      </trkpt>
      <trkpt lat="48.72139" lon="-3.31017">
        <ele>50</ele>
        <time>2015-02-15T08:17:05Z</time>
      </trkpt>
      <trkpt lat="48.72135" lon="-3.31009">
        <ele>50</ele>
        <time>2015-02-15T08:17:06Z</time>
      </trkpt>
      <trkpt lat="48.72131" lon="-3.31001">
        <ele>50</ele>
        <time>2015-02-15T08:17:07Z</time>
      </trkpt>
      <trkpt lat="48.72128" lon="-3.30993">
        <ele>50</ele>
        <time>2015-02-15T08:17:08Z</time>
      </trkpt>
      <trkpt lat="48.72123" lon="-3.30986">
        <ele>50</ele>
        <time>2015-02-15T08:17:09Z</time>
      </trkpt>
      <trkpt lat="48.7212" lon="-3.30978">
        <ele>50</ele>
        <time>2015-02-15T08:17:10Z</time>
      </trkpt>
      <trkpt lat="48.72116" lon="-3.30971">
        <ele>50</ele>
        <time>2015-02-15T08:17:11Z</time>
      </trkpt>
      <trkpt lat="48.72112" lon="-3.30964">
        <ele>50</ele>
        <time>2015-02-15T08:17:12Z</time>
      </trkpt>
      <trkpt lat="48.72109" lon="-3.30957">
        <ele>51</ele>
        <time>2015-02-15T08:17:13Z</time>
      </trkpt>
      <trkpt lat="48.72105" lon="-3.3095">
        <ele>51</ele>
        <time>2015-02-15T08:17:14Z</time>
      </trkpt>
      <trkpt lat="48.72102" lon="-3.30944">
        <ele>51</ele>
        <time>2015-02-15T08:17:15Z</time>
      </trkpt>
      <trkpt lat="48.72099" lon="-3.30938">
        <ele>52</ele>
        <time>2015-02-15T08:17:16Z</time>
      </trkpt>
      <trkpt lat="48.72096" lon="-3.30932">
        <ele>52</ele>
        <time>2015-02-15T08:17:17Z</time>
      </trkpt>
      <trkpt lat="48.72093" lon="-3.30926">
        <ele>52</ele>
        <time>2015-02-15T08:17:18Z</time>
      </trkpt>
      <trkpt lat="48.72089" lon="-3.3092">
        <ele>52</ele>
        <time>2015-02-15T08:17:19Z</time>
      </trkpt>
      <trkpt lat="48.72086" lon="-3.30914">
        <ele>53</ele>
        <time>2015-02-15T08:17:20Z</time>
      </trkpt>
      <trkpt lat="48.72083" lon="-3.30908">
        <ele>53</ele>
        <time>2015-02-15T08:17:21Z</time>
      </trkpt>
      <trkpt lat="48.72079" lon="-3.30901">
        <ele>53</ele>
        <time>2015-02-15T08:17:22Z</time>
      </trkpt>
      <trkpt lat="48.72076" lon="-3.30894">
        <ele>54</ele>
        <time>2015-02-15T08:17:23Z</time>
      </trkpt>
      <trkpt lat="48.72072" lon="-3.30887">
        <ele>55</ele>
        <time>2015-02-15T08:17:24Z</time>
      </trkpt>
      <trkpt lat="48.72069" lon="-3.3088">
        <ele>56</ele>
        <time>2015-02-15T08:17:25Z</time>
      </trkpt>
      <trkpt lat="48.72065" lon="-3.30873">
        <ele>57</ele>
        <time>2015-02-15T08:17:26Z</time>
      </trkpt>
      <trkpt lat="48.72062" lon="-3.30867">
        <ele>57</ele>
        <time>2015-02-15T08:17:27Z</time>
      </trkpt>
      <trkpt lat="48.72058" lon="-3.30861">
        <ele>58</ele>
        <time>2015-02-15T08:17:28Z</time>
      </trkpt>
      <trkpt lat="48.72054" lon="-3.30855">
        <ele>59</ele>
        <time>2015-02-15T08:17:29Z</time>
      </trkpt>
      <trkpt lat="48.7205" lon="-3.30848">
        <ele>59</ele>
        <time>2015-02-15T08:17:30Z</time>
      </trkpt>
      <trkpt lat="48.72046" lon="-3.30842">
        <ele>60</ele>
        <time>2015-02-15T08:17:31Z</time>
      </trkpt>
      <trkpt lat="48.72041" lon="-3.30836">
        <ele>60</ele>
        <time>2015-02-15T08:17:32Z</time>
      </trkpt>
      <trkpt lat="48.72037" lon="-3.30831">
        <ele>60</ele>
        <time>2015-02-15T08:17:33Z</time>
      </trkpt>
      <trkpt lat="48.72033" lon="-3.30825">
        <ele>61</ele>
        <time>2015-02-15T08:17:34Z</time>
      </trkpt>
      <trkpt lat="48.72028" lon="-3.30819">
        <ele>61</ele>
        <time>2015-02-15T08:17:35Z</time>
      </trkpt>
      <trkpt lat="48.72025" lon="-3.30814">
        <ele>61</ele>
        <time>2015-02-15T08:17:36Z</time>
      </trkpt>
      <trkpt lat="48.72021" lon="-3.30808">
        <ele>62</ele>
        <time>2015-02-15T08:17:37Z</time>
      </trkpt>
      <trkpt lat="48.72017" lon="-3.30802">
        <ele>62</ele>
        <time>2015-02-15T08:17:38Z</time>
      </trkpt>
      <trkpt lat="48.72012" lon="-3.30796">
        <ele>62</ele>
        <time>2015-02-15T08:17:39Z</time>
      </trkpt>
      <trkpt lat="48.72009" lon="-3.30791">
        <ele>63</ele>
        <time>2015-02-15T08:17:40Z</time>
      </trkpt>
      <trkpt lat="48.72004" lon="-3.30785">
        <ele>63</ele>
        <time>2015-02-15T08:17:41Z</time>
      </trkpt>
      <trkpt lat="48.72001" lon="-3.30779">
        <ele>63</ele>
        <time>2015-02-15T08:17:42Z</time>
      </trkpt>
      <trkpt lat="48.71997" lon="-3.30773">
        <ele>63</ele>
        <time>2015-02-15T08:17:43Z</time>
      </trkpt>
      <trkpt lat="48.71993" lon="-3.30766">
        <ele>64</ele>
        <time>2015-02-15T08:17:44Z</time>
      </trkpt>
      <trkpt lat="48.71989" lon="-3.3076">
        <ele>64</ele>
        <time>2015-02-15T08:17:45Z</time>
      </trkpt>
      <trkpt lat="48.71985" lon="-3.30753">
        <ele>64</ele>
        <time>2015-02-15T08:17:46Z</time>
      </trkpt>
      <trkpt lat="48.71981" lon="-3.30747">
        <ele>64</ele>
        <time>2015-02-15T08:17:47Z</time>
      </trkpt>
      <trkpt lat="48.71978" lon="-3.30741">
        <ele>64</ele>
        <time>2015-02-15T08:17:48Z</time>
      </trkpt>
      <trkpt lat="48.71974" lon="-3.30734">
        <ele>65</ele>
        <time>2015-02-15T08:17:49Z</time>
      </trkpt>
      <trkpt lat="48.7197" lon="-3.30728">
        <ele>65</ele>
        <time>2015-02-15T08:17:50Z</time>
      </trkpt>
      <trkpt lat="48.71967" lon="-3.30722">
        <ele>65</ele>
        <time>2015-02-15T08:17:51Z</time>
      </trkpt>
      <trkpt lat="48.71963" lon="-3.30715">
        <ele>65</ele>
        <time>2015-02-15T08:17:52Z</time>
      </trkpt>
      <trkpt lat="48.71959" lon="-3.30709">
        <ele>65</ele>
        <time>2015-02-15T08:17:53Z</time>
      </trkpt>
      <trkpt lat="48.71955" lon="-3.30701">
        <ele>65</ele>
        <time>2015-02-15T08:17:54Z</time>
      </trkpt>
      <trkpt lat="48.71951" lon="-3.30694">
        <ele>65</ele>
        <time>2015-02-15T08:17:55Z</time>
      </trkpt>
      <trkpt lat="48.71948" lon="-3.30687">
        <ele>65</ele>
        <time>2015-02-15T08:17:56Z</time>
      </trkpt>
      <trkpt lat="48.71944" lon="-3.30679">
        <ele>65</ele>
        <time>2015-02-15T08:17:57Z</time>
      </trkpt>
      <trkpt lat="48.7194" lon="-3.30672">
        <ele>65</ele>
        <time>2015-02-15T08:17:58Z</time>
      </trkpt>
      <trkpt lat="48.71936" lon="-3.30664">
        <ele>66</ele>
        <time>2015-02-15T08:17:59Z</time>
      </trkpt>
      <trkpt lat="48.71933" lon="-3.30657">
        <ele>66</ele>
        <time>2015-02-15T08:18:00Z</time>
      </trkpt>
      <trkpt lat="48.71929" lon="-3.3065">
        <ele>66</ele>
        <time>2015-02-15T08:18:01Z</time>
      </trkpt>
      <trkpt lat="48.71925" lon="-3.30642">
        <ele>66</ele>
        <time>2015-02-15T08:18:02Z</time>
      </trkpt>
      <trkpt lat="48.71922" lon="-3.30635">
        <ele>67</ele>
        <time>2015-02-15T08:18:03Z</time>
      </trkpt>
      <trkpt lat="48.71918" lon="-3.30628">
        <ele>67</ele>
        <time>2015-02-15T08:18:04Z</time>
      </trkpt>
      <trkpt lat="48.71914" lon="-3.3062">
        <ele>67</ele>
        <time>2015-02-15T08:18:05Z</time>
      </trkpt>
      <trkpt lat="48.7191" lon="-3.30613">
        <ele>67</ele>
        <time>2015-02-15T08:18:06Z</time>
      </trkpt>
      <trkpt lat="48.71907" lon="-3.30605">
        <ele>67</ele>
        <time>2015-02-15T08:18:07Z</time>
      </trkpt>
      <trkpt lat="48.71903" lon="-3.30598">
        <ele>67</ele>
        <time>2015-02-15T08:18:08Z</time>
      </trkpt>
      <trkpt lat="48.71899" lon="-3.30591">
        <ele>67</ele>
        <time>2015-02-15T08:18:09Z</time>
      </trkpt>
      <trkpt lat="48.71895" lon="-3.30583">
        <ele>67</ele>
        <time>2015-02-15T08:18:10Z</time>
      </trkpt>
      <trkpt lat="48.71892" lon="-3.30576">
        <ele>67</ele>
        <time>2015-02-15T08:18:11Z</time>
      </trkpt>
      <trkpt lat="48.71888" lon="-3.30568">
        <ele>67</ele>
        <time>2015-02-15T08:18:12Z</time>
      </trkpt>
      <trkpt lat="48.71885" lon="-3.3056">
        <ele>67</ele>
        <time>2015-02-15T08:18:13Z</time>
      </trkpt>
      <trkpt lat="48.71881" lon="-3.30553">
        <ele>67</ele>
        <time>2015-02-15T08:18:14Z</time>
      </trkpt>
      <trkpt lat="48.71877" lon="-3.30545">
        <ele>67</ele>
        <time>2015-02-15T08:18:15Z</time>
      </trkpt>
      <trkpt lat="48.71874" lon="-3.30537">
        <ele>68</ele>
        <time>2015-02-15T08:18:16Z</time>
      </trkpt>
      <trkpt lat="48.7187" lon="-3.3053">
        <ele>68</ele>
        <time>2015-02-15T08:18:17Z</time>
      </trkpt>
      <trkpt lat="48.71867" lon="-3.30522">
        <ele>68</ele>
        <time>2015-02-15T08:18:18Z</time>
      </trkpt>
      <trkpt lat="48.71864" lon="-3.30514">
        <ele>68</ele>
        <time>2015-02-15T08:18:19Z</time>
      </trkpt>
      <trkpt lat="48.71861" lon="-3.30506">
        <ele>68</ele>
        <time>2015-02-15T08:18:20Z</time>
      </trkpt>
      <trkpt lat="48.71858" lon="-3.30498">
        <ele>68</ele>
        <time>2015-02-15T08:18:21Z</time>
      </trkpt>
      <trkpt lat="48.71855" lon="-3.30491">
        <ele>68</ele>
        <time>2015-02-15T08:18:22Z</time>
      </trkpt>
      <trkpt lat="48.71852" lon="-3.30484">
        <ele>69</ele>
        <time>2015-02-15T08:18:23Z</time>
      </trkpt>
      <trkpt lat="48.71849" lon="-3.30476">
        <ele>69</ele>
        <time>2015-02-15T08:18:24Z</time>
      </trkpt>
      <trkpt lat="48.71847" lon="-3.30469">
        <ele>69</ele>
        <time>2015-02-15T08:18:25Z</time>
      </trkpt>
      <trkpt lat="48.71844" lon="-3.30462">
        <ele>69</ele>
        <time>2015-02-15T08:18:26Z</time>
      </trkpt>
      <trkpt lat="48.71841" lon="-3.30455">
        <ele>69</ele>
        <time>2015-02-15T08:18:27Z</time>
      </trkpt>
      <trkpt lat="48.71839" lon="-3.30448">
        <ele>70</ele>
        <time>2015-02-15T08:18:28Z</time>
      </trkpt>
      <trkpt lat="48.71836" lon="-3.3044">
        <ele>70</ele>
        <time>2015-02-15T08:18:29Z</time>
      </trkpt>
      <trkpt lat="48.71833" lon="-3.30433">
        <ele>70</ele>
        <time>2015-02-15T08:18:30Z</time>
      </trkpt>
      <trkpt lat="48.7183" lon="-3.30426">
        <ele>70</ele>
        <time>2015-02-15T08:18:31Z</time>
      </trkpt>
      <trkpt lat="48.71828" lon="-3.30419">
        <ele>70</ele>
        <time>2015-02-15T08:18:32Z</time>
      </trkpt>
      <trkpt lat="48.71825" lon="-3.30413">
        <ele>70</ele>
        <time>2015-02-15T08:18:33Z</time>
      </trkpt>
      <trkpt lat="48.71822" lon="-3.30406">
        <ele>70</ele>
        <time>2015-02-15T08:18:34Z</time>
      </trkpt>
      <trkpt lat="48.7182" lon="-3.30399">
        <ele>71</ele>
        <time>2015-02-15T08:18:35Z</time>
      </trkpt>
      <trkpt lat="48.71817" lon="-3.30392">
        <ele>71</ele>
        <time>2015-02-15T08:18:36Z</time>
      </trkpt>
      <trkpt lat="48.71815" lon="-3.30384">
        <ele>71</ele>
        <time>2015-02-15T08:18:37Z</time>
      </trkpt>
      <trkpt lat="48.71812" lon="-3.30377">
        <ele>71</ele>
        <time>2015-02-15T08:18:38Z</time>
      </trkpt>
      <trkpt lat="48.71809" lon="-3.30369">
        <ele>71</ele>
        <time>2015-02-15T08:18:39Z</time>
      </trkpt>
      <trkpt lat="48.71806" lon="-3.30362">
        <ele>71</ele>
        <time>2015-02-15T08:18:40Z</time>
      </trkpt>
      <trkpt lat="48.71804" lon="-3.30354">
        <ele>71</ele>
        <time>2015-02-15T08:18:41Z</time>
      </trkpt>
      <trkpt lat="48.71801" lon="-3.30346">
        <ele>71</ele>
        <time>2015-02-15T08:18:42Z</time>
      </trkpt>
      <trkpt lat="48.71799" lon="-3.30337">
        <ele>71</ele>
        <time>2015-02-15T08:18:43Z</time>
      </trkpt>
      <trkpt lat="48.71796" lon="-3.30329">
        <ele>71</ele>
        <time>2015-02-15T08:18:44Z</time>
      </trkpt>
      <trkpt lat="48.71793" lon="-3.30321">
        <ele>71</ele>
        <time>2015-02-15T08:18:45Z</time>
      </trkpt>
      <trkpt lat="48.71791" lon="-3.30312">
        <ele>71</ele>
        <time>2015-02-15T08:18:46Z</time>
      </trkpt>
      <trkpt lat="48.71789" lon="-3.30303">
        <ele>71</ele>
        <time>2015-02-15T08:18:47Z</time>
      </trkpt>
      <trkpt lat="48.71786" lon="-3.30294">
        <ele>72</ele>
        <time>2015-02-15T08:18:48Z</time>
      </trkpt>
      <trkpt lat="48.71784" lon="-3.30285">
        <ele>72</ele>
        <time>2015-02-15T08:18:49Z</time>
      </trkpt>
      <trkpt lat="48.71781" lon="-3.30276">
        <ele>72</ele>
        <time>2015-02-15T08:18:50Z</time>
      </trkpt>
      <trkpt lat="48.71778" lon="-3.30267">
        <ele>72</ele>
        <time>2015-02-15T08:18:51Z</time>
      </trkpt>
      <trkpt lat="48.71776" lon="-3.30257">
        <ele>72</ele>
        <time>2015-02-15T08:18:52Z</time>
      </trkpt>
      <trkpt lat="48.71773" lon="-3.30248">
        <ele>72</ele>
        <time>2015-02-15T08:18:53Z</time>
      </trkpt>
      <trkpt lat="48.71771" lon="-3.30239">
        <ele>73</ele>
        <time>2015-02-15T08:18:54Z</time>
      </trkpt>
      <trkpt lat="48.71768" lon="-3.3023">
        <ele>73</ele>
        <time>2015-02-15T08:18:55Z</time>
      </trkpt>
      <trkpt lat="48.71766" lon="-3.30221">
        <ele>73</ele>
        <time>2015-02-15T08:18:56Z</time>
      </trkpt>
      <trkpt lat="48.71763" lon="-3.30211">
        <ele>73</ele>
        <time>2015-02-15T08:18:57Z</time>
      </trkpt>
      <trkpt lat="48.71761" lon="-3.30202">
        <ele>73</ele>
        <time>2015-02-15T08:18:58Z</time>
      </trkpt>
      <trkpt lat="48.71758" lon="-3.30193">
        <ele>73</ele>
        <time>2015-02-15T08:18:59Z</time>
      </trkpt>
      <trkpt lat="48.71756" lon="-3.30184">
        <ele>73</ele>
        <time>2015-02-15T08:19:00Z</time>
      </trkpt>
      <trkpt lat="48.71753" lon="-3.30175">
        <ele>74</ele>
        <time>2015-02-15T08:19:01Z</time>
      </trkpt>
      <trkpt lat="48.71751" lon="-3.30166">
        <ele>74</ele>
        <time>2015-02-15T08:19:02Z</time>
      </trkpt>
      <trkpt lat="48.71748" lon="-3.30157">
        <ele>74</ele>
        <time>2015-02-15T08:19:03Z</time>
      </trkpt>
      <trkpt lat="48.71746" lon="-3.30149">
        <ele>74</ele>
        <time>2015-02-15T08:19:04Z</time>
      </trkpt>
      <trkpt lat="48.71744" lon="-3.3014">
        <ele>74</ele>
        <time>2015-02-15T08:19:05Z</time>
      </trkpt>
      <trkpt lat="48.71741" lon="-3.30131">
        <ele>75</ele>
        <time>2015-02-15T08:19:06Z</time>
      </trkpt>
      <trkpt lat="48.71739" lon="-3.30123">
        <ele>75</ele>
        <time>2015-02-15T08:19:07Z</time>
      </trkpt>
      <trkpt lat="48.71737" lon="-3.30114">
        <ele>75</ele>
        <time>2015-02-15T08:19:08Z</time>
      </trkpt>
      <trkpt lat="48.71735" lon="-3.30106">
        <ele>75</ele>
        <time>2015-02-15T08:19:09Z</time>
      </trkpt>
      <trkpt lat="48.71732" lon="-3.30097">
        <ele>75</ele>
        <time>2015-02-15T08:19:10Z</time>
      </trkpt>
      <trkpt lat="48.7173" lon="-3.30088">
        <ele>76</ele>
        <time>2015-02-15T08:19:11Z</time>
      </trkpt>
      <trkpt lat="48.71728" lon="-3.3008">
        <ele>76</ele>
        <time>2015-02-15T08:19:12Z</time>
      </trkpt>
      <trkpt lat="48.71725" lon="-3.30071">
        <ele>76</ele>
        <time>2015-02-15T08:19:13Z</time>
      </trkpt>
      <trkpt lat="48.71723" lon="-3.30062">
        <ele>76</ele>
        <time>2015-02-15T08:19:14Z</time>
      </trkpt>
      <trkpt lat="48.71721" lon="-3.30053">
        <ele>76</ele>
        <time>2015-02-15T08:19:15Z</time>
      </trkpt>
      <trkpt lat="48.71719" lon="-3.30045">
        <ele>77</ele>
        <time>2015-02-15T08:19:16Z</time>
      </trkpt>
      <trkpt lat="48.71717" lon="-3.30036">
        <ele>77</ele>
        <time>2015-02-15T08:19:17Z</time>
      </trkpt>
      <trkpt lat="48.71715" lon="-3.30027">
        <ele>77</ele>
        <time>2015-02-15T08:19:18Z</time>
      </trkpt>
      <trkpt lat="48.71713" lon="-3.30018">
        <ele>77</ele>
        <time>2015-02-15T08:19:19Z</time>
      </trkpt>
      <trkpt lat="48.71711" lon="-3.30009">
        <ele>78</ele>
        <time>2015-02-15T08:19:20Z</time>
      </trkpt>
      <trkpt lat="48.71709" lon="-3.3">
        <ele>78</ele>
        <time>2015-02-15T08:19:21Z</time>
      </trkpt>
      <trkpt lat="48.71707" lon="-3.29991">
        <ele>78</ele>
        <time>2015-02-15T08:19:22Z</time>
      </trkpt>
      <trkpt lat="48.71706" lon="-3.29982">
        <ele>78</ele>
        <time>2015-02-15T08:19:23Z</time>
      </trkpt>
      <trkpt lat="48.71704" lon="-3.29973">
        <ele>78</ele>
        <time>2015-02-15T08:19:24Z</time>
      </trkpt>
      <trkpt lat="48.71703" lon="-3.29963">
        <ele>79</ele>
        <time>2015-02-15T08:19:25Z</time>
      </trkpt>
      <trkpt lat="48.71701" lon="-3.29954">
        <ele>79</ele>
        <time>2015-02-15T08:19:26Z</time>
      </trkpt>
      <trkpt lat="48.71699" lon="-3.29945">
        <ele>79</ele>
        <time>2015-02-15T08:19:27Z</time>
      </trkpt>
      <trkpt lat="48.71698" lon="-3.29935">
        <ele>79</ele>
        <time>2015-02-15T08:19:28Z</time>
      </trkpt>
      <trkpt lat="48.71697" lon="-3.29926">
        <ele>79</ele>
        <time>2015-02-15T08:19:29Z</time>
      </trkpt>
      <trkpt lat="48.71695" lon="-3.29916">
        <ele>80</ele>
        <time>2015-02-15T08:19:30Z</time>
      </trkpt>
      <trkpt lat="48.71694" lon="-3.29907">
        <ele>80</ele>
        <time>2015-02-15T08:19:31Z</time>
      </trkpt>
      <trkpt lat="48.71692" lon="-3.29898">
        <ele>80</ele>
        <time>2015-02-15T08:19:32Z</time>
      </trkpt>
      <trkpt lat="48.71691" lon="-3.29889">
        <ele>80</ele>
        <time>2015-02-15T08:19:33Z</time>
      </trkpt>
      <trkpt lat="48.71689" lon="-3.2988">
        <ele>80</ele>
        <time>2015-02-15T08:19:34Z</time>
      </trkpt>
      <trkpt lat="48.71688" lon="-3.29871">
        <ele>81</ele>
        <time>2015-02-15T08:19:35Z</time>
      </trkpt>
      <trkpt lat="48.71686" lon="-3.29862">
        <ele>81</ele>
        <time>2015-02-15T08:19:36Z</time>
      </trkpt>
      <trkpt lat="48.71685" lon="-3.29853">
        <ele>81</ele>
        <time>2015-02-15T08:19:37Z</time>
      </trkpt>
      <trkpt lat="48.71683" lon="-3.29844">
        <ele>81</ele>
        <time>2015-02-15T08:19:38Z</time>
      </trkpt>
      <trkpt lat="48.71682" lon="-3.29834">
        <ele>81</ele>
        <time>2015-02-15T08:19:39Z</time>
      </trkpt>
      <trkpt lat="48.7168" lon="-3.29825">
        <ele>82</ele>
        <time>2015-02-15T08:19:40Z</time>
      </trkpt>
      <trkpt lat="48.71679" lon="-3.29816">
        <ele>82</ele>
        <time>2015-02-15T08:19:41Z</time>
      </trkpt>
      <trkpt lat="48.71677" lon="-3.29807">
        <ele>82</ele>
        <time>2015-02-15T08:19:42Z</time>
      </trkpt>
      <trkpt lat="48.71675" lon="-3.29798">
        <ele>82</ele>
        <time>2015-02-15T08:19:43Z</time>
      </trkpt>
      <trkpt lat="48.71674" lon="-3.29788">
        <ele>82</ele>
        <time>2015-02-15T08:19:44Z</time>
      </trkpt>
      <trkpt lat="48.71672" lon="-3.29779">
        <ele>82</ele>
        <time>2015-02-15T08:19:45Z</time>
      </trkpt>
      <trkpt lat="48.7167" lon="-3.2977">
        <ele>82</ele>
        <time>2015-02-15T08:19:46Z</time>
      </trkpt>
      <trkpt lat="48.71668" lon="-3.29761">
        <ele>83</ele>
        <time>2015-02-15T08:19:47Z</time>
      </trkpt>
      <trkpt lat="48.71666" lon="-3.29752">
        <ele>83</ele>
        <time>2015-02-15T08:19:48Z</time>
      </trkpt>
      <trkpt lat="48.71664" lon="-3.29743">
        <ele>83</ele>
        <time>2015-02-15T08:19:49Z</time>
      </trkpt>
      <trkpt lat="48.71662" lon="-3.29733">
        <ele>83</ele>
        <time>2015-02-15T08:19:50Z</time>
      </trkpt>
      <trkpt lat="48.7166" lon="-3.29724">
        <ele>83</ele>
        <time>2015-02-15T08:19:51Z</time>
      </trkpt>
      <trkpt lat="48.71658" lon="-3.29715">
        <ele>83</ele>
        <time>2015-02-15T08:19:52Z</time>
      </trkpt>
      <trkpt lat="48.71655" lon="-3.29706">
        <ele>83</ele>
        <time>2015-02-15T08:19:53Z</time>
      </trkpt>
      <trkpt lat="48.71653" lon="-3.29696">
        <ele>83</ele>
        <time>2015-02-15T08:19:54Z</time>
      </trkpt>
      <trkpt lat="48.7165" lon="-3.29687">
        <ele>83</ele>
        <time>2015-02-15T08:19:55Z</time>
      </trkpt>
      <trkpt lat="48.71648" lon="-3.29678">
        <ele>83</ele>
        <time>2015-02-15T08:19:56Z</time>
      </trkpt>
      <trkpt lat="48.71645" lon="-3.29669">
        <ele>84</ele>
        <time>2015-02-15T08:19:57Z</time>
      </trkpt>
      <trkpt lat="48.71643" lon="-3.2966">
        <ele>84</ele>
        <time>2015-02-15T08:19:58Z</time>
      </trkpt>
      <trkpt lat="48.7164" lon="-3.29651">
        <ele>84</ele>
        <time>2015-02-15T08:19:59Z</time>
      </trkpt>
      <trkpt lat="48.71637" lon="-3.29642">
        <ele>84</ele>
        <time>2015-02-15T08:20:00Z</time>
      </trkpt>
      <trkpt lat="48.71634" lon="-3.29632">
        <ele>84</ele>
        <time>2015-02-15T08:20:01Z</time>
      </trkpt>
      <trkpt lat="48.71632" lon="-3.29623">
        <ele>84</ele>
        <time>2015-02-15T08:20:02Z</time>
      </trkpt>
      <trkpt lat="48.71628" lon="-3.29613">
        <ele>84</ele>
        <time>2015-02-15T08:20:03Z</time>
      </trkpt>
      <trkpt lat="48.71625" lon="-3.29604">
        <ele>84</ele>
        <time>2015-02-15T08:20:04Z</time>
      </trkpt>
      <trkpt lat="48.71622" lon="-3.29595">
        <ele>84</ele>
        <time>2015-02-15T08:20:05Z</time>
      </trkpt>
      <trkpt lat="48.71619" lon="-3.29586">
        <ele>85</ele>
        <time>2015-02-15T08:20:06Z</time>
      </trkpt>
      <trkpt lat="48.71616" lon="-3.29576">
        <ele>85</ele>
        <time>2015-02-15T08:20:07Z</time>
      </trkpt>
      <trkpt lat="48.71613" lon="-3.29568">
        <ele>85</ele>
        <time>2015-02-15T08:20:08Z</time>
      </trkpt>
      <trkpt lat="48.71611" lon="-3.29559">
        <ele>85</ele>
        <time>2015-02-15T08:20:09Z</time>
      </trkpt>
      <trkpt lat="48.71608" lon="-3.2955">
        <ele>85</ele>
        <time>2015-02-15T08:20:10Z</time>
      </trkpt>
      <trkpt lat="48.71605" lon="-3.2954">
        <ele>85</ele>
        <time>2015-02-15T08:20:11Z</time>
      </trkpt>
      <trkpt lat="48.71602" lon="-3.29531">
        <ele>85</ele>
        <time>2015-02-15T08:20:12Z</time>
      </trkpt>
      <trkpt lat="48.71599" lon="-3.29522">
        <ele>85</ele>
        <time>2015-02-15T08:20:13Z</time>
      </trkpt>
      <trkpt lat="48.71596" lon="-3.29513">
        <ele>85</ele>
        <time>2015-02-15T08:20:14Z</time>
      </trkpt>
      <trkpt lat="48.71593" lon="-3.29504">
        <ele>85</ele>
        <time>2015-02-15T08:20:15Z</time>
      </trkpt>
      <trkpt lat="48.7159" lon="-3.29495">
        <ele>85</ele>
        <time>2015-02-15T08:20:16Z</time>
      </trkpt>
      <trkpt lat="48.71587" lon="-3.29486">
        <ele>85</ele>
        <time>2015-02-15T08:20:17Z</time>
      </trkpt>
      <trkpt lat="48.71584" lon="-3.29476">
        <ele>85</ele>
        <time>2015-02-15T08:20:18Z</time>
      </trkpt>
      <trkpt lat="48.71581" lon="-3.29467">
        <ele>85</ele>
        <time>2015-02-15T08:20:19Z</time>
      </trkpt>
      <trkpt lat="48.71578" lon="-3.29459">
        <ele>85</ele>
        <time>2015-02-15T08:20:20Z</time>
      </trkpt>
      <trkpt lat="48.71575" lon="-3.2945">
        <ele>85</ele>
        <time>2015-02-15T08:20:21Z</time>
      </trkpt>
      <trkpt lat="48.71572" lon="-3.29441">
        <ele>85</ele>
        <time>2015-02-15T08:20:22Z</time>
      </trkpt>
      <trkpt lat="48.71569" lon="-3.29433">
        <ele>85</ele>
        <time>2015-02-15T08:20:23Z</time>
      </trkpt>
      <trkpt lat="48.71567" lon="-3.29425">
        <ele>85</ele>
        <time>2015-02-15T08:20:24Z</time>
      </trkpt>
      <trkpt lat="48.71564" lon="-3.29417">
        <ele>85</ele>
        <time>2015-02-15T08:20:25Z</time>
      </trkpt>
      <trkpt lat="48.71562" lon="-3.2941">
        <ele>85</ele>
        <time>2015-02-15T08:20:26Z</time>
      </trkpt>
      <trkpt lat="48.7156" lon="-3.29403">
        <ele>85</ele>
        <time>2015-02-15T08:20:27Z</time>
      </trkpt>
      <trkpt lat="48.71558" lon="-3.29397">
        <ele>86</ele>
        <time>2015-02-15T08:20:28Z</time>
      </trkpt>
      <trkpt lat="48.71556" lon="-3.29391">
        <ele>86</ele>
        <time>2015-02-15T08:20:29Z</time>
      </trkpt>
      <trkpt lat="48.71554" lon="-3.29385">
        <ele>86</ele>
        <time>2015-02-15T08:20:30Z</time>
      </trkpt>
      <trkpt lat="48.71553" lon="-3.2938">
        <ele>86</ele>
        <time>2015-02-15T08:20:31Z</time>
      </trkpt>
      <trkpt lat="48.71551" lon="-3.29375">
        <ele>86</ele>
        <time>2015-02-15T08:20:32Z</time>
      </trkpt>
      <trkpt lat="48.7155" lon="-3.29371">
        <ele>86</ele>
        <time>2015-02-15T08:20:33Z</time>
      </trkpt>
      <trkpt lat="48.71548" lon="-3.29367">
        <ele>86</ele>
        <time>2015-02-15T08:20:34Z</time>
      </trkpt>
      <trkpt lat="48.71546" lon="-3.29363">
        <ele>86</ele>
        <time>2015-02-15T08:20:35Z</time>
      </trkpt>
      <trkpt lat="48.71543" lon="-3.2936">
        <ele>86</ele>
        <time>2015-02-15T08:20:36Z</time>
      </trkpt>
      <trkpt lat="48.71539" lon="-3.29358">
        <ele>86</ele>
        <time>2015-02-15T08:20:37Z</time>
      </trkpt>
      <trkpt lat="48.71535" lon="-3.29359">
        <ele>86</ele>
        <time>2015-02-15T08:20:38Z</time>
      </trkpt>
      <trkpt lat="48.71531" lon="-3.29361">
        <ele>86</ele>
        <time>2015-02-15T08:20:39Z</time>
      </trkpt>
      <trkpt lat="48.71527" lon="-3.29365">
        <ele>86</ele>
        <time>2015-02-15T08:20:40Z</time>
      </trkpt>
      <trkpt lat="48.71523" lon="-3.29371">
        <ele>86</ele>
        <time>2015-02-15T08:20:41Z</time>
      </trkpt>
      <trkpt lat="48.71519" lon="-3.29377">
        <ele>86</ele>
        <time>2015-02-15T08:20:42Z</time>
      </trkpt>
      <trkpt lat="48.71514" lon="-3.29383">
        <ele>86</ele>
        <time>2015-02-15T08:20:43Z</time>
      </trkpt>
      <trkpt lat="48.71509" lon="-3.29391">
        <ele>86</ele>
        <time>2015-02-15T08:20:44Z</time>
      </trkpt>
      <trkpt lat="48.71504" lon="-3.29399">
        <ele>86</ele>
        <time>2015-02-15T08:20:45Z</time>
      </trkpt>
      <trkpt lat="48.71498" lon="-3.29407">
        <ele>86</ele>
        <time>2015-02-15T08:20:46Z</time>
      </trkpt>
      <trkpt lat="48.71493" lon="-3.29415">
        <ele>86</ele>
        <time>2015-02-15T08:20:47Z</time>
      </trkpt>
      <trkpt lat="48.71487" lon="-3.29423">
        <ele>86</ele>
        <time>2015-02-15T08:20:48Z</time>
      </trkpt>
      <trkpt lat="48.71482" lon="-3.29432">
        <ele>86</ele>
        <time>2015-02-15T08:20:49Z</time>
      </trkpt>
      <trkpt lat="48.71476" lon="-3.2944">
        <ele>86</ele>
        <time>2015-02-15T08:20:50Z</time>
      </trkpt>
      <trkpt lat="48.7147" lon="-3.29449">
        <ele>86</ele>
        <time>2015-02-15T08:20:51Z</time>
      </trkpt>
      <trkpt lat="48.71465" lon="-3.29457">
        <ele>86</ele>
        <time>2015-02-15T08:20:52Z</time>
      </trkpt>
      <trkpt lat="48.71459" lon="-3.29465">
        <ele>86</ele>
        <time>2015-02-15T08:20:53Z</time>
      </trkpt>
      <trkpt lat="48.71453" lon="-3.29474">
        <ele>86</ele>
        <time>2015-02-15T08:20:54Z</time>
      </trkpt>
      <trkpt lat="48.71448" lon="-3.29482">
        <ele>86</ele>
        <time>2015-02-15T08:20:55Z</time>
      </trkpt>
      <trkpt lat="48.71442" lon="-3.2949">
        <ele>86</ele>
        <time>2015-02-15T08:20:56Z</time>
      </trkpt>
      <trkpt lat="48.71437" lon="-3.29498">
        <ele>86</ele>
        <time>2015-02-15T08:20:57Z</time>
      </trkpt>
      <trkpt lat="48.71431" lon="-3.29506">
        <ele>86</ele>
        <time>2015-02-15T08:20:58Z</time>
      </trkpt>
      <trkpt lat="48.71426" lon="-3.29514">
        <ele>86</ele>
        <time>2015-02-15T08:20:59Z</time>
      </trkpt>
      <trkpt lat="48.7142" lon="-3.29522">
        <ele>86</ele>
        <time>2015-02-15T08:21:00Z</time>
      </trkpt>
      <trkpt lat="48.71415" lon="-3.29531">
        <ele>86</ele>
        <time>2015-02-15T08:21:01Z</time>
      </trkpt>
      <trkpt lat="48.71409" lon="-3.29538">
        <ele>86</ele>
        <time>2015-02-15T08:21:02Z</time>
      </trkpt>
      <trkpt lat="48.71404" lon="-3.29547">
        <ele>86</ele>
        <time>2015-02-15T08:21:03Z</time>
      </trkpt>
      <trkpt lat="48.71398" lon="-3.29555">
        <ele>86</ele>
        <time>2015-02-15T08:21:04Z</time>
      </trkpt>
      <trkpt lat="48.71392" lon="-3.29563">
        <ele>86</ele>
        <time>2015-02-15T08:21:05Z</time>
      </trkpt>
      <trkpt lat="48.71387" lon="-3.29571">
        <ele>86</ele>
        <time>2015-02-15T08:21:06Z</time>
      </trkpt>
      <trkpt lat="48.71382" lon="-3.29579">
        <ele>86</ele>
        <time>2015-02-15T08:21:07Z</time>
      </trkpt>
      <trkpt lat="48.71376" lon="-3.29587">
        <ele>86</ele>
        <time>2015-02-15T08:21:08Z</time>
      </trkpt>
      <trkpt lat="48.71371" lon="-3.29594">
        <ele>86</ele>
        <time>2015-02-15T08:21:09Z</time>
      </trkpt>
      <trkpt lat="48.71366" lon="-3.29602">
        <ele>86</ele>
        <time>2015-02-15T08:21:10Z</time>
      </trkpt>
      <trkpt lat="48.7136" lon="-3.29609">
        <ele>86</ele>
        <time>2015-02-15T08:21:11Z</time>
      </trkpt>
      <trkpt lat="48.71355" lon="-3.29616">
        <ele>86</ele>
        <time>2015-02-15T08:21:12Z</time>
      </trkpt>
      <trkpt lat="48.7135" lon="-3.29624">
        <ele>86</ele>
        <time>2015-02-15T08:21:13Z</time>
      </trkpt>
      <trkpt lat="48.71345" lon="-3.29631">
        <ele>86</ele>
        <time>2015-02-15T08:21:14Z</time>
      </trkpt>
      <trkpt lat="48.71339" lon="-3.29639">
        <ele>86</ele>
        <time>2015-02-15T08:21:15Z</time>
      </trkpt>
      <trkpt lat="48.71334" lon="-3.29647">
        <ele>86</ele>
        <time>2015-02-15T08:21:16Z</time>
      </trkpt>
      <trkpt lat="48.71328" lon="-3.29655">
        <ele>86</ele>
        <time>2015-02-15T08:21:17Z</time>
      </trkpt>
      <trkpt lat="48.71323" lon="-3.29663">
        <ele>86</ele>
        <time>2015-02-15T08:21:18Z</time>
      </trkpt>
      <trkpt lat="48.71317" lon="-3.29672">
        <ele>86</ele>
        <time>2015-02-15T08:21:19Z</time>
      </trkpt>
      <trkpt lat="48.71312" lon="-3.2968">
        <ele>86</ele>
        <time>2015-02-15T08:21:20Z</time>
      </trkpt>
      <trkpt lat="48.71306" lon="-3.29688">
        <ele>86</ele>
        <time>2015-02-15T08:21:21Z</time>
      </trkpt>
      <trkpt lat="48.71301" lon="-3.29696">
        <ele>86</ele>
        <time>2015-02-15T08:21:22Z</time>
      </trkpt>
      <trkpt lat="48.71295" lon="-3.29704">
        <ele>86</ele>
        <time>2015-02-15T08:21:23Z</time>
      </trkpt>
      <trkpt lat="48.71289" lon="-3.29712">
        <ele>86</ele>
        <time>2015-02-15T08:21:24Z</time>
      </trkpt>
      <trkpt lat="48.71284" lon="-3.2972">
        <ele>86</ele>
        <time>2015-02-15T08:21:25Z</time>
      </trkpt>
      <trkpt lat="48.71279" lon="-3.29728">
        <ele>86</ele>
        <time>2015-02-15T08:21:26Z</time>
      </trkpt>
      <trkpt lat="48.71273" lon="-3.29736">
        <ele>86</ele>
        <time>2015-02-15T08:21:27Z</time>
      </trkpt>
      <trkpt lat="48.71267" lon="-3.29744">
        <ele>86</ele>
        <time>2015-02-15T08:21:28Z</time>
      </trkpt>
      <trkpt lat="48.71262" lon="-3.29752">
        <ele>86</ele>
        <time>2015-02-15T08:21:29Z</time>
      </trkpt>
      <trkpt lat="48.71256" lon="-3.29761">
        <ele>86</ele>
        <time>2015-02-15T08:21:30Z</time>
      </trkpt>
      <trkpt lat="48.7125" lon="-3.29769">
        <ele>86</ele>
        <time>2015-02-15T08:21:31Z</time>
      </trkpt>
      <trkpt lat="48.71244" lon="-3.29778">
        <ele>86</ele>
        <time>2015-02-15T08:21:32Z</time>
      </trkpt>
      <trkpt lat="48.71238" lon="-3.29786">
        <ele>86</ele>
        <time>2015-02-15T08:21:33Z</time>
      </trkpt>
      <trkpt lat="48.71231" lon="-3.29795">
        <ele>86</ele>
        <time>2015-02-15T08:21:34Z</time>
      </trkpt>
      <trkpt lat="48.71225" lon="-3.29803">
        <ele>86</ele>
        <time>2015-02-15T08:21:35Z</time>
      </trkpt>
      <trkpt lat="48.71218" lon="-3.29811">
        <ele>86</ele>
        <time>2015-02-15T08:21:36Z</time>
      </trkpt>
      <trkpt lat="48.71212" lon="-3.29819">
        <ele>86</ele>
        <time>2015-02-15T08:21:37Z</time>
      </trkpt>
      <trkpt lat="48.71205" lon="-3.29826">
        <ele>86</ele>
        <time>2015-02-15T08:21:38Z</time>
      </trkpt>
      <trkpt lat="48.71199" lon="-3.29834">
        <ele>86</ele>
        <time>2015-02-15T08:21:39Z</time>
      </trkpt>
      <trkpt lat="48.71192" lon="-3.29841">
        <ele>86</ele>
        <time>2015-02-15T08:21:40Z</time>
      </trkpt>
      <trkpt lat="48.71186" lon="-3.29848">
        <ele>86</ele>
        <time>2015-02-15T08:21:41Z</time>
      </trkpt>
      <trkpt lat="48.71179" lon="-3.29855">
        <ele>86</ele>
        <time>2015-02-15T08:21:42Z</time>
      </trkpt>
      <trkpt lat="48.71173" lon="-3.29862">
        <ele>86</ele>
        <time>2015-02-15T08:21:43Z</time>
      </trkpt>
      <trkpt lat="48.71166" lon="-3.29869">
        <ele>86</ele>
        <time>2015-02-15T08:21:44Z</time>
      </trkpt>
      <trkpt lat="48.7116" lon="-3.29876">
        <ele>86</ele>
        <time>2015-02-15T08:21:45Z</time>
      </trkpt>
      <trkpt lat="48.71153" lon="-3.29883">
        <ele>86</ele>
        <time>2015-02-15T08:21:46Z</time>
      </trkpt>
      <trkpt lat="48.71146" lon="-3.2989">
        <ele>86</ele>
        <time>2015-02-15T08:21:47Z</time>
      </trkpt>
      <trkpt lat="48.7114" lon="-3.29898">
        <ele>86</ele>
        <time>2015-02-15T08:21:48Z</time>
      </trkpt>
      <trkpt lat="48.71133" lon="-3.29906">
        <ele>86</ele>
        <time>2015-02-15T08:21:49Z</time>
      </trkpt>
      <trkpt lat="48.71127" lon="-3.29913">
        <ele>86</ele>
        <time>2015-02-15T08:21:50Z</time>
      </trkpt>
      <trkpt lat="48.7112" lon="-3.2992">
        <ele>86</ele>
        <time>2015-02-15T08:21:51Z</time>
      </trkpt>
      <trkpt lat="48.71114" lon="-3.29928">
        <ele>86</ele>
        <time>2015-02-15T08:21:52Z</time>
      </trkpt>
      <trkpt lat="48.71108" lon="-3.29936">
        <ele>86</ele>
        <time>2015-02-15T08:21:53Z</time>
      </trkpt>
      <trkpt lat="48.71102" lon="-3.29943">
        <ele>86</ele>
        <time>2015-02-15T08:21:54Z</time>
      </trkpt>
      <trkpt lat="48.71096" lon="-3.29951">
        <ele>86</ele>
        <time>2015-02-15T08:21:55Z</time>
      </trkpt>
      <trkpt lat="48.71091" lon="-3.29959">
        <ele>86</ele>
        <time>2015-02-15T08:21:56Z</time>
      </trkpt>
      <trkpt lat="48.71085" lon="-3.29967">
        <ele>86</ele>
        <time>2015-02-15T08:21:57Z</time>
      </trkpt>
      <trkpt lat="48.7108" lon="-3.29976">
        <ele>86</ele>
        <time>2015-02-15T08:21:58Z</time>
      </trkpt>
      <trkpt lat="48.71074" lon="-3.29984">
        <ele>86</ele>
        <time>2015-02-15T08:21:59Z</time>
      </trkpt>
      <trkpt lat="48.71069" lon="-3.29992">
        <ele>86</ele>
        <time>2015-02-15T08:22:00Z</time>
      </trkpt>
      <trkpt lat="48.71063" lon="-3.3">
        <ele>86</ele>
        <time>2015-02-15T08:22:01Z</time>
      </trkpt>
      <trkpt lat="48.71058" lon="-3.30008">
        <ele>86</ele>
        <time>2015-02-15T08:22:02Z</time>
      </trkpt>
      <trkpt lat="48.71053" lon="-3.30016">
        <ele>86</ele>
        <time>2015-02-15T08:22:03Z</time>
      </trkpt>
      <trkpt lat="48.71047" lon="-3.30024">
        <ele>86</ele>
        <time>2015-02-15T08:22:04Z</time>
      </trkpt>
      <trkpt lat="48.71042" lon="-3.30032">
        <ele>86</ele>
        <time>2015-02-15T08:22:05Z</time>
      </trkpt>
      <trkpt lat="48.71037" lon="-3.30039">
        <ele>86</ele>
        <time>2015-02-15T08:22:06Z</time>
      </trkpt>
      <trkpt lat="48.71032" lon="-3.30047">
        <ele>86</ele>
        <time>2015-02-15T08:22:07Z</time>
      </trkpt>
      <trkpt lat="48.71027" lon="-3.30055">
        <ele>86</ele>
        <time>2015-02-15T08:22:08Z</time>
      </trkpt>
      <trkpt lat="48.71022" lon="-3.30063">
        <ele>86</ele>
        <time>2015-02-15T08:22:09Z</time>
      </trkpt>
      <trkpt lat="48.71016" lon="-3.3007">
        <ele>86</ele>
        <time>2015-02-15T08:22:10Z</time>
      </trkpt>
      <trkpt lat="48.71011" lon="-3.30078">
        <ele>86</ele>
        <time>2015-02-15T08:22:11Z</time>
      </trkpt>
      <trkpt lat="48.71006" lon="-3.30085">
        <ele>86</ele>
        <time>2015-02-15T08:22:12Z</time>
      </trkpt>
      <trkpt lat="48.71001" lon="-3.30092">
        <ele>86</ele>
        <time>2015-02-15T08:22:13Z</time>
      </trkpt>
      <trkpt lat="48.70996" lon="-3.30099">
        <ele>86</ele>
        <time>2015-02-15T08:22:14Z</time>
      </trkpt>
      <trkpt lat="48.7099" lon="-3.30106">
        <ele>86</ele>
        <time>2015-02-15T08:22:15Z</time>
      </trkpt>
      <trkpt lat="48.70985" lon="-3.30112">
        <ele>86</ele>
        <time>2015-02-15T08:22:16Z</time>
      </trkpt>
      <trkpt lat="48.70979" lon="-3.30119">
        <ele>86</ele>
        <time>2015-02-15T08:22:17Z</time>
      </trkpt>
      <trkpt lat="48.70973" lon="-3.30126">
        <ele>86</ele>
        <time>2015-02-15T08:22:18Z</time>
      </trkpt>
      <trkpt lat="48.70967" lon="-3.30132">
        <ele>86</ele>
        <time>2015-02-15T08:22:19Z</time>
      </trkpt>
      <trkpt lat="48.70961" lon="-3.30138">
        <ele>86</ele>
        <time>2015-02-15T08:22:20Z</time>
      </trkpt>
      <trkpt lat="48.70954" lon="-3.30144">
        <ele>86</ele>
        <time>2015-02-15T08:22:21Z</time>
      </trkpt>
      <trkpt lat="48.70948" lon="-3.3015">
        <ele>86</ele>
        <time>2015-02-15T08:22:22Z</time>
      </trkpt>
      <trkpt lat="48.70941" lon="-3.30156">
        <ele>86</ele>
        <time>2015-02-15T08:22:23Z</time>
      </trkpt>
      <trkpt lat="48.70935" lon="-3.30162">
        <ele>86</ele>
        <time>2015-02-15T08:22:24Z</time>
      </trkpt>
      <trkpt lat="48.70927" lon="-3.30168">
        <ele>86</ele>
        <time>2015-02-15T08:22:25Z</time>
      </trkpt>
      <trkpt lat="48.7092" lon="-3.30173">
        <ele>86</ele>
        <time>2015-02-15T08:22:26Z</time>
      </trkpt>
      <trkpt lat="48.70913" lon="-3.30178">
        <ele>86</ele>
        <time>2015-02-15T08:22:27Z</time>
      </trkpt>
      <trkpt lat="48.70905" lon="-3.30183">
        <ele>86</ele>
        <time>2015-02-15T08:22:28Z</time>
      </trkpt>
      <trkpt lat="48.70898" lon="-3.30187">
        <ele>86</ele>
        <time>2015-02-15T08:22:29Z</time>
      </trkpt>
      <trkpt lat="48.7089" lon="-3.30192">
        <ele>86</ele>
        <time>2015-02-15T08:22:30Z</time>
      </trkpt>
      <trkpt lat="48.70883" lon="-3.30196">
        <ele>86</ele>
        <time>2015-02-15T08:22:31Z</time>
      </trkpt>
      <trkpt lat="48.70876" lon="-3.30201">
        <ele>86</ele>
        <time>2015-02-15T08:22:32Z</time>
      </trkpt>
      <trkpt lat="48.70868" lon="-3.30204">
        <ele>86</ele>
        <time>2015-02-15T08:22:33Z</time>
      </trkpt>
      <trkpt lat="48.7086" lon="-3.30208">
        <ele>86</ele>
        <time>2015-02-15T08:22:34Z</time>
      </trkpt>
      <trkpt lat="48.70852" lon="-3.30211">
        <ele>86</ele>
        <time>2015-02-15T08:22:35Z</time>
      </trkpt>
      <trkpt lat="48.70844" lon="-3.30215">
        <ele>86</ele>
        <time>2015-02-15T08:22:36Z</time>
      </trkpt>
      <trkpt lat="48.70835" lon="-3.30219">
        <ele>86</ele>
        <time>2015-02-15T08:22:37Z</time>
      </trkpt>
      <trkpt lat="48.70827" lon="-3.30223">
        <ele>86</ele>
        <time>2015-02-15T08:22:38Z</time>
      </trkpt>
      <trkpt lat="48.70819" lon="-3.30227">
        <ele>86</ele>
        <time>2015-02-15T08:22:39Z</time>
      </trkpt>
      <trkpt lat="48.70811" lon="-3.30231">
        <ele>86</ele>
        <time>2015-02-15T08:22:40Z</time>
      </trkpt>
      <trkpt lat="48.70803" lon="-3.30235">
        <ele>85</ele>
        <time>2015-02-15T08:22:41Z</time>
      </trkpt>
      <trkpt lat="48.70795" lon="-3.30239">
        <ele>85</ele>
        <time>2015-02-15T08:22:42Z</time>
      </trkpt>
      <trkpt lat="48.70787" lon="-3.30244">
        <ele>85</ele>
        <time>2015-02-15T08:22:43Z</time>
      </trkpt>
      <trkpt lat="48.70779" lon="-3.30248">
        <ele>85</ele>
        <time>2015-02-15T08:22:44Z</time>
      </trkpt>
      <trkpt lat="48.70771" lon="-3.30253">
        <ele>84</ele>
        <time>2015-02-15T08:22:45Z</time>
      </trkpt>
      <trkpt lat="48.70762" lon="-3.30257">
        <ele>84</ele>
        <time>2015-02-15T08:22:46Z</time>
      </trkpt>
      <trkpt lat="48.70754" lon="-3.30262">
        <ele>83</ele>
        <time>2015-02-15T08:22:47Z</time>
      </trkpt>
      <trkpt lat="48.70746" lon="-3.30268">
        <ele>83</ele>
        <time>2015-02-15T08:22:48Z</time>
      </trkpt>
      <trkpt lat="48.70737" lon="-3.30273">
        <ele>83</ele>
        <time>2015-02-15T08:22:49Z</time>
      </trkpt>
      <trkpt lat="48.70729" lon="-3.30279">
        <ele>82</ele>
        <time>2015-02-15T08:22:50Z</time>
      </trkpt>
      <trkpt lat="48.70721" lon="-3.30285">
        <ele>82</ele>
        <time>2015-02-15T08:22:51Z</time>
      </trkpt>
      <trkpt lat="48.70713" lon="-3.30291">
        <ele>82</ele>
        <time>2015-02-15T08:22:52Z</time>
      </trkpt>
      <trkpt lat="48.70704" lon="-3.30297">
        <ele>82</ele>
        <time>2015-02-15T08:22:53Z</time>
      </trkpt>
      <trkpt lat="48.70696" lon="-3.30304">
        <ele>81</ele>
        <time>2015-02-15T08:22:54Z</time>
      </trkpt>
      <trkpt lat="48.70688" lon="-3.3031">
        <ele>81</ele>
        <time>2015-02-15T08:22:55Z</time>
      </trkpt>
      <trkpt lat="48.7068" lon="-3.30316">
        <ele>81</ele>
        <time>2015-02-15T08:22:56Z</time>
      </trkpt>
      <trkpt lat="48.70671" lon="-3.30322">
        <ele>80</ele>
        <time>2015-02-15T08:22:57Z</time>
      </trkpt>
      <trkpt lat="48.70663" lon="-3.30329">
        <ele>80</ele>
        <time>2015-02-15T08:22:58Z</time>
      </trkpt>
      <trkpt lat="48.70655" lon="-3.30335">
        <ele>79</ele>
        <time>2015-02-15T08:22:59Z</time>
      </trkpt>
      <trkpt lat="48.70646" lon="-3.30341">
        <ele>79</ele>
        <time>2015-02-15T08:23:00Z</time>
      </trkpt>
      <trkpt lat="48.70637" lon="-3.30347">
        <ele>78</ele>
        <time>2015-02-15T08:23:01Z</time>
      </trkpt>
      <trkpt lat="48.70628" lon="-3.30354">
        <ele>78</ele>
        <time>2015-02-15T08:23:02Z</time>
      </trkpt>
      <trkpt lat="48.7062" lon="-3.3036">
        <ele>78</ele>
        <time>2015-02-15T08:23:03Z</time>
      </trkpt>
      <trkpt lat="48.70612" lon="-3.30366">
        <ele>77</ele>
        <time>2015-02-15T08:23:04Z</time>
      </trkpt>
      <trkpt lat="48.70603" lon="-3.30373">
        <ele>77</ele>
        <time>2015-02-15T08:23:05Z</time>
      </trkpt>
      <trkpt lat="48.70595" lon="-3.3038">
        <ele>77</ele>
        <time>2015-02-15T08:23:06Z</time>
      </trkpt>
      <trkpt lat="48.70586" lon="-3.30387">
        <ele>76</ele>
        <time>2015-02-15T08:23:07Z</time>
      </trkpt>
      <trkpt lat="48.70578" lon="-3.30394">
        <ele>76</ele>
        <time>2015-02-15T08:23:08Z</time>
      </trkpt>
      <trkpt lat="48.70569" lon="-3.30401">
        <ele>75</ele>
        <time>2015-02-15T08:23:09Z</time>
      </trkpt>
      <trkpt lat="48.70561" lon="-3.30409">
        <ele>75</ele>
        <time>2015-02-15T08:23:10Z</time>
      </trkpt>
      <trkpt lat="48.70553" lon="-3.30417">
        <ele>75</ele>
        <time>2015-02-15T08:23:11Z</time>
      </trkpt>
      <trkpt lat="48.70545" lon="-3.30425">
        <ele>75</ele>
        <time>2015-02-15T08:23:12Z</time>
      </trkpt>
      <trkpt lat="48.70538" lon="-3.30433">
        <ele>75</ele>
        <time>2015-02-15T08:23:13Z</time>
      </trkpt>
      <trkpt lat="48.70531" lon="-3.30441">
        <ele>75</ele>
        <time>2015-02-15T08:23:14Z</time>
      </trkpt>
      <trkpt lat="48.70524" lon="-3.30448">
        <ele>75</ele>
        <time>2015-02-15T08:23:15Z</time>
      </trkpt>
      <trkpt lat="48.70517" lon="-3.30455">
        <ele>75</ele>
        <time>2015-02-15T08:23:16Z</time>
      </trkpt>
      <trkpt lat="48.70511" lon="-3.30462">
        <ele>75</ele>
        <time>2015-02-15T08:23:17Z</time>
      </trkpt>
      <trkpt lat="48.70504" lon="-3.30469">
        <ele>75</ele>
        <time>2015-02-15T08:23:18Z</time>
      </trkpt>
      <trkpt lat="48.70498" lon="-3.30475">
        <ele>75</ele>
        <time>2015-02-15T08:23:19Z</time>
      </trkpt>
      <trkpt lat="48.70491" lon="-3.30481">
        <ele>75</ele>
        <time>2015-02-15T08:23:20Z</time>
      </trkpt>
      <trkpt lat="48.70484" lon="-3.30487">
        <ele>75</ele>
        <time>2015-02-15T08:23:21Z</time>
      </trkpt>
      <trkpt lat="48.70478" lon="-3.30494">
        <ele>75</ele>
        <time>2015-02-15T08:23:22Z</time>
      </trkpt>
      <trkpt lat="48.70471" lon="-3.305">
        <ele>75</ele>
        <time>2015-02-15T08:23:23Z</time>
      </trkpt>
      <trkpt lat="48.70464" lon="-3.30505">
        <ele>75</ele>
        <time>2015-02-15T08:23:24Z</time>
      </trkpt>
      <trkpt lat="48.70458" lon="-3.30511">
        <ele>75</ele>
        <time>2015-02-15T08:23:25Z</time>
      </trkpt>
      <trkpt lat="48.70451" lon="-3.30517">
        <ele>75</ele>
        <time>2015-02-15T08:23:26Z</time>
      </trkpt>
      <trkpt lat="48.70445" lon="-3.30522">
        <ele>75</ele>
        <time>2015-02-15T08:23:27Z</time>
      </trkpt>
      <trkpt lat="48.70439" lon="-3.30528">
        <ele>75</ele>
        <time>2015-02-15T08:23:28Z</time>
      </trkpt>
      <trkpt lat="48.70433" lon="-3.30534">
        <ele>75</ele>
        <time>2015-02-15T08:23:29Z</time>
      </trkpt>
      <trkpt lat="48.70426" lon="-3.30539">
        <ele>75</ele>
        <time>2015-02-15T08:23:30Z</time>
      </trkpt>
      <trkpt lat="48.7042" lon="-3.30545">
        <ele>75</ele>
        <time>2015-02-15T08:23:31Z</time>
      </trkpt>
      <trkpt lat="48.70413" lon="-3.30551">
        <ele>75</ele>
        <time>2015-02-15T08:23:32Z</time>
      </trkpt>
      <trkpt lat="48.70407" lon="-3.30557">
        <ele>75</ele>
        <time>2015-02-15T08:23:33Z</time>
      </trkpt>
      <trkpt lat="48.70401" lon="-3.30563">
        <ele>75</ele>
        <time>2015-02-15T08:23:34Z</time>
      </trkpt>
      <trkpt lat="48.70395" lon="-3.30569">
        <ele>75</ele>
        <time>2015-02-15T08:23:35Z</time>
      </trkpt>
      <trkpt lat="48.70389" lon="-3.30575">
        <ele>75</ele>
        <time>2015-02-15T08:23:36Z</time>
      </trkpt>
      <trkpt lat="48.70383" lon="-3.30582">
        <ele>75</ele>
        <time>2015-02-15T08:23:37Z</time>
      </trkpt>
      <trkpt lat="48.70378" lon="-3.30588">
        <ele>75</ele>
        <time>2015-02-15T08:23:38Z</time>
      </trkpt>
      <trkpt lat="48.70372" lon="-3.30594">
        <ele>75</ele>
        <time>2015-02-15T08:23:39Z</time>
      </trkpt>
      <trkpt lat="48.70367" lon="-3.306">
        <ele>75</ele>
        <time>2015-02-15T08:23:40Z</time>
      </trkpt>
      <trkpt lat="48.70361" lon="-3.30607">
        <ele>75</ele>
        <time>2015-02-15T08:23:41Z</time>
      </trkpt>
      <trkpt lat="48.70355" lon="-3.30614">
        <ele>75</ele>
        <time>2015-02-15T08:23:42Z</time>
      </trkpt>
      <trkpt lat="48.7035" lon="-3.30621">
        <ele>75</ele>
        <time>2015-02-15T08:23:43Z</time>
      </trkpt>
      <trkpt lat="48.70344" lon="-3.30627">
        <ele>75</ele>
        <time>2015-02-15T08:23:44Z</time>
      </trkpt>
      <trkpt lat="48.70338" lon="-3.30635">
        <ele>75</ele>
        <time>2015-02-15T08:23:45Z</time>
      </trkpt>
      <trkpt lat="48.70332" lon="-3.30642">
        <ele>75</ele>
        <time>2015-02-15T08:23:46Z</time>
      </trkpt>
      <trkpt lat="48.70326" lon="-3.30649">
        <ele>75</ele>
        <time>2015-02-15T08:23:47Z</time>
      </trkpt>
      <trkpt lat="48.70321" lon="-3.30656">
        <ele>75</ele>
        <time>2015-02-15T08:23:48Z</time>
      </trkpt>
      <trkpt lat="48.70315" lon="-3.30663">
        <ele>75</ele>
        <time>2015-02-15T08:23:49Z</time>
      </trkpt>
      <trkpt lat="48.70309" lon="-3.30671">
        <ele>75</ele>
        <time>2015-02-15T08:23:50Z</time>
      </trkpt>
      <trkpt lat="48.70303" lon="-3.30678">
        <ele>75</ele>
        <time>2015-02-15T08:23:51Z</time>
      </trkpt>
      <trkpt lat="48.70297" lon="-3.30685">
        <ele>75</ele>
        <time>2015-02-15T08:23:52Z</time>
      </trkpt>
      <trkpt lat="48.70291" lon="-3.30692">
        <ele>75</ele>
        <time>2015-02-15T08:23:53Z</time>
      </trkpt>
      <trkpt lat="48.70285" lon="-3.30698">
        <ele>75</ele>
        <time>2015-02-15T08:23:54Z</time>
      </trkpt>
      <trkpt lat="48.70279" lon="-3.30705">
        <ele>75</ele>
        <time>2015-02-15T08:23:55Z</time>
      </trkpt>
      <trkpt lat="48.70274" lon="-3.30712">
        <ele>75</ele>
        <time>2015-02-15T08:23:56Z</time>
      </trkpt>
      <trkpt lat="48.70268" lon="-3.30719">
        <ele>75</ele>
        <time>2015-02-15T08:23:57Z</time>
      </trkpt>
      <trkpt lat="48.70262" lon="-3.30725">
        <ele>75</ele>
        <time>2015-02-15T08:23:58Z</time>
      </trkpt>
      <trkpt lat="48.70257" lon="-3.30732">
        <ele>75</ele>
        <time>2015-02-15T08:23:59Z</time>
      </trkpt>
      <trkpt lat="48.70251" lon="-3.30738">
        <ele>75</ele>
        <time>2015-02-15T08:24:00Z</time>
      </trkpt>
      <trkpt lat="48.70245" lon="-3.30745">
        <ele>75</ele>
        <time>2015-02-15T08:24:01Z</time>
      </trkpt>
      <trkpt lat="48.7024" lon="-3.30751">
        <ele>75</ele>
        <time>2015-02-15T08:24:02Z</time>
      </trkpt>
      <trkpt lat="48.70234" lon="-3.30758">
        <ele>75</ele>
        <time>2015-02-15T08:24:03Z</time>
      </trkpt>
      <trkpt lat="48.70229" lon="-3.30765">
        <ele>75</ele>
        <time>2015-02-15T08:24:04Z</time>
      </trkpt>
      <trkpt lat="48.70223" lon="-3.30773">
        <ele>75</ele>
        <time>2015-02-15T08:24:05Z</time>
      </trkpt>
      <trkpt lat="48.70217" lon="-3.3078">
        <ele>75</ele>
        <time>2015-02-15T08:24:06Z</time>
      </trkpt>
      <trkpt lat="48.70211" lon="-3.30788">
        <ele>75</ele>
        <time>2015-02-15T08:24:07Z</time>
      </trkpt>
      <trkpt lat="48.70206" lon="-3.30796">
        <ele>75</ele>
        <time>2015-02-15T08:24:08Z</time>
      </trkpt>
      <trkpt lat="48.702" lon="-3.30803">
        <ele>75</ele>
        <time>2015-02-15T08:24:09Z</time>
      </trkpt>
      <trkpt lat="48.70195" lon="-3.30811">
        <ele>75</ele>
        <time>2015-02-15T08:24:10Z</time>
      </trkpt>
      <trkpt lat="48.70189" lon="-3.30819">
        <ele>75</ele>
        <time>2015-02-15T08:24:11Z</time>
      </trkpt>
      <trkpt lat="48.70184" lon="-3.30826">
        <ele>75</ele>
        <time>2015-02-15T08:24:12Z</time>
      </trkpt>
      <trkpt lat="48.70179" lon="-3.30833">
        <ele>75</ele>
        <time>2015-02-15T08:24:13Z</time>
      </trkpt>
      <trkpt lat="48.70173" lon="-3.30841">
        <ele>76</ele>
        <time>2015-02-15T08:24:14Z</time>
      </trkpt>
      <trkpt lat="48.70168" lon="-3.30849">
        <ele>76</ele>
        <time>2015-02-15T08:24:15Z</time>
      </trkpt>
      <trkpt lat="48.70163" lon="-3.30856">
        <ele>76</ele>
        <time>2015-02-15T08:24:16Z</time>
      </trkpt>
      <trkpt lat="48.70158" lon="-3.30864">
        <ele>76</ele>
        <time>2015-02-15T08:24:17Z</time>
      </trkpt>
      <trkpt lat="48.70153" lon="-3.30871">
        <ele>76</ele>
        <time>2015-02-15T08:24:18Z</time>
      </trkpt>
      <trkpt lat="48.70148" lon="-3.30879">
        <ele>76</ele>
        <time>2015-02-15T08:24:19Z</time>
      </trkpt>
      <trkpt lat="48.70143" lon="-3.30887">
        <ele>76</ele>
        <time>2015-02-15T08:24:20Z</time>
      </trkpt>
      <trkpt lat="48.70138" lon="-3.30894">
        <ele>76</ele>
        <time>2015-02-15T08:24:21Z</time>
      </trkpt>
      <trkpt lat="48.70133" lon="-3.30903">
        <ele>76</ele>
        <time>2015-02-15T08:24:22Z</time>
      </trkpt>
      <trkpt lat="48.70128" lon="-3.30911">
        <ele>76</ele>
        <time>2015-02-15T08:24:23Z</time>
      </trkpt>
      <trkpt lat="48.70124" lon="-3.3092">
        <ele>76</ele>
        <time>2015-02-15T08:24:24Z</time>
      </trkpt>
      <trkpt lat="48.70119" lon="-3.30929">
        <ele>76</ele>
        <time>2015-02-15T08:24:25Z</time>
      </trkpt>
      <trkpt lat="48.70114" lon="-3.30938">
        <ele>76</ele>
        <time>2015-02-15T08:24:26Z</time>
      </trkpt>
      <trkpt lat="48.70109" lon="-3.30946">
        <ele>77</ele>
        <time>2015-02-15T08:24:27Z</time>
      </trkpt>
      <trkpt lat="48.70104" lon="-3.30956">
        <ele>77</ele>
        <time>2015-02-15T08:24:28Z</time>
      </trkpt>
      <trkpt lat="48.70099" lon="-3.30965">
        <ele>77</ele>
        <time>2015-02-15T08:24:29Z</time>
      </trkpt>
      <trkpt lat="48.70094" lon="-3.30975">
        <ele>77</ele>
        <time>2015-02-15T08:24:30Z</time>
      </trkpt>
      <trkpt lat="48.70089" lon="-3.30985">
        <ele>77</ele>
        <time>2015-02-15T08:24:31Z</time>
      </trkpt>
      <trkpt lat="48.70083" lon="-3.30994">
        <ele>77</ele>
        <time>2015-02-15T08:24:32Z</time>
      </trkpt>
      <trkpt lat="48.70078" lon="-3.31004">
        <ele>77</ele>
        <time>2015-02-15T08:24:33Z</time>
      </trkpt>
      <trkpt lat="48.70073" lon="-3.31013">
        <ele>77</ele>
        <time>2015-02-15T08:24:34Z</time>
      </trkpt>
      <trkpt lat="48.70068" lon="-3.31022">
        <ele>77</ele>
        <time>2015-02-15T08:24:35Z</time>
      </trkpt>
      <trkpt lat="48.70062" lon="-3.3103">
        <ele>77</ele>
        <time>2015-02-15T08:24:36Z</time>
      </trkpt>
      <trkpt lat="48.70057" lon="-3.31038">
        <ele>77</ele>
        <time>2015-02-15T08:24:37Z</time>
      </trkpt>
      <trkpt lat="48.70051" lon="-3.31047">
        <ele>77</ele>
        <time>2015-02-15T08:24:38Z</time>
      </trkpt>
      <trkpt lat="48.70046" lon="-3.31055">
        <ele>77</ele>
        <time>2015-02-15T08:24:39Z</time>
      </trkpt>
      <trkpt lat="48.7004" lon="-3.31063">
        <ele>77</ele>
        <time>2015-02-15T08:24:40Z</time>
      </trkpt>
      <trkpt lat="48.70035" lon="-3.31071">
        <ele>77</ele>
        <time>2015-02-15T08:24:41Z</time>
      </trkpt>
      <trkpt lat="48.70029" lon="-3.3108">
        <ele>77</ele>
        <time>2015-02-15T08:24:42Z</time>
      </trkpt>
      <trkpt lat="48.70024" lon="-3.31088">
        <ele>77</ele>
        <time>2015-02-15T08:24:43Z</time>
      </trkpt>
      <trkpt lat="48.70018" lon="-3.31096">
        <ele>77</ele>
        <time>2015-02-15T08:24:44Z</time>
      </trkpt>
      <trkpt lat="48.70013" lon="-3.31104">
        <ele>77</ele>
        <time>2015-02-15T08:24:45Z</time>
      </trkpt>
      <trkpt lat="48.70007" lon="-3.31112">
        <ele>77</ele>
        <time>2015-02-15T08:24:46Z</time>
      </trkpt>
      <trkpt lat="48.70002" lon="-3.3112">
        <ele>77</ele>
        <time>2015-02-15T08:24:47Z</time>
      </trkpt>
      <trkpt lat="48.69996" lon="-3.31129">
        <ele>77</ele>
        <time>2015-02-15T08:24:48Z</time>
      </trkpt>
      <trkpt lat="48.6999" lon="-3.31138">
        <ele>77</ele>
        <time>2015-02-15T08:24:49Z</time>
      </trkpt>
      <trkpt lat="48.69985" lon="-3.31147">
        <ele>77</ele>
        <time>2015-02-15T08:24:50Z</time>
      </trkpt>
      <trkpt lat="48.69979" lon="-3.31156">
        <ele>77</ele>
        <time>2015-02-15T08:24:51Z</time>
      </trkpt>
      <trkpt lat="48.69974" lon="-3.31165">
        <ele>77</ele>
        <time>2015-02-15T08:24:52Z</time>
      </trkpt>
      <trkpt lat="48.69968" lon="-3.31173">
        <ele>77</ele>
        <time>2015-02-15T08:24:53Z</time>
      </trkpt>
      <trkpt lat="48.69962" lon="-3.31182">
        <ele>77</ele>
        <time>2015-02-15T08:24:54Z</time>
      </trkpt>
      <trkpt lat="48.69957" lon="-3.3119">
        <ele>77</ele>
        <time>2015-02-15T08:24:55Z</time>
      </trkpt>
      <trkpt lat="48.69951" lon="-3.31198">
        <ele>77</ele>
        <time>2015-02-15T08:24:56Z</time>
      </trkpt>
      <trkpt lat="48.69945" lon="-3.31205">
        <ele>77</ele>
        <time>2015-02-15T08:24:57Z</time>
      </trkpt>
      <trkpt lat="48.69939" lon="-3.31212">
        <ele>77</ele>
        <time>2015-02-15T08:24:58Z</time>
      </trkpt>
      <trkpt lat="48.69933" lon="-3.31219">
        <ele>77</ele>
        <time>2015-02-15T08:24:59Z</time>
      </trkpt>
      <trkpt lat="48.69927" lon="-3.31225">
        <ele>77</ele>
        <time>2015-02-15T08:25:00Z</time>
      </trkpt>
      <trkpt lat="48.69921" lon="-3.31232">
        <ele>78</ele>
        <time>2015-02-15T08:25:01Z</time>
      </trkpt>
      <trkpt lat="48.69916" lon="-3.3124">
        <ele>78</ele>
        <time>2015-02-15T08:25:02Z</time>
      </trkpt>
      <trkpt lat="48.69911" lon="-3.31247">
        <ele>78</ele>
        <time>2015-02-15T08:25:03Z</time>
      </trkpt>
      <trkpt lat="48.69905" lon="-3.31255">
        <ele>78</ele>
        <time>2015-02-15T08:25:04Z</time>
      </trkpt>
      <trkpt lat="48.699" lon="-3.31262">
        <ele>78</ele>
        <time>2015-02-15T08:25:05Z</time>
      </trkpt>
      <trkpt lat="48.69895" lon="-3.31271">
        <ele>78</ele>
        <time>2015-02-15T08:25:06Z</time>
      </trkpt>
      <trkpt lat="48.69889" lon="-3.31278">
        <ele>78</ele>
        <time>2015-02-15T08:25:07Z</time>
      </trkpt>
      <trkpt lat="48.69884" lon="-3.31286">
        <ele>78</ele>
        <time>2015-02-15T08:25:08Z</time>
      </trkpt>
      <trkpt lat="48.69878" lon="-3.31294">
        <ele>78</ele>
        <time>2015-02-15T08:25:09Z</time>
      </trkpt>
      <trkpt lat="48.69872" lon="-3.31302">
        <ele>79</ele>
        <time>2015-02-15T08:25:10Z</time>
      </trkpt>
      <trkpt lat="48.69866" lon="-3.31309">
        <ele>79</ele>
        <time>2015-02-15T08:25:11Z</time>
      </trkpt>
      <trkpt lat="48.69859" lon="-3.31316">
        <ele>79</ele>
        <time>2015-02-15T08:25:12Z</time>
      </trkpt>
      <trkpt lat="48.69853" lon="-3.31323">
        <ele>79</ele>
        <time>2015-02-15T08:25:13Z</time>
      </trkpt>
      <trkpt lat="48.69847" lon="-3.31329">
        <ele>79</ele>
        <time>2015-02-15T08:25:14Z</time>
      </trkpt>
      <trkpt lat="48.69841" lon="-3.31334">
        <ele>79</ele>
        <time>2015-02-15T08:25:15Z</time>
      </trkpt>
      <trkpt lat="48.69835" lon="-3.31339">
        <ele>80</ele>
        <time>2015-02-15T08:25:16Z</time>
      </trkpt>
      <trkpt lat="48.69829" lon="-3.31345">
        <ele>80</ele>
        <time>2015-02-15T08:25:17Z</time>
      </trkpt>
      <trkpt lat="48.69823" lon="-3.31349">
        <ele>80</ele>
        <time>2015-02-15T08:25:18Z</time>
      </trkpt>
      <trkpt lat="48.69817" lon="-3.31355">
        <ele>80</ele>
        <time>2015-02-15T08:25:19Z</time>
      </trkpt>
      <trkpt lat="48.69811" lon="-3.3136">
        <ele>80</ele>
        <time>2015-02-15T08:25:20Z</time>
      </trkpt>
      <trkpt lat="48.69805" lon="-3.31365">
        <ele>80</ele>
        <time>2015-02-15T08:25:21Z</time>
      </trkpt>
      <trkpt lat="48.69799" lon="-3.3137">
        <ele>81</ele>
        <time>2015-02-15T08:25:22Z</time>
      </trkpt>
      <trkpt lat="48.69792" lon="-3.31375">
        <ele>81</ele>
        <time>2015-02-15T08:25:23Z</time>
      </trkpt>
      <trkpt lat="48.69786" lon="-3.3138">
        <ele>81</ele>
        <time>2015-02-15T08:25:24Z</time>
      </trkpt>
      <trkpt lat="48.6978" lon="-3.31385">
        <ele>81</ele>
        <time>2015-02-15T08:25:25Z</time>
      </trkpt>
      <trkpt lat="48.69773" lon="-3.31391">
        <ele>81</ele>
        <time>2015-02-15T08:25:26Z</time>
      </trkpt>
      <trkpt lat="48.69766" lon="-3.31397">
        <ele>81</ele>
        <time>2015-02-15T08:25:27Z</time>
      </trkpt>
      <trkpt lat="48.6976" lon="-3.31402">
        <ele>81</ele>
        <time>2015-02-15T08:25:28Z</time>
      </trkpt>
      <trkpt lat="48.69753" lon="-3.31408">
        <ele>81</ele>
        <time>2015-02-15T08:25:29Z</time>
      </trkpt>
      <trkpt lat="48.69747" lon="-3.31414">
        <ele>81</ele>
        <time>2015-02-15T08:25:30Z</time>
      </trkpt>
      <trkpt lat="48.69741" lon="-3.3142">
        <ele>81</ele>
        <time>2015-02-15T08:25:31Z</time>
      </trkpt>
      <trkpt lat="48.69736" lon="-3.31427">
        <ele>81</ele>
        <time>2015-02-15T08:25:32Z</time>
      </trkpt>
      <trkpt lat="48.6973" lon="-3.31434">
        <ele>81</ele>
        <time>2015-02-15T08:25:33Z</time>
      </trkpt>
      <trkpt lat="48.69725" lon="-3.31441">
        <ele>81</ele>
        <time>2015-02-15T08:25:34Z</time>
      </trkpt>
      <trkpt lat="48.6972" lon="-3.31448">
        <ele>81</ele>
        <time>2015-02-15T08:25:35Z</time>
      </trkpt>
      <trkpt lat="48.69714" lon="-3.31456">
        <ele>81</ele>
        <time>2015-02-15T08:25:36Z</time>
      </trkpt>
      <trkpt lat="48.69709" lon="-3.31464">
        <ele>81</ele>
        <time>2015-02-15T08:25:37Z</time>
      </trkpt>
      <trkpt lat="48.69704" lon="-3.31471">
        <ele>81</ele>
        <time>2015-02-15T08:25:38Z</time>
      </trkpt>
      <trkpt lat="48.69698" lon="-3.31479">
        <ele>81</ele>
        <time>2015-02-15T08:25:39Z</time>
      </trkpt>
      <trkpt lat="48.69693" lon="-3.31487">
        <ele>81</ele>
        <time>2015-02-15T08:25:40Z</time>
      </trkpt>
      <trkpt lat="48.69687" lon="-3.31495">
        <ele>81</ele>
        <time>2015-02-15T08:25:41Z</time>
      </trkpt>
      <trkpt lat="48.69681" lon="-3.31504">
        <ele>81</ele>
        <time>2015-02-15T08:25:42Z</time>
      </trkpt>
      <trkpt lat="48.69675" lon="-3.31512">
        <ele>81</ele>
        <time>2015-02-15T08:25:43Z</time>
      </trkpt>
      <trkpt lat="48.69669" lon="-3.3152">
        <ele>81</ele>
        <time>2015-02-15T08:25:44Z</time>
      </trkpt>
      <trkpt lat="48.69664" lon="-3.31528">
        <ele>81</ele>
        <time>2015-02-15T08:25:45Z</time>
      </trkpt>
      <trkpt lat="48.69658" lon="-3.31535">
        <ele>81</ele>
        <time>2015-02-15T08:25:46Z</time>
      </trkpt>
      <trkpt lat="48.69651" lon="-3.31542">
        <ele>81</ele>
        <time>2015-02-15T08:25:47Z</time>
      </trkpt>
      <trkpt lat="48.69645" lon="-3.31549">
        <ele>81</ele>
        <time>2015-02-15T08:25:48Z</time>
      </trkpt>
      <trkpt lat="48.69639" lon="-3.31555">
        <ele>81</ele>
        <time>2015-02-15T08:25:49Z</time>
      </trkpt>
      <trkpt lat="48.69633" lon="-3.31561">
        <ele>81</ele>
        <time>2015-02-15T08:25:50Z</time>
      </trkpt>
      <trkpt lat="48.69627" lon="-3.31567">
        <ele>81</ele>
        <time>2015-02-15T08:25:51Z</time>
      </trkpt>
      <trkpt lat="48.6962" lon="-3.31573">
        <ele>81</ele>
        <time>2015-02-15T08:25:52Z</time>
      </trkpt>
      <trkpt lat="48.69614" lon="-3.31579">
        <ele>81</ele>
        <time>2015-02-15T08:25:53Z</time>
      </trkpt>
      <trkpt lat="48.69608" lon="-3.31585">
        <ele>81</ele>
        <time>2015-02-15T08:25:54Z</time>
      </trkpt>
      <trkpt lat="48.69601" lon="-3.31592">
        <ele>81</ele>
        <time>2015-02-15T08:25:55Z</time>
      </trkpt>
      <trkpt lat="48.69596" lon="-3.31599">
        <ele>81</ele>
        <time>2015-02-15T08:25:56Z</time>
      </trkpt>
      <trkpt lat="48.6959" lon="-3.31606">
        <ele>81</ele>
        <time>2015-02-15T08:25:57Z</time>
      </trkpt>
      <trkpt lat="48.69585" lon="-3.31613">
        <ele>82</ele>
        <time>2015-02-15T08:25:58Z</time>
      </trkpt>
      <trkpt lat="48.6958" lon="-3.3162">
        <ele>82</ele>
        <time>2015-02-15T08:25:59Z</time>
      </trkpt>
      <trkpt lat="48.69575" lon="-3.31627">
        <ele>82</ele>
        <time>2015-02-15T08:26:00Z</time>
      </trkpt>
      <trkpt lat="48.69571" lon="-3.31633">
        <ele>82</ele>
        <time>2015-02-15T08:26:01Z</time>
      </trkpt>
      <trkpt lat="48.69566" lon="-3.3164">
        <ele>82</ele>
        <time>2015-02-15T08:26:02Z</time>
      </trkpt>
      <trkpt lat="48.69561" lon="-3.31646">
        <ele>82</ele>
        <time>2015-02-15T08:26:03Z</time>
      </trkpt>
      <trkpt lat="48.69556" lon="-3.31651">
        <ele>83</ele>
        <time>2015-02-15T08:26:04Z</time>
      </trkpt>
      <trkpt lat="48.69552" lon="-3.31656">
        <ele>83</ele>
        <time>2015-02-15T08:26:05Z</time>
      </trkpt>
      <trkpt lat="48.69548" lon="-3.31661">
        <ele>83</ele>
        <time>2015-02-15T08:26:06Z</time>
      </trkpt>
      <trkpt lat="48.69543" lon="-3.31665">
        <ele>83</ele>
        <time>2015-02-15T08:26:07Z</time>
      </trkpt>
      <trkpt lat="48.69538" lon="-3.3167">
        <ele>83</ele>
        <time>2015-02-15T08:26:08Z</time>
      </trkpt>
      <trkpt lat="48.69534" lon="-3.31676">
        <ele>83</ele>
        <time>2015-02-15T08:26:09Z</time>
      </trkpt>
      <trkpt lat="48.69529" lon="-3.31681">
        <ele>83</ele>
        <time>2015-02-15T08:26:10Z</time>
      </trkpt>
      <trkpt lat="48.69524" lon="-3.31686">
        <ele>84</ele>
        <time>2015-02-15T08:26:11Z</time>
      </trkpt>
      <trkpt lat="48.6952" lon="-3.3169">
        <ele>84</ele>
        <time>2015-02-15T08:26:12Z</time>
      </trkpt>
      <trkpt lat="48.69515" lon="-3.31694">
        <ele>84</ele>
        <time>2015-02-15T08:26:13Z</time>
      </trkpt>
      <trkpt lat="48.6951" lon="-3.31698">
        <ele>84</ele>
        <time>2015-02-15T08:26:14Z</time>
      </trkpt>
      <trkpt lat="48.69505" lon="-3.31702">
        <ele>84</ele>
        <time>2015-02-15T08:26:15Z</time>
      </trkpt>
      <trkpt lat="48.695" lon="-3.31706">
        <ele>84</ele>
        <time>2015-02-15T08:26:16Z</time>
      </trkpt>
      <trkpt lat="48.69495" lon="-3.3171">
        <ele>85</ele>
        <time>2015-02-15T08:26:17Z</time>
      </trkpt>
      <trkpt lat="48.6949" lon="-3.31714">
        <ele>85</ele>
        <time>2015-02-15T08:26:18Z</time>
      </trkpt>
      <trkpt lat="48.69484" lon="-3.31718">
        <ele>85</ele>
        <time>2015-02-15T08:26:19Z</time>
      </trkpt>
      <trkpt lat="48.69479" lon="-3.31722">
        <ele>85</ele>
        <time>2015-02-15T08:26:20Z</time>
      </trkpt>
      <trkpt lat="48.69474" lon="-3.31725">
        <ele>85</ele>
        <time>2015-02-15T08:26:21Z</time>
      </trkpt>
      <trkpt lat="48.69468" lon="-3.31729">
        <ele>86</ele>
        <time>2015-02-15T08:26:22Z</time>
      </trkpt>
      <trkpt lat="48.69461" lon="-3.31732">
        <ele>86</ele>
        <time>2015-02-15T08:26:23Z</time>
      </trkpt>
      <trkpt lat="48.69455" lon="-3.31734">
        <ele>86</ele>
        <time>2015-02-15T08:26:24Z</time>
      </trkpt>
      <trkpt lat="48.69448" lon="-3.31736">
        <ele>87</ele>
        <time>2015-02-15T08:26:25Z</time>
      </trkpt>
      <trkpt lat="48.69441" lon="-3.31737">
        <ele>87</ele>
        <time>2015-02-15T08:26:26Z</time>
      </trkpt>
      <trkpt lat="48.69434" lon="-3.31738">
        <ele>87</ele>
        <time>2015-02-15T08:26:27Z</time>
      </trkpt>
      <trkpt lat="48.69427" lon="-3.31739">
        <ele>87</ele>
        <time>2015-02-15T08:26:28Z</time>
      </trkpt>
      <trkpt lat="48.6942" lon="-3.3174">
        <ele>87</ele>
        <time>2015-02-15T08:26:29Z</time>
      </trkpt>
      <trkpt lat="48.69413" lon="-3.3174">
        <ele>87</ele>
        <time>2015-02-15T08:26:30Z</time>
      </trkpt>
      <trkpt lat="48.69405" lon="-3.3174">
        <ele>87</ele>
        <time>2015-02-15T08:26:31Z</time>
      </trkpt>
      <trkpt lat="48.69398" lon="-3.3174">
        <ele>88</ele>
        <time>2015-02-15T08:26:32Z</time>
      </trkpt>
      <trkpt lat="48.69391" lon="-3.3174">
        <ele>88</ele>
        <time>2015-02-15T08:26:33Z</time>
      </trkpt>
      <trkpt lat="48.69384" lon="-3.31741">
        <ele>88</ele>
        <time>2015-02-15T08:26:34Z</time>
      </trkpt>
      <trkpt lat="48.69369" lon="-3.31741">
        <ele>88</ele>
        <time>2015-02-15T08:26:36Z</time>
      </trkpt>
      <trkpt lat="48.69362" lon="-3.31741">
        <ele>88</ele>
        <time>2015-02-15T08:26:37Z</time>
      </trkpt>
      <trkpt lat="48.69355" lon="-3.31742">
        <ele>88</ele>
        <time>2015-02-15T08:26:38Z</time>
      </trkpt>
      <trkpt lat="48.69349" lon="-3.31743">
        <ele>88</ele>
        <time>2015-02-15T08:26:39Z</time>
      </trkpt>
      <trkpt lat="48.69342" lon="-3.31743">
        <ele>89</ele>
        <time>2015-02-15T08:26:40Z</time>
      </trkpt>
      <trkpt lat="48.69335" lon="-3.31744">
        <ele>89</ele>
        <time>2015-02-15T08:26:41Z</time>
      </trkpt>
      <trkpt lat="48.69329" lon="-3.31745">
        <ele>89</ele>
        <time>2015-02-15T08:26:42Z</time>
      </trkpt>
      <trkpt lat="48.69321" lon="-3.31746">
        <ele>89</ele>
        <time>2015-02-15T08:26:43Z</time>
      </trkpt>
      <trkpt lat="48.69315" lon="-3.31748">
        <ele>89</ele>
        <time>2015-02-15T08:26:44Z</time>
      </trkpt>
      <trkpt lat="48.69307" lon="-3.31749">
        <ele>89</ele>
        <time>2015-02-15T08:26:45Z</time>
      </trkpt>
      <trkpt lat="48.693" lon="-3.31751">
        <ele>90</ele>
        <time>2015-02-15T08:26:46Z</time>
      </trkpt>
      <trkpt lat="48.69293" lon="-3.31753">
        <ele>90</ele>
        <time>2015-02-15T08:26:47Z</time>
      </trkpt>
      <trkpt lat="48.69286" lon="-3.31755">
        <ele>90</ele>
        <time>2015-02-15T08:26:48Z</time>
      </trkpt>
      <trkpt lat="48.69279" lon="-3.31757">
        <ele>90</ele>
        <time>2015-02-15T08:26:49Z</time>
      </trkpt>
      <trkpt lat="48.69273" lon="-3.3176">
        <ele>90</ele>
        <time>2015-02-15T08:26:50Z</time>
      </trkpt>
      <trkpt lat="48.69266" lon="-3.31762">
        <ele>90</ele>
        <time>2015-02-15T08:26:51Z</time>
      </trkpt>
      <trkpt lat="48.69259" lon="-3.31764">
        <ele>90</ele>
        <time>2015-02-15T08:26:52Z</time>
      </trkpt>
      <trkpt lat="48.69252" lon="-3.31766">
        <ele>91</ele>
        <time>2015-02-15T08:26:53Z</time>
      </trkpt>
      <trkpt lat="48.69246" lon="-3.31768">
        <ele>91</ele>
        <time>2015-02-15T08:26:54Z</time>
      </trkpt>
      <trkpt lat="48.69239" lon="-3.3177">
        <ele>91</ele>
        <time>2015-02-15T08:26:55Z</time>
      </trkpt>
      <trkpt lat="48.69232" lon="-3.31772">
        <ele>91</ele>
        <time>2015-02-15T08:26:56Z</time>
      </trkpt>
      <trkpt lat="48.69225" lon="-3.31774">
        <ele>91</ele>
        <time>2015-02-15T08:26:57Z</time>
      </trkpt>
      <trkpt lat="48.69217" lon="-3.31777">
        <ele>91</ele>
        <time>2015-02-15T08:26:58Z</time>
      </trkpt>
      <trkpt lat="48.6921" lon="-3.31779">
        <ele>91</ele>
        <time>2015-02-15T08:26:59Z</time>
      </trkpt>
      <trkpt lat="48.69202" lon="-3.31781">
        <ele>91</ele>
        <time>2015-02-15T08:27:00Z</time>
      </trkpt>
      <trkpt lat="48.69194" lon="-3.31783">
        <ele>92</ele>
        <time>2015-02-15T08:27:01Z</time>
      </trkpt>
      <trkpt lat="48.69187" lon="-3.31784">
        <ele>92</ele>
        <time>2015-02-15T08:27:02Z</time>
      </trkpt>
      <trkpt lat="48.69179" lon="-3.31786">
        <ele>92</ele>
        <time>2015-02-15T08:27:03Z</time>
      </trkpt>
      <trkpt lat="48.69171" lon="-3.31787">
        <ele>92</ele>
        <time>2015-02-15T08:27:04Z</time>
      </trkpt>
      <trkpt lat="48.69164" lon="-3.31788">
        <ele>92</ele>
        <time>2015-02-15T08:27:05Z</time>
      </trkpt>
      <trkpt lat="48.69156" lon="-3.31789">
        <ele>92</ele>
        <time>2015-02-15T08:27:06Z</time>
      </trkpt>
      <trkpt lat="48.69148" lon="-3.31789">
        <ele>92</ele>
        <time>2015-02-15T08:27:07Z</time>
      </trkpt>
      <trkpt lat="48.69124" lon="-3.31789">
        <ele>92</ele>
        <time>2015-02-15T08:27:10Z</time>
      </trkpt>
      <trkpt lat="48.69115" lon="-3.31789">
        <ele>92</ele>
        <time>2015-02-15T08:27:11Z</time>
      </trkpt>
      <trkpt lat="48.69107" lon="-3.31788">
        <ele>92</ele>
        <time>2015-02-15T08:27:12Z</time>
      </trkpt>
      <trkpt lat="48.69099" lon="-3.31788">
        <ele>92</ele>
        <time>2015-02-15T08:27:13Z</time>
      </trkpt>
      <trkpt lat="48.69091" lon="-3.31788">
        <ele>92</ele>
        <time>2015-02-15T08:27:14Z</time>
      </trkpt>
      <trkpt lat="48.69083" lon="-3.31787">
        <ele>93</ele>
        <time>2015-02-15T08:27:15Z</time>
      </trkpt>
      <trkpt lat="48.69076" lon="-3.31787">
        <ele>93</ele>
        <time>2015-02-15T08:27:16Z</time>
      </trkpt>
      <trkpt lat="48.69068" lon="-3.31786">
        <ele>93</ele>
        <time>2015-02-15T08:27:17Z</time>
      </trkpt>
      <trkpt lat="48.69061" lon="-3.31785">
        <ele>93</ele>
        <time>2015-02-15T08:27:18Z</time>
      </trkpt>
      <trkpt lat="48.69053" lon="-3.31784">
        <ele>93</ele>
        <time>2015-02-15T08:27:19Z</time>
      </trkpt>
      <trkpt lat="48.69045" lon="-3.31783">
        <ele>93</ele>
        <time>2015-02-15T08:27:20Z</time>
      </trkpt>
      <trkpt lat="48.69038" lon="-3.31782">
        <ele>93</ele>
        <time>2015-02-15T08:27:21Z</time>
      </trkpt>
      <trkpt lat="48.6903" lon="-3.31781">
        <ele>93</ele>
        <time>2015-02-15T08:27:22Z</time>
      </trkpt>
      <trkpt lat="48.69022" lon="-3.3178">
        <ele>93</ele>
        <time>2015-02-15T08:27:23Z</time>
      </trkpt>
      <trkpt lat="48.69014" lon="-3.31779">
        <ele>93</ele>
        <time>2015-02-15T08:27:24Z</time>
      </trkpt>
      <trkpt lat="48.69006" lon="-3.31777">
        <ele>93</ele>
        <time>2015-02-15T08:27:25Z</time>
      </trkpt>
      <trkpt lat="48.68998" lon="-3.31776">
        <ele>93</ele>
        <time>2015-02-15T08:27:26Z</time>
      </trkpt>
      <trkpt lat="48.6899" lon="-3.31774">
        <ele>93</ele>
        <time>2015-02-15T08:27:27Z</time>
      </trkpt>
      <trkpt lat="48.68983" lon="-3.31773">
        <ele>93</ele>
        <time>2015-02-15T08:27:28Z</time>
      </trkpt>
      <trkpt lat="48.68975" lon="-3.31771">
        <ele>93</ele>
        <time>2015-02-15T08:27:29Z</time>
      </trkpt>
      <trkpt lat="48.68968" lon="-3.3177">
        <ele>93</ele>
        <time>2015-02-15T08:27:30Z</time>
      </trkpt>
      <trkpt lat="48.68961" lon="-3.31769">
        <ele>93</ele>
        <time>2015-02-15T08:27:31Z</time>
      </trkpt>
      <trkpt lat="48.68953" lon="-3.31768">
        <ele>93</ele>
        <time>2015-02-15T08:27:32Z</time>
      </trkpt>
      <trkpt lat="48.68946" lon="-3.31767">
        <ele>93</ele>
        <time>2015-02-15T08:27:33Z</time>
      </trkpt>
      <trkpt lat="48.6894" lon="-3.31766">
        <ele>93</ele>
        <time>2015-02-15T08:27:34Z</time>
      </trkpt>
      <trkpt lat="48.68933" lon="-3.31764">
        <ele>93</ele>
        <time>2015-02-15T08:27:35Z</time>
      </trkpt>
      <trkpt lat="48.68926" lon="-3.31763">
        <ele>93</ele>
        <time>2015-02-15T08:27:36Z</time>
      </trkpt>
      <trkpt lat="48.68919" lon="-3.31761">
        <ele>93</ele>
        <time>2015-02-15T08:27:37Z</time>
      </trkpt>
      <trkpt lat="48.68912" lon="-3.3176">
        <ele>93</ele>
        <time>2015-02-15T08:27:38Z</time>
      </trkpt>
      <trkpt lat="48.68905" lon="-3.31759">
        <ele>93</ele>
        <time>2015-02-15T08:27:39Z</time>
      </trkpt>
      <trkpt lat="48.68898" lon="-3.31757">
        <ele>93</ele>
        <time>2015-02-15T08:27:40Z</time>
      </trkpt>
      <trkpt lat="48.68891" lon="-3.31756">
        <ele>93</ele>
        <time>2015-02-15T08:27:41Z</time>
      </trkpt>
      <trkpt lat="48.68884" lon="-3.31755">
        <ele>93</ele>
        <time>2015-02-15T08:27:42Z</time>
      </trkpt>
      <trkpt lat="48.68878" lon="-3.31753">
        <ele>93</ele>
        <time>2015-02-15T08:27:43Z</time>
      </trkpt>
      <trkpt lat="48.68872" lon="-3.31752">
        <ele>93</ele>
        <time>2015-02-15T08:27:44Z</time>
      </trkpt>
      <trkpt lat="48.68866" lon="-3.31751">
        <ele>93</ele>
        <time>2015-02-15T08:27:45Z</time>
      </trkpt>
      <trkpt lat="48.6886" lon="-3.3175">
        <ele>93</ele>
        <time>2015-02-15T08:27:46Z</time>
      </trkpt>
      <trkpt lat="48.68855" lon="-3.3175">
        <ele>93</ele>
        <time>2015-02-15T08:27:47Z</time>
      </trkpt>
      <trkpt lat="48.68849" lon="-3.31749">
        <ele>93</ele>
        <time>2015-02-15T08:27:48Z</time>
      </trkpt>
      <trkpt lat="48.68845" lon="-3.31748">
        <ele>93</ele>
        <time>2015-02-15T08:27:49Z</time>
      </trkpt>
      <trkpt lat="48.6884" lon="-3.31748">
        <ele>93</ele>
        <time>2015-02-15T08:27:50Z</time>
      </trkpt>
      <trkpt lat="48.68835" lon="-3.31748">
        <ele>93</ele>
        <time>2015-02-15T08:27:51Z</time>
      </trkpt>
      <trkpt lat="48.6883" lon="-3.31747">
        <ele>93</ele>
        <time>2015-02-15T08:27:52Z</time>
      </trkpt>
      <trkpt lat="48.68826" lon="-3.31747">
        <ele>93</ele>
        <time>2015-02-15T08:27:53Z</time>
      </trkpt>
      <trkpt lat="48.68821" lon="-3.31746">
        <ele>93</ele>
        <time>2015-02-15T08:27:54Z</time>
      </trkpt>
      <trkpt lat="48.68817" lon="-3.31745">
        <ele>93</ele>
        <time>2015-02-15T08:27:55Z</time>
      </trkpt>
      <trkpt lat="48.68813" lon="-3.31741">
        <ele>93</ele>
        <time>2015-02-15T08:27:56Z</time>
      </trkpt>
      <trkpt lat="48.68811" lon="-3.31735">
        <ele>93</ele>
        <time>2015-02-15T08:27:57Z</time>
      </trkpt>
      <trkpt lat="48.68811" lon="-3.31727">
        <ele>93</ele>
        <time>2015-02-15T08:27:58Z</time>
      </trkpt>
      <trkpt lat="48.68811" lon="-3.31718">
        <ele>93</ele>
        <time>2015-02-15T08:27:59Z</time>
      </trkpt>
      <trkpt lat="48.68812" lon="-3.31709">
        <ele>93</ele>
        <time>2015-02-15T08:28:00Z</time>
      </trkpt>
      <trkpt lat="48.68813" lon="-3.31698">
        <ele>93</ele>
        <time>2015-02-15T08:28:01Z</time>
      </trkpt>
      <trkpt lat="48.68815" lon="-3.31687">
        <ele>93</ele>
        <time>2015-02-15T08:28:02Z</time>
      </trkpt>
      <trkpt lat="48.68816" lon="-3.31675">
        <ele>93</ele>
        <time>2015-02-15T08:28:03Z</time>
      </trkpt>
      <trkpt lat="48.68817" lon="-3.31662">
        <ele>93</ele>
        <time>2015-02-15T08:28:04Z</time>
      </trkpt>
      <trkpt lat="48.68818" lon="-3.31649">
        <ele>93</ele>
        <time>2015-02-15T08:28:05Z</time>
      </trkpt>
      <trkpt lat="48.68819" lon="-3.31635">
        <ele>93</ele>
        <time>2015-02-15T08:28:06Z</time>
      </trkpt>
      <trkpt lat="48.68821" lon="-3.31621">
        <ele>93</ele>
        <time>2015-02-15T08:28:07Z</time>
      </trkpt>
      <trkpt lat="48.68822" lon="-3.31607">
        <ele>93</ele>
        <time>2015-02-15T08:28:08Z</time>
      </trkpt>
      <trkpt lat="48.68823" lon="-3.31593">
        <ele>93</ele>
        <time>2015-02-15T08:28:09Z</time>
      </trkpt>
      <trkpt lat="48.68824" lon="-3.31578">
        <ele>93</ele>
        <time>2015-02-15T08:28:10Z</time>
      </trkpt>
      <trkpt lat="48.68825" lon="-3.31564">
        <ele>93</ele>
        <time>2015-02-15T08:28:11Z</time>
      </trkpt>
      <trkpt lat="48.68826" lon="-3.31549">
        <ele>93</ele>
        <time>2015-02-15T08:28:12Z</time>
      </trkpt>
      <trkpt lat="48.68825" lon="-3.31519">
        <ele>93</ele>
        <time>2015-02-15T08:28:14Z</time>
      </trkpt>
      <trkpt lat="48.68824" lon="-3.31505">
        <ele>93</ele>
        <time>2015-02-15T08:28:15Z</time>
      </trkpt>
      <trkpt lat="48.68822" lon="-3.31492">
        <ele>93</ele>
        <time>2015-02-15T08:28:16Z</time>
      </trkpt>
      <trkpt lat="48.6882" lon="-3.31479">
        <ele>93</ele>
        <time>2015-02-15T08:28:17Z</time>
      </trkpt>
      <trkpt lat="48.68817" lon="-3.31466">
        <ele>93</ele>
        <time>2015-02-15T08:28:18Z</time>
      </trkpt>
      <trkpt lat="48.68813" lon="-3.31453">
        <ele>93</ele>
        <time>2015-02-15T08:28:19Z</time>
      </trkpt>
      <trkpt lat="48.68809" lon="-3.31441">
        <ele>93</ele>
        <time>2015-02-15T08:28:20Z</time>
      </trkpt>
      <trkpt lat="48.68805" lon="-3.3143">
        <ele>93</ele>
        <time>2015-02-15T08:28:21Z</time>
      </trkpt>
      <trkpt lat="48.68801" lon="-3.3142">
        <ele>93</ele>
        <time>2015-02-15T08:28:22Z</time>
      </trkpt>
      <trkpt lat="48.68796" lon="-3.31411">
        <ele>93</ele>
        <time>2015-02-15T08:28:23Z</time>
      </trkpt>
      <trkpt lat="48.68791" lon="-3.31402">
        <ele>93</ele>
        <time>2015-02-15T08:28:24Z</time>
      </trkpt>
      <trkpt lat="48.68787" lon="-3.31395">
        <ele>93</ele>
        <time>2015-02-15T08:28:25Z</time>
      </trkpt>
      <trkpt lat="48.68782" lon="-3.31388">
        <ele>93</ele>
        <time>2015-02-15T08:28:26Z</time>
      </trkpt>
      <trkpt lat="48.68776" lon="-3.31381">
        <ele>93</ele>
        <time>2015-02-15T08:28:27Z</time>
      </trkpt>
      <trkpt lat="48.68771" lon="-3.31375">
        <ele>93</ele>
        <time>2015-02-15T08:28:28Z</time>
      </trkpt>
      <trkpt lat="48.68766" lon="-3.31369">
        <ele>93</ele>
        <time>2015-02-15T08:28:29Z</time>
      </trkpt>
      <trkpt lat="48.6876" lon="-3.31363">
        <ele>93</ele>
        <time>2015-02-15T08:28:30Z</time>
      </trkpt>
      <trkpt lat="48.68755" lon="-3.31356">
        <ele>93</ele>
        <time>2015-02-15T08:28:31Z</time>
      </trkpt>
      <trkpt lat="48.68749" lon="-3.3135">
        <ele>93</ele>
        <time>2015-02-15T08:28:32Z</time>
      </trkpt>
      <trkpt lat="48.68744" lon="-3.31344">
        <ele>93</ele>
        <time>2015-02-15T08:28:33Z</time>
      </trkpt>
      <trkpt lat="48.68738" lon="-3.31338">
        <ele>93</ele>
        <time>2015-02-15T08:28:34Z</time>
      </trkpt>
      <trkpt lat="48.68732" lon="-3.31331">
        <ele>94</ele>
        <time>2015-02-15T08:28:35Z</time>
      </trkpt>
      <trkpt lat="48.68727" lon="-3.31325">
        <ele>94</ele>
        <time>2015-02-15T08:28:36Z</time>
      </trkpt>
      <trkpt lat="48.68721" lon="-3.31319">
        <ele>94</ele>
        <time>2015-02-15T08:28:37Z</time>
      </trkpt>
      <trkpt lat="48.68715" lon="-3.31312">
        <ele>94</ele>
        <time>2015-02-15T08:28:38Z</time>
      </trkpt>
      <trkpt lat="48.68709" lon="-3.31305">
        <ele>94</ele>
        <time>2015-02-15T08:28:39Z</time>
      </trkpt>
      <trkpt lat="48.68702" lon="-3.31299">
        <ele>94</ele>
        <time>2015-02-15T08:28:40Z</time>
      </trkpt>
      <trkpt lat="48.68697" lon="-3.31292">
        <ele>95</ele>
        <time>2015-02-15T08:28:41Z</time>
      </trkpt>
      <trkpt lat="48.6869" lon="-3.31285">
        <ele>95</ele>
        <time>2015-02-15T08:28:42Z</time>
      </trkpt>
      <trkpt lat="48.68684" lon="-3.31279">
        <ele>95</ele>
        <time>2015-02-15T08:28:43Z</time>
      </trkpt>
      <trkpt lat="48.68679" lon="-3.31272">
        <ele>95</ele>
        <time>2015-02-15T08:28:44Z</time>
      </trkpt>
      <trkpt lat="48.68673" lon="-3.31266">
        <ele>95</ele>
        <time>2015-02-15T08:28:45Z</time>
      </trkpt>
      <trkpt lat="48.68668" lon="-3.3126">
        <ele>95</ele>
        <time>2015-02-15T08:28:46Z</time>
      </trkpt>
      <trkpt lat="48.68663" lon="-3.31254">
        <ele>95</ele>
        <time>2015-02-15T08:28:47Z</time>
      </trkpt>
      <trkpt lat="48.68657" lon="-3.31247">
        <ele>96</ele>
        <time>2015-02-15T08:28:48Z</time>
      </trkpt>
      <trkpt lat="48.68651" lon="-3.31241">
        <ele>96</ele>
        <time>2015-02-15T08:28:49Z</time>
      </trkpt>
      <trkpt lat="48.68646" lon="-3.31235">
        <ele>96</ele>
        <time>2015-02-15T08:28:50Z</time>
      </trkpt>
      <trkpt lat="48.6864" lon="-3.31228">
        <ele>96</ele>
        <time>2015-02-15T08:28:51Z</time>
      </trkpt>
      <trkpt lat="48.68634" lon="-3.31222">
        <ele>96</ele>
        <time>2015-02-15T08:28:52Z</time>
      </trkpt>
      <trkpt lat="48.68628" lon="-3.31216">
        <ele>96</ele>
        <time>2015-02-15T08:28:53Z</time>
      </trkpt>
      <trkpt lat="48.68623" lon="-3.31209">
        <ele>96</ele>
        <time>2015-02-15T08:28:54Z</time>
      </trkpt>
      <trkpt lat="48.68617" lon="-3.31202">
        <ele>97</ele>
        <time>2015-02-15T08:28:55Z</time>
      </trkpt>
      <trkpt lat="48.68611" lon="-3.31196">
        <ele>97</ele>
        <time>2015-02-15T08:28:56Z</time>
      </trkpt>
      <trkpt lat="48.68605" lon="-3.31189">
        <ele>97</ele>
        <time>2015-02-15T08:28:57Z</time>
      </trkpt>
      <trkpt lat="48.68599" lon="-3.31182">
        <ele>97</ele>
        <time>2015-02-15T08:28:58Z</time>
      </trkpt>
      <trkpt lat="48.68593" lon="-3.31175">
        <ele>97</ele>
        <time>2015-02-15T08:28:58Z</time>
      </trkpt>
      <trkpt lat="48.68587" lon="-3.31169">
        <ele>97</ele>
        <time>2015-02-15T08:29:00Z</time>
      </trkpt>
      <trkpt lat="48.68581" lon="-3.31162">
        <ele>97</ele>
        <time>2015-02-15T08:29:01Z</time>
      </trkpt>
      <trkpt lat="48.68575" lon="-3.31154">
        <ele>97</ele>
        <time>2015-02-15T08:29:02Z</time>
      </trkpt>
      <trkpt lat="48.68569" lon="-3.31147">
        <ele>97</ele>
        <time>2015-02-15T08:29:03Z</time>
      </trkpt>
      <trkpt lat="48.68563" lon="-3.31139">
        <ele>97</ele>
        <time>2015-02-15T08:29:04Z</time>
      </trkpt>
      <trkpt lat="48.68557" lon="-3.31131">
        <ele>97</ele>
        <time>2015-02-15T08:29:05Z</time>
      </trkpt>
      <trkpt lat="48.68552" lon="-3.31122">
        <ele>97</ele>
        <time>2015-02-15T08:29:06Z</time>
      </trkpt>
      <trkpt lat="48.68547" lon="-3.31113">
        <ele>97</ele>
        <time>2015-02-15T08:29:07Z</time>
      </trkpt>
      <trkpt lat="48.68542" lon="-3.31103">
        <ele>97</ele>
        <time>2015-02-15T08:29:07Z</time>
      </trkpt>
      <trkpt lat="48.68538" lon="-3.31093">
        <ele>97</ele>
        <time>2015-02-15T08:29:09Z</time>
      </trkpt>
      <trkpt lat="48.68534" lon="-3.31082">
        <ele>97</ele>
        <time>2015-02-15T08:29:10Z</time>
      </trkpt>
      <trkpt lat="48.6853" lon="-3.31071">
        <ele>97</ele>
        <time>2015-02-15T08:29:10Z</time>
      </trkpt>
      <trkpt lat="48.68526" lon="-3.3106">
        <ele>97</ele>
        <time>2015-02-15T08:29:12Z</time>
      </trkpt>
      <trkpt lat="48.68523" lon="-3.31049">
        <ele>97</ele>
        <time>2015-02-15T08:29:13Z</time>
      </trkpt>
      <trkpt lat="48.68519" lon="-3.31039">
        <ele>97</ele>
        <time>2015-02-15T08:29:14Z</time>
      </trkpt>
      <trkpt lat="48.68515" lon="-3.31029">
        <ele>97</ele>
        <time>2015-02-15T08:29:15Z</time>
      </trkpt>
      <trkpt lat="48.6851" lon="-3.31019">
        <ele>97</ele>
        <time>2015-02-15T08:29:16Z</time>
      </trkpt>
      <trkpt lat="48.68505" lon="-3.3101">
        <ele>97</ele>
        <time>2015-02-15T08:29:17Z</time>
      </trkpt>
      <trkpt lat="48.68501" lon="-3.31002">
        <ele>97</ele>
        <time>2015-02-15T08:29:18Z</time>
      </trkpt>
      <trkpt lat="48.68495" lon="-3.30993">
        <ele>97</ele>
        <time>2015-02-15T08:29:19Z</time>
      </trkpt>
      <trkpt lat="48.6849" lon="-3.30985">
        <ele>97</ele>
        <time>2015-02-15T08:29:20Z</time>
      </trkpt>
      <trkpt lat="48.68485" lon="-3.30976">
        <ele>97</ele>
        <time>2015-02-15T08:29:21Z</time>
      </trkpt>
      <trkpt lat="48.6848" lon="-3.30968">
        <ele>97</ele>
        <time>2015-02-15T08:29:22Z</time>
      </trkpt>
      <trkpt lat="48.68474" lon="-3.30959">
        <ele>97</ele>
        <time>2015-02-15T08:29:23Z</time>
      </trkpt>
      <trkpt lat="48.68469" lon="-3.30951">
        <ele>97</ele>
        <time>2015-02-15T08:29:24Z</time>
      </trkpt>
      <trkpt lat="48.68464" lon="-3.30942">
        <ele>97</ele>
        <time>2015-02-15T08:29:25Z</time>
      </trkpt>
      <trkpt lat="48.68458" lon="-3.30934">
        <ele>97</ele>
        <time>2015-02-15T08:29:26Z</time>
      </trkpt>
      <trkpt lat="48.68453" lon="-3.30926">
        <ele>97</ele>
        <time>2015-02-15T08:29:27Z</time>
      </trkpt>
      <trkpt lat="48.68448" lon="-3.30917">
        <ele>97</ele>
        <time>2015-02-15T08:29:28Z</time>
      </trkpt>
      <trkpt lat="48.68443" lon="-3.30909">
        <ele>97</ele>
        <time>2015-02-15T08:29:29Z</time>
      </trkpt>
      <trkpt lat="48.68437" lon="-3.309">
        <ele>97</ele>
        <time>2015-02-15T08:29:30Z</time>
      </trkpt>
      <trkpt lat="48.68432" lon="-3.30892">
        <ele>97</ele>
        <time>2015-02-15T08:29:31Z</time>
      </trkpt>
      <trkpt lat="48.68427" lon="-3.30883">
        <ele>97</ele>
        <time>2015-02-15T08:29:32Z</time>
      </trkpt>
      <trkpt lat="48.68421" lon="-3.30875">
        <ele>97</ele>
        <time>2015-02-15T08:29:33Z</time>
      </trkpt>
      <trkpt lat="48.68416" lon="-3.30866">
        <ele>97</ele>
        <time>2015-02-15T08:29:34Z</time>
      </trkpt>
      <trkpt lat="48.68411" lon="-3.30857">
        <ele>97</ele>
        <time>2015-02-15T08:29:35Z</time>
      </trkpt>
      <trkpt lat="48.68406" lon="-3.30848">
        <ele>97</ele>
        <time>2015-02-15T08:29:36Z</time>
      </trkpt>
      <trkpt lat="48.684" lon="-3.30839">
        <ele>97</ele>
        <time>2015-02-15T08:29:37Z</time>
      </trkpt>
      <trkpt lat="48.68395" lon="-3.30829">
        <ele>97</ele>
        <time>2015-02-15T08:29:38Z</time>
      </trkpt>
      <trkpt lat="48.68391" lon="-3.30819">
        <ele>97</ele>
        <time>2015-02-15T08:29:39Z</time>
      </trkpt>
      <trkpt lat="48.68386" lon="-3.30808">
        <ele>97</ele>
        <time>2015-02-15T08:29:40Z</time>
      </trkpt>
      <trkpt lat="48.68382" lon="-3.30797">
        <ele>97</ele>
        <time>2015-02-15T08:29:41Z</time>
      </trkpt>
      <trkpt lat="48.68378" lon="-3.30785">
        <ele>97</ele>
        <time>2015-02-15T08:29:42Z</time>
      </trkpt>
      <trkpt lat="48.68373" lon="-3.30773">
        <ele>97</ele>
        <time>2015-02-15T08:29:43Z</time>
      </trkpt>
      <trkpt lat="48.6837" lon="-3.30761">
        <ele>97</ele>
        <time>2015-02-15T08:29:44Z</time>
      </trkpt>
      <trkpt lat="48.68366" lon="-3.30749">
        <ele>97</ele>
        <time>2015-02-15T08:29:45Z</time>
      </trkpt>
      <trkpt lat="48.68362" lon="-3.30737">
        <ele>97</ele>
        <time>2015-02-15T08:29:46Z</time>
      </trkpt>
      <trkpt lat="48.68359" lon="-3.30726">
        <ele>97</ele>
        <time>2015-02-15T08:29:47Z</time>
      </trkpt>
      <trkpt lat="48.68354" lon="-3.30715">
        <ele>97</ele>
        <time>2015-02-15T08:29:48Z</time>
      </trkpt>
      <trkpt lat="48.68349" lon="-3.30704">
        <ele>97</ele>
        <time>2015-02-15T08:29:49Z</time>
      </trkpt>
      <trkpt lat="48.68345" lon="-3.30693">
        <ele>97</ele>
        <time>2015-02-15T08:29:50Z</time>
      </trkpt>
      <trkpt lat="48.6834" lon="-3.30683">
        <ele>97</ele>
        <time>2015-02-15T08:29:51Z</time>
      </trkpt>
      <trkpt lat="48.68335" lon="-3.30673">
        <ele>97</ele>
        <time>2015-02-15T08:29:52Z</time>
      </trkpt>
      <trkpt lat="48.6833" lon="-3.30663">
        <ele>97</ele>
        <time>2015-02-15T08:29:52Z</time>
      </trkpt>
      <trkpt lat="48.68325" lon="-3.30653">
        <ele>97</ele>
        <time>2015-02-15T08:29:54Z</time>
      </trkpt>
      <trkpt lat="48.68319" lon="-3.30643">
        <ele>97</ele>
        <time>2015-02-15T08:29:54Z</time>
      </trkpt>
      <trkpt lat="48.68313" lon="-3.30634">
        <ele>97</ele>
        <time>2015-02-15T08:29:56Z</time>
      </trkpt>
      <trkpt lat="48.68306" lon="-3.30624">
        <ele>97</ele>
        <time>2015-02-15T08:29:57Z</time>
      </trkpt>
      <trkpt lat="48.683" lon="-3.30615">
        <ele>97</ele>
        <time>2015-02-15T08:29:57Z</time>
      </trkpt>
      <trkpt lat="48.68293" lon="-3.30606">
        <ele>97</ele>
        <time>2015-02-15T08:29:59Z</time>
      </trkpt>
      <trkpt lat="48.68286" lon="-3.30597">
        <ele>97</ele>
        <time>2015-02-15T08:30:00Z</time>
      </trkpt>
      <trkpt lat="48.68279" lon="-3.30587">
        <ele>97</ele>
        <time>2015-02-15T08:30:01Z</time>
      </trkpt>
      <trkpt lat="48.68271" lon="-3.30577">
        <ele>96</ele>
        <time>2015-02-15T08:30:01Z</time>
      </trkpt>
      <trkpt lat="48.68264" lon="-3.30568">
        <ele>96</ele>
        <time>2015-02-15T08:30:03Z</time>
      </trkpt>
      <trkpt lat="48.68257" lon="-3.30558">
        <ele>96</ele>
        <time>2015-02-15T08:30:04Z</time>
      </trkpt>
      <trkpt lat="48.68249" lon="-3.30548">
        <ele>95</ele>
        <time>2015-02-15T08:30:05Z</time>
      </trkpt>
      <trkpt lat="48.68242" lon="-3.30538">
        <ele>95</ele>
        <time>2015-02-15T08:30:05Z</time>
      </trkpt>
      <trkpt lat="48.68234" lon="-3.30528">
        <ele>95</ele>
        <time>2015-02-15T08:30:06Z</time>
      </trkpt>
      <trkpt lat="48.68227" lon="-3.30517">
        <ele>94</ele>
        <time>2015-02-15T08:30:07Z</time>
      </trkpt>
      <trkpt lat="48.6822" lon="-3.30506">
        <ele>94</ele>
        <time>2015-02-15T08:30:08Z</time>
      </trkpt>
      <trkpt lat="48.68212" lon="-3.30495">
        <ele>94</ele>
        <time>2015-02-15T08:30:09Z</time>
      </trkpt>
      <trkpt lat="48.68205" lon="-3.30484">
        <ele>93</ele>
        <time>2015-02-15T08:30:10Z</time>
      </trkpt>
      <trkpt lat="48.68198" lon="-3.30473">
        <ele>93</ele>
        <time>2015-02-15T08:30:11Z</time>
      </trkpt>
      <trkpt lat="48.6819" lon="-3.30462">
        <ele>93</ele>
        <time>2015-02-15T08:30:12Z</time>
      </trkpt>
      <trkpt lat="48.68183" lon="-3.30452">
        <ele>93</ele>
        <time>2015-02-15T08:30:13Z</time>
      </trkpt>
      <trkpt lat="48.68175" lon="-3.30442">
        <ele>92</ele>
        <time>2015-02-15T08:30:15Z</time>
      </trkpt>
      <trkpt lat="48.68167" lon="-3.30433">
        <ele>92</ele>
        <time>2015-02-15T08:30:16Z</time>
      </trkpt>
      <trkpt lat="48.68159" lon="-3.30424">
        <ele>92</ele>
        <time>2015-02-15T08:30:17Z</time>
      </trkpt>
      <trkpt lat="48.68152" lon="-3.30414">
        <ele>92</ele>
        <time>2015-02-15T08:30:17Z</time>
      </trkpt>
      <trkpt lat="48.68144" lon="-3.30405">
        <ele>92</ele>
        <time>2015-02-15T08:30:19Z</time>
      </trkpt>
      <trkpt lat="48.68136" lon="-3.30396">
        <ele>91</ele>
        <time>2015-02-15T08:30:20Z</time>
      </trkpt>
      <trkpt lat="48.68129" lon="-3.30387">
        <ele>91</ele>
        <time>2015-02-15T08:30:21Z</time>
      </trkpt>
      <trkpt lat="48.68121" lon="-3.30377">
        <ele>91</ele>
        <time>2015-02-15T08:30:21Z</time>
      </trkpt>
      <trkpt lat="48.68114" lon="-3.30368">
        <ele>91</ele>
        <time>2015-02-15T08:30:23Z</time>
      </trkpt>
      <trkpt lat="48.68106" lon="-3.30359">
        <ele>91</ele>
        <time>2015-02-15T08:30:24Z</time>
      </trkpt>
      <trkpt lat="48.68099" lon="-3.3035">
        <ele>91</ele>
        <time>2015-02-15T08:30:25Z</time>
      </trkpt>
      <trkpt lat="48.68092" lon="-3.30341">
        <ele>90</ele>
        <time>2015-02-15T08:30:25Z</time>
      </trkpt>
      <trkpt lat="48.68084" lon="-3.30331">
        <ele>90</ele>
        <time>2015-02-15T08:30:27Z</time>
      </trkpt>
      <trkpt lat="48.68076" lon="-3.30322">
        <ele>90</ele>
        <time>2015-02-15T08:30:28Z</time>
      </trkpt>
      <trkpt lat="48.68069" lon="-3.30313">
        <ele>90</ele>
        <time>2015-02-15T08:30:29Z</time>
      </trkpt>
      <trkpt lat="48.68061" lon="-3.30303">
        <ele>90</ele>
        <time>2015-02-15T08:30:29Z</time>
      </trkpt>
      <trkpt lat="48.68054" lon="-3.30293">
        <ele>89</ele>
        <time>2015-02-15T08:30:31Z</time>
      </trkpt>
      <trkpt lat="48.68047" lon="-3.30283">
        <ele>89</ele>
        <time>2015-02-15T08:30:32Z</time>
      </trkpt>
      <trkpt lat="48.6804" lon="-3.30273">
        <ele>89</ele>
        <time>2015-02-15T08:30:33Z</time>
      </trkpt>
      <trkpt lat="48.68034" lon="-3.30262">
        <ele>89</ele>
        <time>2015-02-15T08:30:33Z</time>
      </trkpt>
      <trkpt lat="48.68028" lon="-3.30251">
        <ele>89</ele>
        <time>2015-02-15T08:30:34Z</time>
      </trkpt>
      <trkpt lat="48.68021" lon="-3.3024">
        <ele>89</ele>
        <time>2015-02-15T08:30:36Z</time>
      </trkpt>
      <trkpt lat="48.68015" lon="-3.30229">
        <ele>89</ele>
        <time>2015-02-15T08:30:37Z</time>
      </trkpt>
      <trkpt lat="48.68009" lon="-3.30217">
        <ele>89</ele>
        <time>2015-02-15T08:30:37Z</time>
      </trkpt>
      <trkpt lat="48.68003" lon="-3.30206">
        <ele>88</ele>
        <time>2015-02-15T08:30:39Z</time>
      </trkpt>
      <trkpt lat="48.67997" lon="-3.30195">
        <ele>88</ele>
        <time>2015-02-15T08:30:39Z</time>
      </trkpt>
      <trkpt lat="48.6799" lon="-3.30184">
        <ele>88</ele>
        <time>2015-02-15T08:30:40Z</time>
      </trkpt>
      <trkpt lat="48.67984" lon="-3.30173">
        <ele>88</ele>
        <time>2015-02-15T08:30:42Z</time>
      </trkpt>
      <trkpt lat="48.67978" lon="-3.30162">
        <ele>88</ele>
        <time>2015-02-15T08:30:43Z</time>
      </trkpt>
      <trkpt lat="48.67972" lon="-3.30151">
        <ele>88</ele>
        <time>2015-02-15T08:30:44Z</time>
      </trkpt>
      <trkpt lat="48.67966" lon="-3.3014">
        <ele>88</ele>
        <time>2015-02-15T08:30:45Z</time>
      </trkpt>
      <trkpt lat="48.6796" lon="-3.3013">
        <ele>88</ele>
        <time>2015-02-15T08:30:46Z</time>
      </trkpt>
      <trkpt lat="48.67953" lon="-3.30118">
        <ele>87</ele>
        <time>2015-02-15T08:30:47Z</time>
      </trkpt>
      <trkpt lat="48.67947" lon="-3.30107">
        <ele>87</ele>
        <time>2015-02-15T08:30:47Z</time>
      </trkpt>
      <trkpt lat="48.67941" lon="-3.30095">
        <ele>87</ele>
        <time>2015-02-15T08:30:48Z</time>
      </trkpt>
      <trkpt lat="48.67934" lon="-3.30083">
        <ele>86</ele>
        <time>2015-02-15T08:30:49Z</time>
      </trkpt>
      <trkpt lat="48.67927" lon="-3.3007">
        <ele>85</ele>
        <time>2015-02-15T08:30:50Z</time>
      </trkpt>
      <trkpt lat="48.67921" lon="-3.30058">
        <ele>85</ele>
        <time>2015-02-15T08:30:51Z</time>
      </trkpt>
      <trkpt lat="48.67914" lon="-3.30045">
        <ele>84</ele>
        <time>2015-02-15T08:30:52Z</time>
      </trkpt>
      <trkpt lat="48.67907" lon="-3.30032">
        <ele>84</ele>
        <time>2015-02-15T08:30:53Z</time>
      </trkpt>
      <trkpt lat="48.67901" lon="-3.3002">
        <ele>84</ele>
        <time>2015-02-15T08:30:54Z</time>
      </trkpt>
      <trkpt lat="48.67895" lon="-3.30008">
        <ele>84</ele>
        <time>2015-02-15T08:30:56Z</time>
      </trkpt>
      <trkpt lat="48.67889" lon="-3.29997">
        <ele>84</ele>
        <time>2015-02-15T08:30:57Z</time>
      </trkpt>
      <trkpt lat="48.67883" lon="-3.29987">
        <ele>84</ele>
        <time>2015-02-15T08:30:57Z</time>
      </trkpt>
      <trkpt lat="48.67876" lon="-3.29977">
        <ele>84</ele>
        <time>2015-02-15T08:30:58Z</time>
      </trkpt>
      <trkpt lat="48.6787" lon="-3.29969">
        <ele>84</ele>
        <time>2015-02-15T08:30:59Z</time>
      </trkpt>
      <trkpt lat="48.67863" lon="-3.29961">
        <ele>84</ele>
        <time>2015-02-15T08:31:00Z</time>
      </trkpt>
      <trkpt lat="48.67857" lon="-3.29955">
        <ele>84</ele>
        <time>2015-02-15T08:31:02Z</time>
      </trkpt>
      <trkpt lat="48.67851" lon="-3.29947">
        <ele>84</ele>
        <time>2015-02-15T08:31:03Z</time>
      </trkpt>
      <trkpt lat="48.67845" lon="-3.2994">
        <ele>84</ele>
        <time>2015-02-15T08:31:04Z</time>
      </trkpt>
      <trkpt lat="48.6784" lon="-3.29932">
        <ele>84</ele>
        <time>2015-02-15T08:31:05Z</time>
      </trkpt>
      <trkpt lat="48.67835" lon="-3.29925">
        <ele>84</ele>
        <time>2015-02-15T08:31:05Z</time>
      </trkpt>
      <trkpt lat="48.67829" lon="-3.29917">
        <ele>84</ele>
        <time>2015-02-15T08:31:07Z</time>
      </trkpt>
      <trkpt lat="48.67824" lon="-3.29909">
        <ele>84</ele>
        <time>2015-02-15T08:31:08Z</time>
      </trkpt>
      <trkpt lat="48.67818" lon="-3.29902">
        <ele>84</ele>
        <time>2015-02-15T08:31:09Z</time>
      </trkpt>
      <trkpt lat="48.67813" lon="-3.29895">
        <ele>84</ele>
        <time>2015-02-15T08:31:09Z</time>
      </trkpt>
      <trkpt lat="48.67807" lon="-3.29888">
        <ele>84</ele>
        <time>2015-02-15T08:31:10Z</time>
      </trkpt>
      <trkpt lat="48.67801" lon="-3.29881">
        <ele>84</ele>
        <time>2015-02-15T08:31:12Z</time>
      </trkpt>
      <trkpt lat="48.67795" lon="-3.29874">
        <ele>84</ele>
        <time>2015-02-15T08:31:13Z</time>
      </trkpt>
      <trkpt lat="48.67789" lon="-3.29868">
        <ele>84</ele>
        <time>2015-02-15T08:31:13Z</time>
      </trkpt>
      <trkpt lat="48.67783" lon="-3.29862">
        <ele>84</ele>
        <time>2015-02-15T08:31:15Z</time>
      </trkpt>
      <trkpt lat="48.67777" lon="-3.29855">
        <ele>84</ele>
        <time>2015-02-15T08:31:15Z</time>
      </trkpt>
      <trkpt lat="48.67771" lon="-3.29849">
        <ele>84</ele>
        <time>2015-02-15T08:31:17Z</time>
      </trkpt>
      <trkpt lat="48.67765" lon="-3.29842">
        <ele>84</ele>
        <time>2015-02-15T08:31:17Z</time>
      </trkpt>
      <trkpt lat="48.67759" lon="-3.29836">
        <ele>84</ele>
        <time>2015-02-15T08:31:18Z</time>
      </trkpt>
      <trkpt lat="48.67752" lon="-3.29829">
        <ele>84</ele>
        <time>2015-02-15T08:31:20Z</time>
      </trkpt>
      <trkpt lat="48.67747" lon="-3.29823">
        <ele>84</ele>
        <time>2015-02-15T08:31:20Z</time>
      </trkpt>
      <trkpt lat="48.67741" lon="-3.29817">
        <ele>84</ele>
        <time>2015-02-15T08:31:22Z</time>
      </trkpt>
      <trkpt lat="48.67736" lon="-3.29811">
        <ele>84</ele>
        <time>2015-02-15T08:31:22Z</time>
      </trkpt>
      <trkpt lat="48.67731" lon="-3.29803">
        <ele>84</ele>
        <time>2015-02-15T08:31:24Z</time>
      </trkpt>
      <trkpt lat="48.67728" lon="-3.29796">
        <ele>84</ele>
        <time>2015-02-15T08:31:24Z</time>
      </trkpt>
      <trkpt lat="48.67725" lon="-3.29788">
        <ele>84</ele>
        <time>2015-02-15T08:31:25Z</time>
      </trkpt>
      <trkpt lat="48.67723" lon="-3.29779">
        <ele>84</ele>
        <time>2015-02-15T08:31:27Z</time>
      </trkpt>
      <trkpt lat="48.67721" lon="-3.2977">
        <ele>84</ele>
        <time>2015-02-15T08:31:28Z</time>
      </trkpt>
      <trkpt lat="48.6772" lon="-3.29761">
        <ele>84</ele>
        <time>2015-02-15T08:31:29Z</time>
      </trkpt>
      <trkpt lat="48.67718" lon="-3.29752">
        <ele>84</ele>
        <time>2015-02-15T08:31:29Z</time>
      </trkpt>
      <trkpt lat="48.67715" lon="-3.29743">
        <ele>84</ele>
        <time>2015-02-15T08:31:31Z</time>
      </trkpt>
      <trkpt lat="48.67712" lon="-3.29735">
        <ele>84</ele>
        <time>2015-02-15T08:31:31Z</time>
      </trkpt>
      <trkpt lat="48.67708" lon="-3.29728">
        <ele>84</ele>
        <time>2015-02-15T08:31:33Z</time>
      </trkpt>
      <trkpt lat="48.67704" lon="-3.2972">
        <ele>84</ele>
        <time>2015-02-15T08:31:33Z</time>
      </trkpt>
      <trkpt lat="48.67699" lon="-3.29713">
        <ele>84</ele>
        <time>2015-02-15T08:31:34Z</time>
      </trkpt>
      <trkpt lat="48.67694" lon="-3.29707">
        <ele>84</ele>
        <time>2015-02-15T08:31:36Z</time>
      </trkpt>
      <trkpt lat="48.67689" lon="-3.29702">
        <ele>84</ele>
        <time>2015-02-15T08:31:37Z</time>
      </trkpt>
      <trkpt lat="48.67683" lon="-3.29697">
        <ele>84</ele>
        <time>2015-02-15T08:31:38Z</time>
      </trkpt>
      <trkpt lat="48.67677" lon="-3.29693">
        <ele>84</ele>
        <time>2015-02-15T08:31:38Z</time>
      </trkpt>
      <trkpt lat="48.67671" lon="-3.29689">
        <ele>84</ele>
        <time>2015-02-15T08:31:39Z</time>
      </trkpt>
      <trkpt lat="48.67665" lon="-3.29685">
        <ele>84</ele>
        <time>2015-02-15T08:31:40Z</time>
      </trkpt>
      <trkpt lat="48.67659" lon="-3.29681">
        <ele>84</ele>
        <time>2015-02-15T08:31:41Z</time>
      </trkpt>
      <trkpt lat="48.67653" lon="-3.29677">
        <ele>84</ele>
        <time>2015-02-15T08:31:43Z</time>
      </trkpt>
      <trkpt lat="48.67647" lon="-3.29673">
        <ele>84</ele>
        <time>2015-02-15T08:31:43Z</time>
      </trkpt>
      <trkpt lat="48.67641" lon="-3.29669">
        <ele>84</ele>
        <time>2015-02-15T08:31:44Z</time>
      </trkpt>
      <trkpt lat="48.67635" lon="-3.29665">
        <ele>84</ele>
        <time>2015-02-15T08:31:45Z</time>
      </trkpt>
      <trkpt lat="48.67628" lon="-3.29662">
        <ele>84</ele>
        <time>2015-02-15T08:31:46Z</time>
      </trkpt>
      <trkpt lat="48.67622" lon="-3.29658">
        <ele>84</ele>
        <time>2015-02-15T08:31:48Z</time>
      </trkpt>
      <trkpt lat="48.67617" lon="-3.29654">
        <ele>84</ele>
        <time>2015-02-15T08:31:48Z</time>
      </trkpt>
      <trkpt lat="48.67612" lon="-3.29651">
        <ele>84</ele>
        <time>2015-02-15T08:31:49Z</time>
      </trkpt>
      <trkpt lat="48.67607" lon="-3.29647">
        <ele>84</ele>
        <time>2015-02-15T08:31:50Z</time>
      </trkpt>
      <trkpt lat="48.67601" lon="-3.29645">
        <ele>84</ele>
        <time>2015-02-15T08:31:51Z</time>
      </trkpt>
      <trkpt lat="48.67596" lon="-3.29641">
        <ele>83</ele>
        <time>2015-02-15T08:31:53Z</time>
      </trkpt>
      <trkpt lat="48.67591" lon="-3.29638">
        <ele>83</ele>
        <time>2015-02-15T08:31:53Z</time>
      </trkpt>
      <trkpt lat="48.67586" lon="-3.29634">
        <ele>83</ele>
        <time>2015-02-15T08:31:54Z</time>
      </trkpt>
      <trkpt lat="48.67582" lon="-3.2963">
        <ele>83</ele>
        <time>2015-02-15T08:31:55Z</time>
      </trkpt>
      <trkpt lat="48.67577" lon="-3.29626">
        <ele>83</ele>
        <time>2015-02-15T08:31:56Z</time>
      </trkpt>
      <trkpt lat="48.67574" lon="-3.2962">
        <ele>83</ele>
        <time>2015-02-15T08:31:57Z</time>
      </trkpt>
      <trkpt lat="48.6757" lon="-3.29613">
        <ele>83</ele>
        <time>2015-02-15T08:31:59Z</time>
      </trkpt>
      <trkpt lat="48.67567" lon="-3.29605">
        <ele>83</ele>
        <time>2015-02-15T08:31:59Z</time>
      </trkpt>
      <trkpt lat="48.67564" lon="-3.29595">
        <ele>83</ele>
        <time>2015-02-15T08:32:00Z</time>
      </trkpt>
      <trkpt lat="48.67561" lon="-3.29586">
        <ele>83</ele>
        <time>2015-02-15T08:32:01Z</time>
      </trkpt>
      <trkpt lat="48.67558" lon="-3.29576">
        <ele>83</ele>
        <time>2015-02-15T08:32:02Z</time>
      </trkpt>
      <trkpt lat="48.67555" lon="-3.29565">
        <ele>83</ele>
        <time>2015-02-15T08:32:04Z</time>
      </trkpt>
      <trkpt lat="48.67552" lon="-3.29555">
        <ele>82</ele>
        <time>2015-02-15T08:32:04Z</time>
      </trkpt>
      <trkpt lat="48.6755" lon="-3.29544">
        <ele>82</ele>
        <time>2015-02-15T08:32:05Z</time>
      </trkpt>
      <trkpt lat="48.67547" lon="-3.29533">
        <ele>82</ele>
        <time>2015-02-15T08:32:06Z</time>
      </trkpt>
      <trkpt lat="48.67544" lon="-3.29522">
        <ele>82</ele>
        <time>2015-02-15T08:32:08Z</time>
      </trkpt>
      <trkpt lat="48.6754" lon="-3.29512">
        <ele>82</ele>
        <time>2015-02-15T08:32:09Z</time>
      </trkpt>
      <trkpt lat="48.67537" lon="-3.29501">
        <ele>82</ele>
        <time>2015-02-15T08:32:10Z</time>
      </trkpt>
      <trkpt lat="48.67533" lon="-3.2949">
        <ele>82</ele>
        <time>2015-02-15T08:32:10Z</time>
      </trkpt>
      <trkpt lat="48.67529" lon="-3.2948">
        <ele>82</ele>
        <time>2015-02-15T08:32:12Z</time>
      </trkpt>
      <trkpt lat="48.67525" lon="-3.29469">
        <ele>82</ele>
        <time>2015-02-15T08:32:12Z</time>
      </trkpt>
      <trkpt lat="48.67522" lon="-3.29458">
        <ele>82</ele>
        <time>2015-02-15T08:32:13Z</time>
      </trkpt>
      <trkpt lat="48.67518" lon="-3.29447">
        <ele>82</ele>
        <time>2015-02-15T08:32:15Z</time>
      </trkpt>
      <trkpt lat="48.67514" lon="-3.29437">
        <ele>82</ele>
        <time>2015-02-15T08:32:15Z</time>
      </trkpt>
      <trkpt lat="48.6751" lon="-3.29427">
        <ele>82</ele>
        <time>2015-02-15T08:32:17Z</time>
      </trkpt>
      <trkpt lat="48.67506" lon="-3.29417">
        <ele>82</ele>
        <time>2015-02-15T08:32:17Z</time>
      </trkpt>
      <trkpt lat="48.67501" lon="-3.29407">
        <ele>82</ele>
        <time>2015-02-15T08:32:18Z</time>
      </trkpt>
      <trkpt lat="48.67497" lon="-3.29398">
        <ele>82</ele>
        <time>2015-02-15T08:32:19Z</time>
      </trkpt>
      <trkpt lat="48.67493" lon="-3.29388">
        <ele>81</ele>
        <time>2015-02-15T08:32:21Z</time>
      </trkpt>
      <trkpt lat="48.6749" lon="-3.29378">
        <ele>81</ele>
        <time>2015-02-15T08:32:21Z</time>
      </trkpt>
      <trkpt lat="48.67487" lon="-3.29367">
        <ele>81</ele>
        <time>2015-02-15T08:32:23Z</time>
      </trkpt>
      <trkpt lat="48.67485" lon="-3.29355">
        <ele>81</ele>
        <time>2015-02-15T08:32:23Z</time>
      </trkpt>
      <trkpt lat="48.67483" lon="-3.29343">
        <ele>80</ele>
        <time>2015-02-15T08:32:24Z</time>
      </trkpt>
      <trkpt lat="48.67482" lon="-3.2933">
        <ele>80</ele>
        <time>2015-02-15T08:32:26Z</time>
      </trkpt>
      <trkpt lat="48.67481" lon="-3.29318">
        <ele>79</ele>
        <time>2015-02-15T08:32:27Z</time>
      </trkpt>
      <trkpt lat="48.67482" lon="-3.29297">
        <ele>78</ele>
        <time>2015-02-15T08:32:29Z</time>
      </trkpt>
      <trkpt lat="48.67482" lon="-3.29288">
        <ele>78</ele>
        <time>2015-02-15T08:32:29Z</time>
      </trkpt>
      <trkpt lat="48.67482" lon="-3.29279">
        <ele>78</ele>
        <time>2015-02-15T08:32:31Z</time>
      </trkpt>
      <trkpt lat="48.67483" lon="-3.29271">
        <ele>77</ele>
        <time>2015-02-15T08:32:31Z</time>
      </trkpt>
      <trkpt lat="48.67484" lon="-3.29261">
        <ele>77</ele>
        <time>2015-02-15T08:32:33Z</time>
      </trkpt>
      <trkpt lat="48.67482" lon="-3.29241">
        <ele>76</ele>
        <time>2015-02-15T08:32:35Z</time>
      </trkpt>
      <trkpt lat="48.6748" lon="-3.29231">
        <ele>75</ele>
        <time>2015-02-15T08:32:36Z</time>
      </trkpt>
      <trkpt lat="48.67477" lon="-3.29221">
        <ele>75</ele>
        <time>2015-02-15T08:32:36Z</time>
      </trkpt>
      <trkpt lat="48.67471" lon="-3.29212">
        <ele>74</ele>
        <time>2015-02-15T08:32:37Z</time>
      </trkpt>
      <trkpt lat="48.67465" lon="-3.29204">
        <ele>74</ele>
        <time>2015-02-15T08:32:38Z</time>
      </trkpt>
      <trkpt lat="48.67457" lon="-3.29197">
        <ele>73</ele>
        <time>2015-02-15T08:32:39Z</time>
      </trkpt>
      <trkpt lat="48.6745" lon="-3.29191">
        <ele>73</ele>
        <time>2015-02-15T08:32:41Z</time>
      </trkpt>
      <trkpt lat="48.67441" lon="-3.29185">
        <ele>73</ele>
        <time>2015-02-15T08:32:41Z</time>
      </trkpt>
      <trkpt lat="48.67433" lon="-3.29179">
        <ele>72</ele>
        <time>2015-02-15T08:32:42Z</time>
      </trkpt>
      <trkpt lat="48.67425" lon="-3.29173">
        <ele>72</ele>
        <time>2015-02-15T08:32:43Z</time>
      </trkpt>
      <trkpt lat="48.67417" lon="-3.29167">
        <ele>72</ele>
        <time>2015-02-15T08:32:44Z</time>
      </trkpt>
      <trkpt lat="48.6741" lon="-3.2916">
        <ele>71</ele>
        <time>2015-02-15T08:32:46Z</time>
      </trkpt>
      <trkpt lat="48.67402" lon="-3.29151">
        <ele>71</ele>
        <time>2015-02-15T08:32:46Z</time>
      </trkpt>
      <trkpt lat="48.67396" lon="-3.29142">
        <ele>71</ele>
        <time>2015-02-15T08:32:47Z</time>
      </trkpt>
      <trkpt lat="48.6739" lon="-3.29133">
        <ele>70</ele>
        <time>2015-02-15T08:32:48Z</time>
      </trkpt>
      <trkpt lat="48.67383" lon="-3.29123">
        <ele>70</ele>
        <time>2015-02-15T08:32:49Z</time>
      </trkpt>
      <trkpt lat="48.67377" lon="-3.29113">
        <ele>70</ele>
        <time>2015-02-15T08:32:51Z</time>
      </trkpt>
      <trkpt lat="48.67371" lon="-3.29103">
        <ele>69</ele>
        <time>2015-02-15T08:32:51Z</time>
      </trkpt>
      <trkpt lat="48.67366" lon="-3.29093">
        <ele>68</ele>
        <time>2015-02-15T08:32:52Z</time>
      </trkpt>
      <trkpt lat="48.6736" lon="-3.29082">
        <ele>68</ele>
        <time>2015-02-15T08:32:53Z</time>
      </trkpt>
      <trkpt lat="48.67355" lon="-3.2907">
        <ele>67</ele>
        <time>2015-02-15T08:32:54Z</time>
      </trkpt>
      <trkpt lat="48.67348" lon="-3.29058">
        <ele>67</ele>
        <time>2015-02-15T08:32:56Z</time>
      </trkpt>
      <trkpt lat="48.67342" lon="-3.29046">
        <ele>67</ele>
        <time>2015-02-15T08:32:56Z</time>
      </trkpt>
      <trkpt lat="48.67336" lon="-3.29034">
        <ele>66</ele>
        <time>2015-02-15T08:32:57Z</time>
      </trkpt>
      <trkpt lat="48.67329" lon="-3.29023">
        <ele>66</ele>
        <time>2015-02-15T08:32:58Z</time>
      </trkpt>
      <trkpt lat="48.67322" lon="-3.29012">
        <ele>66</ele>
        <time>2015-02-15T08:32:59Z</time>
      </trkpt>
      <trkpt lat="48.67315" lon="-3.29001">
        <ele>66</ele>
        <time>2015-02-15T08:33:01Z</time>
      </trkpt>
      <trkpt lat="48.67307" lon="-3.28991">
        <ele>66</ele>
        <time>2015-02-15T08:33:01Z</time>
      </trkpt>
      <trkpt lat="48.673" lon="-3.28981">
        <ele>66</ele>
        <time>2015-02-15T08:33:02Z</time>
      </trkpt>
      <trkpt lat="48.67293" lon="-3.28971">
        <ele>66</ele>
        <time>2015-02-15T08:33:03Z</time>
      </trkpt>
      <trkpt lat="48.67286" lon="-3.28961">
        <ele>66</ele>
        <time>2015-02-15T08:33:04Z</time>
      </trkpt>
      <trkpt lat="48.67278" lon="-3.28952">
        <ele>65</ele>
        <time>2015-02-15T08:33:06Z</time>
      </trkpt>
      <trkpt lat="48.67271" lon="-3.28943">
        <ele>65</ele>
        <time>2015-02-15T08:33:06Z</time>
      </trkpt>
      <trkpt lat="48.67263" lon="-3.28935">
        <ele>65</ele>
        <time>2015-02-15T08:33:07Z</time>
      </trkpt>
      <trkpt lat="48.67255" lon="-3.28927">
        <ele>65</ele>
        <time>2015-02-15T08:33:08Z</time>
      </trkpt>
      <trkpt lat="48.67247" lon="-3.28919">
        <ele>65</ele>
        <time>2015-02-15T08:33:09Z</time>
      </trkpt>
      <trkpt lat="48.67239" lon="-3.28912">
        <ele>65</ele>
        <time>2015-02-15T08:33:11Z</time>
      </trkpt>
      <trkpt lat="48.67231" lon="-3.28905">
        <ele>65</ele>
        <time>2015-02-15T08:33:11Z</time>
      </trkpt>
      <trkpt lat="48.67222" lon="-3.28898">
        <ele>65</ele>
        <time>2015-02-15T08:33:12Z</time>
      </trkpt>
      <trkpt lat="48.67214" lon="-3.28891">
        <ele>65</ele>
        <time>2015-02-15T08:33:13Z</time>
      </trkpt>
      <trkpt lat="48.67205" lon="-3.28884">
        <ele>65</ele>
        <time>2015-02-15T08:33:14Z</time>
      </trkpt>
      <trkpt lat="48.67197" lon="-3.28878">
        <ele>65</ele>
        <time>2015-02-15T08:33:16Z</time>
      </trkpt>
      <trkpt lat="48.67188" lon="-3.28872">
        <ele>65</ele>
        <time>2015-02-15T08:33:16Z</time>
      </trkpt>
      <trkpt lat="48.6718" lon="-3.28866">
        <ele>65</ele>
        <time>2015-02-15T08:33:17Z</time>
      </trkpt>
      <trkpt lat="48.67171" lon="-3.28861">
        <ele>65</ele>
        <time>2015-02-15T08:33:18Z</time>
      </trkpt>
      <trkpt lat="48.67163" lon="-3.28857">
        <ele>65</ele>
        <time>2015-02-15T08:33:19Z</time>
      </trkpt>
      <trkpt lat="48.67155" lon="-3.28854">
        <ele>65</ele>
        <time>2015-02-15T08:33:21Z</time>
      </trkpt>
      <trkpt lat="48.67146" lon="-3.28853">
        <ele>65</ele>
        <time>2015-02-15T08:33:21Z</time>
      </trkpt>
      <trkpt lat="48.67138" lon="-3.28854">
        <ele>65</ele>
        <time>2015-02-15T08:33:22Z</time>
      </trkpt>
      <trkpt lat="48.6713" lon="-3.28857">
        <ele>65</ele>
        <time>2015-02-15T08:33:23Z</time>
      </trkpt>
      <trkpt lat="48.67123" lon="-3.28864">
        <ele>65</ele>
        <time>2015-02-15T08:33:24Z</time>
      </trkpt>
      <trkpt lat="48.67117" lon="-3.28871">
        <ele>65</ele>
        <time>2015-02-15T08:33:26Z</time>
      </trkpt>
      <trkpt lat="48.6711" lon="-3.28878">
        <ele>65</ele>
        <time>2015-02-15T08:33:26Z</time>
      </trkpt>
      <trkpt lat="48.67103" lon="-3.28886">
        <ele>65</ele>
        <time>2015-02-15T08:33:27Z</time>
      </trkpt>
      <trkpt lat="48.67096" lon="-3.28894">
        <ele>65</ele>
        <time>2015-02-15T08:33:28Z</time>
      </trkpt>
      <trkpt lat="48.6709" lon="-3.28902">
        <ele>65</ele>
        <time>2015-02-15T08:33:29Z</time>
      </trkpt>
      <trkpt lat="48.67083" lon="-3.2891">
        <ele>65</ele>
        <time>2015-02-15T08:33:31Z</time>
      </trkpt>
      <trkpt lat="48.67077" lon="-3.28918">
        <ele>65</ele>
        <time>2015-02-15T08:33:31Z</time>
      </trkpt>
      <trkpt lat="48.6707" lon="-3.28925">
        <ele>65</ele>
        <time>2015-02-15T08:33:32Z</time>
      </trkpt>
      <trkpt lat="48.67064" lon="-3.28932">
        <ele>65</ele>
        <time>2015-02-15T08:33:33Z</time>
      </trkpt>
      <trkpt lat="48.67057" lon="-3.28938">
        <ele>65</ele>
        <time>2015-02-15T08:33:34Z</time>
      </trkpt>
      <trkpt lat="48.67051" lon="-3.28944">
        <ele>65</ele>
        <time>2015-02-15T08:33:36Z</time>
      </trkpt>
      <trkpt lat="48.67045" lon="-3.28949">
        <ele>65</ele>
        <time>2015-02-15T08:33:36Z</time>
      </trkpt>
      <trkpt lat="48.67038" lon="-3.28954">
        <ele>65</ele>
        <time>2015-02-15T08:33:37Z</time>
      </trkpt>
      <trkpt lat="48.67033" lon="-3.28959">
        <ele>65</ele>
        <time>2015-02-15T08:33:38Z</time>
      </trkpt>
      <trkpt lat="48.67027" lon="-3.28963">
        <ele>65</ele>
        <time>2015-02-15T08:33:39Z</time>
      </trkpt>
      <trkpt lat="48.67022" lon="-3.28967">
        <ele>65</ele>
        <time>2015-02-15T08:33:41Z</time>
      </trkpt>
      <trkpt lat="48.67017" lon="-3.28971">
        <ele>65</ele>
        <time>2015-02-15T08:33:41Z</time>
      </trkpt>
      <trkpt lat="48.67012" lon="-3.28975">
        <ele>66</ele>
        <time>2015-02-15T08:33:42Z</time>
      </trkpt>
      <trkpt lat="48.67007" lon="-3.28978">
        <ele>66</ele>
        <time>2015-02-15T08:33:43Z</time>
      </trkpt>
      <trkpt lat="48.67001" lon="-3.28981">
        <ele>66</ele>
        <time>2015-02-15T08:33:44Z</time>
      </trkpt>
      <trkpt lat="48.66996" lon="-3.28984">
        <ele>66</ele>
        <time>2015-02-15T08:33:46Z</time>
      </trkpt>
      <trkpt lat="48.66991" lon="-3.28986">
        <ele>67</ele>
        <time>2015-02-15T08:33:46Z</time>
      </trkpt>
      <trkpt lat="48.66985" lon="-3.28989">
        <ele>67</ele>
        <time>2015-02-15T08:33:47Z</time>
      </trkpt>
      <trkpt lat="48.6698" lon="-3.28991">
        <ele>67</ele>
        <time>2015-02-15T08:33:48Z</time>
      </trkpt>
      <trkpt lat="48.66975" lon="-3.28993">
        <ele>67</ele>
        <time>2015-02-15T08:33:49Z</time>
      </trkpt>
      <trkpt lat="48.66969" lon="-3.28994">
        <ele>67</ele>
        <time>2015-02-15T08:33:51Z</time>
      </trkpt>
      <trkpt lat="48.66963" lon="-3.28995">
        <ele>67</ele>
        <time>2015-02-15T08:33:51Z</time>
      </trkpt>
      <trkpt lat="48.66957" lon="-3.28996">
        <ele>67</ele>
        <time>2015-02-15T08:33:52Z</time>
      </trkpt>
      <trkpt lat="48.66946" lon="-3.28995">
        <ele>67</ele>
        <time>2015-02-15T08:33:54Z</time>
      </trkpt>
      <trkpt lat="48.66941" lon="-3.28995">
        <ele>68</ele>
        <time>2015-02-15T08:33:55Z</time>
      </trkpt>
      <trkpt lat="48.66935" lon="-3.28994">
        <ele>68</ele>
        <time>2015-02-15T08:33:57Z</time>
      </trkpt>
      <trkpt lat="48.6693" lon="-3.28993">
        <ele>68</ele>
        <time>2015-02-15T08:33:57Z</time>
      </trkpt>
      <trkpt lat="48.66924" lon="-3.28991">
        <ele>68</ele>
        <time>2015-02-15T08:33:58Z</time>
      </trkpt>
      <trkpt lat="48.66919" lon="-3.28989">
        <ele>68</ele>
        <time>2015-02-15T08:33:59Z</time>
      </trkpt>
      <trkpt lat="48.66913" lon="-3.28987">
        <ele>68</ele>
        <time>2015-02-15T08:34:00Z</time>
      </trkpt>
      <trkpt lat="48.66907" lon="-3.28985">
        <ele>68</ele>
        <time>2015-02-15T08:34:01Z</time>
      </trkpt>
      <trkpt lat="48.66902" lon="-3.28983">
        <ele>68</ele>
        <time>2015-02-15T08:34:02Z</time>
      </trkpt>
      <trkpt lat="48.66896" lon="-3.28981">
        <ele>69</ele>
        <time>2015-02-15T08:34:03Z</time>
      </trkpt>
      <trkpt lat="48.6689" lon="-3.28979">
        <ele>69</ele>
        <time>2015-02-15T08:34:04Z</time>
      </trkpt>
      <trkpt lat="48.66884" lon="-3.28977">
        <ele>69</ele>
        <time>2015-02-15T08:34:05Z</time>
      </trkpt>
      <trkpt lat="48.66878" lon="-3.28976">
        <ele>69</ele>
        <time>2015-02-15T08:34:07Z</time>
      </trkpt>
      <trkpt lat="48.66872" lon="-3.28974">
        <ele>69</ele>
        <time>2015-02-15T08:34:07Z</time>
      </trkpt>
      <trkpt lat="48.66866" lon="-3.28972">
        <ele>69</ele>
        <time>2015-02-15T08:34:08Z</time>
      </trkpt>
      <trkpt lat="48.6686" lon="-3.28971">
        <ele>69</ele>
        <time>2015-02-15T08:34:09Z</time>
      </trkpt>
      <trkpt lat="48.66854" lon="-3.28969">
        <ele>69</ele>
        <time>2015-02-15T08:34:10Z</time>
      </trkpt>
      <trkpt lat="48.66848" lon="-3.28968">
        <ele>69</ele>
        <time>2015-02-15T08:34:12Z</time>
      </trkpt>
      <trkpt lat="48.66841" lon="-3.28966">
        <ele>69</ele>
        <time>2015-02-15T08:34:12Z</time>
      </trkpt>
      <trkpt lat="48.66835" lon="-3.28965">
        <ele>70</ele>
        <time>2015-02-15T08:34:13Z</time>
      </trkpt>
      <trkpt lat="48.66828" lon="-3.28964">
        <ele>70</ele>
        <time>2015-02-15T08:34:14Z</time>
      </trkpt>
      <trkpt lat="48.66821" lon="-3.28963">
        <ele>70</ele>
        <time>2015-02-15T08:34:15Z</time>
      </trkpt>
      <trkpt lat="48.66814" lon="-3.28962">
        <ele>70</ele>
        <time>2015-02-15T08:34:17Z</time>
      </trkpt>
      <trkpt lat="48.66808" lon="-3.28961">
        <ele>70</ele>
        <time>2015-02-15T08:34:17Z</time>
      </trkpt>
      <trkpt lat="48.66801" lon="-3.28961">
        <ele>70</ele>
        <time>2015-02-15T08:34:18Z</time>
      </trkpt>
      <trkpt lat="48.66794" lon="-3.2896">
        <ele>70</ele>
        <time>2015-02-15T08:34:19Z</time>
      </trkpt>
      <trkpt lat="48.66787" lon="-3.2896">
        <ele>70</ele>
        <time>2015-02-15T08:34:20Z</time>
      </trkpt>
      <trkpt lat="48.66772" lon="-3.2896">
        <ele>71</ele>
        <time>2015-02-15T08:34:22Z</time>
      </trkpt>
      <trkpt lat="48.66766" lon="-3.2896">
        <ele>71</ele>
        <time>2015-02-15T08:34:23Z</time>
      </trkpt>
      <trkpt lat="48.66758" lon="-3.2896">
        <ele>71</ele>
        <time>2015-02-15T08:34:24Z</time>
      </trkpt>
      <trkpt lat="48.66751" lon="-3.28961">
        <ele>71</ele>
        <time>2015-02-15T08:34:25Z</time>
      </trkpt>
      <trkpt lat="48.66745" lon="-3.28961">
        <ele>71</ele>
        <time>2015-02-15T08:34:27Z</time>
      </trkpt>
      <trkpt lat="48.66737" lon="-3.28961">
        <ele>71</ele>
        <time>2015-02-15T08:34:27Z</time>
      </trkpt>
      <trkpt lat="48.6673" lon="-3.28962">
        <ele>71</ele>
        <time>2015-02-15T08:34:28Z</time>
      </trkpt>
      <trkpt lat="48.66723" lon="-3.28962">
        <ele>71</ele>
        <time>2015-02-15T08:34:29Z</time>
      </trkpt>
      <trkpt lat="48.66716" lon="-3.28963">
        <ele>71</ele>
        <time>2015-02-15T08:34:30Z</time>
      </trkpt>
      <trkpt lat="48.66708" lon="-3.28963">
        <ele>71</ele>
        <time>2015-02-15T08:34:32Z</time>
      </trkpt>
      <trkpt lat="48.66701" lon="-3.28964">
        <ele>72</ele>
        <time>2015-02-15T08:34:32Z</time>
      </trkpt>
      <trkpt lat="48.66694" lon="-3.28965">
        <ele>72</ele>
        <time>2015-02-15T08:34:33Z</time>
      </trkpt>
      <trkpt lat="48.66687" lon="-3.28966">
        <ele>72</ele>
        <time>2015-02-15T08:34:34Z</time>
      </trkpt>
      <trkpt lat="48.6668" lon="-3.28967">
        <ele>72</ele>
        <time>2015-02-15T08:34:35Z</time>
      </trkpt>
      <trkpt lat="48.66673" lon="-3.28969">
        <ele>72</ele>
        <time>2015-02-15T08:34:37Z</time>
      </trkpt>
      <trkpt lat="48.66667" lon="-3.2897">
        <ele>72</ele>
        <time>2015-02-15T08:34:37Z</time>
      </trkpt>
      <trkpt lat="48.6666" lon="-3.28972">
        <ele>72</ele>
        <time>2015-02-15T08:34:38Z</time>
      </trkpt>
      <trkpt lat="48.66654" lon="-3.28973">
        <ele>73</ele>
        <time>2015-02-15T08:34:39Z</time>
      </trkpt>
      <trkpt lat="48.66647" lon="-3.28975">
        <ele>73</ele>
        <time>2015-02-15T08:34:40Z</time>
      </trkpt>
      <trkpt lat="48.6664" lon="-3.28976">
        <ele>73</ele>
        <time>2015-02-15T08:34:42Z</time>
      </trkpt>
      <trkpt lat="48.66634" lon="-3.28978">
        <ele>73</ele>
        <time>2015-02-15T08:34:42Z</time>
      </trkpt>
      <trkpt lat="48.66627" lon="-3.2898">
        <ele>73</ele>
        <time>2015-02-15T08:34:43Z</time>
      </trkpt>
      <trkpt lat="48.6662" lon="-3.28983">
        <ele>73</ele>
        <time>2015-02-15T08:34:44Z</time>
      </trkpt>
      <trkpt lat="48.66614" lon="-3.28985">
        <ele>74</ele>
        <time>2015-02-15T08:34:45Z</time>
      </trkpt>
      <trkpt lat="48.66608" lon="-3.28987">
        <ele>74</ele>
        <time>2015-02-15T08:34:46Z</time>
      </trkpt>
      <trkpt lat="48.66601" lon="-3.2899">
        <ele>74</ele>
        <time>2015-02-15T08:34:47Z</time>
      </trkpt>
      <trkpt lat="48.66595" lon="-3.28992">
        <ele>74</ele>
        <time>2015-02-15T08:34:48Z</time>
      </trkpt>
      <trkpt lat="48.66589" lon="-3.28994">
        <ele>74</ele>
        <time>2015-02-15T08:34:49Z</time>
      </trkpt>
      <trkpt lat="48.66583" lon="-3.28997">
        <ele>74</ele>
        <time>2015-02-15T08:34:50Z</time>
      </trkpt>
      <trkpt lat="48.66576" lon="-3.28999">
        <ele>74</ele>
        <time>2015-02-15T08:34:52Z</time>
      </trkpt>
      <trkpt lat="48.6657" lon="-3.29">
        <ele>74</ele>
        <time>2015-02-15T08:34:52Z</time>
      </trkpt>
      <trkpt lat="48.66563" lon="-3.29002">
        <ele>74</ele>
        <time>2015-02-15T08:34:53Z</time>
      </trkpt>
      <trkpt lat="48.66556" lon="-3.29003">
        <ele>74</ele>
        <time>2015-02-15T08:34:54Z</time>
      </trkpt>
      <trkpt lat="48.6655" lon="-3.29004">
        <ele>74</ele>
        <time>2015-02-15T08:34:55Z</time>
      </trkpt>
      <trkpt lat="48.66543" lon="-3.29004">
        <ele>74</ele>
        <time>2015-02-15T08:34:57Z</time>
      </trkpt>
      <trkpt lat="48.66536" lon="-3.29005">
        <ele>74</ele>
        <time>2015-02-15T08:34:57Z</time>
      </trkpt>
      <trkpt lat="48.66529" lon="-3.29005">
        <ele>74</ele>
        <time>2015-02-15T08:34:58Z</time>
      </trkpt>
      <trkpt lat="48.66523" lon="-3.29006">
        <ele>74</ele>
        <time>2015-02-15T08:34:59Z</time>
      </trkpt>
      <trkpt lat="48.66516" lon="-3.29006">
        <ele>75</ele>
        <time>2015-02-15T08:35:00Z</time>
      </trkpt>
      <trkpt lat="48.6651" lon="-3.29006">
        <ele>75</ele>
        <time>2015-02-15T08:35:02Z</time>
      </trkpt>
      <trkpt lat="48.66503" lon="-3.29007">
        <ele>75</ele>
        <time>2015-02-15T08:35:02Z</time>
      </trkpt>
      <trkpt lat="48.66497" lon="-3.29007">
        <ele>75</ele>
        <time>2015-02-15T08:35:03Z</time>
      </trkpt>
      <trkpt lat="48.66479" lon="-3.29007">
        <ele>76</ele>
        <time>2015-02-15T08:35:07Z</time>
      </trkpt>
      <trkpt lat="48.66461" lon="-3.29006">
        <ele>76</ele>
        <time>2015-02-15T08:35:09Z</time>
      </trkpt>
      <trkpt lat="48.66455" lon="-3.29006">
        <ele>76</ele>
        <time>2015-02-15T08:35:10Z</time>
      </trkpt>
      <trkpt lat="48.66449" lon="-3.29005">
        <ele>77</ele>
        <time>2015-02-15T08:35:12Z</time>
      </trkpt>
      <trkpt lat="48.66442" lon="-3.29004">
        <ele>77</ele>
        <time>2015-02-15T08:35:12Z</time>
      </trkpt>
      <trkpt lat="48.66436" lon="-3.29003">
        <ele>77</ele>
        <time>2015-02-15T08:35:13Z</time>
      </trkpt>
      <trkpt lat="48.6643" lon="-3.29002">
        <ele>77</ele>
        <time>2015-02-15T08:35:14Z</time>
      </trkpt>
      <trkpt lat="48.66424" lon="-3.29001">
        <ele>78</ele>
        <time>2015-02-15T08:35:15Z</time>
      </trkpt>
      <trkpt lat="48.66417" lon="-3.29">
        <ele>78</ele>
        <time>2015-02-15T08:35:17Z</time>
      </trkpt>
      <trkpt lat="48.66411" lon="-3.29">
        <ele>78</ele>
        <time>2015-02-15T08:35:17Z</time>
      </trkpt>
      <trkpt lat="48.66404" lon="-3.28999">
        <ele>78</ele>
        <time>2015-02-15T08:35:18Z</time>
      </trkpt>
      <trkpt lat="48.66397" lon="-3.28998">
        <ele>79</ele>
        <time>2015-02-15T08:35:19Z</time>
      </trkpt>
      <trkpt lat="48.66391" lon="-3.28997">
        <ele>79</ele>
        <time>2015-02-15T08:35:20Z</time>
      </trkpt>
      <trkpt lat="48.66385" lon="-3.28996">
        <ele>79</ele>
        <time>2015-02-15T08:35:21Z</time>
      </trkpt>
      <trkpt lat="48.66378" lon="-3.28995">
        <ele>79</ele>
        <time>2015-02-15T08:35:22Z</time>
      </trkpt>
      <trkpt lat="48.66372" lon="-3.28994">
        <ele>80</ele>
        <time>2015-02-15T08:35:23Z</time>
      </trkpt>
      <trkpt lat="48.66366" lon="-3.28993">
        <ele>80</ele>
        <time>2015-02-15T08:35:24Z</time>
      </trkpt>
      <trkpt lat="48.6636" lon="-3.28992">
        <ele>80</ele>
        <time>2015-02-15T08:35:25Z</time>
      </trkpt>
      <trkpt lat="48.66355" lon="-3.28991">
        <ele>80</ele>
        <time>2015-02-15T08:35:27Z</time>
      </trkpt>
      <trkpt lat="48.66349" lon="-3.2899">
        <ele>81</ele>
        <time>2015-02-15T08:35:27Z</time>
      </trkpt>
      <trkpt lat="48.66343" lon="-3.2899">
        <ele>81</ele>
        <time>2015-02-15T08:35:28Z</time>
      </trkpt>
      <trkpt lat="48.66336" lon="-3.28989">
        <ele>81</ele>
        <time>2015-02-15T08:35:29Z</time>
      </trkpt>
      <trkpt lat="48.6633" lon="-3.28988">
        <ele>82</ele>
        <time>2015-02-15T08:35:30Z</time>
      </trkpt>
      <trkpt lat="48.66318" lon="-3.28989">
        <ele>82</ele>
        <time>2015-02-15T08:35:32Z</time>
      </trkpt>
      <trkpt lat="48.66312" lon="-3.28989">
        <ele>82</ele>
        <time>2015-02-15T08:35:33Z</time>
      </trkpt>
      <trkpt lat="48.66306" lon="-3.2899">
        <ele>83</ele>
        <time>2015-02-15T08:35:34Z</time>
      </trkpt>
      <trkpt lat="48.66301" lon="-3.28992">
        <ele>83</ele>
        <time>2015-02-15T08:35:35Z</time>
      </trkpt>
      <trkpt lat="48.66295" lon="-3.28994">
        <ele>83</ele>
        <time>2015-02-15T08:35:36Z</time>
      </trkpt>
      <trkpt lat="48.66289" lon="-3.28996">
        <ele>83</ele>
        <time>2015-02-15T08:35:37Z</time>
      </trkpt>
      <trkpt lat="48.66283" lon="-3.28999">
        <ele>84</ele>
        <time>2015-02-15T08:35:38Z</time>
      </trkpt>
      <trkpt lat="48.66277" lon="-3.29001">
        <ele>84</ele>
        <time>2015-02-15T08:35:39Z</time>
      </trkpt>
      <trkpt lat="48.66271" lon="-3.29004">
        <ele>84</ele>
        <time>2015-02-15T08:35:40Z</time>
      </trkpt>
      <trkpt lat="48.66265" lon="-3.29006">
        <ele>84</ele>
        <time>2015-02-15T08:35:41Z</time>
      </trkpt>
      <trkpt lat="48.66259" lon="-3.29008">
        <ele>84</ele>
        <time>2015-02-15T08:35:42Z</time>
      </trkpt>
      <trkpt lat="48.66252" lon="-3.2901">
        <ele>85</ele>
        <time>2015-02-15T08:35:43Z</time>
      </trkpt>
      <trkpt lat="48.66246" lon="-3.29012">
        <ele>85</ele>
        <time>2015-02-15T08:35:44Z</time>
      </trkpt>
      <trkpt lat="48.66239" lon="-3.29015">
        <ele>85</ele>
        <time>2015-02-15T08:35:45Z</time>
      </trkpt>
      <trkpt lat="48.66233" lon="-3.29017">
        <ele>85</ele>
        <time>2015-02-15T08:35:46Z</time>
      </trkpt>
      <trkpt lat="48.66227" lon="-3.29019">
        <ele>85</ele>
        <time>2015-02-15T08:35:47Z</time>
      </trkpt>
      <trkpt lat="48.6622" lon="-3.29022">
        <ele>85</ele>
        <time>2015-02-15T08:35:48Z</time>
      </trkpt>
      <trkpt lat="48.66213" lon="-3.29024">
        <ele>86</ele>
        <time>2015-02-15T08:35:49Z</time>
      </trkpt>
      <trkpt lat="48.66207" lon="-3.29026">
        <ele>86</ele>
        <time>2015-02-15T08:35:50Z</time>
      </trkpt>
      <trkpt lat="48.662" lon="-3.29028">
        <ele>86</ele>
        <time>2015-02-15T08:35:52Z</time>
      </trkpt>
      <trkpt lat="48.66193" lon="-3.29029">
        <ele>86</ele>
        <time>2015-02-15T08:35:52Z</time>
      </trkpt>
      <trkpt lat="48.66187" lon="-3.2903">
        <ele>86</ele>
        <time>2015-02-15T08:35:53Z</time>
      </trkpt>
      <trkpt lat="48.6618" lon="-3.29032">
        <ele>86</ele>
        <time>2015-02-15T08:35:54Z</time>
      </trkpt>
      <trkpt lat="48.66173" lon="-3.29033">
        <ele>86</ele>
        <time>2015-02-15T08:35:55Z</time>
      </trkpt>
      <trkpt lat="48.66166" lon="-3.29035">
        <ele>86</ele>
        <time>2015-02-15T08:35:57Z</time>
      </trkpt>
      <trkpt lat="48.66158" lon="-3.29036">
        <ele>86</ele>
        <time>2015-02-15T08:35:57Z</time>
      </trkpt>
      <trkpt lat="48.66151" lon="-3.29037">
        <ele>86</ele>
        <time>2015-02-15T08:35:58Z</time>
      </trkpt>
      <trkpt lat="48.66144" lon="-3.29039">
        <ele>86</ele>
        <time>2015-02-15T08:35:59Z</time>
      </trkpt>
      <trkpt lat="48.66137" lon="-3.2904">
        <ele>86</ele>
        <time>2015-02-15T08:36:00Z</time>
      </trkpt>
      <trkpt lat="48.66129" lon="-3.29042">
        <ele>86</ele>
        <time>2015-02-15T08:36:02Z</time>
      </trkpt>
      <trkpt lat="48.66122" lon="-3.29043">
        <ele>86</ele>
        <time>2015-02-15T08:36:02Z</time>
      </trkpt>
      <trkpt lat="48.66114" lon="-3.29045">
        <ele>86</ele>
        <time>2015-02-15T08:36:03Z</time>
      </trkpt>
      <trkpt lat="48.66107" lon="-3.29046">
        <ele>86</ele>
        <time>2015-02-15T08:36:04Z</time>
      </trkpt>
      <trkpt lat="48.66099" lon="-3.29046">
        <ele>86</ele>
        <time>2015-02-15T08:36:05Z</time>
      </trkpt>
      <trkpt lat="48.66092" lon="-3.29047">
        <ele>86</ele>
        <time>2015-02-15T08:36:07Z</time>
      </trkpt>
      <trkpt lat="48.66084" lon="-3.29046">
        <ele>86</ele>
        <time>2015-02-15T08:36:07Z</time>
      </trkpt>
      <trkpt lat="48.66077" lon="-3.29045">
        <ele>86</ele>
        <time>2015-02-15T08:36:08Z</time>
      </trkpt>
      <trkpt lat="48.66069" lon="-3.29043">
        <ele>86</ele>
        <time>2015-02-15T08:36:09Z</time>
      </trkpt>
      <trkpt lat="48.66061" lon="-3.2904">
        <ele>86</ele>
        <time>2015-02-15T08:36:10Z</time>
      </trkpt>
      <trkpt lat="48.66054" lon="-3.29036">
        <ele>86</ele>
        <time>2015-02-15T08:36:11Z</time>
      </trkpt>
      <trkpt lat="48.66047" lon="-3.29032">
        <ele>86</ele>
        <time>2015-02-15T08:36:12Z</time>
      </trkpt>
      <trkpt lat="48.6604" lon="-3.29027">
        <ele>86</ele>
        <time>2015-02-15T08:36:13Z</time>
      </trkpt>
      <trkpt lat="48.66032" lon="-3.29022">
        <ele>86</ele>
        <time>2015-02-15T08:36:14Z</time>
      </trkpt>
      <trkpt lat="48.66026" lon="-3.29017">
        <ele>86</ele>
        <time>2015-02-15T08:36:15Z</time>
      </trkpt>
      <trkpt lat="48.66018" lon="-3.29012">
        <ele>86</ele>
        <time>2015-02-15T08:36:16Z</time>
      </trkpt>
      <trkpt lat="48.66011" lon="-3.29008">
        <ele>86</ele>
        <time>2015-02-15T08:36:17Z</time>
      </trkpt>
      <trkpt lat="48.66003" lon="-3.29005">
        <ele>86</ele>
        <time>2015-02-15T08:36:18Z</time>
      </trkpt>
      <trkpt lat="48.65995" lon="-3.29003">
        <ele>86</ele>
        <time>2015-02-15T08:36:19Z</time>
      </trkpt>
      <trkpt lat="48.65987" lon="-3.29003">
        <ele>86</ele>
        <time>2015-02-15T08:36:20Z</time>
      </trkpt>
      <trkpt lat="48.65979" lon="-3.29003">
        <ele>86</ele>
        <time>2015-02-15T08:36:22Z</time>
      </trkpt>
      <trkpt lat="48.6597" lon="-3.29004">
        <ele>86</ele>
        <time>2015-02-15T08:36:22Z</time>
      </trkpt>
      <trkpt lat="48.65962" lon="-3.29006">
        <ele>86</ele>
        <time>2015-02-15T08:36:23Z</time>
      </trkpt>
      <trkpt lat="48.65954" lon="-3.29007">
        <ele>86</ele>
        <time>2015-02-15T08:36:24Z</time>
      </trkpt>
      <trkpt lat="48.65946" lon="-3.29008">
        <ele>86</ele>
        <time>2015-02-15T08:36:25Z</time>
      </trkpt>
      <trkpt lat="48.65937" lon="-3.29009">
        <ele>86</ele>
        <time>2015-02-15T08:36:27Z</time>
      </trkpt>
      <trkpt lat="48.65929" lon="-3.29009">
        <ele>86</ele>
        <time>2015-02-15T08:36:27Z</time>
      </trkpt>
      <trkpt lat="48.65921" lon="-3.29009">
        <ele>86</ele>
        <time>2015-02-15T08:36:28Z</time>
      </trkpt>
      <trkpt lat="48.65913" lon="-3.29009">
        <ele>86</ele>
        <time>2015-02-15T08:36:29Z</time>
      </trkpt>
      <trkpt lat="48.65904" lon="-3.29008">
        <ele>86</ele>
        <time>2015-02-15T08:36:30Z</time>
      </trkpt>
      <trkpt lat="48.65896" lon="-3.29007">
        <ele>86</ele>
        <time>2015-02-15T08:36:31Z</time>
      </trkpt>
      <trkpt lat="48.65889" lon="-3.29006">
        <ele>86</ele>
        <time>2015-02-15T08:36:32Z</time>
      </trkpt>
      <trkpt lat="48.65881" lon="-3.29006">
        <ele>86</ele>
        <time>2015-02-15T08:36:33Z</time>
      </trkpt>
      <trkpt lat="48.65873" lon="-3.29005">
        <ele>86</ele>
        <time>2015-02-15T08:36:34Z</time>
      </trkpt>
      <trkpt lat="48.65865" lon="-3.29004">
        <ele>86</ele>
        <time>2015-02-15T08:36:35Z</time>
      </trkpt>
      <trkpt lat="48.65857" lon="-3.29002">
        <ele>86</ele>
        <time>2015-02-15T08:36:36Z</time>
      </trkpt>
      <trkpt lat="48.6585" lon="-3.29001">
        <ele>86</ele>
        <time>2015-02-15T08:36:37Z</time>
      </trkpt>
      <trkpt lat="48.65842" lon="-3.29">
        <ele>86</ele>
        <time>2015-02-15T08:36:38Z</time>
      </trkpt>
      <trkpt lat="48.65834" lon="-3.28998">
        <ele>86</ele>
        <time>2015-02-15T08:36:39Z</time>
      </trkpt>
      <trkpt lat="48.65826" lon="-3.28997">
        <ele>86</ele>
        <time>2015-02-15T08:36:40Z</time>
      </trkpt>
      <trkpt lat="48.65818" lon="-3.28995">
        <ele>86</ele>
        <time>2015-02-15T08:36:41Z</time>
      </trkpt>
      <trkpt lat="48.65809" lon="-3.28994">
        <ele>86</ele>
        <time>2015-02-15T08:36:42Z</time>
      </trkpt>
      <trkpt lat="48.65801" lon="-3.28992">
        <ele>86</ele>
        <time>2015-02-15T08:36:43Z</time>
      </trkpt>
      <trkpt lat="48.65793" lon="-3.28991">
        <ele>86</ele>
        <time>2015-02-15T08:36:44Z</time>
      </trkpt>
      <trkpt lat="48.65784" lon="-3.28989">
        <ele>86</ele>
        <time>2015-02-15T08:36:45Z</time>
      </trkpt>
      <trkpt lat="48.65776" lon="-3.28988">
        <ele>86</ele>
        <time>2015-02-15T08:36:46Z</time>
      </trkpt>
      <trkpt lat="48.65768" lon="-3.28986">
        <ele>86</ele>
        <time>2015-02-15T08:36:47Z</time>
      </trkpt>
      <trkpt lat="48.6576" lon="-3.28984">
        <ele>86</ele>
        <time>2015-02-15T08:36:48Z</time>
      </trkpt>
      <trkpt lat="48.65751" lon="-3.28983">
        <ele>86</ele>
        <time>2015-02-15T08:36:49Z</time>
      </trkpt>
      <trkpt lat="48.65743" lon="-3.28982">
        <ele>86</ele>
        <time>2015-02-15T08:36:50Z</time>
      </trkpt>
      <trkpt lat="48.65735" lon="-3.28981">
        <ele>86</ele>
        <time>2015-02-15T08:36:51Z</time>
      </trkpt>
      <trkpt lat="48.65726" lon="-3.2898">
        <ele>86</ele>
        <time>2015-02-15T08:36:52Z</time>
      </trkpt>
      <trkpt lat="48.65718" lon="-3.28978">
        <ele>86</ele>
        <time>2015-02-15T08:36:53Z</time>
      </trkpt>
      <trkpt lat="48.6571" lon="-3.28977">
        <ele>86</ele>
        <time>2015-02-15T08:36:54Z</time>
      </trkpt>
      <trkpt lat="48.65702" lon="-3.28975">
        <ele>86</ele>
        <time>2015-02-15T08:36:55Z</time>
      </trkpt>
      <trkpt lat="48.65694" lon="-3.28972">
        <ele>86</ele>
        <time>2015-02-15T08:36:57Z</time>
      </trkpt>
      <trkpt lat="48.65686" lon="-3.28969">
        <ele>86</ele>
        <time>2015-02-15T08:36:57Z</time>
      </trkpt>
      <trkpt lat="48.65678" lon="-3.28965">
        <ele>86</ele>
        <time>2015-02-15T08:36:58Z</time>
      </trkpt>
      <trkpt lat="48.6567" lon="-3.28961">
        <ele>86</ele>
        <time>2015-02-15T08:36:59Z</time>
      </trkpt>
      <trkpt lat="48.65663" lon="-3.28957">
        <ele>86</ele>
        <time>2015-02-15T08:37:00Z</time>
      </trkpt>
      <trkpt lat="48.65655" lon="-3.28953">
        <ele>86</ele>
        <time>2015-02-15T08:37:01Z</time>
      </trkpt>
      <trkpt lat="48.65648" lon="-3.28949">
        <ele>86</ele>
        <time>2015-02-15T08:37:02Z</time>
      </trkpt>
      <trkpt lat="48.6564" lon="-3.28944">
        <ele>86</ele>
        <time>2015-02-15T08:37:03Z</time>
      </trkpt>
      <trkpt lat="48.65632" lon="-3.2894">
        <ele>86</ele>
        <time>2015-02-15T08:37:04Z</time>
      </trkpt>
      <trkpt lat="48.65625" lon="-3.28936">
        <ele>86</ele>
        <time>2015-02-15T08:37:05Z</time>
      </trkpt>
      <trkpt lat="48.65617" lon="-3.28932">
        <ele>86</ele>
        <time>2015-02-15T08:37:07Z</time>
      </trkpt>
      <trkpt lat="48.65609" lon="-3.28928">
        <ele>86</ele>
        <time>2015-02-15T08:37:07Z</time>
      </trkpt>
      <trkpt lat="48.65602" lon="-3.28924">
        <ele>86</ele>
        <time>2015-02-15T08:37:08Z</time>
      </trkpt>
      <trkpt lat="48.65594" lon="-3.28919">
        <ele>86</ele>
        <time>2015-02-15T08:37:09Z</time>
      </trkpt>
      <trkpt lat="48.65587" lon="-3.28915">
        <ele>87</ele>
        <time>2015-02-15T08:37:10Z</time>
      </trkpt>
      <trkpt lat="48.65579" lon="-3.2891">
        <ele>87</ele>
        <time>2015-02-15T08:37:12Z</time>
      </trkpt>
      <trkpt lat="48.65572" lon="-3.28906">
        <ele>87</ele>
        <time>2015-02-15T08:37:12Z</time>
      </trkpt>
      <trkpt lat="48.65564" lon="-3.28902">
        <ele>87</ele>
        <time>2015-02-15T08:37:13Z</time>
      </trkpt>
      <trkpt lat="48.65557" lon="-3.28899">
        <ele>87</ele>
        <time>2015-02-15T08:37:14Z</time>
      </trkpt>
      <trkpt lat="48.6555" lon="-3.28896">
        <ele>87</ele>
        <time>2015-02-15T08:37:15Z</time>
      </trkpt>
      <trkpt lat="48.65542" lon="-3.28894">
        <ele>87</ele>
        <time>2015-02-15T08:37:16Z</time>
      </trkpt>
      <trkpt lat="48.65535" lon="-3.28891">
        <ele>88</ele>
        <time>2015-02-15T08:37:17Z</time>
      </trkpt>
      <trkpt lat="48.65528" lon="-3.2889">
        <ele>88</ele>
        <time>2015-02-15T08:37:18Z</time>
      </trkpt>
      <trkpt lat="48.6552" lon="-3.28888">
        <ele>88</ele>
        <time>2015-02-15T08:37:19Z</time>
      </trkpt>
      <trkpt lat="48.65513" lon="-3.28886">
        <ele>88</ele>
        <time>2015-02-15T08:37:20Z</time>
      </trkpt>
      <trkpt lat="48.65506" lon="-3.28885">
        <ele>88</ele>
        <time>2015-02-15T08:37:21Z</time>
      </trkpt>
      <trkpt lat="48.65499" lon="-3.28883">
        <ele>89</ele>
        <time>2015-02-15T08:37:22Z</time>
      </trkpt>
      <trkpt lat="48.65492" lon="-3.28881">
        <ele>89</ele>
        <time>2015-02-15T08:37:23Z</time>
      </trkpt>
      <trkpt lat="48.65485" lon="-3.28879">
        <ele>89</ele>
        <time>2015-02-15T08:37:24Z</time>
      </trkpt>
      <trkpt lat="48.65477" lon="-3.28877">
        <ele>89</ele>
        <time>2015-02-15T08:37:25Z</time>
      </trkpt>
      <trkpt lat="48.6547" lon="-3.28875">
        <ele>89</ele>
        <time>2015-02-15T08:37:27Z</time>
      </trkpt>
      <trkpt lat="48.65463" lon="-3.28873">
        <ele>89</ele>
        <time>2015-02-15T08:37:27Z</time>
      </trkpt>
      <trkpt lat="48.65456" lon="-3.28872">
        <ele>89</ele>
        <time>2015-02-15T08:37:28Z</time>
      </trkpt>
      <trkpt lat="48.65448" lon="-3.28871">
        <ele>90</ele>
        <time>2015-02-15T08:37:29Z</time>
      </trkpt>
      <trkpt lat="48.65441" lon="-3.2887">
        <ele>90</ele>
        <time>2015-02-15T08:37:30Z</time>
      </trkpt>
      <trkpt lat="48.65434" lon="-3.2887">
        <ele>90</ele>
        <time>2015-02-15T08:37:31Z</time>
      </trkpt>
      <trkpt lat="48.65426" lon="-3.2887">
        <ele>90</ele>
        <time>2015-02-15T08:37:32Z</time>
      </trkpt>
      <trkpt lat="48.65419" lon="-3.28869">
        <ele>90</ele>
        <time>2015-02-15T08:37:33Z</time>
      </trkpt>
      <trkpt lat="48.65413" lon="-3.28869">
        <ele>90</ele>
        <time>2015-02-15T08:37:34Z</time>
      </trkpt>
      <trkpt lat="48.65406" lon="-3.28868">
        <ele>90</ele>
        <time>2015-02-15T08:37:35Z</time>
      </trkpt>
      <trkpt lat="48.65399" lon="-3.28866">
        <ele>90</ele>
        <time>2015-02-15T08:37:36Z</time>
      </trkpt>
      <trkpt lat="48.65392" lon="-3.28864">
        <ele>91</ele>
        <time>2015-02-15T08:37:37Z</time>
      </trkpt>
      <trkpt lat="48.65385" lon="-3.28862">
        <ele>91</ele>
        <time>2015-02-15T08:37:38Z</time>
      </trkpt>
      <trkpt lat="48.65378" lon="-3.28859">
        <ele>91</ele>
        <time>2015-02-15T08:37:39Z</time>
      </trkpt>
      <trkpt lat="48.65371" lon="-3.28855">
        <ele>91</ele>
        <time>2015-02-15T08:37:40Z</time>
      </trkpt>
      <trkpt lat="48.65364" lon="-3.2885">
        <ele>91</ele>
        <time>2015-02-15T08:37:41Z</time>
      </trkpt>
      <trkpt lat="48.65358" lon="-3.28846">
        <ele>91</ele>
        <time>2015-02-15T08:37:42Z</time>
      </trkpt>
      <trkpt lat="48.65351" lon="-3.2884">
        <ele>91</ele>
        <time>2015-02-15T08:37:43Z</time>
      </trkpt>
      <trkpt lat="48.65345" lon="-3.28835">
        <ele>91</ele>
        <time>2015-02-15T08:37:44Z</time>
      </trkpt>
      <trkpt lat="48.65339" lon="-3.2883">
        <ele>91</ele>
        <time>2015-02-15T08:37:45Z</time>
      </trkpt>
      <trkpt lat="48.65333" lon="-3.28825">
        <ele>91</ele>
        <time>2015-02-15T08:37:46Z</time>
      </trkpt>
      <trkpt lat="48.65327" lon="-3.2882">
        <ele>91</ele>
        <time>2015-02-15T08:37:47Z</time>
      </trkpt>
      <trkpt lat="48.65321" lon="-3.28815">
        <ele>92</ele>
        <time>2015-02-15T08:37:48Z</time>
      </trkpt>
      <trkpt lat="48.65316" lon="-3.2881">
        <ele>92</ele>
        <time>2015-02-15T08:37:49Z</time>
      </trkpt>
      <trkpt lat="48.6531" lon="-3.28805">
        <ele>92</ele>
        <time>2015-02-15T08:37:50Z</time>
      </trkpt>
      <trkpt lat="48.65305" lon="-3.28801">
        <ele>92</ele>
        <time>2015-02-15T08:37:51Z</time>
      </trkpt>
      <trkpt lat="48.653" lon="-3.28796">
        <ele>92</ele>
        <time>2015-02-15T08:37:52Z</time>
      </trkpt>
      <trkpt lat="48.65294" lon="-3.2879">
        <ele>93</ele>
        <time>2015-02-15T08:37:53Z</time>
      </trkpt>
      <trkpt lat="48.65289" lon="-3.28785">
        <ele>93</ele>
        <time>2015-02-15T08:37:54Z</time>
      </trkpt>
      <trkpt lat="48.65284" lon="-3.28779">
        <ele>93</ele>
        <time>2015-02-15T08:37:55Z</time>
      </trkpt>
      <trkpt lat="48.65279" lon="-3.28774">
        <ele>93</ele>
        <time>2015-02-15T08:37:56Z</time>
      </trkpt>
      <trkpt lat="48.65273" lon="-3.28769">
        <ele>93</ele>
        <time>2015-02-15T08:37:57Z</time>
      </trkpt>
      <trkpt lat="48.65266" lon="-3.28764">
        <ele>93</ele>
        <time>2015-02-15T08:37:58Z</time>
      </trkpt>
      <trkpt lat="48.65259" lon="-3.28761">
        <ele>93</ele>
        <time>2015-02-15T08:37:59Z</time>
      </trkpt>
      <trkpt lat="48.65251" lon="-3.28759">
        <ele>93</ele>
        <time>2015-02-15T08:38:00Z</time>
      </trkpt>
      <trkpt lat="48.65243" lon="-3.28757">
        <ele>93</ele>
        <time>2015-02-15T08:38:01Z</time>
      </trkpt>
      <trkpt lat="48.65234" lon="-3.28756">
        <ele>93</ele>
        <time>2015-02-15T08:38:02Z</time>
      </trkpt>
      <trkpt lat="48.65226" lon="-3.28754">
        <ele>93</ele>
        <time>2015-02-15T08:38:03Z</time>
      </trkpt>
      <trkpt lat="48.65217" lon="-3.28752">
        <ele>93</ele>
        <time>2015-02-15T08:38:04Z</time>
      </trkpt>
      <trkpt lat="48.65209" lon="-3.28749">
        <ele>93</ele>
        <time>2015-02-15T08:38:05Z</time>
      </trkpt>
      <trkpt lat="48.652" lon="-3.28746">
        <ele>93</ele>
        <time>2015-02-15T08:38:06Z</time>
      </trkpt>
      <trkpt lat="48.65192" lon="-3.28743">
        <ele>93</ele>
        <time>2015-02-15T08:38:07Z</time>
      </trkpt>
      <trkpt lat="48.65184" lon="-3.28739">
        <ele>93</ele>
        <time>2015-02-15T08:38:08Z</time>
      </trkpt>
      <trkpt lat="48.65176" lon="-3.28735">
        <ele>93</ele>
        <time>2015-02-15T08:38:09Z</time>
      </trkpt>
      <trkpt lat="48.65169" lon="-3.28732">
        <ele>93</ele>
        <time>2015-02-15T08:38:10Z</time>
      </trkpt>
      <trkpt lat="48.65161" lon="-3.2873">
        <ele>93</ele>
        <time>2015-02-15T08:38:11Z</time>
      </trkpt>
      <trkpt lat="48.65154" lon="-3.28728">
        <ele>93</ele>
        <time>2015-02-15T08:38:12Z</time>
      </trkpt>
      <trkpt lat="48.65146" lon="-3.28725">
        <ele>93</ele>
        <time>2015-02-15T08:38:13Z</time>
      </trkpt>
      <trkpt lat="48.65139" lon="-3.28722">
        <ele>93</ele>
        <time>2015-02-15T08:38:14Z</time>
      </trkpt>
      <trkpt lat="48.65132" lon="-3.28717">
        <ele>93</ele>
        <time>2015-02-15T08:38:15Z</time>
      </trkpt>
      <trkpt lat="48.65126" lon="-3.28713">
        <ele>93</ele>
        <time>2015-02-15T08:38:16Z</time>
      </trkpt>
      <trkpt lat="48.6512" lon="-3.28708">
        <ele>93</ele>
        <time>2015-02-15T08:38:17Z</time>
      </trkpt>
      <trkpt lat="48.65114" lon="-3.28703">
        <ele>93</ele>
        <time>2015-02-15T08:38:18Z</time>
      </trkpt>
      <trkpt lat="48.65108" lon="-3.28699">
        <ele>93</ele>
        <time>2015-02-15T08:38:19Z</time>
      </trkpt>
      <trkpt lat="48.65101" lon="-3.28695">
        <ele>93</ele>
        <time>2015-02-15T08:38:20Z</time>
      </trkpt>
      <trkpt lat="48.65094" lon="-3.28692">
        <ele>93</ele>
        <time>2015-02-15T08:38:21Z</time>
      </trkpt>
      <trkpt lat="48.65087" lon="-3.28689">
        <ele>93</ele>
        <time>2015-02-15T08:38:22Z</time>
      </trkpt>
      <trkpt lat="48.65079" lon="-3.28687">
        <ele>93</ele>
        <time>2015-02-15T08:38:23Z</time>
      </trkpt>
      <trkpt lat="48.65072" lon="-3.28686">
        <ele>93</ele>
        <time>2015-02-15T08:38:24Z</time>
      </trkpt>
      <trkpt lat="48.65065" lon="-3.28685">
        <ele>93</ele>
        <time>2015-02-15T08:38:25Z</time>
      </trkpt>
      <trkpt lat="48.65057" lon="-3.28686">
        <ele>93</ele>
        <time>2015-02-15T08:38:27Z</time>
      </trkpt>
      <trkpt lat="48.6505" lon="-3.28687">
        <ele>93</ele>
        <time>2015-02-15T08:38:27Z</time>
      </trkpt>
      <trkpt lat="48.65042" lon="-3.28689">
        <ele>93</ele>
        <time>2015-02-15T08:38:28Z</time>
      </trkpt>
      <trkpt lat="48.65034" lon="-3.28691">
        <ele>93</ele>
        <time>2015-02-15T08:38:29Z</time>
      </trkpt>
      <trkpt lat="48.65027" lon="-3.28695">
        <ele>93</ele>
        <time>2015-02-15T08:38:30Z</time>
      </trkpt>
      <trkpt lat="48.65019" lon="-3.28698">
        <ele>93</ele>
        <time>2015-02-15T08:38:31Z</time>
      </trkpt>
      <trkpt lat="48.65012" lon="-3.28702">
        <ele>93</ele>
        <time>2015-02-15T08:38:32Z</time>
      </trkpt>
      <trkpt lat="48.65004" lon="-3.28705">
        <ele>93</ele>
        <time>2015-02-15T08:38:33Z</time>
      </trkpt>
      <trkpt lat="48.64996" lon="-3.28709">
        <ele>93</ele>
        <time>2015-02-15T08:38:34Z</time>
      </trkpt>
      <trkpt lat="48.64988" lon="-3.28713">
        <ele>93</ele>
        <time>2015-02-15T08:38:35Z</time>
      </trkpt>
      <trkpt lat="48.6498" lon="-3.28717">
        <ele>93</ele>
        <time>2015-02-15T08:38:36Z</time>
      </trkpt>
      <trkpt lat="48.64972" lon="-3.28721">
        <ele>93</ele>
        <time>2015-02-15T08:38:37Z</time>
      </trkpt>
      <trkpt lat="48.64965" lon="-3.28725">
        <ele>93</ele>
        <time>2015-02-15T08:38:38Z</time>
      </trkpt>
      <trkpt lat="48.64956" lon="-3.2873">
        <ele>93</ele>
        <time>2015-02-15T08:38:39Z</time>
      </trkpt>
      <trkpt lat="48.64949" lon="-3.28735">
        <ele>93</ele>
        <time>2015-02-15T08:38:40Z</time>
      </trkpt>
      <trkpt lat="48.64941" lon="-3.28742">
        <ele>93</ele>
        <time>2015-02-15T08:38:41Z</time>
      </trkpt>
      <trkpt lat="48.64934" lon="-3.28749">
        <ele>93</ele>
        <time>2015-02-15T08:38:42Z</time>
      </trkpt>
      <trkpt lat="48.64927" lon="-3.28757">
        <ele>93</ele>
        <time>2015-02-15T08:38:43Z</time>
      </trkpt>
      <trkpt lat="48.6492" lon="-3.28766">
        <ele>93</ele>
        <time>2015-02-15T08:38:44Z</time>
      </trkpt>
      <trkpt lat="48.64913" lon="-3.28776">
        <ele>93</ele>
        <time>2015-02-15T08:38:45Z</time>
      </trkpt>
      <trkpt lat="48.64906" lon="-3.28784">
        <ele>93</ele>
        <time>2015-02-15T08:38:46Z</time>
      </trkpt>
      <trkpt lat="48.64899" lon="-3.28792">
        <ele>93</ele>
        <time>2015-02-15T08:38:47Z</time>
      </trkpt>
      <trkpt lat="48.64892" lon="-3.28798">
        <ele>93</ele>
        <time>2015-02-15T08:38:48Z</time>
      </trkpt>
      <trkpt lat="48.64884" lon="-3.28802">
        <ele>93</ele>
        <time>2015-02-15T08:38:49Z</time>
      </trkpt>
      <trkpt lat="48.64876" lon="-3.28804">
        <ele>93</ele>
        <time>2015-02-15T08:38:50Z</time>
      </trkpt>
      <trkpt lat="48.64868" lon="-3.28804">
        <ele>93</ele>
        <time>2015-02-15T08:38:51Z</time>
      </trkpt>
      <trkpt lat="48.6486" lon="-3.28801">
        <ele>93</ele>
        <time>2015-02-15T08:38:52Z</time>
      </trkpt>
      <trkpt lat="48.64853" lon="-3.28797">
        <ele>93</ele>
        <time>2015-02-15T08:38:53Z</time>
      </trkpt>
      <trkpt lat="48.64845" lon="-3.28792">
        <ele>93</ele>
        <time>2015-02-15T08:38:54Z</time>
      </trkpt>
      <trkpt lat="48.64838" lon="-3.28787">
        <ele>93</ele>
        <time>2015-02-15T08:38:55Z</time>
      </trkpt>
      <trkpt lat="48.6483" lon="-3.28782">
        <ele>93</ele>
        <time>2015-02-15T08:38:56Z</time>
      </trkpt>
      <trkpt lat="48.64822" lon="-3.28776">
        <ele>93</ele>
        <time>2015-02-15T08:38:57Z</time>
      </trkpt>
      <trkpt lat="48.64814" lon="-3.28771">
        <ele>93</ele>
        <time>2015-02-15T08:38:58Z</time>
      </trkpt>
      <trkpt lat="48.64807" lon="-3.28765">
        <ele>93</ele>
        <time>2015-02-15T08:38:59Z</time>
      </trkpt>
      <trkpt lat="48.64799" lon="-3.28759">
        <ele>93</ele>
        <time>2015-02-15T08:39:00Z</time>
      </trkpt>
      <trkpt lat="48.64791" lon="-3.28754">
        <ele>93</ele>
        <time>2015-02-15T08:39:01Z</time>
      </trkpt>
      <trkpt lat="48.64784" lon="-3.28748">
        <ele>93</ele>
        <time>2015-02-15T08:39:02Z</time>
      </trkpt>
      <trkpt lat="48.64776" lon="-3.28743">
        <ele>93</ele>
        <time>2015-02-15T08:39:03Z</time>
      </trkpt>
      <trkpt lat="48.64769" lon="-3.28738">
        <ele>93</ele>
        <time>2015-02-15T08:39:04Z</time>
      </trkpt>
      <trkpt lat="48.64761" lon="-3.28733">
        <ele>93</ele>
        <time>2015-02-15T08:39:05Z</time>
      </trkpt>
      <trkpt lat="48.64753" lon="-3.28729">
        <ele>93</ele>
        <time>2015-02-15T08:39:06Z</time>
      </trkpt>
      <trkpt lat="48.64745" lon="-3.28726">
        <ele>93</ele>
        <time>2015-02-15T08:39:07Z</time>
      </trkpt>
      <trkpt lat="48.64737" lon="-3.28724">
        <ele>93</ele>
        <time>2015-02-15T08:39:08Z</time>
      </trkpt>
      <trkpt lat="48.6473" lon="-3.28722">
        <ele>93</ele>
        <time>2015-02-15T08:39:09Z</time>
      </trkpt>
      <trkpt lat="48.64722" lon="-3.2872">
        <ele>93</ele>
        <time>2015-02-15T08:39:10Z</time>
      </trkpt>
      <trkpt lat="48.64714" lon="-3.28718">
        <ele>93</ele>
        <time>2015-02-15T08:39:11Z</time>
      </trkpt>
      <trkpt lat="48.64706" lon="-3.28716">
        <ele>93</ele>
        <time>2015-02-15T08:39:12Z</time>
      </trkpt>
      <trkpt lat="48.64698" lon="-3.28714">
        <ele>93</ele>
        <time>2015-02-15T08:39:13Z</time>
      </trkpt>
      <trkpt lat="48.64691" lon="-3.28713">
        <ele>93</ele>
        <time>2015-02-15T08:39:14Z</time>
      </trkpt>
      <trkpt lat="48.64684" lon="-3.28711">
        <ele>93</ele>
        <time>2015-02-15T08:39:15Z</time>
      </trkpt>
      <trkpt lat="48.64677" lon="-3.2871">
        <ele>93</ele>
        <time>2015-02-15T08:39:16Z</time>
      </trkpt>
      <trkpt lat="48.64669" lon="-3.28708">
        <ele>93</ele>
        <time>2015-02-15T08:39:17Z</time>
      </trkpt>
      <trkpt lat="48.64662" lon="-3.28707">
        <ele>93</ele>
        <time>2015-02-15T08:39:18Z</time>
      </trkpt>
      <trkpt lat="48.64655" lon="-3.28706">
        <ele>93</ele>
        <time>2015-02-15T08:39:19Z</time>
      </trkpt>
      <trkpt lat="48.64648" lon="-3.28704">
        <ele>93</ele>
        <time>2015-02-15T08:39:20Z</time>
      </trkpt>
      <trkpt lat="48.6464" lon="-3.28703">
        <ele>93</ele>
        <time>2015-02-15T08:39:21Z</time>
      </trkpt>
      <trkpt lat="48.64633" lon="-3.28702">
        <ele>93</ele>
        <time>2015-02-15T08:39:22Z</time>
      </trkpt>
      <trkpt lat="48.64626" lon="-3.287">
        <ele>93</ele>
        <time>2015-02-15T08:39:23Z</time>
      </trkpt>
      <trkpt lat="48.64619" lon="-3.28699">
        <ele>93</ele>
        <time>2015-02-15T08:39:24Z</time>
      </trkpt>
      <trkpt lat="48.64611" lon="-3.28698">
        <ele>93</ele>
        <time>2015-02-15T08:39:25Z</time>
      </trkpt>
      <trkpt lat="48.64604" lon="-3.28697">
        <ele>93</ele>
        <time>2015-02-15T08:39:26Z</time>
      </trkpt>
      <trkpt lat="48.64597" lon="-3.28696">
        <ele>93</ele>
        <time>2015-02-15T08:39:27Z</time>
      </trkpt>
      <trkpt lat="48.6459" lon="-3.28695">
        <ele>93</ele>
        <time>2015-02-15T08:39:28Z</time>
      </trkpt>
      <trkpt lat="48.64584" lon="-3.28694">
        <ele>93</ele>
        <time>2015-02-15T08:39:29Z</time>
      </trkpt>
      <trkpt lat="48.64577" lon="-3.28693">
        <ele>94</ele>
        <time>2015-02-15T08:39:30Z</time>
      </trkpt>
      <trkpt lat="48.6457" lon="-3.28692">
        <ele>94</ele>
        <time>2015-02-15T08:39:31Z</time>
      </trkpt>
      <trkpt lat="48.64563" lon="-3.2869">
        <ele>94</ele>
        <time>2015-02-15T08:39:32Z</time>
      </trkpt>
      <trkpt lat="48.64557" lon="-3.28689">
        <ele>94</ele>
        <time>2015-02-15T08:39:33Z</time>
      </trkpt>
      <trkpt lat="48.6455" lon="-3.28688">
        <ele>95</ele>
        <time>2015-02-15T08:39:34Z</time>
      </trkpt>
      <trkpt lat="48.64543" lon="-3.28687">
        <ele>95</ele>
        <time>2015-02-15T08:39:35Z</time>
      </trkpt>
      <trkpt lat="48.64536" lon="-3.28686">
        <ele>95</ele>
        <time>2015-02-15T08:39:36Z</time>
      </trkpt>
      <trkpt lat="48.64529" lon="-3.28685">
        <ele>95</ele>
        <time>2015-02-15T08:39:37Z</time>
      </trkpt>
      <trkpt lat="48.64522" lon="-3.28685">
        <ele>96</ele>
        <time>2015-02-15T08:39:38Z</time>
      </trkpt>
      <trkpt lat="48.64515" lon="-3.28684">
        <ele>96</ele>
        <time>2015-02-15T08:39:39Z</time>
      </trkpt>
      <trkpt lat="48.64508" lon="-3.28685">
        <ele>96</ele>
        <time>2015-02-15T08:39:40Z</time>
      </trkpt>
      <trkpt lat="48.64493" lon="-3.28684">
        <ele>96</ele>
        <time>2015-02-15T08:39:42Z</time>
      </trkpt>
      <trkpt lat="48.6447" lon="-3.28685">
        <ele>97</ele>
        <time>2015-02-15T08:39:45Z</time>
      </trkpt>
      <trkpt lat="48.64456" lon="-3.28685">
        <ele>97</ele>
        <time>2015-02-15T08:39:47Z</time>
      </trkpt>
      <trkpt lat="48.64449" lon="-3.28684">
        <ele>97</ele>
        <time>2015-02-15T08:39:48Z</time>
      </trkpt>
      <trkpt lat="48.64442" lon="-3.28684">
        <ele>97</ele>
        <time>2015-02-15T08:39:49Z</time>
      </trkpt>
      <trkpt lat="48.64436" lon="-3.28684">
        <ele>97</ele>
        <time>2015-02-15T08:39:50Z</time>
      </trkpt>
      <trkpt lat="48.6443" lon="-3.28684">
        <ele>97</ele>
        <time>2015-02-15T08:39:51Z</time>
      </trkpt>
      <trkpt lat="48.64423" lon="-3.28685">
        <ele>97</ele>
        <time>2015-02-15T08:39:52Z</time>
      </trkpt>
      <trkpt lat="48.64417" lon="-3.28685">
        <ele>97</ele>
        <time>2015-02-15T08:39:53Z</time>
      </trkpt>
      <trkpt lat="48.6441" lon="-3.28685">
        <ele>98</ele>
        <time>2015-02-15T08:39:54Z</time>
      </trkpt>
      <trkpt lat="48.64396" lon="-3.28684">
        <ele>98</ele>
        <time>2015-02-15T08:39:56Z</time>
      </trkpt>
      <trkpt lat="48.64389" lon="-3.28683">
        <ele>98</ele>
        <time>2015-02-15T08:39:57Z</time>
      </trkpt>
      <trkpt lat="48.64382" lon="-3.28681">
        <ele>98</ele>
        <time>2015-02-15T08:39:58Z</time>
      </trkpt>
      <trkpt lat="48.64375" lon="-3.28679">
        <ele>98</ele>
        <time>2015-02-15T08:39:59Z</time>
      </trkpt>
      <trkpt lat="48.64368" lon="-3.28676">
        <ele>98</ele>
        <time>2015-02-15T08:40:01Z</time>
      </trkpt>
      <trkpt lat="48.64362" lon="-3.28672">
        <ele>98</ele>
        <time>2015-02-15T08:40:01Z</time>
      </trkpt>
      <trkpt lat="48.64354" lon="-3.28668">
        <ele>98</ele>
        <time>2015-02-15T08:40:02Z</time>
      </trkpt>
      <trkpt lat="48.64348" lon="-3.28664">
        <ele>98</ele>
        <time>2015-02-15T08:40:03Z</time>
      </trkpt>
      <trkpt lat="48.64341" lon="-3.2866">
        <ele>98</ele>
        <time>2015-02-15T08:40:04Z</time>
      </trkpt>
      <trkpt lat="48.64334" lon="-3.28655">
        <ele>98</ele>
        <time>2015-02-15T08:40:05Z</time>
      </trkpt>
      <trkpt lat="48.64327" lon="-3.28651">
        <ele>98</ele>
        <time>2015-02-15T08:40:06Z</time>
      </trkpt>
      <trkpt lat="48.6432" lon="-3.28646">
        <ele>98</ele>
        <time>2015-02-15T08:40:07Z</time>
      </trkpt>
      <trkpt lat="48.64314" lon="-3.28642">
        <ele>98</ele>
        <time>2015-02-15T08:40:08Z</time>
      </trkpt>
      <trkpt lat="48.64307" lon="-3.28638">
        <ele>98</ele>
        <time>2015-02-15T08:40:09Z</time>
      </trkpt>
      <trkpt lat="48.64301" lon="-3.28633">
        <ele>98</ele>
        <time>2015-02-15T08:40:10Z</time>
      </trkpt>
      <trkpt lat="48.64295" lon="-3.28629">
        <ele>98</ele>
        <time>2015-02-15T08:40:11Z</time>
      </trkpt>
      <trkpt lat="48.64289" lon="-3.28625">
        <ele>98</ele>
        <time>2015-02-15T08:40:12Z</time>
      </trkpt>
      <trkpt lat="48.64283" lon="-3.28621">
        <ele>98</ele>
        <time>2015-02-15T08:40:13Z</time>
      </trkpt>
      <trkpt lat="48.64278" lon="-3.28617">
        <ele>98</ele>
        <time>2015-02-15T08:40:14Z</time>
      </trkpt>
      <trkpt lat="48.64273" lon="-3.28614">
        <ele>98</ele>
        <time>2015-02-15T08:40:15Z</time>
      </trkpt>
      <trkpt lat="48.64268" lon="-3.2861">
        <ele>98</ele>
        <time>2015-02-15T08:40:16Z</time>
      </trkpt>
      <trkpt lat="48.64263" lon="-3.28607">
        <ele>98</ele>
        <time>2015-02-15T08:40:17Z</time>
      </trkpt>
      <trkpt lat="48.64258" lon="-3.28604">
        <ele>98</ele>
        <time>2015-02-15T08:40:18Z</time>
      </trkpt>
      <trkpt lat="48.64253" lon="-3.28601">
        <ele>98</ele>
        <time>2015-02-15T08:40:19Z</time>
      </trkpt>
      <trkpt lat="48.64249" lon="-3.28598">
        <ele>98</ele>
        <time>2015-02-15T08:40:20Z</time>
      </trkpt>
      <trkpt lat="48.64244" lon="-3.28595">
        <ele>98</ele>
        <time>2015-02-15T08:40:21Z</time>
      </trkpt>
      <trkpt lat="48.64241" lon="-3.28592">
        <ele>99</ele>
        <time>2015-02-15T08:40:22Z</time>
      </trkpt>
      <trkpt lat="48.64238" lon="-3.2859">
        <ele>99</ele>
        <time>2015-02-15T08:40:23Z</time>
      </trkpt>
      <trkpt lat="48.64235" lon="-3.28588">
        <ele>99</ele>
        <time>2015-02-15T08:40:24Z</time>
      </trkpt>
      <trkpt lat="48.64232" lon="-3.28586">
        <ele>99</ele>
        <time>2015-02-15T08:40:25Z</time>
      </trkpt>
      <trkpt lat="48.64229" lon="-3.28584">
        <ele>99</ele>
        <time>2015-02-15T08:40:26Z</time>
      </trkpt>
      <trkpt lat="48.64227" lon="-3.28583">
        <ele>99</ele>
        <time>2015-02-15T08:40:27Z</time>
      </trkpt>
      <trkpt lat="48.64225" lon="-3.2858">
        <ele>99</ele>
        <time>2015-02-15T08:40:28Z</time>
      </trkpt>
      <trkpt lat="48.64223" lon="-3.28577">
        <ele>99</ele>
        <time>2015-02-15T08:40:29Z</time>
      </trkpt>
      <trkpt lat="48.64223" lon="-3.28574">
        <ele>99</ele>
        <time>2015-02-15T08:40:30Z</time>
      </trkpt>
      <trkpt lat="48.64224" lon="-3.28569">
        <ele>99</ele>
        <time>2015-02-15T08:40:31Z</time>
      </trkpt>
      <trkpt lat="48.64226" lon="-3.28564">
        <ele>99</ele>
        <time>2015-02-15T08:40:32Z</time>
      </trkpt>
      <trkpt lat="48.64229" lon="-3.28557">
        <ele>99</ele>
        <time>2015-02-15T08:40:33Z</time>
      </trkpt>
      <trkpt lat="48.64233" lon="-3.28551">
        <ele>99</ele>
        <time>2015-02-15T08:40:34Z</time>
      </trkpt>
      <trkpt lat="48.64237" lon="-3.28545">
        <ele>99</ele>
        <time>2015-02-15T08:40:35Z</time>
      </trkpt>
      <trkpt lat="48.64241" lon="-3.28537">
        <ele>99</ele>
        <time>2015-02-15T08:40:36Z</time>
      </trkpt>
      <trkpt lat="48.64246" lon="-3.28529">
        <ele>99</ele>
        <time>2015-02-15T08:40:37Z</time>
      </trkpt>
      <trkpt lat="48.64251" lon="-3.2852">
        <ele>99</ele>
        <time>2015-02-15T08:40:38Z</time>
      </trkpt>
      <trkpt lat="48.64255" lon="-3.28511">
        <ele>99</ele>
        <time>2015-02-15T08:40:39Z</time>
      </trkpt>
      <trkpt lat="48.64259" lon="-3.28502">
        <ele>99</ele>
        <time>2015-02-15T08:40:40Z</time>
      </trkpt>
      <trkpt lat="48.64264" lon="-3.28492">
        <ele>99</ele>
        <time>2015-02-15T08:40:41Z</time>
      </trkpt>
      <trkpt lat="48.64268" lon="-3.28482">
        <ele>99</ele>
        <time>2015-02-15T08:40:42Z</time>
      </trkpt>
      <trkpt lat="48.64273" lon="-3.28473">
        <ele>99</ele>
        <time>2015-02-15T08:40:43Z</time>
      </trkpt>
      <trkpt lat="48.64277" lon="-3.28463">
        <ele>99</ele>
        <time>2015-02-15T08:40:44Z</time>
      </trkpt>
      <trkpt lat="48.64281" lon="-3.28452">
        <ele>99</ele>
        <time>2015-02-15T08:40:45Z</time>
      </trkpt>
      <trkpt lat="48.64286" lon="-3.28443">
        <ele>99</ele>
        <time>2015-02-15T08:40:46Z</time>
      </trkpt>
      <trkpt lat="48.64291" lon="-3.28433">
        <ele>99</ele>
        <time>2015-02-15T08:40:47Z</time>
      </trkpt>
      <trkpt lat="48.64296" lon="-3.28424">
        <ele>99</ele>
        <time>2015-02-15T08:40:48Z</time>
      </trkpt>
      <trkpt lat="48.64301" lon="-3.28414">
        <ele>99</ele>
        <time>2015-02-15T08:40:49Z</time>
      </trkpt>
      <trkpt lat="48.64307" lon="-3.28405">
        <ele>99</ele>
        <time>2015-02-15T08:40:50Z</time>
      </trkpt>
      <trkpt lat="48.64312" lon="-3.28396">
        <ele>99</ele>
        <time>2015-02-15T08:40:51Z</time>
      </trkpt>
      <trkpt lat="48.64318" lon="-3.28386">
        <ele>99</ele>
        <time>2015-02-15T08:40:52Z</time>
      </trkpt>
      <trkpt lat="48.64324" lon="-3.28377">
        <ele>99</ele>
        <time>2015-02-15T08:40:53Z</time>
      </trkpt>
      <trkpt lat="48.6433" lon="-3.28367">
        <ele>99</ele>
        <time>2015-02-15T08:40:54Z</time>
      </trkpt>
      <trkpt lat="48.64336" lon="-3.28357">
        <ele>99</ele>
        <time>2015-02-15T08:40:55Z</time>
      </trkpt>
      <trkpt lat="48.64342" lon="-3.28347">
        <ele>99</ele>
        <time>2015-02-15T08:40:56Z</time>
      </trkpt>
      <trkpt lat="48.64348" lon="-3.28338">
        <ele>99</ele>
        <time>2015-02-15T08:40:57Z</time>
      </trkpt>
      <trkpt lat="48.64354" lon="-3.28328">
        <ele>99</ele>
        <time>2015-02-15T08:40:58Z</time>
      </trkpt>
      <trkpt lat="48.6436" lon="-3.28318">
        <ele>99</ele>
        <time>2015-02-15T08:40:59Z</time>
      </trkpt>
      <trkpt lat="48.64366" lon="-3.28308">
        <ele>99</ele>
        <time>2015-02-15T08:41:00Z</time>
      </trkpt>
      <trkpt lat="48.64372" lon="-3.28298">
        <ele>99</ele>
        <time>2015-02-15T08:41:01Z</time>
      </trkpt>
      <trkpt lat="48.64379" lon="-3.28288">
        <ele>99</ele>
        <time>2015-02-15T08:41:02Z</time>
      </trkpt>
      <trkpt lat="48.64386" lon="-3.28277">
        <ele>99</ele>
        <time>2015-02-15T08:41:03Z</time>
      </trkpt>
      <trkpt lat="48.64392" lon="-3.28267">
        <ele>99</ele>
        <time>2015-02-15T08:41:04Z</time>
      </trkpt>
      <trkpt lat="48.64399" lon="-3.28256">
        <ele>99</ele>
        <time>2015-02-15T08:41:05Z</time>
      </trkpt>
      <trkpt lat="48.64406" lon="-3.28245">
        <ele>99</ele>
        <time>2015-02-15T08:41:06Z</time>
      </trkpt>
      <trkpt lat="48.64413" lon="-3.28234">
        <ele>99</ele>
        <time>2015-02-15T08:41:07Z</time>
      </trkpt>
      <trkpt lat="48.6442" lon="-3.28222">
        <ele>99</ele>
        <time>2015-02-15T08:41:08Z</time>
      </trkpt>
      <trkpt lat="48.64426" lon="-3.28212">
        <ele>99</ele>
        <time>2015-02-15T08:41:09Z</time>
      </trkpt>
      <trkpt lat="48.64433" lon="-3.282">
        <ele>99</ele>
        <time>2015-02-15T08:41:10Z</time>
      </trkpt>
      <trkpt lat="48.6444" lon="-3.28189">
        <ele>99</ele>
        <time>2015-02-15T08:41:11Z</time>
      </trkpt>
      <trkpt lat="48.64447" lon="-3.28178">
        <ele>99</ele>
        <time>2015-02-15T08:41:12Z</time>
      </trkpt>
      <trkpt lat="48.64453" lon="-3.28168">
        <ele>99</ele>
        <time>2015-02-15T08:41:13Z</time>
      </trkpt>
      <trkpt lat="48.6446" lon="-3.28157">
        <ele>99</ele>
        <time>2015-02-15T08:41:14Z</time>
      </trkpt>
      <trkpt lat="48.64466" lon="-3.28147">
        <ele>99</ele>
        <time>2015-02-15T08:41:15Z</time>
      </trkpt>
      <trkpt lat="48.64472" lon="-3.28136">
        <ele>99</ele>
        <time>2015-02-15T08:41:16Z</time>
      </trkpt>
      <trkpt lat="48.64477" lon="-3.28125">
        <ele>99</ele>
        <time>2015-02-15T08:41:17Z</time>
      </trkpt>
      <trkpt lat="48.64482" lon="-3.28114">
        <ele>99</ele>
        <time>2015-02-15T08:41:18Z</time>
      </trkpt>
      <trkpt lat="48.64486" lon="-3.28102">
        <ele>99</ele>
        <time>2015-02-15T08:41:19Z</time>
      </trkpt>
      <trkpt lat="48.64491" lon="-3.28091">
        <ele>99</ele>
        <time>2015-02-15T08:41:20Z</time>
      </trkpt>
      <trkpt lat="48.64494" lon="-3.28079">
        <ele>99</ele>
        <time>2015-02-15T08:41:21Z</time>
      </trkpt>
      <trkpt lat="48.64497" lon="-3.28067">
        <ele>99</ele>
        <time>2015-02-15T08:41:22Z</time>
      </trkpt>
      <trkpt lat="48.64499" lon="-3.28055">
        <ele>99</ele>
        <time>2015-02-15T08:41:23Z</time>
      </trkpt>
      <trkpt lat="48.64501" lon="-3.28043">
        <ele>99</ele>
        <time>2015-02-15T08:41:24Z</time>
      </trkpt>
      <trkpt lat="48.64502" lon="-3.28031">
        <ele>99</ele>
        <time>2015-02-15T08:41:25Z</time>
      </trkpt>
      <trkpt lat="48.64503" lon="-3.28018">
        <ele>99</ele>
        <time>2015-02-15T08:41:26Z</time>
      </trkpt>
      <trkpt lat="48.64504" lon="-3.28006">
        <ele>99</ele>
        <time>2015-02-15T08:41:27Z</time>
      </trkpt>
      <trkpt lat="48.64505" lon="-3.27993">
        <ele>99</ele>
        <time>2015-02-15T08:41:28Z</time>
      </trkpt>
      <trkpt lat="48.64504" lon="-3.27967">
        <ele>99</ele>
        <time>2015-02-15T08:41:30Z</time>
      </trkpt>
      <trkpt lat="48.64503" lon="-3.27954">
        <ele>99</ele>
        <time>2015-02-15T08:41:31Z</time>
      </trkpt>
      <trkpt lat="48.64501" lon="-3.27941">
        <ele>99</ele>
        <time>2015-02-15T08:41:32Z</time>
      </trkpt>
      <trkpt lat="48.645" lon="-3.27928">
        <ele>99</ele>
        <time>2015-02-15T08:41:33Z</time>
      </trkpt>
      <trkpt lat="48.64498" lon="-3.27915">
        <ele>99</ele>
        <time>2015-02-15T08:41:34Z</time>
      </trkpt>
      <trkpt lat="48.64497" lon="-3.27902">
        <ele>99</ele>
        <time>2015-02-15T08:41:35Z</time>
      </trkpt>
      <trkpt lat="48.64495" lon="-3.2789">
        <ele>99</ele>
        <time>2015-02-15T08:41:36Z</time>
      </trkpt>
      <trkpt lat="48.64494" lon="-3.27878">
        <ele>99</ele>
        <time>2015-02-15T08:41:37Z</time>
      </trkpt>
      <trkpt lat="48.64495" lon="-3.27839">
        <ele>99</ele>
        <time>2015-02-15T08:41:40Z</time>
      </trkpt>
      <trkpt lat="48.64496" lon="-3.27827">
        <ele>99</ele>
        <time>2015-02-15T08:41:41Z</time>
      </trkpt>
      <trkpt lat="48.64497" lon="-3.27814">
        <ele>99</ele>
        <time>2015-02-15T08:41:42Z</time>
      </trkpt>
      <trkpt lat="48.64497" lon="-3.27801">
        <ele>99</ele>
        <time>2015-02-15T08:41:43Z</time>
      </trkpt>
      <trkpt lat="48.64499" lon="-3.27788">
        <ele>99</ele>
        <time>2015-02-15T08:41:44Z</time>
      </trkpt>
      <trkpt lat="48.645" lon="-3.27775">
        <ele>99</ele>
        <time>2015-02-15T08:41:45Z</time>
      </trkpt>
      <trkpt lat="48.64502" lon="-3.27762">
        <ele>99</ele>
        <time>2015-02-15T08:41:46Z</time>
      </trkpt>
      <trkpt lat="48.64504" lon="-3.2775">
        <ele>99</ele>
        <time>2015-02-15T08:41:47Z</time>
      </trkpt>
      <trkpt lat="48.64506" lon="-3.27738">
        <ele>99</ele>
        <time>2015-02-15T08:41:48Z</time>
      </trkpt>
      <trkpt lat="48.64508" lon="-3.27726">
        <ele>99</ele>
        <time>2015-02-15T08:41:49Z</time>
      </trkpt>
      <trkpt lat="48.6451" lon="-3.27714">
        <ele>99</ele>
        <time>2015-02-15T08:41:50Z</time>
      </trkpt>
      <trkpt lat="48.64513" lon="-3.27702">
        <ele>99</ele>
        <time>2015-02-15T08:41:51Z</time>
      </trkpt>
      <trkpt lat="48.64515" lon="-3.2769">
        <ele>99</ele>
        <time>2015-02-15T08:41:52Z</time>
      </trkpt>
      <trkpt lat="48.64518" lon="-3.27678">
        <ele>99</ele>
        <time>2015-02-15T08:41:53Z</time>
      </trkpt>
      <trkpt lat="48.6452" lon="-3.27667">
        <ele>99</ele>
        <time>2015-02-15T08:41:54Z</time>
      </trkpt>
      <trkpt lat="48.64523" lon="-3.27655">
        <ele>99</ele>
        <time>2015-02-15T08:41:55Z</time>
      </trkpt>
      <trkpt lat="48.64525" lon="-3.27643">
        <ele>99</ele>
        <time>2015-02-15T08:41:56Z</time>
      </trkpt>
      <trkpt lat="48.64528" lon="-3.27631">
        <ele>99</ele>
        <time>2015-02-15T08:41:57Z</time>
      </trkpt>
      <trkpt lat="48.6453" lon="-3.2762">
        <ele>99</ele>
        <time>2015-02-15T08:41:58Z</time>
      </trkpt>
      <trkpt lat="48.64533" lon="-3.27608">
        <ele>99</ele>
        <time>2015-02-15T08:41:59Z</time>
      </trkpt>
      <trkpt lat="48.64536" lon="-3.27597">
        <ele>99</ele>
        <time>2015-02-15T08:42:00Z</time>
      </trkpt>
      <trkpt lat="48.64538" lon="-3.27586">
        <ele>99</ele>
        <time>2015-02-15T08:42:01Z</time>
      </trkpt>
      <trkpt lat="48.64541" lon="-3.27574">
        <ele>99</ele>
        <time>2015-02-15T08:42:02Z</time>
      </trkpt>
      <trkpt lat="48.64543" lon="-3.27563">
        <ele>99</ele>
        <time>2015-02-15T08:42:03Z</time>
      </trkpt>
      <trkpt lat="48.64546" lon="-3.27551">
        <ele>99</ele>
        <time>2015-02-15T08:42:04Z</time>
      </trkpt>
      <trkpt lat="48.64549" lon="-3.27539">
        <ele>99</ele>
        <time>2015-02-15T08:42:05Z</time>
      </trkpt>
      <trkpt lat="48.64551" lon="-3.27527">
        <ele>99</ele>
        <time>2015-02-15T08:42:06Z</time>
      </trkpt>
      <trkpt lat="48.64554" lon="-3.27515">
        <ele>99</ele>
        <time>2015-02-15T08:42:07Z</time>
      </trkpt>
      <trkpt lat="48.64557" lon="-3.27503">
        <ele>99</ele>
        <time>2015-02-15T08:42:08Z</time>
      </trkpt>
      <trkpt lat="48.6456" lon="-3.27491">
        <ele>99</ele>
        <time>2015-02-15T08:42:09Z</time>
      </trkpt>
      <trkpt lat="48.64562" lon="-3.27479">
        <ele>99</ele>
        <time>2015-02-15T08:42:10Z</time>
      </trkpt>
      <trkpt lat="48.64565" lon="-3.27467">
        <ele>99</ele>
        <time>2015-02-15T08:42:11Z</time>
      </trkpt>
      <trkpt lat="48.64568" lon="-3.27455">
        <ele>99</ele>
        <time>2015-02-15T08:42:12Z</time>
      </trkpt>
      <trkpt lat="48.6457" lon="-3.27443">
        <ele>99</ele>
        <time>2015-02-15T08:42:13Z</time>
      </trkpt>
      <trkpt lat="48.64573" lon="-3.27431">
        <ele>99</ele>
        <time>2015-02-15T08:42:14Z</time>
      </trkpt>
      <trkpt lat="48.64576" lon="-3.27418">
        <ele>99</ele>
        <time>2015-02-15T08:42:15Z</time>
      </trkpt>
      <trkpt lat="48.64579" lon="-3.27405">
        <ele>99</ele>
        <time>2015-02-15T08:42:16Z</time>
      </trkpt>
      <trkpt lat="48.64581" lon="-3.27393">
        <ele>100</ele>
        <time>2015-02-15T08:42:17Z</time>
      </trkpt>
      <trkpt lat="48.64584" lon="-3.27381">
        <ele>100</ele>
        <time>2015-02-15T08:42:18Z</time>
      </trkpt>
      <trkpt lat="48.64587" lon="-3.27369">
        <ele>100</ele>
        <time>2015-02-15T08:42:19Z</time>
      </trkpt>
      <trkpt lat="48.64589" lon="-3.27357">
        <ele>100</ele>
        <time>2015-02-15T08:42:20Z</time>
      </trkpt>
      <trkpt lat="48.64592" lon="-3.27346">
        <ele>100</ele>
        <time>2015-02-15T08:42:21Z</time>
      </trkpt>
      <trkpt lat="48.64595" lon="-3.27335">
        <ele>100</ele>
        <time>2015-02-15T08:42:22Z</time>
      </trkpt>
      <trkpt lat="48.64597" lon="-3.27324">
        <ele>100</ele>
        <time>2015-02-15T08:42:23Z</time>
      </trkpt>
      <trkpt lat="48.646" lon="-3.27312">
        <ele>100</ele>
        <time>2015-02-15T08:42:24Z</time>
      </trkpt>
      <trkpt lat="48.64602" lon="-3.27301">
        <ele>100</ele>
        <time>2015-02-15T08:42:25Z</time>
      </trkpt>
      <trkpt lat="48.64605" lon="-3.2729">
        <ele>100</ele>
        <time>2015-02-15T08:42:26Z</time>
      </trkpt>
      <trkpt lat="48.64608" lon="-3.27278">
        <ele>101</ele>
        <time>2015-02-15T08:42:27Z</time>
      </trkpt>
      <trkpt lat="48.6461" lon="-3.27267">
        <ele>101</ele>
        <time>2015-02-15T08:42:28Z</time>
      </trkpt>
      <trkpt lat="48.64613" lon="-3.27255">
        <ele>101</ele>
        <time>2015-02-15T08:42:29Z</time>
      </trkpt>
      <trkpt lat="48.64615" lon="-3.27243">
        <ele>101</ele>
        <time>2015-02-15T08:42:30Z</time>
      </trkpt>
      <trkpt lat="48.64618" lon="-3.27232">
        <ele>101</ele>
        <time>2015-02-15T08:42:31Z</time>
      </trkpt>
      <trkpt lat="48.64621" lon="-3.2722">
        <ele>101</ele>
        <time>2015-02-15T08:42:32Z</time>
      </trkpt>
      <trkpt lat="48.64623" lon="-3.27209">
        <ele>101</ele>
        <time>2015-02-15T08:42:33Z</time>
      </trkpt>
      <trkpt lat="48.64626" lon="-3.27197">
        <ele>101</ele>
        <time>2015-02-15T08:42:34Z</time>
      </trkpt>
      <trkpt lat="48.64628" lon="-3.27186">
        <ele>101</ele>
        <time>2015-02-15T08:42:35Z</time>
      </trkpt>
      <trkpt lat="48.64631" lon="-3.27174">
        <ele>101</ele>
        <time>2015-02-15T08:42:36Z</time>
      </trkpt>
      <trkpt lat="48.64634" lon="-3.27163">
        <ele>102</ele>
        <time>2015-02-15T08:42:37Z</time>
      </trkpt>
      <trkpt lat="48.64636" lon="-3.27151">
        <ele>102</ele>
        <time>2015-02-15T08:42:38Z</time>
      </trkpt>
      <trkpt lat="48.64639" lon="-3.27139">
        <ele>102</ele>
        <time>2015-02-15T08:42:39Z</time>
      </trkpt>
      <trkpt lat="48.64642" lon="-3.27127">
        <ele>102</ele>
        <time>2015-02-15T08:42:40Z</time>
      </trkpt>
      <trkpt lat="48.64644" lon="-3.27115">
        <ele>102</ele>
        <time>2015-02-15T08:42:41Z</time>
      </trkpt>
      <trkpt lat="48.64647" lon="-3.27102">
        <ele>102</ele>
        <time>2015-02-15T08:42:42Z</time>
      </trkpt>
      <trkpt lat="48.6465" lon="-3.2709">
        <ele>102</ele>
        <time>2015-02-15T08:42:43Z</time>
      </trkpt>
      <trkpt lat="48.64653" lon="-3.27078">
        <ele>102</ele>
        <time>2015-02-15T08:42:44Z</time>
      </trkpt>
      <trkpt lat="48.64656" lon="-3.27065">
        <ele>102</ele>
        <time>2015-02-15T08:42:45Z</time>
      </trkpt>
      <trkpt lat="48.64659" lon="-3.27053">
        <ele>102</ele>
        <time>2015-02-15T08:42:46Z</time>
      </trkpt>
      <trkpt lat="48.64661" lon="-3.2704">
        <ele>102</ele>
        <time>2015-02-15T08:42:47Z</time>
      </trkpt>
      <trkpt lat="48.64664" lon="-3.27028">
        <ele>102</ele>
        <time>2015-02-15T08:42:48Z</time>
      </trkpt>
      <trkpt lat="48.64666" lon="-3.27015">
        <ele>102</ele>
        <time>2015-02-15T08:42:49Z</time>
      </trkpt>
      <trkpt lat="48.64669" lon="-3.27002">
        <ele>102</ele>
        <time>2015-02-15T08:42:50Z</time>
      </trkpt>
      <trkpt lat="48.64671" lon="-3.26989">
        <ele>102</ele>
        <time>2015-02-15T08:42:51Z</time>
      </trkpt>
      <trkpt lat="48.64672" lon="-3.26976">
        <ele>102</ele>
        <time>2015-02-15T08:42:52Z</time>
      </trkpt>
      <trkpt lat="48.64673" lon="-3.26962">
        <ele>102</ele>
        <time>2015-02-15T08:42:53Z</time>
      </trkpt>
      <trkpt lat="48.64674" lon="-3.26948">
        <ele>102</ele>
        <time>2015-02-15T08:42:54Z</time>
      </trkpt>
      <trkpt lat="48.64673" lon="-3.2692">
        <ele>102</ele>
        <time>2015-02-15T08:42:56Z</time>
      </trkpt>
      <trkpt lat="48.64671" lon="-3.26906">
        <ele>102</ele>
        <time>2015-02-15T08:42:57Z</time>
      </trkpt>
      <trkpt lat="48.64669" lon="-3.26891">
        <ele>102</ele>
        <time>2015-02-15T08:42:58Z</time>
      </trkpt>
      <trkpt lat="48.64666" lon="-3.26878">
        <ele>102</ele>
        <time>2015-02-15T08:42:59Z</time>
      </trkpt>
      <trkpt lat="48.64663" lon="-3.26864">
        <ele>102</ele>
        <time>2015-02-15T08:43:00Z</time>
      </trkpt>
      <trkpt lat="48.64659" lon="-3.26851">
        <ele>102</ele>
        <time>2015-02-15T08:43:01Z</time>
      </trkpt>
      <trkpt lat="48.64655" lon="-3.26838">
        <ele>102</ele>
        <time>2015-02-15T08:43:02Z</time>
      </trkpt>
      <trkpt lat="48.6465" lon="-3.26826">
        <ele>102</ele>
        <time>2015-02-15T08:43:03Z</time>
      </trkpt>
      <trkpt lat="48.64645" lon="-3.26814">
        <ele>102</ele>
        <time>2015-02-15T08:43:04Z</time>
      </trkpt>
      <trkpt lat="48.6464" lon="-3.26802">
        <ele>102</ele>
        <time>2015-02-15T08:43:05Z</time>
      </trkpt>
      <trkpt lat="48.64634" lon="-3.26791">
        <ele>102</ele>
        <time>2015-02-15T08:43:06Z</time>
      </trkpt>
      <trkpt lat="48.64629" lon="-3.2678">
        <ele>102</ele>
        <time>2015-02-15T08:43:07Z</time>
      </trkpt>
      <trkpt lat="48.64624" lon="-3.26768">
        <ele>102</ele>
        <time>2015-02-15T08:43:08Z</time>
      </trkpt>
      <trkpt lat="48.64619" lon="-3.26757">
        <ele>102</ele>
        <time>2015-02-15T08:43:09Z</time>
      </trkpt>
      <trkpt lat="48.64613" lon="-3.26746">
        <ele>102</ele>
        <time>2015-02-15T08:43:10Z</time>
      </trkpt>
      <trkpt lat="48.64608" lon="-3.26734">
        <ele>102</ele>
        <time>2015-02-15T08:43:11Z</time>
      </trkpt>
      <trkpt lat="48.64603" lon="-3.26722">
        <ele>102</ele>
        <time>2015-02-15T08:43:12Z</time>
      </trkpt>
      <trkpt lat="48.64598" lon="-3.2671">
        <ele>102</ele>
        <time>2015-02-15T08:43:13Z</time>
      </trkpt>
      <trkpt lat="48.64594" lon="-3.26697">
        <ele>102</ele>
        <time>2015-02-15T08:43:14Z</time>
      </trkpt>
      <trkpt lat="48.64589" lon="-3.26684">
        <ele>102</ele>
        <time>2015-02-15T08:43:15Z</time>
      </trkpt>
      <trkpt lat="48.64586" lon="-3.26671">
        <ele>102</ele>
        <time>2015-02-15T08:43:16Z</time>
      </trkpt>
      <trkpt lat="48.64584" lon="-3.26657">
        <ele>102</ele>
        <time>2015-02-15T08:43:17Z</time>
      </trkpt>
      <trkpt lat="48.64582" lon="-3.26643">
        <ele>102</ele>
        <time>2015-02-15T08:43:18Z</time>
      </trkpt>
      <trkpt lat="48.6458" lon="-3.26629">
        <ele>102</ele>
        <time>2015-02-15T08:43:19Z</time>
      </trkpt>
      <trkpt lat="48.64579" lon="-3.26614">
        <ele>102</ele>
        <time>2015-02-15T08:43:20Z</time>
      </trkpt>
      <trkpt lat="48.64579" lon="-3.26585">
        <ele>102</ele>
        <time>2015-02-15T08:43:22Z</time>
      </trkpt>
      <trkpt lat="48.64581" lon="-3.26571">
        <ele>102</ele>
        <time>2015-02-15T08:43:23Z</time>
      </trkpt>
      <trkpt lat="48.64583" lon="-3.26556">
        <ele>102</ele>
        <time>2015-02-15T08:43:24Z</time>
      </trkpt>
      <trkpt lat="48.64585" lon="-3.26543">
        <ele>102</ele>
        <time>2015-02-15T08:43:25Z</time>
      </trkpt>
      <trkpt lat="48.64588" lon="-3.26529">
        <ele>102</ele>
        <time>2015-02-15T08:43:26Z</time>
      </trkpt>
      <trkpt lat="48.64592" lon="-3.26516">
        <ele>102</ele>
        <time>2015-02-15T08:43:27Z</time>
      </trkpt>
      <trkpt lat="48.64596" lon="-3.26504">
        <ele>102</ele>
        <time>2015-02-15T08:43:28Z</time>
      </trkpt>
      <trkpt lat="48.64601" lon="-3.26492">
        <ele>102</ele>
        <time>2015-02-15T08:43:29Z</time>
      </trkpt>
      <trkpt lat="48.64606" lon="-3.26481">
        <ele>102</ele>
        <time>2015-02-15T08:43:30Z</time>
      </trkpt>
      <trkpt lat="48.64611" lon="-3.26469">
        <ele>102</ele>
        <time>2015-02-15T08:43:31Z</time>
      </trkpt>
      <trkpt lat="48.64616" lon="-3.26458">
        <ele>102</ele>
        <time>2015-02-15T08:43:32Z</time>
      </trkpt>
      <trkpt lat="48.64622" lon="-3.26447">
        <ele>102</ele>
        <time>2015-02-15T08:43:33Z</time>
      </trkpt>
      <trkpt lat="48.64627" lon="-3.26435">
        <ele>102</ele>
        <time>2015-02-15T08:43:34Z</time>
      </trkpt>
      <trkpt lat="48.64633" lon="-3.26424">
        <ele>102</ele>
        <time>2015-02-15T08:43:35Z</time>
      </trkpt>
      <trkpt lat="48.64638" lon="-3.26412">
        <ele>102</ele>
        <time>2015-02-15T08:43:36Z</time>
      </trkpt>
      <trkpt lat="48.64643" lon="-3.264">
        <ele>102</ele>
        <time>2015-02-15T08:43:37Z</time>
      </trkpt>
      <trkpt lat="48.64649" lon="-3.26389">
        <ele>102</ele>
        <time>2015-02-15T08:43:38Z</time>
      </trkpt>
      <trkpt lat="48.64654" lon="-3.26378">
        <ele>102</ele>
        <time>2015-02-15T08:43:39Z</time>
      </trkpt>
      <trkpt lat="48.6466" lon="-3.26367">
        <ele>102</ele>
        <time>2015-02-15T08:43:40Z</time>
      </trkpt>
      <trkpt lat="48.64665" lon="-3.26355">
        <ele>102</ele>
        <time>2015-02-15T08:43:41Z</time>
      </trkpt>
      <trkpt lat="48.6467" lon="-3.26344">
        <ele>102</ele>
        <time>2015-02-15T08:43:42Z</time>
      </trkpt>
      <trkpt lat="48.64676" lon="-3.26332">
        <ele>102</ele>
        <time>2015-02-15T08:43:43Z</time>
      </trkpt>
      <trkpt lat="48.64681" lon="-3.26321">
        <ele>102</ele>
        <time>2015-02-15T08:43:44Z</time>
      </trkpt>
      <trkpt lat="48.64687" lon="-3.26309">
        <ele>102</ele>
        <time>2015-02-15T08:43:45Z</time>
      </trkpt>
      <trkpt lat="48.64692" lon="-3.26297">
        <ele>102</ele>
        <time>2015-02-15T08:43:46Z</time>
      </trkpt>
      <trkpt lat="48.64698" lon="-3.26286">
        <ele>102</ele>
        <time>2015-02-15T08:43:47Z</time>
      </trkpt>
      <trkpt lat="48.64704" lon="-3.26274">
        <ele>102</ele>
        <time>2015-02-15T08:43:48Z</time>
      </trkpt>
      <trkpt lat="48.64709" lon="-3.26263">
        <ele>102</ele>
        <time>2015-02-15T08:43:49Z</time>
      </trkpt>
      <trkpt lat="48.64716" lon="-3.26251">
        <ele>102</ele>
        <time>2015-02-15T08:43:50Z</time>
      </trkpt>
      <trkpt lat="48.64722" lon="-3.2624">
        <ele>102</ele>
        <time>2015-02-15T08:43:51Z</time>
      </trkpt>
      <trkpt lat="48.64727" lon="-3.26229">
        <ele>102</ele>
        <time>2015-02-15T08:43:52Z</time>
      </trkpt>
      <trkpt lat="48.64734" lon="-3.26218">
        <ele>102</ele>
        <time>2015-02-15T08:43:53Z</time>
      </trkpt>
      <trkpt lat="48.64739" lon="-3.26207">
        <ele>102</ele>
        <time>2015-02-15T08:43:54Z</time>
      </trkpt>
      <trkpt lat="48.64745" lon="-3.26196">
        <ele>102</ele>
        <time>2015-02-15T08:43:55Z</time>
      </trkpt>
      <trkpt lat="48.6475" lon="-3.26185">
        <ele>102</ele>
        <time>2015-02-15T08:43:56Z</time>
      </trkpt>
      <trkpt lat="48.64756" lon="-3.26174">
        <ele>102</ele>
        <time>2015-02-15T08:43:57Z</time>
      </trkpt>
      <trkpt lat="48.64761" lon="-3.26163">
        <ele>102</ele>
        <time>2015-02-15T08:43:58Z</time>
      </trkpt>
      <trkpt lat="48.64766" lon="-3.26151">
        <ele>102</ele>
        <time>2015-02-15T08:43:59Z</time>
      </trkpt>
      <trkpt lat="48.6477" lon="-3.2614">
        <ele>102</ele>
        <time>2015-02-15T08:44:00Z</time>
      </trkpt>
      <trkpt lat="48.64775" lon="-3.26128">
        <ele>102</ele>
        <time>2015-02-15T08:44:01Z</time>
      </trkpt>
      <trkpt lat="48.64779" lon="-3.26115">
        <ele>102</ele>
        <time>2015-02-15T08:44:02Z</time>
      </trkpt>
      <trkpt lat="48.64783" lon="-3.26103">
        <ele>102</ele>
        <time>2015-02-15T08:44:03Z</time>
      </trkpt>
      <trkpt lat="48.64787" lon="-3.2609">
        <ele>101</ele>
        <time>2015-02-15T08:44:04Z</time>
      </trkpt>
      <trkpt lat="48.64791" lon="-3.26076">
        <ele>101</ele>
        <time>2015-02-15T08:44:05Z</time>
      </trkpt>
      <trkpt lat="48.64796" lon="-3.26063">
        <ele>101</ele>
        <time>2015-02-15T08:44:06Z</time>
      </trkpt>
      <trkpt lat="48.64799" lon="-3.26049">
        <ele>101</ele>
        <time>2015-02-15T08:44:07Z</time>
      </trkpt>
      <trkpt lat="48.64803" lon="-3.26035">
        <ele>101</ele>
        <time>2015-02-15T08:44:08Z</time>
      </trkpt>
      <trkpt lat="48.64806" lon="-3.26022">
        <ele>101</ele>
        <time>2015-02-15T08:44:09Z</time>
      </trkpt>
      <trkpt lat="48.6481" lon="-3.26008">
        <ele>101</ele>
        <time>2015-02-15T08:44:10Z</time>
      </trkpt>
      <trkpt lat="48.64814" lon="-3.25996">
        <ele>100</ele>
        <time>2015-02-15T08:44:11Z</time>
      </trkpt>
      <trkpt lat="48.64817" lon="-3.25984">
        <ele>100</ele>
        <time>2015-02-15T08:44:12Z</time>
      </trkpt>
      <trkpt lat="48.64821" lon="-3.25972">
        <ele>100</ele>
        <time>2015-02-15T08:44:13Z</time>
      </trkpt>
      <trkpt lat="48.64825" lon="-3.25961">
        <ele>100</ele>
        <time>2015-02-15T08:44:14Z</time>
      </trkpt>
      <trkpt lat="48.6483" lon="-3.25951">
        <ele>100</ele>
        <time>2015-02-15T08:44:15Z</time>
      </trkpt>
      <trkpt lat="48.64835" lon="-3.25941">
        <ele>100</ele>
        <time>2015-02-15T08:44:16Z</time>
      </trkpt>
      <trkpt lat="48.6484" lon="-3.25932">
        <ele>100</ele>
        <time>2015-02-15T08:44:17Z</time>
      </trkpt>
      <trkpt lat="48.64845" lon="-3.25922">
        <ele>100</ele>
        <time>2015-02-15T08:44:18Z</time>
      </trkpt>
      <trkpt lat="48.64851" lon="-3.25913">
        <ele>100</ele>
        <time>2015-02-15T08:44:19Z</time>
      </trkpt>
      <trkpt lat="48.64856" lon="-3.25904">
        <ele>99</ele>
        <time>2015-02-15T08:44:20Z</time>
      </trkpt>
      <trkpt lat="48.64862" lon="-3.25895">
        <ele>99</ele>
        <time>2015-02-15T08:44:21Z</time>
      </trkpt>
      <trkpt lat="48.64869" lon="-3.25886">
        <ele>99</ele>
        <time>2015-02-15T08:44:22Z</time>
      </trkpt>
      <trkpt lat="48.64875" lon="-3.25878">
        <ele>99</ele>
        <time>2015-02-15T08:44:23Z</time>
      </trkpt>
      <trkpt lat="48.64882" lon="-3.25871">
        <ele>98</ele>
        <time>2015-02-15T08:44:24Z</time>
      </trkpt>
      <trkpt lat="48.64888" lon="-3.25863">
        <ele>98</ele>
        <time>2015-02-15T08:44:25Z</time>
      </trkpt>
      <trkpt lat="48.64895" lon="-3.25855">
        <ele>98</ele>
        <time>2015-02-15T08:44:26Z</time>
      </trkpt>
      <trkpt lat="48.64902" lon="-3.25847">
        <ele>98</ele>
        <time>2015-02-15T08:44:27Z</time>
      </trkpt>
      <trkpt lat="48.64909" lon="-3.25838">
        <ele>97</ele>
        <time>2015-02-15T08:44:28Z</time>
      </trkpt>
      <trkpt lat="48.64915" lon="-3.25829">
        <ele>97</ele>
        <time>2015-02-15T08:44:29Z</time>
      </trkpt>
      <trkpt lat="48.64922" lon="-3.25818">
        <ele>96</ele>
        <time>2015-02-15T08:44:30Z</time>
      </trkpt>
      <trkpt lat="48.64929" lon="-3.25807">
        <ele>95</ele>
        <time>2015-02-15T08:44:31Z</time>
      </trkpt>
      <trkpt lat="48.64936" lon="-3.25795">
        <ele>94</ele>
        <time>2015-02-15T08:44:32Z</time>
      </trkpt>
      <trkpt lat="48.64943" lon="-3.25784">
        <ele>94</ele>
        <time>2015-02-15T08:44:33Z</time>
      </trkpt>
      <trkpt lat="48.64951" lon="-3.25774">
        <ele>93</ele>
        <time>2015-02-15T08:44:34Z</time>
      </trkpt>
      <trkpt lat="48.64959" lon="-3.25766">
        <ele>93</ele>
        <time>2015-02-15T08:44:35Z</time>
      </trkpt>
      <trkpt lat="48.64965" lon="-3.25758">
        <ele>93</ele>
        <time>2015-02-15T08:44:36Z</time>
      </trkpt>
      <trkpt lat="48.64971" lon="-3.25749">
        <ele>93</ele>
        <time>2015-02-15T08:44:37Z</time>
      </trkpt>
      <trkpt lat="48.64974" lon="-3.25739">
        <ele>93</ele>
        <time>2015-02-15T08:44:38Z</time>
      </trkpt>
      <trkpt lat="48.64976" lon="-3.25729">
        <ele>93</ele>
        <time>2015-02-15T08:44:39Z</time>
      </trkpt>
      <trkpt lat="48.64978" lon="-3.2572">
        <ele>93</ele>
        <time>2015-02-15T08:44:40Z</time>
      </trkpt>
      <trkpt lat="48.6498" lon="-3.25711">
        <ele>93</ele>
        <time>2015-02-15T08:44:41Z</time>
      </trkpt>
      <trkpt lat="48.64982" lon="-3.25704">
        <ele>93</ele>
        <time>2015-02-15T08:44:42Z</time>
      </trkpt>
      <trkpt lat="48.64984" lon="-3.25697">
        <ele>93</ele>
        <time>2015-02-15T08:44:43Z</time>
      </trkpt>
      <trkpt lat="48.64986" lon="-3.2569">
        <ele>93</ele>
        <time>2015-02-15T08:44:44Z</time>
      </trkpt>
      <trkpt lat="48.64987" lon="-3.25684">
        <ele>93</ele>
        <time>2015-02-15T08:44:45Z</time>
      </trkpt>
      <trkpt lat="48.64989" lon="-3.25677">
        <ele>93</ele>
        <time>2015-02-15T08:44:46Z</time>
      </trkpt>
      <trkpt lat="48.6499" lon="-3.2567">
        <ele>93</ele>
        <time>2015-02-15T08:44:47Z</time>
      </trkpt>
      <trkpt lat="48.64992" lon="-3.25662">
        <ele>93</ele>
        <time>2015-02-15T08:44:48Z</time>
      </trkpt>
      <trkpt lat="48.64994" lon="-3.25655">
        <ele>93</ele>
        <time>2015-02-15T08:44:49Z</time>
      </trkpt>
      <trkpt lat="48.64996" lon="-3.25647">
        <ele>93</ele>
        <time>2015-02-15T08:44:50Z</time>
      </trkpt>
      <trkpt lat="48.64997" lon="-3.25638">
        <ele>93</ele>
        <time>2015-02-15T08:44:51Z</time>
      </trkpt>
      <trkpt lat="48.64999" lon="-3.25629">
        <ele>93</ele>
        <time>2015-02-15T08:44:52Z</time>
      </trkpt>
      <trkpt lat="48.65001" lon="-3.25619">
        <ele>93</ele>
        <time>2015-02-15T08:44:53Z</time>
      </trkpt>
      <trkpt lat="48.65003" lon="-3.25609">
        <ele>93</ele>
        <time>2015-02-15T08:44:54Z</time>
      </trkpt>
      <trkpt lat="48.65005" lon="-3.25599">
        <ele>94</ele>
        <time>2015-02-15T08:44:55Z</time>
      </trkpt>
      <trkpt lat="48.65007" lon="-3.25588">
        <ele>94</ele>
        <time>2015-02-15T08:44:56Z</time>
      </trkpt>
      <trkpt lat="48.65009" lon="-3.25578">
        <ele>94</ele>
        <time>2015-02-15T08:44:57Z</time>
      </trkpt>
      <trkpt lat="48.65011" lon="-3.25567">
        <ele>94</ele>
        <time>2015-02-15T08:44:58Z</time>
      </trkpt>
      <trkpt lat="48.65013" lon="-3.25557">
        <ele>94</ele>
        <time>2015-02-15T08:44:59Z</time>
      </trkpt>
      <trkpt lat="48.65016" lon="-3.25547">
        <ele>94</ele>
        <time>2015-02-15T08:45:00Z</time>
      </trkpt>
      <trkpt lat="48.65019" lon="-3.25536">
        <ele>94</ele>
        <time>2015-02-15T08:45:01Z</time>
      </trkpt>
      <trkpt lat="48.65022" lon="-3.25526">
        <ele>94</ele>
        <time>2015-02-15T08:45:02Z</time>
      </trkpt>
      <trkpt lat="48.65025" lon="-3.25515">
        <ele>95</ele>
        <time>2015-02-15T08:45:03Z</time>
      </trkpt>
      <trkpt lat="48.65029" lon="-3.25504">
        <ele>95</ele>
        <time>2015-02-15T08:45:04Z</time>
      </trkpt>
      <trkpt lat="48.65033" lon="-3.25495">
        <ele>95</ele>
        <time>2015-02-15T08:45:05Z</time>
      </trkpt>
      <trkpt lat="48.65039" lon="-3.25485">
        <ele>95</ele>
        <time>2015-02-15T08:45:06Z</time>
      </trkpt>
      <trkpt lat="48.65044" lon="-3.25475">
        <ele>95</ele>
        <time>2015-02-15T08:45:07Z</time>
      </trkpt>
      <trkpt lat="48.65049" lon="-3.25466">
        <ele>95</ele>
        <time>2015-02-15T08:45:08Z</time>
      </trkpt>
      <trkpt lat="48.65055" lon="-3.25457">
        <ele>95</ele>
        <time>2015-02-15T08:45:09Z</time>
      </trkpt>
      <trkpt lat="48.6506" lon="-3.25447">
        <ele>95</ele>
        <time>2015-02-15T08:45:10Z</time>
      </trkpt>
      <trkpt lat="48.65066" lon="-3.25438">
        <ele>95</ele>
        <time>2015-02-15T08:45:11Z</time>
      </trkpt>
      <trkpt lat="48.65072" lon="-3.25428">
        <ele>95</ele>
        <time>2015-02-15T08:45:12Z</time>
      </trkpt>
      <trkpt lat="48.65077" lon="-3.25417">
        <ele>95</ele>
        <time>2015-02-15T08:45:13Z</time>
      </trkpt>
      <trkpt lat="48.65082" lon="-3.25406">
        <ele>95</ele>
        <time>2015-02-15T08:45:14Z</time>
      </trkpt>
      <trkpt lat="48.65087" lon="-3.25395">
        <ele>95</ele>
        <time>2015-02-15T08:45:15Z</time>
      </trkpt>
      <trkpt lat="48.65091" lon="-3.25383">
        <ele>95</ele>
        <time>2015-02-15T08:45:16Z</time>
      </trkpt>
      <trkpt lat="48.65095" lon="-3.2537">
        <ele>95</ele>
        <time>2015-02-15T08:45:17Z</time>
      </trkpt>
      <trkpt lat="48.65099" lon="-3.25358">
        <ele>95</ele>
        <time>2015-02-15T08:45:18Z</time>
      </trkpt>
      <trkpt lat="48.65102" lon="-3.25345">
        <ele>95</ele>
        <time>2015-02-15T08:45:19Z</time>
      </trkpt>
      <trkpt lat="48.65105" lon="-3.25332">
        <ele>95</ele>
        <time>2015-02-15T08:45:20Z</time>
      </trkpt>
      <trkpt lat="48.65108" lon="-3.25318">
        <ele>95</ele>
        <time>2015-02-15T08:45:21Z</time>
      </trkpt>
      <trkpt lat="48.65111" lon="-3.25304">
        <ele>95</ele>
        <time>2015-02-15T08:45:22Z</time>
      </trkpt>
      <trkpt lat="48.65113" lon="-3.2529">
        <ele>95</ele>
        <time>2015-02-15T08:45:23Z</time>
      </trkpt>
      <trkpt lat="48.65116" lon="-3.25275">
        <ele>95</ele>
        <time>2015-02-15T08:45:24Z</time>
      </trkpt>
      <trkpt lat="48.65118" lon="-3.2526">
        <ele>95</ele>
        <time>2015-02-15T08:45:25Z</time>
      </trkpt>
      <trkpt lat="48.65121" lon="-3.25245">
        <ele>95</ele>
        <time>2015-02-15T08:45:26Z</time>
      </trkpt>
      <trkpt lat="48.65123" lon="-3.25229">
        <ele>95</ele>
        <time>2015-02-15T08:45:27Z</time>
      </trkpt>
      <trkpt lat="48.65126" lon="-3.25214">
        <ele>95</ele>
        <time>2015-02-15T08:45:28Z</time>
      </trkpt>
      <trkpt lat="48.65128" lon="-3.25198">
        <ele>95</ele>
        <time>2015-02-15T08:45:29Z</time>
      </trkpt>
      <trkpt lat="48.65131" lon="-3.25182">
        <ele>95</ele>
        <time>2015-02-15T08:45:30Z</time>
      </trkpt>
      <trkpt lat="48.65133" lon="-3.25167">
        <ele>95</ele>
        <time>2015-02-15T08:45:31Z</time>
      </trkpt>
      <trkpt lat="48.65136" lon="-3.25151">
        <ele>95</ele>
        <time>2015-02-15T08:45:32Z</time>
      </trkpt>
      <trkpt lat="48.6514" lon="-3.25136">
        <ele>95</ele>
        <time>2015-02-15T08:45:33Z</time>
      </trkpt>
      <trkpt lat="48.65144" lon="-3.25123">
        <ele>95</ele>
        <time>2015-02-15T08:45:34Z</time>
      </trkpt>
      <trkpt lat="48.65151" lon="-3.25111">
        <ele>95</ele>
        <time>2015-02-15T08:45:35Z</time>
      </trkpt>
      <trkpt lat="48.65158" lon="-3.25101">
        <ele>95</ele>
        <time>2015-02-15T08:45:36Z</time>
      </trkpt>
      <trkpt lat="48.65166" lon="-3.25094">
        <ele>95</ele>
        <time>2015-02-15T08:45:37Z</time>
      </trkpt>
      <trkpt lat="48.65175" lon="-3.2509">
        <ele>95</ele>
        <time>2015-02-15T08:45:38Z</time>
      </trkpt>
      <trkpt lat="48.65184" lon="-3.25087">
        <ele>95</ele>
        <time>2015-02-15T08:45:39Z</time>
      </trkpt>
      <trkpt lat="48.65194" lon="-3.25087">
        <ele>95</ele>
        <time>2015-02-15T08:45:40Z</time>
      </trkpt>
      <trkpt lat="48.65203" lon="-3.25088">
        <ele>94</ele>
        <time>2015-02-15T08:45:41Z</time>
      </trkpt>
      <trkpt lat="48.65213" lon="-3.2509">
        <ele>94</ele>
        <time>2015-02-15T08:45:42Z</time>
      </trkpt>
      <trkpt lat="48.65223" lon="-3.25093">
        <ele>94</ele>
        <time>2015-02-15T08:45:43Z</time>
      </trkpt>
      <trkpt lat="48.65232" lon="-3.25096">
        <ele>94</ele>
        <time>2015-02-15T08:45:44Z</time>
      </trkpt>
      <trkpt lat="48.65242" lon="-3.25099">
        <ele>94</ele>
        <time>2015-02-15T08:45:45Z</time>
      </trkpt>
      <trkpt lat="48.65251" lon="-3.25102">
        <ele>94</ele>
        <time>2015-02-15T08:45:46Z</time>
      </trkpt>
      <trkpt lat="48.65261" lon="-3.25106">
        <ele>94</ele>
        <time>2015-02-15T08:45:47Z</time>
      </trkpt>
      <trkpt lat="48.6527" lon="-3.25109">
        <ele>93</ele>
        <time>2015-02-15T08:45:48Z</time>
      </trkpt>
      <trkpt lat="48.6528" lon="-3.25112">
        <ele>93</ele>
        <time>2015-02-15T08:45:49Z</time>
      </trkpt>
      <trkpt lat="48.65289" lon="-3.25115">
        <ele>93</ele>
        <time>2015-02-15T08:45:50Z</time>
      </trkpt>
      <trkpt lat="48.65298" lon="-3.25118">
        <ele>93</ele>
        <time>2015-02-15T08:45:51Z</time>
      </trkpt>
      <trkpt lat="48.65308" lon="-3.25121">
        <ele>92</ele>
        <time>2015-02-15T08:45:52Z</time>
      </trkpt>
      <trkpt lat="48.65317" lon="-3.25125">
        <ele>92</ele>
        <time>2015-02-15T08:45:53Z</time>
      </trkpt>
      <trkpt lat="48.65326" lon="-3.25128">
        <ele>92</ele>
        <time>2015-02-15T08:45:54Z</time>
      </trkpt>
      <trkpt lat="48.65336" lon="-3.25132">
        <ele>92</ele>
        <time>2015-02-15T08:45:55Z</time>
      </trkpt>
      <trkpt lat="48.65345" lon="-3.25135">
        <ele>92</ele>
        <time>2015-02-15T08:45:56Z</time>
      </trkpt>
      <trkpt lat="48.65354" lon="-3.25139">
        <ele>91</ele>
        <time>2015-02-15T08:45:57Z</time>
      </trkpt>
      <trkpt lat="48.65364" lon="-3.25142">
        <ele>91</ele>
        <time>2015-02-15T08:45:58Z</time>
      </trkpt>
      <trkpt lat="48.65374" lon="-3.25143">
        <ele>91</ele>
        <time>2015-02-15T08:45:59Z</time>
      </trkpt>
      <trkpt lat="48.65384" lon="-3.25142">
        <ele>91</ele>
        <time>2015-02-15T08:46:00Z</time>
      </trkpt>
      <trkpt lat="48.65393" lon="-3.25139">
        <ele>90</ele>
        <time>2015-02-15T08:46:01Z</time>
      </trkpt>
      <trkpt lat="48.65403" lon="-3.25132">
        <ele>90</ele>
        <time>2015-02-15T08:46:02Z</time>
      </trkpt>
      <trkpt lat="48.65411" lon="-3.25122">
        <ele>89</ele>
        <time>2015-02-15T08:46:03Z</time>
      </trkpt>
      <trkpt lat="48.65419" lon="-3.2511">
        <ele>88</ele>
        <time>2015-02-15T08:46:04Z</time>
      </trkpt>
      <trkpt lat="48.65425" lon="-3.25097">
        <ele>88</ele>
        <time>2015-02-15T08:46:05Z</time>
      </trkpt>
      <trkpt lat="48.65432" lon="-3.25084">
        <ele>87</ele>
        <time>2015-02-15T08:46:06Z</time>
      </trkpt>
      <trkpt lat="48.65439" lon="-3.25072">
        <ele>87</ele>
        <time>2015-02-15T08:46:07Z</time>
      </trkpt>
      <trkpt lat="48.65448" lon="-3.2506">
        <ele>86</ele>
        <time>2015-02-15T08:46:08Z</time>
      </trkpt>
      <trkpt lat="48.65457" lon="-3.2505">
        <ele>85</ele>
        <time>2015-02-15T08:46:09Z</time>
      </trkpt>
      <trkpt lat="48.65466" lon="-3.25039">
        <ele>84</ele>
        <time>2015-02-15T08:46:10Z</time>
      </trkpt>
      <trkpt lat="48.65475" lon="-3.25028">
        <ele>84</ele>
        <time>2015-02-15T08:46:11Z</time>
      </trkpt>
      <trkpt lat="48.65483" lon="-3.25016">
        <ele>83</ele>
        <time>2015-02-15T08:46:12Z</time>
      </trkpt>
      <trkpt lat="48.65489" lon="-3.25003">
        <ele>82</ele>
        <time>2015-02-15T08:46:13Z</time>
      </trkpt>
      <trkpt lat="48.65494" lon="-3.24988">
        <ele>82</ele>
        <time>2015-02-15T08:46:14Z</time>
      </trkpt>
      <trkpt lat="48.65497" lon="-3.24973">
        <ele>81</ele>
        <time>2015-02-15T08:46:15Z</time>
      </trkpt>
      <trkpt lat="48.655" lon="-3.24958">
        <ele>80</ele>
        <time>2015-02-15T08:46:16Z</time>
      </trkpt>
      <trkpt lat="48.65502" lon="-3.24942">
        <ele>80</ele>
        <time>2015-02-15T08:46:17Z</time>
      </trkpt>
      <trkpt lat="48.65503" lon="-3.24927">
        <ele>79</ele>
        <time>2015-02-15T08:46:18Z</time>
      </trkpt>
      <trkpt lat="48.65503" lon="-3.24911">
        <ele>78</ele>
        <time>2015-02-15T08:46:19Z</time>
      </trkpt>
      <trkpt lat="48.65501" lon="-3.24896">
        <ele>78</ele>
        <time>2015-02-15T08:46:20Z</time>
      </trkpt>
      <trkpt lat="48.65496" lon="-3.24882">
        <ele>77</ele>
        <time>2015-02-15T08:46:21Z</time>
      </trkpt>
      <trkpt lat="48.6549" lon="-3.24868">
        <ele>77</ele>
        <time>2015-02-15T08:46:22Z</time>
      </trkpt>
      <trkpt lat="48.65483" lon="-3.24856">
        <ele>76</ele>
        <time>2015-02-15T08:46:23Z</time>
      </trkpt>
      <trkpt lat="48.65475" lon="-3.24845">
        <ele>75</ele>
        <time>2015-02-15T08:46:24Z</time>
      </trkpt>
      <trkpt lat="48.65467" lon="-3.24835">
        <ele>74</ele>
        <time>2015-02-15T08:46:25Z</time>
      </trkpt>
      <trkpt lat="48.65459" lon="-3.24824">
        <ele>74</ele>
        <time>2015-02-15T08:46:26Z</time>
      </trkpt>
      <trkpt lat="48.65451" lon="-3.24813">
        <ele>73</ele>
        <time>2015-02-15T08:46:27Z</time>
      </trkpt>
      <trkpt lat="48.65443" lon="-3.24802">
        <ele>72</ele>
        <time>2015-02-15T08:46:28Z</time>
      </trkpt>
      <trkpt lat="48.65435" lon="-3.2479">
        <ele>71</ele>
        <time>2015-02-15T08:46:29Z</time>
      </trkpt>
      <trkpt lat="48.65428" lon="-3.24778">
        <ele>70</ele>
        <time>2015-02-15T08:46:30Z</time>
      </trkpt>
      <trkpt lat="48.65422" lon="-3.24764">
        <ele>69</ele>
        <time>2015-02-15T08:46:31Z</time>
      </trkpt>
      <trkpt lat="48.65417" lon="-3.24749">
        <ele>68</ele>
        <time>2015-02-15T08:46:32Z</time>
      </trkpt>
      <trkpt lat="48.65412" lon="-3.24732">
        <ele>68</ele>
        <time>2015-02-15T08:46:33Z</time>
      </trkpt>
      <trkpt lat="48.65407" lon="-3.24714">
        <ele>68</ele>
        <time>2015-02-15T08:46:34Z</time>
      </trkpt>
      <trkpt lat="48.65403" lon="-3.24697">
        <ele>67</ele>
        <time>2015-02-15T08:46:35Z</time>
      </trkpt>
      <trkpt lat="48.65398" lon="-3.24679">
        <ele>67</ele>
        <time>2015-02-15T08:46:36Z</time>
      </trkpt>
      <trkpt lat="48.65395" lon="-3.24661">
        <ele>67</ele>
        <time>2015-02-15T08:46:37Z</time>
      </trkpt>
      <trkpt lat="48.65391" lon="-3.24642">
        <ele>67</ele>
        <time>2015-02-15T08:46:38Z</time>
      </trkpt>
      <trkpt lat="48.65389" lon="-3.24624">
        <ele>66</ele>
        <time>2015-02-15T08:46:39Z</time>
      </trkpt>
      <trkpt lat="48.65388" lon="-3.24604">
        <ele>66</ele>
        <time>2015-02-15T08:46:40Z</time>
      </trkpt>
      <trkpt lat="48.65387" lon="-3.24585">
        <ele>66</ele>
        <time>2015-02-15T08:46:41Z</time>
      </trkpt>
      <trkpt lat="48.65388" lon="-3.24545">
        <ele>65</ele>
        <time>2015-02-15T08:46:43Z</time>
      </trkpt>
      <trkpt lat="48.65387" lon="-3.24484">
        <ele>63</ele>
        <time>2015-02-15T08:46:46Z</time>
      </trkpt>
      <trkpt lat="48.65385" lon="-3.24465">
        <ele>63</ele>
        <time>2015-02-15T08:46:47Z</time>
      </trkpt>
      <trkpt lat="48.65382" lon="-3.24445">
        <ele>62</ele>
        <time>2015-02-15T08:46:48Z</time>
      </trkpt>
      <trkpt lat="48.65379" lon="-3.24426">
        <ele>62</ele>
        <time>2015-02-15T08:46:49Z</time>
      </trkpt>
      <trkpt lat="48.65376" lon="-3.24406">
        <ele>61</ele>
        <time>2015-02-15T08:46:50Z</time>
      </trkpt>
      <trkpt lat="48.65372" lon="-3.24387">
        <ele>60</ele>
        <time>2015-02-15T08:46:51Z</time>
      </trkpt>
      <trkpt lat="48.6537" lon="-3.24369">
        <ele>60</ele>
        <time>2015-02-15T08:46:52Z</time>
      </trkpt>
      <trkpt lat="48.65368" lon="-3.24351">
        <ele>59</ele>
        <time>2015-02-15T08:46:53Z</time>
      </trkpt>
      <trkpt lat="48.65367" lon="-3.24333">
        <ele>59</ele>
        <time>2015-02-15T08:46:54Z</time>
      </trkpt>
      <trkpt lat="48.65367" lon="-3.24316">
        <ele>58</ele>
        <time>2015-02-15T08:46:55Z</time>
      </trkpt>
      <trkpt lat="48.65367" lon="-3.24298">
        <ele>57</ele>
        <time>2015-02-15T08:46:56Z</time>
      </trkpt>
      <trkpt lat="48.65368" lon="-3.24281">
        <ele>57</ele>
        <time>2015-02-15T08:46:57Z</time>
      </trkpt>
      <trkpt lat="48.6537" lon="-3.24263">
        <ele>56</ele>
        <time>2015-02-15T08:46:58Z</time>
      </trkpt>
      <trkpt lat="48.65374" lon="-3.24246">
        <ele>55</ele>
        <time>2015-02-15T08:46:59Z</time>
      </trkpt>
      <trkpt lat="48.65379" lon="-3.2423">
        <ele>55</ele>
        <time>2015-02-15T08:47:00Z</time>
      </trkpt>
      <trkpt lat="48.65384" lon="-3.24214">
        <ele>54</ele>
        <time>2015-02-15T08:47:01Z</time>
      </trkpt>
      <trkpt lat="48.65391" lon="-3.24199">
        <ele>53</ele>
        <time>2015-02-15T08:47:02Z</time>
      </trkpt>
      <trkpt lat="48.65398" lon="-3.24185">
        <ele>52</ele>
        <time>2015-02-15T08:47:03Z</time>
      </trkpt>
      <trkpt lat="48.65406" lon="-3.24171">
        <ele>51</ele>
        <time>2015-02-15T08:47:04Z</time>
      </trkpt>
      <trkpt lat="48.65413" lon="-3.24158">
        <ele>50</ele>
        <time>2015-02-15T08:47:05Z</time>
      </trkpt>
      <trkpt lat="48.6542" lon="-3.24145">
        <ele>50</ele>
        <time>2015-02-15T08:47:06Z</time>
      </trkpt>
      <trkpt lat="48.65427" lon="-3.24132">
        <ele>50</ele>
        <time>2015-02-15T08:47:07Z</time>
      </trkpt>
      <trkpt lat="48.65434" lon="-3.2412">
        <ele>49</ele>
        <time>2015-02-15T08:47:08Z</time>
      </trkpt>
      <trkpt lat="48.65442" lon="-3.24109">
        <ele>49</ele>
        <time>2015-02-15T08:47:09Z</time>
      </trkpt>
      <trkpt lat="48.65449" lon="-3.24099">
        <ele>49</ele>
        <time>2015-02-15T08:47:10Z</time>
      </trkpt>
      <trkpt lat="48.65458" lon="-3.2409">
        <ele>49</ele>
        <time>2015-02-15T08:47:11Z</time>
      </trkpt>
      <trkpt lat="48.65467" lon="-3.24082">
        <ele>49</ele>
        <time>2015-02-15T08:47:12Z</time>
      </trkpt>
      <trkpt lat="48.65475" lon="-3.24075">
        <ele>49</ele>
        <time>2015-02-15T08:47:13Z</time>
      </trkpt>
      <trkpt lat="48.65485" lon="-3.24068">
        <ele>49</ele>
        <time>2015-02-15T08:47:14Z</time>
      </trkpt>
      <trkpt lat="48.65494" lon="-3.24061">
        <ele>49</ele>
        <time>2015-02-15T08:47:15Z</time>
      </trkpt>
      <trkpt lat="48.65503" lon="-3.24055">
        <ele>49</ele>
        <time>2015-02-15T08:47:16Z</time>
      </trkpt>
      <trkpt lat="48.65512" lon="-3.24049">
        <ele>49</ele>
        <time>2015-02-15T08:47:17Z</time>
      </trkpt>
      <trkpt lat="48.65522" lon="-3.24043">
        <ele>49</ele>
        <time>2015-02-15T08:47:18Z</time>
      </trkpt>
      <trkpt lat="48.65531" lon="-3.24037">
        <ele>49</ele>
        <time>2015-02-15T08:47:19Z</time>
      </trkpt>
      <trkpt lat="48.65539" lon="-3.2403">
        <ele>49</ele>
        <time>2015-02-15T08:47:20Z</time>
      </trkpt>
      <trkpt lat="48.65548" lon="-3.24024">
        <ele>49</ele>
        <time>2015-02-15T08:47:21Z</time>
      </trkpt>
      <trkpt lat="48.65556" lon="-3.24018">
        <ele>49</ele>
        <time>2015-02-15T08:47:22Z</time>
      </trkpt>
      <trkpt lat="48.65564" lon="-3.24012">
        <ele>49</ele>
        <time>2015-02-15T08:47:23Z</time>
      </trkpt>
      <trkpt lat="48.65572" lon="-3.24005">
        <ele>49</ele>
        <time>2015-02-15T08:47:24Z</time>
      </trkpt>
      <trkpt lat="48.65579" lon="-3.23999">
        <ele>49</ele>
        <time>2015-02-15T08:47:25Z</time>
      </trkpt>
      <trkpt lat="48.65587" lon="-3.23994">
        <ele>49</ele>
        <time>2015-02-15T08:47:26Z</time>
      </trkpt>
      <trkpt lat="48.65594" lon="-3.23992">
        <ele>49</ele>
        <time>2015-02-15T08:47:27Z</time>
      </trkpt>
      <trkpt lat="48.656" lon="-3.2399">
        <ele>49</ele>
        <time>2015-02-15T08:47:28Z</time>
      </trkpt>
      <trkpt lat="48.65607" lon="-3.23988">
        <ele>49</ele>
        <time>2015-02-15T08:47:29Z</time>
      </trkpt>
      <trkpt lat="48.65614" lon="-3.23986">
        <ele>49</ele>
        <time>2015-02-15T08:47:30Z</time>
      </trkpt>
      <trkpt lat="48.65621" lon="-3.23984">
        <ele>49</ele>
        <time>2015-02-15T08:47:31Z</time>
      </trkpt>
      <trkpt lat="48.65628" lon="-3.23981">
        <ele>49</ele>
        <time>2015-02-15T08:47:32Z</time>
      </trkpt>
      <trkpt lat="48.65636" lon="-3.23979">
        <ele>49</ele>
        <time>2015-02-15T08:47:33Z</time>
      </trkpt>
      <trkpt lat="48.65643" lon="-3.23975">
        <ele>49</ele>
        <time>2015-02-15T08:47:34Z</time>
      </trkpt>
      <trkpt lat="48.6565" lon="-3.23973">
        <ele>49</ele>
        <time>2015-02-15T08:47:35Z</time>
      </trkpt>
      <trkpt lat="48.65657" lon="-3.23971">
        <ele>49</ele>
        <time>2015-02-15T08:47:36Z</time>
      </trkpt>
      <trkpt lat="48.65665" lon="-3.23967">
        <ele>49</ele>
        <time>2015-02-15T08:47:37Z</time>
      </trkpt>
      <trkpt lat="48.65674" lon="-3.23963">
        <ele>49</ele>
        <time>2015-02-15T08:47:38Z</time>
      </trkpt>
      <trkpt lat="48.65681" lon="-3.23957">
        <ele>49</ele>
        <time>2015-02-15T08:47:39Z</time>
      </trkpt>
      <trkpt lat="48.65688" lon="-3.23953">
        <ele>49</ele>
        <time>2015-02-15T08:47:40Z</time>
      </trkpt>
      <trkpt lat="48.65696" lon="-3.23947">
        <ele>50</ele>
        <time>2015-02-15T08:47:41Z</time>
      </trkpt>
      <trkpt lat="48.65703" lon="-3.23943">
        <ele>50</ele>
        <time>2015-02-15T08:47:42Z</time>
      </trkpt>
      <trkpt lat="48.6571" lon="-3.23938">
        <ele>50</ele>
        <time>2015-02-15T08:47:43Z</time>
      </trkpt>
      <trkpt lat="48.65717" lon="-3.23935">
        <ele>50</ele>
        <time>2015-02-15T08:47:44Z</time>
      </trkpt>
      <trkpt lat="48.65725" lon="-3.23931">
        <ele>50</ele>
        <time>2015-02-15T08:47:45Z</time>
      </trkpt>
      <trkpt lat="48.65732" lon="-3.23926">
        <ele>50</ele>
        <time>2015-02-15T08:47:46Z</time>
      </trkpt>
      <trkpt lat="48.65739" lon="-3.23922">
        <ele>50</ele>
        <time>2015-02-15T08:47:47Z</time>
      </trkpt>
      <trkpt lat="48.65747" lon="-3.23918">
        <ele>50</ele>
        <time>2015-02-15T08:47:48Z</time>
      </trkpt>
      <trkpt lat="48.65754" lon="-3.23914">
        <ele>50</ele>
        <time>2015-02-15T08:47:49Z</time>
      </trkpt>
      <trkpt lat="48.65761" lon="-3.2391">
        <ele>50</ele>
        <time>2015-02-15T08:47:50Z</time>
      </trkpt>
      <trkpt lat="48.65768" lon="-3.23905">
        <ele>50</ele>
        <time>2015-02-15T08:47:51Z</time>
      </trkpt>
      <trkpt lat="48.65776" lon="-3.23902">
        <ele>50</ele>
        <time>2015-02-15T08:47:52Z</time>
      </trkpt>
      <trkpt lat="48.65784" lon="-3.23897">
        <ele>50</ele>
        <time>2015-02-15T08:47:53Z</time>
      </trkpt>
      <trkpt lat="48.65792" lon="-3.23894">
        <ele>50</ele>
        <time>2015-02-15T08:47:54Z</time>
      </trkpt>
      <trkpt lat="48.65799" lon="-3.2389">
        <ele>50</ele>
        <time>2015-02-15T08:47:55Z</time>
      </trkpt>
      <trkpt lat="48.65807" lon="-3.23885">
        <ele>50</ele>
        <time>2015-02-15T08:47:56Z</time>
      </trkpt>
      <trkpt lat="48.65814" lon="-3.23882">
        <ele>50</ele>
        <time>2015-02-15T08:47:57Z</time>
      </trkpt>
      <trkpt lat="48.65821" lon="-3.23878">
        <ele>50</ele>
        <time>2015-02-15T08:47:58Z</time>
      </trkpt>
      <trkpt lat="48.65828" lon="-3.23874">
        <ele>50</ele>
        <time>2015-02-15T08:47:59Z</time>
      </trkpt>
      <trkpt lat="48.65836" lon="-3.23871">
        <ele>50</ele>
        <time>2015-02-15T08:48:00Z</time>
      </trkpt>
      <trkpt lat="48.65842" lon="-3.23867">
        <ele>50</ele>
        <time>2015-02-15T08:48:01Z</time>
      </trkpt>
      <trkpt lat="48.65849" lon="-3.23863">
        <ele>50</ele>
        <time>2015-02-15T08:48:02Z</time>
      </trkpt>
      <trkpt lat="48.65856" lon="-3.23858">
        <ele>50</ele>
        <time>2015-02-15T08:48:03Z</time>
      </trkpt>
      <trkpt lat="48.65863" lon="-3.23854">
        <ele>50</ele>
        <time>2015-02-15T08:48:04Z</time>
      </trkpt>
      <trkpt lat="48.6587" lon="-3.23849">
        <ele>50</ele>
        <time>2015-02-15T08:48:05Z</time>
      </trkpt>
      <trkpt lat="48.65876" lon="-3.23843">
        <ele>50</ele>
        <time>2015-02-15T08:48:06Z</time>
      </trkpt>
      <trkpt lat="48.65883" lon="-3.23837">
        <ele>50</ele>
        <time>2015-02-15T08:48:07Z</time>
      </trkpt>
      <trkpt lat="48.65889" lon="-3.2383">
        <ele>50</ele>
        <time>2015-02-15T08:48:08Z</time>
      </trkpt>
      <trkpt lat="48.65894" lon="-3.23821">
        <ele>50</ele>
        <time>2015-02-15T08:48:09Z</time>
      </trkpt>
      <trkpt lat="48.65899" lon="-3.23811">
        <ele>50</ele>
        <time>2015-02-15T08:48:10Z</time>
      </trkpt>
      <trkpt lat="48.65903" lon="-3.238">
        <ele>50</ele>
        <time>2015-02-15T08:48:11Z</time>
      </trkpt>
      <trkpt lat="48.65906" lon="-3.23788">
        <ele>50</ele>
        <time>2015-02-15T08:48:12Z</time>
      </trkpt>
      <trkpt lat="48.65909" lon="-3.23776">
        <ele>50</ele>
        <time>2015-02-15T08:48:13Z</time>
      </trkpt>
      <trkpt lat="48.65911" lon="-3.23764">
        <ele>50</ele>
        <time>2015-02-15T08:48:14Z</time>
      </trkpt>
      <trkpt lat="48.65913" lon="-3.23753">
        <ele>50</ele>
        <time>2015-02-15T08:48:15Z</time>
      </trkpt>
      <trkpt lat="48.65915" lon="-3.23741">
        <ele>50</ele>
        <time>2015-02-15T08:48:16Z</time>
      </trkpt>
      <trkpt lat="48.65917" lon="-3.2373">
        <ele>50</ele>
        <time>2015-02-15T08:48:17Z</time>
      </trkpt>
      <trkpt lat="48.6592" lon="-3.23719">
        <ele>50</ele>
        <time>2015-02-15T08:48:18Z</time>
      </trkpt>
      <trkpt lat="48.65923" lon="-3.23708">
        <ele>50</ele>
        <time>2015-02-15T08:48:19Z</time>
      </trkpt>
      <trkpt lat="48.65925" lon="-3.23697">
        <ele>50</ele>
        <time>2015-02-15T08:48:20Z</time>
      </trkpt>
      <trkpt lat="48.65928" lon="-3.23686">
        <ele>50</ele>
        <time>2015-02-15T08:48:21Z</time>
      </trkpt>
      <trkpt lat="48.65931" lon="-3.23675">
        <ele>50</ele>
        <time>2015-02-15T08:48:22Z</time>
      </trkpt>
      <trkpt lat="48.65934" lon="-3.23664">
        <ele>50</ele>
        <time>2015-02-15T08:48:23Z</time>
      </trkpt>
      <trkpt lat="48.65937" lon="-3.23653">
        <ele>50</ele>
        <time>2015-02-15T08:48:24Z</time>
      </trkpt>
      <trkpt lat="48.6594" lon="-3.23642">
        <ele>50</ele>
        <time>2015-02-15T08:48:25Z</time>
      </trkpt>
      <trkpt lat="48.65944" lon="-3.23632">
        <ele>50</ele>
        <time>2015-02-15T08:48:26Z</time>
      </trkpt>
      <trkpt lat="48.65947" lon="-3.23622">
        <ele>50</ele>
        <time>2015-02-15T08:48:27Z</time>
      </trkpt>
      <trkpt lat="48.6595" lon="-3.23612">
        <ele>50</ele>
        <time>2015-02-15T08:48:28Z</time>
      </trkpt>
      <trkpt lat="48.65954" lon="-3.23602">
        <ele>50</ele>
        <time>2015-02-15T08:48:29Z</time>
      </trkpt>
      <trkpt lat="48.65957" lon="-3.23593">
        <ele>51</ele>
        <time>2015-02-15T08:48:30Z</time>
      </trkpt>
      <trkpt lat="48.6596" lon="-3.23585">
        <ele>51</ele>
        <time>2015-02-15T08:48:31Z</time>
      </trkpt>
      <trkpt lat="48.65963" lon="-3.23576">
        <ele>52</ele>
        <time>2015-02-15T08:48:32Z</time>
      </trkpt>
      <trkpt lat="48.65966" lon="-3.23568">
        <ele>52</ele>
        <time>2015-02-15T08:48:33Z</time>
      </trkpt>
      <trkpt lat="48.6597" lon="-3.2356">
        <ele>53</ele>
        <time>2015-02-15T08:48:34Z</time>
      </trkpt>
      <trkpt lat="48.65973" lon="-3.23552">
        <ele>53</ele>
        <time>2015-02-15T08:48:35Z</time>
      </trkpt>
      <trkpt lat="48.65977" lon="-3.23545">
        <ele>54</ele>
        <time>2015-02-15T08:48:36Z</time>
      </trkpt>
      <trkpt lat="48.65981" lon="-3.23537">
        <ele>54</ele>
        <time>2015-02-15T08:48:37Z</time>
      </trkpt>
      <trkpt lat="48.65984" lon="-3.2353">
        <ele>55</ele>
        <time>2015-02-15T08:48:38Z</time>
      </trkpt>
      <trkpt lat="48.65987" lon="-3.23523">
        <ele>55</ele>
        <time>2015-02-15T08:48:39Z</time>
      </trkpt>
      <trkpt lat="48.6599" lon="-3.23516">
        <ele>55</ele>
        <time>2015-02-15T08:48:40Z</time>
      </trkpt>
      <trkpt lat="48.65994" lon="-3.2351">
        <ele>56</ele>
        <time>2015-02-15T08:48:41Z</time>
      </trkpt>
      <trkpt lat="48.65997" lon="-3.23503">
        <ele>56</ele>
        <time>2015-02-15T08:48:42Z</time>
      </trkpt>
      <trkpt lat="48.66" lon="-3.23497">
        <ele>57</ele>
        <time>2015-02-15T08:48:43Z</time>
      </trkpt>
      <trkpt lat="48.66003" lon="-3.2349">
        <ele>57</ele>
        <time>2015-02-15T08:48:44Z</time>
      </trkpt>
      <trkpt lat="48.66006" lon="-3.23483">
        <ele>58</ele>
        <time>2015-02-15T08:48:45Z</time>
      </trkpt>
      <trkpt lat="48.66009" lon="-3.23477">
        <ele>58</ele>
        <time>2015-02-15T08:48:46Z</time>
      </trkpt>
      <trkpt lat="48.66012" lon="-3.2347">
        <ele>59</ele>
        <time>2015-02-15T08:48:47Z</time>
      </trkpt>
      <trkpt lat="48.66016" lon="-3.23464">
        <ele>59</ele>
        <time>2015-02-15T08:48:48Z</time>
      </trkpt>
      <trkpt lat="48.66019" lon="-3.23457">
        <ele>60</ele>
        <time>2015-02-15T08:48:49Z</time>
      </trkpt>
      <trkpt lat="48.66022" lon="-3.23451">
        <ele>60</ele>
        <time>2015-02-15T08:48:50Z</time>
      </trkpt>
      <trkpt lat="48.66025" lon="-3.23445">
        <ele>60</ele>
        <time>2015-02-15T08:48:51Z</time>
      </trkpt>
      <trkpt lat="48.66028" lon="-3.23438">
        <ele>61</ele>
        <time>2015-02-15T08:48:52Z</time>
      </trkpt>
      <trkpt lat="48.66031" lon="-3.23432">
        <ele>61</ele>
        <time>2015-02-15T08:48:53Z</time>
      </trkpt>
      <trkpt lat="48.66034" lon="-3.23426">
        <ele>61</ele>
        <time>2015-02-15T08:48:54Z</time>
      </trkpt>
      <trkpt lat="48.66037" lon="-3.23419">
        <ele>61</ele>
        <time>2015-02-15T08:48:55Z</time>
      </trkpt>
      <trkpt lat="48.6604" lon="-3.23412">
        <ele>62</ele>
        <time>2015-02-15T08:48:56Z</time>
      </trkpt>
      <trkpt lat="48.66042" lon="-3.23406">
        <ele>62</ele>
        <time>2015-02-15T08:48:57Z</time>
      </trkpt>
      <trkpt lat="48.66044" lon="-3.23398">
        <ele>62</ele>
        <time>2015-02-15T08:48:58Z</time>
      </trkpt>
      <trkpt lat="48.66046" lon="-3.2339">
        <ele>62</ele>
        <time>2015-02-15T08:48:59Z</time>
      </trkpt>
      <trkpt lat="48.66048" lon="-3.23382">
        <ele>62</ele>
        <time>2015-02-15T08:49:00Z</time>
      </trkpt>
      <trkpt lat="48.66049" lon="-3.23373">
        <ele>62</ele>
        <time>2015-02-15T08:49:01Z</time>
      </trkpt>
      <trkpt lat="48.6605" lon="-3.23365">
        <ele>62</ele>
        <time>2015-02-15T08:49:02Z</time>
      </trkpt>
      <trkpt lat="48.6605" lon="-3.23356">
        <ele>62</ele>
        <time>2015-02-15T08:49:03Z</time>
      </trkpt>
      <trkpt lat="48.6605" lon="-3.23329">
        <ele>63</ele>
        <time>2015-02-15T08:49:06Z</time>
      </trkpt>
      <trkpt lat="48.66049" lon="-3.2332">
        <ele>64</ele>
        <time>2015-02-15T08:49:07Z</time>
      </trkpt>
      <trkpt lat="48.66048" lon="-3.23311">
        <ele>64</ele>
        <time>2015-02-15T08:49:08Z</time>
      </trkpt>
      <trkpt lat="48.66046" lon="-3.23303">
        <ele>64</ele>
        <time>2015-02-15T08:49:09Z</time>
      </trkpt>
      <trkpt lat="48.66043" lon="-3.23295">
        <ele>65</ele>
        <time>2015-02-15T08:49:10Z</time>
      </trkpt>
      <trkpt lat="48.6604" lon="-3.23288">
        <ele>65</ele>
        <time>2015-02-15T08:49:11Z</time>
      </trkpt>
      <trkpt lat="48.66037" lon="-3.2328">
        <ele>65</ele>
        <time>2015-02-15T08:49:12Z</time>
      </trkpt>
      <trkpt lat="48.66034" lon="-3.23273">
        <ele>66</ele>
        <time>2015-02-15T08:49:13Z</time>
      </trkpt>
      <trkpt lat="48.66029" lon="-3.23267">
        <ele>66</ele>
        <time>2015-02-15T08:49:14Z</time>
      </trkpt>
      <trkpt lat="48.66025" lon="-3.23261">
        <ele>66</ele>
        <time>2015-02-15T08:49:15Z</time>
      </trkpt>
      <trkpt lat="48.66021" lon="-3.23256">
        <ele>67</ele>
        <time>2015-02-15T08:49:16Z</time>
      </trkpt>
      <trkpt lat="48.66016" lon="-3.23252">
        <ele>67</ele>
        <time>2015-02-15T08:49:17Z</time>
      </trkpt>
      <trkpt lat="48.66011" lon="-3.23249">
        <ele>67</ele>
        <time>2015-02-15T08:49:18Z</time>
      </trkpt>
      <trkpt lat="48.66007" lon="-3.23246">
        <ele>67</ele>
        <time>2015-02-15T08:49:19Z</time>
      </trkpt>
      <trkpt lat="48.66002" lon="-3.23244">
        <ele>68</ele>
        <time>2015-02-15T08:49:20Z</time>
      </trkpt>
      <trkpt lat="48.65997" lon="-3.23242">
        <ele>68</ele>
        <time>2015-02-15T08:49:21Z</time>
      </trkpt>
      <trkpt lat="48.65992" lon="-3.23239">
        <ele>68</ele>
        <time>2015-02-15T08:49:22Z</time>
      </trkpt>
      <trkpt lat="48.65987" lon="-3.23236">
        <ele>68</ele>
        <time>2015-02-15T08:49:23Z</time>
      </trkpt>
      <trkpt lat="48.65983" lon="-3.23234">
        <ele>69</ele>
        <time>2015-02-15T08:49:24Z</time>
      </trkpt>
      <trkpt lat="48.65978" lon="-3.23231">
        <ele>69</ele>
        <time>2015-02-15T08:49:25Z</time>
      </trkpt>
      <trkpt lat="48.65973" lon="-3.23229">
        <ele>69</ele>
        <time>2015-02-15T08:49:26Z</time>
      </trkpt>
      <trkpt lat="48.65968" lon="-3.23226">
        <ele>69</ele>
        <time>2015-02-15T08:49:27Z</time>
      </trkpt>
      <trkpt lat="48.65963" lon="-3.23223">
        <ele>69</ele>
        <time>2015-02-15T08:49:28Z</time>
      </trkpt>
      <trkpt lat="48.65959" lon="-3.23219">
        <ele>70</ele>
        <time>2015-02-15T08:49:29Z</time>
      </trkpt>
      <trkpt lat="48.65955" lon="-3.23216">
        <ele>70</ele>
        <time>2015-02-15T08:49:30Z</time>
      </trkpt>
      <trkpt lat="48.6595" lon="-3.23212">
        <ele>70</ele>
        <time>2015-02-15T08:49:31Z</time>
      </trkpt>
      <trkpt lat="48.65946" lon="-3.23207">
        <ele>70</ele>
        <time>2015-02-15T08:49:32Z</time>
      </trkpt>
      <trkpt lat="48.65942" lon="-3.23202">
        <ele>70</ele>
        <time>2015-02-15T08:49:33Z</time>
      </trkpt>
      <trkpt lat="48.65938" lon="-3.23196">
        <ele>71</ele>
        <time>2015-02-15T08:49:34Z</time>
      </trkpt>
      <trkpt lat="48.65934" lon="-3.2319">
        <ele>71</ele>
        <time>2015-02-15T08:49:35Z</time>
      </trkpt>
      <trkpt lat="48.65931" lon="-3.23184">
        <ele>71</ele>
        <time>2015-02-15T08:49:36Z</time>
      </trkpt>
      <trkpt lat="48.65928" lon="-3.23178">
        <ele>72</ele>
        <time>2015-02-15T08:49:37Z</time>
      </trkpt>
      <trkpt lat="48.65926" lon="-3.23171">
        <ele>72</ele>
        <time>2015-02-15T08:49:38Z</time>
      </trkpt>
      <trkpt lat="48.65923" lon="-3.23164">
        <ele>72</ele>
        <time>2015-02-15T08:49:39Z</time>
      </trkpt>
      <trkpt lat="48.65921" lon="-3.23157">
        <ele>72</ele>
        <time>2015-02-15T08:49:40Z</time>
      </trkpt>
      <trkpt lat="48.65919" lon="-3.23149">
        <ele>73</ele>
        <time>2015-02-15T08:49:41Z</time>
      </trkpt>
      <trkpt lat="48.65917" lon="-3.23142">
        <ele>73</ele>
        <time>2015-02-15T08:49:42Z</time>
      </trkpt>
      <trkpt lat="48.65915" lon="-3.23134">
        <ele>73</ele>
        <time>2015-02-15T08:49:43Z</time>
      </trkpt>
      <trkpt lat="48.65912" lon="-3.23127">
        <ele>73</ele>
        <time>2015-02-15T08:49:44Z</time>
      </trkpt>
      <trkpt lat="48.6591" lon="-3.23119">
        <ele>74</ele>
        <time>2015-02-15T08:49:45Z</time>
      </trkpt>
      <trkpt lat="48.65908" lon="-3.23111">
        <ele>74</ele>
        <time>2015-02-15T08:49:46Z</time>
      </trkpt>
      <trkpt lat="48.65906" lon="-3.23103">
        <ele>74</ele>
        <time>2015-02-15T08:49:47Z</time>
      </trkpt>
      <trkpt lat="48.65903" lon="-3.23095">
        <ele>74</ele>
        <time>2015-02-15T08:49:48Z</time>
      </trkpt>
      <trkpt lat="48.65901" lon="-3.23087">
        <ele>75</ele>
        <time>2015-02-15T08:49:49Z</time>
      </trkpt>
      <trkpt lat="48.65899" lon="-3.23079">
        <ele>75</ele>
        <time>2015-02-15T08:49:50Z</time>
      </trkpt>
      <trkpt lat="48.65897" lon="-3.23072">
        <ele>75</ele>
        <time>2015-02-15T08:49:51Z</time>
      </trkpt>
      <trkpt lat="48.65896" lon="-3.23065">
        <ele>76</ele>
        <time>2015-02-15T08:49:52Z</time>
      </trkpt>
      <trkpt lat="48.65894" lon="-3.23058">
        <ele>76</ele>
        <time>2015-02-15T08:49:53Z</time>
      </trkpt>
      <trkpt lat="48.65892" lon="-3.23051">
        <ele>76</ele>
        <time>2015-02-15T08:49:54Z</time>
      </trkpt>
      <trkpt lat="48.65891" lon="-3.23044">
        <ele>76</ele>
        <time>2015-02-15T08:49:55Z</time>
      </trkpt>
      <trkpt lat="48.65889" lon="-3.23037">
        <ele>77</ele>
        <time>2015-02-15T08:49:56Z</time>
      </trkpt>
      <trkpt lat="48.65887" lon="-3.2303">
        <ele>77</ele>
        <time>2015-02-15T08:49:57Z</time>
      </trkpt>
      <trkpt lat="48.65885" lon="-3.23023">
        <ele>77</ele>
        <time>2015-02-15T08:49:58Z</time>
      </trkpt>
      <trkpt lat="48.65883" lon="-3.23016">
        <ele>78</ele>
        <time>2015-02-15T08:49:59Z</time>
      </trkpt>
      <trkpt lat="48.65881" lon="-3.23009">
        <ele>78</ele>
        <time>2015-02-15T08:50:00Z</time>
      </trkpt>
      <trkpt lat="48.65879" lon="-3.23002">
        <ele>78</ele>
        <time>2015-02-15T08:50:01Z</time>
      </trkpt>
      <trkpt lat="48.65878" lon="-3.22996">
        <ele>78</ele>
        <time>2015-02-15T08:50:02Z</time>
      </trkpt>
      <trkpt lat="48.65876" lon="-3.22989">
        <ele>79</ele>
        <time>2015-02-15T08:50:03Z</time>
      </trkpt>
      <trkpt lat="48.65874" lon="-3.22983">
        <ele>79</ele>
        <time>2015-02-15T08:50:04Z</time>
      </trkpt>
      <trkpt lat="48.65873" lon="-3.22976">
        <ele>79</ele>
        <time>2015-02-15T08:50:05Z</time>
      </trkpt>
      <trkpt lat="48.65871" lon="-3.22969">
        <ele>80</ele>
        <time>2015-02-15T08:50:06Z</time>
      </trkpt>
      <trkpt lat="48.65869" lon="-3.22963">
        <ele>80</ele>
        <time>2015-02-15T08:50:07Z</time>
      </trkpt>
      <trkpt lat="48.65867" lon="-3.22956">
        <ele>80</ele>
        <time>2015-02-15T08:50:08Z</time>
      </trkpt>
      <trkpt lat="48.65865" lon="-3.2295">
        <ele>80</ele>
        <time>2015-02-15T08:50:09Z</time>
      </trkpt>
      <trkpt lat="48.65863" lon="-3.22944">
        <ele>81</ele>
        <time>2015-02-15T08:50:10Z</time>
      </trkpt>
      <trkpt lat="48.65862" lon="-3.22937">
        <ele>81</ele>
        <time>2015-02-15T08:50:11Z</time>
      </trkpt>
      <trkpt lat="48.6586" lon="-3.22931">
        <ele>81</ele>
        <time>2015-02-15T08:50:12Z</time>
      </trkpt>
      <trkpt lat="48.65858" lon="-3.22925">
        <ele>82</ele>
        <time>2015-02-15T08:50:13Z</time>
      </trkpt>
      <trkpt lat="48.65856" lon="-3.22918">
        <ele>82</ele>
        <time>2015-02-15T08:50:14Z</time>
      </trkpt>
      <trkpt lat="48.65854" lon="-3.22912">
        <ele>82</ele>
        <time>2015-02-15T08:50:15Z</time>
      </trkpt>
      <trkpt lat="48.65852" lon="-3.22905">
        <ele>83</ele>
        <time>2015-02-15T08:50:16Z</time>
      </trkpt>
      <trkpt lat="48.6585" lon="-3.22898">
        <ele>83</ele>
        <time>2015-02-15T08:50:17Z</time>
      </trkpt>
      <trkpt lat="48.65848" lon="-3.22891">
        <ele>83</ele>
        <time>2015-02-15T08:50:18Z</time>
      </trkpt>
      <trkpt lat="48.65846" lon="-3.22883">
        <ele>83</ele>
        <time>2015-02-15T08:50:19Z</time>
      </trkpt>
      <trkpt lat="48.65844" lon="-3.22876">
        <ele>84</ele>
        <time>2015-02-15T08:50:20Z</time>
      </trkpt>
      <trkpt lat="48.65842" lon="-3.22869">
        <ele>84</ele>
        <time>2015-02-15T08:50:21Z</time>
      </trkpt>
      <trkpt lat="48.65839" lon="-3.22861">
        <ele>84</ele>
        <time>2015-02-15T08:50:22Z</time>
      </trkpt>
      <trkpt lat="48.65837" lon="-3.22854">
        <ele>84</ele>
        <time>2015-02-15T08:50:23Z</time>
      </trkpt>
      <trkpt lat="48.65835" lon="-3.22847">
        <ele>84</ele>
        <time>2015-02-15T08:50:24Z</time>
      </trkpt>
      <trkpt lat="48.65833" lon="-3.22839">
        <ele>85</ele>
        <time>2015-02-15T08:50:25Z</time>
      </trkpt>
      <trkpt lat="48.6583" lon="-3.22831">
        <ele>85</ele>
        <time>2015-02-15T08:50:26Z</time>
      </trkpt>
      <trkpt lat="48.65828" lon="-3.22823">
        <ele>85</ele>
        <time>2015-02-15T08:50:27Z</time>
      </trkpt>
      <trkpt lat="48.65826" lon="-3.22815">
        <ele>86</ele>
        <time>2015-02-15T08:50:28Z</time>
      </trkpt>
      <trkpt lat="48.65825" lon="-3.22807">
        <ele>86</ele>
        <time>2015-02-15T08:50:29Z</time>
      </trkpt>
      <trkpt lat="48.65823" lon="-3.22798">
        <ele>86</ele>
        <time>2015-02-15T08:50:30Z</time>
      </trkpt>
      <trkpt lat="48.65823" lon="-3.2279">
        <ele>87</ele>
        <time>2015-02-15T08:50:31Z</time>
      </trkpt>
      <trkpt lat="48.65822" lon="-3.2278">
        <ele>87</ele>
        <time>2015-02-15T08:50:32Z</time>
      </trkpt>
      <trkpt lat="48.65823" lon="-3.22752">
        <ele>87</ele>
        <time>2015-02-15T08:50:35Z</time>
      </trkpt>
      <trkpt lat="48.65824" lon="-3.22742">
        <ele>87</ele>
        <time>2015-02-15T08:50:36Z</time>
      </trkpt>
      <trkpt lat="48.65825" lon="-3.22733">
        <ele>87</ele>
        <time>2015-02-15T08:50:37Z</time>
      </trkpt>
      <trkpt lat="48.65826" lon="-3.22723">
        <ele>87</ele>
        <time>2015-02-15T08:50:38Z</time>
      </trkpt>
      <trkpt lat="48.65827" lon="-3.22713">
        <ele>87</ele>
        <time>2015-02-15T08:50:39Z</time>
      </trkpt>
      <trkpt lat="48.65828" lon="-3.22702">
        <ele>87</ele>
        <time>2015-02-15T08:50:40Z</time>
      </trkpt>
      <trkpt lat="48.6583" lon="-3.22692">
        <ele>87</ele>
        <time>2015-02-15T08:50:41Z</time>
      </trkpt>
      <trkpt lat="48.65831" lon="-3.22681">
        <ele>87</ele>
        <time>2015-02-15T08:50:42Z</time>
      </trkpt>
      <trkpt lat="48.65832" lon="-3.2267">
        <ele>87</ele>
        <time>2015-02-15T08:50:43Z</time>
      </trkpt>
      <trkpt lat="48.65834" lon="-3.22659">
        <ele>87</ele>
        <time>2015-02-15T08:50:44Z</time>
      </trkpt>
      <trkpt lat="48.65835" lon="-3.22648">
        <ele>87</ele>
        <time>2015-02-15T08:50:45Z</time>
      </trkpt>
      <trkpt lat="48.65836" lon="-3.22637">
        <ele>87</ele>
        <time>2015-02-15T08:50:46Z</time>
      </trkpt>
      <trkpt lat="48.65837" lon="-3.22627">
        <ele>87</ele>
        <time>2015-02-15T08:50:47Z</time>
      </trkpt>
      <trkpt lat="48.65838" lon="-3.22616">
        <ele>87</ele>
        <time>2015-02-15T08:50:48Z</time>
      </trkpt>
      <trkpt lat="48.65839" lon="-3.22605">
        <ele>87</ele>
        <time>2015-02-15T08:50:49Z</time>
      </trkpt>
      <trkpt lat="48.6584" lon="-3.22595">
        <ele>87</ele>
        <time>2015-02-15T08:50:50Z</time>
      </trkpt>
      <trkpt lat="48.65841" lon="-3.22585">
        <ele>87</ele>
        <time>2015-02-15T08:50:51Z</time>
      </trkpt>
      <trkpt lat="48.65841" lon="-3.22575">
        <ele>87</ele>
        <time>2015-02-15T08:50:52Z</time>
      </trkpt>
      <trkpt lat="48.65842" lon="-3.22564">
        <ele>87</ele>
        <time>2015-02-15T08:50:53Z</time>
      </trkpt>
      <trkpt lat="48.65843" lon="-3.22554">
        <ele>87</ele>
        <time>2015-02-15T08:50:54Z</time>
      </trkpt>
      <trkpt lat="48.65844" lon="-3.22544">
        <ele>87</ele>
        <time>2015-02-15T08:50:55Z</time>
      </trkpt>
      <trkpt lat="48.65845" lon="-3.22533">
        <ele>87</ele>
        <time>2015-02-15T08:50:56Z</time>
      </trkpt>
      <trkpt lat="48.65846" lon="-3.22523">
        <ele>87</ele>
        <time>2015-02-15T08:50:57Z</time>
      </trkpt>
      <trkpt lat="48.65847" lon="-3.22513">
        <ele>87</ele>
        <time>2015-02-15T08:50:58Z</time>
      </trkpt>
      <trkpt lat="48.65849" lon="-3.22502">
        <ele>87</ele>
        <time>2015-02-15T08:50:59Z</time>
      </trkpt>
      <trkpt lat="48.65851" lon="-3.22492">
        <ele>87</ele>
        <time>2015-02-15T08:51:00Z</time>
      </trkpt>
      <trkpt lat="48.65854" lon="-3.22482">
        <ele>87</ele>
        <time>2015-02-15T08:51:01Z</time>
      </trkpt>
      <trkpt lat="48.65857" lon="-3.22472">
        <ele>87</ele>
        <time>2015-02-15T08:51:02Z</time>
      </trkpt>
      <trkpt lat="48.65861" lon="-3.22462">
        <ele>87</ele>
        <time>2015-02-15T08:51:03Z</time>
      </trkpt>
      <trkpt lat="48.65865" lon="-3.22451">
        <ele>87</ele>
        <time>2015-02-15T08:51:04Z</time>
      </trkpt>
      <trkpt lat="48.6587" lon="-3.22441">
        <ele>87</ele>
        <time>2015-02-15T08:51:05Z</time>
      </trkpt>
      <trkpt lat="48.65874" lon="-3.22431">
        <ele>87</ele>
        <time>2015-02-15T08:51:06Z</time>
      </trkpt>
      <trkpt lat="48.6588" lon="-3.22422">
        <ele>87</ele>
        <time>2015-02-15T08:51:07Z</time>
      </trkpt>
      <trkpt lat="48.65885" lon="-3.22412">
        <ele>87</ele>
        <time>2015-02-15T08:51:08Z</time>
      </trkpt>
      <trkpt lat="48.65891" lon="-3.22402">
        <ele>87</ele>
        <time>2015-02-15T08:51:09Z</time>
      </trkpt>
      <trkpt lat="48.65898" lon="-3.22393">
        <ele>87</ele>
        <time>2015-02-15T08:51:10Z</time>
      </trkpt>
      <trkpt lat="48.65904" lon="-3.22384">
        <ele>87</ele>
        <time>2015-02-15T08:51:11Z</time>
      </trkpt>
      <trkpt lat="48.65911" lon="-3.22375">
        <ele>87</ele>
        <time>2015-02-15T08:51:12Z</time>
      </trkpt>
      <trkpt lat="48.65917" lon="-3.22364">
        <ele>87</ele>
        <time>2015-02-15T08:51:13Z</time>
      </trkpt>
      <trkpt lat="48.65923" lon="-3.22353">
        <ele>87</ele>
        <time>2015-02-15T08:51:14Z</time>
      </trkpt>
      <trkpt lat="48.65928" lon="-3.22342">
        <ele>87</ele>
        <time>2015-02-15T08:51:15Z</time>
      </trkpt>
      <trkpt lat="48.65933" lon="-3.2233">
        <ele>87</ele>
        <time>2015-02-15T08:51:16Z</time>
      </trkpt>
      <trkpt lat="48.65937" lon="-3.22318">
        <ele>87</ele>
        <time>2015-02-15T08:51:17Z</time>
      </trkpt>
      <trkpt lat="48.65942" lon="-3.22307">
        <ele>87</ele>
        <time>2015-02-15T08:51:18Z</time>
      </trkpt>
      <trkpt lat="48.65946" lon="-3.22295">
        <ele>87</ele>
        <time>2015-02-15T08:51:19Z</time>
      </trkpt>
      <trkpt lat="48.65951" lon="-3.22284">
        <ele>87</ele>
        <time>2015-02-15T08:51:20Z</time>
      </trkpt>
      <trkpt lat="48.65955" lon="-3.22274">
        <ele>87</ele>
        <time>2015-02-15T08:51:21Z</time>
      </trkpt>
      <trkpt lat="48.6596" lon="-3.22264">
        <ele>87</ele>
        <time>2015-02-15T08:51:22Z</time>
      </trkpt>
      <trkpt lat="48.65965" lon="-3.22254">
        <ele>87</ele>
        <time>2015-02-15T08:51:23Z</time>
      </trkpt>
      <trkpt lat="48.65971" lon="-3.22244">
        <ele>86</ele>
        <time>2015-02-15T08:51:24Z</time>
      </trkpt>
      <trkpt lat="48.65976" lon="-3.22234">
        <ele>86</ele>
        <time>2015-02-15T08:51:25Z</time>
      </trkpt>
      <trkpt lat="48.65981" lon="-3.22223">
        <ele>86</ele>
        <time>2015-02-15T08:51:26Z</time>
      </trkpt>
      <trkpt lat="48.65986" lon="-3.22213">
        <ele>86</ele>
        <time>2015-02-15T08:51:27Z</time>
      </trkpt>
      <trkpt lat="48.6599" lon="-3.22201">
        <ele>85</ele>
        <time>2015-02-15T08:51:28Z</time>
      </trkpt>
      <trkpt lat="48.65995" lon="-3.2219">
        <ele>85</ele>
        <time>2015-02-15T08:51:29Z</time>
      </trkpt>
      <trkpt lat="48.65998" lon="-3.22178">
        <ele>85</ele>
        <time>2015-02-15T08:51:30Z</time>
      </trkpt>
      <trkpt lat="48.66001" lon="-3.22166">
        <ele>84</ele>
        <time>2015-02-15T08:51:31Z</time>
      </trkpt>
      <trkpt lat="48.66004" lon="-3.22154">
        <ele>84</ele>
        <time>2015-02-15T08:51:32Z</time>
      </trkpt>
      <trkpt lat="48.66006" lon="-3.22143">
        <ele>84</ele>
        <time>2015-02-15T08:51:33Z</time>
      </trkpt>
      <trkpt lat="48.66008" lon="-3.22131">
        <ele>84</ele>
        <time>2015-02-15T08:51:34Z</time>
      </trkpt>
      <trkpt lat="48.66009" lon="-3.2212">
        <ele>84</ele>
        <time>2015-02-15T08:51:35Z</time>
      </trkpt>
      <trkpt lat="48.6601" lon="-3.22108">
        <ele>83</ele>
        <time>2015-02-15T08:51:36Z</time>
      </trkpt>
      <trkpt lat="48.66011" lon="-3.22095">
        <ele>83</ele>
        <time>2015-02-15T08:51:37Z</time>
      </trkpt>
      <trkpt lat="48.66012" lon="-3.22083">
        <ele>83</ele>
        <time>2015-02-15T08:51:38Z</time>
      </trkpt>
      <trkpt lat="48.66013" lon="-3.2207">
        <ele>83</ele>
        <time>2015-02-15T08:51:39Z</time>
      </trkpt>
      <trkpt lat="48.66014" lon="-3.22057">
        <ele>83</ele>
        <time>2015-02-15T08:51:40Z</time>
      </trkpt>
      <trkpt lat="48.66015" lon="-3.22044">
        <ele>82</ele>
        <time>2015-02-15T08:51:41Z</time>
      </trkpt>
      <trkpt lat="48.66016" lon="-3.22031">
        <ele>82</ele>
        <time>2015-02-15T08:51:42Z</time>
      </trkpt>
      <trkpt lat="48.66016" lon="-3.22018">
        <ele>82</ele>
        <time>2015-02-15T08:51:43Z</time>
      </trkpt>
      <trkpt lat="48.66017" lon="-3.22005">
        <ele>82</ele>
        <time>2015-02-15T08:51:44Z</time>
      </trkpt>
      <trkpt lat="48.66018" lon="-3.21991">
        <ele>82</ele>
        <time>2015-02-15T08:51:45Z</time>
      </trkpt>
      <trkpt lat="48.66019" lon="-3.21978">
        <ele>81</ele>
        <time>2015-02-15T08:51:46Z</time>
      </trkpt>
      <trkpt lat="48.6602" lon="-3.21965">
        <ele>81</ele>
        <time>2015-02-15T08:51:47Z</time>
      </trkpt>
      <trkpt lat="48.66021" lon="-3.21953">
        <ele>81</ele>
        <time>2015-02-15T08:51:48Z</time>
      </trkpt>
      <trkpt lat="48.66022" lon="-3.2194">
        <ele>81</ele>
        <time>2015-02-15T08:51:49Z</time>
      </trkpt>
      <trkpt lat="48.66022" lon="-3.21927">
        <ele>81</ele>
        <time>2015-02-15T08:51:50Z</time>
      </trkpt>
      <trkpt lat="48.66024" lon="-3.21915">
        <ele>81</ele>
        <time>2015-02-15T08:51:51Z</time>
      </trkpt>
      <trkpt lat="48.66024" lon="-3.21902">
        <ele>80</ele>
        <time>2015-02-15T08:51:52Z</time>
      </trkpt>
      <trkpt lat="48.66026" lon="-3.2189">
        <ele>80</ele>
        <time>2015-02-15T08:51:53Z</time>
      </trkpt>
      <trkpt lat="48.66028" lon="-3.21878">
        <ele>80</ele>
        <time>2015-02-15T08:51:54Z</time>
      </trkpt>
      <trkpt lat="48.6603" lon="-3.21866">
        <ele>80</ele>
        <time>2015-02-15T08:51:55Z</time>
      </trkpt>
      <trkpt lat="48.66034" lon="-3.21856">
        <ele>80</ele>
        <time>2015-02-15T08:51:56Z</time>
      </trkpt>
      <trkpt lat="48.66037" lon="-3.21845">
        <ele>80</ele>
        <time>2015-02-15T08:51:57Z</time>
      </trkpt>
      <trkpt lat="48.66042" lon="-3.21835">
        <ele>79</ele>
        <time>2015-02-15T08:51:58Z</time>
      </trkpt>
      <trkpt lat="48.66047" lon="-3.21825">
        <ele>79</ele>
        <time>2015-02-15T08:51:59Z</time>
      </trkpt>
      <trkpt lat="48.66051" lon="-3.21815">
        <ele>79</ele>
        <time>2015-02-15T08:52:00Z</time>
      </trkpt>
      <trkpt lat="48.66056" lon="-3.21805">
        <ele>79</ele>
        <time>2015-02-15T08:52:01Z</time>
      </trkpt>
      <trkpt lat="48.6606" lon="-3.21794">
        <ele>78</ele>
        <time>2015-02-15T08:52:02Z</time>
      </trkpt>
      <trkpt lat="48.66064" lon="-3.21783">
        <ele>78</ele>
        <time>2015-02-15T08:52:03Z</time>
      </trkpt>
      <trkpt lat="48.66068" lon="-3.21771">
        <ele>78</ele>
        <time>2015-02-15T08:52:04Z</time>
      </trkpt>
      <trkpt lat="48.66071" lon="-3.21759">
        <ele>77</ele>
        <time>2015-02-15T08:52:05Z</time>
      </trkpt>
      <trkpt lat="48.66074" lon="-3.21746">
        <ele>77</ele>
        <time>2015-02-15T08:52:06Z</time>
      </trkpt>
      <trkpt lat="48.66075" lon="-3.21733">
        <ele>77</ele>
        <time>2015-02-15T08:52:07Z</time>
      </trkpt>
      <trkpt lat="48.66074" lon="-3.21719">
        <ele>76</ele>
        <time>2015-02-15T08:52:08Z</time>
      </trkpt>
      <trkpt lat="48.66072" lon="-3.21705">
        <ele>76</ele>
        <time>2015-02-15T08:52:09Z</time>
      </trkpt>
      <trkpt lat="48.66069" lon="-3.21691">
        <ele>75</ele>
        <time>2015-02-15T08:52:10Z</time>
      </trkpt>
      <trkpt lat="48.66066" lon="-3.21677">
        <ele>75</ele>
        <time>2015-02-15T08:52:11Z</time>
      </trkpt>
      <trkpt lat="48.66063" lon="-3.21664">
        <ele>75</ele>
        <time>2015-02-15T08:52:12Z</time>
      </trkpt>
      <trkpt lat="48.66061" lon="-3.21649">
        <ele>74</ele>
        <time>2015-02-15T08:52:13Z</time>
      </trkpt>
      <trkpt lat="48.66059" lon="-3.21634">
        <ele>74</ele>
        <time>2015-02-15T08:52:14Z</time>
      </trkpt>
      <trkpt lat="48.66059" lon="-3.21618">
        <ele>73</ele>
        <time>2015-02-15T08:52:15Z</time>
      </trkpt>
      <trkpt lat="48.66061" lon="-3.21602">
        <ele>73</ele>
        <time>2015-02-15T08:52:16Z</time>
      </trkpt>
      <trkpt lat="48.66063" lon="-3.21587">
        <ele>72</ele>
        <time>2015-02-15T08:52:17Z</time>
      </trkpt>
      <trkpt lat="48.66064" lon="-3.21572">
        <ele>72</ele>
        <time>2015-02-15T08:52:18Z</time>
      </trkpt>
      <trkpt lat="48.66061" lon="-3.21541">
        <ele>71</ele>
        <time>2015-02-15T08:52:20Z</time>
      </trkpt>
      <trkpt lat="48.66058" lon="-3.21525">
        <ele>71</ele>
        <time>2015-02-15T08:52:21Z</time>
      </trkpt>
      <trkpt lat="48.66054" lon="-3.2151">
        <ele>70</ele>
        <time>2015-02-15T08:52:22Z</time>
      </trkpt>
      <trkpt lat="48.66049" lon="-3.21495">
        <ele>70</ele>
        <time>2015-02-15T08:52:23Z</time>
      </trkpt>
      <trkpt lat="48.66045" lon="-3.2148">
        <ele>69</ele>
        <time>2015-02-15T08:52:24Z</time>
      </trkpt>
      <trkpt lat="48.66041" lon="-3.21464">
        <ele>69</ele>
        <time>2015-02-15T08:52:25Z</time>
      </trkpt>
      <trkpt lat="48.66037" lon="-3.21448">
        <ele>68</ele>
        <time>2015-02-15T08:52:26Z</time>
      </trkpt>
      <trkpt lat="48.66034" lon="-3.21432">
        <ele>68</ele>
        <time>2015-02-15T08:52:27Z</time>
      </trkpt>
      <trkpt lat="48.66032" lon="-3.21415">
        <ele>67</ele>
        <time>2015-02-15T08:52:28Z</time>
      </trkpt>
      <trkpt lat="48.66031" lon="-3.21399">
        <ele>67</ele>
        <time>2015-02-15T08:52:29Z</time>
      </trkpt>
      <trkpt lat="48.66031" lon="-3.21382">
        <ele>66</ele>
        <time>2015-02-15T08:52:30Z</time>
      </trkpt>
      <trkpt lat="48.66031" lon="-3.21365">
        <ele>66</ele>
        <time>2015-02-15T08:52:31Z</time>
      </trkpt>
      <trkpt lat="48.66033" lon="-3.21348">
        <ele>65</ele>
        <time>2015-02-15T08:52:32Z</time>
      </trkpt>
      <trkpt lat="48.66036" lon="-3.21332">
        <ele>65</ele>
        <time>2015-02-15T08:52:33Z</time>
      </trkpt>
      <trkpt lat="48.6604" lon="-3.21316">
        <ele>64</ele>
        <time>2015-02-15T08:52:34Z</time>
      </trkpt>
      <trkpt lat="48.66044" lon="-3.21301">
        <ele>64</ele>
        <time>2015-02-15T08:52:35Z</time>
      </trkpt>
      <trkpt lat="48.66049" lon="-3.21286">
        <ele>63</ele>
        <time>2015-02-15T08:52:36Z</time>
      </trkpt>
      <trkpt lat="48.66056" lon="-3.21272">
        <ele>63</ele>
        <time>2015-02-15T08:52:37Z</time>
      </trkpt>
      <trkpt lat="48.66062" lon="-3.21259">
        <ele>62</ele>
        <time>2015-02-15T08:52:38Z</time>
      </trkpt>
      <trkpt lat="48.66069" lon="-3.21246">
        <ele>62</ele>
        <time>2015-02-15T08:52:39Z</time>
      </trkpt>
      <trkpt lat="48.66076" lon="-3.21233">
        <ele>61</ele>
        <time>2015-02-15T08:52:40Z</time>
      </trkpt>
      <trkpt lat="48.66083" lon="-3.21221">
        <ele>61</ele>
        <time>2015-02-15T08:52:41Z</time>
      </trkpt>
      <trkpt lat="48.6609" lon="-3.21208">
        <ele>60</ele>
        <time>2015-02-15T08:52:42Z</time>
      </trkpt>
      <trkpt lat="48.66097" lon="-3.21195">
        <ele>60</ele>
        <time>2015-02-15T08:52:43Z</time>
      </trkpt>
      <trkpt lat="48.66103" lon="-3.21181">
        <ele>59</ele>
        <time>2015-02-15T08:52:44Z</time>
      </trkpt>
      <trkpt lat="48.66107" lon="-3.21166">
        <ele>59</ele>
        <time>2015-02-15T08:52:45Z</time>
      </trkpt>
      <trkpt lat="48.6611" lon="-3.21149">
        <ele>58</ele>
        <time>2015-02-15T08:52:46Z</time>
      </trkpt>
      <trkpt lat="48.66112" lon="-3.21132">
        <ele>58</ele>
        <time>2015-02-15T08:52:47Z</time>
      </trkpt>
      <trkpt lat="48.66113" lon="-3.21114">
        <ele>57</ele>
        <time>2015-02-15T08:52:48Z</time>
      </trkpt>
      <trkpt lat="48.66113" lon="-3.21064">
        <ele>56</ele>
        <time>2015-02-15T08:52:51Z</time>
      </trkpt>
      <trkpt lat="48.66113" lon="-3.21016">
        <ele>56</ele>
        <time>2015-02-15T08:52:54Z</time>
      </trkpt>
      <trkpt lat="48.66114" lon="-3.21001">
        <ele>56</ele>
        <time>2015-02-15T08:52:55Z</time>
      </trkpt>
      <trkpt lat="48.66115" lon="-3.20986">
        <ele>56</ele>
        <time>2015-02-15T08:52:56Z</time>
      </trkpt>
      <trkpt lat="48.66116" lon="-3.20972">
        <ele>56</ele>
        <time>2015-02-15T08:52:57Z</time>
      </trkpt>
      <trkpt lat="48.66116" lon="-3.20959">
        <ele>56</ele>
        <time>2015-02-15T08:52:58Z</time>
      </trkpt>
      <trkpt lat="48.66117" lon="-3.20947">
        <ele>56</ele>
        <time>2015-02-15T08:52:59Z</time>
      </trkpt>
      <trkpt lat="48.66119" lon="-3.20934">
        <ele>56</ele>
        <time>2015-02-15T08:53:00Z</time>
      </trkpt>
      <trkpt lat="48.6612" lon="-3.20922">
        <ele>56</ele>
        <time>2015-02-15T08:53:01Z</time>
      </trkpt>
      <trkpt lat="48.66122" lon="-3.20911">
        <ele>56</ele>
        <time>2015-02-15T08:53:02Z</time>
      </trkpt>
      <trkpt lat="48.66123" lon="-3.209">
        <ele>56</ele>
        <time>2015-02-15T08:53:03Z</time>
      </trkpt>
      <trkpt lat="48.66125" lon="-3.20888">
        <ele>56</ele>
        <time>2015-02-15T08:53:04Z</time>
      </trkpt>
      <trkpt lat="48.66126" lon="-3.20876">
        <ele>56</ele>
        <time>2015-02-15T08:53:05Z</time>
      </trkpt>
      <trkpt lat="48.66128" lon="-3.20865">
        <ele>56</ele>
        <time>2015-02-15T08:53:06Z</time>
      </trkpt>
      <trkpt lat="48.66129" lon="-3.20853">
        <ele>56</ele>
        <time>2015-02-15T08:53:07Z</time>
      </trkpt>
      <trkpt lat="48.6613" lon="-3.20841">
        <ele>56</ele>
        <time>2015-02-15T08:53:08Z</time>
      </trkpt>
      <trkpt lat="48.66132" lon="-3.20829">
        <ele>56</ele>
        <time>2015-02-15T08:53:09Z</time>
      </trkpt>
      <trkpt lat="48.66133" lon="-3.20817">
        <ele>56</ele>
        <time>2015-02-15T08:53:10Z</time>
      </trkpt>
      <trkpt lat="48.66134" lon="-3.20805">
        <ele>56</ele>
        <time>2015-02-15T08:53:11Z</time>
      </trkpt>
      <trkpt lat="48.66133" lon="-3.20758">
        <ele>56</ele>
        <time>2015-02-15T08:53:15Z</time>
      </trkpt>
      <trkpt lat="48.66132" lon="-3.20746">
        <ele>56</ele>
        <time>2015-02-15T08:53:16Z</time>
      </trkpt>
      <trkpt lat="48.66131" lon="-3.20735">
        <ele>56</ele>
        <time>2015-02-15T08:53:17Z</time>
      </trkpt>
      <trkpt lat="48.6613" lon="-3.20725">
        <ele>56</ele>
        <time>2015-02-15T08:53:18Z</time>
      </trkpt>
      <trkpt lat="48.66128" lon="-3.20714">
        <ele>56</ele>
        <time>2015-02-15T08:53:19Z</time>
      </trkpt>
      <trkpt lat="48.66126" lon="-3.20705">
        <ele>56</ele>
        <time>2015-02-15T08:53:20Z</time>
      </trkpt>
      <trkpt lat="48.66124" lon="-3.20695">
        <ele>56</ele>
        <time>2015-02-15T08:53:21Z</time>
      </trkpt>
      <trkpt lat="48.66121" lon="-3.20685">
        <ele>56</ele>
        <time>2015-02-15T08:53:22Z</time>
      </trkpt>
      <trkpt lat="48.66118" lon="-3.20676">
        <ele>56</ele>
        <time>2015-02-15T08:53:23Z</time>
      </trkpt>
      <trkpt lat="48.66114" lon="-3.20668">
        <ele>56</ele>
        <time>2015-02-15T08:53:24Z</time>
      </trkpt>
      <trkpt lat="48.6611" lon="-3.20659">
        <ele>56</ele>
        <time>2015-02-15T08:53:25Z</time>
      </trkpt>
      <trkpt lat="48.66105" lon="-3.20652">
        <ele>56</ele>
        <time>2015-02-15T08:53:26Z</time>
      </trkpt>
      <trkpt lat="48.661" lon="-3.20645">
        <ele>56</ele>
        <time>2015-02-15T08:53:27Z</time>
      </trkpt>
      <trkpt lat="48.66095" lon="-3.20639">
        <ele>56</ele>
        <time>2015-02-15T08:53:28Z</time>
      </trkpt>
      <trkpt lat="48.66089" lon="-3.20633">
        <ele>56</ele>
        <time>2015-02-15T08:53:29Z</time>
      </trkpt>
      <trkpt lat="48.66082" lon="-3.20629">
        <ele>56</ele>
        <time>2015-02-15T08:53:30Z</time>
      </trkpt>
      <trkpt lat="48.66076" lon="-3.20626">
        <ele>56</ele>
        <time>2015-02-15T08:53:31Z</time>
      </trkpt>
      <trkpt lat="48.66069" lon="-3.20623">
        <ele>56</ele>
        <time>2015-02-15T08:53:32Z</time>
      </trkpt>
      <trkpt lat="48.66062" lon="-3.20622">
        <ele>56</ele>
        <time>2015-02-15T08:53:33Z</time>
      </trkpt>
      <trkpt lat="48.66056" lon="-3.20621">
        <ele>56</ele>
        <time>2015-02-15T08:53:34Z</time>
      </trkpt>
      <trkpt lat="48.66049" lon="-3.20621">
        <ele>56</ele>
        <time>2015-02-15T08:53:35Z</time>
      </trkpt>
      <trkpt lat="48.66042" lon="-3.20622">
        <ele>56</ele>
        <time>2015-02-15T08:53:36Z</time>
      </trkpt>
      <trkpt lat="48.66035" lon="-3.20623">
        <ele>56</ele>
        <time>2015-02-15T08:53:37Z</time>
      </trkpt>
      <trkpt lat="48.66028" lon="-3.20625">
        <ele>56</ele>
        <time>2015-02-15T08:53:38Z</time>
      </trkpt>
      <trkpt lat="48.66022" lon="-3.20626">
        <ele>56</ele>
        <time>2015-02-15T08:53:39Z</time>
      </trkpt>
      <trkpt lat="48.66015" lon="-3.20628">
        <ele>56</ele>
        <time>2015-02-15T08:53:40Z</time>
      </trkpt>
      <trkpt lat="48.66008" lon="-3.20629">
        <ele>56</ele>
        <time>2015-02-15T08:53:41Z</time>
      </trkpt>
      <trkpt lat="48.66002" lon="-3.2063">
        <ele>56</ele>
        <time>2015-02-15T08:53:42Z</time>
      </trkpt>
      <trkpt lat="48.65996" lon="-3.2063">
        <ele>56</ele>
        <time>2015-02-15T08:53:43Z</time>
      </trkpt>
      <trkpt lat="48.6599" lon="-3.2063">
        <ele>56</ele>
        <time>2015-02-15T08:53:44Z</time>
      </trkpt>
      <trkpt lat="48.65984" lon="-3.20629">
        <ele>56</ele>
        <time>2015-02-15T08:53:45Z</time>
      </trkpt>
      <trkpt lat="48.65978" lon="-3.20628">
        <ele>56</ele>
        <time>2015-02-15T08:53:46Z</time>
      </trkpt>
      <trkpt lat="48.65973" lon="-3.20627">
        <ele>56</ele>
        <time>2015-02-15T08:53:47Z</time>
      </trkpt>
      <trkpt lat="48.65967" lon="-3.20624">
        <ele>56</ele>
        <time>2015-02-15T08:53:48Z</time>
      </trkpt>
      <trkpt lat="48.65962" lon="-3.20622">
        <ele>56</ele>
        <time>2015-02-15T08:53:49Z</time>
      </trkpt>
      <trkpt lat="48.65957" lon="-3.20619">
        <ele>56</ele>
        <time>2015-02-15T08:53:50Z</time>
      </trkpt>
      <trkpt lat="48.65952" lon="-3.20616">
        <ele>56</ele>
        <time>2015-02-15T08:53:51Z</time>
      </trkpt>
      <trkpt lat="48.65947" lon="-3.20612">
        <ele>56</ele>
        <time>2015-02-15T08:53:52Z</time>
      </trkpt>
      <trkpt lat="48.65942" lon="-3.20608">
        <ele>56</ele>
        <time>2015-02-15T08:53:53Z</time>
      </trkpt>
      <trkpt lat="48.65938" lon="-3.20603">
        <ele>56</ele>
        <time>2015-02-15T08:53:54Z</time>
      </trkpt>
      <trkpt lat="48.65933" lon="-3.20598">
        <ele>56</ele>
        <time>2015-02-15T08:53:55Z</time>
      </trkpt>
      <trkpt lat="48.65929" lon="-3.20592">
        <ele>56</ele>
        <time>2015-02-15T08:53:56Z</time>
      </trkpt>
      <trkpt lat="48.65924" lon="-3.20584">
        <ele>56</ele>
        <time>2015-02-15T08:53:57Z</time>
      </trkpt>
      <trkpt lat="48.6592" lon="-3.20577">
        <ele>56</ele>
        <time>2015-02-15T08:53:58Z</time>
      </trkpt>
      <trkpt lat="48.65917" lon="-3.20568">
        <ele>56</ele>
        <time>2015-02-15T08:53:59Z</time>
      </trkpt>
      <trkpt lat="48.65914" lon="-3.20559">
        <ele>56</ele>
        <time>2015-02-15T08:54:00Z</time>
      </trkpt>
      <trkpt lat="48.65912" lon="-3.20551">
        <ele>56</ele>
        <time>2015-02-15T08:54:01Z</time>
      </trkpt>
      <trkpt lat="48.6591" lon="-3.20542">
        <ele>56</ele>
        <time>2015-02-15T08:54:02Z</time>
      </trkpt>
      <trkpt lat="48.65909" lon="-3.20534">
        <ele>56</ele>
        <time>2015-02-15T08:54:03Z</time>
      </trkpt>
      <trkpt lat="48.65908" lon="-3.20526">
        <ele>56</ele>
        <time>2015-02-15T08:54:04Z</time>
      </trkpt>
      <trkpt lat="48.65907" lon="-3.20519">
        <ele>56</ele>
        <time>2015-02-15T08:54:05Z</time>
      </trkpt>
      <trkpt lat="48.65907" lon="-3.20511">
        <ele>56</ele>
        <time>2015-02-15T08:54:06Z</time>
      </trkpt>
      <trkpt lat="48.65907" lon="-3.20504">
        <ele>57</ele>
        <time>2015-02-15T08:54:07Z</time>
      </trkpt>
      <trkpt lat="48.65906" lon="-3.20497">
        <ele>58</ele>
        <time>2015-02-15T08:54:08Z</time>
      </trkpt>
      <trkpt lat="48.65907" lon="-3.20474">
        <ele>59</ele>
        <time>2015-02-15T08:54:11Z</time>
      </trkpt>
      <trkpt lat="48.65907" lon="-3.20459">
        <ele>60</ele>
        <time>2015-02-15T08:54:13Z</time>
      </trkpt>
      <trkpt lat="48.65908" lon="-3.20451">
        <ele>61</ele>
        <time>2015-02-15T08:54:14Z</time>
      </trkpt>
      <trkpt lat="48.6591" lon="-3.20442">
        <ele>61</ele>
        <time>2015-02-15T08:54:15Z</time>
      </trkpt>
      <trkpt lat="48.65911" lon="-3.20434">
        <ele>61</ele>
        <time>2015-02-15T08:54:16Z</time>
      </trkpt>
      <trkpt lat="48.65913" lon="-3.20427">
        <ele>62</ele>
        <time>2015-02-15T08:54:17Z</time>
      </trkpt>
      <trkpt lat="48.65916" lon="-3.20419">
        <ele>62</ele>
        <time>2015-02-15T08:54:18Z</time>
      </trkpt>
      <trkpt lat="48.65918" lon="-3.20412">
        <ele>62</ele>
        <time>2015-02-15T08:54:19Z</time>
      </trkpt>
      <trkpt lat="48.65921" lon="-3.20405">
        <ele>62</ele>
        <time>2015-02-15T08:54:20Z</time>
      </trkpt>
      <trkpt lat="48.65924" lon="-3.20398">
        <ele>62</ele>
        <time>2015-02-15T08:54:21Z</time>
      </trkpt>
      <trkpt lat="48.65927" lon="-3.20392">
        <ele>62</ele>
        <time>2015-02-15T08:54:22Z</time>
      </trkpt>
      <trkpt lat="48.6593" lon="-3.20385">
        <ele>62</ele>
        <time>2015-02-15T08:54:23Z</time>
      </trkpt>
      <trkpt lat="48.65934" lon="-3.2038">
        <ele>63</ele>
        <time>2015-02-15T08:54:24Z</time>
      </trkpt>
      <trkpt lat="48.65937" lon="-3.20374">
        <ele>63</ele>
        <time>2015-02-15T08:54:25Z</time>
      </trkpt>
      <trkpt lat="48.65941" lon="-3.20368">
        <ele>63</ele>
        <time>2015-02-15T08:54:26Z</time>
      </trkpt>
      <trkpt lat="48.65945" lon="-3.20362">
        <ele>63</ele>
        <time>2015-02-15T08:54:27Z</time>
      </trkpt>
      <trkpt lat="48.65948" lon="-3.20357">
        <ele>64</ele>
        <time>2015-02-15T08:54:28Z</time>
      </trkpt>
      <trkpt lat="48.65953" lon="-3.20351">
        <ele>64</ele>
        <time>2015-02-15T08:54:29Z</time>
      </trkpt>
      <trkpt lat="48.65956" lon="-3.20346">
        <ele>64</ele>
        <time>2015-02-15T08:54:30Z</time>
      </trkpt>
      <trkpt lat="48.6596" lon="-3.2034">
        <ele>64</ele>
        <time>2015-02-15T08:54:31Z</time>
      </trkpt>
      <trkpt lat="48.65964" lon="-3.20335">
        <ele>65</ele>
        <time>2015-02-15T08:54:32Z</time>
      </trkpt>
      <trkpt lat="48.65968" lon="-3.20329">
        <ele>65</ele>
        <time>2015-02-15T08:54:33Z</time>
      </trkpt>
      <trkpt lat="48.65972" lon="-3.20324">
        <ele>65</ele>
        <time>2015-02-15T08:54:34Z</time>
      </trkpt>
      <trkpt lat="48.65976" lon="-3.20319">
        <ele>65</ele>
        <time>2015-02-15T08:54:35Z</time>
      </trkpt>
      <trkpt lat="48.6598" lon="-3.20313">
        <ele>66</ele>
        <time>2015-02-15T08:54:36Z</time>
      </trkpt>
      <trkpt lat="48.65983" lon="-3.20307">
        <ele>66</ele>
        <time>2015-02-15T08:54:37Z</time>
      </trkpt>
      <trkpt lat="48.65986" lon="-3.20301">
        <ele>67</ele>
        <time>2015-02-15T08:54:38Z</time>
      </trkpt>
      <trkpt lat="48.65989" lon="-3.20295">
        <ele>67</ele>
        <time>2015-02-15T08:54:39Z</time>
      </trkpt>
      <trkpt lat="48.65991" lon="-3.20288">
        <ele>67</ele>
        <time>2015-02-15T08:54:40Z</time>
      </trkpt>
      <trkpt lat="48.65993" lon="-3.20282">
        <ele>68</ele>
        <time>2015-02-15T08:54:41Z</time>
      </trkpt>
      <trkpt lat="48.65995" lon="-3.20276">
        <ele>68</ele>
        <time>2015-02-15T08:54:42Z</time>
      </trkpt>
      <trkpt lat="48.65996" lon="-3.20269">
        <ele>69</ele>
        <time>2015-02-15T08:54:43Z</time>
      </trkpt>
      <trkpt lat="48.65997" lon="-3.20262">
        <ele>69</ele>
        <time>2015-02-15T08:54:44Z</time>
      </trkpt>
      <trkpt lat="48.65998" lon="-3.20255">
        <ele>69</ele>
        <time>2015-02-15T08:54:45Z</time>
      </trkpt>
      <trkpt lat="48.65998" lon="-3.20248">
        <ele>70</ele>
        <time>2015-02-15T08:54:46Z</time>
      </trkpt>
      <trkpt lat="48.65999" lon="-3.2024">
        <ele>70</ele>
        <time>2015-02-15T08:54:47Z</time>
      </trkpt>
      <trkpt lat="48.65998" lon="-3.20217">
        <ele>70</ele>
        <time>2015-02-15T08:54:50Z</time>
      </trkpt>
      <trkpt lat="48.65998" lon="-3.20209">
        <ele>70</ele>
        <time>2015-02-15T08:54:51Z</time>
      </trkpt>
      <trkpt lat="48.65998" lon="-3.20201">
        <ele>70</ele>
        <time>2015-02-15T08:54:52Z</time>
      </trkpt>
      <trkpt lat="48.65997" lon="-3.20193">
        <ele>70</ele>
        <time>2015-02-15T08:54:53Z</time>
      </trkpt>
      <trkpt lat="48.65997" lon="-3.20177">
        <ele>71</ele>
        <time>2015-02-15T08:54:55Z</time>
      </trkpt>
      <trkpt lat="48.65996" lon="-3.20168">
        <ele>71</ele>
        <time>2015-02-15T08:54:56Z</time>
      </trkpt>
      <trkpt lat="48.65996" lon="-3.2016">
        <ele>71</ele>
        <time>2015-02-15T08:54:57Z</time>
      </trkpt>
      <trkpt lat="48.65995" lon="-3.20144">
        <ele>72</ele>
        <time>2015-02-15T08:54:59Z</time>
      </trkpt>
      <trkpt lat="48.65995" lon="-3.20128">
        <ele>73</ele>
        <time>2015-02-15T08:55:01Z</time>
      </trkpt>
      <trkpt lat="48.65995" lon="-3.20112">
        <ele>74</ele>
        <time>2015-02-15T08:55:03Z</time>
      </trkpt>
      <trkpt lat="48.65994" lon="-3.20096">
        <ele>74</ele>
        <time>2015-02-15T08:55:05Z</time>
      </trkpt>
      <trkpt lat="48.65994" lon="-3.20079">
        <ele>75</ele>
        <time>2015-02-15T08:55:07Z</time>
      </trkpt>
      <trkpt lat="48.65994" lon="-3.20044">
        <ele>76</ele>
        <time>2015-02-15T08:55:11Z</time>
      </trkpt>
      <trkpt lat="48.65993" lon="-3.20027">
        <ele>76</ele>
        <time>2015-02-15T08:55:13Z</time>
      </trkpt>
      <trkpt lat="48.65994" lon="-3.19966">
        <ele>79</ele>
        <time>2015-02-15T08:55:20Z</time>
      </trkpt>
      <trkpt lat="48.65994" lon="-3.19957">
        <ele>79</ele>
        <time>2015-02-15T08:55:21Z</time>
      </trkpt>
      <trkpt lat="48.65995" lon="-3.19949">
        <ele>79</ele>
        <time>2015-02-15T08:55:22Z</time>
      </trkpt>
      <trkpt lat="48.65995" lon="-3.1994">
        <ele>80</ele>
        <time>2015-02-15T08:55:23Z</time>
      </trkpt>
      <trkpt lat="48.65997" lon="-3.19932">
        <ele>80</ele>
        <time>2015-02-15T08:55:24Z</time>
      </trkpt>
      <trkpt lat="48.65998" lon="-3.19924">
        <ele>80</ele>
        <time>2015-02-15T08:55:25Z</time>
      </trkpt>
      <trkpt lat="48.66" lon="-3.19916">
        <ele>81</ele>
        <time>2015-02-15T08:55:26Z</time>
      </trkpt>
      <trkpt lat="48.66002" lon="-3.19908">
        <ele>81</ele>
        <time>2015-02-15T08:55:27Z</time>
      </trkpt>
      <trkpt lat="48.66004" lon="-3.199">
        <ele>81</ele>
        <time>2015-02-15T08:55:28Z</time>
      </trkpt>
      <trkpt lat="48.66007" lon="-3.19893">
        <ele>82</ele>
        <time>2015-02-15T08:55:29Z</time>
      </trkpt>
      <trkpt lat="48.6601" lon="-3.19886">
        <ele>82</ele>
        <time>2015-02-15T08:55:30Z</time>
      </trkpt>
      <trkpt lat="48.66013" lon="-3.19879">
        <ele>82</ele>
        <time>2015-02-15T08:55:31Z</time>
      </trkpt>
      <trkpt lat="48.66016" lon="-3.19874">
        <ele>82</ele>
        <time>2015-02-15T08:55:32Z</time>
      </trkpt>
      <trkpt lat="48.66019" lon="-3.19869">
        <ele>83</ele>
        <time>2015-02-15T08:55:33Z</time>
      </trkpt>
      <trkpt lat="48.66022" lon="-3.19864">
        <ele>83</ele>
        <time>2015-02-15T08:55:34Z</time>
      </trkpt>
      <trkpt lat="48.66025" lon="-3.1986">
        <ele>83</ele>
        <time>2015-02-15T08:55:35Z</time>
      </trkpt>
      <trkpt lat="48.66028" lon="-3.19856">
        <ele>83</ele>
        <time>2015-02-15T08:55:36Z</time>
      </trkpt>
      <trkpt lat="48.66031" lon="-3.19853">
        <ele>83</ele>
        <time>2015-02-15T08:55:37Z</time>
      </trkpt>
      <trkpt lat="48.66034" lon="-3.1985">
        <ele>83</ele>
        <time>2015-02-15T08:55:38Z</time>
      </trkpt>
      <trkpt lat="48.66037" lon="-3.19847">
        <ele>84</ele>
        <time>2015-02-15T08:55:39Z</time>
      </trkpt>
      <trkpt lat="48.66039" lon="-3.19845">
        <ele>84</ele>
        <time>2015-02-15T08:55:40Z</time>
      </trkpt>
      <trkpt lat="48.66041" lon="-3.19843">
        <ele>84</ele>
        <time>2015-02-15T08:55:41Z</time>
      </trkpt>
      <trkpt lat="48.66042" lon="-3.19842">
        <ele>84</ele>
        <time>2015-02-15T08:55:42Z</time>
      </trkpt>
      <trkpt lat="48.66044" lon="-3.1984">
        <ele>84</ele>
        <time>2015-02-15T08:55:43Z</time>
      </trkpt>
      <trkpt lat="48.66046" lon="-3.19838">
        <ele>84</ele>
        <time>2015-02-15T08:55:44Z</time>
      </trkpt>
      <trkpt lat="48.66048" lon="-3.19836">
        <ele>84</ele>
        <time>2015-02-15T08:55:45Z</time>
      </trkpt>
      <trkpt lat="48.66049" lon="-3.19833">
        <ele>84</ele>
        <time>2015-02-15T08:55:46Z</time>
      </trkpt>
      <trkpt lat="48.6605" lon="-3.1983">
        <ele>84</ele>
        <time>2015-02-15T08:55:47Z</time>
      </trkpt>
      <trkpt lat="48.66051" lon="-3.19829">
        <ele>84</ele>
        <time>2015-02-15T08:55:48Z</time>
      </trkpt>
      <trkpt lat="48.66051" lon="-3.19827">
        <ele>84</ele>
        <time>2015-02-15T08:55:49Z</time>
      </trkpt>
      <trkpt lat="48.66052" lon="-3.19824">
        <ele>84</ele>
        <time>2015-02-15T08:55:51Z</time>
      </trkpt>
      <trkpt lat="48.66051" lon="-3.19819">
        <ele>84</ele>
        <time>2015-02-15T08:55:55Z</time>
      </trkpt>
      <trkpt lat="48.66052" lon="-3.1981">
        <ele>84</ele>
        <time>2015-02-15T08:55:58Z</time>
      </trkpt>
      <trkpt lat="48.66052" lon="-3.19807">
        <ele>84</ele>
        <time>2015-02-15T08:55:59Z</time>
      </trkpt>
      <trkpt lat="48.66053" lon="-3.19803">
        <ele>84</ele>
        <time>2015-02-15T08:56:00Z</time>
      </trkpt>
      <trkpt lat="48.66055" lon="-3.19798">
        <ele>84</ele>
        <time>2015-02-15T08:56:01Z</time>
      </trkpt>
      <trkpt lat="48.66058" lon="-3.19793">
        <ele>84</ele>
        <time>2015-02-15T08:56:02Z</time>
      </trkpt>
      <trkpt lat="48.66061" lon="-3.19789">
        <ele>84</ele>
        <time>2015-02-15T08:56:03Z</time>
      </trkpt>
      <trkpt lat="48.66064" lon="-3.19784">
        <ele>84</ele>
        <time>2015-02-15T08:56:04Z</time>
      </trkpt>
      <trkpt lat="48.66068" lon="-3.19779">
        <ele>84</ele>
        <time>2015-02-15T08:56:05Z</time>
      </trkpt>
      <trkpt lat="48.66072" lon="-3.19775">
        <ele>84</ele>
        <time>2015-02-15T08:56:06Z</time>
      </trkpt>
      <trkpt lat="48.66077" lon="-3.19771">
        <ele>84</ele>
        <time>2015-02-15T08:56:07Z</time>
      </trkpt>
      <trkpt lat="48.66082" lon="-3.19769">
        <ele>84</ele>
        <time>2015-02-15T08:56:08Z</time>
      </trkpt>
      <trkpt lat="48.66087" lon="-3.19767">
        <ele>84</ele>
        <time>2015-02-15T08:56:09Z</time>
      </trkpt>
      <trkpt lat="48.66093" lon="-3.19767">
        <ele>84</ele>
        <time>2015-02-15T08:56:10Z</time>
      </trkpt>
      <trkpt lat="48.66098" lon="-3.19767">
        <ele>84</ele>
        <time>2015-02-15T08:56:11Z</time>
      </trkpt>
      <trkpt lat="48.66103" lon="-3.19768">
        <ele>84</ele>
        <time>2015-02-15T08:56:12Z</time>
      </trkpt>
      <trkpt lat="48.66109" lon="-3.19769">
        <ele>84</ele>
        <time>2015-02-15T08:56:13Z</time>
      </trkpt>
      <trkpt lat="48.66114" lon="-3.1977">
        <ele>84</ele>
        <time>2015-02-15T08:56:14Z</time>
      </trkpt>
      <trkpt lat="48.66119" lon="-3.1977">
        <ele>84</ele>
        <time>2015-02-15T08:56:15Z</time>
      </trkpt>
      <trkpt lat="48.6613" lon="-3.1977">
        <ele>84</ele>
        <time>2015-02-15T08:56:17Z</time>
      </trkpt>
      <trkpt lat="48.66135" lon="-3.19769">
        <ele>84</ele>
        <time>2015-02-15T08:56:18Z</time>
      </trkpt>
      <trkpt lat="48.66139" lon="-3.19768">
        <ele>84</ele>
        <time>2015-02-15T08:56:19Z</time>
      </trkpt>
      <trkpt lat="48.66144" lon="-3.19766">
        <ele>84</ele>
        <time>2015-02-15T08:56:20Z</time>
      </trkpt>
      <trkpt lat="48.66148" lon="-3.19765">
        <ele>84</ele>
        <time>2015-02-15T08:56:21Z</time>
      </trkpt>
      <trkpt lat="48.66153" lon="-3.19763">
        <ele>84</ele>
        <time>2015-02-15T08:56:22Z</time>
      </trkpt>
      <trkpt lat="48.66158" lon="-3.19761">
        <ele>84</ele>
        <time>2015-02-15T08:56:23Z</time>
      </trkpt>
      <trkpt lat="48.66162" lon="-3.19759">
        <ele>84</ele>
        <time>2015-02-15T08:56:24Z</time>
      </trkpt>
      <trkpt lat="48.66167" lon="-3.19756">
        <ele>84</ele>
        <time>2015-02-15T08:56:25Z</time>
      </trkpt>
      <trkpt lat="48.66172" lon="-3.19753">
        <ele>85</ele>
        <time>2015-02-15T08:56:26Z</time>
      </trkpt>
      <trkpt lat="48.66177" lon="-3.1975">
        <ele>85</ele>
        <time>2015-02-15T08:56:27Z</time>
      </trkpt>
      <trkpt lat="48.66182" lon="-3.19747">
        <ele>85</ele>
        <time>2015-02-15T08:56:28Z</time>
      </trkpt>
      <trkpt lat="48.66188" lon="-3.19743">
        <ele>85</ele>
        <time>2015-02-15T08:56:29Z</time>
      </trkpt>
      <trkpt lat="48.66193" lon="-3.1974">
        <ele>85</ele>
        <time>2015-02-15T08:56:30Z</time>
      </trkpt>
      <trkpt lat="48.66198" lon="-3.19737">
        <ele>86</ele>
        <time>2015-02-15T08:56:31Z</time>
      </trkpt>
      <trkpt lat="48.66203" lon="-3.19733">
        <ele>86</ele>
        <time>2015-02-15T08:56:32Z</time>
      </trkpt>
      <trkpt lat="48.66208" lon="-3.1973">
        <ele>86</ele>
        <time>2015-02-15T08:56:33Z</time>
      </trkpt>
      <trkpt lat="48.66213" lon="-3.19726">
        <ele>86</ele>
        <time>2015-02-15T08:56:34Z</time>
      </trkpt>
      <trkpt lat="48.66218" lon="-3.19723">
        <ele>86</ele>
        <time>2015-02-15T08:56:35Z</time>
      </trkpt>
      <trkpt lat="48.66222" lon="-3.1972">
        <ele>86</ele>
        <time>2015-02-15T08:56:36Z</time>
      </trkpt>
      <trkpt lat="48.66227" lon="-3.19717">
        <ele>86</ele>
        <time>2015-02-15T08:56:37Z</time>
      </trkpt>
      <trkpt lat="48.66232" lon="-3.19714">
        <ele>86</ele>
        <time>2015-02-15T08:56:38Z</time>
      </trkpt>
      <trkpt lat="48.66237" lon="-3.1971">
        <ele>86</ele>
        <time>2015-02-15T08:56:39Z</time>
      </trkpt>
      <trkpt lat="48.66242" lon="-3.19707">
        <ele>87</ele>
        <time>2015-02-15T08:56:40Z</time>
      </trkpt>
      <trkpt lat="48.66247" lon="-3.19704">
        <ele>87</ele>
        <time>2015-02-15T08:56:41Z</time>
      </trkpt>
      <trkpt lat="48.66252" lon="-3.19701">
        <ele>87</ele>
        <time>2015-02-15T08:56:42Z</time>
      </trkpt>
      <trkpt lat="48.66256" lon="-3.19698">
        <ele>87</ele>
        <time>2015-02-15T08:56:43Z</time>
      </trkpt>
      <trkpt lat="48.66261" lon="-3.19695">
        <ele>87</ele>
        <time>2015-02-15T08:56:44Z</time>
      </trkpt>
      <trkpt lat="48.66265" lon="-3.19692">
        <ele>87</ele>
        <time>2015-02-15T08:56:45Z</time>
      </trkpt>
      <trkpt lat="48.6627" lon="-3.19689">
        <ele>87</ele>
        <time>2015-02-15T08:56:46Z</time>
      </trkpt>
      <trkpt lat="48.66274" lon="-3.19686">
        <ele>88</ele>
        <time>2015-02-15T08:56:47Z</time>
      </trkpt>
      <trkpt lat="48.66279" lon="-3.19684">
        <ele>88</ele>
        <time>2015-02-15T08:56:48Z</time>
      </trkpt>
      <trkpt lat="48.66284" lon="-3.19681">
        <ele>88</ele>
        <time>2015-02-15T08:56:49Z</time>
      </trkpt>
      <trkpt lat="48.66289" lon="-3.19678">
        <ele>88</ele>
        <time>2015-02-15T08:56:50Z</time>
      </trkpt>
      <trkpt lat="48.66294" lon="-3.19675">
        <ele>88</ele>
        <time>2015-02-15T08:56:51Z</time>
      </trkpt>
      <trkpt lat="48.66299" lon="-3.19672">
        <ele>89</ele>
        <time>2015-02-15T08:56:52Z</time>
      </trkpt>
      <trkpt lat="48.66305" lon="-3.1967">
        <ele>89</ele>
        <time>2015-02-15T08:56:53Z</time>
      </trkpt>
      <trkpt lat="48.6631" lon="-3.19668">
        <ele>89</ele>
        <time>2015-02-15T08:56:54Z</time>
      </trkpt>
      <trkpt lat="48.66315" lon="-3.19665">
        <ele>90</ele>
        <time>2015-02-15T08:56:55Z</time>
      </trkpt>
      <trkpt lat="48.66321" lon="-3.19663">
        <ele>90</ele>
        <time>2015-02-15T08:56:56Z</time>
      </trkpt>
      <trkpt lat="48.66326" lon="-3.19661">
        <ele>90</ele>
        <time>2015-02-15T08:56:57Z</time>
      </trkpt>
      <trkpt lat="48.66332" lon="-3.1966">
        <ele>90</ele>
        <time>2015-02-15T08:56:58Z</time>
      </trkpt>
      <trkpt lat="48.66337" lon="-3.19658">
        <ele>91</ele>
        <time>2015-02-15T08:56:59Z</time>
      </trkpt>
      <trkpt lat="48.66342" lon="-3.19657">
        <ele>91</ele>
        <time>2015-02-15T08:57:00Z</time>
      </trkpt>
      <trkpt lat="48.66348" lon="-3.19656">
        <ele>91</ele>
        <time>2015-02-15T08:57:01Z</time>
      </trkpt>
      <trkpt lat="48.66353" lon="-3.19655">
        <ele>91</ele>
        <time>2015-02-15T08:57:02Z</time>
      </trkpt>
      <trkpt lat="48.66359" lon="-3.19654">
        <ele>92</ele>
        <time>2015-02-15T08:57:03Z</time>
      </trkpt>
      <trkpt lat="48.66364" lon="-3.19654">
        <ele>92</ele>
        <time>2015-02-15T08:57:04Z</time>
      </trkpt>
      <trkpt lat="48.6637" lon="-3.19654">
        <ele>92</ele>
        <time>2015-02-15T08:57:05Z</time>
      </trkpt>
      <trkpt lat="48.66376" lon="-3.19653">
        <ele>92</ele>
        <time>2015-02-15T08:57:06Z</time>
      </trkpt>
      <trkpt lat="48.66381" lon="-3.19653">
        <ele>93</ele>
        <time>2015-02-15T08:57:07Z</time>
      </trkpt>
      <trkpt lat="48.66387" lon="-3.19653">
        <ele>93</ele>
        <time>2015-02-15T08:57:08Z</time>
      </trkpt>
      <trkpt lat="48.66398" lon="-3.19653">
        <ele>93</ele>
        <time>2015-02-15T08:57:10Z</time>
      </trkpt>
      <trkpt lat="48.66404" lon="-3.19653">
        <ele>93</ele>
        <time>2015-02-15T08:57:11Z</time>
      </trkpt>
      <trkpt lat="48.66409" lon="-3.19654">
        <ele>93</ele>
        <time>2015-02-15T08:57:12Z</time>
      </trkpt>
      <trkpt lat="48.66415" lon="-3.19654">
        <ele>93</ele>
        <time>2015-02-15T08:57:13Z</time>
      </trkpt>
      <trkpt lat="48.6642" lon="-3.19655">
        <ele>93</ele>
        <time>2015-02-15T08:57:14Z</time>
      </trkpt>
      <trkpt lat="48.66426" lon="-3.19656">
        <ele>93</ele>
        <time>2015-02-15T08:57:15Z</time>
      </trkpt>
      <trkpt lat="48.66431" lon="-3.19657">
        <ele>94</ele>
        <time>2015-02-15T08:57:16Z</time>
      </trkpt>
      <trkpt lat="48.66437" lon="-3.19658">
        <ele>94</ele>
        <time>2015-02-15T08:57:17Z</time>
      </trkpt>
      <trkpt lat="48.66443" lon="-3.1966">
        <ele>94</ele>
        <time>2015-02-15T08:57:18Z</time>
      </trkpt>
      <trkpt lat="48.66449" lon="-3.19662">
        <ele>94</ele>
        <time>2015-02-15T08:57:19Z</time>
      </trkpt>
      <trkpt lat="48.66455" lon="-3.19664">
        <ele>94</ele>
        <time>2015-02-15T08:57:20Z</time>
      </trkpt>
      <trkpt lat="48.66461" lon="-3.19666">
        <ele>95</ele>
        <time>2015-02-15T08:57:21Z</time>
      </trkpt>
      <trkpt lat="48.66468" lon="-3.19668">
        <ele>95</ele>
        <time>2015-02-15T08:57:22Z</time>
      </trkpt>
      <trkpt lat="48.66473" lon="-3.1967">
        <ele>95</ele>
        <time>2015-02-15T08:57:23Z</time>
      </trkpt>
      <trkpt lat="48.6648" lon="-3.19672">
        <ele>95</ele>
        <time>2015-02-15T08:57:24Z</time>
      </trkpt>
      <trkpt lat="48.66486" lon="-3.19674">
        <ele>95</ele>
        <time>2015-02-15T08:57:25Z</time>
      </trkpt>
      <trkpt lat="48.66492" lon="-3.19676">
        <ele>95</ele>
        <time>2015-02-15T08:57:26Z</time>
      </trkpt>
      <trkpt lat="48.66498" lon="-3.19679">
        <ele>95</ele>
        <time>2015-02-15T08:57:27Z</time>
      </trkpt>
      <trkpt lat="48.66504" lon="-3.19681">
        <ele>96</ele>
        <time>2015-02-15T08:57:28Z</time>
      </trkpt>
      <trkpt lat="48.6651" lon="-3.19683">
        <ele>96</ele>
        <time>2015-02-15T08:57:29Z</time>
      </trkpt>
      <trkpt lat="48.66516" lon="-3.19685">
        <ele>96</ele>
        <time>2015-02-15T08:57:30Z</time>
      </trkpt>
      <trkpt lat="48.66522" lon="-3.19688">
        <ele>96</ele>
        <time>2015-02-15T08:57:31Z</time>
      </trkpt>
      <trkpt lat="48.66528" lon="-3.1969">
        <ele>97</ele>
        <time>2015-02-15T08:57:32Z</time>
      </trkpt>
      <trkpt lat="48.66534" lon="-3.19692">
        <ele>97</ele>
        <time>2015-02-15T08:57:33Z</time>
      </trkpt>
      <trkpt lat="48.6654" lon="-3.19695">
        <ele>97</ele>
        <time>2015-02-15T08:57:34Z</time>
      </trkpt>
      <trkpt lat="48.66546" lon="-3.19697">
        <ele>97</ele>
        <time>2015-02-15T08:57:35Z</time>
      </trkpt>
      <trkpt lat="48.66552" lon="-3.19699">
        <ele>97</ele>
        <time>2015-02-15T08:57:36Z</time>
      </trkpt>
      <trkpt lat="48.66558" lon="-3.19702">
        <ele>97</ele>
        <time>2015-02-15T08:57:37Z</time>
      </trkpt>
      <trkpt lat="48.66565" lon="-3.19704">
        <ele>97</ele>
        <time>2015-02-15T08:57:38Z</time>
      </trkpt>
      <trkpt lat="48.66571" lon="-3.19706">
        <ele>97</ele>
        <time>2015-02-15T08:57:39Z</time>
      </trkpt>
      <trkpt lat="48.66577" lon="-3.19708">
        <ele>97</ele>
        <time>2015-02-15T08:57:40Z</time>
      </trkpt>
      <trkpt lat="48.66583" lon="-3.19711">
        <ele>98</ele>
        <time>2015-02-15T08:57:41Z</time>
      </trkpt>
      <trkpt lat="48.66589" lon="-3.19713">
        <ele>98</ele>
        <time>2015-02-15T08:57:42Z</time>
      </trkpt>
      <trkpt lat="48.66595" lon="-3.19715">
        <ele>98</ele>
        <time>2015-02-15T08:57:43Z</time>
      </trkpt>
      <trkpt lat="48.66601" lon="-3.19717">
        <ele>98</ele>
        <time>2015-02-15T08:57:44Z</time>
      </trkpt>
      <trkpt lat="48.66608" lon="-3.1972">
        <ele>98</ele>
        <time>2015-02-15T08:57:45Z</time>
      </trkpt>
      <trkpt lat="48.66614" lon="-3.19722">
        <ele>98</ele>
        <time>2015-02-15T08:57:46Z</time>
      </trkpt>
      <trkpt lat="48.6662" lon="-3.19724">
        <ele>98</ele>
        <time>2015-02-15T08:57:47Z</time>
      </trkpt>
      <trkpt lat="48.66627" lon="-3.19726">
        <ele>98</ele>
        <time>2015-02-15T08:57:48Z</time>
      </trkpt>
      <trkpt lat="48.66633" lon="-3.19728">
        <ele>98</ele>
        <time>2015-02-15T08:57:49Z</time>
      </trkpt>
      <trkpt lat="48.66639" lon="-3.1973">
        <ele>98</ele>
        <time>2015-02-15T08:57:50Z</time>
      </trkpt>
      <trkpt lat="48.66645" lon="-3.19732">
        <ele>98</ele>
        <time>2015-02-15T08:57:51Z</time>
      </trkpt>
      <trkpt lat="48.66652" lon="-3.19734">
        <ele>98</ele>
        <time>2015-02-15T08:57:52Z</time>
      </trkpt>
      <trkpt lat="48.66658" lon="-3.19736">
        <ele>98</ele>
        <time>2015-02-15T08:57:53Z</time>
      </trkpt>
      <trkpt lat="48.66665" lon="-3.19737">
        <ele>98</ele>
        <time>2015-02-15T08:57:54Z</time>
      </trkpt>
      <trkpt lat="48.66671" lon="-3.19739">
        <ele>98</ele>
        <time>2015-02-15T08:57:55Z</time>
      </trkpt>
      <trkpt lat="48.66678" lon="-3.19741">
        <ele>98</ele>
        <time>2015-02-15T08:57:56Z</time>
      </trkpt>
      <trkpt lat="48.66685" lon="-3.19742">
        <ele>98</ele>
        <time>2015-02-15T08:57:57Z</time>
      </trkpt>
      <trkpt lat="48.66692" lon="-3.19743">
        <ele>98</ele>
        <time>2015-02-15T08:57:58Z</time>
      </trkpt>
      <trkpt lat="48.66699" lon="-3.19745">
        <ele>98</ele>
        <time>2015-02-15T08:57:59Z</time>
      </trkpt>
      <trkpt lat="48.66706" lon="-3.19746">
        <ele>98</ele>
        <time>2015-02-15T08:58:00Z</time>
      </trkpt>
      <trkpt lat="48.66713" lon="-3.19747">
        <ele>98</ele>
        <time>2015-02-15T08:58:01Z</time>
      </trkpt>
      <trkpt lat="48.66721" lon="-3.19749">
        <ele>98</ele>
        <time>2015-02-15T08:58:02Z</time>
      </trkpt>
      <trkpt lat="48.66728" lon="-3.19749">
        <ele>98</ele>
        <time>2015-02-15T08:58:03Z</time>
      </trkpt>
      <trkpt lat="48.66736" lon="-3.1975">
        <ele>98</ele>
        <time>2015-02-15T08:58:04Z</time>
      </trkpt>
      <trkpt lat="48.66743" lon="-3.19751">
        <ele>98</ele>
        <time>2015-02-15T08:58:05Z</time>
      </trkpt>
      <trkpt lat="48.66751" lon="-3.19752">
        <ele>98</ele>
        <time>2015-02-15T08:58:06Z</time>
      </trkpt>
      <trkpt lat="48.66758" lon="-3.19752">
        <ele>98</ele>
        <time>2015-02-15T08:58:07Z</time>
      </trkpt>
      <trkpt lat="48.66766" lon="-3.19753">
        <ele>98</ele>
        <time>2015-02-15T08:58:08Z</time>
      </trkpt>
      <trkpt lat="48.66774" lon="-3.19753">
        <ele>98</ele>
        <time>2015-02-15T08:58:09Z</time>
      </trkpt>
      <trkpt lat="48.66782" lon="-3.19753">
        <ele>98</ele>
        <time>2015-02-15T08:58:10Z</time>
      </trkpt>
      <trkpt lat="48.66798" lon="-3.19753">
        <ele>98</ele>
        <time>2015-02-15T08:58:12Z</time>
      </trkpt>
      <trkpt lat="48.66806" lon="-3.19752">
        <ele>98</ele>
        <time>2015-02-15T08:58:13Z</time>
      </trkpt>
      <trkpt lat="48.66814" lon="-3.19752">
        <ele>98</ele>
        <time>2015-02-15T08:58:14Z</time>
      </trkpt>
      <trkpt lat="48.66822" lon="-3.19751">
        <ele>98</ele>
        <time>2015-02-15T08:58:15Z</time>
      </trkpt>
      <trkpt lat="48.6683" lon="-3.19751">
        <ele>98</ele>
        <time>2015-02-15T08:58:16Z</time>
      </trkpt>
      <trkpt lat="48.66838" lon="-3.1975">
        <ele>98</ele>
        <time>2015-02-15T08:58:17Z</time>
      </trkpt>
      <trkpt lat="48.66846" lon="-3.19749">
        <ele>98</ele>
        <time>2015-02-15T08:58:18Z</time>
      </trkpt>
      <trkpt lat="48.66854" lon="-3.19748">
        <ele>98</ele>
        <time>2015-02-15T08:58:19Z</time>
      </trkpt>
      <trkpt lat="48.66862" lon="-3.19746">
        <ele>98</ele>
        <time>2015-02-15T08:58:20Z</time>
      </trkpt>
      <trkpt lat="48.6687" lon="-3.19744">
        <ele>98</ele>
        <time>2015-02-15T08:58:21Z</time>
      </trkpt>
      <trkpt lat="48.66878" lon="-3.19743">
        <ele>98</ele>
        <time>2015-02-15T08:58:22Z</time>
      </trkpt>
      <trkpt lat="48.66885" lon="-3.19741">
        <ele>98</ele>
        <time>2015-02-15T08:58:23Z</time>
      </trkpt>
      <trkpt lat="48.66893" lon="-3.19739">
        <ele>98</ele>
        <time>2015-02-15T08:58:24Z</time>
      </trkpt>
      <trkpt lat="48.66901" lon="-3.19737">
        <ele>98</ele>
        <time>2015-02-15T08:58:25Z</time>
      </trkpt>
      <trkpt lat="48.66908" lon="-3.19735">
        <ele>98</ele>
        <time>2015-02-15T08:58:26Z</time>
      </trkpt>
      <trkpt lat="48.66916" lon="-3.19732">
        <ele>98</ele>
        <time>2015-02-15T08:58:27Z</time>
      </trkpt>
      <trkpt lat="48.66923" lon="-3.1973">
        <ele>98</ele>
        <time>2015-02-15T08:58:28Z</time>
      </trkpt>
      <trkpt lat="48.66931" lon="-3.19727">
        <ele>98</ele>
        <time>2015-02-15T08:58:29Z</time>
      </trkpt>
      <trkpt lat="48.66939" lon="-3.19724">
        <ele>98</ele>
        <time>2015-02-15T08:58:30Z</time>
      </trkpt>
      <trkpt lat="48.66946" lon="-3.1972">
        <ele>98</ele>
        <time>2015-02-15T08:58:31Z</time>
      </trkpt>
      <trkpt lat="48.66954" lon="-3.19717">
        <ele>98</ele>
        <time>2015-02-15T08:58:32Z</time>
      </trkpt>
      <trkpt lat="48.66962" lon="-3.19713">
        <ele>98</ele>
        <time>2015-02-15T08:58:33Z</time>
      </trkpt>
      <trkpt lat="48.66969" lon="-3.19709">
        <ele>98</ele>
        <time>2015-02-15T08:58:34Z</time>
      </trkpt>
      <trkpt lat="48.66977" lon="-3.19705">
        <ele>98</ele>
        <time>2015-02-15T08:58:35Z</time>
      </trkpt>
      <trkpt lat="48.66984" lon="-3.197">
        <ele>98</ele>
        <time>2015-02-15T08:58:36Z</time>
      </trkpt>
      <trkpt lat="48.66991" lon="-3.19695">
        <ele>98</ele>
        <time>2015-02-15T08:58:37Z</time>
      </trkpt>
      <trkpt lat="48.66998" lon="-3.19689">
        <ele>98</ele>
        <time>2015-02-15T08:58:38Z</time>
      </trkpt>
      <trkpt lat="48.67005" lon="-3.19682">
        <ele>98</ele>
        <time>2015-02-15T08:58:39Z</time>
      </trkpt>
      <trkpt lat="48.67011" lon="-3.19676">
        <ele>98</ele>
        <time>2015-02-15T08:58:40Z</time>
      </trkpt>
      <trkpt lat="48.67018" lon="-3.1967">
        <ele>98</ele>
        <time>2015-02-15T08:58:41Z</time>
      </trkpt>
      <trkpt lat="48.67025" lon="-3.19663">
        <ele>98</ele>
        <time>2015-02-15T08:58:42Z</time>
      </trkpt>
      <trkpt lat="48.67031" lon="-3.19657">
        <ele>98</ele>
        <time>2015-02-15T08:58:43Z</time>
      </trkpt>
      <trkpt lat="48.67038" lon="-3.1965">
        <ele>98</ele>
        <time>2015-02-15T08:58:44Z</time>
      </trkpt>
      <trkpt lat="48.67045" lon="-3.19644">
        <ele>98</ele>
        <time>2015-02-15T08:58:45Z</time>
      </trkpt>
      <trkpt lat="48.67052" lon="-3.19637">
        <ele>98</ele>
        <time>2015-02-15T08:58:46Z</time>
      </trkpt>
      <trkpt lat="48.67059" lon="-3.1963">
        <ele>98</ele>
        <time>2015-02-15T08:58:47Z</time>
      </trkpt>
      <trkpt lat="48.67066" lon="-3.19623">
        <ele>98</ele>
        <time>2015-02-15T08:58:48Z</time>
      </trkpt>
      <trkpt lat="48.67073" lon="-3.19616">
        <ele>98</ele>
        <time>2015-02-15T08:58:49Z</time>
      </trkpt>
      <trkpt lat="48.6708" lon="-3.19609">
        <ele>98</ele>
        <time>2015-02-15T08:58:50Z</time>
      </trkpt>
      <trkpt lat="48.67087" lon="-3.19602">
        <ele>98</ele>
        <time>2015-02-15T08:58:51Z</time>
      </trkpt>
      <trkpt lat="48.67094" lon="-3.19595">
        <ele>98</ele>
        <time>2015-02-15T08:58:52Z</time>
      </trkpt>
      <trkpt lat="48.671" lon="-3.19589">
        <ele>98</ele>
        <time>2015-02-15T08:58:53Z</time>
      </trkpt>
      <trkpt lat="48.67107" lon="-3.19583">
        <ele>98</ele>
        <time>2015-02-15T08:58:54Z</time>
      </trkpt>
      <trkpt lat="48.67113" lon="-3.19576">
        <ele>98</ele>
        <time>2015-02-15T08:58:55Z</time>
      </trkpt>
      <trkpt lat="48.6712" lon="-3.1957">
        <ele>98</ele>
        <time>2015-02-15T08:58:56Z</time>
      </trkpt>
      <trkpt lat="48.67127" lon="-3.19564">
        <ele>98</ele>
        <time>2015-02-15T08:58:57Z</time>
      </trkpt>
      <trkpt lat="48.67134" lon="-3.19558">
        <ele>98</ele>
        <time>2015-02-15T08:58:58Z</time>
      </trkpt>
      <trkpt lat="48.67141" lon="-3.19552">
        <ele>98</ele>
        <time>2015-02-15T08:58:59Z</time>
      </trkpt>
      <trkpt lat="48.67148" lon="-3.19545">
        <ele>98</ele>
        <time>2015-02-15T08:59:00Z</time>
      </trkpt>
      <trkpt lat="48.67155" lon="-3.19538">
        <ele>98</ele>
        <time>2015-02-15T08:59:01Z</time>
      </trkpt>
      <trkpt lat="48.67162" lon="-3.19531">
        <ele>98</ele>
        <time>2015-02-15T08:59:02Z</time>
      </trkpt>
      <trkpt lat="48.67168" lon="-3.19523">
        <ele>98</ele>
        <time>2015-02-15T08:59:03Z</time>
      </trkpt>
      <trkpt lat="48.67176" lon="-3.19516">
        <ele>98</ele>
        <time>2015-02-15T08:59:04Z</time>
      </trkpt>
      <trkpt lat="48.67183" lon="-3.19508">
        <ele>98</ele>
        <time>2015-02-15T08:59:05Z</time>
      </trkpt>
      <trkpt lat="48.6719" lon="-3.19501">
        <ele>98</ele>
        <time>2015-02-15T08:59:06Z</time>
      </trkpt>
      <trkpt lat="48.67197" lon="-3.19494">
        <ele>98</ele>
        <time>2015-02-15T08:59:07Z</time>
      </trkpt>
      <trkpt lat="48.67204" lon="-3.19487">
        <ele>98</ele>
        <time>2015-02-15T08:59:08Z</time>
      </trkpt>
      <trkpt lat="48.67211" lon="-3.19479">
        <ele>98</ele>
        <time>2015-02-15T08:59:09Z</time>
      </trkpt>
      <trkpt lat="48.67218" lon="-3.19473">
        <ele>98</ele>
        <time>2015-02-15T08:59:10Z</time>
      </trkpt>
      <trkpt lat="48.67225" lon="-3.19466">
        <ele>97</ele>
        <time>2015-02-15T08:59:11Z</time>
      </trkpt>
      <trkpt lat="48.67232" lon="-3.19459">
        <ele>97</ele>
        <time>2015-02-15T08:59:12Z</time>
      </trkpt>
      <trkpt lat="48.67239" lon="-3.19452">
        <ele>97</ele>
        <time>2015-02-15T08:59:13Z</time>
      </trkpt>
      <trkpt lat="48.67245" lon="-3.19446">
        <ele>97</ele>
        <time>2015-02-15T08:59:14Z</time>
      </trkpt>
      <trkpt lat="48.67252" lon="-3.19439">
        <ele>97</ele>
        <time>2015-02-15T08:59:15Z</time>
      </trkpt>
      <trkpt lat="48.67259" lon="-3.19432">
        <ele>97</ele>
        <time>2015-02-15T08:59:16Z</time>
      </trkpt>
      <trkpt lat="48.67266" lon="-3.19425">
        <ele>97</ele>
        <time>2015-02-15T08:59:17Z</time>
      </trkpt>
      <trkpt lat="48.67273" lon="-3.19419">
        <ele>97</ele>
        <time>2015-02-15T08:59:18Z</time>
      </trkpt>
      <trkpt lat="48.67281" lon="-3.19412">
        <ele>97</ele>
        <time>2015-02-15T08:59:19Z</time>
      </trkpt>
      <trkpt lat="48.67288" lon="-3.19406">
        <ele>97</ele>
        <time>2015-02-15T08:59:20Z</time>
      </trkpt>
      <trkpt lat="48.67295" lon="-3.19399">
        <ele>97</ele>
        <time>2015-02-15T08:59:21Z</time>
      </trkpt>
      <trkpt lat="48.67302" lon="-3.19392">
        <ele>97</ele>
        <time>2015-02-15T08:59:22Z</time>
      </trkpt>
      <trkpt lat="48.67309" lon="-3.19386">
        <ele>96</ele>
        <time>2015-02-15T08:59:23Z</time>
      </trkpt>
      <trkpt lat="48.67316" lon="-3.19378">
        <ele>96</ele>
        <time>2015-02-15T08:59:24Z</time>
      </trkpt>
      <trkpt lat="48.67322" lon="-3.19371">
        <ele>96</ele>
        <time>2015-02-15T08:59:25Z</time>
      </trkpt>
      <trkpt lat="48.67329" lon="-3.19363">
        <ele>96</ele>
        <time>2015-02-15T08:59:26Z</time>
      </trkpt>
      <trkpt lat="48.67336" lon="-3.19356">
        <ele>96</ele>
        <time>2015-02-15T08:59:27Z</time>
      </trkpt>
      <trkpt lat="48.67342" lon="-3.19349">
        <ele>96</ele>
        <time>2015-02-15T08:59:28Z</time>
      </trkpt>
      <trkpt lat="48.67349" lon="-3.19342">
        <ele>96</ele>
        <time>2015-02-15T08:59:29Z</time>
      </trkpt>
      <trkpt lat="48.67356" lon="-3.19335">
        <ele>95</ele>
        <time>2015-02-15T08:59:30Z</time>
      </trkpt>
      <trkpt lat="48.67363" lon="-3.19327">
        <ele>95</ele>
        <time>2015-02-15T08:59:31Z</time>
      </trkpt>
      <trkpt lat="48.67369" lon="-3.19318">
        <ele>95</ele>
        <time>2015-02-15T08:59:32Z</time>
      </trkpt>
      <trkpt lat="48.67376" lon="-3.19309">
        <ele>95</ele>
        <time>2015-02-15T08:59:33Z</time>
      </trkpt>
      <trkpt lat="48.67381" lon="-3.19299">
        <ele>95</ele>
        <time>2015-02-15T08:59:34Z</time>
      </trkpt>
      <trkpt lat="48.67386" lon="-3.19288">
        <ele>95</ele>
        <time>2015-02-15T08:59:35Z</time>
      </trkpt>
      <trkpt lat="48.67391" lon="-3.19278">
        <ele>94</ele>
        <time>2015-02-15T08:59:36Z</time>
      </trkpt>
      <trkpt lat="48.67396" lon="-3.19267">
        <ele>94</ele>
        <time>2015-02-15T08:59:37Z</time>
      </trkpt>
      <trkpt lat="48.67401" lon="-3.19256">
        <ele>94</ele>
        <time>2015-02-15T08:59:38Z</time>
      </trkpt>
      <trkpt lat="48.67406" lon="-3.19245">
        <ele>94</ele>
        <time>2015-02-15T08:59:39Z</time>
      </trkpt>
      <trkpt lat="48.67411" lon="-3.19234">
        <ele>94</ele>
        <time>2015-02-15T08:59:40Z</time>
      </trkpt>
      <trkpt lat="48.67416" lon="-3.19223">
        <ele>94</ele>
        <time>2015-02-15T08:59:41Z</time>
      </trkpt>
      <trkpt lat="48.67421" lon="-3.19212">
        <ele>94</ele>
        <time>2015-02-15T08:59:42Z</time>
      </trkpt>
      <trkpt lat="48.67426" lon="-3.192">
        <ele>94</ele>
        <time>2015-02-15T08:59:43Z</time>
      </trkpt>
      <trkpt lat="48.67431" lon="-3.19189">
        <ele>94</ele>
        <time>2015-02-15T08:59:44Z</time>
      </trkpt>
      <trkpt lat="48.67436" lon="-3.19178">
        <ele>94</ele>
        <time>2015-02-15T08:59:45Z</time>
      </trkpt>
      <trkpt lat="48.67441" lon="-3.19166">
        <ele>94</ele>
        <time>2015-02-15T08:59:46Z</time>
      </trkpt>
      <trkpt lat="48.67446" lon="-3.19155">
        <ele>94</ele>
        <time>2015-02-15T08:59:47Z</time>
      </trkpt>
      <trkpt lat="48.67451" lon="-3.19144">
        <ele>94</ele>
        <time>2015-02-15T08:59:48Z</time>
      </trkpt>
      <trkpt lat="48.67456" lon="-3.19133">
        <ele>93</ele>
        <time>2015-02-15T08:59:49Z</time>
      </trkpt>
      <trkpt lat="48.67461" lon="-3.19123">
        <ele>93</ele>
        <time>2015-02-15T08:59:50Z</time>
      </trkpt>
      <trkpt lat="48.67466" lon="-3.19112">
        <ele>93</ele>
        <time>2015-02-15T08:59:51Z</time>
      </trkpt>
      <trkpt lat="48.67471" lon="-3.19101">
        <ele>93</ele>
        <time>2015-02-15T08:59:52Z</time>
      </trkpt>
      <trkpt lat="48.67477" lon="-3.1909">
        <ele>93</ele>
        <time>2015-02-15T08:59:53Z</time>
      </trkpt>
      <trkpt lat="48.67482" lon="-3.19079">
        <ele>93</ele>
        <time>2015-02-15T08:59:54Z</time>
      </trkpt>
      <trkpt lat="48.67487" lon="-3.19068">
        <ele>93</ele>
        <time>2015-02-15T08:59:55Z</time>
      </trkpt>
      <trkpt lat="48.67492" lon="-3.19057">
        <ele>93</ele>
        <time>2015-02-15T08:59:56Z</time>
      </trkpt>
      <trkpt lat="48.67497" lon="-3.19046">
        <ele>93</ele>
        <time>2015-02-15T08:59:57Z</time>
      </trkpt>
      <trkpt lat="48.67502" lon="-3.19034">
        <ele>93</ele>
        <time>2015-02-15T08:59:58Z</time>
      </trkpt>
      <trkpt lat="48.67507" lon="-3.19023">
        <ele>93</ele>
        <time>2015-02-15T08:59:59Z</time>
      </trkpt>
      <trkpt lat="48.67512" lon="-3.19011">
        <ele>93</ele>
        <time>2015-02-15T09:00:00Z</time>
      </trkpt>
      <trkpt lat="48.67518" lon="-3.18999">
        <ele>93</ele>
        <time>2015-02-15T09:00:01Z</time>
      </trkpt>
      <trkpt lat="48.67523" lon="-3.18988">
        <ele>92</ele>
        <time>2015-02-15T09:00:02Z</time>
      </trkpt>
      <trkpt lat="48.67529" lon="-3.18976">
        <ele>92</ele>
        <time>2015-02-15T09:00:03Z</time>
      </trkpt>
      <trkpt lat="48.67534" lon="-3.18964">
        <ele>92</ele>
        <time>2015-02-15T09:00:04Z</time>
      </trkpt>
      <trkpt lat="48.6754" lon="-3.18952">
        <ele>92</ele>
        <time>2015-02-15T09:00:05Z</time>
      </trkpt>
      <trkpt lat="48.67545" lon="-3.18939">
        <ele>92</ele>
        <time>2015-02-15T09:00:06Z</time>
      </trkpt>
      <trkpt lat="48.67551" lon="-3.18927">
        <ele>92</ele>
        <time>2015-02-15T09:00:07Z</time>
      </trkpt>
      <trkpt lat="48.67556" lon="-3.18915">
        <ele>92</ele>
        <time>2015-02-15T09:00:08Z</time>
      </trkpt>
      <trkpt lat="48.67562" lon="-3.18903">
        <ele>92</ele>
        <time>2015-02-15T09:00:09Z</time>
      </trkpt>
      <trkpt lat="48.67568" lon="-3.18892">
        <ele>92</ele>
        <time>2015-02-15T09:00:10Z</time>
      </trkpt>
      <trkpt lat="48.67574" lon="-3.1888">
        <ele>92</ele>
        <time>2015-02-15T09:00:11Z</time>
      </trkpt>
      <trkpt lat="48.6758" lon="-3.18868">
        <ele>92</ele>
        <time>2015-02-15T09:00:12Z</time>
      </trkpt>
      <trkpt lat="48.67585" lon="-3.18857">
        <ele>92</ele>
        <time>2015-02-15T09:00:13Z</time>
      </trkpt>
      <trkpt lat="48.67591" lon="-3.18845">
        <ele>92</ele>
        <time>2015-02-15T09:00:14Z</time>
      </trkpt>
      <trkpt lat="48.67597" lon="-3.18834">
        <ele>92</ele>
        <time>2015-02-15T09:00:15Z</time>
      </trkpt>
      <trkpt lat="48.67602" lon="-3.18824">
        <ele>92</ele>
        <time>2015-02-15T09:00:16Z</time>
      </trkpt>
      <trkpt lat="48.67608" lon="-3.18813">
        <ele>92</ele>
        <time>2015-02-15T09:00:17Z</time>
      </trkpt>
      <trkpt lat="48.67613" lon="-3.18802">
        <ele>92</ele>
        <time>2015-02-15T09:00:18Z</time>
      </trkpt>
      <trkpt lat="48.67618" lon="-3.18792">
        <ele>92</ele>
        <time>2015-02-15T09:00:19Z</time>
      </trkpt>
      <trkpt lat="48.67623" lon="-3.18781">
        <ele>92</ele>
        <time>2015-02-15T09:00:20Z</time>
      </trkpt>
      <trkpt lat="48.67628" lon="-3.1877">
        <ele>92</ele>
        <time>2015-02-15T09:00:21Z</time>
      </trkpt>
      <trkpt lat="48.67634" lon="-3.18759">
        <ele>92</ele>
        <time>2015-02-15T09:00:22Z</time>
      </trkpt>
      <trkpt lat="48.67639" lon="-3.18747">
        <ele>92</ele>
        <time>2015-02-15T09:00:23Z</time>
      </trkpt>
      <trkpt lat="48.67644" lon="-3.18736">
        <ele>92</ele>
        <time>2015-02-15T09:00:24Z</time>
      </trkpt>
      <trkpt lat="48.6765" lon="-3.18725">
        <ele>92</ele>
        <time>2015-02-15T09:00:25Z</time>
      </trkpt>
      <trkpt lat="48.67655" lon="-3.18714">
        <ele>92</ele>
        <time>2015-02-15T09:00:26Z</time>
      </trkpt>
      <trkpt lat="48.6766" lon="-3.18704">
        <ele>92</ele>
        <time>2015-02-15T09:00:27Z</time>
      </trkpt>
      <trkpt lat="48.67666" lon="-3.18693">
        <ele>92</ele>
        <time>2015-02-15T09:00:28Z</time>
      </trkpt>
      <trkpt lat="48.67671" lon="-3.18683">
        <ele>92</ele>
        <time>2015-02-15T09:00:29Z</time>
      </trkpt>
      <trkpt lat="48.67676" lon="-3.18673">
        <ele>92</ele>
        <time>2015-02-15T09:00:30Z</time>
      </trkpt>
      <trkpt lat="48.67682" lon="-3.18663">
        <ele>92</ele>
        <time>2015-02-15T09:00:31Z</time>
      </trkpt>
      <trkpt lat="48.67687" lon="-3.18653">
        <ele>92</ele>
        <time>2015-02-15T09:00:32Z</time>
      </trkpt>
      <trkpt lat="48.67693" lon="-3.18643">
        <ele>92</ele>
        <time>2015-02-15T09:00:33Z</time>
      </trkpt>
      <trkpt lat="48.67698" lon="-3.18633">
        <ele>92</ele>
        <time>2015-02-15T09:00:34Z</time>
      </trkpt>
      <trkpt lat="48.67704" lon="-3.18623">
        <ele>92</ele>
        <time>2015-02-15T09:00:35Z</time>
      </trkpt>
      <trkpt lat="48.67709" lon="-3.18613">
        <ele>92</ele>
        <time>2015-02-15T09:00:36Z</time>
      </trkpt>
      <trkpt lat="48.67715" lon="-3.18603">
        <ele>92</ele>
        <time>2015-02-15T09:00:37Z</time>
      </trkpt>
      <trkpt lat="48.6772" lon="-3.18593">
        <ele>92</ele>
        <time>2015-02-15T09:00:38Z</time>
      </trkpt>
      <trkpt lat="48.67726" lon="-3.18584">
        <ele>92</ele>
        <time>2015-02-15T09:00:39Z</time>
      </trkpt>
      <trkpt lat="48.67732" lon="-3.18574">
        <ele>92</ele>
        <time>2015-02-15T09:00:40Z</time>
      </trkpt>
      <trkpt lat="48.67738" lon="-3.18564">
        <ele>92</ele>
        <time>2015-02-15T09:00:41Z</time>
      </trkpt>
      <trkpt lat="48.67744" lon="-3.18555">
        <ele>92</ele>
        <time>2015-02-15T09:00:42Z</time>
      </trkpt>
      <trkpt lat="48.67751" lon="-3.18546">
        <ele>92</ele>
        <time>2015-02-15T09:00:43Z</time>
      </trkpt>
      <trkpt lat="48.67757" lon="-3.18537">
        <ele>92</ele>
        <time>2015-02-15T09:00:44Z</time>
      </trkpt>
      <trkpt lat="48.67764" lon="-3.18528">
        <ele>92</ele>
        <time>2015-02-15T09:00:45Z</time>
      </trkpt>
      <trkpt lat="48.67772" lon="-3.1852">
        <ele>92</ele>
        <time>2015-02-15T09:00:46Z</time>
      </trkpt>
      <trkpt lat="48.67779" lon="-3.18512">
        <ele>91</ele>
        <time>2015-02-15T09:00:47Z</time>
      </trkpt>
      <trkpt lat="48.67787" lon="-3.18504">
        <ele>91</ele>
        <time>2015-02-15T09:00:48Z</time>
      </trkpt>
      <trkpt lat="48.67794" lon="-3.18496">
        <ele>91</ele>
        <time>2015-02-15T09:00:49Z</time>
      </trkpt>
      <trkpt lat="48.67802" lon="-3.18489">
        <ele>91</ele>
        <time>2015-02-15T09:00:50Z</time>
      </trkpt>
      <trkpt lat="48.67809" lon="-3.18482">
        <ele>91</ele>
        <time>2015-02-15T09:00:51Z</time>
      </trkpt>
      <trkpt lat="48.67817" lon="-3.18475">
        <ele>91</ele>
        <time>2015-02-15T09:00:52Z</time>
      </trkpt>
      <trkpt lat="48.67824" lon="-3.18468">
        <ele>91</ele>
        <time>2015-02-15T09:00:53Z</time>
      </trkpt>
      <trkpt lat="48.67831" lon="-3.18462">
        <ele>91</ele>
        <time>2015-02-15T09:00:54Z</time>
      </trkpt>
      <trkpt lat="48.67838" lon="-3.18455">
        <ele>91</ele>
        <time>2015-02-15T09:00:55Z</time>
      </trkpt>
      <trkpt lat="48.67844" lon="-3.18449">
        <ele>91</ele>
        <time>2015-02-15T09:00:56Z</time>
      </trkpt>
      <trkpt lat="48.67852" lon="-3.18442">
        <ele>91</ele>
        <time>2015-02-15T09:00:57Z</time>
      </trkpt>
      <trkpt lat="48.67859" lon="-3.18436">
        <ele>90</ele>
        <time>2015-02-15T09:00:58Z</time>
      </trkpt>
      <trkpt lat="48.67866" lon="-3.18429">
        <ele>90</ele>
        <time>2015-02-15T09:00:59Z</time>
      </trkpt>
      <trkpt lat="48.67873" lon="-3.18422">
        <ele>90</ele>
        <time>2015-02-15T09:01:00Z</time>
      </trkpt>
      <trkpt lat="48.67881" lon="-3.18416">
        <ele>90</ele>
        <time>2015-02-15T09:01:01Z</time>
      </trkpt>
      <trkpt lat="48.67889" lon="-3.18408">
        <ele>90</ele>
        <time>2015-02-15T09:01:02Z</time>
      </trkpt>
      <trkpt lat="48.67896" lon="-3.18401">
        <ele>90</ele>
        <time>2015-02-15T09:01:03Z</time>
      </trkpt>
      <trkpt lat="48.67903" lon="-3.18393">
        <ele>89</ele>
        <time>2015-02-15T09:01:04Z</time>
      </trkpt>
      <trkpt lat="48.6791" lon="-3.18386">
        <ele>89</ele>
        <time>2015-02-15T09:01:05Z</time>
      </trkpt>
      <trkpt lat="48.67918" lon="-3.18378">
        <ele>89</ele>
        <time>2015-02-15T09:01:06Z</time>
      </trkpt>
      <trkpt lat="48.67925" lon="-3.18369">
        <ele>89</ele>
        <time>2015-02-15T09:01:07Z</time>
      </trkpt>
      <trkpt lat="48.67931" lon="-3.1836">
        <ele>89</ele>
        <time>2015-02-15T09:01:08Z</time>
      </trkpt>
      <trkpt lat="48.67939" lon="-3.18351">
        <ele>89</ele>
        <time>2015-02-15T09:01:09Z</time>
      </trkpt>
      <trkpt lat="48.67945" lon="-3.18341">
        <ele>89</ele>
        <time>2015-02-15T09:01:10Z</time>
      </trkpt>
      <trkpt lat="48.67953" lon="-3.18332">
        <ele>89</ele>
        <time>2015-02-15T09:01:11Z</time>
      </trkpt>
      <trkpt lat="48.6796" lon="-3.18322">
        <ele>89</ele>
        <time>2015-02-15T09:01:12Z</time>
      </trkpt>
      <trkpt lat="48.67967" lon="-3.18312">
        <ele>89</ele>
        <time>2015-02-15T09:01:13Z</time>
      </trkpt>
      <trkpt lat="48.67975" lon="-3.18303">
        <ele>89</ele>
        <time>2015-02-15T09:01:14Z</time>
      </trkpt>
      <trkpt lat="48.67982" lon="-3.18293">
        <ele>88</ele>
        <time>2015-02-15T09:01:15Z</time>
      </trkpt>
      <trkpt lat="48.6799" lon="-3.18283">
        <ele>88</ele>
        <time>2015-02-15T09:01:16Z</time>
      </trkpt>
      <trkpt lat="48.67997" lon="-3.18273">
        <ele>88</ele>
        <time>2015-02-15T09:01:17Z</time>
      </trkpt>
      <trkpt lat="48.68005" lon="-3.18263">
        <ele>88</ele>
        <time>2015-02-15T09:01:18Z</time>
      </trkpt>
      <trkpt lat="48.68013" lon="-3.18253">
        <ele>88</ele>
        <time>2015-02-15T09:01:19Z</time>
      </trkpt>
      <trkpt lat="48.6802" lon="-3.18243">
        <ele>88</ele>
        <time>2015-02-15T09:01:20Z</time>
      </trkpt>
      <trkpt lat="48.68028" lon="-3.18233">
        <ele>88</ele>
        <time>2015-02-15T09:01:21Z</time>
      </trkpt>
      <trkpt lat="48.68035" lon="-3.18224">
        <ele>88</ele>
        <time>2015-02-15T09:01:22Z</time>
      </trkpt>
      <trkpt lat="48.68042" lon="-3.18214">
        <ele>88</ele>
        <time>2015-02-15T09:01:23Z</time>
      </trkpt>
      <trkpt lat="48.68049" lon="-3.18205">
        <ele>88</ele>
        <time>2015-02-15T09:01:24Z</time>
      </trkpt>
      <trkpt lat="48.68056" lon="-3.18195">
        <ele>87</ele>
        <time>2015-02-15T09:01:25Z</time>
      </trkpt>
      <trkpt lat="48.68064" lon="-3.18186">
        <ele>87</ele>
        <time>2015-02-15T09:01:26Z</time>
      </trkpt>
      <trkpt lat="48.68071" lon="-3.18176">
        <ele>87</ele>
        <time>2015-02-15T09:01:27Z</time>
      </trkpt>
      <trkpt lat="48.68078" lon="-3.18166">
        <ele>87</ele>
        <time>2015-02-15T09:01:28Z</time>
      </trkpt>
      <trkpt lat="48.68085" lon="-3.18157">
        <ele>87</ele>
        <time>2015-02-15T09:01:29Z</time>
      </trkpt>
      <trkpt lat="48.68093" lon="-3.18148">
        <ele>87</ele>
        <time>2015-02-15T09:01:30Z</time>
      </trkpt>
      <trkpt lat="48.681" lon="-3.18138">
        <ele>87</ele>
        <time>2015-02-15T09:01:31Z</time>
      </trkpt>
      <trkpt lat="48.68107" lon="-3.18129">
        <ele>87</ele>
        <time>2015-02-15T09:01:32Z</time>
      </trkpt>
      <trkpt lat="48.68114" lon="-3.1812">
        <ele>87</ele>
        <time>2015-02-15T09:01:33Z</time>
      </trkpt>
      <trkpt lat="48.68122" lon="-3.1811">
        <ele>87</ele>
        <time>2015-02-15T09:01:34Z</time>
      </trkpt>
      <trkpt lat="48.68129" lon="-3.18101">
        <ele>87</ele>
        <time>2015-02-15T09:01:35Z</time>
      </trkpt>
      <trkpt lat="48.68137" lon="-3.18092">
        <ele>87</ele>
        <time>2015-02-15T09:01:36Z</time>
      </trkpt>
      <trkpt lat="48.68144" lon="-3.18083">
        <ele>87</ele>
        <time>2015-02-15T09:01:37Z</time>
      </trkpt>
      <trkpt lat="48.68151" lon="-3.18073">
        <ele>87</ele>
        <time>2015-02-15T09:01:38Z</time>
      </trkpt>
      <trkpt lat="48.68158" lon="-3.18064">
        <ele>87</ele>
        <time>2015-02-15T09:01:39Z</time>
      </trkpt>
      <trkpt lat="48.68166" lon="-3.18055">
        <ele>87</ele>
        <time>2015-02-15T09:01:40Z</time>
      </trkpt>
      <trkpt lat="48.68173" lon="-3.18046">
        <ele>87</ele>
        <time>2015-02-15T09:01:41Z</time>
      </trkpt>
      <trkpt lat="48.6818" lon="-3.18037">
        <ele>87</ele>
        <time>2015-02-15T09:01:42Z</time>
      </trkpt>
      <trkpt lat="48.68187" lon="-3.18028">
        <ele>87</ele>
        <time>2015-02-15T09:01:43Z</time>
      </trkpt>
      <trkpt lat="48.68193" lon="-3.18019">
        <ele>87</ele>
        <time>2015-02-15T09:01:44Z</time>
      </trkpt>
      <trkpt lat="48.682" lon="-3.18011">
        <ele>87</ele>
        <time>2015-02-15T09:01:45Z</time>
      </trkpt>
      <trkpt lat="48.68207" lon="-3.18002">
        <ele>87</ele>
        <time>2015-02-15T09:01:46Z</time>
      </trkpt>
      <trkpt lat="48.68214" lon="-3.17993">
        <ele>87</ele>
        <time>2015-02-15T09:01:47Z</time>
      </trkpt>
      <trkpt lat="48.68221" lon="-3.17984">
        <ele>87</ele>
        <time>2015-02-15T09:01:48Z</time>
      </trkpt>
      <trkpt lat="48.68227" lon="-3.17976">
        <ele>87</ele>
        <time>2015-02-15T09:01:49Z</time>
      </trkpt>
      <trkpt lat="48.68235" lon="-3.17967">
        <ele>87</ele>
        <time>2015-02-15T09:01:50Z</time>
      </trkpt>
      <trkpt lat="48.68242" lon="-3.17958">
        <ele>87</ele>
        <time>2015-02-15T09:01:51Z</time>
      </trkpt>
      <trkpt lat="48.68248" lon="-3.17949">
        <ele>87</ele>
        <time>2015-02-15T09:01:52Z</time>
      </trkpt>
      <trkpt lat="48.68255" lon="-3.1794">
        <ele>87</ele>
        <time>2015-02-15T09:01:53Z</time>
      </trkpt>
      <trkpt lat="48.68262" lon="-3.17931">
        <ele>87</ele>
        <time>2015-02-15T09:01:54Z</time>
      </trkpt>
      <trkpt lat="48.68269" lon="-3.17922">
        <ele>87</ele>
        <time>2015-02-15T09:01:55Z</time>
      </trkpt>
      <trkpt lat="48.68275" lon="-3.17914">
        <ele>87</ele>
        <time>2015-02-15T09:01:56Z</time>
      </trkpt>
      <trkpt lat="48.68282" lon="-3.17906">
        <ele>87</ele>
        <time>2015-02-15T09:01:57Z</time>
      </trkpt>
      <trkpt lat="48.68288" lon="-3.17897">
        <ele>87</ele>
        <time>2015-02-15T09:01:58Z</time>
      </trkpt>
      <trkpt lat="48.68294" lon="-3.1789">
        <ele>87</ele>
        <time>2015-02-15T09:01:59Z</time>
      </trkpt>
      <trkpt lat="48.683" lon="-3.17882">
        <ele>87</ele>
        <time>2015-02-15T09:02:00Z</time>
      </trkpt>
      <trkpt lat="48.68306" lon="-3.17875">
        <ele>87</ele>
        <time>2015-02-15T09:02:01Z</time>
      </trkpt>
      <trkpt lat="48.68311" lon="-3.17867">
        <ele>87</ele>
        <time>2015-02-15T09:02:02Z</time>
      </trkpt>
      <trkpt lat="48.68317" lon="-3.17859">
        <ele>87</ele>
        <time>2015-02-15T09:02:03Z</time>
      </trkpt>
      <trkpt lat="48.68323" lon="-3.17851">
        <ele>87</ele>
        <time>2015-02-15T09:02:04Z</time>
      </trkpt>
      <trkpt lat="48.68329" lon="-3.17843">
        <ele>87</ele>
        <time>2015-02-15T09:02:05Z</time>
      </trkpt>
      <trkpt lat="48.68336" lon="-3.17835">
        <ele>87</ele>
        <time>2015-02-15T09:02:06Z</time>
      </trkpt>
      <trkpt lat="48.68342" lon="-3.17827">
        <ele>87</ele>
        <time>2015-02-15T09:02:07Z</time>
      </trkpt>
      <trkpt lat="48.68349" lon="-3.17818">
        <ele>87</ele>
        <time>2015-02-15T09:02:08Z</time>
      </trkpt>
      <trkpt lat="48.68356" lon="-3.1781">
        <ele>87</ele>
        <time>2015-02-15T09:02:09Z</time>
      </trkpt>
      <trkpt lat="48.68363" lon="-3.17802">
        <ele>87</ele>
        <time>2015-02-15T09:02:10Z</time>
      </trkpt>
      <trkpt lat="48.6837" lon="-3.17793">
        <ele>87</ele>
        <time>2015-02-15T09:02:11Z</time>
      </trkpt>
      <trkpt lat="48.68377" lon="-3.17785">
        <ele>87</ele>
        <time>2015-02-15T09:02:12Z</time>
      </trkpt>
      <trkpt lat="48.68384" lon="-3.17777">
        <ele>87</ele>
        <time>2015-02-15T09:02:13Z</time>
      </trkpt>
      <trkpt lat="48.68391" lon="-3.17769">
        <ele>87</ele>
        <time>2015-02-15T09:02:14Z</time>
      </trkpt>
      <trkpt lat="48.68398" lon="-3.1776">
        <ele>87</ele>
        <time>2015-02-15T09:02:15Z</time>
      </trkpt>
      <trkpt lat="48.68405" lon="-3.17752">
        <ele>87</ele>
        <time>2015-02-15T09:02:16Z</time>
      </trkpt>
      <trkpt lat="48.68413" lon="-3.17743">
        <ele>87</ele>
        <time>2015-02-15T09:02:17Z</time>
      </trkpt>
      <trkpt lat="48.6842" lon="-3.17735">
        <ele>87</ele>
        <time>2015-02-15T09:02:18Z</time>
      </trkpt>
      <trkpt lat="48.68427" lon="-3.17726">
        <ele>87</ele>
        <time>2015-02-15T09:02:19Z</time>
      </trkpt>
      <trkpt lat="48.68435" lon="-3.17718">
        <ele>87</ele>
        <time>2015-02-15T09:02:20Z</time>
      </trkpt>
      <trkpt lat="48.68442" lon="-3.1771">
        <ele>87</ele>
        <time>2015-02-15T09:02:21Z</time>
      </trkpt>
      <trkpt lat="48.68449" lon="-3.17701">
        <ele>87</ele>
        <time>2015-02-15T09:02:22Z</time>
      </trkpt>
      <trkpt lat="48.68457" lon="-3.17693">
        <ele>87</ele>
        <time>2015-02-15T09:02:23Z</time>
      </trkpt>
      <trkpt lat="48.68464" lon="-3.17685">
        <ele>87</ele>
        <time>2015-02-15T09:02:24Z</time>
      </trkpt>
      <trkpt lat="48.68471" lon="-3.17677">
        <ele>87</ele>
        <time>2015-02-15T09:02:25Z</time>
      </trkpt>
      <trkpt lat="48.68478" lon="-3.17669">
        <ele>87</ele>
        <time>2015-02-15T09:02:26Z</time>
      </trkpt>
      <trkpt lat="48.68486" lon="-3.17661">
        <ele>87</ele>
        <time>2015-02-15T09:02:27Z</time>
      </trkpt>
      <trkpt lat="48.68493" lon="-3.17653">
        <ele>87</ele>
        <time>2015-02-15T09:02:28Z</time>
      </trkpt>
      <trkpt lat="48.685" lon="-3.17645">
        <ele>87</ele>
        <time>2015-02-15T09:02:29Z</time>
      </trkpt>
      <trkpt lat="48.68507" lon="-3.17637">
        <ele>87</ele>
        <time>2015-02-15T09:02:30Z</time>
      </trkpt>
      <trkpt lat="48.68514" lon="-3.17629">
        <ele>87</ele>
        <time>2015-02-15T09:02:31Z</time>
      </trkpt>
      <trkpt lat="48.68521" lon="-3.17622">
        <ele>87</ele>
        <time>2015-02-15T09:02:32Z</time>
      </trkpt>
      <trkpt lat="48.68528" lon="-3.17615">
        <ele>87</ele>
        <time>2015-02-15T09:02:33Z</time>
      </trkpt>
      <trkpt lat="48.68536" lon="-3.17608">
        <ele>87</ele>
        <time>2015-02-15T09:02:34Z</time>
      </trkpt>
      <trkpt lat="48.68543" lon="-3.176">
        <ele>87</ele>
        <time>2015-02-15T09:02:35Z</time>
      </trkpt>
      <trkpt lat="48.6855" lon="-3.17592">
        <ele>87</ele>
        <time>2015-02-15T09:02:36Z</time>
      </trkpt>
      <trkpt lat="48.68557" lon="-3.17584">
        <ele>87</ele>
        <time>2015-02-15T09:02:37Z</time>
      </trkpt>
      <trkpt lat="48.68565" lon="-3.17577">
        <ele>87</ele>
        <time>2015-02-15T09:02:38Z</time>
      </trkpt>
      <trkpt lat="48.68572" lon="-3.17569">
        <ele>87</ele>
        <time>2015-02-15T09:02:39Z</time>
      </trkpt>
      <trkpt lat="48.68579" lon="-3.17561">
        <ele>87</ele>
        <time>2015-02-15T09:02:40Z</time>
      </trkpt>
      <trkpt lat="48.68586" lon="-3.17553">
        <ele>87</ele>
        <time>2015-02-15T09:02:41Z</time>
      </trkpt>
      <trkpt lat="48.68593" lon="-3.17546">
        <ele>87</ele>
        <time>2015-02-15T09:02:42Z</time>
      </trkpt>
      <trkpt lat="48.68601" lon="-3.17538">
        <ele>87</ele>
        <time>2015-02-15T09:02:43Z</time>
      </trkpt>
      <trkpt lat="48.68608" lon="-3.1753">
        <ele>86</ele>
        <time>2015-02-15T09:02:44Z</time>
      </trkpt>
      <trkpt lat="48.68615" lon="-3.17522">
        <ele>86</ele>
        <time>2015-02-15T09:02:45Z</time>
      </trkpt>
      <trkpt lat="48.68623" lon="-3.17514">
        <ele>86</ele>
        <time>2015-02-15T09:02:46Z</time>
      </trkpt>
      <trkpt lat="48.6863" lon="-3.17506">
        <ele>86</ele>
        <time>2015-02-15T09:02:47Z</time>
      </trkpt>
      <trkpt lat="48.68637" lon="-3.17498">
        <ele>86</ele>
        <time>2015-02-15T09:02:48Z</time>
      </trkpt>
      <trkpt lat="48.68644" lon="-3.1749">
        <ele>86</ele>
        <time>2015-02-15T09:02:49Z</time>
      </trkpt>
      <trkpt lat="48.68652" lon="-3.17481">
        <ele>86</ele>
        <time>2015-02-15T09:02:50Z</time>
      </trkpt>
      <trkpt lat="48.68658" lon="-3.17472">
        <ele>85</ele>
        <time>2015-02-15T09:02:51Z</time>
      </trkpt>
      <trkpt lat="48.68664" lon="-3.17462">
        <ele>85</ele>
        <time>2015-02-15T09:02:52Z</time>
      </trkpt>
      <trkpt lat="48.6867" lon="-3.17453">
        <ele>85</ele>
        <time>2015-02-15T09:02:53Z</time>
      </trkpt>
      <trkpt lat="48.68675" lon="-3.17444">
        <ele>85</ele>
        <time>2015-02-15T09:02:54Z</time>
      </trkpt>
      <trkpt lat="48.6868" lon="-3.17435">
        <ele>85</ele>
        <time>2015-02-15T09:02:55Z</time>
      </trkpt>
      <trkpt lat="48.68686" lon="-3.17425">
        <ele>85</ele>
        <time>2015-02-15T09:02:56Z</time>
      </trkpt>
      <trkpt lat="48.68691" lon="-3.17416">
        <ele>85</ele>
        <time>2015-02-15T09:02:57Z</time>
      </trkpt>
      <trkpt lat="48.68696" lon="-3.17406">
        <ele>85</ele>
        <time>2015-02-15T09:02:58Z</time>
      </trkpt>
      <trkpt lat="48.68702" lon="-3.17396">
        <ele>85</ele>
        <time>2015-02-15T09:02:59Z</time>
      </trkpt>
      <trkpt lat="48.68707" lon="-3.17386">
        <ele>84</ele>
        <time>2015-02-15T09:03:00Z</time>
      </trkpt>
      <trkpt lat="48.68713" lon="-3.17376">
        <ele>84</ele>
        <time>2015-02-15T09:03:01Z</time>
      </trkpt>
      <trkpt lat="48.68719" lon="-3.17365">
        <ele>84</ele>
        <time>2015-02-15T09:03:02Z</time>
      </trkpt>
      <trkpt lat="48.68725" lon="-3.17354">
        <ele>83</ele>
        <time>2015-02-15T09:03:03Z</time>
      </trkpt>
      <trkpt lat="48.68731" lon="-3.17343">
        <ele>83</ele>
        <time>2015-02-15T09:03:04Z</time>
      </trkpt>
      <trkpt lat="48.68737" lon="-3.17332">
        <ele>82</ele>
        <time>2015-02-15T09:03:05Z</time>
      </trkpt>
      <trkpt lat="48.68744" lon="-3.1732">
        <ele>82</ele>
        <time>2015-02-15T09:03:06Z</time>
      </trkpt>
      <trkpt lat="48.68751" lon="-3.17308">
        <ele>81</ele>
        <time>2015-02-15T09:03:07Z</time>
      </trkpt>
      <trkpt lat="48.68758" lon="-3.17295">
        <ele>81</ele>
        <time>2015-02-15T09:03:08Z</time>
      </trkpt>
      <trkpt lat="48.68765" lon="-3.17283">
        <ele>80</ele>
        <time>2015-02-15T09:03:09Z</time>
      </trkpt>
      <trkpt lat="48.68771" lon="-3.1727">
        <ele>79</ele>
        <time>2015-02-15T09:03:10Z</time>
      </trkpt>
      <trkpt lat="48.68779" lon="-3.17257">
        <ele>79</ele>
        <time>2015-02-15T09:03:11Z</time>
      </trkpt>
      <trkpt lat="48.68786" lon="-3.17244">
        <ele>78</ele>
        <time>2015-02-15T09:03:12Z</time>
      </trkpt>
      <trkpt lat="48.68793" lon="-3.17231">
        <ele>77</ele>
        <time>2015-02-15T09:03:13Z</time>
      </trkpt>
      <trkpt lat="48.68801" lon="-3.17218">
        <ele>77</ele>
        <time>2015-02-15T09:03:14Z</time>
      </trkpt>
      <trkpt lat="48.68808" lon="-3.17205">
        <ele>76</ele>
        <time>2015-02-15T09:03:15Z</time>
      </trkpt>
      <trkpt lat="48.68815" lon="-3.17192">
        <ele>76</ele>
        <time>2015-02-15T09:03:16Z</time>
      </trkpt>
      <trkpt lat="48.68823" lon="-3.17178">
        <ele>75</ele>
        <time>2015-02-15T09:03:17Z</time>
      </trkpt>
      <trkpt lat="48.6883" lon="-3.17165">
        <ele>74</ele>
        <time>2015-02-15T09:03:18Z</time>
      </trkpt>
      <trkpt lat="48.68838" lon="-3.17152">
        <ele>74</ele>
        <time>2015-02-15T09:03:19Z</time>
      </trkpt>
      <trkpt lat="48.68845" lon="-3.17139">
        <ele>73</ele>
        <time>2015-02-15T09:03:20Z</time>
      </trkpt>
      <trkpt lat="48.68852" lon="-3.17126">
        <ele>72</ele>
        <time>2015-02-15T09:03:21Z</time>
      </trkpt>
      <trkpt lat="48.68859" lon="-3.17113">
        <ele>72</ele>
        <time>2015-02-15T09:03:22Z</time>
      </trkpt>
      <trkpt lat="48.68866" lon="-3.171">
        <ele>71</ele>
        <time>2015-02-15T09:03:23Z</time>
      </trkpt>
      <trkpt lat="48.68873" lon="-3.17088">
        <ele>70</ele>
        <time>2015-02-15T09:03:24Z</time>
      </trkpt>
      <trkpt lat="48.6888" lon="-3.17076">
        <ele>70</ele>
        <time>2015-02-15T09:03:25Z</time>
      </trkpt>
      <trkpt lat="48.68888" lon="-3.17065">
        <ele>69</ele>
        <time>2015-02-15T09:03:26Z</time>
      </trkpt>
      <trkpt lat="48.68896" lon="-3.17054">
        <ele>69</ele>
        <time>2015-02-15T09:03:27Z</time>
      </trkpt>
      <trkpt lat="48.68905" lon="-3.17044">
        <ele>68</ele>
        <time>2015-02-15T09:03:28Z</time>
      </trkpt>
      <trkpt lat="48.68914" lon="-3.17036">
        <ele>68</ele>
        <time>2015-02-15T09:03:29Z</time>
      </trkpt>
      <trkpt lat="48.68924" lon="-3.17028">
        <ele>67</ele>
        <time>2015-02-15T09:03:30Z</time>
      </trkpt>
      <trkpt lat="48.68935" lon="-3.17021">
        <ele>67</ele>
        <time>2015-02-15T09:03:31Z</time>
      </trkpt>
      <trkpt lat="48.68945" lon="-3.17014">
        <ele>66</ele>
        <time>2015-02-15T09:03:32Z</time>
      </trkpt>
      <trkpt lat="48.68956" lon="-3.17007">
        <ele>66</ele>
        <time>2015-02-15T09:03:33Z</time>
      </trkpt>
      <trkpt lat="48.68967" lon="-3.17001">
        <ele>65</ele>
        <time>2015-02-15T09:03:34Z</time>
      </trkpt>
      <trkpt lat="48.68978" lon="-3.16994">
        <ele>64</ele>
        <time>2015-02-15T09:03:35Z</time>
      </trkpt>
      <trkpt lat="48.68989" lon="-3.16987">
        <ele>64</ele>
        <time>2015-02-15T09:03:36Z</time>
      </trkpt>
      <trkpt lat="48.68999" lon="-3.16981">
        <ele>63</ele>
        <time>2015-02-15T09:03:37Z</time>
      </trkpt>
      <trkpt lat="48.6901" lon="-3.16974">
        <ele>63</ele>
        <time>2015-02-15T09:03:38Z</time>
      </trkpt>
      <trkpt lat="48.6902" lon="-3.16968">
        <ele>62</ele>
        <time>2015-02-15T09:03:39Z</time>
      </trkpt>
      <trkpt lat="48.6903" lon="-3.16961">
        <ele>62</ele>
        <time>2015-02-15T09:03:40Z</time>
      </trkpt>
      <trkpt lat="48.69041" lon="-3.16954">
        <ele>61</ele>
        <time>2015-02-15T09:03:41Z</time>
      </trkpt>
      <trkpt lat="48.69051" lon="-3.16948">
        <ele>61</ele>
        <time>2015-02-15T09:03:42Z</time>
      </trkpt>
      <trkpt lat="48.69061" lon="-3.16943">
        <ele>60</ele>
        <time>2015-02-15T09:03:43Z</time>
      </trkpt>
      <trkpt lat="48.69071" lon="-3.1694">
        <ele>59</ele>
        <time>2015-02-15T09:03:44Z</time>
      </trkpt>
      <trkpt lat="48.69082" lon="-3.16939">
        <ele>59</ele>
        <time>2015-02-15T09:03:45Z</time>
      </trkpt>
      <trkpt lat="48.69092" lon="-3.16941">
        <ele>58</ele>
        <time>2015-02-15T09:03:46Z</time>
      </trkpt>
      <trkpt lat="48.69102" lon="-3.16945">
        <ele>57</ele>
        <time>2015-02-15T09:03:47Z</time>
      </trkpt>
      <trkpt lat="48.69112" lon="-3.16951">
        <ele>56</ele>
        <time>2015-02-15T09:03:48Z</time>
      </trkpt>
      <trkpt lat="48.69122" lon="-3.16959">
        <ele>56</ele>
        <time>2015-02-15T09:03:49Z</time>
      </trkpt>
      <trkpt lat="48.69131" lon="-3.16969">
        <ele>55</ele>
        <time>2015-02-15T09:03:50Z</time>
      </trkpt>
      <trkpt lat="48.6914" lon="-3.1698">
        <ele>54</ele>
        <time>2015-02-15T09:03:51Z</time>
      </trkpt>
      <trkpt lat="48.69148" lon="-3.16992">
        <ele>53</ele>
        <time>2015-02-15T09:03:52Z</time>
      </trkpt>
      <trkpt lat="48.69156" lon="-3.17004">
        <ele>52</ele>
        <time>2015-02-15T09:03:53Z</time>
      </trkpt>
      <trkpt lat="48.69163" lon="-3.17018">
        <ele>51</ele>
        <time>2015-02-15T09:03:54Z</time>
      </trkpt>
      <trkpt lat="48.69171" lon="-3.17032">
        <ele>50</ele>
        <time>2015-02-15T09:03:55Z</time>
      </trkpt>
      <trkpt lat="48.69178" lon="-3.17046">
        <ele>49</ele>
        <time>2015-02-15T09:03:56Z</time>
      </trkpt>
      <trkpt lat="48.69186" lon="-3.1706">
        <ele>48</ele>
        <time>2015-02-15T09:03:57Z</time>
      </trkpt>
      <trkpt lat="48.69193" lon="-3.17074">
        <ele>47</ele>
        <time>2015-02-15T09:03:58Z</time>
      </trkpt>
      <trkpt lat="48.69201" lon="-3.17088">
        <ele>46</ele>
        <time>2015-02-15T09:03:59Z</time>
      </trkpt>
      <trkpt lat="48.69209" lon="-3.17102">
        <ele>46</ele>
        <time>2015-02-15T09:04:00Z</time>
      </trkpt>
      <trkpt lat="48.69217" lon="-3.17116">
        <ele>46</ele>
        <time>2015-02-15T09:04:01Z</time>
      </trkpt>
      <trkpt lat="48.69224" lon="-3.1713">
        <ele>45</ele>
        <time>2015-02-15T09:04:02Z</time>
      </trkpt>
      <trkpt lat="48.69232" lon="-3.17144">
        <ele>45</ele>
        <time>2015-02-15T09:04:03Z</time>
      </trkpt>
      <trkpt lat="48.6924" lon="-3.17158">
        <ele>45</ele>
        <time>2015-02-15T09:04:04Z</time>
      </trkpt>
      <trkpt lat="48.69248" lon="-3.17172">
        <ele>44</ele>
        <time>2015-02-15T09:04:05Z</time>
      </trkpt>
      <trkpt lat="48.69256" lon="-3.17186">
        <ele>44</ele>
        <time>2015-02-15T09:04:06Z</time>
      </trkpt>
      <trkpt lat="48.69264" lon="-3.17198">
        <ele>43</ele>
        <time>2015-02-15T09:04:07Z</time>
      </trkpt>
      <trkpt lat="48.69273" lon="-3.1721">
        <ele>43</ele>
        <time>2015-02-15T09:04:08Z</time>
      </trkpt>
      <trkpt lat="48.69284" lon="-3.1722">
        <ele>42</ele>
        <time>2015-02-15T09:04:09Z</time>
      </trkpt>
      <trkpt lat="48.69294" lon="-3.1723">
        <ele>42</ele>
        <time>2015-02-15T09:04:10Z</time>
      </trkpt>
      <trkpt lat="48.69305" lon="-3.17238">
        <ele>41</ele>
        <time>2015-02-15T09:04:11Z</time>
      </trkpt>
      <trkpt lat="48.69317" lon="-3.17245">
        <ele>40</ele>
        <time>2015-02-15T09:04:12Z</time>
      </trkpt>
      <trkpt lat="48.69328" lon="-3.17251">
        <ele>40</ele>
        <time>2015-02-15T09:04:13Z</time>
      </trkpt>
      <trkpt lat="48.6934" lon="-3.17256">
        <ele>39</ele>
        <time>2015-02-15T09:04:14Z</time>
      </trkpt>
      <trkpt lat="48.69353" lon="-3.17259">
        <ele>38</ele>
        <time>2015-02-15T09:04:15Z</time>
      </trkpt>
      <trkpt lat="48.69365" lon="-3.17261">
        <ele>37</ele>
        <time>2015-02-15T09:04:16Z</time>
      </trkpt>
      <trkpt lat="48.6939" lon="-3.1726">
        <ele>36</ele>
        <time>2015-02-15T09:04:18Z</time>
      </trkpt>
      <trkpt lat="48.69402" lon="-3.17256">
        <ele>36</ele>
        <time>2015-02-15T09:04:19Z</time>
      </trkpt>
      <trkpt lat="48.69414" lon="-3.17251">
        <ele>35</ele>
        <time>2015-02-15T09:04:20Z</time>
      </trkpt>
      <trkpt lat="48.69426" lon="-3.17245">
        <ele>35</ele>
        <time>2015-02-15T09:04:21Z</time>
      </trkpt>
      <trkpt lat="48.69437" lon="-3.17237">
        <ele>34</ele>
        <time>2015-02-15T09:04:22Z</time>
      </trkpt>
      <trkpt lat="48.69448" lon="-3.17227">
        <ele>33</ele>
        <time>2015-02-15T09:04:23Z</time>
      </trkpt>
      <trkpt lat="48.69458" lon="-3.17215">
        <ele>33</ele>
        <time>2015-02-15T09:04:24Z</time>
      </trkpt>
      <trkpt lat="48.69468" lon="-3.17203">
        <ele>32</ele>
        <time>2015-02-15T09:04:25Z</time>
      </trkpt>
      <trkpt lat="48.69476" lon="-3.1719">
        <ele>32</ele>
        <time>2015-02-15T09:04:26Z</time>
      </trkpt>
      <trkpt lat="48.69484" lon="-3.17177">
        <ele>31</ele>
        <time>2015-02-15T09:04:27Z</time>
      </trkpt>
      <trkpt lat="48.69492" lon="-3.17163">
        <ele>30</ele>
        <time>2015-02-15T09:04:28Z</time>
      </trkpt>
      <trkpt lat="48.695" lon="-3.17148">
        <ele>30</ele>
        <time>2015-02-15T09:04:29Z</time>
      </trkpt>
      <trkpt lat="48.69506" lon="-3.17132">
        <ele>29</ele>
        <time>2015-02-15T09:04:30Z</time>
      </trkpt>
      <trkpt lat="48.69512" lon="-3.17116">
        <ele>28</ele>
        <time>2015-02-15T09:04:31Z</time>
      </trkpt>
      <trkpt lat="48.69517" lon="-3.17099">
        <ele>28</ele>
        <time>2015-02-15T09:04:32Z</time>
      </trkpt>
      <trkpt lat="48.69522" lon="-3.17081">
        <ele>27</ele>
        <time>2015-02-15T09:04:33Z</time>
      </trkpt>
      <trkpt lat="48.69526" lon="-3.17063">
        <ele>27</ele>
        <time>2015-02-15T09:04:34Z</time>
      </trkpt>
      <trkpt lat="48.69529" lon="-3.17045">
        <ele>26</ele>
        <time>2015-02-15T09:04:35Z</time>
      </trkpt>
      <trkpt lat="48.69533" lon="-3.17027">
        <ele>25</ele>
        <time>2015-02-15T09:04:36Z</time>
      </trkpt>
      <trkpt lat="48.69537" lon="-3.1701">
        <ele>25</ele>
        <time>2015-02-15T09:04:37Z</time>
      </trkpt>
      <trkpt lat="48.69541" lon="-3.16992">
        <ele>24</ele>
        <time>2015-02-15T09:04:38Z</time>
      </trkpt>
      <trkpt lat="48.69545" lon="-3.16975">
        <ele>23</ele>
        <time>2015-02-15T09:04:39Z</time>
      </trkpt>
      <trkpt lat="48.69548" lon="-3.16957">
        <ele>23</ele>
        <time>2015-02-15T09:04:40Z</time>
      </trkpt>
      <trkpt lat="48.69552" lon="-3.1694">
        <ele>22</ele>
        <time>2015-02-15T09:04:41Z</time>
      </trkpt>
      <trkpt lat="48.69555" lon="-3.16922">
        <ele>22</ele>
        <time>2015-02-15T09:04:42Z</time>
      </trkpt>
      <trkpt lat="48.69559" lon="-3.16905">
        <ele>22</ele>
        <time>2015-02-15T09:04:43Z</time>
      </trkpt>
      <trkpt lat="48.69562" lon="-3.16888">
        <ele>21</ele>
        <time>2015-02-15T09:04:44Z</time>
      </trkpt>
      <trkpt lat="48.69566" lon="-3.1687">
        <ele>21</ele>
        <time>2015-02-15T09:04:45Z</time>
      </trkpt>
      <trkpt lat="48.69569" lon="-3.16854">
        <ele>21</ele>
        <time>2015-02-15T09:04:46Z</time>
      </trkpt>
      <trkpt lat="48.69573" lon="-3.16838">
        <ele>21</ele>
        <time>2015-02-15T09:04:47Z</time>
      </trkpt>
      <trkpt lat="48.69576" lon="-3.16823">
        <ele>21</ele>
        <time>2015-02-15T09:04:48Z</time>
      </trkpt>
      <trkpt lat="48.69579" lon="-3.16808">
        <ele>21</ele>
        <time>2015-02-15T09:04:49Z</time>
      </trkpt>
      <trkpt lat="48.69582" lon="-3.16794">
        <ele>21</ele>
        <time>2015-02-15T09:04:50Z</time>
      </trkpt>
      <trkpt lat="48.69585" lon="-3.16779">
        <ele>20</ele>
        <time>2015-02-15T09:04:51Z</time>
      </trkpt>
      <trkpt lat="48.69589" lon="-3.16765">
        <ele>20</ele>
        <time>2015-02-15T09:04:52Z</time>
      </trkpt>
      <trkpt lat="48.69592" lon="-3.16751">
        <ele>20</ele>
        <time>2015-02-15T09:04:53Z</time>
      </trkpt>
      <trkpt lat="48.69595" lon="-3.16737">
        <ele>20</ele>
        <time>2015-02-15T09:04:54Z</time>
      </trkpt>
      <trkpt lat="48.69598" lon="-3.16723">
        <ele>20</ele>
        <time>2015-02-15T09:04:55Z</time>
      </trkpt>
      <trkpt lat="48.69601" lon="-3.16709">
        <ele>19</ele>
        <time>2015-02-15T09:04:56Z</time>
      </trkpt>
      <trkpt lat="48.69603" lon="-3.16695">
        <ele>19</ele>
        <time>2015-02-15T09:04:57Z</time>
      </trkpt>
      <trkpt lat="48.69606" lon="-3.16681">
        <ele>19</ele>
        <time>2015-02-15T09:04:58Z</time>
      </trkpt>
      <trkpt lat="48.69609" lon="-3.16668">
        <ele>18</ele>
        <time>2015-02-15T09:04:59Z</time>
      </trkpt>
      <trkpt lat="48.69611" lon="-3.16654">
        <ele>18</ele>
        <time>2015-02-15T09:05:00Z</time>
      </trkpt>
      <trkpt lat="48.69614" lon="-3.16641">
        <ele>17</ele>
        <time>2015-02-15T09:05:01Z</time>
      </trkpt>
      <trkpt lat="48.69617" lon="-3.16627">
        <ele>17</ele>
        <time>2015-02-15T09:05:02Z</time>
      </trkpt>
      <trkpt lat="48.6962" lon="-3.16614">
        <ele>16</ele>
        <time>2015-02-15T09:05:03Z</time>
      </trkpt>
      <trkpt lat="48.69623" lon="-3.16599">
        <ele>16</ele>
        <time>2015-02-15T09:05:04Z</time>
      </trkpt>
      <trkpt lat="48.69626" lon="-3.16585">
        <ele>15</ele>
        <time>2015-02-15T09:05:05Z</time>
      </trkpt>
      <trkpt lat="48.69629" lon="-3.16571">
        <ele>15</ele>
        <time>2015-02-15T09:05:06Z</time>
      </trkpt>
      <trkpt lat="48.69632" lon="-3.16557">
        <ele>15</ele>
        <time>2015-02-15T09:05:07Z</time>
      </trkpt>
      <trkpt lat="48.69635" lon="-3.16543">
        <ele>15</ele>
        <time>2015-02-15T09:05:08Z</time>
      </trkpt>
      <trkpt lat="48.69638" lon="-3.16528">
        <ele>14</ele>
        <time>2015-02-15T09:05:09Z</time>
      </trkpt>
      <trkpt lat="48.69641" lon="-3.16514">
        <ele>14</ele>
        <time>2015-02-15T09:05:10Z</time>
      </trkpt>
      <trkpt lat="48.69644" lon="-3.16501">
        <ele>14</ele>
        <time>2015-02-15T09:05:11Z</time>
      </trkpt>
      <trkpt lat="48.69647" lon="-3.16489">
        <ele>14</ele>
        <time>2015-02-15T09:05:12Z</time>
      </trkpt>
      <trkpt lat="48.69649" lon="-3.16476">
        <ele>14</ele>
        <time>2015-02-15T09:05:13Z</time>
      </trkpt>
      <trkpt lat="48.69652" lon="-3.16464">
        <ele>14</ele>
        <time>2015-02-15T09:05:14Z</time>
      </trkpt>
      <trkpt lat="48.69655" lon="-3.16452">
        <ele>14</ele>
        <time>2015-02-15T09:05:15Z</time>
      </trkpt>
      <trkpt lat="48.69658" lon="-3.16441">
        <ele>14</ele>
        <time>2015-02-15T09:05:16Z</time>
      </trkpt>
      <trkpt lat="48.69661" lon="-3.16429">
        <ele>14</ele>
        <time>2015-02-15T09:05:17Z</time>
      </trkpt>
      <trkpt lat="48.69664" lon="-3.16417">
        <ele>14</ele>
        <time>2015-02-15T09:05:18Z</time>
      </trkpt>
      <trkpt lat="48.69666" lon="-3.16405">
        <ele>14</ele>
        <time>2015-02-15T09:05:19Z</time>
      </trkpt>
      <trkpt lat="48.69669" lon="-3.16393">
        <ele>14</ele>
        <time>2015-02-15T09:05:20Z</time>
      </trkpt>
      <trkpt lat="48.69671" lon="-3.16382">
        <ele>14</ele>
        <time>2015-02-15T09:05:21Z</time>
      </trkpt>
      <trkpt lat="48.69673" lon="-3.1637">
        <ele>14</ele>
        <time>2015-02-15T09:05:22Z</time>
      </trkpt>
      <trkpt lat="48.69676" lon="-3.16359">
        <ele>14</ele>
        <time>2015-02-15T09:05:23Z</time>
      </trkpt>
      <trkpt lat="48.69679" lon="-3.16348">
        <ele>14</ele>
        <time>2015-02-15T09:05:24Z</time>
      </trkpt>
      <trkpt lat="48.69681" lon="-3.16339">
        <ele>14</ele>
        <time>2015-02-15T09:05:25Z</time>
      </trkpt>
      <trkpt lat="48.69683" lon="-3.1633">
        <ele>14</ele>
        <time>2015-02-15T09:05:26Z</time>
      </trkpt>
      <trkpt lat="48.69685" lon="-3.16321">
        <ele>14</ele>
        <time>2015-02-15T09:05:27Z</time>
      </trkpt>
      <trkpt lat="48.69687" lon="-3.16313">
        <ele>14</ele>
        <time>2015-02-15T09:05:28Z</time>
      </trkpt>
      <trkpt lat="48.69688" lon="-3.16306">
        <ele>14</ele>
        <time>2015-02-15T09:05:29Z</time>
      </trkpt>
      <trkpt lat="48.6969" lon="-3.16299">
        <ele>14</ele>
        <time>2015-02-15T09:05:30Z</time>
      </trkpt>
      <trkpt lat="48.69692" lon="-3.16292">
        <ele>14</ele>
        <time>2015-02-15T09:05:31Z</time>
      </trkpt>
      <trkpt lat="48.69694" lon="-3.16285">
        <ele>14</ele>
        <time>2015-02-15T09:05:32Z</time>
      </trkpt>
      <trkpt lat="48.69697" lon="-3.16278">
        <ele>14</ele>
        <time>2015-02-15T09:05:33Z</time>
      </trkpt>
      <trkpt lat="48.69699" lon="-3.16271">
        <ele>15</ele>
        <time>2015-02-15T09:05:34Z</time>
      </trkpt>
      <trkpt lat="48.69701" lon="-3.16263">
        <ele>15</ele>
        <time>2015-02-15T09:05:35Z</time>
      </trkpt>
      <trkpt lat="48.69705" lon="-3.16255">
        <ele>16</ele>
        <time>2015-02-15T09:05:36Z</time>
      </trkpt>
      <trkpt lat="48.69707" lon="-3.16247">
        <ele>16</ele>
        <time>2015-02-15T09:05:37Z</time>
      </trkpt>
      <trkpt lat="48.69709" lon="-3.16241">
        <ele>17</ele>
        <time>2015-02-15T09:05:38Z</time>
      </trkpt>
      <trkpt lat="48.69711" lon="-3.16234">
        <ele>17</ele>
        <time>2015-02-15T09:05:39Z</time>
      </trkpt>
      <trkpt lat="48.69712" lon="-3.16228">
        <ele>17</ele>
        <time>2015-02-15T09:05:40Z</time>
      </trkpt>
      <trkpt lat="48.69713" lon="-3.16221">
        <ele>17</ele>
        <time>2015-02-15T09:05:41Z</time>
      </trkpt>
      <trkpt lat="48.69714" lon="-3.16214">
        <ele>17</ele>
        <time>2015-02-15T09:05:42Z</time>
      </trkpt>
      <trkpt lat="48.69714" lon="-3.16199">
        <ele>17</ele>
        <time>2015-02-15T09:05:44Z</time>
      </trkpt>
      <trkpt lat="48.69715" lon="-3.16191">
        <ele>17</ele>
        <time>2015-02-15T09:05:45Z</time>
      </trkpt>
      <trkpt lat="48.69715" lon="-3.16184">
        <ele>17</ele>
        <time>2015-02-15T09:05:46Z</time>
      </trkpt>
      <trkpt lat="48.69716" lon="-3.16177">
        <ele>17</ele>
        <time>2015-02-15T09:05:47Z</time>
      </trkpt>
      <trkpt lat="48.69716" lon="-3.1617">
        <ele>17</ele>
        <time>2015-02-15T09:05:48Z</time>
      </trkpt>
      <trkpt lat="48.69717" lon="-3.16157">
        <ele>17</ele>
        <time>2015-02-15T09:05:50Z</time>
      </trkpt>
      <trkpt lat="48.69718" lon="-3.16151">
        <ele>17</ele>
        <time>2015-02-15T09:05:51Z</time>
      </trkpt>
      <trkpt lat="48.6972" lon="-3.16147">
        <ele>17</ele>
        <time>2015-02-15T09:05:52Z</time>
      </trkpt>
      <trkpt lat="48.69723" lon="-3.16145">
        <ele>17</ele>
        <time>2015-02-15T09:05:53Z</time>
      </trkpt>
      <trkpt lat="48.69729" lon="-3.16147">
        <ele>17</ele>
        <time>2015-02-15T09:05:55Z</time>
      </trkpt>
      <trkpt lat="48.69732" lon="-3.1615">
        <ele>17</ele>
        <time>2015-02-15T09:05:56Z</time>
      </trkpt>
      <trkpt lat="48.69734" lon="-3.16154">
        <ele>17</ele>
        <time>2015-02-15T09:05:57Z</time>
      </trkpt>
      <trkpt lat="48.69736" lon="-3.16159">
        <ele>17</ele>
        <time>2015-02-15T09:05:58Z</time>
      </trkpt>
      <trkpt lat="48.69738" lon="-3.16165">
        <ele>17</ele>
        <time>2015-02-15T09:05:59Z</time>
      </trkpt>
      <trkpt lat="48.69739" lon="-3.16171">
        <ele>17</ele>
        <time>2015-02-15T09:06:00Z</time>
      </trkpt>
      <trkpt lat="48.69741" lon="-3.16178">
        <ele>17</ele>
        <time>2015-02-15T09:06:01Z</time>
      </trkpt>
      <trkpt lat="48.69742" lon="-3.16184">
        <ele>17</ele>
        <time>2015-02-15T09:06:02Z</time>
      </trkpt>
      <trkpt lat="48.69744" lon="-3.16191">
        <ele>17</ele>
        <time>2015-02-15T09:06:03Z</time>
      </trkpt>
      <trkpt lat="48.69746" lon="-3.16198">
        <ele>17</ele>
        <time>2015-02-15T09:06:04Z</time>
      </trkpt>
      <trkpt lat="48.69749" lon="-3.16204">
        <ele>17</ele>
        <time>2015-02-15T09:06:05Z</time>
      </trkpt>
      <trkpt lat="48.69751" lon="-3.16211">
        <ele>17</ele>
        <time>2015-02-15T09:06:06Z</time>
      </trkpt>
      <trkpt lat="48.69754" lon="-3.16217">
        <ele>17</ele>
        <time>2015-02-15T09:06:07Z</time>
      </trkpt>
      <trkpt lat="48.69756" lon="-3.16223">
        <ele>17</ele>
        <time>2015-02-15T09:06:08Z</time>
      </trkpt>
      <trkpt lat="48.69759" lon="-3.16228">
        <ele>17</ele>
        <time>2015-02-15T09:06:09Z</time>
      </trkpt>
      <trkpt lat="48.69762" lon="-3.16234">
        <ele>17</ele>
        <time>2015-02-15T09:06:10Z</time>
      </trkpt>
      <trkpt lat="48.69765" lon="-3.1624">
        <ele>17</ele>
        <time>2015-02-15T09:06:11Z</time>
      </trkpt>
      <trkpt lat="48.69769" lon="-3.16245">
        <ele>17</ele>
        <time>2015-02-15T09:06:12Z</time>
      </trkpt>
      <trkpt lat="48.69773" lon="-3.1625">
        <ele>17</ele>
        <time>2015-02-15T09:06:13Z</time>
      </trkpt>
      <trkpt lat="48.69777" lon="-3.16256">
        <ele>17</ele>
        <time>2015-02-15T09:06:14Z</time>
      </trkpt>
      <trkpt lat="48.69781" lon="-3.16261">
        <ele>17</ele>
        <time>2015-02-15T09:06:15Z</time>
      </trkpt>
      <trkpt lat="48.69785" lon="-3.16266">
        <ele>17</ele>
        <time>2015-02-15T09:06:16Z</time>
      </trkpt>
      <trkpt lat="48.69789" lon="-3.16272">
        <ele>17</ele>
        <time>2015-02-15T09:06:17Z</time>
      </trkpt>
      <trkpt lat="48.69793" lon="-3.16278">
        <ele>17</ele>
        <time>2015-02-15T09:06:18Z</time>
      </trkpt>
      <trkpt lat="48.69797" lon="-3.16284">
        <ele>17</ele>
        <time>2015-02-15T09:06:19Z</time>
      </trkpt>
      <trkpt lat="48.698" lon="-3.1629">
        <ele>17</ele>
        <time>2015-02-15T09:06:20Z</time>
      </trkpt>
      <trkpt lat="48.69804" lon="-3.16297">
        <ele>17</ele>
        <time>2015-02-15T09:06:21Z</time>
      </trkpt>
      <trkpt lat="48.69807" lon="-3.16303">
        <ele>17</ele>
        <time>2015-02-15T09:06:22Z</time>
      </trkpt>
      <trkpt lat="48.69811" lon="-3.1631">
        <ele>17</ele>
        <time>2015-02-15T09:06:23Z</time>
      </trkpt>
      <trkpt lat="48.69815" lon="-3.16316">
        <ele>17</ele>
        <time>2015-02-15T09:06:24Z</time>
      </trkpt>
      <trkpt lat="48.69819" lon="-3.16322">
        <ele>17</ele>
        <time>2015-02-15T09:06:25Z</time>
      </trkpt>
      <trkpt lat="48.69822" lon="-3.16327">
        <ele>17</ele>
        <time>2015-02-15T09:06:26Z</time>
      </trkpt>
      <trkpt lat="48.69825" lon="-3.16332">
        <ele>17</ele>
        <time>2015-02-15T09:06:27Z</time>
      </trkpt>
      <trkpt lat="48.69827" lon="-3.16337">
        <ele>17</ele>
        <time>2015-02-15T09:06:28Z</time>
      </trkpt>
      <trkpt lat="48.69829" lon="-3.16342">
        <ele>17</ele>
        <time>2015-02-15T09:06:29Z</time>
      </trkpt>
      <trkpt lat="48.69832" lon="-3.16346">
        <ele>17</ele>
        <time>2015-02-15T09:06:30Z</time>
      </trkpt>
      <trkpt lat="48.69834" lon="-3.1635">
        <ele>17</ele>
        <time>2015-02-15T09:06:31Z</time>
      </trkpt>
      <trkpt lat="48.69835" lon="-3.16354">
        <ele>17</ele>
        <time>2015-02-15T09:06:32Z</time>
      </trkpt>
      <trkpt lat="48.69837" lon="-3.16359">
        <ele>17</ele>
        <time>2015-02-15T09:06:33Z</time>
      </trkpt>
      <trkpt lat="48.69839" lon="-3.16364">
        <ele>17</ele>
        <time>2015-02-15T09:06:34Z</time>
      </trkpt>
      <trkpt lat="48.69841" lon="-3.16369">
        <ele>17</ele>
        <time>2015-02-15T09:06:35Z</time>
      </trkpt>
      <trkpt lat="48.69842" lon="-3.16374">
        <ele>17</ele>
        <time>2015-02-15T09:06:36Z</time>
      </trkpt>
      <trkpt lat="48.69843" lon="-3.16379">
        <ele>17</ele>
        <time>2015-02-15T09:06:37Z</time>
      </trkpt>
      <trkpt lat="48.69845" lon="-3.16384">
        <ele>17</ele>
        <time>2015-02-15T09:06:38Z</time>
      </trkpt>
      <trkpt lat="48.69846" lon="-3.1639">
        <ele>17</ele>
        <time>2015-02-15T09:06:39Z</time>
      </trkpt>
      <trkpt lat="48.69846" lon="-3.16396">
        <ele>17</ele>
        <time>2015-02-15T09:06:40Z</time>
      </trkpt>
      <trkpt lat="48.69846" lon="-3.16422">
        <ele>18</ele>
        <time>2015-02-15T09:06:44Z</time>
      </trkpt>
      <trkpt lat="48.69845" lon="-3.16429">
        <ele>18</ele>
        <time>2015-02-15T09:06:45Z</time>
      </trkpt>
      <trkpt lat="48.69845" lon="-3.16437">
        <ele>19</ele>
        <time>2015-02-15T09:06:46Z</time>
      </trkpt>
      <trkpt lat="48.69844" lon="-3.16444">
        <ele>19</ele>
        <time>2015-02-15T09:06:47Z</time>
      </trkpt>
      <trkpt lat="48.69844" lon="-3.16452">
        <ele>19</ele>
        <time>2015-02-15T09:06:48Z</time>
      </trkpt>
      <trkpt lat="48.69843" lon="-3.16459">
        <ele>20</ele>
        <time>2015-02-15T09:06:49Z</time>
      </trkpt>
      <trkpt lat="48.69844" lon="-3.1648">
        <ele>20</ele>
        <time>2015-02-15T09:06:52Z</time>
      </trkpt>
      <trkpt lat="48.69844" lon="-3.16487">
        <ele>21</ele>
        <time>2015-02-15T09:06:53Z</time>
      </trkpt>
      <trkpt lat="48.69845" lon="-3.16494">
        <ele>21</ele>
        <time>2015-02-15T09:06:54Z</time>
      </trkpt>
      <trkpt lat="48.69847" lon="-3.165">
        <ele>21</ele>
        <time>2015-02-15T09:06:55Z</time>
      </trkpt>
      <trkpt lat="48.69848" lon="-3.16506">
        <ele>21</ele>
        <time>2015-02-15T09:06:56Z</time>
      </trkpt>
      <trkpt lat="48.6985" lon="-3.16511">
        <ele>21</ele>
        <time>2015-02-15T09:06:57Z</time>
      </trkpt>
      <trkpt lat="48.69852" lon="-3.16517">
        <ele>22</ele>
        <time>2015-02-15T09:06:58Z</time>
      </trkpt>
      <trkpt lat="48.69854" lon="-3.16522">
        <ele>22</ele>
        <time>2015-02-15T09:06:59Z</time>
      </trkpt>
      <trkpt lat="48.69857" lon="-3.16527">
        <ele>22</ele>
        <time>2015-02-15T09:07:00Z</time>
      </trkpt>
      <trkpt lat="48.6986" lon="-3.16531">
        <ele>22</ele>
        <time>2015-02-15T09:07:01Z</time>
      </trkpt>
      <trkpt lat="48.69862" lon="-3.16535">
        <ele>23</ele>
        <time>2015-02-15T09:07:02Z</time>
      </trkpt>
      <trkpt lat="48.69866" lon="-3.16539">
        <ele>23</ele>
        <time>2015-02-15T09:07:03Z</time>
      </trkpt>
      <trkpt lat="48.69869" lon="-3.16542">
        <ele>23</ele>
        <time>2015-02-15T09:07:04Z</time>
      </trkpt>
      <trkpt lat="48.69873" lon="-3.16546">
        <ele>23</ele>
        <time>2015-02-15T09:07:05Z</time>
      </trkpt>
      <trkpt lat="48.69876" lon="-3.16549">
        <ele>24</ele>
        <time>2015-02-15T09:07:06Z</time>
      </trkpt>
      <trkpt lat="48.6988" lon="-3.16552">
        <ele>24</ele>
        <time>2015-02-15T09:07:07Z</time>
      </trkpt>
      <trkpt lat="48.69883" lon="-3.16554">
        <ele>24</ele>
        <time>2015-02-15T09:07:08Z</time>
      </trkpt>
      <trkpt lat="48.69886" lon="-3.16557">
        <ele>24</ele>
        <time>2015-02-15T09:07:09Z</time>
      </trkpt>
      <trkpt lat="48.6989" lon="-3.16559">
        <ele>25</ele>
        <time>2015-02-15T09:07:10Z</time>
      </trkpt>
      <trkpt lat="48.69894" lon="-3.16562">
        <ele>25</ele>
        <time>2015-02-15T09:07:11Z</time>
      </trkpt>
      <trkpt lat="48.69897" lon="-3.16564">
        <ele>25</ele>
        <time>2015-02-15T09:07:12Z</time>
      </trkpt>
      <trkpt lat="48.69901" lon="-3.16566">
        <ele>25</ele>
        <time>2015-02-15T09:07:13Z</time>
      </trkpt>
      <trkpt lat="48.69905" lon="-3.16568">
        <ele>25</ele>
        <time>2015-02-15T09:07:14Z</time>
      </trkpt>
      <trkpt lat="48.69909" lon="-3.16571">
        <ele>26</ele>
        <time>2015-02-15T09:07:15Z</time>
      </trkpt>
      <trkpt lat="48.69913" lon="-3.16573">
        <ele>26</ele>
        <time>2015-02-15T09:07:16Z</time>
      </trkpt>
      <trkpt lat="48.69917" lon="-3.16576">
        <ele>26</ele>
        <time>2015-02-15T09:07:17Z</time>
      </trkpt>
      <trkpt lat="48.69921" lon="-3.16579">
        <ele>26</ele>
        <time>2015-02-15T09:07:18Z</time>
      </trkpt>
      <trkpt lat="48.69925" lon="-3.16581">
        <ele>26</ele>
        <time>2015-02-15T09:07:19Z</time>
      </trkpt>
      <trkpt lat="48.69929" lon="-3.16584">
        <ele>26</ele>
        <time>2015-02-15T09:07:20Z</time>
      </trkpt>
      <trkpt lat="48.69933" lon="-3.16586">
        <ele>26</ele>
        <time>2015-02-15T09:07:21Z</time>
      </trkpt>
      <trkpt lat="48.69936" lon="-3.1659">
        <ele>27</ele>
        <time>2015-02-15T09:07:22Z</time>
      </trkpt>
      <trkpt lat="48.6994" lon="-3.16593">
        <ele>27</ele>
        <time>2015-02-15T09:07:23Z</time>
      </trkpt>
      <trkpt lat="48.69944" lon="-3.16596">
        <ele>27</ele>
        <time>2015-02-15T09:07:24Z</time>
      </trkpt>
      <trkpt lat="48.69947" lon="-3.166">
        <ele>28</ele>
        <time>2015-02-15T09:07:25Z</time>
      </trkpt>
      <trkpt lat="48.69951" lon="-3.16604">
        <ele>28</ele>
        <time>2015-02-15T09:07:26Z</time>
      </trkpt>
      <trkpt lat="48.69955" lon="-3.16609">
        <ele>29</ele>
        <time>2015-02-15T09:07:27Z</time>
      </trkpt>
      <trkpt lat="48.69958" lon="-3.16613">
        <ele>29</ele>
        <time>2015-02-15T09:07:28Z</time>
      </trkpt>
      <trkpt lat="48.69961" lon="-3.16618">
        <ele>29</ele>
        <time>2015-02-15T09:07:29Z</time>
      </trkpt>
      <trkpt lat="48.69963" lon="-3.16624">
        <ele>30</ele>
        <time>2015-02-15T09:07:30Z</time>
      </trkpt>
      <trkpt lat="48.69966" lon="-3.1663">
        <ele>30</ele>
        <time>2015-02-15T09:07:31Z</time>
      </trkpt>
      <trkpt lat="48.69968" lon="-3.16636">
        <ele>30</ele>
        <time>2015-02-15T09:07:32Z</time>
      </trkpt>
      <trkpt lat="48.6997" lon="-3.16642">
        <ele>30</ele>
        <time>2015-02-15T09:07:33Z</time>
      </trkpt>
      <trkpt lat="48.69972" lon="-3.16648">
        <ele>30</ele>
        <time>2015-02-15T09:07:34Z</time>
      </trkpt>
      <trkpt lat="48.69974" lon="-3.16654">
        <ele>31</ele>
        <time>2015-02-15T09:07:35Z</time>
      </trkpt>
      <trkpt lat="48.69976" lon="-3.16661">
        <ele>31</ele>
        <time>2015-02-15T09:07:36Z</time>
      </trkpt>
      <trkpt lat="48.69978" lon="-3.16667">
        <ele>31</ele>
        <time>2015-02-15T09:07:37Z</time>
      </trkpt>
      <trkpt lat="48.6998" lon="-3.16674">
        <ele>31</ele>
        <time>2015-02-15T09:07:38Z</time>
      </trkpt>
      <trkpt lat="48.69982" lon="-3.1668">
        <ele>32</ele>
        <time>2015-02-15T09:07:39Z</time>
      </trkpt>
      <trkpt lat="48.69984" lon="-3.16687">
        <ele>32</ele>
        <time>2015-02-15T09:07:40Z</time>
      </trkpt>
      <trkpt lat="48.69986" lon="-3.16693">
        <ele>32</ele>
        <time>2015-02-15T09:07:41Z</time>
      </trkpt>
      <trkpt lat="48.69988" lon="-3.167">
        <ele>32</ele>
        <time>2015-02-15T09:07:42Z</time>
      </trkpt>
      <trkpt lat="48.6999" lon="-3.16706">
        <ele>33</ele>
        <time>2015-02-15T09:07:43Z</time>
      </trkpt>
      <trkpt lat="48.69992" lon="-3.16713">
        <ele>33</ele>
        <time>2015-02-15T09:07:44Z</time>
      </trkpt>
      <trkpt lat="48.69994" lon="-3.16719">
        <ele>33</ele>
        <time>2015-02-15T09:07:45Z</time>
      </trkpt>
      <trkpt lat="48.69997" lon="-3.16726">
        <ele>33</ele>
        <time>2015-02-15T09:07:46Z</time>
      </trkpt>
      <trkpt lat="48.69999" lon="-3.16733">
        <ele>34</ele>
        <time>2015-02-15T09:07:47Z</time>
      </trkpt>
      <trkpt lat="48.70002" lon="-3.16739">
        <ele>34</ele>
        <time>2015-02-15T09:07:48Z</time>
      </trkpt>
      <trkpt lat="48.70006" lon="-3.16745">
        <ele>34</ele>
        <time>2015-02-15T09:07:49Z</time>
      </trkpt>
      <trkpt lat="48.70009" lon="-3.16752">
        <ele>34</ele>
        <time>2015-02-15T09:07:50Z</time>
      </trkpt>
      <trkpt lat="48.70013" lon="-3.16758">
        <ele>35</ele>
        <time>2015-02-15T09:07:51Z</time>
      </trkpt>
      <trkpt lat="48.70016" lon="-3.16764">
        <ele>35</ele>
        <time>2015-02-15T09:07:52Z</time>
      </trkpt>
      <trkpt lat="48.7002" lon="-3.1677">
        <ele>35</ele>
        <time>2015-02-15T09:07:53Z</time>
      </trkpt>
      <trkpt lat="48.70023" lon="-3.16777">
        <ele>35</ele>
        <time>2015-02-15T09:07:54Z</time>
      </trkpt>
      <trkpt lat="48.70027" lon="-3.16783">
        <ele>35</ele>
        <time>2015-02-15T09:07:55Z</time>
      </trkpt>
      <trkpt lat="48.70031" lon="-3.16789">
        <ele>35</ele>
        <time>2015-02-15T09:07:56Z</time>
      </trkpt>
      <trkpt lat="48.70035" lon="-3.16795">
        <ele>35</ele>
        <time>2015-02-15T09:07:57Z</time>
      </trkpt>
      <trkpt lat="48.70039" lon="-3.16801">
        <ele>35</ele>
        <time>2015-02-15T09:07:58Z</time>
      </trkpt>
      <trkpt lat="48.70042" lon="-3.16807">
        <ele>35</ele>
        <time>2015-02-15T09:07:59Z</time>
      </trkpt>
      <trkpt lat="48.70046" lon="-3.16812">
        <ele>36</ele>
        <time>2015-02-15T09:08:00Z</time>
      </trkpt>
      <trkpt lat="48.7005" lon="-3.16818">
        <ele>36</ele>
        <time>2015-02-15T09:08:01Z</time>
      </trkpt>
      <trkpt lat="48.70054" lon="-3.16824">
        <ele>36</ele>
        <time>2015-02-15T09:08:02Z</time>
      </trkpt>
      <trkpt lat="48.70058" lon="-3.16829">
        <ele>36</ele>
        <time>2015-02-15T09:08:03Z</time>
      </trkpt>
      <trkpt lat="48.70062" lon="-3.16835">
        <ele>36</ele>
        <time>2015-02-15T09:08:04Z</time>
      </trkpt>
      <trkpt lat="48.70066" lon="-3.1684">
        <ele>36</ele>
        <time>2015-02-15T09:08:05Z</time>
      </trkpt>
      <trkpt lat="48.7007" lon="-3.16845">
        <ele>36</ele>
        <time>2015-02-15T09:08:06Z</time>
      </trkpt>
      <trkpt lat="48.70074" lon="-3.16851">
        <ele>36</ele>
        <time>2015-02-15T09:08:07Z</time>
      </trkpt>
      <trkpt lat="48.70078" lon="-3.16856">
        <ele>36</ele>
        <time>2015-02-15T09:08:08Z</time>
      </trkpt>
      <trkpt lat="48.70082" lon="-3.16861">
        <ele>36</ele>
        <time>2015-02-15T09:08:09Z</time>
      </trkpt>
      <trkpt lat="48.70086" lon="-3.16866">
        <ele>37</ele>
        <time>2015-02-15T09:08:10Z</time>
      </trkpt>
      <trkpt lat="48.7009" lon="-3.16871">
        <ele>37</ele>
        <time>2015-02-15T09:08:11Z</time>
      </trkpt>
      <trkpt lat="48.70094" lon="-3.16876">
        <ele>37</ele>
        <time>2015-02-15T09:08:12Z</time>
      </trkpt>
      <trkpt lat="48.70097" lon="-3.1688">
        <ele>37</ele>
        <time>2015-02-15T09:08:13Z</time>
      </trkpt>
      <trkpt lat="48.70101" lon="-3.16885">
        <ele>38</ele>
        <time>2015-02-15T09:08:14Z</time>
      </trkpt>
      <trkpt lat="48.70105" lon="-3.1689">
        <ele>38</ele>
        <time>2015-02-15T09:08:15Z</time>
      </trkpt>
      <trkpt lat="48.70109" lon="-3.16895">
        <ele>38</ele>
        <time>2015-02-15T09:08:16Z</time>
      </trkpt>
      <trkpt lat="48.70113" lon="-3.169">
        <ele>38</ele>
        <time>2015-02-15T09:08:17Z</time>
      </trkpt>
      <trkpt lat="48.70117" lon="-3.16905">
        <ele>39</ele>
        <time>2015-02-15T09:08:18Z</time>
      </trkpt>
      <trkpt lat="48.70122" lon="-3.1691">
        <ele>39</ele>
        <time>2015-02-15T09:08:19Z</time>
      </trkpt>
      <trkpt lat="48.70126" lon="-3.16915">
        <ele>39</ele>
        <time>2015-02-15T09:08:20Z</time>
      </trkpt>
      <trkpt lat="48.70131" lon="-3.1692">
        <ele>40</ele>
        <time>2015-02-15T09:08:21Z</time>
      </trkpt>
      <trkpt lat="48.70136" lon="-3.16925">
        <ele>40</ele>
        <time>2015-02-15T09:08:22Z</time>
      </trkpt>
      <trkpt lat="48.70141" lon="-3.1693">
        <ele>40</ele>
        <time>2015-02-15T09:08:23Z</time>
      </trkpt>
      <trkpt lat="48.70146" lon="-3.16934">
        <ele>41</ele>
        <time>2015-02-15T09:08:24Z</time>
      </trkpt>
      <trkpt lat="48.70151" lon="-3.16939">
        <ele>41</ele>
        <time>2015-02-15T09:08:25Z</time>
      </trkpt>
      <trkpt lat="48.70156" lon="-3.16943">
        <ele>41</ele>
        <time>2015-02-15T09:08:26Z</time>
      </trkpt>
      <trkpt lat="48.70162" lon="-3.16948">
        <ele>42</ele>
        <time>2015-02-15T09:08:27Z</time>
      </trkpt>
      <trkpt lat="48.70167" lon="-3.16952">
        <ele>42</ele>
        <time>2015-02-15T09:08:28Z</time>
      </trkpt>
      <trkpt lat="48.70173" lon="-3.16956">
        <ele>42</ele>
        <time>2015-02-15T09:08:29Z</time>
      </trkpt>
      <trkpt lat="48.70179" lon="-3.1696">
        <ele>42</ele>
        <time>2015-02-15T09:08:30Z</time>
      </trkpt>
      <trkpt lat="48.70185" lon="-3.16964">
        <ele>43</ele>
        <time>2015-02-15T09:08:31Z</time>
      </trkpt>
      <trkpt lat="48.70191" lon="-3.16967">
        <ele>43</ele>
        <time>2015-02-15T09:08:32Z</time>
      </trkpt>
      <trkpt lat="48.70198" lon="-3.16971">
        <ele>43</ele>
        <time>2015-02-15T09:08:33Z</time>
      </trkpt>
      <trkpt lat="48.70204" lon="-3.16975">
        <ele>43</ele>
        <time>2015-02-15T09:08:34Z</time>
      </trkpt>
      <trkpt lat="48.7021" lon="-3.1698">
        <ele>43</ele>
        <time>2015-02-15T09:08:35Z</time>
      </trkpt>
      <trkpt lat="48.70216" lon="-3.16984">
        <ele>43</ele>
        <time>2015-02-15T09:08:36Z</time>
      </trkpt>
      <trkpt lat="48.70222" lon="-3.16988">
        <ele>43</ele>
        <time>2015-02-15T09:08:37Z</time>
      </trkpt>
      <trkpt lat="48.70228" lon="-3.16993">
        <ele>44</ele>
        <time>2015-02-15T09:08:38Z</time>
      </trkpt>
      <trkpt lat="48.70234" lon="-3.16998">
        <ele>44</ele>
        <time>2015-02-15T09:08:39Z</time>
      </trkpt>
      <trkpt lat="48.70239" lon="-3.17004">
        <ele>44</ele>
        <time>2015-02-15T09:08:40Z</time>
      </trkpt>
      <trkpt lat="48.70244" lon="-3.1701">
        <ele>44</ele>
        <time>2015-02-15T09:08:41Z</time>
      </trkpt>
      <trkpt lat="48.7025" lon="-3.17015">
        <ele>44</ele>
        <time>2015-02-15T09:08:42Z</time>
      </trkpt>
      <trkpt lat="48.70255" lon="-3.17021">
        <ele>45</ele>
        <time>2015-02-15T09:08:43Z</time>
      </trkpt>
      <trkpt lat="48.7026" lon="-3.17028">
        <ele>45</ele>
        <time>2015-02-15T09:08:44Z</time>
      </trkpt>
      <trkpt lat="48.70265" lon="-3.17034">
        <ele>45</ele>
        <time>2015-02-15T09:08:45Z</time>
      </trkpt>
      <trkpt lat="48.7027" lon="-3.1704">
        <ele>45</ele>
        <time>2015-02-15T09:08:46Z</time>
      </trkpt>
      <trkpt lat="48.70275" lon="-3.17046">
        <ele>45</ele>
        <time>2015-02-15T09:08:47Z</time>
      </trkpt>
      <trkpt lat="48.70279" lon="-3.17053">
        <ele>45</ele>
        <time>2015-02-15T09:08:48Z</time>
      </trkpt>
      <trkpt lat="48.70284" lon="-3.17059">
        <ele>45</ele>
        <time>2015-02-15T09:08:49Z</time>
      </trkpt>
      <trkpt lat="48.70288" lon="-3.17066">
        <ele>45</ele>
        <time>2015-02-15T09:08:50Z</time>
      </trkpt>
      <trkpt lat="48.70293" lon="-3.17073">
        <ele>45</ele>
        <time>2015-02-15T09:08:51Z</time>
      </trkpt>
      <trkpt lat="48.70297" lon="-3.1708">
        <ele>45</ele>
        <time>2015-02-15T09:08:52Z</time>
      </trkpt>
      <trkpt lat="48.70301" lon="-3.17087">
        <ele>45</ele>
        <time>2015-02-15T09:08:53Z</time>
      </trkpt>
      <trkpt lat="48.70305" lon="-3.17094">
        <ele>45</ele>
        <time>2015-02-15T09:08:54Z</time>
      </trkpt>
      <trkpt lat="48.70309" lon="-3.17102">
        <ele>45</ele>
        <time>2015-02-15T09:08:55Z</time>
      </trkpt>
      <trkpt lat="48.70313" lon="-3.1711">
        <ele>45</ele>
        <time>2015-02-15T09:08:56Z</time>
      </trkpt>
      <trkpt lat="48.70317" lon="-3.17118">
        <ele>45</ele>
        <time>2015-02-15T09:08:57Z</time>
      </trkpt>
      <trkpt lat="48.7032" lon="-3.17126">
        <ele>45</ele>
        <time>2015-02-15T09:08:58Z</time>
      </trkpt>
      <trkpt lat="48.70323" lon="-3.17134">
        <ele>45</ele>
        <time>2015-02-15T09:08:59Z</time>
      </trkpt>
      <trkpt lat="48.70327" lon="-3.17143">
        <ele>45</ele>
        <time>2015-02-15T09:09:00Z</time>
      </trkpt>
      <trkpt lat="48.7033" lon="-3.17151">
        <ele>45</ele>
        <time>2015-02-15T09:09:01Z</time>
      </trkpt>
      <trkpt lat="48.70332" lon="-3.17159">
        <ele>45</ele>
        <time>2015-02-15T09:09:02Z</time>
      </trkpt>
      <trkpt lat="48.70335" lon="-3.17167">
        <ele>45</ele>
        <time>2015-02-15T09:09:03Z</time>
      </trkpt>
      <trkpt lat="48.70338" lon="-3.17175">
        <ele>45</ele>
        <time>2015-02-15T09:09:04Z</time>
      </trkpt>
      <trkpt lat="48.7034" lon="-3.17183">
        <ele>45</ele>
        <time>2015-02-15T09:09:05Z</time>
      </trkpt>
      <trkpt lat="48.70343" lon="-3.1719">
        <ele>45</ele>
        <time>2015-02-15T09:09:06Z</time>
      </trkpt>
      <trkpt lat="48.70346" lon="-3.17198">
        <ele>45</ele>
        <time>2015-02-15T09:09:07Z</time>
      </trkpt>
      <trkpt lat="48.70348" lon="-3.17206">
        <ele>45</ele>
        <time>2015-02-15T09:09:08Z</time>
      </trkpt>
      <trkpt lat="48.7035" lon="-3.17214">
        <ele>46</ele>
        <time>2015-02-15T09:09:09Z</time>
      </trkpt>
      <trkpt lat="48.70353" lon="-3.17222">
        <ele>46</ele>
        <time>2015-02-15T09:09:10Z</time>
      </trkpt>
      <trkpt lat="48.70355" lon="-3.17229">
        <ele>46</ele>
        <time>2015-02-15T09:09:11Z</time>
      </trkpt>
      <trkpt lat="48.70357" lon="-3.17237">
        <ele>46</ele>
        <time>2015-02-15T09:09:12Z</time>
      </trkpt>
      <trkpt lat="48.70359" lon="-3.17245">
        <ele>46</ele>
        <time>2015-02-15T09:09:13Z</time>
      </trkpt>
      <trkpt lat="48.70361" lon="-3.17252">
        <ele>46</ele>
        <time>2015-02-15T09:09:14Z</time>
      </trkpt>
      <trkpt lat="48.70363" lon="-3.17259">
        <ele>46</ele>
        <time>2015-02-15T09:09:15Z</time>
      </trkpt>
      <trkpt lat="48.70365" lon="-3.17267">
        <ele>46</ele>
        <time>2015-02-15T09:09:16Z</time>
      </trkpt>
      <trkpt lat="48.70367" lon="-3.17275">
        <ele>46</ele>
        <time>2015-02-15T09:09:17Z</time>
      </trkpt>
      <trkpt lat="48.70369" lon="-3.17283">
        <ele>46</ele>
        <time>2015-02-15T09:09:18Z</time>
      </trkpt>
      <trkpt lat="48.7037" lon="-3.1729">
        <ele>46</ele>
        <time>2015-02-15T09:09:19Z</time>
      </trkpt>
      <trkpt lat="48.70372" lon="-3.17297">
        <ele>46</ele>
        <time>2015-02-15T09:09:20Z</time>
      </trkpt>
      <trkpt lat="48.70374" lon="-3.17304">
        <ele>46</ele>
        <time>2015-02-15T09:09:21Z</time>
      </trkpt>
      <trkpt lat="48.70375" lon="-3.17311">
        <ele>47</ele>
        <time>2015-02-15T09:09:22Z</time>
      </trkpt>
      <trkpt lat="48.70377" lon="-3.17318">
        <ele>47</ele>
        <time>2015-02-15T09:09:23Z</time>
      </trkpt>
      <trkpt lat="48.70379" lon="-3.17326">
        <ele>47</ele>
        <time>2015-02-15T09:09:24Z</time>
      </trkpt>
      <trkpt lat="48.7038" lon="-3.17333">
        <ele>47</ele>
        <time>2015-02-15T09:09:25Z</time>
      </trkpt>
      <trkpt lat="48.70382" lon="-3.1734">
        <ele>47</ele>
        <time>2015-02-15T09:09:26Z</time>
      </trkpt>
      <trkpt lat="48.70384" lon="-3.17347">
        <ele>47</ele>
        <time>2015-02-15T09:09:27Z</time>
      </trkpt>
      <trkpt lat="48.70386" lon="-3.17355">
        <ele>47</ele>
        <time>2015-02-15T09:09:28Z</time>
      </trkpt>
      <trkpt lat="48.70388" lon="-3.17362">
        <ele>48</ele>
        <time>2015-02-15T09:09:29Z</time>
      </trkpt>
      <trkpt lat="48.7039" lon="-3.1737">
        <ele>48</ele>
        <time>2015-02-15T09:09:30Z</time>
      </trkpt>
      <trkpt lat="48.70391" lon="-3.17378">
        <ele>48</ele>
        <time>2015-02-15T09:09:31Z</time>
      </trkpt>
      <trkpt lat="48.70393" lon="-3.17386">
        <ele>48</ele>
        <time>2015-02-15T09:09:32Z</time>
      </trkpt>
      <trkpt lat="48.70395" lon="-3.17394">
        <ele>48</ele>
        <time>2015-02-15T09:09:33Z</time>
      </trkpt>
      <trkpt lat="48.70397" lon="-3.17402">
        <ele>49</ele>
        <time>2015-02-15T09:09:34Z</time>
      </trkpt>
      <trkpt lat="48.70398" lon="-3.17409">
        <ele>49</ele>
        <time>2015-02-15T09:09:35Z</time>
      </trkpt>
      <trkpt lat="48.70401" lon="-3.17417">
        <ele>49</ele>
        <time>2015-02-15T09:09:36Z</time>
      </trkpt>
      <trkpt lat="48.70402" lon="-3.17425">
        <ele>49</ele>
        <time>2015-02-15T09:09:37Z</time>
      </trkpt>
      <trkpt lat="48.70404" lon="-3.17434">
        <ele>49</ele>
        <time>2015-02-15T09:09:38Z</time>
      </trkpt>
      <trkpt lat="48.70406" lon="-3.17442">
        <ele>49</ele>
        <time>2015-02-15T09:09:39Z</time>
      </trkpt>
      <trkpt lat="48.70408" lon="-3.17451">
        <ele>50</ele>
        <time>2015-02-15T09:09:40Z</time>
      </trkpt>
      <trkpt lat="48.7041" lon="-3.17459">
        <ele>50</ele>
        <time>2015-02-15T09:09:41Z</time>
      </trkpt>
      <trkpt lat="48.70412" lon="-3.17467">
        <ele>50</ele>
        <time>2015-02-15T09:09:42Z</time>
      </trkpt>
      <trkpt lat="48.70414" lon="-3.17475">
        <ele>50</ele>
        <time>2015-02-15T09:09:43Z</time>
      </trkpt>
      <trkpt lat="48.70416" lon="-3.17483">
        <ele>51</ele>
        <time>2015-02-15T09:09:44Z</time>
      </trkpt>
      <trkpt lat="48.70418" lon="-3.17491">
        <ele>51</ele>
        <time>2015-02-15T09:09:45Z</time>
      </trkpt>
      <trkpt lat="48.7042" lon="-3.17499">
        <ele>51</ele>
        <time>2015-02-15T09:09:46Z</time>
      </trkpt>
      <trkpt lat="48.70422" lon="-3.17507">
        <ele>52</ele>
        <time>2015-02-15T09:09:47Z</time>
      </trkpt>
      <trkpt lat="48.70424" lon="-3.17515">
        <ele>52</ele>
        <time>2015-02-15T09:09:48Z</time>
      </trkpt>
      <trkpt lat="48.70426" lon="-3.17523">
        <ele>52</ele>
        <time>2015-02-15T09:09:49Z</time>
      </trkpt>
      <trkpt lat="48.70428" lon="-3.1753">
        <ele>52</ele>
        <time>2015-02-15T09:09:50Z</time>
      </trkpt>
      <trkpt lat="48.7043" lon="-3.17538">
        <ele>53</ele>
        <time>2015-02-15T09:09:51Z</time>
      </trkpt>
      <trkpt lat="48.70432" lon="-3.17545">
        <ele>53</ele>
        <time>2015-02-15T09:09:52Z</time>
      </trkpt>
      <trkpt lat="48.70435" lon="-3.17552">
        <ele>53</ele>
        <time>2015-02-15T09:09:53Z</time>
      </trkpt>
      <trkpt lat="48.70437" lon="-3.1756">
        <ele>53</ele>
        <time>2015-02-15T09:09:54Z</time>
      </trkpt>
      <trkpt lat="48.7044" lon="-3.17566">
        <ele>54</ele>
        <time>2015-02-15T09:09:55Z</time>
      </trkpt>
      <trkpt lat="48.70442" lon="-3.17573">
        <ele>54</ele>
        <time>2015-02-15T09:09:56Z</time>
      </trkpt>
      <trkpt lat="48.70445" lon="-3.1758">
        <ele>54</ele>
        <time>2015-02-15T09:09:57Z</time>
      </trkpt>
      <trkpt lat="48.70447" lon="-3.17586">
        <ele>54</ele>
        <time>2015-02-15T09:09:58Z</time>
      </trkpt>
      <trkpt lat="48.7045" lon="-3.17592">
        <ele>54</ele>
        <time>2015-02-15T09:09:59Z</time>
      </trkpt>
      <trkpt lat="48.70453" lon="-3.17599">
        <ele>54</ele>
        <time>2015-02-15T09:10:00Z</time>
      </trkpt>
      <trkpt lat="48.70455" lon="-3.17605">
        <ele>55</ele>
        <time>2015-02-15T09:10:01Z</time>
      </trkpt>
      <trkpt lat="48.70458" lon="-3.17611">
        <ele>55</ele>
        <time>2015-02-15T09:10:02Z</time>
      </trkpt>
      <trkpt lat="48.70461" lon="-3.17618">
        <ele>55</ele>
        <time>2015-02-15T09:10:03Z</time>
      </trkpt>
      <trkpt lat="48.70464" lon="-3.17624">
        <ele>55</ele>
        <time>2015-02-15T09:10:04Z</time>
      </trkpt>
      <trkpt lat="48.70467" lon="-3.17631">
        <ele>55</ele>
        <time>2015-02-15T09:10:05Z</time>
      </trkpt>
      <trkpt lat="48.7047" lon="-3.17637">
        <ele>55</ele>
        <time>2015-02-15T09:10:06Z</time>
      </trkpt>
      <trkpt lat="48.70473" lon="-3.17643">
        <ele>55</ele>
        <time>2015-02-15T09:10:07Z</time>
      </trkpt>
      <trkpt lat="48.70477" lon="-3.17649">
        <ele>56</ele>
        <time>2015-02-15T09:10:08Z</time>
      </trkpt>
      <trkpt lat="48.7048" lon="-3.17655">
        <ele>56</ele>
        <time>2015-02-15T09:10:09Z</time>
      </trkpt>
      <trkpt lat="48.70483" lon="-3.1766">
        <ele>56</ele>
        <time>2015-02-15T09:10:10Z</time>
      </trkpt>
      <trkpt lat="48.70486" lon="-3.17666">
        <ele>56</ele>
        <time>2015-02-15T09:10:11Z</time>
      </trkpt>
      <trkpt lat="48.7049" lon="-3.17672">
        <ele>56</ele>
        <time>2015-02-15T09:10:12Z</time>
      </trkpt>
      <trkpt lat="48.70493" lon="-3.17677">
        <ele>56</ele>
        <time>2015-02-15T09:10:13Z</time>
      </trkpt>
      <trkpt lat="48.70496" lon="-3.17683">
        <ele>56</ele>
        <time>2015-02-15T09:10:14Z</time>
      </trkpt>
      <trkpt lat="48.70499" lon="-3.17688">
        <ele>57</ele>
        <time>2015-02-15T09:10:15Z</time>
      </trkpt>
      <trkpt lat="48.70502" lon="-3.17694">
        <ele>57</ele>
        <time>2015-02-15T09:10:16Z</time>
      </trkpt>
      <trkpt lat="48.70505" lon="-3.177">
        <ele>57</ele>
        <time>2015-02-15T09:10:17Z</time>
      </trkpt>
      <trkpt lat="48.70508" lon="-3.17705">
        <ele>57</ele>
        <time>2015-02-15T09:10:18Z</time>
      </trkpt>
      <trkpt lat="48.70511" lon="-3.17711">
        <ele>57</ele>
        <time>2015-02-15T09:10:19Z</time>
      </trkpt>
      <trkpt lat="48.70515" lon="-3.17717">
        <ele>57</ele>
        <time>2015-02-15T09:10:20Z</time>
      </trkpt>
      <trkpt lat="48.70518" lon="-3.17722">
        <ele>58</ele>
        <time>2015-02-15T09:10:21Z</time>
      </trkpt>
      <trkpt lat="48.70522" lon="-3.17728">
        <ele>58</ele>
        <time>2015-02-15T09:10:22Z</time>
      </trkpt>
      <trkpt lat="48.70525" lon="-3.17734">
        <ele>58</ele>
        <time>2015-02-15T09:10:23Z</time>
      </trkpt>
      <trkpt lat="48.70529" lon="-3.1774">
        <ele>58</ele>
        <time>2015-02-15T09:10:24Z</time>
      </trkpt>
      <trkpt lat="48.70532" lon="-3.17746">
        <ele>58</ele>
        <time>2015-02-15T09:10:25Z</time>
      </trkpt>
      <trkpt lat="48.70536" lon="-3.17752">
        <ele>58</ele>
        <time>2015-02-15T09:10:26Z</time>
      </trkpt>
      <trkpt lat="48.70539" lon="-3.17758">
        <ele>58</ele>
        <time>2015-02-15T09:10:27Z</time>
      </trkpt>
      <trkpt lat="48.70543" lon="-3.17764">
        <ele>59</ele>
        <time>2015-02-15T09:10:28Z</time>
      </trkpt>
      <trkpt lat="48.70546" lon="-3.1777">
        <ele>59</ele>
        <time>2015-02-15T09:10:29Z</time>
      </trkpt>
      <trkpt lat="48.7055" lon="-3.17775">
        <ele>59</ele>
        <time>2015-02-15T09:10:30Z</time>
      </trkpt>
      <trkpt lat="48.70554" lon="-3.17781">
        <ele>59</ele>
        <time>2015-02-15T09:10:31Z</time>
      </trkpt>
      <trkpt lat="48.70557" lon="-3.17787">
        <ele>59</ele>
        <time>2015-02-15T09:10:32Z</time>
      </trkpt>
      <trkpt lat="48.70562" lon="-3.17792">
        <ele>59</ele>
        <time>2015-02-15T09:10:33Z</time>
      </trkpt>
      <trkpt lat="48.70566" lon="-3.17798">
        <ele>60</ele>
        <time>2015-02-15T09:10:34Z</time>
      </trkpt>
      <trkpt lat="48.7057" lon="-3.17804">
        <ele>60</ele>
        <time>2015-02-15T09:10:35Z</time>
      </trkpt>
      <trkpt lat="48.70574" lon="-3.17811">
        <ele>60</ele>
        <time>2015-02-15T09:10:36Z</time>
      </trkpt>
      <trkpt lat="48.70578" lon="-3.17817">
        <ele>60</ele>
        <time>2015-02-15T09:10:37Z</time>
      </trkpt>
      <trkpt lat="48.70583" lon="-3.17823">
        <ele>60</ele>
        <time>2015-02-15T09:10:38Z</time>
      </trkpt>
      <trkpt lat="48.70587" lon="-3.17828">
        <ele>61</ele>
        <time>2015-02-15T09:10:39Z</time>
      </trkpt>
      <trkpt lat="48.70591" lon="-3.17834">
        <ele>61</ele>
        <time>2015-02-15T09:10:40Z</time>
      </trkpt>
      <trkpt lat="48.70595" lon="-3.17839">
        <ele>61</ele>
        <time>2015-02-15T09:10:41Z</time>
      </trkpt>
      <trkpt lat="48.70599" lon="-3.17845">
        <ele>61</ele>
        <time>2015-02-15T09:10:42Z</time>
      </trkpt>
      <trkpt lat="48.70603" lon="-3.1785">
        <ele>61</ele>
        <time>2015-02-15T09:10:43Z</time>
      </trkpt>
      <trkpt lat="48.70607" lon="-3.17855">
        <ele>61</ele>
        <time>2015-02-15T09:10:44Z</time>
      </trkpt>
      <trkpt lat="48.70611" lon="-3.17861">
        <ele>62</ele>
        <time>2015-02-15T09:10:45Z</time>
      </trkpt>
      <trkpt lat="48.70615" lon="-3.17866">
        <ele>62</ele>
        <time>2015-02-15T09:10:46Z</time>
      </trkpt>
      <trkpt lat="48.70619" lon="-3.17872">
        <ele>62</ele>
        <time>2015-02-15T09:10:47Z</time>
      </trkpt>
      <trkpt lat="48.70623" lon="-3.17877">
        <ele>62</ele>
        <time>2015-02-15T09:10:48Z</time>
      </trkpt>
      <trkpt lat="48.70628" lon="-3.17883">
        <ele>62</ele>
        <time>2015-02-15T09:10:49Z</time>
      </trkpt>
      <trkpt lat="48.70632" lon="-3.1789">
        <ele>62</ele>
        <time>2015-02-15T09:10:50Z</time>
      </trkpt>
      <trkpt lat="48.70636" lon="-3.17896">
        <ele>62</ele>
        <time>2015-02-15T09:10:51Z</time>
      </trkpt>
      <trkpt lat="48.70641" lon="-3.17902">
        <ele>62</ele>
        <time>2015-02-15T09:10:52Z</time>
      </trkpt>
      <trkpt lat="48.70646" lon="-3.17909">
        <ele>62</ele>
        <time>2015-02-15T09:10:53Z</time>
      </trkpt>
      <trkpt lat="48.7065" lon="-3.17915">
        <ele>62</ele>
        <time>2015-02-15T09:10:54Z</time>
      </trkpt>
      <trkpt lat="48.70655" lon="-3.17922">
        <ele>62</ele>
        <time>2015-02-15T09:10:55Z</time>
      </trkpt>
      <trkpt lat="48.7066" lon="-3.17929">
        <ele>62</ele>
        <time>2015-02-15T09:10:56Z</time>
      </trkpt>
      <trkpt lat="48.70664" lon="-3.17936">
        <ele>62</ele>
        <time>2015-02-15T09:10:57Z</time>
      </trkpt>
      <trkpt lat="48.70669" lon="-3.17943">
        <ele>62</ele>
        <time>2015-02-15T09:10:58Z</time>
      </trkpt>
      <trkpt lat="48.70674" lon="-3.17949">
        <ele>62</ele>
        <time>2015-02-15T09:10:59Z</time>
      </trkpt>
      <trkpt lat="48.70679" lon="-3.17956">
        <ele>62</ele>
        <time>2015-02-15T09:11:00Z</time>
      </trkpt>
      <trkpt lat="48.70684" lon="-3.17963">
        <ele>62</ele>
        <time>2015-02-15T09:11:01Z</time>
      </trkpt>
      <trkpt lat="48.7069" lon="-3.1797">
        <ele>62</ele>
        <time>2015-02-15T09:11:02Z</time>
      </trkpt>
      <trkpt lat="48.70695" lon="-3.17977">
        <ele>62</ele>
        <time>2015-02-15T09:11:03Z</time>
      </trkpt>
      <trkpt lat="48.70701" lon="-3.17984">
        <ele>62</ele>
        <time>2015-02-15T09:11:04Z</time>
      </trkpt>
      <trkpt lat="48.70707" lon="-3.17992">
        <ele>62</ele>
        <time>2015-02-15T09:11:05Z</time>
      </trkpt>
      <trkpt lat="48.70713" lon="-3.17999">
        <ele>62</ele>
        <time>2015-02-15T09:11:06Z</time>
      </trkpt>
      <trkpt lat="48.70718" lon="-3.18005">
        <ele>62</ele>
        <time>2015-02-15T09:11:07Z</time>
      </trkpt>
      <trkpt lat="48.70725" lon="-3.18013">
        <ele>62</ele>
        <time>2015-02-15T09:11:08Z</time>
      </trkpt>
      <trkpt lat="48.70731" lon="-3.1802">
        <ele>62</ele>
        <time>2015-02-15T09:11:09Z</time>
      </trkpt>
      <trkpt lat="48.70737" lon="-3.18027">
        <ele>62</ele>
        <time>2015-02-15T09:11:10Z</time>
      </trkpt>
      <trkpt lat="48.70743" lon="-3.18034">
        <ele>62</ele>
        <time>2015-02-15T09:11:11Z</time>
      </trkpt>
      <trkpt lat="48.7075" lon="-3.18041">
        <ele>62</ele>
        <time>2015-02-15T09:11:12Z</time>
      </trkpt>
      <trkpt lat="48.70756" lon="-3.18048">
        <ele>62</ele>
        <time>2015-02-15T09:11:13Z</time>
      </trkpt>
      <trkpt lat="48.70763" lon="-3.18055">
        <ele>62</ele>
        <time>2015-02-15T09:11:14Z</time>
      </trkpt>
      <trkpt lat="48.70769" lon="-3.18062">
        <ele>62</ele>
        <time>2015-02-15T09:11:15Z</time>
      </trkpt>
      <trkpt lat="48.70776" lon="-3.1807">
        <ele>62</ele>
        <time>2015-02-15T09:11:16Z</time>
      </trkpt>
      <trkpt lat="48.70783" lon="-3.18077">
        <ele>62</ele>
        <time>2015-02-15T09:11:17Z</time>
      </trkpt>
      <trkpt lat="48.7079" lon="-3.18084">
        <ele>62</ele>
        <time>2015-02-15T09:11:18Z</time>
      </trkpt>
      <trkpt lat="48.70797" lon="-3.18091">
        <ele>62</ele>
        <time>2015-02-15T09:11:19Z</time>
      </trkpt>
      <trkpt lat="48.70804" lon="-3.18097">
        <ele>62</ele>
        <time>2015-02-15T09:11:20Z</time>
      </trkpt>
      <trkpt lat="48.7081" lon="-3.18104">
        <ele>62</ele>
        <time>2015-02-15T09:11:21Z</time>
      </trkpt>
      <trkpt lat="48.70817" lon="-3.1811">
        <ele>62</ele>
        <time>2015-02-15T09:11:22Z</time>
      </trkpt>
      <trkpt lat="48.70824" lon="-3.18117">
        <ele>62</ele>
        <time>2015-02-15T09:11:23Z</time>
      </trkpt>
      <trkpt lat="48.7083" lon="-3.18123">
        <ele>62</ele>
        <time>2015-02-15T09:11:24Z</time>
      </trkpt>
      <trkpt lat="48.70836" lon="-3.18128">
        <ele>62</ele>
        <time>2015-02-15T09:11:25Z</time>
      </trkpt>
      <trkpt lat="48.70842" lon="-3.18134">
        <ele>62</ele>
        <time>2015-02-15T09:11:26Z</time>
      </trkpt>
      <trkpt lat="48.70847" lon="-3.18139">
        <ele>62</ele>
        <time>2015-02-15T09:11:27Z</time>
      </trkpt>
      <trkpt lat="48.70853" lon="-3.18144">
        <ele>62</ele>
        <time>2015-02-15T09:11:28Z</time>
      </trkpt>
      <trkpt lat="48.70858" lon="-3.1815">
        <ele>63</ele>
        <time>2015-02-15T09:11:29Z</time>
      </trkpt>
      <trkpt lat="48.70863" lon="-3.18155">
        <ele>63</ele>
        <time>2015-02-15T09:11:30Z</time>
      </trkpt>
      <trkpt lat="48.70869" lon="-3.1816">
        <ele>63</ele>
        <time>2015-02-15T09:11:31Z</time>
      </trkpt>
      <trkpt lat="48.70874" lon="-3.18165">
        <ele>63</ele>
        <time>2015-02-15T09:11:32Z</time>
      </trkpt>
      <trkpt lat="48.70879" lon="-3.1817">
        <ele>63</ele>
        <time>2015-02-15T09:11:33Z</time>
      </trkpt>
      <trkpt lat="48.70884" lon="-3.18174">
        <ele>64</ele>
        <time>2015-02-15T09:11:34Z</time>
      </trkpt>
      <trkpt lat="48.70889" lon="-3.18179">
        <ele>64</ele>
        <time>2015-02-15T09:11:35Z</time>
      </trkpt>
      <trkpt lat="48.70894" lon="-3.18184">
        <ele>64</ele>
        <time>2015-02-15T09:11:36Z</time>
      </trkpt>
      <trkpt lat="48.70899" lon="-3.18189">
        <ele>64</ele>
        <time>2015-02-15T09:11:37Z</time>
      </trkpt>
      <trkpt lat="48.70903" lon="-3.18194">
        <ele>64</ele>
        <time>2015-02-15T09:11:38Z</time>
      </trkpt>
      <trkpt lat="48.70908" lon="-3.18198">
        <ele>65</ele>
        <time>2015-02-15T09:11:39Z</time>
      </trkpt>
      <trkpt lat="48.70912" lon="-3.18203">
        <ele>65</ele>
        <time>2015-02-15T09:11:40Z</time>
      </trkpt>
      <trkpt lat="48.70916" lon="-3.18207">
        <ele>65</ele>
        <time>2015-02-15T09:11:41Z</time>
      </trkpt>
      <trkpt lat="48.70921" lon="-3.18211">
        <ele>65</ele>
        <time>2015-02-15T09:11:42Z</time>
      </trkpt>
      <trkpt lat="48.70924" lon="-3.18214">
        <ele>65</ele>
        <time>2015-02-15T09:11:43Z</time>
      </trkpt>
      <trkpt lat="48.70928" lon="-3.18217">
        <ele>66</ele>
        <time>2015-02-15T09:11:44Z</time>
      </trkpt>
      <trkpt lat="48.70931" lon="-3.18221">
        <ele>66</ele>
        <time>2015-02-15T09:11:45Z</time>
      </trkpt>
      <trkpt lat="48.70935" lon="-3.18224">
        <ele>66</ele>
        <time>2015-02-15T09:11:46Z</time>
      </trkpt>
      <trkpt lat="48.70938" lon="-3.18227">
        <ele>66</ele>
        <time>2015-02-15T09:11:47Z</time>
      </trkpt>
      <trkpt lat="48.70941" lon="-3.1823">
        <ele>66</ele>
        <time>2015-02-15T09:11:48Z</time>
      </trkpt>
      <trkpt lat="48.70945" lon="-3.18233">
        <ele>66</ele>
        <time>2015-02-15T09:11:49Z</time>
      </trkpt>
      <trkpt lat="48.70948" lon="-3.18236">
        <ele>67</ele>
        <time>2015-02-15T09:11:50Z</time>
      </trkpt>
      <trkpt lat="48.70952" lon="-3.18239">
        <ele>67</ele>
        <time>2015-02-15T09:11:51Z</time>
      </trkpt>
      <trkpt lat="48.70956" lon="-3.18243">
        <ele>67</ele>
        <time>2015-02-15T09:11:52Z</time>
      </trkpt>
      <trkpt lat="48.70959" lon="-3.18246">
        <ele>67</ele>
        <time>2015-02-15T09:11:53Z</time>
      </trkpt>
      <trkpt lat="48.70964" lon="-3.18249">
        <ele>67</ele>
        <time>2015-02-15T09:11:54Z</time>
      </trkpt>
      <trkpt lat="48.70967" lon="-3.18252">
        <ele>68</ele>
        <time>2015-02-15T09:11:55Z</time>
      </trkpt>
      <trkpt lat="48.70971" lon="-3.18256">
        <ele>68</ele>
        <time>2015-02-15T09:11:56Z</time>
      </trkpt>
      <trkpt lat="48.70975" lon="-3.1826">
        <ele>68</ele>
        <time>2015-02-15T09:11:57Z</time>
      </trkpt>
      <trkpt lat="48.70979" lon="-3.18263">
        <ele>68</ele>
        <time>2015-02-15T09:11:58Z</time>
      </trkpt>
      <trkpt lat="48.70982" lon="-3.18267">
        <ele>68</ele>
        <time>2015-02-15T09:11:59Z</time>
      </trkpt>
      <trkpt lat="48.70986" lon="-3.1827">
        <ele>68</ele>
        <time>2015-02-15T09:12:00Z</time>
      </trkpt>
      <trkpt lat="48.7099" lon="-3.18274">
        <ele>68</ele>
        <time>2015-02-15T09:12:01Z</time>
      </trkpt>
      <trkpt lat="48.70993" lon="-3.18277">
        <ele>69</ele>
        <time>2015-02-15T09:12:02Z</time>
      </trkpt>
      <trkpt lat="48.70996" lon="-3.18281">
        <ele>69</ele>
        <time>2015-02-15T09:12:03Z</time>
      </trkpt>
      <trkpt lat="48.70999" lon="-3.18284">
        <ele>69</ele>
        <time>2015-02-15T09:12:04Z</time>
      </trkpt>
      <trkpt lat="48.71002" lon="-3.18288">
        <ele>69</ele>
        <time>2015-02-15T09:12:05Z</time>
      </trkpt>
      <trkpt lat="48.71005" lon="-3.18292">
        <ele>69</ele>
        <time>2015-02-15T09:12:06Z</time>
      </trkpt>
      <trkpt lat="48.71008" lon="-3.18296">
        <ele>69</ele>
        <time>2015-02-15T09:12:07Z</time>
      </trkpt>
      <trkpt lat="48.71011" lon="-3.18301">
        <ele>69</ele>
        <time>2015-02-15T09:12:08Z</time>
      </trkpt>
      <trkpt lat="48.71014" lon="-3.18305">
        <ele>69</ele>
        <time>2015-02-15T09:12:09Z</time>
      </trkpt>
      <trkpt lat="48.71016" lon="-3.1831">
        <ele>69</ele>
        <time>2015-02-15T09:12:10Z</time>
      </trkpt>
      <trkpt lat="48.71019" lon="-3.18315">
        <ele>69</ele>
        <time>2015-02-15T09:12:11Z</time>
      </trkpt>
      <trkpt lat="48.71021" lon="-3.1832">
        <ele>69</ele>
        <time>2015-02-15T09:12:12Z</time>
      </trkpt>
      <trkpt lat="48.71024" lon="-3.18325">
        <ele>69</ele>
        <time>2015-02-15T09:12:13Z</time>
      </trkpt>
      <trkpt lat="48.71027" lon="-3.18331">
        <ele>69</ele>
        <time>2015-02-15T09:12:14Z</time>
      </trkpt>
      <trkpt lat="48.7103" lon="-3.18337">
        <ele>69</ele>
        <time>2015-02-15T09:12:15Z</time>
      </trkpt>
      <trkpt lat="48.71032" lon="-3.18344">
        <ele>69</ele>
        <time>2015-02-15T09:12:16Z</time>
      </trkpt>
      <trkpt lat="48.71035" lon="-3.18349">
        <ele>69</ele>
        <time>2015-02-15T09:12:17Z</time>
      </trkpt>
      <trkpt lat="48.71037" lon="-3.18355">
        <ele>69</ele>
        <time>2015-02-15T09:12:18Z</time>
      </trkpt>
      <trkpt lat="48.7104" lon="-3.18361">
        <ele>69</ele>
        <time>2015-02-15T09:12:19Z</time>
      </trkpt>
      <trkpt lat="48.71043" lon="-3.18366">
        <ele>69</ele>
        <time>2015-02-15T09:12:20Z</time>
      </trkpt>
      <trkpt lat="48.71045" lon="-3.18372">
        <ele>69</ele>
        <time>2015-02-15T09:12:21Z</time>
      </trkpt>
      <trkpt lat="48.71047" lon="-3.18378">
        <ele>69</ele>
        <time>2015-02-15T09:12:22Z</time>
      </trkpt>
      <trkpt lat="48.71049" lon="-3.18384">
        <ele>69</ele>
        <time>2015-02-15T09:12:23Z</time>
      </trkpt>
      <trkpt lat="48.71051" lon="-3.1839">
        <ele>70</ele>
        <time>2015-02-15T09:12:24Z</time>
      </trkpt>
      <trkpt lat="48.71053" lon="-3.18397">
        <ele>70</ele>
        <time>2015-02-15T09:12:25Z</time>
      </trkpt>
      <trkpt lat="48.71056" lon="-3.18403">
        <ele>70</ele>
        <time>2015-02-15T09:12:26Z</time>
      </trkpt>
      <trkpt lat="48.71059" lon="-3.18409">
        <ele>70</ele>
        <time>2015-02-15T09:12:27Z</time>
      </trkpt>
      <trkpt lat="48.71062" lon="-3.18416">
        <ele>70</ele>
        <time>2015-02-15T09:12:28Z</time>
      </trkpt>
      <trkpt lat="48.71064" lon="-3.18422">
        <ele>70</ele>
        <time>2015-02-15T09:12:29Z</time>
      </trkpt>
      <trkpt lat="48.71067" lon="-3.18429">
        <ele>70</ele>
        <time>2015-02-15T09:12:30Z</time>
      </trkpt>
      <trkpt lat="48.71069" lon="-3.18436">
        <ele>70</ele>
        <time>2015-02-15T09:12:31Z</time>
      </trkpt>
      <trkpt lat="48.71072" lon="-3.18443">
        <ele>70</ele>
        <time>2015-02-15T09:12:32Z</time>
      </trkpt>
      <trkpt lat="48.71074" lon="-3.1845">
        <ele>70</ele>
        <time>2015-02-15T09:12:33Z</time>
      </trkpt>
      <trkpt lat="48.71076" lon="-3.18457">
        <ele>70</ele>
        <time>2015-02-15T09:12:35Z</time>
      </trkpt>
      <trkpt lat="48.71078" lon="-3.18464">
        <ele>70</ele>
        <time>2015-02-15T09:12:35Z</time>
      </trkpt>
      <trkpt lat="48.7108" lon="-3.18471">
        <ele>70</ele>
        <time>2015-02-15T09:12:36Z</time>
      </trkpt>
      <trkpt lat="48.71082" lon="-3.18478">
        <ele>70</ele>
        <time>2015-02-15T09:12:37Z</time>
      </trkpt>
      <trkpt lat="48.71083" lon="-3.18485">
        <ele>70</ele>
        <time>2015-02-15T09:12:38Z</time>
      </trkpt>
      <trkpt lat="48.71084" lon="-3.18492">
        <ele>70</ele>
        <time>2015-02-15T09:12:39Z</time>
      </trkpt>
      <trkpt lat="48.71085" lon="-3.18498">
        <ele>70</ele>
        <time>2015-02-15T09:12:40Z</time>
      </trkpt>
      <trkpt lat="48.71087" lon="-3.18505">
        <ele>70</ele>
        <time>2015-02-15T09:12:41Z</time>
      </trkpt>
      <trkpt lat="48.71088" lon="-3.18511">
        <ele>70</ele>
        <time>2015-02-15T09:12:42Z</time>
      </trkpt>
      <trkpt lat="48.71089" lon="-3.18517">
        <ele>70</ele>
        <time>2015-02-15T09:12:43Z</time>
      </trkpt>
      <trkpt lat="48.7109" lon="-3.18524">
        <ele>70</ele>
        <time>2015-02-15T09:12:44Z</time>
      </trkpt>
      <trkpt lat="48.71091" lon="-3.18531">
        <ele>71</ele>
        <time>2015-02-15T09:12:45Z</time>
      </trkpt>
      <trkpt lat="48.71091" lon="-3.18537">
        <ele>71</ele>
        <time>2015-02-15T09:12:46Z</time>
      </trkpt>
      <trkpt lat="48.71093" lon="-3.18543">
        <ele>71</ele>
        <time>2015-02-15T09:12:47Z</time>
      </trkpt>
      <trkpt lat="48.71093" lon="-3.1855">
        <ele>71</ele>
        <time>2015-02-15T09:12:48Z</time>
      </trkpt>
      <trkpt lat="48.71095" lon="-3.18557">
        <ele>71</ele>
        <time>2015-02-15T09:12:49Z</time>
      </trkpt>
      <trkpt lat="48.71096" lon="-3.18564">
        <ele>71</ele>
        <time>2015-02-15T09:12:50Z</time>
      </trkpt>
      <trkpt lat="48.71097" lon="-3.18571">
        <ele>71</ele>
        <time>2015-02-15T09:12:51Z</time>
      </trkpt>
      <trkpt lat="48.71098" lon="-3.18579">
        <ele>71</ele>
        <time>2015-02-15T09:12:52Z</time>
      </trkpt>
      <trkpt lat="48.71099" lon="-3.18586">
        <ele>71</ele>
        <time>2015-02-15T09:12:53Z</time>
      </trkpt>
      <trkpt lat="48.71101" lon="-3.18594">
        <ele>71</ele>
        <time>2015-02-15T09:12:54Z</time>
      </trkpt>
      <trkpt lat="48.71102" lon="-3.18602">
        <ele>71</ele>
        <time>2015-02-15T09:12:55Z</time>
      </trkpt>
      <trkpt lat="48.71104" lon="-3.1861">
        <ele>71</ele>
        <time>2015-02-15T09:12:56Z</time>
      </trkpt>
      <trkpt lat="48.71105" lon="-3.18618">
        <ele>71</ele>
        <time>2015-02-15T09:12:57Z</time>
      </trkpt>
      <trkpt lat="48.71107" lon="-3.18626">
        <ele>71</ele>
        <time>2015-02-15T09:12:58Z</time>
      </trkpt>
      <trkpt lat="48.71109" lon="-3.18634">
        <ele>71</ele>
        <time>2015-02-15T09:12:59Z</time>
      </trkpt>
      <trkpt lat="48.71111" lon="-3.18641">
        <ele>71</ele>
        <time>2015-02-15T09:13:00Z</time>
      </trkpt>
      <trkpt lat="48.71113" lon="-3.18649">
        <ele>71</ele>
        <time>2015-02-15T09:13:01Z</time>
      </trkpt>
      <trkpt lat="48.71116" lon="-3.18656">
        <ele>71</ele>
        <time>2015-02-15T09:13:02Z</time>
      </trkpt>
      <trkpt lat="48.71118" lon="-3.18664">
        <ele>71</ele>
        <time>2015-02-15T09:13:03Z</time>
      </trkpt>
      <trkpt lat="48.71121" lon="-3.18671">
        <ele>71</ele>
        <time>2015-02-15T09:13:04Z</time>
      </trkpt>
      <trkpt lat="48.71124" lon="-3.18678">
        <ele>71</ele>
        <time>2015-02-15T09:13:05Z</time>
      </trkpt>
      <trkpt lat="48.71127" lon="-3.18685">
        <ele>71</ele>
        <time>2015-02-15T09:13:06Z</time>
      </trkpt>
      <trkpt lat="48.7113" lon="-3.18692">
        <ele>71</ele>
        <time>2015-02-15T09:13:07Z</time>
      </trkpt>
      <trkpt lat="48.71133" lon="-3.187">
        <ele>71</ele>
        <time>2015-02-15T09:13:08Z</time>
      </trkpt>
      <trkpt lat="48.71136" lon="-3.18707">
        <ele>71</ele>
        <time>2015-02-15T09:13:09Z</time>
      </trkpt>
      <trkpt lat="48.7114" lon="-3.18714">
        <ele>71</ele>
        <time>2015-02-15T09:13:10Z</time>
      </trkpt>
      <trkpt lat="48.71143" lon="-3.18721">
        <ele>71</ele>
        <time>2015-02-15T09:13:11Z</time>
      </trkpt>
      <trkpt lat="48.71146" lon="-3.18728">
        <ele>71</ele>
        <time>2015-02-15T09:13:12Z</time>
      </trkpt>
      <trkpt lat="48.71148" lon="-3.18733">
        <ele>71</ele>
        <time>2015-02-15T09:13:13Z</time>
      </trkpt>
      <trkpt lat="48.7115" lon="-3.18737">
        <ele>71</ele>
        <time>2015-02-15T09:13:14Z</time>
      </trkpt>
      <trkpt lat="48.71152" lon="-3.1874">
        <ele>71</ele>
        <time>2015-02-15T09:13:15Z</time>
      </trkpt>
      <trkpt lat="48.71154" lon="-3.18743">
        <ele>71</ele>
        <time>2015-02-15T09:13:16Z</time>
      </trkpt>
      <trkpt lat="48.71156" lon="-3.18746">
        <ele>71</ele>
        <time>2015-02-15T09:13:17Z</time>
      </trkpt>
      <trkpt lat="48.71157" lon="-3.18749">
        <ele>71</ele>
        <time>2015-02-15T09:13:18Z</time>
      </trkpt>
      <trkpt lat="48.71158" lon="-3.18752">
        <ele>71</ele>
        <time>2015-02-15T09:13:19Z</time>
      </trkpt>
      <trkpt lat="48.71159" lon="-3.18755">
        <ele>71</ele>
        <time>2015-02-15T09:13:20Z</time>
      </trkpt>
      <trkpt lat="48.71161" lon="-3.18758">
        <ele>71</ele>
        <time>2015-02-15T09:13:21Z</time>
      </trkpt>
      <trkpt lat="48.71162" lon="-3.1876">
        <ele>71</ele>
        <time>2015-02-15T09:13:22Z</time>
      </trkpt>
      <trkpt lat="48.71163" lon="-3.18763">
        <ele>71</ele>
        <time>2015-02-15T09:13:23Z</time>
      </trkpt>
      <trkpt lat="48.71164" lon="-3.18766">
        <ele>71</ele>
        <time>2015-02-15T09:13:24Z</time>
      </trkpt>
      <trkpt lat="48.71166" lon="-3.18769">
        <ele>71</ele>
        <time>2015-02-15T09:13:25Z</time>
      </trkpt>
      <trkpt lat="48.71167" lon="-3.18771">
        <ele>71</ele>
        <time>2015-02-15T09:13:26Z</time>
      </trkpt>
      <trkpt lat="48.71169" lon="-3.18774">
        <ele>71</ele>
        <time>2015-02-15T09:13:27Z</time>
      </trkpt>
      <trkpt lat="48.7117" lon="-3.18777">
        <ele>71</ele>
        <time>2015-02-15T09:13:28Z</time>
      </trkpt>
      <trkpt lat="48.71172" lon="-3.1878">
        <ele>71</ele>
        <time>2015-02-15T09:13:29Z</time>
      </trkpt>
      <trkpt lat="48.71173" lon="-3.18783">
        <ele>71</ele>
        <time>2015-02-15T09:13:30Z</time>
      </trkpt>
      <trkpt lat="48.71174" lon="-3.18786">
        <ele>71</ele>
        <time>2015-02-15T09:13:31Z</time>
      </trkpt>
      <trkpt lat="48.71176" lon="-3.18789">
        <ele>71</ele>
        <time>2015-02-15T09:13:32Z</time>
      </trkpt>
      <trkpt lat="48.71177" lon="-3.18792">
        <ele>71</ele>
        <time>2015-02-15T09:13:33Z</time>
      </trkpt>
      <trkpt lat="48.71179" lon="-3.18795">
        <ele>71</ele>
        <time>2015-02-15T09:13:34Z</time>
      </trkpt>
      <trkpt lat="48.7118" lon="-3.18797">
        <ele>71</ele>
        <time>2015-02-15T09:13:35Z</time>
      </trkpt>
      <trkpt lat="48.71182" lon="-3.188">
        <ele>71</ele>
        <time>2015-02-15T09:13:36Z</time>
      </trkpt>
      <trkpt lat="48.71184" lon="-3.18803">
        <ele>71</ele>
        <time>2015-02-15T09:13:37Z</time>
      </trkpt>
      <trkpt lat="48.71186" lon="-3.18807">
        <ele>71</ele>
        <time>2015-02-15T09:13:38Z</time>
      </trkpt>
      <trkpt lat="48.71187" lon="-3.1881">
        <ele>71</ele>
        <time>2015-02-15T09:13:39Z</time>
      </trkpt>
      <trkpt lat="48.71189" lon="-3.18814">
        <ele>71</ele>
        <time>2015-02-15T09:13:40Z</time>
      </trkpt>
      <trkpt lat="48.7119" lon="-3.18819">
        <ele>71</ele>
        <time>2015-02-15T09:13:41Z</time>
      </trkpt>
      <trkpt lat="48.71192" lon="-3.18823">
        <ele>71</ele>
        <time>2015-02-15T09:13:42Z</time>
      </trkpt>
      <trkpt lat="48.71194" lon="-3.18827">
        <ele>71</ele>
        <time>2015-02-15T09:13:43Z</time>
      </trkpt>
      <trkpt lat="48.71197" lon="-3.18831">
        <ele>71</ele>
        <time>2015-02-15T09:13:44Z</time>
      </trkpt>
      <trkpt lat="48.712" lon="-3.18835">
        <ele>71</ele>
        <time>2015-02-15T09:13:45Z</time>
      </trkpt>
      <trkpt lat="48.71203" lon="-3.1884">
        <ele>71</ele>
        <time>2015-02-15T09:13:46Z</time>
      </trkpt>
      <trkpt lat="48.71206" lon="-3.18846">
        <ele>71</ele>
        <time>2015-02-15T09:13:47Z</time>
      </trkpt>
      <trkpt lat="48.71209" lon="-3.18852">
        <ele>71</ele>
        <time>2015-02-15T09:13:48Z</time>
      </trkpt>
      <trkpt lat="48.71212" lon="-3.18858">
        <ele>71</ele>
        <time>2015-02-15T09:13:49Z</time>
      </trkpt>
      <trkpt lat="48.71215" lon="-3.18865">
        <ele>71</ele>
        <time>2015-02-15T09:13:50Z</time>
      </trkpt>
      <trkpt lat="48.71217" lon="-3.18872">
        <ele>71</ele>
        <time>2015-02-15T09:13:51Z</time>
      </trkpt>
      <trkpt lat="48.71221" lon="-3.18879">
        <ele>71</ele>
        <time>2015-02-15T09:13:52Z</time>
      </trkpt>
      <trkpt lat="48.71224" lon="-3.18886">
        <ele>71</ele>
        <time>2015-02-15T09:13:53Z</time>
      </trkpt>
      <trkpt lat="48.71228" lon="-3.18894">
        <ele>71</ele>
        <time>2015-02-15T09:13:54Z</time>
      </trkpt>
      <trkpt lat="48.71231" lon="-3.18901">
        <ele>71</ele>
        <time>2015-02-15T09:13:55Z</time>
      </trkpt>
      <trkpt lat="48.71235" lon="-3.18908">
        <ele>71</ele>
        <time>2015-02-15T09:13:56Z</time>
      </trkpt>
      <trkpt lat="48.71238" lon="-3.18915">
        <ele>71</ele>
        <time>2015-02-15T09:13:57Z</time>
      </trkpt>
      <trkpt lat="48.71242" lon="-3.18922">
        <ele>71</ele>
        <time>2015-02-15T09:13:58Z</time>
      </trkpt>
      <trkpt lat="48.71245" lon="-3.18929">
        <ele>71</ele>
        <time>2015-02-15T09:13:59Z</time>
      </trkpt>
      <trkpt lat="48.71248" lon="-3.18936">
        <ele>71</ele>
        <time>2015-02-15T09:14:00Z</time>
      </trkpt>
      <trkpt lat="48.71252" lon="-3.18943">
        <ele>71</ele>
        <time>2015-02-15T09:14:01Z</time>
      </trkpt>
      <trkpt lat="48.71255" lon="-3.1895">
        <ele>71</ele>
        <time>2015-02-15T09:14:02Z</time>
      </trkpt>
      <trkpt lat="48.71259" lon="-3.18957">
        <ele>71</ele>
        <time>2015-02-15T09:14:03Z</time>
      </trkpt>
      <trkpt lat="48.71262" lon="-3.18965">
        <ele>71</ele>
        <time>2015-02-15T09:14:04Z</time>
      </trkpt>
      <trkpt lat="48.71265" lon="-3.18971">
        <ele>71</ele>
        <time>2015-02-15T09:14:05Z</time>
      </trkpt>
      <trkpt lat="48.71269" lon="-3.18979">
        <ele>71</ele>
        <time>2015-02-15T09:14:06Z</time>
      </trkpt>
      <trkpt lat="48.71272" lon="-3.18985">
        <ele>71</ele>
        <time>2015-02-15T09:14:07Z</time>
      </trkpt>
      <trkpt lat="48.71275" lon="-3.18993">
        <ele>71</ele>
        <time>2015-02-15T09:14:08Z</time>
      </trkpt>
      <trkpt lat="48.71278" lon="-3.19">
        <ele>71</ele>
        <time>2015-02-15T09:14:09Z</time>
      </trkpt>
      <trkpt lat="48.71282" lon="-3.19007">
        <ele>71</ele>
        <time>2015-02-15T09:14:10Z</time>
      </trkpt>
      <trkpt lat="48.71285" lon="-3.19014">
        <ele>71</ele>
        <time>2015-02-15T09:14:11Z</time>
      </trkpt>
      <trkpt lat="48.71289" lon="-3.19022">
        <ele>71</ele>
        <time>2015-02-15T09:14:12Z</time>
      </trkpt>
      <trkpt lat="48.71293" lon="-3.1903">
        <ele>71</ele>
        <time>2015-02-15T09:14:13Z</time>
      </trkpt>
      <trkpt lat="48.71296" lon="-3.19037">
        <ele>71</ele>
        <time>2015-02-15T09:14:14Z</time>
      </trkpt>
      <trkpt lat="48.71299" lon="-3.19045">
        <ele>71</ele>
        <time>2015-02-15T09:14:15Z</time>
      </trkpt>
      <trkpt lat="48.71303" lon="-3.19052">
        <ele>71</ele>
        <time>2015-02-15T09:14:16Z</time>
      </trkpt>
      <trkpt lat="48.71306" lon="-3.19059">
        <ele>71</ele>
        <time>2015-02-15T09:14:17Z</time>
      </trkpt>
      <trkpt lat="48.7131" lon="-3.19067">
        <ele>71</ele>
        <time>2015-02-15T09:14:18Z</time>
      </trkpt>
      <trkpt lat="48.71313" lon="-3.19074">
        <ele>71</ele>
        <time>2015-02-15T09:14:19Z</time>
      </trkpt>
      <trkpt lat="48.71317" lon="-3.19081">
        <ele>71</ele>
        <time>2015-02-15T09:14:20Z</time>
      </trkpt>
      <trkpt lat="48.7132" lon="-3.19089">
        <ele>71</ele>
        <time>2015-02-15T09:14:21Z</time>
      </trkpt>
      <trkpt lat="48.71324" lon="-3.19097">
        <ele>71</ele>
        <time>2015-02-15T09:14:22Z</time>
      </trkpt>
      <trkpt lat="48.71328" lon="-3.19105">
        <ele>71</ele>
        <time>2015-02-15T09:14:23Z</time>
      </trkpt>
      <trkpt lat="48.71331" lon="-3.19113">
        <ele>71</ele>
        <time>2015-02-15T09:14:24Z</time>
      </trkpt>
      <trkpt lat="48.71335" lon="-3.19122">
        <ele>71</ele>
        <time>2015-02-15T09:14:25Z</time>
      </trkpt>
      <trkpt lat="48.71339" lon="-3.1913">
        <ele>71</ele>
        <time>2015-02-15T09:14:26Z</time>
      </trkpt>
      <trkpt lat="48.71342" lon="-3.19138">
        <ele>71</ele>
        <time>2015-02-15T09:14:27Z</time>
      </trkpt>
      <trkpt lat="48.71346" lon="-3.19146">
        <ele>71</ele>
        <time>2015-02-15T09:14:28Z</time>
      </trkpt>
      <trkpt lat="48.7135" lon="-3.19154">
        <ele>71</ele>
        <time>2015-02-15T09:14:29Z</time>
      </trkpt>
      <trkpt lat="48.71353" lon="-3.19162">
        <ele>71</ele>
        <time>2015-02-15T09:14:30Z</time>
      </trkpt>
      <trkpt lat="48.71357" lon="-3.19171">
        <ele>71</ele>
        <time>2015-02-15T09:14:31Z</time>
      </trkpt>
      <trkpt lat="48.7136" lon="-3.19179">
        <ele>71</ele>
        <time>2015-02-15T09:14:32Z</time>
      </trkpt>
      <trkpt lat="48.71364" lon="-3.19187">
        <ele>71</ele>
        <time>2015-02-15T09:14:33Z</time>
      </trkpt>
      <trkpt lat="48.71367" lon="-3.19195">
        <ele>71</ele>
        <time>2015-02-15T09:14:34Z</time>
      </trkpt>
      <trkpt lat="48.71371" lon="-3.19203">
        <ele>71</ele>
        <time>2015-02-15T09:14:35Z</time>
      </trkpt>
      <trkpt lat="48.71374" lon="-3.19211">
        <ele>71</ele>
        <time>2015-02-15T09:14:36Z</time>
      </trkpt>
      <trkpt lat="48.71378" lon="-3.19219">
        <ele>71</ele>
        <time>2015-02-15T09:14:37Z</time>
      </trkpt>
      <trkpt lat="48.71381" lon="-3.19227">
        <ele>71</ele>
        <time>2015-02-15T09:14:38Z</time>
      </trkpt>
      <trkpt lat="48.71385" lon="-3.19236">
        <ele>71</ele>
        <time>2015-02-15T09:14:39Z</time>
      </trkpt>
      <trkpt lat="48.71388" lon="-3.19245">
        <ele>71</ele>
        <time>2015-02-15T09:14:40Z</time>
      </trkpt>
      <trkpt lat="48.71392" lon="-3.19254">
        <ele>71</ele>
        <time>2015-02-15T09:14:41Z</time>
      </trkpt>
      <trkpt lat="48.71395" lon="-3.19263">
        <ele>71</ele>
        <time>2015-02-15T09:14:42Z</time>
      </trkpt>
      <trkpt lat="48.71399" lon="-3.19273">
        <ele>71</ele>
        <time>2015-02-15T09:14:43Z</time>
      </trkpt>
      <trkpt lat="48.71403" lon="-3.19283">
        <ele>71</ele>
        <time>2015-02-15T09:14:44Z</time>
      </trkpt>
      <trkpt lat="48.71407" lon="-3.19293">
        <ele>71</ele>
        <time>2015-02-15T09:14:45Z</time>
      </trkpt>
      <trkpt lat="48.71411" lon="-3.19303">
        <ele>71</ele>
        <time>2015-02-15T09:14:46Z</time>
      </trkpt>
      <trkpt lat="48.71415" lon="-3.19313">
        <ele>71</ele>
        <time>2015-02-15T09:14:47Z</time>
      </trkpt>
      <trkpt lat="48.71419" lon="-3.19324">
        <ele>70</ele>
        <time>2015-02-15T09:14:48Z</time>
      </trkpt>
      <trkpt lat="48.71424" lon="-3.19335">
        <ele>70</ele>
        <time>2015-02-15T09:14:49Z</time>
      </trkpt>
      <trkpt lat="48.71428" lon="-3.19346">
        <ele>69</ele>
        <time>2015-02-15T09:14:50Z</time>
      </trkpt>
      <trkpt lat="48.71433" lon="-3.19356">
        <ele>69</ele>
        <time>2015-02-15T09:14:51Z</time>
      </trkpt>
      <trkpt lat="48.71437" lon="-3.19368">
        <ele>69</ele>
        <time>2015-02-15T09:14:52Z</time>
      </trkpt>
      <trkpt lat="48.71441" lon="-3.19378">
        <ele>69</ele>
        <time>2015-02-15T09:14:53Z</time>
      </trkpt>
      <trkpt lat="48.71445" lon="-3.19389">
        <ele>68</ele>
        <time>2015-02-15T09:14:54Z</time>
      </trkpt>
      <trkpt lat="48.71449" lon="-3.194">
        <ele>68</ele>
        <time>2015-02-15T09:14:55Z</time>
      </trkpt>
      <trkpt lat="48.71452" lon="-3.19411">
        <ele>68</ele>
        <time>2015-02-15T09:14:56Z</time>
      </trkpt>
      <trkpt lat="48.71456" lon="-3.19422">
        <ele>68</ele>
        <time>2015-02-15T09:14:57Z</time>
      </trkpt>
      <trkpt lat="48.71459" lon="-3.19433">
        <ele>68</ele>
        <time>2015-02-15T09:14:58Z</time>
      </trkpt>
      <trkpt lat="48.71462" lon="-3.19443">
        <ele>68</ele>
        <time>2015-02-15T09:14:59Z</time>
      </trkpt>
      <trkpt lat="48.71466" lon="-3.19454">
        <ele>68</ele>
        <time>2015-02-15T09:15:00Z</time>
      </trkpt>
      <trkpt lat="48.71468" lon="-3.19464">
        <ele>68</ele>
        <time>2015-02-15T09:15:01Z</time>
      </trkpt>
      <trkpt lat="48.71471" lon="-3.19474">
        <ele>68</ele>
        <time>2015-02-15T09:15:02Z</time>
      </trkpt>
      <trkpt lat="48.71473" lon="-3.19484">
        <ele>68</ele>
        <time>2015-02-15T09:15:03Z</time>
      </trkpt>
      <trkpt lat="48.71475" lon="-3.19493">
        <ele>68</ele>
        <time>2015-02-15T09:15:04Z</time>
      </trkpt>
      <trkpt lat="48.71477" lon="-3.19503">
        <ele>68</ele>
        <time>2015-02-15T09:15:05Z</time>
      </trkpt>
      <trkpt lat="48.71479" lon="-3.19513">
        <ele>68</ele>
        <time>2015-02-15T09:15:06Z</time>
      </trkpt>
      <trkpt lat="48.71481" lon="-3.19522">
        <ele>68</ele>
        <time>2015-02-15T09:15:07Z</time>
      </trkpt>
      <trkpt lat="48.71483" lon="-3.19531">
        <ele>68</ele>
        <time>2015-02-15T09:15:08Z</time>
      </trkpt>
      <trkpt lat="48.71486" lon="-3.1954">
        <ele>68</ele>
        <time>2015-02-15T09:15:09Z</time>
      </trkpt>
      <trkpt lat="48.71488" lon="-3.19549">
        <ele>68</ele>
        <time>2015-02-15T09:15:10Z</time>
      </trkpt>
      <trkpt lat="48.7149" lon="-3.19557">
        <ele>68</ele>
        <time>2015-02-15T09:15:11Z</time>
      </trkpt>
      <trkpt lat="48.71492" lon="-3.19566">
        <ele>68</ele>
        <time>2015-02-15T09:15:12Z</time>
      </trkpt>
      <trkpt lat="48.71495" lon="-3.19575">
        <ele>68</ele>
        <time>2015-02-15T09:15:13Z</time>
      </trkpt>
      <trkpt lat="48.71497" lon="-3.19584">
        <ele>68</ele>
        <time>2015-02-15T09:15:14Z</time>
      </trkpt>
      <trkpt lat="48.71499" lon="-3.19593">
        <ele>68</ele>
        <time>2015-02-15T09:15:15Z</time>
      </trkpt>
      <trkpt lat="48.71502" lon="-3.19602">
        <ele>68</ele>
        <time>2015-02-15T09:15:16Z</time>
      </trkpt>
      <trkpt lat="48.71503" lon="-3.19612">
        <ele>68</ele>
        <time>2015-02-15T09:15:17Z</time>
      </trkpt>
      <trkpt lat="48.71506" lon="-3.19621">
        <ele>68</ele>
        <time>2015-02-15T09:15:18Z</time>
      </trkpt>
      <trkpt lat="48.71508" lon="-3.19631">
        <ele>68</ele>
        <time>2015-02-15T09:15:19Z</time>
      </trkpt>
      <trkpt lat="48.7151" lon="-3.19641">
        <ele>68</ele>
        <time>2015-02-15T09:15:20Z</time>
      </trkpt>
      <trkpt lat="48.71513" lon="-3.19651">
        <ele>68</ele>
        <time>2015-02-15T09:15:21Z</time>
      </trkpt>
      <trkpt lat="48.71515" lon="-3.19661">
        <ele>68</ele>
        <time>2015-02-15T09:15:22Z</time>
      </trkpt>
      <trkpt lat="48.71517" lon="-3.19671">
        <ele>68</ele>
        <time>2015-02-15T09:15:23Z</time>
      </trkpt>
      <trkpt lat="48.7152" lon="-3.19681">
        <ele>68</ele>
        <time>2015-02-15T09:15:24Z</time>
      </trkpt>
      <trkpt lat="48.71522" lon="-3.19691">
        <ele>68</ele>
        <time>2015-02-15T09:15:25Z</time>
      </trkpt>
      <trkpt lat="48.71525" lon="-3.19702">
        <ele>68</ele>
        <time>2015-02-15T09:15:26Z</time>
      </trkpt>
      <trkpt lat="48.71527" lon="-3.19711">
        <ele>68</ele>
        <time>2015-02-15T09:15:27Z</time>
      </trkpt>
      <trkpt lat="48.7153" lon="-3.19722">
        <ele>68</ele>
        <time>2015-02-15T09:15:28Z</time>
      </trkpt>
      <trkpt lat="48.71532" lon="-3.19731">
        <ele>68</ele>
        <time>2015-02-15T09:15:29Z</time>
      </trkpt>
      <trkpt lat="48.71534" lon="-3.19741">
        <ele>68</ele>
        <time>2015-02-15T09:15:30Z</time>
      </trkpt>
      <trkpt lat="48.71537" lon="-3.19751">
        <ele>68</ele>
        <time>2015-02-15T09:15:31Z</time>
      </trkpt>
      <trkpt lat="48.71539" lon="-3.19761">
        <ele>68</ele>
        <time>2015-02-15T09:15:32Z</time>
      </trkpt>
      <trkpt lat="48.71541" lon="-3.19772">
        <ele>69</ele>
        <time>2015-02-15T09:15:33Z</time>
      </trkpt>
      <trkpt lat="48.71544" lon="-3.19781">
        <ele>69</ele>
        <time>2015-02-15T09:15:34Z</time>
      </trkpt>
      <trkpt lat="48.71546" lon="-3.19792">
        <ele>69</ele>
        <time>2015-02-15T09:15:35Z</time>
      </trkpt>
      <trkpt lat="48.71549" lon="-3.19802">
        <ele>69</ele>
        <time>2015-02-15T09:15:36Z</time>
      </trkpt>
      <trkpt lat="48.71551" lon="-3.19812">
        <ele>69</ele>
        <time>2015-02-15T09:15:37Z</time>
      </trkpt>
      <trkpt lat="48.71553" lon="-3.19822">
        <ele>69</ele>
        <time>2015-02-15T09:15:38Z</time>
      </trkpt>
      <trkpt lat="48.71556" lon="-3.19832">
        <ele>69</ele>
        <time>2015-02-15T09:15:39Z</time>
      </trkpt>
      <trkpt lat="48.71558" lon="-3.19842">
        <ele>69</ele>
        <time>2015-02-15T09:15:40Z</time>
      </trkpt>
      <trkpt lat="48.71561" lon="-3.19852">
        <ele>69</ele>
        <time>2015-02-15T09:15:41Z</time>
      </trkpt>
      <trkpt lat="48.71563" lon="-3.19862">
        <ele>70</ele>
        <time>2015-02-15T09:15:42Z</time>
      </trkpt>
      <trkpt lat="48.71566" lon="-3.19872">
        <ele>70</ele>
        <time>2015-02-15T09:15:43Z</time>
      </trkpt>
      <trkpt lat="48.71568" lon="-3.19881">
        <ele>70</ele>
        <time>2015-02-15T09:15:44Z</time>
      </trkpt>
      <trkpt lat="48.7157" lon="-3.19891">
        <ele>70</ele>
        <time>2015-02-15T09:15:45Z</time>
      </trkpt>
      <trkpt lat="48.71572" lon="-3.199">
        <ele>70</ele>
        <time>2015-02-15T09:15:46Z</time>
      </trkpt>
      <trkpt lat="48.71574" lon="-3.19909">
        <ele>70</ele>
        <time>2015-02-15T09:15:47Z</time>
      </trkpt>
      <trkpt lat="48.71576" lon="-3.19918">
        <ele>71</ele>
        <time>2015-02-15T09:15:48Z</time>
      </trkpt>
      <trkpt lat="48.71579" lon="-3.19927">
        <ele>71</ele>
        <time>2015-02-15T09:15:49Z</time>
      </trkpt>
      <trkpt lat="48.71582" lon="-3.19935">
        <ele>71</ele>
        <time>2015-02-15T09:15:50Z</time>
      </trkpt>
      <trkpt lat="48.71585" lon="-3.19944">
        <ele>71</ele>
        <time>2015-02-15T09:15:51Z</time>
      </trkpt>
      <trkpt lat="48.71587" lon="-3.19953">
        <ele>72</ele>
        <time>2015-02-15T09:15:52Z</time>
      </trkpt>
      <trkpt lat="48.7159" lon="-3.19962">
        <ele>72</ele>
        <time>2015-02-15T09:15:53Z</time>
      </trkpt>
      <trkpt lat="48.71593" lon="-3.1997">
        <ele>72</ele>
        <time>2015-02-15T09:15:54Z</time>
      </trkpt>
      <trkpt lat="48.71596" lon="-3.19979">
        <ele>72</ele>
        <time>2015-02-15T09:15:55Z</time>
      </trkpt>
      <trkpt lat="48.71599" lon="-3.19988">
        <ele>72</ele>
        <time>2015-02-15T09:15:56Z</time>
      </trkpt>
      <trkpt lat="48.71602" lon="-3.19997">
        <ele>72</ele>
        <time>2015-02-15T09:15:57Z</time>
      </trkpt>
      <trkpt lat="48.71605" lon="-3.20006">
        <ele>72</ele>
        <time>2015-02-15T09:15:58Z</time>
      </trkpt>
      <trkpt lat="48.71608" lon="-3.20014">
        <ele>72</ele>
        <time>2015-02-15T09:15:59Z</time>
      </trkpt>
      <trkpt lat="48.71612" lon="-3.20023">
        <ele>72</ele>
        <time>2015-02-15T09:16:00Z</time>
      </trkpt>
      <trkpt lat="48.71615" lon="-3.20031">
        <ele>73</ele>
        <time>2015-02-15T09:16:01Z</time>
      </trkpt>
      <trkpt lat="48.71619" lon="-3.20039">
        <ele>73</ele>
        <time>2015-02-15T09:16:02Z</time>
      </trkpt>
      <trkpt lat="48.71623" lon="-3.20046">
        <ele>73</ele>
        <time>2015-02-15T09:16:03Z</time>
      </trkpt>
      <trkpt lat="48.71627" lon="-3.20053">
        <ele>73</ele>
        <time>2015-02-15T09:16:04Z</time>
      </trkpt>
      <trkpt lat="48.7163" lon="-3.20061">
        <ele>73</ele>
        <time>2015-02-15T09:16:05Z</time>
      </trkpt>
      <trkpt lat="48.71634" lon="-3.20068">
        <ele>73</ele>
        <time>2015-02-15T09:16:06Z</time>
      </trkpt>
      <trkpt lat="48.71637" lon="-3.20075">
        <ele>73</ele>
        <time>2015-02-15T09:16:07Z</time>
      </trkpt>
      <trkpt lat="48.7164" lon="-3.20083">
        <ele>73</ele>
        <time>2015-02-15T09:16:08Z</time>
      </trkpt>
      <trkpt lat="48.71643" lon="-3.20091">
        <ele>73</ele>
        <time>2015-02-15T09:16:09Z</time>
      </trkpt>
      <trkpt lat="48.71646" lon="-3.20098">
        <ele>73</ele>
        <time>2015-02-15T09:16:10Z</time>
      </trkpt>
      <trkpt lat="48.71649" lon="-3.20106">
        <ele>74</ele>
        <time>2015-02-15T09:16:11Z</time>
      </trkpt>
      <trkpt lat="48.71653" lon="-3.20113">
        <ele>74</ele>
        <time>2015-02-15T09:16:12Z</time>
      </trkpt>
      <trkpt lat="48.71656" lon="-3.2012">
        <ele>74</ele>
        <time>2015-02-15T09:16:13Z</time>
      </trkpt>
      <trkpt lat="48.71659" lon="-3.20128">
        <ele>74</ele>
        <time>2015-02-15T09:16:14Z</time>
      </trkpt>
      <trkpt lat="48.71663" lon="-3.20135">
        <ele>74</ele>
        <time>2015-02-15T09:16:15Z</time>
      </trkpt>
      <trkpt lat="48.71666" lon="-3.20141">
        <ele>74</ele>
        <time>2015-02-15T09:16:16Z</time>
      </trkpt>
      <trkpt lat="48.7167" lon="-3.20148">
        <ele>74</ele>
        <time>2015-02-15T09:16:17Z</time>
      </trkpt>
      <trkpt lat="48.71674" lon="-3.20154">
        <ele>74</ele>
        <time>2015-02-15T09:16:18Z</time>
      </trkpt>
      <trkpt lat="48.71677" lon="-3.20161">
        <ele>74</ele>
        <time>2015-02-15T09:16:19Z</time>
      </trkpt>
      <trkpt lat="48.71681" lon="-3.20167">
        <ele>74</ele>
        <time>2015-02-15T09:16:20Z</time>
      </trkpt>
      <trkpt lat="48.71684" lon="-3.20174">
        <ele>74</ele>
        <time>2015-02-15T09:16:21Z</time>
      </trkpt>
      <trkpt lat="48.71687" lon="-3.2018">
        <ele>74</ele>
        <time>2015-02-15T09:16:22Z</time>
      </trkpt>
      <trkpt lat="48.71691" lon="-3.20186">
        <ele>74</ele>
        <time>2015-02-15T09:16:23Z</time>
      </trkpt>
      <trkpt lat="48.71694" lon="-3.20192">
        <ele>74</ele>
        <time>2015-02-15T09:16:24Z</time>
      </trkpt>
      <trkpt lat="48.71697" lon="-3.20198">
        <ele>74</ele>
        <time>2015-02-15T09:16:25Z</time>
      </trkpt>
      <trkpt lat="48.71701" lon="-3.20205">
        <ele>74</ele>
        <time>2015-02-15T09:16:26Z</time>
      </trkpt>
      <trkpt lat="48.71703" lon="-3.20211">
        <ele>74</ele>
        <time>2015-02-15T09:16:27Z</time>
      </trkpt>
      <trkpt lat="48.71707" lon="-3.20216">
        <ele>74</ele>
        <time>2015-02-15T09:16:28Z</time>
      </trkpt>
      <trkpt lat="48.7171" lon="-3.20222">
        <ele>75</ele>
        <time>2015-02-15T09:16:29Z</time>
      </trkpt>
      <trkpt lat="48.71713" lon="-3.20228">
        <ele>75</ele>
        <time>2015-02-15T09:16:30Z</time>
      </trkpt>
      <trkpt lat="48.71715" lon="-3.20233">
        <ele>75</ele>
        <time>2015-02-15T09:16:31Z</time>
      </trkpt>
      <trkpt lat="48.71718" lon="-3.2024">
        <ele>75</ele>
        <time>2015-02-15T09:16:32Z</time>
      </trkpt>
      <trkpt lat="48.71721" lon="-3.20246">
        <ele>75</ele>
        <time>2015-02-15T09:16:33Z</time>
      </trkpt>
      <trkpt lat="48.71724" lon="-3.20251">
        <ele>75</ele>
        <time>2015-02-15T09:16:34Z</time>
      </trkpt>
      <trkpt lat="48.71727" lon="-3.20257">
        <ele>75</ele>
        <time>2015-02-15T09:16:35Z</time>
      </trkpt>
      <trkpt lat="48.71729" lon="-3.20263">
        <ele>75</ele>
        <time>2015-02-15T09:16:36Z</time>
      </trkpt>
      <trkpt lat="48.71732" lon="-3.20269">
        <ele>75</ele>
        <time>2015-02-15T09:16:37Z</time>
      </trkpt>
      <trkpt lat="48.71733" lon="-3.20276">
        <ele>75</ele>
        <time>2015-02-15T09:16:38Z</time>
      </trkpt>
      <trkpt lat="48.71735" lon="-3.20282">
        <ele>75</ele>
        <time>2015-02-15T09:16:39Z</time>
      </trkpt>
      <trkpt lat="48.71737" lon="-3.20289">
        <ele>75</ele>
        <time>2015-02-15T09:16:40Z</time>
      </trkpt>
      <trkpt lat="48.71739" lon="-3.20295">
        <ele>75</ele>
        <time>2015-02-15T09:16:41Z</time>
      </trkpt>
      <trkpt lat="48.71741" lon="-3.20302">
        <ele>75</ele>
        <time>2015-02-15T09:16:42Z</time>
      </trkpt>
      <trkpt lat="48.71743" lon="-3.20309">
        <ele>75</ele>
        <time>2015-02-15T09:16:43Z</time>
      </trkpt>
      <trkpt lat="48.71745" lon="-3.20317">
        <ele>75</ele>
        <time>2015-02-15T09:16:44Z</time>
      </trkpt>
      <trkpt lat="48.71747" lon="-3.20324">
        <ele>75</ele>
        <time>2015-02-15T09:16:45Z</time>
      </trkpt>
      <trkpt lat="48.71749" lon="-3.20331">
        <ele>75</ele>
        <time>2015-02-15T09:16:46Z</time>
      </trkpt>
      <trkpt lat="48.7175" lon="-3.20339">
        <ele>75</ele>
        <time>2015-02-15T09:16:47Z</time>
      </trkpt>
      <trkpt lat="48.71752" lon="-3.20347">
        <ele>75</ele>
        <time>2015-02-15T09:16:48Z</time>
      </trkpt>
      <trkpt lat="48.71754" lon="-3.20354">
        <ele>75</ele>
        <time>2015-02-15T09:16:49Z</time>
      </trkpt>
      <trkpt lat="48.71755" lon="-3.2036">
        <ele>75</ele>
        <time>2015-02-15T09:16:50Z</time>
      </trkpt>
      <trkpt lat="48.71757" lon="-3.20366">
        <ele>75</ele>
        <time>2015-02-15T09:16:51Z</time>
      </trkpt>
      <trkpt lat="48.71758" lon="-3.20372">
        <ele>75</ele>
        <time>2015-02-15T09:16:52Z</time>
      </trkpt>
      <trkpt lat="48.7176" lon="-3.20377">
        <ele>75</ele>
        <time>2015-02-15T09:16:53Z</time>
      </trkpt>
      <trkpt lat="48.71762" lon="-3.20384">
        <ele>75</ele>
        <time>2015-02-15T09:16:54Z</time>
      </trkpt>
      <trkpt lat="48.71763" lon="-3.2039">
        <ele>75</ele>
        <time>2015-02-15T09:16:55Z</time>
      </trkpt>
      <trkpt lat="48.71764" lon="-3.20395">
        <ele>75</ele>
        <time>2015-02-15T09:16:56Z</time>
      </trkpt>
      <trkpt lat="48.71766" lon="-3.20401">
        <ele>75</ele>
        <time>2015-02-15T09:16:57Z</time>
      </trkpt>
      <trkpt lat="48.71767" lon="-3.20407">
        <ele>75</ele>
        <time>2015-02-15T09:16:58Z</time>
      </trkpt>
      <trkpt lat="48.71768" lon="-3.20413">
        <ele>75</ele>
        <time>2015-02-15T09:16:59Z</time>
      </trkpt>
      <trkpt lat="48.71769" lon="-3.20418">
        <ele>75</ele>
        <time>2015-02-15T09:17:00Z</time>
      </trkpt>
      <trkpt lat="48.7177" lon="-3.20423">
        <ele>75</ele>
        <time>2015-02-15T09:17:01Z</time>
      </trkpt>
      <trkpt lat="48.71772" lon="-3.20428">
        <ele>75</ele>
        <time>2015-02-15T09:17:02Z</time>
      </trkpt>
      <trkpt lat="48.71773" lon="-3.20434">
        <ele>75</ele>
        <time>2015-02-15T09:17:03Z</time>
      </trkpt>
      <trkpt lat="48.71775" lon="-3.20439">
        <ele>75</ele>
        <time>2015-02-15T09:17:04Z</time>
      </trkpt>
      <trkpt lat="48.71776" lon="-3.20444">
        <ele>75</ele>
        <time>2015-02-15T09:17:05Z</time>
      </trkpt>
      <trkpt lat="48.71777" lon="-3.20449">
        <ele>75</ele>
        <time>2015-02-15T09:17:06Z</time>
      </trkpt>
      <trkpt lat="48.71778" lon="-3.20454">
        <ele>75</ele>
        <time>2015-02-15T09:17:07Z</time>
      </trkpt>
      <trkpt lat="48.7178" lon="-3.20458">
        <ele>75</ele>
        <time>2015-02-15T09:17:08Z</time>
      </trkpt>
      <trkpt lat="48.71783" lon="-3.20461">
        <ele>75</ele>
        <time>2015-02-15T09:17:09Z</time>
      </trkpt>
      <trkpt lat="48.71786" lon="-3.20463">
        <ele>75</ele>
        <time>2015-02-15T09:17:10Z</time>
      </trkpt>
      <trkpt lat="48.71789" lon="-3.20464">
        <ele>75</ele>
        <time>2015-02-15T09:17:11Z</time>
      </trkpt>
      <trkpt lat="48.71793" lon="-3.20464">
        <ele>75</ele>
        <time>2015-02-15T09:17:12Z</time>
      </trkpt>
      <trkpt lat="48.71796" lon="-3.20465">
        <ele>75</ele>
        <time>2015-02-15T09:17:13Z</time>
      </trkpt>
      <trkpt lat="48.71801" lon="-3.20467">
        <ele>75</ele>
        <time>2015-02-15T09:17:14Z</time>
      </trkpt>
      <trkpt lat="48.71805" lon="-3.20468">
        <ele>75</ele>
        <time>2015-02-15T09:17:15Z</time>
      </trkpt>
      <trkpt lat="48.71809" lon="-3.20469">
        <ele>75</ele>
        <time>2015-02-15T09:17:16Z</time>
      </trkpt>
      <trkpt lat="48.71812" lon="-3.20471">
        <ele>75</ele>
        <time>2015-02-15T09:17:17Z</time>
      </trkpt>
      <trkpt lat="48.71816" lon="-3.20472">
        <ele>75</ele>
        <time>2015-02-15T09:17:18Z</time>
      </trkpt>
      <trkpt lat="48.7182" lon="-3.20473">
        <ele>75</ele>
        <time>2015-02-15T09:17:19Z</time>
      </trkpt>
      <trkpt lat="48.71823" lon="-3.20474">
        <ele>75</ele>
        <time>2015-02-15T09:17:20Z</time>
      </trkpt>
      <trkpt lat="48.71827" lon="-3.20475">
        <ele>75</ele>
        <time>2015-02-15T09:17:21Z</time>
      </trkpt>
      <trkpt lat="48.7183" lon="-3.20476">
        <ele>75</ele>
        <time>2015-02-15T09:17:22Z</time>
      </trkpt>
      <trkpt lat="48.71835" lon="-3.20476">
        <ele>75</ele>
        <time>2015-02-15T09:17:23Z</time>
      </trkpt>
      <trkpt lat="48.71839" lon="-3.20477">
        <ele>75</ele>
        <time>2015-02-15T09:17:24Z</time>
      </trkpt>
      <trkpt lat="48.71844" lon="-3.20477">
        <ele>75</ele>
        <time>2015-02-15T09:17:25Z</time>
      </trkpt>
      <trkpt lat="48.71849" lon="-3.20478">
        <ele>75</ele>
        <time>2015-02-15T09:17:26Z</time>
      </trkpt>
      <trkpt lat="48.71854" lon="-3.20478">
        <ele>75</ele>
        <time>2015-02-15T09:17:27Z</time>
      </trkpt>
      <trkpt lat="48.71859" lon="-3.20479">
        <ele>75</ele>
        <time>2015-02-15T09:17:28Z</time>
      </trkpt>
      <trkpt lat="48.71864" lon="-3.2048">
        <ele>75</ele>
        <time>2015-02-15T09:17:29Z</time>
      </trkpt>
      <trkpt lat="48.71869" lon="-3.20481">
        <ele>75</ele>
        <time>2015-02-15T09:17:30Z</time>
      </trkpt>
      <trkpt lat="48.71875" lon="-3.20482">
        <ele>75</ele>
        <time>2015-02-15T09:17:31Z</time>
      </trkpt>
      <trkpt lat="48.7188" lon="-3.20483">
        <ele>75</ele>
        <time>2015-02-15T09:17:32Z</time>
      </trkpt>
      <trkpt lat="48.71885" lon="-3.20484">
        <ele>75</ele>
        <time>2015-02-15T09:17:33Z</time>
      </trkpt>
      <trkpt lat="48.71891" lon="-3.20485">
        <ele>75</ele>
        <time>2015-02-15T09:17:34Z</time>
      </trkpt>
      <trkpt lat="48.71896" lon="-3.20485">
        <ele>75</ele>
        <time>2015-02-15T09:17:35Z</time>
      </trkpt>
      <trkpt lat="48.71902" lon="-3.20486">
        <ele>75</ele>
        <time>2015-02-15T09:17:36Z</time>
      </trkpt>
      <trkpt lat="48.71907" lon="-3.20487">
        <ele>75</ele>
        <time>2015-02-15T09:17:37Z</time>
      </trkpt>
      <trkpt lat="48.71912" lon="-3.20489">
        <ele>75</ele>
        <time>2015-02-15T09:17:38Z</time>
      </trkpt>
      <trkpt lat="48.71918" lon="-3.2049">
        <ele>75</ele>
        <time>2015-02-15T09:17:39Z</time>
      </trkpt>
      <trkpt lat="48.71923" lon="-3.20491">
        <ele>75</ele>
        <time>2015-02-15T09:17:40Z</time>
      </trkpt>
      <trkpt lat="48.71928" lon="-3.20492">
        <ele>75</ele>
        <time>2015-02-15T09:17:41Z</time>
      </trkpt>
      <trkpt lat="48.71934" lon="-3.20493">
        <ele>75</ele>
        <time>2015-02-15T09:17:42Z</time>
      </trkpt>
      <trkpt lat="48.71939" lon="-3.20494">
        <ele>75</ele>
        <time>2015-02-15T09:17:43Z</time>
      </trkpt>
      <trkpt lat="48.71944" lon="-3.20495">
        <ele>75</ele>
        <time>2015-02-15T09:17:44Z</time>
      </trkpt>
      <trkpt lat="48.71949" lon="-3.20496">
        <ele>75</ele>
        <time>2015-02-15T09:17:45Z</time>
      </trkpt>
      <trkpt lat="48.71955" lon="-3.20497">
        <ele>75</ele>
        <time>2015-02-15T09:17:46Z</time>
      </trkpt>
      <trkpt lat="48.7196" lon="-3.20498">
        <ele>75</ele>
        <time>2015-02-15T09:17:47Z</time>
      </trkpt>
      <trkpt lat="48.71965" lon="-3.20499">
        <ele>75</ele>
        <time>2015-02-15T09:17:48Z</time>
      </trkpt>
      <trkpt lat="48.71971" lon="-3.205">
        <ele>75</ele>
        <time>2015-02-15T09:17:49Z</time>
      </trkpt>
      <trkpt lat="48.71977" lon="-3.205">
        <ele>75</ele>
        <time>2015-02-15T09:17:50Z</time>
      </trkpt>
      <trkpt lat="48.71982" lon="-3.20501">
        <ele>75</ele>
        <time>2015-02-15T09:17:51Z</time>
      </trkpt>
      <trkpt lat="48.71988" lon="-3.20501">
        <ele>75</ele>
        <time>2015-02-15T09:17:52Z</time>
      </trkpt>
      <trkpt lat="48.71994" lon="-3.20501">
        <ele>75</ele>
        <time>2015-02-15T09:17:53Z</time>
      </trkpt>
      <trkpt lat="48.72" lon="-3.20502">
        <ele>75</ele>
        <time>2015-02-15T09:17:54Z</time>
      </trkpt>
      <trkpt lat="48.72012" lon="-3.20502">
        <ele>75</ele>
        <time>2015-02-15T09:17:56Z</time>
      </trkpt>
      <trkpt lat="48.72018" lon="-3.20502">
        <ele>75</ele>
        <time>2015-02-15T09:17:57Z</time>
      </trkpt>
      <trkpt lat="48.72024" lon="-3.20502">
        <ele>75</ele>
        <time>2015-02-15T09:17:58Z</time>
      </trkpt>
      <trkpt lat="48.72031" lon="-3.20502">
        <ele>75</ele>
        <time>2015-02-15T09:17:59Z</time>
      </trkpt>
      <trkpt lat="48.72044" lon="-3.20501">
        <ele>75</ele>
        <time>2015-02-15T09:18:01Z</time>
      </trkpt>
      <trkpt lat="48.72051" lon="-3.20502">
        <ele>75</ele>
        <time>2015-02-15T09:18:02Z</time>
      </trkpt>
      <trkpt lat="48.72058" lon="-3.20502">
        <ele>75</ele>
        <time>2015-02-15T09:18:03Z</time>
      </trkpt>
      <trkpt lat="48.72065" lon="-3.20504">
        <ele>75</ele>
        <time>2015-02-15T09:18:04Z</time>
      </trkpt>
      <trkpt lat="48.72072" lon="-3.20505">
        <ele>75</ele>
        <time>2015-02-15T09:18:05Z</time>
      </trkpt>
      <trkpt lat="48.72079" lon="-3.20507">
        <ele>75</ele>
        <time>2015-02-15T09:18:06Z</time>
      </trkpt>
      <trkpt lat="48.72086" lon="-3.20509">
        <ele>75</ele>
        <time>2015-02-15T09:18:07Z</time>
      </trkpt>
      <trkpt lat="48.72094" lon="-3.20512">
        <ele>75</ele>
        <time>2015-02-15T09:18:08Z</time>
      </trkpt>
      <trkpt lat="48.72101" lon="-3.20514">
        <ele>75</ele>
        <time>2015-02-15T09:18:09Z</time>
      </trkpt>
      <trkpt lat="48.72108" lon="-3.20517">
        <ele>75</ele>
        <time>2015-02-15T09:18:10Z</time>
      </trkpt>
      <trkpt lat="48.72115" lon="-3.2052">
        <ele>75</ele>
        <time>2015-02-15T09:18:11Z</time>
      </trkpt>
      <trkpt lat="48.72122" lon="-3.20522">
        <ele>75</ele>
        <time>2015-02-15T09:18:12Z</time>
      </trkpt>
      <trkpt lat="48.72129" lon="-3.20525">
        <ele>75</ele>
        <time>2015-02-15T09:18:13Z</time>
      </trkpt>
      <trkpt lat="48.72137" lon="-3.20529">
        <ele>75</ele>
        <time>2015-02-15T09:18:14Z</time>
      </trkpt>
      <trkpt lat="48.72144" lon="-3.20532">
        <ele>75</ele>
        <time>2015-02-15T09:18:15Z</time>
      </trkpt>
      <trkpt lat="48.72151" lon="-3.20535">
        <ele>75</ele>
        <time>2015-02-15T09:18:16Z</time>
      </trkpt>
      <trkpt lat="48.72158" lon="-3.20538">
        <ele>75</ele>
        <time>2015-02-15T09:18:17Z</time>
      </trkpt>
      <trkpt lat="48.72166" lon="-3.20542">
        <ele>75</ele>
        <time>2015-02-15T09:18:18Z</time>
      </trkpt>
      <trkpt lat="48.72173" lon="-3.20546">
        <ele>75</ele>
        <time>2015-02-15T09:18:19Z</time>
      </trkpt>
      <trkpt lat="48.7218" lon="-3.2055">
        <ele>75</ele>
        <time>2015-02-15T09:18:20Z</time>
      </trkpt>
      <trkpt lat="48.72187" lon="-3.20554">
        <ele>75</ele>
        <time>2015-02-15T09:18:21Z</time>
      </trkpt>
      <trkpt lat="48.72195" lon="-3.20557">
        <ele>75</ele>
        <time>2015-02-15T09:18:22Z</time>
      </trkpt>
      <trkpt lat="48.72203" lon="-3.2056">
        <ele>75</ele>
        <time>2015-02-15T09:18:23Z</time>
      </trkpt>
      <trkpt lat="48.7221" lon="-3.20562">
        <ele>75</ele>
        <time>2015-02-15T09:18:24Z</time>
      </trkpt>
      <trkpt lat="48.72218" lon="-3.20563">
        <ele>75</ele>
        <time>2015-02-15T09:18:25Z</time>
      </trkpt>
      <trkpt lat="48.72226" lon="-3.20566">
        <ele>75</ele>
        <time>2015-02-15T09:18:26Z</time>
      </trkpt>
      <trkpt lat="48.72233" lon="-3.20569">
        <ele>75</ele>
        <time>2015-02-15T09:18:27Z</time>
      </trkpt>
      <trkpt lat="48.72241" lon="-3.20573">
        <ele>75</ele>
        <time>2015-02-15T09:18:28Z</time>
      </trkpt>
      <trkpt lat="48.72248" lon="-3.20579">
        <ele>75</ele>
        <time>2015-02-15T09:18:29Z</time>
      </trkpt>
      <trkpt lat="48.72255" lon="-3.20585">
        <ele>75</ele>
        <time>2015-02-15T09:18:30Z</time>
      </trkpt>
      <trkpt lat="48.72261" lon="-3.20592">
        <ele>75</ele>
        <time>2015-02-15T09:18:31Z</time>
      </trkpt>
      <trkpt lat="48.72267" lon="-3.20598">
        <ele>75</ele>
        <time>2015-02-15T09:18:32Z</time>
      </trkpt>
      <trkpt lat="48.72274" lon="-3.20605">
        <ele>75</ele>
        <time>2015-02-15T09:18:33Z</time>
      </trkpt>
      <trkpt lat="48.7228" lon="-3.20612">
        <ele>75</ele>
        <time>2015-02-15T09:18:34Z</time>
      </trkpt>
      <trkpt lat="48.72287" lon="-3.20618">
        <ele>75</ele>
        <time>2015-02-15T09:18:35Z</time>
      </trkpt>
      <trkpt lat="48.72293" lon="-3.20624">
        <ele>75</ele>
        <time>2015-02-15T09:18:36Z</time>
      </trkpt>
      <trkpt lat="48.723" lon="-3.2063">
        <ele>75</ele>
        <time>2015-02-15T09:18:37Z</time>
      </trkpt>
      <trkpt lat="48.72307" lon="-3.20636">
        <ele>75</ele>
        <time>2015-02-15T09:18:38Z</time>
      </trkpt>
      <trkpt lat="48.72314" lon="-3.20641">
        <ele>75</ele>
        <time>2015-02-15T09:18:39Z</time>
      </trkpt>
      <trkpt lat="48.72321" lon="-3.20647">
        <ele>75</ele>
        <time>2015-02-15T09:18:40Z</time>
      </trkpt>
      <trkpt lat="48.72328" lon="-3.20652">
        <ele>75</ele>
        <time>2015-02-15T09:18:41Z</time>
      </trkpt>
      <trkpt lat="48.72335" lon="-3.20658">
        <ele>75</ele>
        <time>2015-02-15T09:18:42Z</time>
      </trkpt>
      <trkpt lat="48.72342" lon="-3.20663">
        <ele>75</ele>
        <time>2015-02-15T09:18:43Z</time>
      </trkpt>
      <trkpt lat="48.7235" lon="-3.20667">
        <ele>75</ele>
        <time>2015-02-15T09:18:44Z</time>
      </trkpt>
      <trkpt lat="48.72358" lon="-3.2067">
        <ele>75</ele>
        <time>2015-02-15T09:18:45Z</time>
      </trkpt>
      <trkpt lat="48.72365" lon="-3.2067">
        <ele>75</ele>
        <time>2015-02-15T09:18:46Z</time>
      </trkpt>
      <trkpt lat="48.72373" lon="-3.20668">
        <ele>75</ele>
        <time>2015-02-15T09:18:47Z</time>
      </trkpt>
      <trkpt lat="48.7238" lon="-3.20663">
        <ele>75</ele>
        <time>2015-02-15T09:18:48Z</time>
      </trkpt>
      <trkpt lat="48.72387" lon="-3.20658">
        <ele>75</ele>
        <time>2015-02-15T09:18:49Z</time>
      </trkpt>
      <trkpt lat="48.72394" lon="-3.20652">
        <ele>75</ele>
        <time>2015-02-15T09:18:50Z</time>
      </trkpt>
      <trkpt lat="48.72401" lon="-3.20647">
        <ele>75</ele>
        <time>2015-02-15T09:18:51Z</time>
      </trkpt>
      <trkpt lat="48.72408" lon="-3.20641">
        <ele>75</ele>
        <time>2015-02-15T09:18:52Z</time>
      </trkpt>
      <trkpt lat="48.72415" lon="-3.20636">
        <ele>75</ele>
        <time>2015-02-15T09:18:53Z</time>
      </trkpt>
      <trkpt lat="48.72422" lon="-3.20631">
        <ele>75</ele>
        <time>2015-02-15T09:18:54Z</time>
      </trkpt>
      <trkpt lat="48.72429" lon="-3.20626">
        <ele>75</ele>
        <time>2015-02-15T09:18:55Z</time>
      </trkpt>
      <trkpt lat="48.72437" lon="-3.20621">
        <ele>75</ele>
        <time>2015-02-15T09:18:56Z</time>
      </trkpt>
      <trkpt lat="48.72444" lon="-3.20617">
        <ele>75</ele>
        <time>2015-02-15T09:18:57Z</time>
      </trkpt>
      <trkpt lat="48.72451" lon="-3.20613">
        <ele>75</ele>
        <time>2015-02-15T09:18:58Z</time>
      </trkpt>
      <trkpt lat="48.72459" lon="-3.2061">
        <ele>75</ele>
        <time>2015-02-15T09:18:59Z</time>
      </trkpt>
      <trkpt lat="48.72467" lon="-3.20607">
        <ele>75</ele>
        <time>2015-02-15T09:19:00Z</time>
      </trkpt>
      <trkpt lat="48.72474" lon="-3.20604">
        <ele>75</ele>
        <time>2015-02-15T09:19:01Z</time>
      </trkpt>
      <trkpt lat="48.72482" lon="-3.20601">
        <ele>75</ele>
        <time>2015-02-15T09:19:02Z</time>
      </trkpt>
      <trkpt lat="48.7249" lon="-3.20597">
        <ele>75</ele>
        <time>2015-02-15T09:19:03Z</time>
      </trkpt>
      <trkpt lat="48.72498" lon="-3.20594">
        <ele>75</ele>
        <time>2015-02-15T09:19:04Z</time>
      </trkpt>
      <trkpt lat="48.72505" lon="-3.2059">
        <ele>75</ele>
        <time>2015-02-15T09:19:05Z</time>
      </trkpt>
      <trkpt lat="48.72513" lon="-3.20586">
        <ele>75</ele>
        <time>2015-02-15T09:19:06Z</time>
      </trkpt>
      <trkpt lat="48.72521" lon="-3.20582">
        <ele>75</ele>
        <time>2015-02-15T09:19:07Z</time>
      </trkpt>
      <trkpt lat="48.72528" lon="-3.20578">
        <ele>75</ele>
        <time>2015-02-15T09:19:08Z</time>
      </trkpt>
      <trkpt lat="48.72536" lon="-3.20573">
        <ele>75</ele>
        <time>2015-02-15T09:19:09Z</time>
      </trkpt>
      <trkpt lat="48.72543" lon="-3.20569">
        <ele>75</ele>
        <time>2015-02-15T09:19:10Z</time>
      </trkpt>
      <trkpt lat="48.72551" lon="-3.20566">
        <ele>75</ele>
        <time>2015-02-15T09:19:11Z</time>
      </trkpt>
      <trkpt lat="48.72558" lon="-3.20562">
        <ele>75</ele>
        <time>2015-02-15T09:19:12Z</time>
      </trkpt>
      <trkpt lat="48.72566" lon="-3.20559">
        <ele>75</ele>
        <time>2015-02-15T09:19:13Z</time>
      </trkpt>
      <trkpt lat="48.72573" lon="-3.20557">
        <ele>75</ele>
        <time>2015-02-15T09:19:14Z</time>
      </trkpt>
      <trkpt lat="48.72581" lon="-3.20554">
        <ele>75</ele>
        <time>2015-02-15T09:19:15Z</time>
      </trkpt>
      <trkpt lat="48.72589" lon="-3.20552">
        <ele>75</ele>
        <time>2015-02-15T09:19:16Z</time>
      </trkpt>
      <trkpt lat="48.72597" lon="-3.20551">
        <ele>75</ele>
        <time>2015-02-15T09:19:17Z</time>
      </trkpt>
      <trkpt lat="48.72605" lon="-3.2055">
        <ele>75</ele>
        <time>2015-02-15T09:19:18Z</time>
      </trkpt>
      <trkpt lat="48.72613" lon="-3.20549">
        <ele>75</ele>
        <time>2015-02-15T09:19:19Z</time>
      </trkpt>
      <trkpt lat="48.72621" lon="-3.20548">
        <ele>75</ele>
        <time>2015-02-15T09:19:20Z</time>
      </trkpt>
      <trkpt lat="48.72629" lon="-3.20546">
        <ele>75</ele>
        <time>2015-02-15T09:19:21Z</time>
      </trkpt>
      <trkpt lat="48.72636" lon="-3.20545">
        <ele>75</ele>
        <time>2015-02-15T09:19:22Z</time>
      </trkpt>
      <trkpt lat="48.72644" lon="-3.20544">
        <ele>75</ele>
        <time>2015-02-15T09:19:23Z</time>
      </trkpt>
      <trkpt lat="48.72653" lon="-3.20542">
        <ele>75</ele>
        <time>2015-02-15T09:19:24Z</time>
      </trkpt>
      <trkpt lat="48.72661" lon="-3.20541">
        <ele>75</ele>
        <time>2015-02-15T09:19:25Z</time>
      </trkpt>
      <trkpt lat="48.72669" lon="-3.20541">
        <ele>74</ele>
        <time>2015-02-15T09:19:26Z</time>
      </trkpt>
      <trkpt lat="48.72676" lon="-3.2054">
        <ele>74</ele>
        <time>2015-02-15T09:19:27Z</time>
      </trkpt>
      <trkpt lat="48.72684" lon="-3.20541">
        <ele>74</ele>
        <time>2015-02-15T09:19:28Z</time>
      </trkpt>
      <trkpt lat="48.72693" lon="-3.20541">
        <ele>74</ele>
        <time>2015-02-15T09:19:29Z</time>
      </trkpt>
      <trkpt lat="48.72701" lon="-3.20542">
        <ele>74</ele>
        <time>2015-02-15T09:19:30Z</time>
      </trkpt>
      <trkpt lat="48.72709" lon="-3.20544">
        <ele>73</ele>
        <time>2015-02-15T09:19:31Z</time>
      </trkpt>
      <trkpt lat="48.72717" lon="-3.20546">
        <ele>73</ele>
        <time>2015-02-15T09:19:32Z</time>
      </trkpt>
      <trkpt lat="48.72724" lon="-3.20548">
        <ele>73</ele>
        <time>2015-02-15T09:19:33Z</time>
      </trkpt>
      <trkpt lat="48.72732" lon="-3.2055">
        <ele>73</ele>
        <time>2015-02-15T09:19:34Z</time>
      </trkpt>
      <trkpt lat="48.72739" lon="-3.20551">
        <ele>73</ele>
        <time>2015-02-15T09:19:35Z</time>
      </trkpt>
      <trkpt lat="48.72747" lon="-3.20553">
        <ele>72</ele>
        <time>2015-02-15T09:19:36Z</time>
      </trkpt>
      <trkpt lat="48.72755" lon="-3.20554">
        <ele>72</ele>
        <time>2015-02-15T09:19:37Z</time>
      </trkpt>
      <trkpt lat="48.72763" lon="-3.20555">
        <ele>72</ele>
        <time>2015-02-15T09:19:38Z</time>
      </trkpt>
      <trkpt lat="48.72771" lon="-3.20555">
        <ele>72</ele>
        <time>2015-02-15T09:19:39Z</time>
      </trkpt>
      <trkpt lat="48.72779" lon="-3.20555">
        <ele>72</ele>
        <time>2015-02-15T09:19:40Z</time>
      </trkpt>
      <trkpt lat="48.72787" lon="-3.20553">
        <ele>71</ele>
        <time>2015-02-15T09:19:41Z</time>
      </trkpt>
      <trkpt lat="48.72795" lon="-3.20552">
        <ele>71</ele>
        <time>2015-02-15T09:19:42Z</time>
      </trkpt>
      <trkpt lat="48.72804" lon="-3.2055">
        <ele>71</ele>
        <time>2015-02-15T09:19:43Z</time>
      </trkpt>
      <trkpt lat="48.72812" lon="-3.20548">
        <ele>71</ele>
        <time>2015-02-15T09:19:44Z</time>
      </trkpt>
      <trkpt lat="48.7282" lon="-3.20545">
        <ele>71</ele>
        <time>2015-02-15T09:19:45Z</time>
      </trkpt>
      <trkpt lat="48.72828" lon="-3.20543">
        <ele>71</ele>
        <time>2015-02-15T09:19:46Z</time>
      </trkpt>
      <trkpt lat="48.72836" lon="-3.2054">
        <ele>71</ele>
        <time>2015-02-15T09:19:47Z</time>
      </trkpt>
      <trkpt lat="48.72845" lon="-3.20537">
        <ele>71</ele>
        <time>2015-02-15T09:19:48Z</time>
      </trkpt>
      <trkpt lat="48.72853" lon="-3.20534">
        <ele>70</ele>
        <time>2015-02-15T09:19:49Z</time>
      </trkpt>
      <trkpt lat="48.72861" lon="-3.20531">
        <ele>70</ele>
        <time>2015-02-15T09:19:50Z</time>
      </trkpt>
      <trkpt lat="48.72869" lon="-3.20527">
        <ele>70</ele>
        <time>2015-02-15T09:19:51Z</time>
      </trkpt>
      <trkpt lat="48.72878" lon="-3.20523">
        <ele>70</ele>
        <time>2015-02-15T09:19:52Z</time>
      </trkpt>
      <trkpt lat="48.72886" lon="-3.20519">
        <ele>70</ele>
        <time>2015-02-15T09:19:53Z</time>
      </trkpt>
      <trkpt lat="48.72894" lon="-3.20514">
        <ele>69</ele>
        <time>2015-02-15T09:19:54Z</time>
      </trkpt>
      <trkpt lat="48.72902" lon="-3.20508">
        <ele>69</ele>
        <time>2015-02-15T09:19:55Z</time>
      </trkpt>
      <trkpt lat="48.7291" lon="-3.20503">
        <ele>69</ele>
        <time>2015-02-15T09:19:56Z</time>
      </trkpt>
      <trkpt lat="48.72918" lon="-3.20497">
        <ele>69</ele>
        <time>2015-02-15T09:19:57Z</time>
      </trkpt>
      <trkpt lat="48.72927" lon="-3.20492">
        <ele>68</ele>
        <time>2015-02-15T09:19:58Z</time>
      </trkpt>
      <trkpt lat="48.72936" lon="-3.20488">
        <ele>68</ele>
        <time>2015-02-15T09:19:59Z</time>
      </trkpt>
      <trkpt lat="48.72945" lon="-3.20485">
        <ele>67</ele>
        <time>2015-02-15T09:20:00Z</time>
      </trkpt>
      <trkpt lat="48.72954" lon="-3.20483">
        <ele>67</ele>
        <time>2015-02-15T09:20:01Z</time>
      </trkpt>
      <trkpt lat="48.72964" lon="-3.20482">
        <ele>66</ele>
        <time>2015-02-15T09:20:02Z</time>
      </trkpt>
      <trkpt lat="48.72973" lon="-3.20481">
        <ele>66</ele>
        <time>2015-02-15T09:20:03Z</time>
      </trkpt>
      <trkpt lat="48.72982" lon="-3.20479">
        <ele>65</ele>
        <time>2015-02-15T09:20:04Z</time>
      </trkpt>
      <trkpt lat="48.72991" lon="-3.20477">
        <ele>65</ele>
        <time>2015-02-15T09:20:05Z</time>
      </trkpt>
      <trkpt lat="48.73" lon="-3.20475">
        <ele>65</ele>
        <time>2015-02-15T09:20:06Z</time>
      </trkpt>
      <trkpt lat="48.73008" lon="-3.20473">
        <ele>64</ele>
        <time>2015-02-15T09:20:07Z</time>
      </trkpt>
      <trkpt lat="48.73017" lon="-3.20472">
        <ele>64</ele>
        <time>2015-02-15T09:20:08Z</time>
      </trkpt>
      <trkpt lat="48.73027" lon="-3.20472">
        <ele>63</ele>
        <time>2015-02-15T09:20:09Z</time>
      </trkpt>
      <trkpt lat="48.73037" lon="-3.20474">
        <ele>63</ele>
        <time>2015-02-15T09:20:10Z</time>
      </trkpt>
      <trkpt lat="48.73048" lon="-3.20476">
        <ele>62</ele>
        <time>2015-02-15T09:20:11Z</time>
      </trkpt>
      <trkpt lat="48.73058" lon="-3.20478">
        <ele>61</ele>
        <time>2015-02-15T09:20:12Z</time>
      </trkpt>
      <trkpt lat="48.73068" lon="-3.2048">
        <ele>60</ele>
        <time>2015-02-15T09:20:13Z</time>
      </trkpt>
      <trkpt lat="48.7308" lon="-3.20482">
        <ele>60</ele>
        <time>2015-02-15T09:20:14Z</time>
      </trkpt>
      <trkpt lat="48.73091" lon="-3.20488">
        <ele>59</ele>
        <time>2015-02-15T09:20:15Z</time>
      </trkpt>
      <trkpt lat="48.73103" lon="-3.20489">
        <ele>58</ele>
        <time>2015-02-15T09:20:16Z</time>
      </trkpt>
      <trkpt lat="48.73114" lon="-3.20488">
        <ele>57</ele>
        <time>2015-02-15T09:20:17Z</time>
      </trkpt>
      <trkpt lat="48.73126" lon="-3.20485">
        <ele>57</ele>
        <time>2015-02-15T09:20:18Z</time>
      </trkpt>
      <trkpt lat="48.73137" lon="-3.20478">
        <ele>56</ele>
        <time>2015-02-15T09:20:19Z</time>
      </trkpt>
      <trkpt lat="48.73147" lon="-3.20468">
        <ele>55</ele>
        <time>2015-02-15T09:20:20Z</time>
      </trkpt>
      <trkpt lat="48.73156" lon="-3.20457">
        <ele>54</ele>
        <time>2015-02-15T09:20:21Z</time>
      </trkpt>
      <trkpt lat="48.73164" lon="-3.20444">
        <ele>53</ele>
        <time>2015-02-15T09:20:22Z</time>
      </trkpt>
      <trkpt lat="48.7317" lon="-3.20429">
        <ele>53</ele>
        <time>2015-02-15T09:20:23Z</time>
      </trkpt>
      <trkpt lat="48.73176" lon="-3.20415">
        <ele>53</ele>
        <time>2015-02-15T09:20:24Z</time>
      </trkpt>
      <trkpt lat="48.73182" lon="-3.20401">
        <ele>52</ele>
        <time>2015-02-15T09:20:25Z</time>
      </trkpt>
      <trkpt lat="48.73187" lon="-3.20387">
        <ele>52</ele>
        <time>2015-02-15T09:20:26Z</time>
      </trkpt>
      <trkpt lat="48.73192" lon="-3.20373">
        <ele>52</ele>
        <time>2015-02-15T09:20:27Z</time>
      </trkpt>
      <trkpt lat="48.73196" lon="-3.2036">
        <ele>52</ele>
        <time>2015-02-15T09:20:28Z</time>
      </trkpt>
      <trkpt lat="48.732" lon="-3.20347">
        <ele>52</ele>
        <time>2015-02-15T09:20:29Z</time>
      </trkpt>
      <trkpt lat="48.73204" lon="-3.20333">
        <ele>52</ele>
        <time>2015-02-15T09:20:30Z</time>
      </trkpt>
      <trkpt lat="48.73206" lon="-3.20321">
        <ele>52</ele>
        <time>2015-02-15T09:20:31Z</time>
      </trkpt>
      <trkpt lat="48.73209" lon="-3.20308">
        <ele>52</ele>
        <time>2015-02-15T09:20:32Z</time>
      </trkpt>
      <trkpt lat="48.73211" lon="-3.20296">
        <ele>52</ele>
        <time>2015-02-15T09:20:33Z</time>
      </trkpt>
      <trkpt lat="48.73213" lon="-3.20284">
        <ele>52</ele>
        <time>2015-02-15T09:20:34Z</time>
      </trkpt>
      <trkpt lat="48.73214" lon="-3.20273">
        <ele>52</ele>
        <time>2015-02-15T09:20:35Z</time>
      </trkpt>
      <trkpt lat="48.73216" lon="-3.20262">
        <ele>52</ele>
        <time>2015-02-15T09:20:36Z</time>
      </trkpt>
      <trkpt lat="48.73219" lon="-3.20252">
        <ele>52</ele>
        <time>2015-02-15T09:20:37Z</time>
      </trkpt>
      <trkpt lat="48.73221" lon="-3.20242">
        <ele>52</ele>
        <time>2015-02-15T09:20:38Z</time>
      </trkpt>
      <trkpt lat="48.73225" lon="-3.20232">
        <ele>52</ele>
        <time>2015-02-15T09:20:39Z</time>
      </trkpt>
      <trkpt lat="48.73228" lon="-3.20222">
        <ele>52</ele>
        <time>2015-02-15T09:20:40Z</time>
      </trkpt>
      <trkpt lat="48.73233" lon="-3.20214">
        <ele>52</ele>
        <time>2015-02-15T09:20:41Z</time>
      </trkpt>
      <trkpt lat="48.73238" lon="-3.20206">
        <ele>52</ele>
        <time>2015-02-15T09:20:42Z</time>
      </trkpt>
      <trkpt lat="48.73244" lon="-3.202">
        <ele>52</ele>
        <time>2015-02-15T09:20:43Z</time>
      </trkpt>
      <trkpt lat="48.73251" lon="-3.20196">
        <ele>52</ele>
        <time>2015-02-15T09:20:44Z</time>
      </trkpt>
      <trkpt lat="48.73258" lon="-3.20194">
        <ele>52</ele>
        <time>2015-02-15T09:20:45Z</time>
      </trkpt>
      <trkpt lat="48.73265" lon="-3.20193">
        <ele>52</ele>
        <time>2015-02-15T09:20:46Z</time>
      </trkpt>
      <trkpt lat="48.73272" lon="-3.20194">
        <ele>52</ele>
        <time>2015-02-15T09:20:47Z</time>
      </trkpt>
      <trkpt lat="48.73279" lon="-3.20196">
        <ele>52</ele>
        <time>2015-02-15T09:20:48Z</time>
      </trkpt>
      <trkpt lat="48.73286" lon="-3.20198">
        <ele>52</ele>
        <time>2015-02-15T09:20:49Z</time>
      </trkpt>
      <trkpt lat="48.73293" lon="-3.20201">
        <ele>52</ele>
        <time>2015-02-15T09:20:50Z</time>
      </trkpt>
      <trkpt lat="48.733" lon="-3.20203">
        <ele>52</ele>
        <time>2015-02-15T09:20:51Z</time>
      </trkpt>
      <trkpt lat="48.73307" lon="-3.20205">
        <ele>52</ele>
        <time>2015-02-15T09:20:52Z</time>
      </trkpt>
      <trkpt lat="48.73314" lon="-3.20208">
        <ele>52</ele>
        <time>2015-02-15T09:20:53Z</time>
      </trkpt>
      <trkpt lat="48.73321" lon="-3.2021">
        <ele>52</ele>
        <time>2015-02-15T09:20:54Z</time>
      </trkpt>
      <trkpt lat="48.73328" lon="-3.20212">
        <ele>52</ele>
        <time>2015-02-15T09:20:55Z</time>
      </trkpt>
      <trkpt lat="48.73334" lon="-3.20214">
        <ele>52</ele>
        <time>2015-02-15T09:20:56Z</time>
      </trkpt>
      <trkpt lat="48.73341" lon="-3.20216">
        <ele>52</ele>
        <time>2015-02-15T09:20:57Z</time>
      </trkpt>
      <trkpt lat="48.73348" lon="-3.20217">
        <ele>52</ele>
        <time>2015-02-15T09:20:58Z</time>
      </trkpt>
      <trkpt lat="48.73355" lon="-3.20219">
        <ele>52</ele>
        <time>2015-02-15T09:20:59Z</time>
      </trkpt>
      <trkpt lat="48.73362" lon="-3.20219">
        <ele>52</ele>
        <time>2015-02-15T09:21:00Z</time>
      </trkpt>
      <trkpt lat="48.73369" lon="-3.2022">
        <ele>52</ele>
        <time>2015-02-15T09:21:01Z</time>
      </trkpt>
      <trkpt lat="48.73377" lon="-3.20219">
        <ele>52</ele>
        <time>2015-02-15T09:21:02Z</time>
      </trkpt>
      <trkpt lat="48.73385" lon="-3.20219">
        <ele>52</ele>
        <time>2015-02-15T09:21:03Z</time>
      </trkpt>
      <trkpt lat="48.73393" lon="-3.20218">
        <ele>52</ele>
        <time>2015-02-15T09:21:04Z</time>
      </trkpt>
      <trkpt lat="48.73401" lon="-3.20217">
        <ele>52</ele>
        <time>2015-02-15T09:21:05Z</time>
      </trkpt>
      <trkpt lat="48.7341" lon="-3.20216">
        <ele>52</ele>
        <time>2015-02-15T09:21:06Z</time>
      </trkpt>
      <trkpt lat="48.73419" lon="-3.20215">
        <ele>52</ele>
        <time>2015-02-15T09:21:07Z</time>
      </trkpt>
      <trkpt lat="48.73428" lon="-3.20214">
        <ele>52</ele>
        <time>2015-02-15T09:21:08Z</time>
      </trkpt>
      <trkpt lat="48.73436" lon="-3.20213">
        <ele>52</ele>
        <time>2015-02-15T09:21:09Z</time>
      </trkpt>
      <trkpt lat="48.73445" lon="-3.20212">
        <ele>52</ele>
        <time>2015-02-15T09:21:10Z</time>
      </trkpt>
      <trkpt lat="48.73454" lon="-3.20212">
        <ele>52</ele>
        <time>2015-02-15T09:21:11Z</time>
      </trkpt>
      <trkpt lat="48.73462" lon="-3.20211">
        <ele>52</ele>
        <time>2015-02-15T09:21:12Z</time>
      </trkpt>
      <trkpt lat="48.73471" lon="-3.20211">
        <ele>52</ele>
        <time>2015-02-15T09:21:13Z</time>
      </trkpt>
      <trkpt lat="48.73479" lon="-3.2021">
        <ele>52</ele>
        <time>2015-02-15T09:21:14Z</time>
      </trkpt>
      <trkpt lat="48.73487" lon="-3.2021">
        <ele>52</ele>
        <time>2015-02-15T09:21:15Z</time>
      </trkpt>
      <trkpt lat="48.73494" lon="-3.2021">
        <ele>52</ele>
        <time>2015-02-15T09:21:16Z</time>
      </trkpt>
      <trkpt lat="48.73501" lon="-3.20209">
        <ele>52</ele>
        <time>2015-02-15T09:21:17Z</time>
      </trkpt>
      <trkpt lat="48.73508" lon="-3.2021">
        <ele>52</ele>
        <time>2015-02-15T09:21:18Z</time>
      </trkpt>
      <trkpt lat="48.73515" lon="-3.2021">
        <ele>52</ele>
        <time>2015-02-15T09:21:19Z</time>
      </trkpt>
      <trkpt lat="48.73535" lon="-3.2021">
        <ele>52</ele>
        <time>2015-02-15T09:21:22Z</time>
      </trkpt>
      <trkpt lat="48.73554" lon="-3.2021">
        <ele>52</ele>
        <time>2015-02-15T09:21:25Z</time>
      </trkpt>
      <trkpt lat="48.7356" lon="-3.20209">
        <ele>52</ele>
        <time>2015-02-15T09:21:26Z</time>
      </trkpt>
      <trkpt lat="48.73567" lon="-3.20208">
        <ele>52</ele>
        <time>2015-02-15T09:21:27Z</time>
      </trkpt>
      <trkpt lat="48.73573" lon="-3.20207">
        <ele>52</ele>
        <time>2015-02-15T09:21:28Z</time>
      </trkpt>
      <trkpt lat="48.73579" lon="-3.20205">
        <ele>52</ele>
        <time>2015-02-15T09:21:29Z</time>
      </trkpt>
      <trkpt lat="48.73584" lon="-3.20202">
        <ele>52</ele>
        <time>2015-02-15T09:21:30Z</time>
      </trkpt>
      <trkpt lat="48.7359" lon="-3.20199">
        <ele>52</ele>
        <time>2015-02-15T09:21:31Z</time>
      </trkpt>
      <trkpt lat="48.73595" lon="-3.20196">
        <ele>52</ele>
        <time>2015-02-15T09:21:32Z</time>
      </trkpt>
      <trkpt lat="48.73601" lon="-3.20193">
        <ele>52</ele>
        <time>2015-02-15T09:21:33Z</time>
      </trkpt>
      <trkpt lat="48.73606" lon="-3.20189">
        <ele>52</ele>
        <time>2015-02-15T09:21:34Z</time>
      </trkpt>
      <trkpt lat="48.73611" lon="-3.20185">
        <ele>52</ele>
        <time>2015-02-15T09:21:35Z</time>
      </trkpt>
      <trkpt lat="48.73616" lon="-3.20181">
        <ele>52</ele>
        <time>2015-02-15T09:21:36Z</time>
      </trkpt>
      <trkpt lat="48.73621" lon="-3.20178">
        <ele>52</ele>
        <time>2015-02-15T09:21:37Z</time>
      </trkpt>
      <trkpt lat="48.73626" lon="-3.20174">
        <ele>52</ele>
        <time>2015-02-15T09:21:38Z</time>
      </trkpt>
      <trkpt lat="48.73631" lon="-3.20171">
        <ele>52</ele>
        <time>2015-02-15T09:21:39Z</time>
      </trkpt>
      <trkpt lat="48.73635" lon="-3.20167">
        <ele>53</ele>
        <time>2015-02-15T09:21:40Z</time>
      </trkpt>
      <trkpt lat="48.73639" lon="-3.20164">
        <ele>53</ele>
        <time>2015-02-15T09:21:41Z</time>
      </trkpt>
      <trkpt lat="48.73644" lon="-3.2016">
        <ele>54</ele>
        <time>2015-02-15T09:21:42Z</time>
      </trkpt>
      <trkpt lat="48.73648" lon="-3.20157">
        <ele>54</ele>
        <time>2015-02-15T09:21:43Z</time>
      </trkpt>
      <trkpt lat="48.73652" lon="-3.20153">
        <ele>55</ele>
        <time>2015-02-15T09:21:44Z</time>
      </trkpt>
      <trkpt lat="48.73657" lon="-3.2015">
        <ele>55</ele>
        <time>2015-02-15T09:21:45Z</time>
      </trkpt>
      <trkpt lat="48.73661" lon="-3.20146">
        <ele>56</ele>
        <time>2015-02-15T09:21:46Z</time>
      </trkpt>
      <trkpt lat="48.73665" lon="-3.20143">
        <ele>56</ele>
        <time>2015-02-15T09:21:47Z</time>
      </trkpt>
      <trkpt lat="48.73669" lon="-3.20139">
        <ele>56</ele>
        <time>2015-02-15T09:21:48Z</time>
      </trkpt>
      <trkpt lat="48.73674" lon="-3.20136">
        <ele>57</ele>
        <time>2015-02-15T09:21:49Z</time>
      </trkpt>
      <trkpt lat="48.73678" lon="-3.20132">
        <ele>57</ele>
        <time>2015-02-15T09:21:50Z</time>
      </trkpt>
      <trkpt lat="48.73682" lon="-3.20128">
        <ele>58</ele>
        <time>2015-02-15T09:21:51Z</time>
      </trkpt>
      <trkpt lat="48.73687" lon="-3.20125">
        <ele>58</ele>
        <time>2015-02-15T09:21:52Z</time>
      </trkpt>
      <trkpt lat="48.73691" lon="-3.20122">
        <ele>59</ele>
        <time>2015-02-15T09:21:53Z</time>
      </trkpt>
      <trkpt lat="48.73695" lon="-3.20118">
        <ele>59</ele>
        <time>2015-02-15T09:21:54Z</time>
      </trkpt>
      <trkpt lat="48.737" lon="-3.20115">
        <ele>59</ele>
        <time>2015-02-15T09:21:55Z</time>
      </trkpt>
      <trkpt lat="48.73705" lon="-3.20111">
        <ele>59</ele>
        <time>2015-02-15T09:21:56Z</time>
      </trkpt>
      <trkpt lat="48.7371" lon="-3.20108">
        <ele>60</ele>
        <time>2015-02-15T09:21:57Z</time>
      </trkpt>
      <trkpt lat="48.73715" lon="-3.20104">
        <ele>60</ele>
        <time>2015-02-15T09:21:58Z</time>
      </trkpt>
      <trkpt lat="48.7372" lon="-3.201">
        <ele>60</ele>
        <time>2015-02-15T09:21:59Z</time>
      </trkpt>
      <trkpt lat="48.73724" lon="-3.20097">
        <ele>60</ele>
        <time>2015-02-15T09:22:00Z</time>
      </trkpt>
      <trkpt lat="48.73729" lon="-3.20093">
        <ele>60</ele>
        <time>2015-02-15T09:22:01Z</time>
      </trkpt>
      <trkpt lat="48.73734" lon="-3.2009">
        <ele>61</ele>
        <time>2015-02-15T09:22:02Z</time>
      </trkpt>
      <trkpt lat="48.73738" lon="-3.20087">
        <ele>61</ele>
        <time>2015-02-15T09:22:03Z</time>
      </trkpt>
      <trkpt lat="48.73743" lon="-3.20083">
        <ele>61</ele>
        <time>2015-02-15T09:22:04Z</time>
      </trkpt>
      <trkpt lat="48.73748" lon="-3.2008">
        <ele>61</ele>
        <time>2015-02-15T09:22:05Z</time>
      </trkpt>
      <trkpt lat="48.73753" lon="-3.20076">
        <ele>61</ele>
        <time>2015-02-15T09:22:06Z</time>
      </trkpt>
      <trkpt lat="48.73758" lon="-3.20072">
        <ele>61</ele>
        <time>2015-02-15T09:22:07Z</time>
      </trkpt>
      <trkpt lat="48.73764" lon="-3.20069">
        <ele>61</ele>
        <time>2015-02-15T09:22:08Z</time>
      </trkpt>
      <trkpt lat="48.73769" lon="-3.20065">
        <ele>61</ele>
        <time>2015-02-15T09:22:09Z</time>
      </trkpt>
      <trkpt lat="48.73774" lon="-3.20061">
        <ele>61</ele>
        <time>2015-02-15T09:22:10Z</time>
      </trkpt>
      <trkpt lat="48.73779" lon="-3.20058">
        <ele>61</ele>
        <time>2015-02-15T09:22:11Z</time>
      </trkpt>
      <trkpt lat="48.73785" lon="-3.20054">
        <ele>61</ele>
        <time>2015-02-15T09:22:12Z</time>
      </trkpt>
      <trkpt lat="48.7379" lon="-3.20051">
        <ele>61</ele>
        <time>2015-02-15T09:22:13Z</time>
      </trkpt>
      <trkpt lat="48.73796" lon="-3.20048">
        <ele>61</ele>
        <time>2015-02-15T09:22:14Z</time>
      </trkpt>
      <trkpt lat="48.73802" lon="-3.20046">
        <ele>61</ele>
        <time>2015-02-15T09:22:15Z</time>
      </trkpt>
      <trkpt lat="48.73809" lon="-3.20043">
        <ele>61</ele>
        <time>2015-02-15T09:22:16Z</time>
      </trkpt>
      <trkpt lat="48.73815" lon="-3.20042">
        <ele>61</ele>
        <time>2015-02-15T09:22:17Z</time>
      </trkpt>
      <trkpt lat="48.73822" lon="-3.20041">
        <ele>61</ele>
        <time>2015-02-15T09:22:18Z</time>
      </trkpt>
      <trkpt lat="48.73829" lon="-3.20041">
        <ele>61</ele>
        <time>2015-02-15T09:22:19Z</time>
      </trkpt>
      <trkpt lat="48.73836" lon="-3.20041">
        <ele>61</ele>
        <time>2015-02-15T09:22:20Z</time>
      </trkpt>
      <trkpt lat="48.73843" lon="-3.2004">
        <ele>61</ele>
        <time>2015-02-15T09:22:21Z</time>
      </trkpt>
      <trkpt lat="48.7385" lon="-3.20039">
        <ele>61</ele>
        <time>2015-02-15T09:22:22Z</time>
      </trkpt>
      <trkpt lat="48.73857" lon="-3.20038">
        <ele>61</ele>
        <time>2015-02-15T09:22:23Z</time>
      </trkpt>
      <trkpt lat="48.73864" lon="-3.20038">
        <ele>61</ele>
        <time>2015-02-15T09:22:24Z</time>
      </trkpt>
      <trkpt lat="48.73871" lon="-3.20037">
        <ele>61</ele>
        <time>2015-02-15T09:22:25Z</time>
      </trkpt>
      <trkpt lat="48.73878" lon="-3.20036">
        <ele>61</ele>
        <time>2015-02-15T09:22:26Z</time>
      </trkpt>
      <trkpt lat="48.73885" lon="-3.20035">
        <ele>61</ele>
        <time>2015-02-15T09:22:27Z</time>
      </trkpt>
      <trkpt lat="48.73893" lon="-3.20034">
        <ele>61</ele>
        <time>2015-02-15T09:22:28Z</time>
      </trkpt>
      <trkpt lat="48.739" lon="-3.20032">
        <ele>61</ele>
        <time>2015-02-15T09:22:29Z</time>
      </trkpt>
      <trkpt lat="48.73908" lon="-3.20031">
        <ele>61</ele>
        <time>2015-02-15T09:22:30Z</time>
      </trkpt>
      <trkpt lat="48.73916" lon="-3.20029">
        <ele>60</ele>
        <time>2015-02-15T09:22:31Z</time>
      </trkpt>
      <trkpt lat="48.73925" lon="-3.20027">
        <ele>60</ele>
        <time>2015-02-15T09:22:32Z</time>
      </trkpt>
      <trkpt lat="48.73933" lon="-3.20025">
        <ele>59</ele>
        <time>2015-02-15T09:22:33Z</time>
      </trkpt>
      <trkpt lat="48.73942" lon="-3.20024">
        <ele>58</ele>
        <time>2015-02-15T09:22:34Z</time>
      </trkpt>
      <trkpt lat="48.73951" lon="-3.20022">
        <ele>58</ele>
        <time>2015-02-15T09:22:35Z</time>
      </trkpt>
      <trkpt lat="48.73961" lon="-3.2002">
        <ele>57</ele>
        <time>2015-02-15T09:22:36Z</time>
      </trkpt>
      <trkpt lat="48.7397" lon="-3.20019">
        <ele>57</ele>
        <time>2015-02-15T09:22:37Z</time>
      </trkpt>
      <trkpt lat="48.7398" lon="-3.20017">
        <ele>56</ele>
        <time>2015-02-15T09:22:38Z</time>
      </trkpt>
      <trkpt lat="48.73989" lon="-3.20014">
        <ele>56</ele>
        <time>2015-02-15T09:22:39Z</time>
      </trkpt>
      <trkpt lat="48.73999" lon="-3.20011">
        <ele>55</ele>
        <time>2015-02-15T09:22:40Z</time>
      </trkpt>
      <trkpt lat="48.74009" lon="-3.20007">
        <ele>55</ele>
        <time>2015-02-15T09:22:41Z</time>
      </trkpt>
      <trkpt lat="48.7402" lon="-3.20003">
        <ele>54</ele>
        <time>2015-02-15T09:22:42Z</time>
      </trkpt>
      <trkpt lat="48.74031" lon="-3.19998">
        <ele>53</ele>
        <time>2015-02-15T09:22:43Z</time>
      </trkpt>
      <trkpt lat="48.74041" lon="-3.19992">
        <ele>53</ele>
        <time>2015-02-15T09:22:44Z</time>
      </trkpt>
      <trkpt lat="48.74052" lon="-3.19986">
        <ele>52</ele>
        <time>2015-02-15T09:22:45Z</time>
      </trkpt>
      <trkpt lat="48.74063" lon="-3.1998">
        <ele>51</ele>
        <time>2015-02-15T09:22:46Z</time>
      </trkpt>
      <trkpt lat="48.74075" lon="-3.19973">
        <ele>50</ele>
        <time>2015-02-15T09:22:47Z</time>
      </trkpt>
      <trkpt lat="48.74086" lon="-3.19967">
        <ele>50</ele>
        <time>2015-02-15T09:22:48Z</time>
      </trkpt>
      <trkpt lat="48.74097" lon="-3.19961">
        <ele>49</ele>
        <time>2015-02-15T09:22:49Z</time>
      </trkpt>
      <trkpt lat="48.74107" lon="-3.19955">
        <ele>48</ele>
        <time>2015-02-15T09:22:50Z</time>
      </trkpt>
      <trkpt lat="48.74118" lon="-3.19948">
        <ele>48</ele>
        <time>2015-02-15T09:22:51Z</time>
      </trkpt>
      <trkpt lat="48.74129" lon="-3.19941">
        <ele>47</ele>
        <time>2015-02-15T09:22:52Z</time>
      </trkpt>
      <trkpt lat="48.7414" lon="-3.19933">
        <ele>47</ele>
        <time>2015-02-15T09:22:53Z</time>
      </trkpt>
      <trkpt lat="48.7415" lon="-3.19925">
        <ele>46</ele>
        <time>2015-02-15T09:22:54Z</time>
      </trkpt>
      <trkpt lat="48.7416" lon="-3.19917">
        <ele>46</ele>
        <time>2015-02-15T09:22:55Z</time>
      </trkpt>
      <trkpt lat="48.7417" lon="-3.19909">
        <ele>46</ele>
        <time>2015-02-15T09:22:56Z</time>
      </trkpt>
      <trkpt lat="48.7418" lon="-3.19901">
        <ele>46</ele>
        <time>2015-02-15T09:22:57Z</time>
      </trkpt>
      <trkpt lat="48.74189" lon="-3.19892">
        <ele>45</ele>
        <time>2015-02-15T09:22:58Z</time>
      </trkpt>
      <trkpt lat="48.74199" lon="-3.19884">
        <ele>45</ele>
        <time>2015-02-15T09:22:59Z</time>
      </trkpt>
      <trkpt lat="48.74208" lon="-3.19876">
        <ele>45</ele>
        <time>2015-02-15T09:23:00Z</time>
      </trkpt>
      <trkpt lat="48.74218" lon="-3.19867">
        <ele>45</ele>
        <time>2015-02-15T09:23:01Z</time>
      </trkpt>
      <trkpt lat="48.74227" lon="-3.19859">
        <ele>44</ele>
        <time>2015-02-15T09:23:02Z</time>
      </trkpt>
      <trkpt lat="48.74237" lon="-3.1985">
        <ele>44</ele>
        <time>2015-02-15T09:23:03Z</time>
      </trkpt>
      <trkpt lat="48.74246" lon="-3.19841">
        <ele>43</ele>
        <time>2015-02-15T09:23:04Z</time>
      </trkpt>
      <trkpt lat="48.74256" lon="-3.19832">
        <ele>43</ele>
        <time>2015-02-15T09:23:05Z</time>
      </trkpt>
      <trkpt lat="48.74265" lon="-3.19823">
        <ele>42</ele>
        <time>2015-02-15T09:23:06Z</time>
      </trkpt>
      <trkpt lat="48.74274" lon="-3.19815">
        <ele>42</ele>
        <time>2015-02-15T09:23:07Z</time>
      </trkpt>
      <trkpt lat="48.74282" lon="-3.19807">
        <ele>42</ele>
        <time>2015-02-15T09:23:08Z</time>
      </trkpt>
      <trkpt lat="48.74289" lon="-3.19801">
        <ele>42</ele>
        <time>2015-02-15T09:23:09Z</time>
      </trkpt>
      <trkpt lat="48.74295" lon="-3.19797">
        <ele>42</ele>
        <time>2015-02-15T09:23:10Z</time>
      </trkpt>
      <trkpt lat="48.74301" lon="-3.19794">
        <ele>42</ele>
        <time>2015-02-15T09:23:11Z</time>
      </trkpt>
      <trkpt lat="48.74307" lon="-3.19792">
        <ele>42</ele>
        <time>2015-02-15T09:23:12Z</time>
      </trkpt>
      <trkpt lat="48.74312" lon="-3.19789">
        <ele>42</ele>
        <time>2015-02-15T09:23:13Z</time>
      </trkpt>
      <trkpt lat="48.74316" lon="-3.19787">
        <ele>42</ele>
        <time>2015-02-15T09:23:14Z</time>
      </trkpt>
      <trkpt lat="48.74321" lon="-3.19784">
        <ele>42</ele>
        <time>2015-02-15T09:23:15Z</time>
      </trkpt>
      <trkpt lat="48.74324" lon="-3.19782">
        <ele>42</ele>
        <time>2015-02-15T09:23:16Z</time>
      </trkpt>
      <trkpt lat="48.74328" lon="-3.19781">
        <ele>42</ele>
        <time>2015-02-15T09:23:17Z</time>
      </trkpt>
      <trkpt lat="48.74332" lon="-3.1978">
        <ele>42</ele>
        <time>2015-02-15T09:23:18Z</time>
      </trkpt>
      <trkpt lat="48.74336" lon="-3.19779">
        <ele>42</ele>
        <time>2015-02-15T09:23:19Z</time>
      </trkpt>
      <trkpt lat="48.7434" lon="-3.19778">
        <ele>42</ele>
        <time>2015-02-15T09:23:20Z</time>
      </trkpt>
      <trkpt lat="48.74344" lon="-3.19779">
        <ele>42</ele>
        <time>2015-02-15T09:23:21Z</time>
      </trkpt>
      <trkpt lat="48.74348" lon="-3.19779">
        <ele>42</ele>
        <time>2015-02-15T09:23:22Z</time>
      </trkpt>
      <trkpt lat="48.74353" lon="-3.1978">
        <ele>42</ele>
        <time>2015-02-15T09:23:23Z</time>
      </trkpt>
      <trkpt lat="48.74357" lon="-3.1978">
        <ele>42</ele>
        <time>2015-02-15T09:23:24Z</time>
      </trkpt>
      <trkpt lat="48.74361" lon="-3.19781">
        <ele>42</ele>
        <time>2015-02-15T09:23:25Z</time>
      </trkpt>
      <trkpt lat="48.74365" lon="-3.19781">
        <ele>42</ele>
        <time>2015-02-15T09:23:26Z</time>
      </trkpt>
      <trkpt lat="48.74369" lon="-3.19782">
        <ele>42</ele>
        <time>2015-02-15T09:23:27Z</time>
      </trkpt>
      <trkpt lat="48.74372" lon="-3.19783">
        <ele>42</ele>
        <time>2015-02-15T09:23:28Z</time>
      </trkpt>
      <trkpt lat="48.74376" lon="-3.19783">
        <ele>42</ele>
        <time>2015-02-15T09:23:29Z</time>
      </trkpt>
      <trkpt lat="48.7438" lon="-3.19784">
        <ele>42</ele>
        <time>2015-02-15T09:23:30Z</time>
      </trkpt>
      <trkpt lat="48.74384" lon="-3.19784">
        <ele>42</ele>
        <time>2015-02-15T09:23:31Z</time>
      </trkpt>
      <trkpt lat="48.74387" lon="-3.19784">
        <ele>42</ele>
        <time>2015-02-15T09:23:32Z</time>
      </trkpt>
      <trkpt lat="48.74391" lon="-3.19785">
        <ele>42</ele>
        <time>2015-02-15T09:23:33Z</time>
      </trkpt>
      <trkpt lat="48.74395" lon="-3.19786">
        <ele>42</ele>
        <time>2015-02-15T09:23:34Z</time>
      </trkpt>
      <trkpt lat="48.74399" lon="-3.19786">
        <ele>42</ele>
        <time>2015-02-15T09:23:35Z</time>
      </trkpt>
      <trkpt lat="48.74403" lon="-3.19787">
        <ele>43</ele>
        <time>2015-02-15T09:23:36Z</time>
      </trkpt>
      <trkpt lat="48.74407" lon="-3.19787">
        <ele>43</ele>
        <time>2015-02-15T09:23:37Z</time>
      </trkpt>
      <trkpt lat="48.74411" lon="-3.19788">
        <ele>43</ele>
        <time>2015-02-15T09:23:38Z</time>
      </trkpt>
      <trkpt lat="48.74414" lon="-3.19789">
        <ele>44</ele>
        <time>2015-02-15T09:23:39Z</time>
      </trkpt>
      <trkpt lat="48.74419" lon="-3.19789">
        <ele>44</ele>
        <time>2015-02-15T09:23:40Z</time>
      </trkpt>
      <trkpt lat="48.74422" lon="-3.1979">
        <ele>44</ele>
        <time>2015-02-15T09:23:41Z</time>
      </trkpt>
      <trkpt lat="48.74427" lon="-3.1979">
        <ele>44</ele>
        <time>2015-02-15T09:23:42Z</time>
      </trkpt>
      <trkpt lat="48.7443" lon="-3.19791">
        <ele>45</ele>
        <time>2015-02-15T09:23:43Z</time>
      </trkpt>
      <trkpt lat="48.74434" lon="-3.19792">
        <ele>45</ele>
        <time>2015-02-15T09:23:44Z</time>
      </trkpt>
      <trkpt lat="48.74438" lon="-3.19792">
        <ele>45</ele>
        <time>2015-02-15T09:23:45Z</time>
      </trkpt>
      <trkpt lat="48.74442" lon="-3.19793">
        <ele>46</ele>
        <time>2015-02-15T09:23:46Z</time>
      </trkpt>
      <trkpt lat="48.74446" lon="-3.19794">
        <ele>46</ele>
        <time>2015-02-15T09:23:47Z</time>
      </trkpt>
      <trkpt lat="48.7445" lon="-3.19796">
        <ele>46</ele>
        <time>2015-02-15T09:23:48Z</time>
      </trkpt>
      <trkpt lat="48.74454" lon="-3.19797">
        <ele>47</ele>
        <time>2015-02-15T09:23:49Z</time>
      </trkpt>
      <trkpt lat="48.74458" lon="-3.19798">
        <ele>47</ele>
        <time>2015-02-15T09:23:50Z</time>
      </trkpt>
      <trkpt lat="48.74463" lon="-3.19799">
        <ele>48</ele>
        <time>2015-02-15T09:23:51Z</time>
      </trkpt>
      <trkpt lat="48.74467" lon="-3.19801">
        <ele>48</ele>
        <time>2015-02-15T09:23:52Z</time>
      </trkpt>
      <trkpt lat="48.74472" lon="-3.19802">
        <ele>48</ele>
        <time>2015-02-15T09:23:53Z</time>
      </trkpt>
      <trkpt lat="48.74476" lon="-3.19804">
        <ele>49</ele>
        <time>2015-02-15T09:23:54Z</time>
      </trkpt>
      <trkpt lat="48.7448" lon="-3.19806">
        <ele>49</ele>
        <time>2015-02-15T09:23:55Z</time>
      </trkpt>
      <trkpt lat="48.74485" lon="-3.19807">
        <ele>49</ele>
        <time>2015-02-15T09:23:56Z</time>
      </trkpt>
      <trkpt lat="48.74489" lon="-3.19809">
        <ele>50</ele>
        <time>2015-02-15T09:23:57Z</time>
      </trkpt>
      <trkpt lat="48.74494" lon="-3.1981">
        <ele>50</ele>
        <time>2015-02-15T09:23:58Z</time>
      </trkpt>
      <trkpt lat="48.74498" lon="-3.19812">
        <ele>50</ele>
        <time>2015-02-15T09:23:59Z</time>
      </trkpt>
      <trkpt lat="48.74502" lon="-3.19813">
        <ele>51</ele>
        <time>2015-02-15T09:24:00Z</time>
      </trkpt>
      <trkpt lat="48.74506" lon="-3.19815">
        <ele>51</ele>
        <time>2015-02-15T09:24:01Z</time>
      </trkpt>
      <trkpt lat="48.74511" lon="-3.19818">
        <ele>51</ele>
        <time>2015-02-15T09:24:02Z</time>
      </trkpt>
      <trkpt lat="48.74515" lon="-3.1982">
        <ele>52</ele>
        <time>2015-02-15T09:24:03Z</time>
      </trkpt>
      <trkpt lat="48.74519" lon="-3.19822">
        <ele>52</ele>
        <time>2015-02-15T09:24:04Z</time>
      </trkpt>
      <trkpt lat="48.74523" lon="-3.19825">
        <ele>52</ele>
        <time>2015-02-15T09:24:05Z</time>
      </trkpt>
      <trkpt lat="48.74528" lon="-3.19827">
        <ele>53</ele>
        <time>2015-02-15T09:24:06Z</time>
      </trkpt>
      <trkpt lat="48.74532" lon="-3.1983">
        <ele>53</ele>
        <time>2015-02-15T09:24:07Z</time>
      </trkpt>
      <trkpt lat="48.74536" lon="-3.19833">
        <ele>53</ele>
        <time>2015-02-15T09:24:08Z</time>
      </trkpt>
      <trkpt lat="48.7454" lon="-3.19836">
        <ele>53</ele>
        <time>2015-02-15T09:24:09Z</time>
      </trkpt>
      <trkpt lat="48.74544" lon="-3.19839">
        <ele>54</ele>
        <time>2015-02-15T09:24:10Z</time>
      </trkpt>
      <trkpt lat="48.74548" lon="-3.19842">
        <ele>54</ele>
        <time>2015-02-15T09:24:11Z</time>
      </trkpt>
      <trkpt lat="48.74552" lon="-3.19845">
        <ele>54</ele>
        <time>2015-02-15T09:24:12Z</time>
      </trkpt>
      <trkpt lat="48.74555" lon="-3.19848">
        <ele>54</ele>
        <time>2015-02-15T09:24:13Z</time>
      </trkpt>
      <trkpt lat="48.74559" lon="-3.19851">
        <ele>54</ele>
        <time>2015-02-15T09:24:14Z</time>
      </trkpt>
      <trkpt lat="48.74563" lon="-3.19854">
        <ele>54</ele>
        <time>2015-02-15T09:24:15Z</time>
      </trkpt>
      <trkpt lat="48.74567" lon="-3.19857">
        <ele>54</ele>
        <time>2015-02-15T09:24:16Z</time>
      </trkpt>
      <trkpt lat="48.74571" lon="-3.19861">
        <ele>55</ele>
        <time>2015-02-15T09:24:17Z</time>
      </trkpt>
      <trkpt lat="48.74576" lon="-3.19864">
        <ele>55</ele>
        <time>2015-02-15T09:24:18Z</time>
      </trkpt>
      <trkpt lat="48.7458" lon="-3.19868">
        <ele>55</ele>
        <time>2015-02-15T09:24:19Z</time>
      </trkpt>
      <trkpt lat="48.74585" lon="-3.19872">
        <ele>55</ele>
        <time>2015-02-15T09:24:20Z</time>
      </trkpt>
      <trkpt lat="48.74591" lon="-3.19876">
        <ele>55</ele>
        <time>2015-02-15T09:24:21Z</time>
      </trkpt>
      <trkpt lat="48.74596" lon="-3.19881">
        <ele>55</ele>
        <time>2015-02-15T09:24:22Z</time>
      </trkpt>
      <trkpt lat="48.74602" lon="-3.19885">
        <ele>55</ele>
        <time>2015-02-15T09:24:23Z</time>
      </trkpt>
      <trkpt lat="48.74608" lon="-3.19889">
        <ele>55</ele>
        <time>2015-02-15T09:24:24Z</time>
      </trkpt>
      <trkpt lat="48.74614" lon="-3.19894">
        <ele>55</ele>
        <time>2015-02-15T09:24:25Z</time>
      </trkpt>
      <trkpt lat="48.7462" lon="-3.19898">
        <ele>55</ele>
        <time>2015-02-15T09:24:26Z</time>
      </trkpt>
      <trkpt lat="48.74627" lon="-3.19902">
        <ele>55</ele>
        <time>2015-02-15T09:24:27Z</time>
      </trkpt>
      <trkpt lat="48.74633" lon="-3.19906">
        <ele>55</ele>
        <time>2015-02-15T09:24:28Z</time>
      </trkpt>
      <trkpt lat="48.7464" lon="-3.1991">
        <ele>55</ele>
        <time>2015-02-15T09:24:29Z</time>
      </trkpt>
      <trkpt lat="48.74647" lon="-3.19913">
        <ele>55</ele>
        <time>2015-02-15T09:24:30Z</time>
      </trkpt>
      <trkpt lat="48.74654" lon="-3.19916">
        <ele>55</ele>
        <time>2015-02-15T09:24:31Z</time>
      </trkpt>
      <trkpt lat="48.74661" lon="-3.19919">
        <ele>55</ele>
        <time>2015-02-15T09:24:32Z</time>
      </trkpt>
      <trkpt lat="48.74669" lon="-3.19922">
        <ele>55</ele>
        <time>2015-02-15T09:24:33Z</time>
      </trkpt>
      <trkpt lat="48.74675" lon="-3.19925">
        <ele>55</ele>
        <time>2015-02-15T09:24:34Z</time>
      </trkpt>
      <trkpt lat="48.74683" lon="-3.19927">
        <ele>55</ele>
        <time>2015-02-15T09:24:35Z</time>
      </trkpt>
      <trkpt lat="48.74689" lon="-3.19929">
        <ele>55</ele>
        <time>2015-02-15T09:24:36Z</time>
      </trkpt>
      <trkpt lat="48.74696" lon="-3.1993">
        <ele>55</ele>
        <time>2015-02-15T09:24:37Z</time>
      </trkpt>
      <trkpt lat="48.74703" lon="-3.19932">
        <ele>55</ele>
        <time>2015-02-15T09:24:38Z</time>
      </trkpt>
      <trkpt lat="48.7471" lon="-3.19932">
        <ele>55</ele>
        <time>2015-02-15T09:24:39Z</time>
      </trkpt>
      <trkpt lat="48.74716" lon="-3.19932">
        <ele>55</ele>
        <time>2015-02-15T09:24:40Z</time>
      </trkpt>
      <trkpt lat="48.74723" lon="-3.19931">
        <ele>55</ele>
        <time>2015-02-15T09:24:41Z</time>
      </trkpt>
      <trkpt lat="48.7473" lon="-3.19929">
        <ele>55</ele>
        <time>2015-02-15T09:24:42Z</time>
      </trkpt>
      <trkpt lat="48.74736" lon="-3.19926">
        <ele>55</ele>
        <time>2015-02-15T09:24:43Z</time>
      </trkpt>
      <trkpt lat="48.74742" lon="-3.19923">
        <ele>55</ele>
        <time>2015-02-15T09:24:44Z</time>
      </trkpt>
      <trkpt lat="48.74748" lon="-3.1992">
        <ele>55</ele>
        <time>2015-02-15T09:24:45Z</time>
      </trkpt>
      <trkpt lat="48.74754" lon="-3.19917">
        <ele>55</ele>
        <time>2015-02-15T09:24:46Z</time>
      </trkpt>
      <trkpt lat="48.7476" lon="-3.19915">
        <ele>55</ele>
        <time>2015-02-15T09:24:47Z</time>
      </trkpt>
      <trkpt lat="48.74767" lon="-3.19912">
        <ele>55</ele>
        <time>2015-02-15T09:24:48Z</time>
      </trkpt>
      <trkpt lat="48.74773" lon="-3.1991">
        <ele>55</ele>
        <time>2015-02-15T09:24:49Z</time>
      </trkpt>
      <trkpt lat="48.7478" lon="-3.19908">
        <ele>55</ele>
        <time>2015-02-15T09:24:50Z</time>
      </trkpt>
      <trkpt lat="48.74787" lon="-3.19906">
        <ele>55</ele>
        <time>2015-02-15T09:24:51Z</time>
      </trkpt>
      <trkpt lat="48.74793" lon="-3.19905">
        <ele>55</ele>
        <time>2015-02-15T09:24:52Z</time>
      </trkpt>
      <trkpt lat="48.748" lon="-3.19904">
        <ele>55</ele>
        <time>2015-02-15T09:24:53Z</time>
      </trkpt>
      <trkpt lat="48.74807" lon="-3.19903">
        <ele>55</ele>
        <time>2015-02-15T09:24:54Z</time>
      </trkpt>
      <trkpt lat="48.74813" lon="-3.19903">
        <ele>55</ele>
        <time>2015-02-15T09:24:55Z</time>
      </trkpt>
      <trkpt lat="48.74819" lon="-3.19903">
        <ele>55</ele>
        <time>2015-02-15T09:24:56Z</time>
      </trkpt>
      <trkpt lat="48.74826" lon="-3.19903">
        <ele>55</ele>
        <time>2015-02-15T09:24:57Z</time>
      </trkpt>
      <trkpt lat="48.74832" lon="-3.19902">
        <ele>55</ele>
        <time>2015-02-15T09:24:58Z</time>
      </trkpt>
      <trkpt lat="48.74838" lon="-3.19902">
        <ele>55</ele>
        <time>2015-02-15T09:24:59Z</time>
      </trkpt>
      <trkpt lat="48.74844" lon="-3.19901">
        <ele>55</ele>
        <time>2015-02-15T09:25:00Z</time>
      </trkpt>
      <trkpt lat="48.74851" lon="-3.19899">
        <ele>55</ele>
        <time>2015-02-15T09:25:01Z</time>
      </trkpt>
      <trkpt lat="48.74857" lon="-3.19897">
        <ele>55</ele>
        <time>2015-02-15T09:25:02Z</time>
      </trkpt>
      <trkpt lat="48.74863" lon="-3.19894">
        <ele>55</ele>
        <time>2015-02-15T09:25:03Z</time>
      </trkpt>
      <trkpt lat="48.74869" lon="-3.19891">
        <ele>55</ele>
        <time>2015-02-15T09:25:04Z</time>
      </trkpt>
      <trkpt lat="48.74875" lon="-3.19888">
        <ele>55</ele>
        <time>2015-02-15T09:25:05Z</time>
      </trkpt>
      <trkpt lat="48.74881" lon="-3.19885">
        <ele>55</ele>
        <time>2015-02-15T09:25:06Z</time>
      </trkpt>
      <trkpt lat="48.74887" lon="-3.19882">
        <ele>55</ele>
        <time>2015-02-15T09:25:07Z</time>
      </trkpt>
      <trkpt lat="48.74893" lon="-3.1988">
        <ele>55</ele>
        <time>2015-02-15T09:25:08Z</time>
      </trkpt>
      <trkpt lat="48.74899" lon="-3.19877">
        <ele>55</ele>
        <time>2015-02-15T09:25:09Z</time>
      </trkpt>
      <trkpt lat="48.74905" lon="-3.19876">
        <ele>55</ele>
        <time>2015-02-15T09:25:10Z</time>
      </trkpt>
      <trkpt lat="48.74911" lon="-3.19874">
        <ele>55</ele>
        <time>2015-02-15T09:25:11Z</time>
      </trkpt>
      <trkpt lat="48.74917" lon="-3.19874">
        <ele>55</ele>
        <time>2015-02-15T09:25:12Z</time>
      </trkpt>
      <trkpt lat="48.74929" lon="-3.19875">
        <ele>55</ele>
        <time>2015-02-15T09:25:14Z</time>
      </trkpt>
      <trkpt lat="48.74935" lon="-3.19876">
        <ele>55</ele>
        <time>2015-02-15T09:25:15Z</time>
      </trkpt>
      <trkpt lat="48.74942" lon="-3.19878">
        <ele>55</ele>
        <time>2015-02-15T09:25:16Z</time>
      </trkpt>
      <trkpt lat="48.74947" lon="-3.19879">
        <ele>55</ele>
        <time>2015-02-15T09:25:17Z</time>
      </trkpt>
      <trkpt lat="48.74953" lon="-3.19881">
        <ele>55</ele>
        <time>2015-02-15T09:25:18Z</time>
      </trkpt>
      <trkpt lat="48.7496" lon="-3.19884">
        <ele>55</ele>
        <time>2015-02-15T09:25:19Z</time>
      </trkpt>
      <trkpt lat="48.74966" lon="-3.19887">
        <ele>55</ele>
        <time>2015-02-15T09:25:20Z</time>
      </trkpt>
      <trkpt lat="48.74972" lon="-3.19891">
        <ele>54</ele>
        <time>2015-02-15T09:25:21Z</time>
      </trkpt>
      <trkpt lat="48.74979" lon="-3.19895">
        <ele>54</ele>
        <time>2015-02-15T09:25:22Z</time>
      </trkpt>
      <trkpt lat="48.74986" lon="-3.19899">
        <ele>54</ele>
        <time>2015-02-15T09:25:23Z</time>
      </trkpt>
      <trkpt lat="48.74993" lon="-3.19904">
        <ele>53</ele>
        <time>2015-02-15T09:25:24Z</time>
      </trkpt>
      <trkpt lat="48.75" lon="-3.19909">
        <ele>53</ele>
        <time>2015-02-15T09:25:25Z</time>
      </trkpt>
      <trkpt lat="48.75007" lon="-3.19914">
        <ele>53</ele>
        <time>2015-02-15T09:25:26Z</time>
      </trkpt>
      <trkpt lat="48.75015" lon="-3.19919">
        <ele>52</ele>
        <time>2015-02-15T09:25:27Z</time>
      </trkpt>
      <trkpt lat="48.75023" lon="-3.19924">
        <ele>52</ele>
        <time>2015-02-15T09:25:28Z</time>
      </trkpt>
      <trkpt lat="48.7503" lon="-3.19929">
        <ele>52</ele>
        <time>2015-02-15T09:25:29Z</time>
      </trkpt>
      <trkpt lat="48.75038" lon="-3.19933">
        <ele>51</ele>
        <time>2015-02-15T09:25:30Z</time>
      </trkpt>
      <trkpt lat="48.75046" lon="-3.19937">
        <ele>51</ele>
        <time>2015-02-15T09:25:31Z</time>
      </trkpt>
      <trkpt lat="48.75054" lon="-3.1994">
        <ele>51</ele>
        <time>2015-02-15T09:25:32Z</time>
      </trkpt>
      <trkpt lat="48.75063" lon="-3.19943">
        <ele>50</ele>
        <time>2015-02-15T09:25:33Z</time>
      </trkpt>
      <trkpt lat="48.75071" lon="-3.19946">
        <ele>50</ele>
        <time>2015-02-15T09:25:34Z</time>
      </trkpt>
      <trkpt lat="48.7508" lon="-3.19948">
        <ele>50</ele>
        <time>2015-02-15T09:25:35Z</time>
      </trkpt>
      <trkpt lat="48.75089" lon="-3.19951">
        <ele>50</ele>
        <time>2015-02-15T09:25:36Z</time>
      </trkpt>
      <trkpt lat="48.75098" lon="-3.19953">
        <ele>49</ele>
        <time>2015-02-15T09:25:37Z</time>
      </trkpt>
      <trkpt lat="48.75106" lon="-3.19955">
        <ele>49</ele>
        <time>2015-02-15T09:25:38Z</time>
      </trkpt>
      <trkpt lat="48.75116" lon="-3.19957">
        <ele>48</ele>
        <time>2015-02-15T09:25:39Z</time>
      </trkpt>
      <trkpt lat="48.75125" lon="-3.19959">
        <ele>48</ele>
        <time>2015-02-15T09:25:40Z</time>
      </trkpt>
      <trkpt lat="48.75134" lon="-3.1996">
        <ele>47</ele>
        <time>2015-02-15T09:25:41Z</time>
      </trkpt>
      <trkpt lat="48.75144" lon="-3.19961">
        <ele>47</ele>
        <time>2015-02-15T09:25:42Z</time>
      </trkpt>
      <trkpt lat="48.75153" lon="-3.19962">
        <ele>47</ele>
        <time>2015-02-15T09:25:43Z</time>
      </trkpt>
      <trkpt lat="48.75162" lon="-3.19963">
        <ele>46</ele>
        <time>2015-02-15T09:25:44Z</time>
      </trkpt>
      <trkpt lat="48.75171" lon="-3.19964">
        <ele>46</ele>
        <time>2015-02-15T09:25:45Z</time>
      </trkpt>
      <trkpt lat="48.7518" lon="-3.19964">
        <ele>45</ele>
        <time>2015-02-15T09:25:46Z</time>
      </trkpt>
      <trkpt lat="48.7519" lon="-3.19965">
        <ele>45</ele>
        <time>2015-02-15T09:25:47Z</time>
      </trkpt>
      <trkpt lat="48.75199" lon="-3.19965">
        <ele>45</ele>
        <time>2015-02-15T09:25:48Z</time>
      </trkpt>
      <trkpt lat="48.75208" lon="-3.19966">
        <ele>44</ele>
        <time>2015-02-15T09:25:49Z</time>
      </trkpt>
      <trkpt lat="48.75217" lon="-3.19968">
        <ele>44</ele>
        <time>2015-02-15T09:25:50Z</time>
      </trkpt>
      <trkpt lat="48.75225" lon="-3.19969">
        <ele>43</ele>
        <time>2015-02-15T09:25:51Z</time>
      </trkpt>
      <trkpt lat="48.75234" lon="-3.19972">
        <ele>43</ele>
        <time>2015-02-15T09:25:52Z</time>
      </trkpt>
      <trkpt lat="48.75243" lon="-3.19975">
        <ele>42</ele>
        <time>2015-02-15T09:25:53Z</time>
      </trkpt>
      <trkpt lat="48.75252" lon="-3.19978">
        <ele>42</ele>
        <time>2015-02-15T09:25:54Z</time>
      </trkpt>
      <trkpt lat="48.75262" lon="-3.19983">
        <ele>41</ele>
        <time>2015-02-15T09:25:55Z</time>
      </trkpt>
      <trkpt lat="48.75271" lon="-3.19987">
        <ele>40</ele>
        <time>2015-02-15T09:25:56Z</time>
      </trkpt>
      <trkpt lat="48.75281" lon="-3.19991">
        <ele>40</ele>
        <time>2015-02-15T09:25:57Z</time>
      </trkpt>
      <trkpt lat="48.75291" lon="-3.19996">
        <ele>39</ele>
        <time>2015-02-15T09:25:58Z</time>
      </trkpt>
      <trkpt lat="48.75302" lon="-3.2">
        <ele>38</ele>
        <time>2015-02-15T09:25:59Z</time>
      </trkpt>
      <trkpt lat="48.75313" lon="-3.20003">
        <ele>38</ele>
        <time>2015-02-15T09:26:00Z</time>
      </trkpt>
      <trkpt lat="48.75324" lon="-3.20007">
        <ele>37</ele>
        <time>2015-02-15T09:26:01Z</time>
      </trkpt>
      <trkpt lat="48.75336" lon="-3.20011">
        <ele>36</ele>
        <time>2015-02-15T09:26:02Z</time>
      </trkpt>
      <trkpt lat="48.75347" lon="-3.20016">
        <ele>36</ele>
        <time>2015-02-15T09:26:03Z</time>
      </trkpt>
      <trkpt lat="48.75358" lon="-3.20021">
        <ele>35</ele>
        <time>2015-02-15T09:26:04Z</time>
      </trkpt>
      <trkpt lat="48.7537" lon="-3.20026">
        <ele>34</ele>
        <time>2015-02-15T09:26:05Z</time>
      </trkpt>
      <trkpt lat="48.7538" lon="-3.20031">
        <ele>34</ele>
        <time>2015-02-15T09:26:06Z</time>
      </trkpt>
      <trkpt lat="48.75391" lon="-3.20036">
        <ele>33</ele>
        <time>2015-02-15T09:26:07Z</time>
      </trkpt>
      <trkpt lat="48.75402" lon="-3.2004">
        <ele>32</ele>
        <time>2015-02-15T09:26:08Z</time>
      </trkpt>
      <trkpt lat="48.75412" lon="-3.20044">
        <ele>32</ele>
        <time>2015-02-15T09:26:09Z</time>
      </trkpt>
      <trkpt lat="48.75424" lon="-3.20048">
        <ele>32</ele>
        <time>2015-02-15T09:26:10Z</time>
      </trkpt>
      <trkpt lat="48.75435" lon="-3.2005">
        <ele>31</ele>
        <time>2015-02-15T09:26:11Z</time>
      </trkpt>
      <trkpt lat="48.75446" lon="-3.20052">
        <ele>31</ele>
        <time>2015-02-15T09:26:12Z</time>
      </trkpt>
      <trkpt lat="48.75457" lon="-3.20054">
        <ele>31</ele>
        <time>2015-02-15T09:26:13Z</time>
      </trkpt>
      <trkpt lat="48.75468" lon="-3.20056">
        <ele>31</ele>
        <time>2015-02-15T09:26:14Z</time>
      </trkpt>
      <trkpt lat="48.75478" lon="-3.20059">
        <ele>31</ele>
        <time>2015-02-15T09:26:15Z</time>
      </trkpt>
      <trkpt lat="48.75488" lon="-3.20063">
        <ele>31</ele>
        <time>2015-02-15T09:26:16Z</time>
      </trkpt>
      <trkpt lat="48.75497" lon="-3.20068">
        <ele>31</ele>
        <time>2015-02-15T09:26:17Z</time>
      </trkpt>
      <trkpt lat="48.75506" lon="-3.20074">
        <ele>31</ele>
        <time>2015-02-15T09:26:18Z</time>
      </trkpt>
      <trkpt lat="48.75515" lon="-3.20079">
        <ele>31</ele>
        <time>2015-02-15T09:26:19Z</time>
      </trkpt>
      <trkpt lat="48.75523" lon="-3.20085">
        <ele>31</ele>
        <time>2015-02-15T09:26:20Z</time>
      </trkpt>
      <trkpt lat="48.75532" lon="-3.20091">
        <ele>31</ele>
        <time>2015-02-15T09:26:21Z</time>
      </trkpt>
      <trkpt lat="48.7554" lon="-3.20095">
        <ele>31</ele>
        <time>2015-02-15T09:26:22Z</time>
      </trkpt>
      <trkpt lat="48.75548" lon="-3.201">
        <ele>31</ele>
        <time>2015-02-15T09:26:23Z</time>
      </trkpt>
      <trkpt lat="48.75556" lon="-3.20103">
        <ele>31</ele>
        <time>2015-02-15T09:26:24Z</time>
      </trkpt>
      <trkpt lat="48.75564" lon="-3.20106">
        <ele>31</ele>
        <time>2015-02-15T09:26:25Z</time>
      </trkpt>
      <trkpt lat="48.75572" lon="-3.20108">
        <ele>31</ele>
        <time>2015-02-15T09:26:26Z</time>
      </trkpt>
      <trkpt lat="48.7558" lon="-3.2011">
        <ele>31</ele>
        <time>2015-02-15T09:26:27Z</time>
      </trkpt>
      <trkpt lat="48.75588" lon="-3.20112">
        <ele>31</ele>
        <time>2015-02-15T09:26:28Z</time>
      </trkpt>
      <trkpt lat="48.75595" lon="-3.20113">
        <ele>31</ele>
        <time>2015-02-15T09:26:29Z</time>
      </trkpt>
      <trkpt lat="48.75603" lon="-3.20115">
        <ele>31</ele>
        <time>2015-02-15T09:26:30Z</time>
      </trkpt>
      <trkpt lat="48.75611" lon="-3.20117">
        <ele>31</ele>
        <time>2015-02-15T09:26:31Z</time>
      </trkpt>
      <trkpt lat="48.75618" lon="-3.20119">
        <ele>31</ele>
        <time>2015-02-15T09:26:32Z</time>
      </trkpt>
      <trkpt lat="48.75626" lon="-3.20121">
        <ele>31</ele>
        <time>2015-02-15T09:26:33Z</time>
      </trkpt>
      <trkpt lat="48.75633" lon="-3.20123">
        <ele>31</ele>
        <time>2015-02-15T09:26:34Z</time>
      </trkpt>
      <trkpt lat="48.7564" lon="-3.20125">
        <ele>31</ele>
        <time>2015-02-15T09:26:35Z</time>
      </trkpt>
      <trkpt lat="48.75648" lon="-3.20127">
        <ele>31</ele>
        <time>2015-02-15T09:26:36Z</time>
      </trkpt>
      <trkpt lat="48.75655" lon="-3.20128">
        <ele>31</ele>
        <time>2015-02-15T09:26:37Z</time>
      </trkpt>
      <trkpt lat="48.75662" lon="-3.20129">
        <ele>31</ele>
        <time>2015-02-15T09:26:38Z</time>
      </trkpt>
      <trkpt lat="48.75669" lon="-3.20128">
        <ele>31</ele>
        <time>2015-02-15T09:26:39Z</time>
      </trkpt>
      <trkpt lat="48.75676" lon="-3.20127">
        <ele>31</ele>
        <time>2015-02-15T09:26:40Z</time>
      </trkpt>
      <trkpt lat="48.75684" lon="-3.20125">
        <ele>32</ele>
        <time>2015-02-15T09:26:41Z</time>
      </trkpt>
      <trkpt lat="48.7569" lon="-3.20122">
        <ele>32</ele>
        <time>2015-02-15T09:26:42Z</time>
      </trkpt>
      <trkpt lat="48.75697" lon="-3.20117">
        <ele>32</ele>
        <time>2015-02-15T09:26:43Z</time>
      </trkpt>
      <trkpt lat="48.75703" lon="-3.20111">
        <ele>32</ele>
        <time>2015-02-15T09:26:44Z</time>
      </trkpt>
      <trkpt lat="48.75708" lon="-3.20105">
        <ele>33</ele>
        <time>2015-02-15T09:26:45Z</time>
      </trkpt>
      <trkpt lat="48.75713" lon="-3.20097">
        <ele>33</ele>
        <time>2015-02-15T09:26:46Z</time>
      </trkpt>
      <trkpt lat="48.75718" lon="-3.20088">
        <ele>33</ele>
        <time>2015-02-15T09:26:47Z</time>
      </trkpt>
      <trkpt lat="48.75721" lon="-3.20079">
        <ele>33</ele>
        <time>2015-02-15T09:26:48Z</time>
      </trkpt>
      <trkpt lat="48.75724" lon="-3.20068">
        <ele>33</ele>
        <time>2015-02-15T09:26:49Z</time>
      </trkpt>
      <trkpt lat="48.75727" lon="-3.20058">
        <ele>33</ele>
        <time>2015-02-15T09:26:50Z</time>
      </trkpt>
      <trkpt lat="48.7573" lon="-3.20047">
        <ele>33</ele>
        <time>2015-02-15T09:26:51Z</time>
      </trkpt>
      <trkpt lat="48.75732" lon="-3.20035">
        <ele>33</ele>
        <time>2015-02-15T09:26:52Z</time>
      </trkpt>
      <trkpt lat="48.75734" lon="-3.20023">
        <ele>33</ele>
        <time>2015-02-15T09:26:53Z</time>
      </trkpt>
      <trkpt lat="48.75735" lon="-3.20012">
        <ele>33</ele>
        <time>2015-02-15T09:26:54Z</time>
      </trkpt>
      <trkpt lat="48.75736" lon="-3.19999">
        <ele>33</ele>
        <time>2015-02-15T09:26:55Z</time>
      </trkpt>
      <trkpt lat="48.75737" lon="-3.19987">
        <ele>33</ele>
        <time>2015-02-15T09:26:56Z</time>
      </trkpt>
      <trkpt lat="48.75738" lon="-3.19974">
        <ele>33</ele>
        <time>2015-02-15T09:26:57Z</time>
      </trkpt>
      <trkpt lat="48.75739" lon="-3.1996">
        <ele>33</ele>
        <time>2015-02-15T09:26:58Z</time>
      </trkpt>
      <trkpt lat="48.75742" lon="-3.19947">
        <ele>33</ele>
        <time>2015-02-15T09:26:59Z</time>
      </trkpt>
      <trkpt lat="48.75745" lon="-3.19934">
        <ele>33</ele>
        <time>2015-02-15T09:27:00Z</time>
      </trkpt>
      <trkpt lat="48.7575" lon="-3.19922">
        <ele>33</ele>
        <time>2015-02-15T09:27:01Z</time>
      </trkpt>
      <trkpt lat="48.75755" lon="-3.19911">
        <ele>33</ele>
        <time>2015-02-15T09:27:02Z</time>
      </trkpt>
      <trkpt lat="48.75762" lon="-3.19901">
        <ele>33</ele>
        <time>2015-02-15T09:27:03Z</time>
      </trkpt>
      <trkpt lat="48.75769" lon="-3.19893">
        <ele>33</ele>
        <time>2015-02-15T09:27:04Z</time>
      </trkpt>
      <trkpt lat="48.75776" lon="-3.19885">
        <ele>33</ele>
        <time>2015-02-15T09:27:05Z</time>
      </trkpt>
      <trkpt lat="48.75784" lon="-3.19876">
        <ele>33</ele>
        <time>2015-02-15T09:27:06Z</time>
      </trkpt>
      <trkpt lat="48.75791" lon="-3.19868">
        <ele>33</ele>
        <time>2015-02-15T09:27:07Z</time>
      </trkpt>
      <trkpt lat="48.75799" lon="-3.19861">
        <ele>32</ele>
        <time>2015-02-15T09:27:08Z</time>
      </trkpt>
      <trkpt lat="48.75807" lon="-3.19855">
        <ele>32</ele>
        <time>2015-02-15T09:27:09Z</time>
      </trkpt>
      <trkpt lat="48.75815" lon="-3.19851">
        <ele>32</ele>
        <time>2015-02-15T09:27:10Z</time>
      </trkpt>
      <trkpt lat="48.75824" lon="-3.19849">
        <ele>32</ele>
        <time>2015-02-15T09:27:11Z</time>
      </trkpt>
      <trkpt lat="48.75832" lon="-3.19847">
        <ele>32</ele>
        <time>2015-02-15T09:27:12Z</time>
      </trkpt>
      <trkpt lat="48.75841" lon="-3.19846">
        <ele>32</ele>
        <time>2015-02-15T09:27:13Z</time>
      </trkpt>
      <trkpt lat="48.7585" lon="-3.19846">
        <ele>32</ele>
        <time>2015-02-15T09:27:14Z</time>
      </trkpt>
      <trkpt lat="48.75859" lon="-3.19846">
        <ele>32</ele>
        <time>2015-02-15T09:27:15Z</time>
      </trkpt>
      <trkpt lat="48.75867" lon="-3.19845">
        <ele>32</ele>
        <time>2015-02-15T09:27:16Z</time>
      </trkpt>
      <trkpt lat="48.75883" lon="-3.19846">
        <ele>31</ele>
        <time>2015-02-15T09:27:18Z</time>
      </trkpt>
      <trkpt lat="48.75891" lon="-3.19848">
        <ele>31</ele>
        <time>2015-02-15T09:27:19Z</time>
      </trkpt>
      <trkpt lat="48.75899" lon="-3.19852">
        <ele>31</ele>
        <time>2015-02-15T09:27:20Z</time>
      </trkpt>
      <trkpt lat="48.75906" lon="-3.19857">
        <ele>31</ele>
        <time>2015-02-15T09:27:21Z</time>
      </trkpt>
      <trkpt lat="48.75914" lon="-3.19863">
        <ele>31</ele>
        <time>2015-02-15T09:27:22Z</time>
      </trkpt>
      <trkpt lat="48.75921" lon="-3.19869">
        <ele>31</ele>
        <time>2015-02-15T09:27:23Z</time>
      </trkpt>
      <trkpt lat="48.75927" lon="-3.19875">
        <ele>31</ele>
        <time>2015-02-15T09:27:24Z</time>
      </trkpt>
      <trkpt lat="48.75935" lon="-3.19881">
        <ele>30</ele>
        <time>2015-02-15T09:27:25Z</time>
      </trkpt>
      <trkpt lat="48.75942" lon="-3.19886">
        <ele>30</ele>
        <time>2015-02-15T09:27:26Z</time>
      </trkpt>
      <trkpt lat="48.75949" lon="-3.19891">
        <ele>30</ele>
        <time>2015-02-15T09:27:27Z</time>
      </trkpt>
      <trkpt lat="48.75957" lon="-3.19896">
        <ele>30</ele>
        <time>2015-02-15T09:27:28Z</time>
      </trkpt>
      <trkpt lat="48.75965" lon="-3.199">
        <ele>30</ele>
        <time>2015-02-15T09:27:29Z</time>
      </trkpt>
      <trkpt lat="48.75973" lon="-3.19903">
        <ele>29</ele>
        <time>2015-02-15T09:27:30Z</time>
      </trkpt>
      <trkpt lat="48.75982" lon="-3.19906">
        <ele>29</ele>
        <time>2015-02-15T09:27:31Z</time>
      </trkpt>
      <trkpt lat="48.7599" lon="-3.19909">
        <ele>29</ele>
        <time>2015-02-15T09:27:32Z</time>
      </trkpt>
      <trkpt lat="48.75999" lon="-3.19911">
        <ele>29</ele>
        <time>2015-02-15T09:27:33Z</time>
      </trkpt>
      <trkpt lat="48.76008" lon="-3.19914">
        <ele>29</ele>
        <time>2015-02-15T09:27:34Z</time>
      </trkpt>
      <trkpt lat="48.76017" lon="-3.19917">
        <ele>28</ele>
        <time>2015-02-15T09:27:35Z</time>
      </trkpt>
      <trkpt lat="48.76025" lon="-3.19921">
        <ele>28</ele>
        <time>2015-02-15T09:27:36Z</time>
      </trkpt>
      <trkpt lat="48.76035" lon="-3.19925">
        <ele>28</ele>
        <time>2015-02-15T09:27:37Z</time>
      </trkpt>
      <trkpt lat="48.76044" lon="-3.1993">
        <ele>27</ele>
        <time>2015-02-15T09:27:38Z</time>
      </trkpt>
      <trkpt lat="48.76053" lon="-3.19934">
        <ele>27</ele>
        <time>2015-02-15T09:27:39Z</time>
      </trkpt>
      <trkpt lat="48.76062" lon="-3.19939">
        <ele>26</ele>
        <time>2015-02-15T09:27:40Z</time>
      </trkpt>
      <trkpt lat="48.76071" lon="-3.19944">
        <ele>26</ele>
        <time>2015-02-15T09:27:41Z</time>
      </trkpt>
      <trkpt lat="48.7608" lon="-3.19949">
        <ele>26</ele>
        <time>2015-02-15T09:27:42Z</time>
      </trkpt>
      <trkpt lat="48.76089" lon="-3.19953">
        <ele>26</ele>
        <time>2015-02-15T09:27:43Z</time>
      </trkpt>
      <trkpt lat="48.76098" lon="-3.19957">
        <ele>25</ele>
        <time>2015-02-15T09:27:44Z</time>
      </trkpt>
      <trkpt lat="48.76108" lon="-3.19961">
        <ele>25</ele>
        <time>2015-02-15T09:27:45Z</time>
      </trkpt>
      <trkpt lat="48.76117" lon="-3.19965">
        <ele>25</ele>
        <time>2015-02-15T09:27:46Z</time>
      </trkpt>
      <trkpt lat="48.76126" lon="-3.19968">
        <ele>25</ele>
        <time>2015-02-15T09:27:47Z</time>
      </trkpt>
      <trkpt lat="48.76136" lon="-3.19971">
        <ele>24</ele>
        <time>2015-02-15T09:27:48Z</time>
      </trkpt>
      <trkpt lat="48.76145" lon="-3.19972">
        <ele>24</ele>
        <time>2015-02-15T09:27:49Z</time>
      </trkpt>
      <trkpt lat="48.76154" lon="-3.19971">
        <ele>24</ele>
        <time>2015-02-15T09:27:50Z</time>
      </trkpt>
      <trkpt lat="48.76163" lon="-3.19969">
        <ele>24</ele>
        <time>2015-02-15T09:27:51Z</time>
      </trkpt>
      <trkpt lat="48.76171" lon="-3.19966">
        <ele>24</ele>
        <time>2015-02-15T09:27:52Z</time>
      </trkpt>
      <trkpt lat="48.76179" lon="-3.19961">
        <ele>24</ele>
        <time>2015-02-15T09:27:53Z</time>
      </trkpt>
      <trkpt lat="48.76186" lon="-3.19956">
        <ele>24</ele>
        <time>2015-02-15T09:27:54Z</time>
      </trkpt>
      <trkpt lat="48.76192" lon="-3.19952">
        <ele>23</ele>
        <time>2015-02-15T09:27:55Z</time>
      </trkpt>
      <trkpt lat="48.76199" lon="-3.19948">
        <ele>23</ele>
        <time>2015-02-15T09:27:56Z</time>
      </trkpt>
      <trkpt lat="48.76207" lon="-3.19947">
        <ele>23</ele>
        <time>2015-02-15T09:27:57Z</time>
      </trkpt>
      <trkpt lat="48.76215" lon="-3.19947">
        <ele>23</ele>
        <time>2015-02-15T09:27:58Z</time>
      </trkpt>
      <trkpt lat="48.76223" lon="-3.19949">
        <ele>22</ele>
        <time>2015-02-15T09:27:59Z</time>
      </trkpt>
      <trkpt lat="48.76231" lon="-3.19952">
        <ele>22</ele>
        <time>2015-02-15T09:28:00Z</time>
      </trkpt>
      <trkpt lat="48.76239" lon="-3.19955">
        <ele>21</ele>
        <time>2015-02-15T09:28:01Z</time>
      </trkpt>
      <trkpt lat="48.76248" lon="-3.19959">
        <ele>20</ele>
        <time>2015-02-15T09:28:02Z</time>
      </trkpt>
      <trkpt lat="48.76257" lon="-3.19962">
        <ele>20</ele>
        <time>2015-02-15T09:28:03Z</time>
      </trkpt>
      <trkpt lat="48.76265" lon="-3.19967">
        <ele>19</ele>
        <time>2015-02-15T09:28:04Z</time>
      </trkpt>
      <trkpt lat="48.76273" lon="-3.19973">
        <ele>19</ele>
        <time>2015-02-15T09:28:05Z</time>
      </trkpt>
      <trkpt lat="48.7628" lon="-3.19981">
        <ele>18</ele>
        <time>2015-02-15T09:28:06Z</time>
      </trkpt>
      <trkpt lat="48.76287" lon="-3.19989">
        <ele>18</ele>
        <time>2015-02-15T09:28:07Z</time>
      </trkpt>
      <trkpt lat="48.76293" lon="-3.19998">
        <ele>17</ele>
        <time>2015-02-15T09:28:08Z</time>
      </trkpt>
      <trkpt lat="48.763" lon="-3.20007">
        <ele>17</ele>
        <time>2015-02-15T09:28:09Z</time>
      </trkpt>
      <trkpt lat="48.76307" lon="-3.20017">
        <ele>16</ele>
        <time>2015-02-15T09:28:10Z</time>
      </trkpt>
      <trkpt lat="48.76313" lon="-3.20025">
        <ele>16</ele>
        <time>2015-02-15T09:28:11Z</time>
      </trkpt>
      <trkpt lat="48.76318" lon="-3.20033">
        <ele>15</ele>
        <time>2015-02-15T09:28:12Z</time>
      </trkpt>
      <trkpt lat="48.76323" lon="-3.20039">
        <ele>15</ele>
        <time>2015-02-15T09:28:13Z</time>
      </trkpt>
      <trkpt lat="48.76328" lon="-3.20046">
        <ele>14</ele>
        <time>2015-02-15T09:28:14Z</time>
      </trkpt>
      <trkpt lat="48.76333" lon="-3.20052">
        <ele>14</ele>
        <time>2015-02-15T09:28:15Z</time>
      </trkpt>
      <trkpt lat="48.76337" lon="-3.20057">
        <ele>13</ele>
        <time>2015-02-15T09:28:16Z</time>
      </trkpt>
      <trkpt lat="48.76341" lon="-3.20061">
        <ele>13</ele>
        <time>2015-02-15T09:28:17Z</time>
      </trkpt>
      <trkpt lat="48.76345" lon="-3.20064">
        <ele>13</ele>
        <time>2015-02-15T09:28:18Z</time>
      </trkpt>
      <trkpt lat="48.76349" lon="-3.20064">
        <ele>12</ele>
        <time>2015-02-15T09:28:19Z</time>
      </trkpt>
      <trkpt lat="48.76354" lon="-3.20062">
        <ele>12</ele>
        <time>2015-02-15T09:28:20Z</time>
      </trkpt>
      <trkpt lat="48.76357" lon="-3.20056">
        <ele>11</ele>
        <time>2015-02-15T09:28:21Z</time>
      </trkpt>
      <trkpt lat="48.76361" lon="-3.20049">
        <ele>11</ele>
        <time>2015-02-15T09:28:22Z</time>
      </trkpt>
      <trkpt lat="48.76364" lon="-3.20041">
        <ele>11</ele>
        <time>2015-02-15T09:28:23Z</time>
      </trkpt>
      <trkpt lat="48.76368" lon="-3.20033">
        <ele>11</ele>
        <time>2015-02-15T09:28:24Z</time>
      </trkpt>
      <trkpt lat="48.76371" lon="-3.20024">
        <ele>11</ele>
        <time>2015-02-15T09:28:25Z</time>
      </trkpt>
      <trkpt lat="48.76376" lon="-3.20016">
        <ele>10</ele>
        <time>2015-02-15T09:28:26Z</time>
      </trkpt>
      <trkpt lat="48.76381" lon="-3.20008">
        <ele>10</ele>
        <time>2015-02-15T09:28:27Z</time>
      </trkpt>
      <trkpt lat="48.76386" lon="-3.2">
        <ele>10</ele>
        <time>2015-02-15T09:28:28Z</time>
      </trkpt>
      <trkpt lat="48.76391" lon="-3.19992">
        <ele>10</ele>
        <time>2015-02-15T09:28:29Z</time>
      </trkpt>
      <trkpt lat="48.76397" lon="-3.19983">
        <ele>10</ele>
        <time>2015-02-15T09:28:30Z</time>
      </trkpt>
      <trkpt lat="48.76402" lon="-3.19973">
        <ele>9</ele>
        <time>2015-02-15T09:28:31Z</time>
      </trkpt>
      <trkpt lat="48.76406" lon="-3.19962">
        <ele>9</ele>
        <time>2015-02-15T09:28:32Z</time>
      </trkpt>
      <trkpt lat="48.7641" lon="-3.19951">
        <ele>9</ele>
        <time>2015-02-15T09:28:33Z</time>
      </trkpt>
      <trkpt lat="48.76414" lon="-3.1994">
        <ele>9</ele>
        <time>2015-02-15T09:28:34Z</time>
      </trkpt>
      <trkpt lat="48.76419" lon="-3.19929">
        <ele>9</ele>
        <time>2015-02-15T09:28:35Z</time>
      </trkpt>
      <trkpt lat="48.76423" lon="-3.19918">
        <ele>9</ele>
        <time>2015-02-15T09:28:36Z</time>
      </trkpt>
      <trkpt lat="48.76426" lon="-3.19908">
        <ele>9</ele>
        <time>2015-02-15T09:28:37Z</time>
      </trkpt>
      <trkpt lat="48.7643" lon="-3.19898">
        <ele>9</ele>
        <time>2015-02-15T09:28:38Z</time>
      </trkpt>
      <trkpt lat="48.76433" lon="-3.1989">
        <ele>9</ele>
        <time>2015-02-15T09:28:39Z</time>
      </trkpt>
      <trkpt lat="48.76437" lon="-3.19883">
        <ele>9</ele>
        <time>2015-02-15T09:28:40Z</time>
      </trkpt>
      <trkpt lat="48.76443" lon="-3.19879">
        <ele>9</ele>
        <time>2015-02-15T09:28:41Z</time>
      </trkpt>
      <trkpt lat="48.76449" lon="-3.19878">
        <ele>9</ele>
        <time>2015-02-15T09:28:42Z</time>
      </trkpt>
      <trkpt lat="48.76455" lon="-3.1988">
        <ele>9</ele>
        <time>2015-02-15T09:28:43Z</time>
      </trkpt>
      <trkpt lat="48.76462" lon="-3.19884">
        <ele>9</ele>
        <time>2015-02-15T09:28:44Z</time>
      </trkpt>
      <trkpt lat="48.76468" lon="-3.19889">
        <ele>9</ele>
        <time>2015-02-15T09:28:45Z</time>
      </trkpt>
      <trkpt lat="48.76475" lon="-3.19893">
        <ele>9</ele>
        <time>2015-02-15T09:28:46Z</time>
      </trkpt>
      <trkpt lat="48.76483" lon="-3.19897">
        <ele>8</ele>
        <time>2015-02-15T09:28:47Z</time>
      </trkpt>
      <trkpt lat="48.7649" lon="-3.199">
        <ele>8</ele>
        <time>2015-02-15T09:28:48Z</time>
      </trkpt>
      <trkpt lat="48.76498" lon="-3.19903">
        <ele>8</ele>
        <time>2015-02-15T09:28:49Z</time>
      </trkpt>
      <trkpt lat="48.76506" lon="-3.19905">
        <ele>8</ele>
        <time>2015-02-15T09:28:50Z</time>
      </trkpt>
      <trkpt lat="48.76514" lon="-3.19907">
        <ele>8</ele>
        <time>2015-02-15T09:28:51Z</time>
      </trkpt>
      <trkpt lat="48.76522" lon="-3.19909">
        <ele>8</ele>
        <time>2015-02-15T09:28:52Z</time>
      </trkpt>
      <trkpt lat="48.7653" lon="-3.19911">
        <ele>8</ele>
        <time>2015-02-15T09:28:53Z</time>
      </trkpt>
      <trkpt lat="48.76539" lon="-3.19911">
        <ele>8</ele>
        <time>2015-02-15T09:28:54Z</time>
      </trkpt>
      <trkpt lat="48.76547" lon="-3.19912">
        <ele>8</ele>
        <time>2015-02-15T09:28:55Z</time>
      </trkpt>
      <trkpt lat="48.76564" lon="-3.19911">
        <ele>8</ele>
        <time>2015-02-15T09:28:57Z</time>
      </trkpt>
      <trkpt lat="48.76573" lon="-3.19911">
        <ele>8</ele>
        <time>2015-02-15T09:28:58Z</time>
      </trkpt>
      <trkpt lat="48.76581" lon="-3.1991">
        <ele>8</ele>
        <time>2015-02-15T09:28:59Z</time>
      </trkpt>
      <trkpt lat="48.7659" lon="-3.1991">
        <ele>8</ele>
        <time>2015-02-15T09:29:00Z</time>
      </trkpt>
      <trkpt lat="48.76597" lon="-3.19909">
        <ele>8</ele>
        <time>2015-02-15T09:29:01Z</time>
      </trkpt>
      <trkpt lat="48.76605" lon="-3.19908">
        <ele>8</ele>
        <time>2015-02-15T09:29:02Z</time>
      </trkpt>
      <trkpt lat="48.76613" lon="-3.19907">
        <ele>8</ele>
        <time>2015-02-15T09:29:03Z</time>
      </trkpt>
      <trkpt lat="48.7662" lon="-3.19905">
        <ele>8</ele>
        <time>2015-02-15T09:29:04Z</time>
      </trkpt>
      <trkpt lat="48.76627" lon="-3.19901">
        <ele>8</ele>
        <time>2015-02-15T09:29:05Z</time>
      </trkpt>
      <trkpt lat="48.76634" lon="-3.19898">
        <ele>8</ele>
        <time>2015-02-15T09:29:06Z</time>
      </trkpt>
      <trkpt lat="48.7664" lon="-3.19894">
        <ele>8</ele>
        <time>2015-02-15T09:29:07Z</time>
      </trkpt>
      <trkpt lat="48.76646" lon="-3.19889">
        <ele>8</ele>
        <time>2015-02-15T09:29:08Z</time>
      </trkpt>
      <trkpt lat="48.76651" lon="-3.19885">
        <ele>8</ele>
        <time>2015-02-15T09:29:09Z</time>
      </trkpt>
      <trkpt lat="48.76656" lon="-3.19881">
        <ele>8</ele>
        <time>2015-02-15T09:29:10Z</time>
      </trkpt>
      <trkpt lat="48.76661" lon="-3.19877">
        <ele>8</ele>
        <time>2015-02-15T09:29:11Z</time>
      </trkpt>
      <trkpt lat="48.76665" lon="-3.19873">
        <ele>8</ele>
        <time>2015-02-15T09:29:12Z</time>
      </trkpt>
      <trkpt lat="48.76669" lon="-3.19869">
        <ele>8</ele>
        <time>2015-02-15T09:29:13Z</time>
      </trkpt>
      <trkpt lat="48.76673" lon="-3.19866">
        <ele>8</ele>
        <time>2015-02-15T09:29:14Z</time>
      </trkpt>
      <trkpt lat="48.76677" lon="-3.19863">
        <ele>8</ele>
        <time>2015-02-15T09:29:15Z</time>
      </trkpt>
      <trkpt lat="48.76681" lon="-3.19859">
        <ele>8</ele>
        <time>2015-02-15T09:29:16Z</time>
      </trkpt>
      <trkpt lat="48.76685" lon="-3.19856">
        <ele>8</ele>
        <time>2015-02-15T09:29:17Z</time>
      </trkpt>
      <trkpt lat="48.76688" lon="-3.19853">
        <ele>8</ele>
        <time>2015-02-15T09:29:18Z</time>
      </trkpt>
      <trkpt lat="48.76692" lon="-3.19849">
        <ele>8</ele>
        <time>2015-02-15T09:29:19Z</time>
      </trkpt>
      <trkpt lat="48.76696" lon="-3.19846">
        <ele>8</ele>
        <time>2015-02-15T09:29:20Z</time>
      </trkpt>
      <trkpt lat="48.767" lon="-3.19842">
        <ele>8</ele>
        <time>2015-02-15T09:29:21Z</time>
      </trkpt>
      <trkpt lat="48.76704" lon="-3.19839">
        <ele>8</ele>
        <time>2015-02-15T09:29:22Z</time>
      </trkpt>
      <trkpt lat="48.76707" lon="-3.19836">
        <ele>8</ele>
        <time>2015-02-15T09:29:23Z</time>
      </trkpt>
      <trkpt lat="48.76711" lon="-3.19833">
        <ele>8</ele>
        <time>2015-02-15T09:29:24Z</time>
      </trkpt>
      <trkpt lat="48.76714" lon="-3.1983">
        <ele>9</ele>
        <time>2015-02-15T09:29:25Z</time>
      </trkpt>
      <trkpt lat="48.76717" lon="-3.19827">
        <ele>9</ele>
        <time>2015-02-15T09:29:26Z</time>
      </trkpt>
      <trkpt lat="48.7672" lon="-3.19825">
        <ele>9</ele>
        <time>2015-02-15T09:29:27Z</time>
      </trkpt>
      <trkpt lat="48.76724" lon="-3.19822">
        <ele>9</ele>
        <time>2015-02-15T09:29:28Z</time>
      </trkpt>
      <trkpt lat="48.76727" lon="-3.19819">
        <ele>10</ele>
        <time>2015-02-15T09:29:29Z</time>
      </trkpt>
      <trkpt lat="48.7673" lon="-3.19815">
        <ele>10</ele>
        <time>2015-02-15T09:29:30Z</time>
      </trkpt>
      <trkpt lat="48.76734" lon="-3.19812">
        <ele>10</ele>
        <time>2015-02-15T09:29:31Z</time>
      </trkpt>
      <trkpt lat="48.76738" lon="-3.19808">
        <ele>10</ele>
        <time>2015-02-15T09:29:32Z</time>
      </trkpt>
      <trkpt lat="48.76741" lon="-3.19804">
        <ele>11</ele>
        <time>2015-02-15T09:29:33Z</time>
      </trkpt>
      <trkpt lat="48.76745" lon="-3.19801">
        <ele>11</ele>
        <time>2015-02-15T09:29:34Z</time>
      </trkpt>
      <trkpt lat="48.76749" lon="-3.19797">
        <ele>11</ele>
        <time>2015-02-15T09:29:35Z</time>
      </trkpt>
      <trkpt lat="48.76752" lon="-3.19793">
        <ele>11</ele>
        <time>2015-02-15T09:29:36Z</time>
      </trkpt>
      <trkpt lat="48.76755" lon="-3.1979">
        <ele>12</ele>
        <time>2015-02-15T09:29:37Z</time>
      </trkpt>
      <trkpt lat="48.76759" lon="-3.19787">
        <ele>12</ele>
        <time>2015-02-15T09:29:38Z</time>
      </trkpt>
      <trkpt lat="48.76762" lon="-3.19783">
        <ele>12</ele>
        <time>2015-02-15T09:29:39Z</time>
      </trkpt>
      <trkpt lat="48.76764" lon="-3.1978">
        <ele>13</ele>
        <time>2015-02-15T09:29:40Z</time>
      </trkpt>
      <trkpt lat="48.76767" lon="-3.19777">
        <ele>13</ele>
        <time>2015-02-15T09:29:41Z</time>
      </trkpt>
      <trkpt lat="48.7677" lon="-3.19774">
        <ele>13</ele>
        <time>2015-02-15T09:29:42Z</time>
      </trkpt>
      <trkpt lat="48.76773" lon="-3.19771">
        <ele>13</ele>
        <time>2015-02-15T09:29:43Z</time>
      </trkpt>
      <trkpt lat="48.76777" lon="-3.19768">
        <ele>14</ele>
        <time>2015-02-15T09:29:44Z</time>
      </trkpt>
      <trkpt lat="48.7678" lon="-3.19765">
        <ele>14</ele>
        <time>2015-02-15T09:29:45Z</time>
      </trkpt>
      <trkpt lat="48.76783" lon="-3.19761">
        <ele>14</ele>
        <time>2015-02-15T09:29:46Z</time>
      </trkpt>
      <trkpt lat="48.76786" lon="-3.19758">
        <ele>14</ele>
        <time>2015-02-15T09:29:47Z</time>
      </trkpt>
      <trkpt lat="48.76788" lon="-3.19755">
        <ele>14</ele>
        <time>2015-02-15T09:29:48Z</time>
      </trkpt>
      <trkpt lat="48.76791" lon="-3.19752">
        <ele>14</ele>
        <time>2015-02-15T09:29:49Z</time>
      </trkpt>
      <trkpt lat="48.76794" lon="-3.19749">
        <ele>14</ele>
        <time>2015-02-15T09:29:50Z</time>
      </trkpt>
      <trkpt lat="48.76797" lon="-3.19746">
        <ele>14</ele>
        <time>2015-02-15T09:29:51Z</time>
      </trkpt>
      <trkpt lat="48.768" lon="-3.19744">
        <ele>15</ele>
        <time>2015-02-15T09:29:52Z</time>
      </trkpt>
      <trkpt lat="48.76803" lon="-3.19741">
        <ele>15</ele>
        <time>2015-02-15T09:29:53Z</time>
      </trkpt>
      <trkpt lat="48.76806" lon="-3.19739">
        <ele>15</ele>
        <time>2015-02-15T09:29:54Z</time>
      </trkpt>
      <trkpt lat="48.76809" lon="-3.19736">
        <ele>15</ele>
        <time>2015-02-15T09:29:55Z</time>
      </trkpt>
      <trkpt lat="48.76812" lon="-3.19733">
        <ele>15</ele>
        <time>2015-02-15T09:29:56Z</time>
      </trkpt>
      <trkpt lat="48.76815" lon="-3.19729">
        <ele>15</ele>
        <time>2015-02-15T09:29:57Z</time>
      </trkpt>
      <trkpt lat="48.76817" lon="-3.19726">
        <ele>15</ele>
        <time>2015-02-15T09:29:58Z</time>
      </trkpt>
      <trkpt lat="48.7682" lon="-3.19723">
        <ele>15</ele>
        <time>2015-02-15T09:29:59Z</time>
      </trkpt>
      <trkpt lat="48.76824" lon="-3.1972">
        <ele>15</ele>
        <time>2015-02-15T09:30:00Z</time>
      </trkpt>
      <trkpt lat="48.76827" lon="-3.19717">
        <ele>15</ele>
        <time>2015-02-15T09:30:01Z</time>
      </trkpt>
      <trkpt lat="48.7683" lon="-3.19714">
        <ele>15</ele>
        <time>2015-02-15T09:30:02Z</time>
      </trkpt>
      <trkpt lat="48.76832" lon="-3.19711">
        <ele>15</ele>
        <time>2015-02-15T09:30:03Z</time>
      </trkpt>
      <trkpt lat="48.76835" lon="-3.19708">
        <ele>15</ele>
        <time>2015-02-15T09:30:04Z</time>
      </trkpt>
      <trkpt lat="48.76838" lon="-3.19704">
        <ele>15</ele>
        <time>2015-02-15T09:30:05Z</time>
      </trkpt>
      <trkpt lat="48.76841" lon="-3.19701">
        <ele>15</ele>
        <time>2015-02-15T09:30:06Z</time>
      </trkpt>
      <trkpt lat="48.76843" lon="-3.19697">
        <ele>16</ele>
        <time>2015-02-15T09:30:07Z</time>
      </trkpt>
      <trkpt lat="48.76846" lon="-3.19694">
        <ele>16</ele>
        <time>2015-02-15T09:30:08Z</time>
      </trkpt>
      <trkpt lat="48.76849" lon="-3.1969">
        <ele>17</ele>
        <time>2015-02-15T09:30:09Z</time>
      </trkpt>
      <trkpt lat="48.76851" lon="-3.19687">
        <ele>17</ele>
        <time>2015-02-15T09:30:10Z</time>
      </trkpt>
      <trkpt lat="48.76853" lon="-3.19684">
        <ele>17</ele>
        <time>2015-02-15T09:30:11Z</time>
      </trkpt>
      <trkpt lat="48.76855" lon="-3.1968">
        <ele>18</ele>
        <time>2015-02-15T09:30:12Z</time>
      </trkpt>
      <trkpt lat="48.76857" lon="-3.19676">
        <ele>18</ele>
        <time>2015-02-15T09:30:13Z</time>
      </trkpt>
      <trkpt lat="48.7686" lon="-3.19673">
        <ele>18</ele>
        <time>2015-02-15T09:30:14Z</time>
      </trkpt>
      <trkpt lat="48.76861" lon="-3.19669">
        <ele>18</ele>
        <time>2015-02-15T09:30:15Z</time>
      </trkpt>
      <trkpt lat="48.76863" lon="-3.19665">
        <ele>18</ele>
        <time>2015-02-15T09:30:16Z</time>
      </trkpt>
      <trkpt lat="48.76864" lon="-3.19661">
        <ele>18</ele>
        <time>2015-02-15T09:30:17Z</time>
      </trkpt>
      <trkpt lat="48.76866" lon="-3.19657">
        <ele>19</ele>
        <time>2015-02-15T09:30:18Z</time>
      </trkpt>
      <trkpt lat="48.76868" lon="-3.19653">
        <ele>19</ele>
        <time>2015-02-15T09:30:19Z</time>
      </trkpt>
      <trkpt lat="48.7687" lon="-3.19649">
        <ele>19</ele>
        <time>2015-02-15T09:30:20Z</time>
      </trkpt>
      <trkpt lat="48.76872" lon="-3.19644">
        <ele>19</ele>
        <time>2015-02-15T09:30:21Z</time>
      </trkpt>
      <trkpt lat="48.76875" lon="-3.19639">
        <ele>19</ele>
        <time>2015-02-15T09:30:22Z</time>
      </trkpt>
      <trkpt lat="48.76878" lon="-3.19635">
        <ele>19</ele>
        <time>2015-02-15T09:30:23Z</time>
      </trkpt>
      <trkpt lat="48.76881" lon="-3.1963">
        <ele>20</ele>
        <time>2015-02-15T09:30:24Z</time>
      </trkpt>
      <trkpt lat="48.76884" lon="-3.19626">
        <ele>20</ele>
        <time>2015-02-15T09:30:25Z</time>
      </trkpt>
      <trkpt lat="48.76887" lon="-3.19621">
        <ele>21</ele>
        <time>2015-02-15T09:30:26Z</time>
      </trkpt>
      <trkpt lat="48.7689" lon="-3.19617">
        <ele>22</ele>
        <time>2015-02-15T09:30:27Z</time>
      </trkpt>
      <trkpt lat="48.76893" lon="-3.19612">
        <ele>23</ele>
        <time>2015-02-15T09:30:28Z</time>
      </trkpt>
      <trkpt lat="48.76896" lon="-3.19607">
        <ele>24</ele>
        <time>2015-02-15T09:30:29Z</time>
      </trkpt>
      <trkpt lat="48.76899" lon="-3.19602">
        <ele>25</ele>
        <time>2015-02-15T09:30:30Z</time>
      </trkpt>
      <trkpt lat="48.76903" lon="-3.19597">
        <ele>25</ele>
        <time>2015-02-15T09:30:31Z</time>
      </trkpt>
      <trkpt lat="48.76906" lon="-3.19591">
        <ele>26</ele>
        <time>2015-02-15T09:30:32Z</time>
      </trkpt>
      <trkpt lat="48.7691" lon="-3.19586">
        <ele>26</ele>
        <time>2015-02-15T09:30:33Z</time>
      </trkpt>
      <trkpt lat="48.76913" lon="-3.19581">
        <ele>27</ele>
        <time>2015-02-15T09:30:34Z</time>
      </trkpt>
      <trkpt lat="48.76917" lon="-3.19576">
        <ele>27</ele>
        <time>2015-02-15T09:30:35Z</time>
      </trkpt>
      <trkpt lat="48.7692" lon="-3.19571">
        <ele>27</ele>
        <time>2015-02-15T09:30:36Z</time>
      </trkpt>
      <trkpt lat="48.76923" lon="-3.19566">
        <ele>28</ele>
        <time>2015-02-15T09:30:37Z</time>
      </trkpt>
      <trkpt lat="48.76926" lon="-3.19562">
        <ele>28</ele>
        <time>2015-02-15T09:30:38Z</time>
      </trkpt>
      <trkpt lat="48.76929" lon="-3.19558">
        <ele>28</ele>
        <time>2015-02-15T09:30:39Z</time>
      </trkpt>
      <trkpt lat="48.76933" lon="-3.19553">
        <ele>29</ele>
        <time>2015-02-15T09:30:40Z</time>
      </trkpt>
      <trkpt lat="48.76936" lon="-3.19549">
        <ele>29</ele>
        <time>2015-02-15T09:30:41Z</time>
      </trkpt>
      <trkpt lat="48.76939" lon="-3.19545">
        <ele>30</ele>
        <time>2015-02-15T09:30:42Z</time>
      </trkpt>
      <trkpt lat="48.76941" lon="-3.19541">
        <ele>30</ele>
        <time>2015-02-15T09:30:43Z</time>
      </trkpt>
      <trkpt lat="48.76944" lon="-3.19537">
        <ele>30</ele>
        <time>2015-02-15T09:30:44Z</time>
      </trkpt>
      <trkpt lat="48.76947" lon="-3.19532">
        <ele>31</ele>
        <time>2015-02-15T09:30:45Z</time>
      </trkpt>
      <trkpt lat="48.76951" lon="-3.19528">
        <ele>31</ele>
        <time>2015-02-15T09:30:46Z</time>
      </trkpt>
      <trkpt lat="48.76954" lon="-3.19523">
        <ele>31</ele>
        <time>2015-02-15T09:30:47Z</time>
      </trkpt>
      <trkpt lat="48.76958" lon="-3.19518">
        <ele>31</ele>
        <time>2015-02-15T09:30:48Z</time>
      </trkpt>
      <trkpt lat="48.76961" lon="-3.19513">
        <ele>32</ele>
        <time>2015-02-15T09:30:49Z</time>
      </trkpt>
      <trkpt lat="48.76965" lon="-3.19509">
        <ele>32</ele>
        <time>2015-02-15T09:30:50Z</time>
      </trkpt>
      <trkpt lat="48.76969" lon="-3.19504">
        <ele>32</ele>
        <time>2015-02-15T09:30:51Z</time>
      </trkpt>
      <trkpt lat="48.76973" lon="-3.19499">
        <ele>32</ele>
        <time>2015-02-15T09:30:52Z</time>
      </trkpt>
      <trkpt lat="48.76977" lon="-3.19494">
        <ele>32</ele>
        <time>2015-02-15T09:30:53Z</time>
      </trkpt>
      <trkpt lat="48.76981" lon="-3.19489">
        <ele>33</ele>
        <time>2015-02-15T09:30:54Z</time>
      </trkpt>
      <trkpt lat="48.76984" lon="-3.19484">
        <ele>33</ele>
        <time>2015-02-15T09:30:55Z</time>
      </trkpt>
      <trkpt lat="48.76988" lon="-3.19479">
        <ele>33</ele>
        <time>2015-02-15T09:30:56Z</time>
      </trkpt>
      <trkpt lat="48.76992" lon="-3.19473">
        <ele>33</ele>
        <time>2015-02-15T09:30:57Z</time>
      </trkpt>
      <trkpt lat="48.76995" lon="-3.19468">
        <ele>34</ele>
        <time>2015-02-15T09:30:58Z</time>
      </trkpt>
      <trkpt lat="48.76999" lon="-3.19463">
        <ele>34</ele>
        <time>2015-02-15T09:30:59Z</time>
      </trkpt>
      <trkpt lat="48.77003" lon="-3.19458">
        <ele>34</ele>
        <time>2015-02-15T09:31:00Z</time>
      </trkpt>
      <trkpt lat="48.77007" lon="-3.19453">
        <ele>34</ele>
        <time>2015-02-15T09:31:01Z</time>
      </trkpt>
      <trkpt lat="48.77011" lon="-3.19448">
        <ele>35</ele>
        <time>2015-02-15T09:31:02Z</time>
      </trkpt>
      <trkpt lat="48.77015" lon="-3.19443">
        <ele>35</ele>
        <time>2015-02-15T09:31:03Z</time>
      </trkpt>
      <trkpt lat="48.7702" lon="-3.19438">
        <ele>35</ele>
        <time>2015-02-15T09:31:04Z</time>
      </trkpt>
      <trkpt lat="48.77024" lon="-3.19433">
        <ele>35</ele>
        <time>2015-02-15T09:31:05Z</time>
      </trkpt>
      <trkpt lat="48.77029" lon="-3.19428">
        <ele>35</ele>
        <time>2015-02-15T09:31:06Z</time>
      </trkpt>
      <trkpt lat="48.77033" lon="-3.19423">
        <ele>35</ele>
        <time>2015-02-15T09:31:07Z</time>
      </trkpt>
      <trkpt lat="48.77038" lon="-3.19418">
        <ele>35</ele>
        <time>2015-02-15T09:31:08Z</time>
      </trkpt>
      <trkpt lat="48.77042" lon="-3.19413">
        <ele>35</ele>
        <time>2015-02-15T09:31:09Z</time>
      </trkpt>
      <trkpt lat="48.77047" lon="-3.19409">
        <ele>35</ele>
        <time>2015-02-15T09:31:10Z</time>
      </trkpt>
      <trkpt lat="48.77052" lon="-3.19404">
        <ele>35</ele>
        <time>2015-02-15T09:31:11Z</time>
      </trkpt>
      <trkpt lat="48.77056" lon="-3.19399">
        <ele>35</ele>
        <time>2015-02-15T09:31:12Z</time>
      </trkpt>
      <trkpt lat="48.77061" lon="-3.19394">
        <ele>35</ele>
        <time>2015-02-15T09:31:13Z</time>
      </trkpt>
      <trkpt lat="48.77065" lon="-3.1939">
        <ele>36</ele>
        <time>2015-02-15T09:31:14Z</time>
      </trkpt>
      <trkpt lat="48.77069" lon="-3.19385">
        <ele>36</ele>
        <time>2015-02-15T09:31:15Z</time>
      </trkpt>
      <trkpt lat="48.77074" lon="-3.19381">
        <ele>36</ele>
        <time>2015-02-15T09:31:16Z</time>
      </trkpt>
      <trkpt lat="48.77077" lon="-3.19377">
        <ele>36</ele>
        <time>2015-02-15T09:31:17Z</time>
      </trkpt>
      <trkpt lat="48.77082" lon="-3.19373">
        <ele>36</ele>
        <time>2015-02-15T09:31:18Z</time>
      </trkpt>
      <trkpt lat="48.77086" lon="-3.19369">
        <ele>36</ele>
        <time>2015-02-15T09:31:19Z</time>
      </trkpt>
      <trkpt lat="48.7709" lon="-3.19366">
        <ele>36</ele>
        <time>2015-02-15T09:31:20Z</time>
      </trkpt>
      <trkpt lat="48.77094" lon="-3.19363">
        <ele>36</ele>
        <time>2015-02-15T09:31:21Z</time>
      </trkpt>
      <trkpt lat="48.77098" lon="-3.1936">
        <ele>37</ele>
        <time>2015-02-15T09:31:22Z</time>
      </trkpt>
      <trkpt lat="48.77103" lon="-3.19358">
        <ele>37</ele>
        <time>2015-02-15T09:31:23Z</time>
      </trkpt>
      <trkpt lat="48.77107" lon="-3.19356">
        <ele>37</ele>
        <time>2015-02-15T09:31:24Z</time>
      </trkpt>
      <trkpt lat="48.77111" lon="-3.19355">
        <ele>37</ele>
        <time>2015-02-15T09:31:25Z</time>
      </trkpt>
      <trkpt lat="48.77116" lon="-3.19354">
        <ele>38</ele>
        <time>2015-02-15T09:31:26Z</time>
      </trkpt>
      <trkpt lat="48.7712" lon="-3.19354">
        <ele>38</ele>
        <time>2015-02-15T09:31:27Z</time>
      </trkpt>
      <trkpt lat="48.77125" lon="-3.19354">
        <ele>38</ele>
        <time>2015-02-15T09:31:28Z</time>
      </trkpt>
      <trkpt lat="48.7713" lon="-3.19355">
        <ele>38</ele>
        <time>2015-02-15T09:31:29Z</time>
      </trkpt>
      <trkpt lat="48.77134" lon="-3.19356">
        <ele>39</ele>
        <time>2015-02-15T09:31:30Z</time>
      </trkpt>
      <trkpt lat="48.77139" lon="-3.19357">
        <ele>39</ele>
        <time>2015-02-15T09:31:31Z</time>
      </trkpt>
      <trkpt lat="48.77143" lon="-3.1936">
        <ele>39</ele>
        <time>2015-02-15T09:31:32Z</time>
      </trkpt>
      <trkpt lat="48.77148" lon="-3.19362">
        <ele>39</ele>
        <time>2015-02-15T09:31:33Z</time>
      </trkpt>
      <trkpt lat="48.77153" lon="-3.19365">
        <ele>39</ele>
        <time>2015-02-15T09:31:34Z</time>
      </trkpt>
      <trkpt lat="48.77158" lon="-3.19368">
        <ele>40</ele>
        <time>2015-02-15T09:31:35Z</time>
      </trkpt>
      <trkpt lat="48.77162" lon="-3.19371">
        <ele>40</ele>
        <time>2015-02-15T09:31:36Z</time>
      </trkpt>
      <trkpt lat="48.77167" lon="-3.19374">
        <ele>40</ele>
        <time>2015-02-15T09:31:37Z</time>
      </trkpt>
      <trkpt lat="48.77171" lon="-3.19377">
        <ele>40</ele>
        <time>2015-02-15T09:31:38Z</time>
      </trkpt>
      <trkpt lat="48.77176" lon="-3.1938">
        <ele>40</ele>
        <time>2015-02-15T09:31:39Z</time>
      </trkpt>
      <trkpt lat="48.7718" lon="-3.19383">
        <ele>40</ele>
        <time>2015-02-15T09:31:40Z</time>
      </trkpt>
      <trkpt lat="48.77185" lon="-3.19386">
        <ele>40</ele>
        <time>2015-02-15T09:31:41Z</time>
      </trkpt>
      <trkpt lat="48.7719" lon="-3.19389">
        <ele>40</ele>
        <time>2015-02-15T09:31:42Z</time>
      </trkpt>
      <trkpt lat="48.77195" lon="-3.19392">
        <ele>40</ele>
        <time>2015-02-15T09:31:43Z</time>
      </trkpt>
      <trkpt lat="48.77199" lon="-3.19395">
        <ele>40</ele>
        <time>2015-02-15T09:31:44Z</time>
      </trkpt>
      <trkpt lat="48.77204" lon="-3.19398">
        <ele>40</ele>
        <time>2015-02-15T09:31:45Z</time>
      </trkpt>
      <trkpt lat="48.77208" lon="-3.19401">
        <ele>40</ele>
        <time>2015-02-15T09:31:46Z</time>
      </trkpt>
      <trkpt lat="48.77213" lon="-3.19404">
        <ele>41</ele>
        <time>2015-02-15T09:31:47Z</time>
      </trkpt>
      <trkpt lat="48.77218" lon="-3.19408">
        <ele>41</ele>
        <time>2015-02-15T09:31:48Z</time>
      </trkpt>
      <trkpt lat="48.77223" lon="-3.19411">
        <ele>41</ele>
        <time>2015-02-15T09:31:49Z</time>
      </trkpt>
      <trkpt lat="48.77228" lon="-3.19414">
        <ele>41</ele>
        <time>2015-02-15T09:31:50Z</time>
      </trkpt>
      <trkpt lat="48.77233" lon="-3.19416">
        <ele>41</ele>
        <time>2015-02-15T09:31:51Z</time>
      </trkpt>
      <trkpt lat="48.77238" lon="-3.19419">
        <ele>41</ele>
        <time>2015-02-15T09:31:52Z</time>
      </trkpt>
      <trkpt lat="48.77243" lon="-3.19421">
        <ele>41</ele>
        <time>2015-02-15T09:31:53Z</time>
      </trkpt>
      <trkpt lat="48.77248" lon="-3.19424">
        <ele>41</ele>
        <time>2015-02-15T09:31:54Z</time>
      </trkpt>
      <trkpt lat="48.77253" lon="-3.19426">
        <ele>41</ele>
        <time>2015-02-15T09:31:55Z</time>
      </trkpt>
      <trkpt lat="48.77258" lon="-3.19427">
        <ele>41</ele>
        <time>2015-02-15T09:31:56Z</time>
      </trkpt>
      <trkpt lat="48.77263" lon="-3.19429">
        <ele>41</ele>
        <time>2015-02-15T09:31:57Z</time>
      </trkpt>
      <trkpt lat="48.77268" lon="-3.19431">
        <ele>42</ele>
        <time>2015-02-15T09:31:58Z</time>
      </trkpt>
      <trkpt lat="48.77274" lon="-3.19433">
        <ele>42</ele>
        <time>2015-02-15T09:31:59Z</time>
      </trkpt>
      <trkpt lat="48.77279" lon="-3.19434">
        <ele>42</ele>
        <time>2015-02-15T09:32:00Z</time>
      </trkpt>
      <trkpt lat="48.77285" lon="-3.19435">
        <ele>42</ele>
        <time>2015-02-15T09:32:01Z</time>
      </trkpt>
      <trkpt lat="48.7729" lon="-3.19436">
        <ele>42</ele>
        <time>2015-02-15T09:32:02Z</time>
      </trkpt>
      <trkpt lat="48.77295" lon="-3.19438">
        <ele>42</ele>
        <time>2015-02-15T09:32:03Z</time>
      </trkpt>
      <trkpt lat="48.773" lon="-3.19439">
        <ele>42</ele>
        <time>2015-02-15T09:32:04Z</time>
      </trkpt>
      <trkpt lat="48.77306" lon="-3.19441">
        <ele>42</ele>
        <time>2015-02-15T09:32:05Z</time>
      </trkpt>
      <trkpt lat="48.77311" lon="-3.19442">
        <ele>42</ele>
        <time>2015-02-15T09:32:06Z</time>
      </trkpt>
      <trkpt lat="48.77317" lon="-3.19443">
        <ele>43</ele>
        <time>2015-02-15T09:32:07Z</time>
      </trkpt>
      <trkpt lat="48.77322" lon="-3.19444">
        <ele>43</ele>
        <time>2015-02-15T09:32:08Z</time>
      </trkpt>
      <trkpt lat="48.77328" lon="-3.19446">
        <ele>43</ele>
        <time>2015-02-15T09:32:09Z</time>
      </trkpt>
      <trkpt lat="48.77334" lon="-3.19447">
        <ele>43</ele>
        <time>2015-02-15T09:32:10Z</time>
      </trkpt>
      <trkpt lat="48.7734" lon="-3.19448">
        <ele>43</ele>
        <time>2015-02-15T09:32:11Z</time>
      </trkpt>
      <trkpt lat="48.77346" lon="-3.1945">
        <ele>43</ele>
        <time>2015-02-15T09:32:12Z</time>
      </trkpt>
      <trkpt lat="48.77352" lon="-3.19452">
        <ele>43</ele>
        <time>2015-02-15T09:32:13Z</time>
      </trkpt>
      <trkpt lat="48.77357" lon="-3.19453">
        <ele>43</ele>
        <time>2015-02-15T09:32:14Z</time>
      </trkpt>
      <trkpt lat="48.77363" lon="-3.19455">
        <ele>43</ele>
        <time>2015-02-15T09:32:15Z</time>
      </trkpt>
      <trkpt lat="48.77369" lon="-3.19456">
        <ele>43</ele>
        <time>2015-02-15T09:32:16Z</time>
      </trkpt>
      <trkpt lat="48.77374" lon="-3.19457">
        <ele>43</ele>
        <time>2015-02-15T09:32:17Z</time>
      </trkpt>
      <trkpt lat="48.77379" lon="-3.19459">
        <ele>43</ele>
        <time>2015-02-15T09:32:18Z</time>
      </trkpt>
      <trkpt lat="48.77385" lon="-3.1946">
        <ele>43</ele>
        <time>2015-02-15T09:32:19Z</time>
      </trkpt>
      <trkpt lat="48.7739" lon="-3.19461">
        <ele>43</ele>
        <time>2015-02-15T09:32:20Z</time>
      </trkpt>
      <trkpt lat="48.77395" lon="-3.19463">
        <ele>44</ele>
        <time>2015-02-15T09:32:21Z</time>
      </trkpt>
      <trkpt lat="48.774" lon="-3.19464">
        <ele>44</ele>
        <time>2015-02-15T09:32:22Z</time>
      </trkpt>
      <trkpt lat="48.77405" lon="-3.19465">
        <ele>44</ele>
        <time>2015-02-15T09:32:23Z</time>
      </trkpt>
      <trkpt lat="48.7741" lon="-3.19466">
        <ele>44</ele>
        <time>2015-02-15T09:32:24Z</time>
      </trkpt>
      <trkpt lat="48.77415" lon="-3.19467">
        <ele>44</ele>
        <time>2015-02-15T09:32:25Z</time>
      </trkpt>
      <trkpt lat="48.7742" lon="-3.19468">
        <ele>44</ele>
        <time>2015-02-15T09:32:26Z</time>
      </trkpt>
      <trkpt lat="48.77425" lon="-3.19469">
        <ele>44</ele>
        <time>2015-02-15T09:32:27Z</time>
      </trkpt>
      <trkpt lat="48.7743" lon="-3.1947">
        <ele>45</ele>
        <time>2015-02-15T09:32:28Z</time>
      </trkpt>
      <trkpt lat="48.77434" lon="-3.1947">
        <ele>45</ele>
        <time>2015-02-15T09:32:29Z</time>
      </trkpt>
      <trkpt lat="48.77439" lon="-3.19471">
        <ele>45</ele>
        <time>2015-02-15T09:32:30Z</time>
      </trkpt>
      <trkpt lat="48.77444" lon="-3.19471">
        <ele>46</ele>
        <time>2015-02-15T09:32:31Z</time>
      </trkpt>
      <trkpt lat="48.77449" lon="-3.19471">
        <ele>46</ele>
        <time>2015-02-15T09:32:32Z</time>
      </trkpt>
      <trkpt lat="48.77454" lon="-3.19471">
        <ele>46</ele>
        <time>2015-02-15T09:32:33Z</time>
      </trkpt>
      <trkpt lat="48.77464" lon="-3.19471">
        <ele>47</ele>
        <time>2015-02-15T09:32:35Z</time>
      </trkpt>
      <trkpt lat="48.77469" lon="-3.19471">
        <ele>47</ele>
        <time>2015-02-15T09:32:36Z</time>
      </trkpt>
      <trkpt lat="48.77475" lon="-3.19471">
        <ele>47</ele>
        <time>2015-02-15T09:32:37Z</time>
      </trkpt>
      <trkpt lat="48.7748" lon="-3.19471">
        <ele>47</ele>
        <time>2015-02-15T09:32:38Z</time>
      </trkpt>
      <trkpt lat="48.77486" lon="-3.1947">
        <ele>47</ele>
        <time>2015-02-15T09:32:39Z</time>
      </trkpt>
      <trkpt lat="48.77492" lon="-3.1947">
        <ele>48</ele>
        <time>2015-02-15T09:32:40Z</time>
      </trkpt>
      <trkpt lat="48.77499" lon="-3.19469">
        <ele>48</ele>
        <time>2015-02-15T09:32:41Z</time>
      </trkpt>
      <trkpt lat="48.77505" lon="-3.19468">
        <ele>48</ele>
        <time>2015-02-15T09:32:42Z</time>
      </trkpt>
      <trkpt lat="48.77511" lon="-3.19467">
        <ele>48</ele>
        <time>2015-02-15T09:32:43Z</time>
      </trkpt>
      <trkpt lat="48.77518" lon="-3.19467">
        <ele>48</ele>
        <time>2015-02-15T09:32:44Z</time>
      </trkpt>
      <trkpt lat="48.77524" lon="-3.19466">
        <ele>48</ele>
        <time>2015-02-15T09:32:45Z</time>
      </trkpt>
      <trkpt lat="48.77531" lon="-3.19465">
        <ele>48</ele>
        <time>2015-02-15T09:32:46Z</time>
      </trkpt>
      <trkpt lat="48.77537" lon="-3.19464">
        <ele>48</ele>
        <time>2015-02-15T09:32:47Z</time>
      </trkpt>
      <trkpt lat="48.77543" lon="-3.19464">
        <ele>48</ele>
        <time>2015-02-15T09:32:48Z</time>
      </trkpt>
      <trkpt lat="48.7755" lon="-3.19463">
        <ele>48</ele>
        <time>2015-02-15T09:32:49Z</time>
      </trkpt>
      <trkpt lat="48.77556" lon="-3.19462">
        <ele>48</ele>
        <time>2015-02-15T09:32:50Z</time>
      </trkpt>
      <trkpt lat="48.77562" lon="-3.19461">
        <ele>48</ele>
        <time>2015-02-15T09:32:51Z</time>
      </trkpt>
      <trkpt lat="48.77569" lon="-3.19461">
        <ele>48</ele>
        <time>2015-02-15T09:32:52Z</time>
      </trkpt>
      <trkpt lat="48.77575" lon="-3.1946">
        <ele>48</ele>
        <time>2015-02-15T09:32:53Z</time>
      </trkpt>
      <trkpt lat="48.77581" lon="-3.19459">
        <ele>48</ele>
        <time>2015-02-15T09:32:54Z</time>
      </trkpt>
      <trkpt lat="48.77587" lon="-3.19459">
        <ele>48</ele>
        <time>2015-02-15T09:32:55Z</time>
      </trkpt>
      <trkpt lat="48.77594" lon="-3.19458">
        <ele>48</ele>
        <time>2015-02-15T09:32:56Z</time>
      </trkpt>
      <trkpt lat="48.776" lon="-3.19458">
        <ele>48</ele>
        <time>2015-02-15T09:32:57Z</time>
      </trkpt>
      <trkpt lat="48.77606" lon="-3.19458">
        <ele>48</ele>
        <time>2015-02-15T09:32:58Z</time>
      </trkpt>
      <trkpt lat="48.77612" lon="-3.19457">
        <ele>48</ele>
        <time>2015-02-15T09:32:59Z</time>
      </trkpt>
      <trkpt lat="48.77625" lon="-3.19458">
        <ele>48</ele>
        <time>2015-02-15T09:33:01Z</time>
      </trkpt>
      <trkpt lat="48.77631" lon="-3.19458">
        <ele>48</ele>
        <time>2015-02-15T09:33:02Z</time>
      </trkpt>
      <trkpt lat="48.77638" lon="-3.19459">
        <ele>48</ele>
        <time>2015-02-15T09:33:03Z</time>
      </trkpt>
      <trkpt lat="48.77644" lon="-3.1946">
        <ele>48</ele>
        <time>2015-02-15T09:33:04Z</time>
      </trkpt>
      <trkpt lat="48.7765" lon="-3.19461">
        <ele>48</ele>
        <time>2015-02-15T09:33:05Z</time>
      </trkpt>
      <trkpt lat="48.77656" lon="-3.19462">
        <ele>48</ele>
        <time>2015-02-15T09:33:06Z</time>
      </trkpt>
      <trkpt lat="48.77662" lon="-3.19463">
        <ele>48</ele>
        <time>2015-02-15T09:33:07Z</time>
      </trkpt>
      <trkpt lat="48.77668" lon="-3.19465">
        <ele>49</ele>
        <time>2015-02-15T09:33:08Z</time>
      </trkpt>
      <trkpt lat="48.77673" lon="-3.19467">
        <ele>49</ele>
        <time>2015-02-15T09:33:09Z</time>
      </trkpt>
      <trkpt lat="48.77679" lon="-3.19468">
        <ele>49</ele>
        <time>2015-02-15T09:33:10Z</time>
      </trkpt>
      <trkpt lat="48.77685" lon="-3.1947">
        <ele>49</ele>
        <time>2015-02-15T09:33:11Z</time>
      </trkpt>
      <trkpt lat="48.77691" lon="-3.19472">
        <ele>49</ele>
        <time>2015-02-15T09:33:12Z</time>
      </trkpt>
      <trkpt lat="48.77697" lon="-3.19474">
        <ele>49</ele>
        <time>2015-02-15T09:33:13Z</time>
      </trkpt>
      <trkpt lat="48.77702" lon="-3.19476">
        <ele>49</ele>
        <time>2015-02-15T09:33:14Z</time>
      </trkpt>
      <trkpt lat="48.77708" lon="-3.19479">
        <ele>49</ele>
        <time>2015-02-15T09:33:15Z</time>
      </trkpt>
      <trkpt lat="48.77714" lon="-3.19481">
        <ele>49</ele>
        <time>2015-02-15T09:33:16Z</time>
      </trkpt>
      <trkpt lat="48.7772" lon="-3.19484">
        <ele>49</ele>
        <time>2015-02-15T09:33:17Z</time>
      </trkpt>
      <trkpt lat="48.77726" lon="-3.19486">
        <ele>50</ele>
        <time>2015-02-15T09:33:18Z</time>
      </trkpt>
      <trkpt lat="48.77732" lon="-3.19489">
        <ele>50</ele>
        <time>2015-02-15T09:33:19Z</time>
      </trkpt>
      <trkpt lat="48.77738" lon="-3.19492">
        <ele>50</ele>
        <time>2015-02-15T09:33:20Z</time>
      </trkpt>
      <trkpt lat="48.77744" lon="-3.19495">
        <ele>50</ele>
        <time>2015-02-15T09:33:21Z</time>
      </trkpt>
      <trkpt lat="48.7775" lon="-3.19497">
        <ele>50</ele>
        <time>2015-02-15T09:33:22Z</time>
      </trkpt>
      <trkpt lat="48.77756" lon="-3.195">
        <ele>50</ele>
        <time>2015-02-15T09:33:23Z</time>
      </trkpt>
      <trkpt lat="48.77762" lon="-3.19503">
        <ele>50</ele>
        <time>2015-02-15T09:33:24Z</time>
      </trkpt>
      <trkpt lat="48.77768" lon="-3.19505">
        <ele>50</ele>
        <time>2015-02-15T09:33:25Z</time>
      </trkpt>
      <trkpt lat="48.77775" lon="-3.19508">
        <ele>50</ele>
        <time>2015-02-15T09:33:26Z</time>
      </trkpt>
      <trkpt lat="48.77781" lon="-3.19511">
        <ele>50</ele>
        <time>2015-02-15T09:33:27Z</time>
      </trkpt>
      <trkpt lat="48.77787" lon="-3.19513">
        <ele>50</ele>
        <time>2015-02-15T09:33:28Z</time>
      </trkpt>
      <trkpt lat="48.77793" lon="-3.19516">
        <ele>50</ele>
        <time>2015-02-15T09:33:29Z</time>
      </trkpt>
      <trkpt lat="48.778" lon="-3.19518">
        <ele>50</ele>
        <time>2015-02-15T09:33:30Z</time>
      </trkpt>
      <trkpt lat="48.77806" lon="-3.19521">
        <ele>50</ele>
        <time>2015-02-15T09:33:31Z</time>
      </trkpt>
      <trkpt lat="48.77812" lon="-3.19524">
        <ele>50</ele>
        <time>2015-02-15T09:33:32Z</time>
      </trkpt>
      <trkpt lat="48.77818" lon="-3.19527">
        <ele>50</ele>
        <time>2015-02-15T09:33:33Z</time>
      </trkpt>
      <trkpt lat="48.77824" lon="-3.1953">
        <ele>50</ele>
        <time>2015-02-15T09:33:34Z</time>
      </trkpt>
      <trkpt lat="48.7783" lon="-3.19532">
        <ele>50</ele>
        <time>2015-02-15T09:33:35Z</time>
      </trkpt>
      <trkpt lat="48.77837" lon="-3.19535">
        <ele>50</ele>
        <time>2015-02-15T09:33:36Z</time>
      </trkpt>
      <trkpt lat="48.77843" lon="-3.19538">
        <ele>50</ele>
        <time>2015-02-15T09:33:37Z</time>
      </trkpt>
      <trkpt lat="48.77848" lon="-3.1954">
        <ele>50</ele>
        <time>2015-02-15T09:33:38Z</time>
      </trkpt>
      <trkpt lat="48.77854" lon="-3.19543">
        <ele>50</ele>
        <time>2015-02-15T09:33:39Z</time>
      </trkpt>
      <trkpt lat="48.7786" lon="-3.19545">
        <ele>50</ele>
        <time>2015-02-15T09:33:40Z</time>
      </trkpt>
      <trkpt lat="48.77865" lon="-3.19547">
        <ele>50</ele>
        <time>2015-02-15T09:33:41Z</time>
      </trkpt>
      <trkpt lat="48.77871" lon="-3.1955">
        <ele>50</ele>
        <time>2015-02-15T09:33:42Z</time>
      </trkpt>
      <trkpt lat="48.77877" lon="-3.19552">
        <ele>50</ele>
        <time>2015-02-15T09:33:43Z</time>
      </trkpt>
      <trkpt lat="48.77882" lon="-3.19555">
        <ele>51</ele>
        <time>2015-02-15T09:33:44Z</time>
      </trkpt>
      <trkpt lat="48.77888" lon="-3.19557">
        <ele>51</ele>
        <time>2015-02-15T09:33:45Z</time>
      </trkpt>
      <trkpt lat="48.77893" lon="-3.19559">
        <ele>51</ele>
        <time>2015-02-15T09:33:46Z</time>
      </trkpt>
      <trkpt lat="48.77899" lon="-3.19562">
        <ele>52</ele>
        <time>2015-02-15T09:33:47Z</time>
      </trkpt>
      <trkpt lat="48.77904" lon="-3.19564">
        <ele>52</ele>
        <time>2015-02-15T09:33:48Z</time>
      </trkpt>
      <trkpt lat="48.77909" lon="-3.19566">
        <ele>53</ele>
        <time>2015-02-15T09:33:49Z</time>
      </trkpt>
      <trkpt lat="48.77914" lon="-3.19569">
        <ele>53</ele>
        <time>2015-02-15T09:33:50Z</time>
      </trkpt>
      <trkpt lat="48.77919" lon="-3.19571">
        <ele>53</ele>
        <time>2015-02-15T09:33:51Z</time>
      </trkpt>
      <trkpt lat="48.77924" lon="-3.19573">
        <ele>54</ele>
        <time>2015-02-15T09:33:52Z</time>
      </trkpt>
      <trkpt lat="48.7793" lon="-3.19576">
        <ele>54</ele>
        <time>2015-02-15T09:33:53Z</time>
      </trkpt>
      <trkpt lat="48.77935" lon="-3.19578">
        <ele>55</ele>
        <time>2015-02-15T09:33:54Z</time>
      </trkpt>
      <trkpt lat="48.7794" lon="-3.19581">
        <ele>55</ele>
        <time>2015-02-15T09:33:55Z</time>
      </trkpt>
      <trkpt lat="48.77946" lon="-3.19583">
        <ele>55</ele>
        <time>2015-02-15T09:33:56Z</time>
      </trkpt>
      <trkpt lat="48.77951" lon="-3.19585">
        <ele>56</ele>
        <time>2015-02-15T09:33:57Z</time>
      </trkpt>
      <trkpt lat="48.77956" lon="-3.19588">
        <ele>56</ele>
        <time>2015-02-15T09:33:58Z</time>
      </trkpt>
      <trkpt lat="48.77962" lon="-3.1959">
        <ele>56</ele>
        <time>2015-02-15T09:33:59Z</time>
      </trkpt>
      <trkpt lat="48.77967" lon="-3.19593">
        <ele>56</ele>
        <time>2015-02-15T09:34:00Z</time>
      </trkpt>
      <trkpt lat="48.77972" lon="-3.19595">
        <ele>57</ele>
        <time>2015-02-15T09:34:01Z</time>
      </trkpt>
      <trkpt lat="48.77977" lon="-3.19597">
        <ele>57</ele>
        <time>2015-02-15T09:34:02Z</time>
      </trkpt>
      <trkpt lat="48.77981" lon="-3.196">
        <ele>57</ele>
        <time>2015-02-15T09:34:03Z</time>
      </trkpt>
      <trkpt lat="48.77986" lon="-3.19601">
        <ele>57</ele>
        <time>2015-02-15T09:34:04Z</time>
      </trkpt>
      <trkpt lat="48.77991" lon="-3.19603">
        <ele>57</ele>
        <time>2015-02-15T09:34:05Z</time>
      </trkpt>
      <trkpt lat="48.77996" lon="-3.19603">
        <ele>58</ele>
        <time>2015-02-15T09:34:06Z</time>
      </trkpt>
      <trkpt lat="48.78005" lon="-3.19603">
        <ele>58</ele>
        <time>2015-02-15T09:34:08Z</time>
      </trkpt>
      <trkpt lat="48.78009" lon="-3.19602">
        <ele>58</ele>
        <time>2015-02-15T09:34:09Z</time>
      </trkpt>
      <trkpt lat="48.78013" lon="-3.196">
        <ele>59</ele>
        <time>2015-02-15T09:34:10Z</time>
      </trkpt>
      <trkpt lat="48.78017" lon="-3.19598">
        <ele>59</ele>
        <time>2015-02-15T09:34:11Z</time>
      </trkpt>
      <trkpt lat="48.7802" lon="-3.19596">
        <ele>59</ele>
        <time>2015-02-15T09:34:12Z</time>
      </trkpt>
      <trkpt lat="48.78024" lon="-3.19595">
        <ele>59</ele>
        <time>2015-02-15T09:34:13Z</time>
      </trkpt>
      <trkpt lat="48.78027" lon="-3.19594">
        <ele>60</ele>
        <time>2015-02-15T09:34:14Z</time>
      </trkpt>
      <trkpt lat="48.7803" lon="-3.19595">
        <ele>60</ele>
        <time>2015-02-15T09:34:15Z</time>
      </trkpt>
      <trkpt lat="48.78034" lon="-3.19597">
        <ele>60</ele>
        <time>2015-02-15T09:34:16Z</time>
      </trkpt>
      <trkpt lat="48.78036" lon="-3.196">
        <ele>60</ele>
        <time>2015-02-15T09:34:17Z</time>
      </trkpt>
      <trkpt lat="48.78038" lon="-3.19604">
        <ele>60</ele>
        <time>2015-02-15T09:34:18Z</time>
      </trkpt>
      <trkpt lat="48.78039" lon="-3.1961">
        <ele>60</ele>
        <time>2015-02-15T09:34:19Z</time>
      </trkpt>
      <trkpt lat="48.78038" lon="-3.19616">
        <ele>60</ele>
        <time>2015-02-15T09:34:20Z</time>
      </trkpt>
      <trkpt lat="48.78037" lon="-3.19622">
        <ele>60</ele>
        <time>2015-02-15T09:34:21Z</time>
      </trkpt>
      <trkpt lat="48.78035" lon="-3.19629">
        <ele>60</ele>
        <time>2015-02-15T09:34:22Z</time>
      </trkpt>
      <trkpt lat="48.78032" lon="-3.19635">
        <ele>60</ele>
        <time>2015-02-15T09:34:23Z</time>
      </trkpt>
      <trkpt lat="48.7803" lon="-3.19642">
        <ele>60</ele>
        <time>2015-02-15T09:34:24Z</time>
      </trkpt>
      <trkpt lat="48.78028" lon="-3.1965">
        <ele>60</ele>
        <time>2015-02-15T09:34:25Z</time>
      </trkpt>
      <trkpt lat="48.78027" lon="-3.19659">
        <ele>60</ele>
        <time>2015-02-15T09:34:26Z</time>
      </trkpt>
      <trkpt lat="48.78026" lon="-3.19669">
        <ele>60</ele>
        <time>2015-02-15T09:34:27Z</time>
      </trkpt>
      <trkpt lat="48.78025" lon="-3.19678">
        <ele>60</ele>
        <time>2015-02-15T09:34:28Z</time>
      </trkpt>
      <trkpt lat="48.78024" lon="-3.19688">
        <ele>60</ele>
        <time>2015-02-15T09:34:29Z</time>
      </trkpt>
      <trkpt lat="48.78023" lon="-3.19699">
        <ele>60</ele>
        <time>2015-02-15T09:34:30Z</time>
      </trkpt>
      <trkpt lat="48.78022" lon="-3.19709">
        <ele>60</ele>
        <time>2015-02-15T09:34:31Z</time>
      </trkpt>
      <trkpt lat="48.78021" lon="-3.1972">
        <ele>60</ele>
        <time>2015-02-15T09:34:32Z</time>
      </trkpt>
      <trkpt lat="48.7802" lon="-3.19731">
        <ele>60</ele>
        <time>2015-02-15T09:34:33Z</time>
      </trkpt>
      <trkpt lat="48.78019" lon="-3.19743">
        <ele>60</ele>
        <time>2015-02-15T09:34:34Z</time>
      </trkpt>
      <trkpt lat="48.78019" lon="-3.19754">
        <ele>60</ele>
        <time>2015-02-15T09:34:35Z</time>
      </trkpt>
      <trkpt lat="48.78018" lon="-3.19766">
        <ele>60</ele>
        <time>2015-02-15T09:34:36Z</time>
      </trkpt>
      <trkpt lat="48.78017" lon="-3.19778">
        <ele>60</ele>
        <time>2015-02-15T09:34:37Z</time>
      </trkpt>
      <trkpt lat="48.78017" lon="-3.1979">
        <ele>60</ele>
        <time>2015-02-15T09:34:38Z</time>
      </trkpt>
      <trkpt lat="48.78017" lon="-3.19815">
        <ele>60</ele>
        <time>2015-02-15T09:34:40Z</time>
      </trkpt>
      <trkpt lat="48.78018" lon="-3.19827">
        <ele>60</ele>
        <time>2015-02-15T09:34:41Z</time>
      </trkpt>
      <trkpt lat="48.78018" lon="-3.1984">
        <ele>60</ele>
        <time>2015-02-15T09:34:42Z</time>
      </trkpt>
      <trkpt lat="48.78019" lon="-3.19853">
        <ele>60</ele>
        <time>2015-02-15T09:34:43Z</time>
      </trkpt>
      <trkpt lat="48.78021" lon="-3.19866">
        <ele>60</ele>
        <time>2015-02-15T09:34:44Z</time>
      </trkpt>
      <trkpt lat="48.78023" lon="-3.19879">
        <ele>59</ele>
        <time>2015-02-15T09:34:45Z</time>
      </trkpt>
      <trkpt lat="48.78025" lon="-3.19892">
        <ele>59</ele>
        <time>2015-02-15T09:34:46Z</time>
      </trkpt>
      <trkpt lat="48.78027" lon="-3.19905">
        <ele>59</ele>
        <time>2015-02-15T09:34:47Z</time>
      </trkpt>
      <trkpt lat="48.7803" lon="-3.19918">
        <ele>58</ele>
        <time>2015-02-15T09:34:48Z</time>
      </trkpt>
      <trkpt lat="48.78034" lon="-3.19931">
        <ele>58</ele>
        <time>2015-02-15T09:34:49Z</time>
      </trkpt>
      <trkpt lat="48.78037" lon="-3.19944">
        <ele>58</ele>
        <time>2015-02-15T09:34:50Z</time>
      </trkpt>
      <trkpt lat="48.78042" lon="-3.19957">
        <ele>58</ele>
        <time>2015-02-15T09:34:51Z</time>
      </trkpt>
      <trkpt lat="48.78046" lon="-3.1997">
        <ele>58</ele>
        <time>2015-02-15T09:34:52Z</time>
      </trkpt>
      <trkpt lat="48.78051" lon="-3.19983">
        <ele>57</ele>
        <time>2015-02-15T09:34:53Z</time>
      </trkpt>
      <trkpt lat="48.78056" lon="-3.19996">
        <ele>57</ele>
        <time>2015-02-15T09:34:54Z</time>
      </trkpt>
      <trkpt lat="48.78062" lon="-3.20008">
        <ele>57</ele>
        <time>2015-02-15T09:34:55Z</time>
      </trkpt>
      <trkpt lat="48.78069" lon="-3.2002">
        <ele>57</ele>
        <time>2015-02-15T09:34:56Z</time>
      </trkpt>
      <trkpt lat="48.78075" lon="-3.20032">
        <ele>57</ele>
        <time>2015-02-15T09:34:57Z</time>
      </trkpt>
      <trkpt lat="48.78083" lon="-3.20043">
        <ele>56</ele>
        <time>2015-02-15T09:34:58Z</time>
      </trkpt>
      <trkpt lat="48.7809" lon="-3.20054">
        <ele>56</ele>
        <time>2015-02-15T09:34:59Z</time>
      </trkpt>
      <trkpt lat="48.78097" lon="-3.20064">
        <ele>56</ele>
        <time>2015-02-15T09:35:00Z</time>
      </trkpt>
      <trkpt lat="48.78105" lon="-3.20074">
        <ele>56</ele>
        <time>2015-02-15T09:35:01Z</time>
      </trkpt>
      <trkpt lat="48.78113" lon="-3.20084">
        <ele>56</ele>
        <time>2015-02-15T09:35:02Z</time>
      </trkpt>
      <trkpt lat="48.7812" lon="-3.20094">
        <ele>56</ele>
        <time>2015-02-15T09:35:03Z</time>
      </trkpt>
      <trkpt lat="48.78128" lon="-3.20104">
        <ele>56</ele>
        <time>2015-02-15T09:35:04Z</time>
      </trkpt>
      <trkpt lat="48.78135" lon="-3.20114">
        <ele>55</ele>
        <time>2015-02-15T09:35:05Z</time>
      </trkpt>
      <trkpt lat="48.78142" lon="-3.20124">
        <ele>55</ele>
        <time>2015-02-15T09:35:06Z</time>
      </trkpt>
      <trkpt lat="48.78149" lon="-3.20133">
        <ele>55</ele>
        <time>2015-02-15T09:35:07Z</time>
      </trkpt>
      <trkpt lat="48.78157" lon="-3.20143">
        <ele>55</ele>
        <time>2015-02-15T09:35:08Z</time>
      </trkpt>
      <trkpt lat="48.78164" lon="-3.20152">
        <ele>55</ele>
        <time>2015-02-15T09:35:09Z</time>
      </trkpt>
      <trkpt lat="48.78171" lon="-3.20161">
        <ele>55</ele>
        <time>2015-02-15T09:35:10Z</time>
      </trkpt>
      <trkpt lat="48.78178" lon="-3.20171">
        <ele>55</ele>
        <time>2015-02-15T09:35:11Z</time>
      </trkpt>
      <trkpt lat="48.78185" lon="-3.2018">
        <ele>54</ele>
        <time>2015-02-15T09:35:12Z</time>
      </trkpt>
      <trkpt lat="48.78192" lon="-3.20189">
        <ele>54</ele>
        <time>2015-02-15T09:35:13Z</time>
      </trkpt>
      <trkpt lat="48.78199" lon="-3.20198">
        <ele>54</ele>
        <time>2015-02-15T09:35:14Z</time>
      </trkpt>
      <trkpt lat="48.78205" lon="-3.20207">
        <ele>54</ele>
        <time>2015-02-15T09:35:15Z</time>
      </trkpt>
      <trkpt lat="48.78212" lon="-3.20216">
        <ele>54</ele>
        <time>2015-02-15T09:35:16Z</time>
      </trkpt>
      <trkpt lat="48.78219" lon="-3.20225">
        <ele>54</ele>
        <time>2015-02-15T09:35:17Z</time>
      </trkpt>
      <trkpt lat="48.78225" lon="-3.20233">
        <ele>54</ele>
        <time>2015-02-15T09:35:18Z</time>
      </trkpt>
      <trkpt lat="48.78231" lon="-3.20242">
        <ele>54</ele>
        <time>2015-02-15T09:35:19Z</time>
      </trkpt>
      <trkpt lat="48.78237" lon="-3.20249">
        <ele>54</ele>
        <time>2015-02-15T09:35:20Z</time>
      </trkpt>
      <trkpt lat="48.78242" lon="-3.20255">
        <ele>54</ele>
        <time>2015-02-15T09:35:21Z</time>
      </trkpt>
      <trkpt lat="48.78248" lon="-3.20262">
        <ele>54</ele>
        <time>2015-02-15T09:35:22Z</time>
      </trkpt>
      <trkpt lat="48.78254" lon="-3.20269">
        <ele>54</ele>
        <time>2015-02-15T09:35:23Z</time>
      </trkpt>
      <trkpt lat="48.7826" lon="-3.20276">
        <ele>54</ele>
        <time>2015-02-15T09:35:24Z</time>
      </trkpt>
      <trkpt lat="48.78265" lon="-3.20283">
        <ele>54</ele>
        <time>2015-02-15T09:35:25Z</time>
      </trkpt>
      <trkpt lat="48.7827" lon="-3.2029">
        <ele>54</ele>
        <time>2015-02-15T09:35:26Z</time>
      </trkpt>
      <trkpt lat="48.78276" lon="-3.20298">
        <ele>54</ele>
        <time>2015-02-15T09:35:27Z</time>
      </trkpt>
      <trkpt lat="48.78282" lon="-3.20306">
        <ele>54</ele>
        <time>2015-02-15T09:35:28Z</time>
      </trkpt>
      <trkpt lat="48.78288" lon="-3.20314">
        <ele>54</ele>
        <time>2015-02-15T09:35:29Z</time>
      </trkpt>
      <trkpt lat="48.78294" lon="-3.20323">
        <ele>54</ele>
        <time>2015-02-15T09:35:30Z</time>
      </trkpt>
      <trkpt lat="48.78301" lon="-3.20332">
        <ele>54</ele>
        <time>2015-02-15T09:35:31Z</time>
      </trkpt>
      <trkpt lat="48.78308" lon="-3.20341">
        <ele>54</ele>
        <time>2015-02-15T09:35:32Z</time>
      </trkpt>
      <trkpt lat="48.78315" lon="-3.20351">
        <ele>54</ele>
        <time>2015-02-15T09:35:33Z</time>
      </trkpt>
      <trkpt lat="48.78322" lon="-3.20361">
        <ele>53</ele>
        <time>2015-02-15T09:35:34Z</time>
      </trkpt>
      <trkpt lat="48.78329" lon="-3.20372">
        <ele>53</ele>
        <time>2015-02-15T09:35:35Z</time>
      </trkpt>
      <trkpt lat="48.78336" lon="-3.20383">
        <ele>53</ele>
        <time>2015-02-15T09:35:36Z</time>
      </trkpt>
      <trkpt lat="48.78343" lon="-3.20396">
        <ele>53</ele>
        <time>2015-02-15T09:35:37Z</time>
      </trkpt>
      <trkpt lat="48.78349" lon="-3.20409">
        <ele>52</ele>
        <time>2015-02-15T09:35:38Z</time>
      </trkpt>
      <trkpt lat="48.78355" lon="-3.20423">
        <ele>52</ele>
        <time>2015-02-15T09:35:39Z</time>
      </trkpt>
      <trkpt lat="48.7836" lon="-3.20438">
        <ele>51</ele>
        <time>2015-02-15T09:35:40Z</time>
      </trkpt>
      <trkpt lat="48.78364" lon="-3.20454">
        <ele>51</ele>
        <time>2015-02-15T09:35:41Z</time>
      </trkpt>
      <trkpt lat="48.78368" lon="-3.20469">
        <ele>51</ele>
        <time>2015-02-15T09:35:42Z</time>
      </trkpt>
      <trkpt lat="48.7837" lon="-3.20486">
        <ele>50</ele>
        <time>2015-02-15T09:35:43Z</time>
      </trkpt>
      <trkpt lat="48.78373" lon="-3.20502">
        <ele>50</ele>
        <time>2015-02-15T09:35:44Z</time>
      </trkpt>
      <trkpt lat="48.78374" lon="-3.20519">
        <ele>49</ele>
        <time>2015-02-15T09:35:45Z</time>
      </trkpt>
      <trkpt lat="48.78375" lon="-3.20536">
        <ele>49</ele>
        <time>2015-02-15T09:35:46Z</time>
      </trkpt>
      <trkpt lat="48.78375" lon="-3.20553">
        <ele>48</ele>
        <time>2015-02-15T09:35:47Z</time>
      </trkpt>
      <trkpt lat="48.78375" lon="-3.20588">
        <ele>47</ele>
        <time>2015-02-15T09:35:49Z</time>
      </trkpt>
      <trkpt lat="48.78374" lon="-3.20606">
        <ele>47</ele>
        <time>2015-02-15T09:35:50Z</time>
      </trkpt>
      <trkpt lat="48.78373" lon="-3.20623">
        <ele>46</ele>
        <time>2015-02-15T09:35:51Z</time>
      </trkpt>
      <trkpt lat="48.78371" lon="-3.20641">
        <ele>46</ele>
        <time>2015-02-15T09:35:52Z</time>
      </trkpt>
      <trkpt lat="48.78369" lon="-3.20659">
        <ele>45</ele>
        <time>2015-02-15T09:35:53Z</time>
      </trkpt>
      <trkpt lat="48.78368" lon="-3.20677">
        <ele>45</ele>
        <time>2015-02-15T09:35:54Z</time>
      </trkpt>
      <trkpt lat="48.78366" lon="-3.20696">
        <ele>44</ele>
        <time>2015-02-15T09:35:55Z</time>
      </trkpt>
      <trkpt lat="48.78366" lon="-3.20714">
        <ele>43</ele>
        <time>2015-02-15T09:35:56Z</time>
      </trkpt>
      <trkpt lat="48.78365" lon="-3.20733">
        <ele>43</ele>
        <time>2015-02-15T09:35:57Z</time>
      </trkpt>
      <trkpt lat="48.78366" lon="-3.20751">
        <ele>42</ele>
        <time>2015-02-15T09:35:58Z</time>
      </trkpt>
      <trkpt lat="48.78367" lon="-3.20769">
        <ele>41</ele>
        <time>2015-02-15T09:35:59Z</time>
      </trkpt>
      <trkpt lat="48.78369" lon="-3.20786">
        <ele>41</ele>
        <time>2015-02-15T09:36:00Z</time>
      </trkpt>
      <trkpt lat="48.78371" lon="-3.20804">
        <ele>40</ele>
        <time>2015-02-15T09:36:01Z</time>
      </trkpt>
      <trkpt lat="48.78375" lon="-3.20821">
        <ele>39</ele>
        <time>2015-02-15T09:36:02Z</time>
      </trkpt>
      <trkpt lat="48.7838" lon="-3.20838">
        <ele>38</ele>
        <time>2015-02-15T09:36:03Z</time>
      </trkpt>
      <trkpt lat="48.78385" lon="-3.20855">
        <ele>38</ele>
        <time>2015-02-15T09:36:04Z</time>
      </trkpt>
      <trkpt lat="48.7839" lon="-3.20871">
        <ele>37</ele>
        <time>2015-02-15T09:36:05Z</time>
      </trkpt>
      <trkpt lat="48.78396" lon="-3.20888">
        <ele>36</ele>
        <time>2015-02-15T09:36:06Z</time>
      </trkpt>
      <trkpt lat="48.78402" lon="-3.20904">
        <ele>35</ele>
        <time>2015-02-15T09:36:07Z</time>
      </trkpt>
      <trkpt lat="48.78407" lon="-3.20921">
        <ele>35</ele>
        <time>2015-02-15T09:36:08Z</time>
      </trkpt>
      <trkpt lat="48.78412" lon="-3.20938">
        <ele>34</ele>
        <time>2015-02-15T09:36:09Z</time>
      </trkpt>
      <trkpt lat="48.78417" lon="-3.20955">
        <ele>33</ele>
        <time>2015-02-15T09:36:10Z</time>
      </trkpt>
      <trkpt lat="48.78421" lon="-3.20972">
        <ele>33</ele>
        <time>2015-02-15T09:36:11Z</time>
      </trkpt>
      <trkpt lat="48.78424" lon="-3.2099">
        <ele>32</ele>
        <time>2015-02-15T09:36:12Z</time>
      </trkpt>
      <trkpt lat="48.78426" lon="-3.21009">
        <ele>31</ele>
        <time>2015-02-15T09:36:13Z</time>
      </trkpt>
      <trkpt lat="48.78428" lon="-3.21027">
        <ele>30</ele>
        <time>2015-02-15T09:36:14Z</time>
      </trkpt>
      <trkpt lat="48.78428" lon="-3.21046">
        <ele>30</ele>
        <time>2015-02-15T09:36:15Z</time>
      </trkpt>
      <trkpt lat="48.78428" lon="-3.21065">
        <ele>29</ele>
        <time>2015-02-15T09:36:16Z</time>
      </trkpt>
      <trkpt lat="48.78426" lon="-3.21085">
        <ele>28</ele>
        <time>2015-02-15T09:36:17Z</time>
      </trkpt>
      <trkpt lat="48.78425" lon="-3.21104">
        <ele>27</ele>
        <time>2015-02-15T09:36:18Z</time>
      </trkpt>
      <trkpt lat="48.78422" lon="-3.21123">
        <ele>27</ele>
        <time>2015-02-15T09:36:19Z</time>
      </trkpt>
      <trkpt lat="48.78418" lon="-3.21143">
        <ele>26</ele>
        <time>2015-02-15T09:36:20Z</time>
      </trkpt>
      <trkpt lat="48.78413" lon="-3.21161">
        <ele>25</ele>
        <time>2015-02-15T09:36:21Z</time>
      </trkpt>
      <trkpt lat="48.78408" lon="-3.2118">
        <ele>24</ele>
        <time>2015-02-15T09:36:22Z</time>
      </trkpt>
      <trkpt lat="48.78401" lon="-3.21198">
        <ele>23</ele>
        <time>2015-02-15T09:36:23Z</time>
      </trkpt>
      <trkpt lat="48.78394" lon="-3.21216">
        <ele>22</ele>
        <time>2015-02-15T09:36:24Z</time>
      </trkpt>
      <trkpt lat="48.78388" lon="-3.21234">
        <ele>21</ele>
        <time>2015-02-15T09:36:25Z</time>
      </trkpt>
      <trkpt lat="48.78381" lon="-3.21252">
        <ele>21</ele>
        <time>2015-02-15T09:36:26Z</time>
      </trkpt>
      <trkpt lat="48.78374" lon="-3.21271">
        <ele>20</ele>
        <time>2015-02-15T09:36:27Z</time>
      </trkpt>
      <trkpt lat="48.78368" lon="-3.21289">
        <ele>19</ele>
        <time>2015-02-15T09:36:28Z</time>
      </trkpt>
      <trkpt lat="48.7836" lon="-3.21307">
        <ele>18</ele>
        <time>2015-02-15T09:36:29Z</time>
      </trkpt>
      <trkpt lat="48.78354" lon="-3.21326">
        <ele>17</ele>
        <time>2015-02-15T09:36:30Z</time>
      </trkpt>
      <trkpt lat="48.78347" lon="-3.21344">
        <ele>16</ele>
        <time>2015-02-15T09:36:31Z</time>
      </trkpt>
      <trkpt lat="48.78342" lon="-3.21363">
        <ele>15</ele>
        <time>2015-02-15T09:36:32Z</time>
      </trkpt>
      <trkpt lat="48.78337" lon="-3.21382">
        <ele>14</ele>
        <time>2015-02-15T09:36:33Z</time>
      </trkpt>
      <trkpt lat="48.78334" lon="-3.21402">
        <ele>14</ele>
        <time>2015-02-15T09:36:34Z</time>
      </trkpt>
      <trkpt lat="48.78334" lon="-3.21421">
        <ele>13</ele>
        <time>2015-02-15T09:36:35Z</time>
      </trkpt>
      <trkpt lat="48.78334" lon="-3.2144">
        <ele>13</ele>
        <time>2015-02-15T09:36:36Z</time>
      </trkpt>
      <trkpt lat="48.78337" lon="-3.21458">
        <ele>13</ele>
        <time>2015-02-15T09:36:37Z</time>
      </trkpt>
      <trkpt lat="48.7834" lon="-3.21475">
        <ele>13</ele>
        <time>2015-02-15T09:36:38Z</time>
      </trkpt>
      <trkpt lat="48.78343" lon="-3.21493">
        <ele>13</ele>
        <time>2015-02-15T09:36:39Z</time>
      </trkpt>
      <trkpt lat="48.78347" lon="-3.2151">
        <ele>13</ele>
        <time>2015-02-15T09:36:40Z</time>
      </trkpt>
      <trkpt lat="48.7835" lon="-3.21527">
        <ele>13</ele>
        <time>2015-02-15T09:36:41Z</time>
      </trkpt>
      <trkpt lat="48.78353" lon="-3.21544">
        <ele>13</ele>
        <time>2015-02-15T09:36:42Z</time>
      </trkpt>
      <trkpt lat="48.78357" lon="-3.21561">
        <ele>13</ele>
        <time>2015-02-15T09:36:43Z</time>
      </trkpt>
      <trkpt lat="48.7836" lon="-3.21577">
        <ele>13</ele>
        <time>2015-02-15T09:36:44Z</time>
      </trkpt>
      <trkpt lat="48.78363" lon="-3.21594">
        <ele>13</ele>
        <time>2015-02-15T09:36:45Z</time>
      </trkpt>
      <trkpt lat="48.78366" lon="-3.21609">
        <ele>13</ele>
        <time>2015-02-15T09:36:46Z</time>
      </trkpt>
      <trkpt lat="48.78369" lon="-3.21625">
        <ele>13</ele>
        <time>2015-02-15T09:36:47Z</time>
      </trkpt>
      <trkpt lat="48.78372" lon="-3.2164">
        <ele>13</ele>
        <time>2015-02-15T09:36:48Z</time>
      </trkpt>
      <trkpt lat="48.78374" lon="-3.21655">
        <ele>13</ele>
        <time>2015-02-15T09:36:49Z</time>
      </trkpt>
      <trkpt lat="48.78376" lon="-3.2167">
        <ele>13</ele>
        <time>2015-02-15T09:36:50Z</time>
      </trkpt>
      <trkpt lat="48.78378" lon="-3.21685">
        <ele>13</ele>
        <time>2015-02-15T09:36:51Z</time>
      </trkpt>
      <trkpt lat="48.78379" lon="-3.217">
        <ele>13</ele>
        <time>2015-02-15T09:36:52Z</time>
      </trkpt>
      <trkpt lat="48.7838" lon="-3.21714">
        <ele>13</ele>
        <time>2015-02-15T09:36:53Z</time>
      </trkpt>
      <trkpt lat="48.78379" lon="-3.21758">
        <ele>13</ele>
        <time>2015-02-15T09:36:56Z</time>
      </trkpt>
      <trkpt lat="48.78379" lon="-3.21772">
        <ele>13</ele>
        <time>2015-02-15T09:36:57Z</time>
      </trkpt>
      <trkpt lat="48.78378" lon="-3.21785">
        <ele>13</ele>
        <time>2015-02-15T09:36:58Z</time>
      </trkpt>
      <trkpt lat="48.78376" lon="-3.21799">
        <ele>13</ele>
        <time>2015-02-15T09:36:59Z</time>
      </trkpt>
      <trkpt lat="48.78375" lon="-3.21813">
        <ele>12</ele>
        <time>2015-02-15T09:37:00Z</time>
      </trkpt>
      <trkpt lat="48.78374" lon="-3.21826">
        <ele>12</ele>
        <time>2015-02-15T09:37:01Z</time>
      </trkpt>
      <trkpt lat="48.78373" lon="-3.2184">
        <ele>12</ele>
        <time>2015-02-15T09:37:02Z</time>
      </trkpt>
      <trkpt lat="48.78372" lon="-3.21853">
        <ele>12</ele>
        <time>2015-02-15T09:37:03Z</time>
      </trkpt>
      <trkpt lat="48.78371" lon="-3.21867">
        <ele>12</ele>
        <time>2015-02-15T09:37:04Z</time>
      </trkpt>
      <trkpt lat="48.78372" lon="-3.21881">
        <ele>12</ele>
        <time>2015-02-15T09:37:05Z</time>
      </trkpt>
      <trkpt lat="48.78372" lon="-3.21895">
        <ele>12</ele>
        <time>2015-02-15T09:37:06Z</time>
      </trkpt>
      <trkpt lat="48.78373" lon="-3.21908">
        <ele>12</ele>
        <time>2015-02-15T09:37:07Z</time>
      </trkpt>
      <trkpt lat="48.78375" lon="-3.21922">
        <ele>12</ele>
        <time>2015-02-15T09:37:08Z</time>
      </trkpt>
      <trkpt lat="48.78378" lon="-3.21935">
        <ele>12</ele>
        <time>2015-02-15T09:37:09Z</time>
      </trkpt>
      <trkpt lat="48.78381" lon="-3.21947">
        <ele>12</ele>
        <time>2015-02-15T09:37:10Z</time>
      </trkpt>
      <trkpt lat="48.78385" lon="-3.21959">
        <ele>12</ele>
        <time>2015-02-15T09:37:11Z</time>
      </trkpt>
      <trkpt lat="48.78388" lon="-3.21971">
        <ele>12</ele>
        <time>2015-02-15T09:37:12Z</time>
      </trkpt>
      <trkpt lat="48.78392" lon="-3.21982">
        <ele>12</ele>
        <time>2015-02-15T09:37:13Z</time>
      </trkpt>
      <trkpt lat="48.78396" lon="-3.21994">
        <ele>12</ele>
        <time>2015-02-15T09:37:14Z</time>
      </trkpt>
      <trkpt lat="48.784" lon="-3.22006">
        <ele>12</ele>
        <time>2015-02-15T09:37:15Z</time>
      </trkpt>
      <trkpt lat="48.78403" lon="-3.22017">
        <ele>12</ele>
        <time>2015-02-15T09:37:16Z</time>
      </trkpt>
      <trkpt lat="48.78407" lon="-3.22028">
        <ele>12</ele>
        <time>2015-02-15T09:37:17Z</time>
      </trkpt>
      <trkpt lat="48.78411" lon="-3.2204">
        <ele>12</ele>
        <time>2015-02-15T09:37:18Z</time>
      </trkpt>
      <trkpt lat="48.78415" lon="-3.22051">
        <ele>12</ele>
        <time>2015-02-15T09:37:19Z</time>
      </trkpt>
      <trkpt lat="48.78418" lon="-3.22062">
        <ele>12</ele>
        <time>2015-02-15T09:37:20Z</time>
      </trkpt>
      <trkpt lat="48.78421" lon="-3.22073">
        <ele>12</ele>
        <time>2015-02-15T09:37:21Z</time>
      </trkpt>
      <trkpt lat="48.78425" lon="-3.22084">
        <ele>12</ele>
        <time>2015-02-15T09:37:22Z</time>
      </trkpt>
      <trkpt lat="48.78428" lon="-3.22094">
        <ele>12</ele>
        <time>2015-02-15T09:37:23Z</time>
      </trkpt>
      <trkpt lat="48.78432" lon="-3.22104">
        <ele>12</ele>
        <time>2015-02-15T09:37:24Z</time>
      </trkpt>
      <trkpt lat="48.78435" lon="-3.22114">
        <ele>12</ele>
        <time>2015-02-15T09:37:25Z</time>
      </trkpt>
      <trkpt lat="48.78438" lon="-3.22124">
        <ele>12</ele>
        <time>2015-02-15T09:37:26Z</time>
      </trkpt>
      <trkpt lat="48.78441" lon="-3.22134">
        <ele>12</ele>
        <time>2015-02-15T09:37:27Z</time>
      </trkpt>
      <trkpt lat="48.78445" lon="-3.22143">
        <ele>12</ele>
        <time>2015-02-15T09:37:28Z</time>
      </trkpt>
      <trkpt lat="48.78448" lon="-3.22153">
        <ele>12</ele>
        <time>2015-02-15T09:37:29Z</time>
      </trkpt>
      <trkpt lat="48.78451" lon="-3.22162">
        <ele>12</ele>
        <time>2015-02-15T09:37:30Z</time>
      </trkpt>
      <trkpt lat="48.78454" lon="-3.22171">
        <ele>12</ele>
        <time>2015-02-15T09:37:31Z</time>
      </trkpt>
      <trkpt lat="48.78457" lon="-3.22178">
        <ele>12</ele>
        <time>2015-02-15T09:37:32Z</time>
      </trkpt>
      <trkpt lat="48.7846" lon="-3.22185">
        <ele>12</ele>
        <time>2015-02-15T09:37:33Z</time>
      </trkpt>
      <trkpt lat="48.78463" lon="-3.22192">
        <ele>12</ele>
        <time>2015-02-15T09:37:34Z</time>
      </trkpt>
      <trkpt lat="48.78466" lon="-3.22199">
        <ele>12</ele>
        <time>2015-02-15T09:37:35Z</time>
      </trkpt>
      <trkpt lat="48.7847" lon="-3.22206">
        <ele>12</ele>
        <time>2015-02-15T09:37:36Z</time>
      </trkpt>
      <trkpt lat="48.78474" lon="-3.22213">
        <ele>12</ele>
        <time>2015-02-15T09:37:37Z</time>
      </trkpt>
      <trkpt lat="48.78479" lon="-3.22219">
        <ele>12</ele>
        <time>2015-02-15T09:37:38Z</time>
      </trkpt>
      <trkpt lat="48.78484" lon="-3.22226">
        <ele>12</ele>
        <time>2015-02-15T09:37:39Z</time>
      </trkpt>
      <trkpt lat="48.7849" lon="-3.22232">
        <ele>12</ele>
        <time>2015-02-15T09:37:40Z</time>
      </trkpt>
      <trkpt lat="48.78497" lon="-3.22238">
        <ele>12</ele>
        <time>2015-02-15T09:37:41Z</time>
      </trkpt>
      <trkpt lat="48.78505" lon="-3.22243">
        <ele>12</ele>
        <time>2015-02-15T09:37:42Z</time>
      </trkpt>
      <trkpt lat="48.78512" lon="-3.22248">
        <ele>11</ele>
        <time>2015-02-15T09:37:43Z</time>
      </trkpt>
      <trkpt lat="48.78519" lon="-3.22253">
        <ele>11</ele>
        <time>2015-02-15T09:37:44Z</time>
      </trkpt>
      <trkpt lat="48.78527" lon="-3.2226">
        <ele>11</ele>
        <time>2015-02-15T09:37:45Z</time>
      </trkpt>
      <trkpt lat="48.78535" lon="-3.22266">
        <ele>11</ele>
        <time>2015-02-15T09:37:46Z</time>
      </trkpt>
      <trkpt lat="48.78543" lon="-3.22272">
        <ele>11</ele>
        <time>2015-02-15T09:37:47Z</time>
      </trkpt>
      <trkpt lat="48.78551" lon="-3.22279">
        <ele>11</ele>
        <time>2015-02-15T09:37:48Z</time>
      </trkpt>
      <trkpt lat="48.7856" lon="-3.22285">
        <ele>11</ele>
        <time>2015-02-15T09:37:49Z</time>
      </trkpt>
      <trkpt lat="48.78569" lon="-3.22292">
        <ele>11</ele>
        <time>2015-02-15T09:37:50Z</time>
      </trkpt>
      <trkpt lat="48.78578" lon="-3.22299">
        <ele>10</ele>
        <time>2015-02-15T09:37:51Z</time>
      </trkpt>
      <trkpt lat="48.78587" lon="-3.22306">
        <ele>10</ele>
        <time>2015-02-15T09:37:52Z</time>
      </trkpt>
      <trkpt lat="48.78596" lon="-3.22314">
        <ele>10</ele>
        <time>2015-02-15T09:37:53Z</time>
      </trkpt>
      <trkpt lat="48.78605" lon="-3.22321">
        <ele>10</ele>
        <time>2015-02-15T09:37:54Z</time>
      </trkpt>
      <trkpt lat="48.78614" lon="-3.22328">
        <ele>10</ele>
        <time>2015-02-15T09:37:55Z</time>
      </trkpt>
      <trkpt lat="48.78622" lon="-3.22334">
        <ele>10</ele>
        <time>2015-02-15T09:37:56Z</time>
      </trkpt>
      <trkpt lat="48.7863" lon="-3.2234">
        <ele>10</ele>
        <time>2015-02-15T09:37:57Z</time>
      </trkpt>
      <trkpt lat="48.78637" lon="-3.22347">
        <ele>10</ele>
        <time>2015-02-15T09:37:58Z</time>
      </trkpt>
      <trkpt lat="48.78645" lon="-3.22352">
        <ele>10</ele>
        <time>2015-02-15T09:37:59Z</time>
      </trkpt>
      <trkpt lat="48.78652" lon="-3.22358">
        <ele>10</ele>
        <time>2015-02-15T09:38:00Z</time>
      </trkpt>
      <trkpt lat="48.78659" lon="-3.22363">
        <ele>10</ele>
        <time>2015-02-15T09:38:01Z</time>
      </trkpt>
      <trkpt lat="48.78665" lon="-3.22369">
        <ele>10</ele>
        <time>2015-02-15T09:38:02Z</time>
      </trkpt>
      <trkpt lat="48.78672" lon="-3.22374">
        <ele>10</ele>
        <time>2015-02-15T09:38:03Z</time>
      </trkpt>
      <trkpt lat="48.78679" lon="-3.22379">
        <ele>10</ele>
        <time>2015-02-15T09:38:04Z</time>
      </trkpt>
      <trkpt lat="48.78686" lon="-3.22384">
        <ele>10</ele>
        <time>2015-02-15T09:38:05Z</time>
      </trkpt>
      <trkpt lat="48.78693" lon="-3.2239">
        <ele>10</ele>
        <time>2015-02-15T09:38:06Z</time>
      </trkpt>
      <trkpt lat="48.78699" lon="-3.22395">
        <ele>10</ele>
        <time>2015-02-15T09:38:07Z</time>
      </trkpt>
      <trkpt lat="48.78706" lon="-3.22401">
        <ele>10</ele>
        <time>2015-02-15T09:38:08Z</time>
      </trkpt>
      <trkpt lat="48.78714" lon="-3.22406">
        <ele>10</ele>
        <time>2015-02-15T09:38:09Z</time>
      </trkpt>
      <trkpt lat="48.7872" lon="-3.22412">
        <ele>10</ele>
        <time>2015-02-15T09:38:10Z</time>
      </trkpt>
      <trkpt lat="48.78727" lon="-3.22418">
        <ele>10</ele>
        <time>2015-02-15T09:38:11Z</time>
      </trkpt>
      <trkpt lat="48.78735" lon="-3.22423">
        <ele>10</ele>
        <time>2015-02-15T09:38:12Z</time>
      </trkpt>
      <trkpt lat="48.78741" lon="-3.22428">
        <ele>10</ele>
        <time>2015-02-15T09:38:13Z</time>
      </trkpt>
      <trkpt lat="48.78748" lon="-3.22434">
        <ele>10</ele>
        <time>2015-02-15T09:38:14Z</time>
      </trkpt>
      <trkpt lat="48.78756" lon="-3.2244">
        <ele>10</ele>
        <time>2015-02-15T09:38:15Z</time>
      </trkpt>
      <trkpt lat="48.78762" lon="-3.22446">
        <ele>10</ele>
        <time>2015-02-15T09:38:16Z</time>
      </trkpt>
      <trkpt lat="48.78769" lon="-3.22451">
        <ele>10</ele>
        <time>2015-02-15T09:38:17Z</time>
      </trkpt>
      <trkpt lat="48.78776" lon="-3.22457">
        <ele>10</ele>
        <time>2015-02-15T09:38:18Z</time>
      </trkpt>
      <trkpt lat="48.78783" lon="-3.22463">
        <ele>10</ele>
        <time>2015-02-15T09:38:19Z</time>
      </trkpt>
      <trkpt lat="48.78789" lon="-3.22469">
        <ele>10</ele>
        <time>2015-02-15T09:38:20Z</time>
      </trkpt>
      <trkpt lat="48.78795" lon="-3.22475">
        <ele>10</ele>
        <time>2015-02-15T09:38:21Z</time>
      </trkpt>
      <trkpt lat="48.78802" lon="-3.22481">
        <ele>10</ele>
        <time>2015-02-15T09:38:22Z</time>
      </trkpt>
      <trkpt lat="48.78808" lon="-3.22487">
        <ele>10</ele>
        <time>2015-02-15T09:38:23Z</time>
      </trkpt>
      <trkpt lat="48.78814" lon="-3.22493">
        <ele>10</ele>
        <time>2015-02-15T09:38:24Z</time>
      </trkpt>
      <trkpt lat="48.78821" lon="-3.22499">
        <ele>10</ele>
        <time>2015-02-15T09:38:25Z</time>
      </trkpt>
      <trkpt lat="48.78827" lon="-3.22506">
        <ele>10</ele>
        <time>2015-02-15T09:38:26Z</time>
      </trkpt>
      <trkpt lat="48.78833" lon="-3.22514">
        <ele>10</ele>
        <time>2015-02-15T09:38:27Z</time>
      </trkpt>
      <trkpt lat="48.78839" lon="-3.22521">
        <ele>10</ele>
        <time>2015-02-15T09:38:28Z</time>
      </trkpt>
      <trkpt lat="48.78846" lon="-3.22529">
        <ele>10</ele>
        <time>2015-02-15T09:38:29Z</time>
      </trkpt>
      <trkpt lat="48.78852" lon="-3.22536">
        <ele>10</ele>
        <time>2015-02-15T09:38:30Z</time>
      </trkpt>
      <trkpt lat="48.78859" lon="-3.22544">
        <ele>9</ele>
        <time>2015-02-15T09:38:31Z</time>
      </trkpt>
      <trkpt lat="48.78865" lon="-3.22553">
        <ele>9</ele>
        <time>2015-02-15T09:38:32Z</time>
      </trkpt>
      <trkpt lat="48.78873" lon="-3.22562">
        <ele>9</ele>
        <time>2015-02-15T09:38:33Z</time>
      </trkpt>
      <trkpt lat="48.7888" lon="-3.22571">
        <ele>9</ele>
        <time>2015-02-15T09:38:34Z</time>
      </trkpt>
      <trkpt lat="48.78886" lon="-3.2258">
        <ele>9</ele>
        <time>2015-02-15T09:38:35Z</time>
      </trkpt>
      <trkpt lat="48.78893" lon="-3.22589">
        <ele>9</ele>
        <time>2015-02-15T09:38:36Z</time>
      </trkpt>
      <trkpt lat="48.78899" lon="-3.22597">
        <ele>9</ele>
        <time>2015-02-15T09:38:37Z</time>
      </trkpt>
      <trkpt lat="48.78906" lon="-3.22606">
        <ele>9</ele>
        <time>2015-02-15T09:38:38Z</time>
      </trkpt>
      <trkpt lat="48.78912" lon="-3.22614">
        <ele>9</ele>
        <time>2015-02-15T09:38:39Z</time>
      </trkpt>
      <trkpt lat="48.78918" lon="-3.22622">
        <ele>9</ele>
        <time>2015-02-15T09:38:40Z</time>
      </trkpt>
      <trkpt lat="48.78924" lon="-3.2263">
        <ele>9</ele>
        <time>2015-02-15T09:38:41Z</time>
      </trkpt>
      <trkpt lat="48.78929" lon="-3.22638">
        <ele>9</ele>
        <time>2015-02-15T09:38:42Z</time>
      </trkpt>
      <trkpt lat="48.78935" lon="-3.22644">
        <ele>9</ele>
        <time>2015-02-15T09:38:43Z</time>
      </trkpt>
      <trkpt lat="48.78941" lon="-3.22651">
        <ele>9</ele>
        <time>2015-02-15T09:38:44Z</time>
      </trkpt>
      <trkpt lat="48.78946" lon="-3.22658">
        <ele>9</ele>
        <time>2015-02-15T09:38:45Z</time>
      </trkpt>
      <trkpt lat="48.78951" lon="-3.22665">
        <ele>9</ele>
        <time>2015-02-15T09:38:46Z</time>
      </trkpt>
      <trkpt lat="48.78956" lon="-3.22673">
        <ele>9</ele>
        <time>2015-02-15T09:38:47Z</time>
      </trkpt>
      <trkpt lat="48.78961" lon="-3.2268">
        <ele>9</ele>
        <time>2015-02-15T09:38:48Z</time>
      </trkpt>
      <trkpt lat="48.78966" lon="-3.22687">
        <ele>9</ele>
        <time>2015-02-15T09:38:49Z</time>
      </trkpt>
      <trkpt lat="48.78971" lon="-3.22694">
        <ele>9</ele>
        <time>2015-02-15T09:38:50Z</time>
      </trkpt>
      <trkpt lat="48.78977" lon="-3.22701">
        <ele>9</ele>
        <time>2015-02-15T09:38:51Z</time>
      </trkpt>
      <trkpt lat="48.78982" lon="-3.22707">
        <ele>9</ele>
        <time>2015-02-15T09:38:52Z</time>
      </trkpt>
      <trkpt lat="48.78986" lon="-3.22714">
        <ele>9</ele>
        <time>2015-02-15T09:38:53Z</time>
      </trkpt>
      <trkpt lat="48.78991" lon="-3.2272">
        <ele>9</ele>
        <time>2015-02-15T09:38:54Z</time>
      </trkpt>
      <trkpt lat="48.78995" lon="-3.22726">
        <ele>9</ele>
        <time>2015-02-15T09:38:55Z</time>
      </trkpt>
      <trkpt lat="48.78999" lon="-3.22731">
        <ele>9</ele>
        <time>2015-02-15T09:38:56Z</time>
      </trkpt>
      <trkpt lat="48.79002" lon="-3.22736">
        <ele>9</ele>
        <time>2015-02-15T09:38:57Z</time>
      </trkpt>
      <trkpt lat="48.79005" lon="-3.22741">
        <ele>9</ele>
        <time>2015-02-15T09:38:58Z</time>
      </trkpt>
      <trkpt lat="48.79009" lon="-3.22744">
        <ele>9</ele>
        <time>2015-02-15T09:38:59Z</time>
      </trkpt>
      <trkpt lat="48.79012" lon="-3.22748">
        <ele>9</ele>
        <time>2015-02-15T09:39:00Z</time>
      </trkpt>
      <trkpt lat="48.79016" lon="-3.2275">
        <ele>9</ele>
        <time>2015-02-15T09:39:01Z</time>
      </trkpt>
      <trkpt lat="48.7902" lon="-3.2275">
        <ele>9</ele>
        <time>2015-02-15T09:39:02Z</time>
      </trkpt>
      <trkpt lat="48.79025" lon="-3.22749">
        <ele>9</ele>
        <time>2015-02-15T09:39:03Z</time>
      </trkpt>
      <trkpt lat="48.79029" lon="-3.22749">
        <ele>9</ele>
        <time>2015-02-15T09:39:04Z</time>
      </trkpt>
      <trkpt lat="48.79034" lon="-3.22752">
        <ele>9</ele>
        <time>2015-02-15T09:39:05Z</time>
      </trkpt>
      <trkpt lat="48.79037" lon="-3.22756">
        <ele>9</ele>
        <time>2015-02-15T09:39:06Z</time>
      </trkpt>
      <trkpt lat="48.79041" lon="-3.22762">
        <ele>9</ele>
        <time>2015-02-15T09:39:07Z</time>
      </trkpt>
      <trkpt lat="48.79044" lon="-3.2277">
        <ele>9</ele>
        <time>2015-02-15T09:39:08Z</time>
      </trkpt>
      <trkpt lat="48.79047" lon="-3.22778">
        <ele>9</ele>
        <time>2015-02-15T09:39:09Z</time>
      </trkpt>
      <trkpt lat="48.79052" lon="-3.22786">
        <ele>9</ele>
        <time>2015-02-15T09:39:10Z</time>
      </trkpt>
      <trkpt lat="48.79056" lon="-3.22794">
        <ele>9</ele>
        <time>2015-02-15T09:39:11Z</time>
      </trkpt>
      <trkpt lat="48.7906" lon="-3.22802">
        <ele>9</ele>
        <time>2015-02-15T09:39:12Z</time>
      </trkpt>
      <trkpt lat="48.79065" lon="-3.2281">
        <ele>9</ele>
        <time>2015-02-15T09:39:13Z</time>
      </trkpt>
      <trkpt lat="48.79068" lon="-3.22819">
        <ele>9</ele>
        <time>2015-02-15T09:39:14Z</time>
      </trkpt>
      <trkpt lat="48.79073" lon="-3.22828">
        <ele>9</ele>
        <time>2015-02-15T09:39:15Z</time>
      </trkpt>
      <trkpt lat="48.79078" lon="-3.22836">
        <ele>9</ele>
        <time>2015-02-15T09:39:16Z</time>
      </trkpt>
      <trkpt lat="48.79082" lon="-3.22844">
        <ele>9</ele>
        <time>2015-02-15T09:39:17Z</time>
      </trkpt>
      <trkpt lat="48.79088" lon="-3.22852">
        <ele>9</ele>
        <time>2015-02-15T09:39:18Z</time>
      </trkpt>
      <trkpt lat="48.79094" lon="-3.2286">
        <ele>9</ele>
        <time>2015-02-15T09:39:19Z</time>
      </trkpt>
      <trkpt lat="48.79099" lon="-3.22868">
        <ele>9</ele>
        <time>2015-02-15T09:39:20Z</time>
      </trkpt>
      <trkpt lat="48.79105" lon="-3.22877">
        <ele>9</ele>
        <time>2015-02-15T09:39:21Z</time>
      </trkpt>
      <trkpt lat="48.7911" lon="-3.22886">
        <ele>9</ele>
        <time>2015-02-15T09:39:22Z</time>
      </trkpt>
      <trkpt lat="48.79114" lon="-3.22896">
        <ele>9</ele>
        <time>2015-02-15T09:39:23Z</time>
      </trkpt>
      <trkpt lat="48.79117" lon="-3.22907">
        <ele>9</ele>
        <time>2015-02-15T09:39:24Z</time>
      </trkpt>
      <trkpt lat="48.79118" lon="-3.22919">
        <ele>9</ele>
        <time>2015-02-15T09:39:25Z</time>
      </trkpt>
      <trkpt lat="48.79119" lon="-3.2293">
        <ele>9</ele>
        <time>2015-02-15T09:39:26Z</time>
      </trkpt>
      <trkpt lat="48.79118" lon="-3.22942">
        <ele>9</ele>
        <time>2015-02-15T09:39:27Z</time>
      </trkpt>
      <trkpt lat="48.79117" lon="-3.22954">
        <ele>9</ele>
        <time>2015-02-15T09:39:28Z</time>
      </trkpt>
      <trkpt lat="48.79114" lon="-3.22964">
        <ele>9</ele>
        <time>2015-02-15T09:39:29Z</time>
      </trkpt>
      <trkpt lat="48.79111" lon="-3.22974">
        <ele>9</ele>
        <time>2015-02-15T09:39:30Z</time>
      </trkpt>
      <trkpt lat="48.79108" lon="-3.22984">
        <ele>9</ele>
        <time>2015-02-15T09:39:31Z</time>
      </trkpt>
      <trkpt lat="48.79105" lon="-3.22994">
        <ele>9</ele>
        <time>2015-02-15T09:39:32Z</time>
      </trkpt>
      <trkpt lat="48.79101" lon="-3.23004">
        <ele>9</ele>
        <time>2015-02-15T09:39:33Z</time>
      </trkpt>
      <trkpt lat="48.79098" lon="-3.23014">
        <ele>9</ele>
        <time>2015-02-15T09:39:34Z</time>
      </trkpt>
      <trkpt lat="48.79096" lon="-3.23024">
        <ele>9</ele>
        <time>2015-02-15T09:39:35Z</time>
      </trkpt>
      <trkpt lat="48.79094" lon="-3.23034">
        <ele>9</ele>
        <time>2015-02-15T09:39:36Z</time>
      </trkpt>
      <trkpt lat="48.79093" lon="-3.23045">
        <ele>9</ele>
        <time>2015-02-15T09:39:37Z</time>
      </trkpt>
      <trkpt lat="48.79094" lon="-3.23076">
        <ele>9</ele>
        <time>2015-02-15T09:39:40Z</time>
      </trkpt>
      <trkpt lat="48.79094" lon="-3.23087">
        <ele>9</ele>
        <time>2015-02-15T09:39:41Z</time>
      </trkpt>
      <trkpt lat="48.79095" lon="-3.23098">
        <ele>9</ele>
        <time>2015-02-15T09:39:42Z</time>
      </trkpt>
      <trkpt lat="48.79095" lon="-3.23109">
        <ele>9</ele>
        <time>2015-02-15T09:39:43Z</time>
      </trkpt>
      <trkpt lat="48.79096" lon="-3.2312">
        <ele>9</ele>
        <time>2015-02-15T09:39:44Z</time>
      </trkpt>
      <trkpt lat="48.79096" lon="-3.23131">
        <ele>9</ele>
        <time>2015-02-15T09:39:45Z</time>
      </trkpt>
      <trkpt lat="48.79097" lon="-3.23142">
        <ele>9</ele>
        <time>2015-02-15T09:39:46Z</time>
      </trkpt>
      <trkpt lat="48.79097" lon="-3.23153">
        <ele>9</ele>
        <time>2015-02-15T09:39:47Z</time>
      </trkpt>
      <trkpt lat="48.79098" lon="-3.23164">
        <ele>9</ele>
        <time>2015-02-15T09:39:48Z</time>
      </trkpt>
      <trkpt lat="48.79099" lon="-3.23175">
        <ele>9</ele>
        <time>2015-02-15T09:39:49Z</time>
      </trkpt>
      <trkpt lat="48.79098" lon="-3.23197">
        <ele>9</ele>
        <time>2015-02-15T09:39:51Z</time>
      </trkpt>
      <trkpt lat="48.79097" lon="-3.23208">
        <ele>9</ele>
        <time>2015-02-15T09:39:52Z</time>
      </trkpt>
      <trkpt lat="48.79094" lon="-3.23218">
        <ele>9</ele>
        <time>2015-02-15T09:39:53Z</time>
      </trkpt>
      <trkpt lat="48.79091" lon="-3.23228">
        <ele>9</ele>
        <time>2015-02-15T09:39:54Z</time>
      </trkpt>
      <trkpt lat="48.79087" lon="-3.23237">
        <ele>9</ele>
        <time>2015-02-15T09:39:55Z</time>
      </trkpt>
      <trkpt lat="48.79082" lon="-3.23247">
        <ele>9</ele>
        <time>2015-02-15T09:39:56Z</time>
      </trkpt>
      <trkpt lat="48.79077" lon="-3.23256">
        <ele>9</ele>
        <time>2015-02-15T09:39:57Z</time>
      </trkpt>
      <trkpt lat="48.79073" lon="-3.23265">
        <ele>9</ele>
        <time>2015-02-15T09:39:58Z</time>
      </trkpt>
      <trkpt lat="48.79069" lon="-3.23274">
        <ele>9</ele>
        <time>2015-02-15T09:39:59Z</time>
      </trkpt>
      <trkpt lat="48.79065" lon="-3.23284">
        <ele>9</ele>
        <time>2015-02-15T09:40:00Z</time>
      </trkpt>
      <trkpt lat="48.79062" lon="-3.23293">
        <ele>9</ele>
        <time>2015-02-15T09:40:01Z</time>
      </trkpt>
      <trkpt lat="48.79059" lon="-3.23302">
        <ele>9</ele>
        <time>2015-02-15T09:40:02Z</time>
      </trkpt>
      <trkpt lat="48.79057" lon="-3.23311">
        <ele>10</ele>
        <time>2015-02-15T09:40:03Z</time>
      </trkpt>
      <trkpt lat="48.79054" lon="-3.23319">
        <ele>10</ele>
        <time>2015-02-15T09:40:04Z</time>
      </trkpt>
      <trkpt lat="48.79053" lon="-3.23327">
        <ele>10</ele>
        <time>2015-02-15T09:40:05Z</time>
      </trkpt>
      <trkpt lat="48.79051" lon="-3.23335">
        <ele>10</ele>
        <time>2015-02-15T09:40:06Z</time>
      </trkpt>
      <trkpt lat="48.7905" lon="-3.23343">
        <ele>11</ele>
        <time>2015-02-15T09:40:07Z</time>
      </trkpt>
      <trkpt lat="48.79049" lon="-3.23351">
        <ele>11</ele>
        <time>2015-02-15T09:40:08Z</time>
      </trkpt>
      <trkpt lat="48.79047" lon="-3.23358">
        <ele>11</ele>
        <time>2015-02-15T09:40:09Z</time>
      </trkpt>
      <trkpt lat="48.79046" lon="-3.23366">
        <ele>11</ele>
        <time>2015-02-15T09:40:10Z</time>
      </trkpt>
      <trkpt lat="48.79045" lon="-3.23374">
        <ele>12</ele>
        <time>2015-02-15T09:40:11Z</time>
      </trkpt>
      <trkpt lat="48.79044" lon="-3.23381">
        <ele>12</ele>
        <time>2015-02-15T09:40:12Z</time>
      </trkpt>
      <trkpt lat="48.79042" lon="-3.23388">
        <ele>12</ele>
        <time>2015-02-15T09:40:13Z</time>
      </trkpt>
      <trkpt lat="48.79041" lon="-3.23395">
        <ele>13</ele>
        <time>2015-02-15T09:40:14Z</time>
      </trkpt>
      <trkpt lat="48.7904" lon="-3.23402">
        <ele>13</ele>
        <time>2015-02-15T09:40:15Z</time>
      </trkpt>
      <trkpt lat="48.79039" lon="-3.23409">
        <ele>13</ele>
        <time>2015-02-15T09:40:16Z</time>
      </trkpt>
      <trkpt lat="48.79038" lon="-3.23415">
        <ele>13</ele>
        <time>2015-02-15T09:40:17Z</time>
      </trkpt>
      <trkpt lat="48.79037" lon="-3.23422">
        <ele>14</ele>
        <time>2015-02-15T09:40:18Z</time>
      </trkpt>
      <trkpt lat="48.79036" lon="-3.23429">
        <ele>14</ele>
        <time>2015-02-15T09:40:19Z</time>
      </trkpt>
      <trkpt lat="48.79035" lon="-3.23436">
        <ele>14</ele>
        <time>2015-02-15T09:40:20Z</time>
      </trkpt>
      <trkpt lat="48.79034" lon="-3.23443">
        <ele>15</ele>
        <time>2015-02-15T09:40:21Z</time>
      </trkpt>
      <trkpt lat="48.79033" lon="-3.2345">
        <ele>15</ele>
        <time>2015-02-15T09:40:22Z</time>
      </trkpt>
      <trkpt lat="48.79033" lon="-3.23457">
        <ele>15</ele>
        <time>2015-02-15T09:40:23Z</time>
      </trkpt>
      <trkpt lat="48.79033" lon="-3.23471">
        <ele>15</ele>
        <time>2015-02-15T09:40:25Z</time>
      </trkpt>
      <trkpt lat="48.79034" lon="-3.23478">
        <ele>15</ele>
        <time>2015-02-15T09:40:26Z</time>
      </trkpt>
      <trkpt lat="48.79035" lon="-3.23485">
        <ele>16</ele>
        <time>2015-02-15T09:40:27Z</time>
      </trkpt>
      <trkpt lat="48.79036" lon="-3.23492">
        <ele>16</ele>
        <time>2015-02-15T09:40:28Z</time>
      </trkpt>
      <trkpt lat="48.79037" lon="-3.23499">
        <ele>16</ele>
        <time>2015-02-15T09:40:29Z</time>
      </trkpt>
      <trkpt lat="48.79039" lon="-3.23505">
        <ele>17</ele>
        <time>2015-02-15T09:40:30Z</time>
      </trkpt>
      <trkpt lat="48.79042" lon="-3.23512">
        <ele>17</ele>
        <time>2015-02-15T09:40:31Z</time>
      </trkpt>
      <trkpt lat="48.79044" lon="-3.23517">
        <ele>17</ele>
        <time>2015-02-15T09:40:32Z</time>
      </trkpt>
      <trkpt lat="48.79048" lon="-3.23523">
        <ele>18</ele>
        <time>2015-02-15T09:40:33Z</time>
      </trkpt>
      <trkpt lat="48.79052" lon="-3.23528">
        <ele>18</ele>
        <time>2015-02-15T09:40:34Z</time>
      </trkpt>
      <trkpt lat="48.79055" lon="-3.23532">
        <ele>18</ele>
        <time>2015-02-15T09:40:35Z</time>
      </trkpt>
      <trkpt lat="48.7906" lon="-3.23535">
        <ele>18</ele>
        <time>2015-02-15T09:40:36Z</time>
      </trkpt>
      <trkpt lat="48.79064" lon="-3.23538">
        <ele>19</ele>
        <time>2015-02-15T09:40:37Z</time>
      </trkpt>
      <trkpt lat="48.79068" lon="-3.2354">
        <ele>19</ele>
        <time>2015-02-15T09:40:38Z</time>
      </trkpt>
      <trkpt lat="48.79073" lon="-3.23543">
        <ele>19</ele>
        <time>2015-02-15T09:40:39Z</time>
      </trkpt>
      <trkpt lat="48.79078" lon="-3.23545">
        <ele>20</ele>
        <time>2015-02-15T09:40:40Z</time>
      </trkpt>
      <trkpt lat="48.79082" lon="-3.23547">
        <ele>20</ele>
        <time>2015-02-15T09:40:41Z</time>
      </trkpt>
      <trkpt lat="48.79087" lon="-3.23549">
        <ele>20</ele>
        <time>2015-02-15T09:40:42Z</time>
      </trkpt>
      <trkpt lat="48.79092" lon="-3.23551">
        <ele>21</ele>
        <time>2015-02-15T09:40:43Z</time>
      </trkpt>
      <trkpt lat="48.79096" lon="-3.23553">
        <ele>21</ele>
        <time>2015-02-15T09:40:44Z</time>
      </trkpt>
      <trkpt lat="48.79101" lon="-3.23555">
        <ele>21</ele>
        <time>2015-02-15T09:40:45Z</time>
      </trkpt>
      <trkpt lat="48.79105" lon="-3.23557">
        <ele>22</ele>
        <time>2015-02-15T09:40:46Z</time>
      </trkpt>
      <trkpt lat="48.7911" lon="-3.23559">
        <ele>22</ele>
        <time>2015-02-15T09:40:47Z</time>
      </trkpt>
      <trkpt lat="48.79114" lon="-3.23561">
        <ele>22</ele>
        <time>2015-02-15T09:40:48Z</time>
      </trkpt>
      <trkpt lat="48.79119" lon="-3.23563">
        <ele>22</ele>
        <time>2015-02-15T09:40:49Z</time>
      </trkpt>
      <trkpt lat="48.79123" lon="-3.23565">
        <ele>23</ele>
        <time>2015-02-15T09:40:50Z</time>
      </trkpt>
      <trkpt lat="48.79127" lon="-3.23567">
        <ele>23</ele>
        <time>2015-02-15T09:40:51Z</time>
      </trkpt>
      <trkpt lat="48.79131" lon="-3.23569">
        <ele>23</ele>
        <time>2015-02-15T09:40:52Z</time>
      </trkpt>
      <trkpt lat="48.79136" lon="-3.23572">
        <ele>23</ele>
        <time>2015-02-15T09:40:53Z</time>
      </trkpt>
      <trkpt lat="48.7914" lon="-3.23574">
        <ele>24</ele>
        <time>2015-02-15T09:40:54Z</time>
      </trkpt>
      <trkpt lat="48.79145" lon="-3.23576">
        <ele>24</ele>
        <time>2015-02-15T09:40:55Z</time>
      </trkpt>
      <trkpt lat="48.7915" lon="-3.23578">
        <ele>24</ele>
        <time>2015-02-15T09:40:56Z</time>
      </trkpt>
      <trkpt lat="48.79154" lon="-3.2358">
        <ele>25</ele>
        <time>2015-02-15T09:40:57Z</time>
      </trkpt>
      <trkpt lat="48.79159" lon="-3.23582">
        <ele>25</ele>
        <time>2015-02-15T09:40:58Z</time>
      </trkpt>
      <trkpt lat="48.79163" lon="-3.23584">
        <ele>25</ele>
        <time>2015-02-15T09:40:59Z</time>
      </trkpt>
      <trkpt lat="48.79168" lon="-3.23585">
        <ele>25</ele>
        <time>2015-02-15T09:41:00Z</time>
      </trkpt>
      <trkpt lat="48.79173" lon="-3.23587">
        <ele>26</ele>
        <time>2015-02-15T09:41:01Z</time>
      </trkpt>
      <trkpt lat="48.79177" lon="-3.23589">
        <ele>26</ele>
        <time>2015-02-15T09:41:02Z</time>
      </trkpt>
      <trkpt lat="48.79182" lon="-3.23591">
        <ele>26</ele>
        <time>2015-02-15T09:41:03Z</time>
      </trkpt>
      <trkpt lat="48.79186" lon="-3.23593">
        <ele>26</ele>
        <time>2015-02-15T09:41:04Z</time>
      </trkpt>
      <trkpt lat="48.7919" lon="-3.23595">
        <ele>27</ele>
        <time>2015-02-15T09:41:05Z</time>
      </trkpt>
      <trkpt lat="48.79195" lon="-3.23597">
        <ele>27</ele>
        <time>2015-02-15T09:41:06Z</time>
      </trkpt>
      <trkpt lat="48.79199" lon="-3.23599">
        <ele>27</ele>
        <time>2015-02-15T09:41:07Z</time>
      </trkpt>
      <trkpt lat="48.79203" lon="-3.23601">
        <ele>27</ele>
        <time>2015-02-15T09:41:08Z</time>
      </trkpt>
      <trkpt lat="48.79207" lon="-3.23603">
        <ele>28</ele>
        <time>2015-02-15T09:41:09Z</time>
      </trkpt>
      <trkpt lat="48.79211" lon="-3.23605">
        <ele>28</ele>
        <time>2015-02-15T09:41:10Z</time>
      </trkpt>
      <trkpt lat="48.79216" lon="-3.23607">
        <ele>28</ele>
        <time>2015-02-15T09:41:11Z</time>
      </trkpt>
      <trkpt lat="48.79219" lon="-3.23609">
        <ele>28</ele>
        <time>2015-02-15T09:41:12Z</time>
      </trkpt>
      <trkpt lat="48.79223" lon="-3.2361">
        <ele>29</ele>
        <time>2015-02-15T09:41:13Z</time>
      </trkpt>
      <trkpt lat="48.79227" lon="-3.23611">
        <ele>29</ele>
        <time>2015-02-15T09:41:14Z</time>
      </trkpt>
      <trkpt lat="48.79232" lon="-3.23612">
        <ele>29</ele>
        <time>2015-02-15T09:41:15Z</time>
      </trkpt>
      <trkpt lat="48.79236" lon="-3.23613">
        <ele>29</ele>
        <time>2015-02-15T09:41:16Z</time>
      </trkpt>
      <trkpt lat="48.7924" lon="-3.23613">
        <ele>29</ele>
        <time>2015-02-15T09:41:17Z</time>
      </trkpt>
      <trkpt lat="48.79248" lon="-3.23613">
        <ele>30</ele>
        <time>2015-02-15T09:41:19Z</time>
      </trkpt>
      <trkpt lat="48.79253" lon="-3.23612">
        <ele>30</ele>
        <time>2015-02-15T09:41:20Z</time>
      </trkpt>
      <trkpt lat="48.79257" lon="-3.23611">
        <ele>30</ele>
        <time>2015-02-15T09:41:21Z</time>
      </trkpt>
      <trkpt lat="48.79261" lon="-3.23609">
        <ele>31</ele>
        <time>2015-02-15T09:41:22Z</time>
      </trkpt>
      <trkpt lat="48.79265" lon="-3.23607">
        <ele>31</ele>
        <time>2015-02-15T09:41:23Z</time>
      </trkpt>
      <trkpt lat="48.79269" lon="-3.23605">
        <ele>31</ele>
        <time>2015-02-15T09:41:24Z</time>
      </trkpt>
      <trkpt lat="48.79272" lon="-3.23603">
        <ele>31</ele>
        <time>2015-02-15T09:41:25Z</time>
      </trkpt>
      <trkpt lat="48.79276" lon="-3.23601">
        <ele>32</ele>
        <time>2015-02-15T09:41:26Z</time>
      </trkpt>
      <trkpt lat="48.79279" lon="-3.23598">
        <ele>32</ele>
        <time>2015-02-15T09:41:27Z</time>
      </trkpt>
      <trkpt lat="48.79282" lon="-3.23595">
        <ele>32</ele>
        <time>2015-02-15T09:41:28Z</time>
      </trkpt>
      <trkpt lat="48.79286" lon="-3.23592">
        <ele>32</ele>
        <time>2015-02-15T09:41:29Z</time>
      </trkpt>
      <trkpt lat="48.7929" lon="-3.23588">
        <ele>33</ele>
        <time>2015-02-15T09:41:30Z</time>
      </trkpt>
      <trkpt lat="48.79293" lon="-3.23585">
        <ele>33</ele>
        <time>2015-02-15T09:41:31Z</time>
      </trkpt>
      <trkpt lat="48.79297" lon="-3.23581">
        <ele>33</ele>
        <time>2015-02-15T09:41:32Z</time>
      </trkpt>
      <trkpt lat="48.79301" lon="-3.23578">
        <ele>33</ele>
        <time>2015-02-15T09:41:33Z</time>
      </trkpt>
      <trkpt lat="48.79305" lon="-3.23574">
        <ele>34</ele>
        <time>2015-02-15T09:41:34Z</time>
      </trkpt>
      <trkpt lat="48.79309" lon="-3.23571">
        <ele>34</ele>
        <time>2015-02-15T09:41:35Z</time>
      </trkpt>
      <trkpt lat="48.79314" lon="-3.23568">
        <ele>34</ele>
        <time>2015-02-15T09:41:36Z</time>
      </trkpt>
      <trkpt lat="48.79319" lon="-3.23566">
        <ele>34</ele>
        <time>2015-02-15T09:41:37Z</time>
      </trkpt>
      <trkpt lat="48.79324" lon="-3.23563">
        <ele>35</ele>
        <time>2015-02-15T09:41:38Z</time>
      </trkpt>
      <trkpt lat="48.79329" lon="-3.23561">
        <ele>35</ele>
        <time>2015-02-15T09:41:39Z</time>
      </trkpt>
      <trkpt lat="48.79333" lon="-3.23559">
        <ele>35</ele>
        <time>2015-02-15T09:41:40Z</time>
      </trkpt>
      <trkpt lat="48.79338" lon="-3.23558">
        <ele>36</ele>
        <time>2015-02-15T09:41:41Z</time>
      </trkpt>
      <trkpt lat="48.79343" lon="-3.23557">
        <ele>36</ele>
        <time>2015-02-15T09:41:42Z</time>
      </trkpt>
      <trkpt lat="48.79348" lon="-3.23557">
        <ele>36</ele>
        <time>2015-02-15T09:41:43Z</time>
      </trkpt>
      <trkpt lat="48.79353" lon="-3.23557">
        <ele>36</ele>
        <time>2015-02-15T09:41:44Z</time>
      </trkpt>
      <trkpt lat="48.79357" lon="-3.23557">
        <ele>37</ele>
        <time>2015-02-15T09:41:45Z</time>
      </trkpt>
      <trkpt lat="48.79362" lon="-3.23558">
        <ele>37</ele>
        <time>2015-02-15T09:41:46Z</time>
      </trkpt>
      <trkpt lat="48.79367" lon="-3.23558">
        <ele>37</ele>
        <time>2015-02-15T09:41:47Z</time>
      </trkpt>
      <trkpt lat="48.79371" lon="-3.23559">
        <ele>37</ele>
        <time>2015-02-15T09:41:48Z</time>
      </trkpt>
      <trkpt lat="48.79376" lon="-3.2356">
        <ele>38</ele>
        <time>2015-02-15T09:41:49Z</time>
      </trkpt>
      <trkpt lat="48.79381" lon="-3.23561">
        <ele>38</ele>
        <time>2015-02-15T09:41:50Z</time>
      </trkpt>
      <trkpt lat="48.79385" lon="-3.23562">
        <ele>38</ele>
        <time>2015-02-15T09:41:51Z</time>
      </trkpt>
      <trkpt lat="48.7939" lon="-3.23564">
        <ele>38</ele>
        <time>2015-02-15T09:41:52Z</time>
      </trkpt>
      <trkpt lat="48.79395" lon="-3.23565">
        <ele>39</ele>
        <time>2015-02-15T09:41:53Z</time>
      </trkpt>
      <trkpt lat="48.79399" lon="-3.23567">
        <ele>39</ele>
        <time>2015-02-15T09:41:54Z</time>
      </trkpt>
      <trkpt lat="48.79404" lon="-3.23569">
        <ele>39</ele>
        <time>2015-02-15T09:41:55Z</time>
      </trkpt>
      <trkpt lat="48.79409" lon="-3.2357">
        <ele>39</ele>
        <time>2015-02-15T09:41:56Z</time>
      </trkpt>
      <trkpt lat="48.79413" lon="-3.23572">
        <ele>40</ele>
        <time>2015-02-15T09:41:57Z</time>
      </trkpt>
      <trkpt lat="48.79417" lon="-3.23573">
        <ele>40</ele>
        <time>2015-02-15T09:41:58Z</time>
      </trkpt>
      <trkpt lat="48.79422" lon="-3.23575">
        <ele>40</ele>
        <time>2015-02-15T09:41:59Z</time>
      </trkpt>
      <trkpt lat="48.79426" lon="-3.23577">
        <ele>40</ele>
        <time>2015-02-15T09:42:00Z</time>
      </trkpt>
      <trkpt lat="48.7943" lon="-3.23579">
        <ele>41</ele>
        <time>2015-02-15T09:42:01Z</time>
      </trkpt>
      <trkpt lat="48.79435" lon="-3.23581">
        <ele>41</ele>
        <time>2015-02-15T09:42:02Z</time>
      </trkpt>
      <trkpt lat="48.79439" lon="-3.23582">
        <ele>41</ele>
        <time>2015-02-15T09:42:03Z</time>
      </trkpt>
      <trkpt lat="48.79443" lon="-3.23584">
        <ele>41</ele>
        <time>2015-02-15T09:42:04Z</time>
      </trkpt>
      <trkpt lat="48.79448" lon="-3.23586">
        <ele>42</ele>
        <time>2015-02-15T09:42:05Z</time>
      </trkpt>
      <trkpt lat="48.79452" lon="-3.23588">
        <ele>42</ele>
        <time>2015-02-15T09:42:06Z</time>
      </trkpt>
      <trkpt lat="48.79456" lon="-3.2359">
        <ele>42</ele>
        <time>2015-02-15T09:42:07Z</time>
      </trkpt>
      <trkpt lat="48.79461" lon="-3.23592">
        <ele>42</ele>
        <time>2015-02-15T09:42:08Z</time>
      </trkpt>
      <trkpt lat="48.79465" lon="-3.23595">
        <ele>43</ele>
        <time>2015-02-15T09:42:09Z</time>
      </trkpt>
      <trkpt lat="48.79469" lon="-3.23597">
        <ele>43</ele>
        <time>2015-02-15T09:42:10Z</time>
      </trkpt>
      <trkpt lat="48.79474" lon="-3.236">
        <ele>43</ele>
        <time>2015-02-15T09:42:11Z</time>
      </trkpt>
      <trkpt lat="48.79477" lon="-3.23603">
        <ele>43</ele>
        <time>2015-02-15T09:42:12Z</time>
      </trkpt>
      <trkpt lat="48.79481" lon="-3.23606">
        <ele>44</ele>
        <time>2015-02-15T09:42:13Z</time>
      </trkpt>
      <trkpt lat="48.79485" lon="-3.2361">
        <ele>44</ele>
        <time>2015-02-15T09:42:14Z</time>
      </trkpt>
      <trkpt lat="48.79489" lon="-3.23614">
        <ele>44</ele>
        <time>2015-02-15T09:42:15Z</time>
      </trkpt>
      <trkpt lat="48.79493" lon="-3.23618">
        <ele>44</ele>
        <time>2015-02-15T09:42:16Z</time>
      </trkpt>
      <trkpt lat="48.79497" lon="-3.23622">
        <ele>44</ele>
        <time>2015-02-15T09:42:17Z</time>
      </trkpt>
      <trkpt lat="48.79501" lon="-3.23626">
        <ele>44</ele>
        <time>2015-02-15T09:42:18Z</time>
      </trkpt>
      <trkpt lat="48.79505" lon="-3.23631">
        <ele>45</ele>
        <time>2015-02-15T09:42:19Z</time>
      </trkpt>
      <trkpt lat="48.79509" lon="-3.23635">
        <ele>45</ele>
        <time>2015-02-15T09:42:20Z</time>
      </trkpt>
      <trkpt lat="48.79513" lon="-3.23639">
        <ele>45</ele>
        <time>2015-02-15T09:42:21Z</time>
      </trkpt>
      <trkpt lat="48.79517" lon="-3.23643">
        <ele>45</ele>
        <time>2015-02-15T09:42:22Z</time>
      </trkpt>
      <trkpt lat="48.79521" lon="-3.23648">
        <ele>46</ele>
        <time>2015-02-15T09:42:23Z</time>
      </trkpt>
      <trkpt lat="48.79525" lon="-3.23652">
        <ele>46</ele>
        <time>2015-02-15T09:42:24Z</time>
      </trkpt>
      <trkpt lat="48.7953" lon="-3.23656">
        <ele>46</ele>
        <time>2015-02-15T09:42:25Z</time>
      </trkpt>
      <trkpt lat="48.79533" lon="-3.2366">
        <ele>46</ele>
        <time>2015-02-15T09:42:26Z</time>
      </trkpt>
      <trkpt lat="48.79538" lon="-3.23664">
        <ele>47</ele>
        <time>2015-02-15T09:42:27Z</time>
      </trkpt>
      <trkpt lat="48.79541" lon="-3.23668">
        <ele>47</ele>
        <time>2015-02-15T09:42:28Z</time>
      </trkpt>
      <trkpt lat="48.79546" lon="-3.23672">
        <ele>47</ele>
        <time>2015-02-15T09:42:29Z</time>
      </trkpt>
      <trkpt lat="48.7955" lon="-3.23675">
        <ele>48</ele>
        <time>2015-02-15T09:42:30Z</time>
      </trkpt>
      <trkpt lat="48.79555" lon="-3.23677">
        <ele>48</ele>
        <time>2015-02-15T09:42:31Z</time>
      </trkpt>
      <trkpt lat="48.7956" lon="-3.23678">
        <ele>48</ele>
        <time>2015-02-15T09:42:32Z</time>
      </trkpt>
      <trkpt lat="48.79565" lon="-3.23678">
        <ele>48</ele>
        <time>2015-02-15T09:42:33Z</time>
      </trkpt>
      <trkpt lat="48.79569" lon="-3.23679">
        <ele>49</ele>
        <time>2015-02-15T09:42:34Z</time>
      </trkpt>
      <trkpt lat="48.79579" lon="-3.23678">
        <ele>49</ele>
        <time>2015-02-15T09:42:36Z</time>
      </trkpt>
      <trkpt lat="48.79585" lon="-3.23678">
        <ele>49</ele>
        <time>2015-02-15T09:42:37Z</time>
      </trkpt>
      <trkpt lat="48.7959" lon="-3.23678">
        <ele>49</ele>
        <time>2015-02-15T09:42:38Z</time>
      </trkpt>
      <trkpt lat="48.79595" lon="-3.23677">
        <ele>50</ele>
        <time>2015-02-15T09:42:39Z</time>
      </trkpt>
      <trkpt lat="48.796" lon="-3.23677">
        <ele>50</ele>
        <time>2015-02-15T09:42:40Z</time>
      </trkpt>
      <trkpt lat="48.79606" lon="-3.23677">
        <ele>50</ele>
        <time>2015-02-15T09:42:41Z</time>
      </trkpt>
      <trkpt lat="48.79611" lon="-3.23677">
        <ele>50</ele>
        <time>2015-02-15T09:42:42Z</time>
      </trkpt>
      <trkpt lat="48.79617" lon="-3.23676">
        <ele>50</ele>
        <time>2015-02-15T09:42:43Z</time>
      </trkpt>
      <trkpt lat="48.79622" lon="-3.23676">
        <ele>50</ele>
        <time>2015-02-15T09:42:44Z</time>
      </trkpt>
      <trkpt lat="48.79628" lon="-3.23675">
        <ele>50</ele>
        <time>2015-02-15T09:42:45Z</time>
      </trkpt>
      <trkpt lat="48.79633" lon="-3.23675">
        <ele>50</ele>
        <time>2015-02-15T09:42:46Z</time>
      </trkpt>
      <trkpt lat="48.79639" lon="-3.23675">
        <ele>51</ele>
        <time>2015-02-15T09:42:47Z</time>
      </trkpt>
      <trkpt lat="48.79644" lon="-3.23675">
        <ele>51</ele>
        <time>2015-02-15T09:42:48Z</time>
      </trkpt>
      <trkpt lat="48.7965" lon="-3.23674">
        <ele>51</ele>
        <time>2015-02-15T09:42:49Z</time>
      </trkpt>
      <trkpt lat="48.79655" lon="-3.23674">
        <ele>51</ele>
        <time>2015-02-15T09:42:50Z</time>
      </trkpt>
      <trkpt lat="48.79661" lon="-3.23673">
        <ele>51</ele>
        <time>2015-02-15T09:42:51Z</time>
      </trkpt>
      <trkpt lat="48.79667" lon="-3.23674">
        <ele>51</ele>
        <time>2015-02-15T09:42:52Z</time>
      </trkpt>
      <trkpt lat="48.79672" lon="-3.23675">
        <ele>51</ele>
        <time>2015-02-15T09:42:53Z</time>
      </trkpt>
      <trkpt lat="48.79677" lon="-3.23678">
        <ele>51</ele>
        <time>2015-02-15T09:42:54Z</time>
      </trkpt>
      <trkpt lat="48.79682" lon="-3.23682">
        <ele>51</ele>
        <time>2015-02-15T09:42:55Z</time>
      </trkpt>
      <trkpt lat="48.79686" lon="-3.23687">
        <ele>52</ele>
        <time>2015-02-15T09:42:56Z</time>
      </trkpt>
      <trkpt lat="48.7969" lon="-3.23693">
        <ele>52</ele>
        <time>2015-02-15T09:42:57Z</time>
      </trkpt>
      <trkpt lat="48.79693" lon="-3.23701">
        <ele>52</ele>
        <time>2015-02-15T09:42:58Z</time>
      </trkpt>
      <trkpt lat="48.79696" lon="-3.23708">
        <ele>52</ele>
        <time>2015-02-15T09:42:59Z</time>
      </trkpt>
      <trkpt lat="48.79699" lon="-3.23715">
        <ele>52</ele>
        <time>2015-02-15T09:43:00Z</time>
      </trkpt>
      <trkpt lat="48.79701" lon="-3.23723">
        <ele>52</ele>
        <time>2015-02-15T09:43:01Z</time>
      </trkpt>
      <trkpt lat="48.79704" lon="-3.2373">
        <ele>52</ele>
        <time>2015-02-15T09:43:02Z</time>
      </trkpt>
      <trkpt lat="48.79706" lon="-3.23738">
        <ele>53</ele>
        <time>2015-02-15T09:43:03Z</time>
      </trkpt>
      <trkpt lat="48.79708" lon="-3.23745">
        <ele>53</ele>
        <time>2015-02-15T09:43:04Z</time>
      </trkpt>
      <trkpt lat="48.79711" lon="-3.23754">
        <ele>53</ele>
        <time>2015-02-15T09:43:05Z</time>
      </trkpt>
      <trkpt lat="48.79713" lon="-3.23761">
        <ele>54</ele>
        <time>2015-02-15T09:43:06Z</time>
      </trkpt>
      <trkpt lat="48.79715" lon="-3.23769">
        <ele>54</ele>
        <time>2015-02-15T09:43:07Z</time>
      </trkpt>
      <trkpt lat="48.79717" lon="-3.23777">
        <ele>54</ele>
        <time>2015-02-15T09:43:08Z</time>
      </trkpt>
      <trkpt lat="48.79719" lon="-3.23785">
        <ele>55</ele>
        <time>2015-02-15T09:43:09Z</time>
      </trkpt>
      <trkpt lat="48.7972" lon="-3.23793">
        <ele>55</ele>
        <time>2015-02-15T09:43:10Z</time>
      </trkpt>
      <trkpt lat="48.79721" lon="-3.238">
        <ele>56</ele>
        <time>2015-02-15T09:43:11Z</time>
      </trkpt>
      <trkpt lat="48.79723" lon="-3.23808">
        <ele>56</ele>
        <time>2015-02-15T09:43:12Z</time>
      </trkpt>
      <trkpt lat="48.79723" lon="-3.23816">
        <ele>56</ele>
        <time>2015-02-15T09:43:13Z</time>
      </trkpt>
      <trkpt lat="48.79725" lon="-3.23823">
        <ele>57</ele>
        <time>2015-02-15T09:43:14Z</time>
      </trkpt>
      <trkpt lat="48.79726" lon="-3.23831">
        <ele>57</ele>
        <time>2015-02-15T09:43:15Z</time>
      </trkpt>
      <trkpt lat="48.79727" lon="-3.23838">
        <ele>57</ele>
        <time>2015-02-15T09:43:16Z</time>
      </trkpt>
      <trkpt lat="48.79729" lon="-3.23845">
        <ele>58</ele>
        <time>2015-02-15T09:43:17Z</time>
      </trkpt>
      <trkpt lat="48.79731" lon="-3.23851">
        <ele>58</ele>
        <time>2015-02-15T09:43:18Z</time>
      </trkpt>
      <trkpt lat="48.79734" lon="-3.23857">
        <ele>58</ele>
        <time>2015-02-15T09:43:19Z</time>
      </trkpt>
      <trkpt lat="48.79738" lon="-3.2386">
        <ele>58</ele>
        <time>2015-02-15T09:43:20Z</time>
      </trkpt>
      <trkpt lat="48.79743" lon="-3.23863">
        <ele>58</ele>
        <time>2015-02-15T09:43:21Z</time>
      </trkpt>
      <trkpt lat="48.79747" lon="-3.23866">
        <ele>58</ele>
        <time>2015-02-15T09:43:22Z</time>
      </trkpt>
      <trkpt lat="48.79751" lon="-3.2387">
        <ele>59</ele>
        <time>2015-02-15T09:43:23Z</time>
      </trkpt>
      <trkpt lat="48.79755" lon="-3.23873">
        <ele>59</ele>
        <time>2015-02-15T09:43:24Z</time>
      </trkpt>
      <trkpt lat="48.7976" lon="-3.23876">
        <ele>59</ele>
        <time>2015-02-15T09:43:25Z</time>
      </trkpt>
      <trkpt lat="48.79765" lon="-3.23878">
        <ele>59</ele>
        <time>2015-02-15T09:43:26Z</time>
      </trkpt>
      <trkpt lat="48.79769" lon="-3.2388">
        <ele>60</ele>
        <time>2015-02-15T09:43:27Z</time>
      </trkpt>
      <trkpt lat="48.79774" lon="-3.23883">
        <ele>60</ele>
        <time>2015-02-15T09:43:28Z</time>
      </trkpt>
      <trkpt lat="48.79779" lon="-3.23886">
        <ele>60</ele>
        <time>2015-02-15T09:43:29Z</time>
      </trkpt>
      <trkpt lat="48.79784" lon="-3.23888">
        <ele>60</ele>
        <time>2015-02-15T09:43:30Z</time>
      </trkpt>
      <trkpt lat="48.79789" lon="-3.2389">
        <ele>60</ele>
        <time>2015-02-15T09:43:31Z</time>
      </trkpt>
      <trkpt lat="48.79794" lon="-3.23892">
        <ele>60</ele>
        <time>2015-02-15T09:43:32Z</time>
      </trkpt>
      <trkpt lat="48.79798" lon="-3.23893">
        <ele>60</ele>
        <time>2015-02-15T09:43:33Z</time>
      </trkpt>
      <trkpt lat="48.79803" lon="-3.23894">
        <ele>60</ele>
        <time>2015-02-15T09:43:34Z</time>
      </trkpt>
      <trkpt lat="48.79809" lon="-3.23896">
        <ele>60</ele>
        <time>2015-02-15T09:43:35Z</time>
      </trkpt>
      <trkpt lat="48.79814" lon="-3.23898">
        <ele>60</ele>
        <time>2015-02-15T09:43:36Z</time>
      </trkpt>
      <trkpt lat="48.79819" lon="-3.239">
        <ele>60</ele>
        <time>2015-02-15T09:43:37Z</time>
      </trkpt>
      <trkpt lat="48.79825" lon="-3.23902">
        <ele>60</ele>
        <time>2015-02-15T09:43:38Z</time>
      </trkpt>
      <trkpt lat="48.7983" lon="-3.23903">
        <ele>60</ele>
        <time>2015-02-15T09:43:39Z</time>
      </trkpt>
      <trkpt lat="48.79836" lon="-3.23905">
        <ele>60</ele>
        <time>2015-02-15T09:43:40Z</time>
      </trkpt>
      <trkpt lat="48.79842" lon="-3.23907">
        <ele>60</ele>
        <time>2015-02-15T09:43:41Z</time>
      </trkpt>
      <trkpt lat="48.79848" lon="-3.23909">
        <ele>60</ele>
        <time>2015-02-15T09:43:42Z</time>
      </trkpt>
      <trkpt lat="48.79854" lon="-3.23911">
        <ele>60</ele>
        <time>2015-02-15T09:43:43Z</time>
      </trkpt>
      <trkpt lat="48.79861" lon="-3.23913">
        <ele>60</ele>
        <time>2015-02-15T09:43:44Z</time>
      </trkpt>
      <trkpt lat="48.79867" lon="-3.23916">
        <ele>60</ele>
        <time>2015-02-15T09:43:45Z</time>
      </trkpt>
      <trkpt lat="48.79874" lon="-3.23918">
        <ele>60</ele>
        <time>2015-02-15T09:43:46Z</time>
      </trkpt>
      <trkpt lat="48.7988" lon="-3.2392">
        <ele>60</ele>
        <time>2015-02-15T09:43:47Z</time>
      </trkpt>
      <trkpt lat="48.79887" lon="-3.23922">
        <ele>60</ele>
        <time>2015-02-15T09:43:48Z</time>
      </trkpt>
      <trkpt lat="48.79894" lon="-3.23924">
        <ele>60</ele>
        <time>2015-02-15T09:43:49Z</time>
      </trkpt>
      <trkpt lat="48.799" lon="-3.23926">
        <ele>60</ele>
        <time>2015-02-15T09:43:50Z</time>
      </trkpt>
      <trkpt lat="48.79908" lon="-3.23927">
        <ele>60</ele>
        <time>2015-02-15T09:43:51Z</time>
      </trkpt>
      <trkpt lat="48.79915" lon="-3.23929">
        <ele>60</ele>
        <time>2015-02-15T09:43:52Z</time>
      </trkpt>
      <trkpt lat="48.79922" lon="-3.2393">
        <ele>60</ele>
        <time>2015-02-15T09:43:53Z</time>
      </trkpt>
      <trkpt lat="48.79929" lon="-3.23931">
        <ele>60</ele>
        <time>2015-02-15T09:43:54Z</time>
      </trkpt>
      <trkpt lat="48.79936" lon="-3.23933">
        <ele>60</ele>
        <time>2015-02-15T09:43:55Z</time>
      </trkpt>
      <trkpt lat="48.79943" lon="-3.23933">
        <ele>60</ele>
        <time>2015-02-15T09:43:56Z</time>
      </trkpt>
      <trkpt lat="48.79951" lon="-3.23934">
        <ele>60</ele>
        <time>2015-02-15T09:43:57Z</time>
      </trkpt>
      <trkpt lat="48.79958" lon="-3.23935">
        <ele>60</ele>
        <time>2015-02-15T09:43:58Z</time>
      </trkpt>
      <trkpt lat="48.79965" lon="-3.23936">
        <ele>60</ele>
        <time>2015-02-15T09:43:59Z</time>
      </trkpt>
      <trkpt lat="48.79973" lon="-3.23937">
        <ele>60</ele>
        <time>2015-02-15T09:44:00Z</time>
      </trkpt>
      <trkpt lat="48.7998" lon="-3.23938">
        <ele>60</ele>
        <time>2015-02-15T09:44:01Z</time>
      </trkpt>
      <trkpt lat="48.79987" lon="-3.2394">
        <ele>60</ele>
        <time>2015-02-15T09:44:02Z</time>
      </trkpt>
      <trkpt lat="48.79995" lon="-3.23942">
        <ele>60</ele>
        <time>2015-02-15T09:44:03Z</time>
      </trkpt>
      <trkpt lat="48.80002" lon="-3.23943">
        <ele>60</ele>
        <time>2015-02-15T09:44:04Z</time>
      </trkpt>
      <trkpt lat="48.80009" lon="-3.23944">
        <ele>60</ele>
        <time>2015-02-15T09:44:05Z</time>
      </trkpt>
      <trkpt lat="48.80016" lon="-3.23945">
        <ele>60</ele>
        <time>2015-02-15T09:44:06Z</time>
      </trkpt>
      <trkpt lat="48.80023" lon="-3.23946">
        <ele>60</ele>
        <time>2015-02-15T09:44:07Z</time>
      </trkpt>
      <trkpt lat="48.8003" lon="-3.23946">
        <ele>60</ele>
        <time>2015-02-15T09:44:08Z</time>
      </trkpt>
      <trkpt lat="48.80037" lon="-3.23947">
        <ele>60</ele>
        <time>2015-02-15T09:44:09Z</time>
      </trkpt>
      <trkpt lat="48.80045" lon="-3.23947">
        <ele>60</ele>
        <time>2015-02-15T09:44:10Z</time>
      </trkpt>
      <trkpt lat="48.80052" lon="-3.23947">
        <ele>60</ele>
        <time>2015-02-15T09:44:11Z</time>
      </trkpt>
      <trkpt lat="48.8006" lon="-3.23946">
        <ele>60</ele>
        <time>2015-02-15T09:44:12Z</time>
      </trkpt>
      <trkpt lat="48.80067" lon="-3.23945">
        <ele>60</ele>
        <time>2015-02-15T09:44:13Z</time>
      </trkpt>
      <trkpt lat="48.80075" lon="-3.23943">
        <ele>60</ele>
        <time>2015-02-15T09:44:14Z</time>
      </trkpt>
      <trkpt lat="48.80082" lon="-3.2394">
        <ele>60</ele>
        <time>2015-02-15T09:44:15Z</time>
      </trkpt>
      <trkpt lat="48.8009" lon="-3.23937">
        <ele>60</ele>
        <time>2015-02-15T09:44:16Z</time>
      </trkpt>
      <trkpt lat="48.80097" lon="-3.23934">
        <ele>60</ele>
        <time>2015-02-15T09:44:17Z</time>
      </trkpt>
      <trkpt lat="48.80104" lon="-3.2393">
        <ele>60</ele>
        <time>2015-02-15T09:44:18Z</time>
      </trkpt>
      <trkpt lat="48.80111" lon="-3.23925">
        <ele>60</ele>
        <time>2015-02-15T09:44:19Z</time>
      </trkpt>
      <trkpt lat="48.80117" lon="-3.23921">
        <ele>60</ele>
        <time>2015-02-15T09:44:20Z</time>
      </trkpt>
      <trkpt lat="48.80124" lon="-3.23916">
        <ele>60</ele>
        <time>2015-02-15T09:44:21Z</time>
      </trkpt>
      <trkpt lat="48.8013" lon="-3.23911">
        <ele>60</ele>
        <time>2015-02-15T09:44:22Z</time>
      </trkpt>
      <trkpt lat="48.80136" lon="-3.23905">
        <ele>60</ele>
        <time>2015-02-15T09:44:23Z</time>
      </trkpt>
      <trkpt lat="48.80143" lon="-3.239">
        <ele>60</ele>
        <time>2015-02-15T09:44:24Z</time>
      </trkpt>
      <trkpt lat="48.80149" lon="-3.23893">
        <ele>60</ele>
        <time>2015-02-15T09:44:25Z</time>
      </trkpt>
      <trkpt lat="48.80156" lon="-3.23887">
        <ele>60</ele>
        <time>2015-02-15T09:44:26Z</time>
      </trkpt>
      <trkpt lat="48.80162" lon="-3.23881">
        <ele>60</ele>
        <time>2015-02-15T09:44:27Z</time>
      </trkpt>
      <trkpt lat="48.80169" lon="-3.23874">
        <ele>60</ele>
        <time>2015-02-15T09:44:28Z</time>
      </trkpt>
      <trkpt lat="48.80176" lon="-3.23868">
        <ele>60</ele>
        <time>2015-02-15T09:44:29Z</time>
      </trkpt>
      <trkpt lat="48.80182" lon="-3.23862">
        <ele>60</ele>
        <time>2015-02-15T09:44:30Z</time>
      </trkpt>
      <trkpt lat="48.80189" lon="-3.23857">
        <ele>60</ele>
        <time>2015-02-15T09:44:31Z</time>
      </trkpt>
      <trkpt lat="48.80196" lon="-3.23852">
        <ele>60</ele>
        <time>2015-02-15T09:44:32Z</time>
      </trkpt>
      <trkpt lat="48.80203" lon="-3.23848">
        <ele>60</ele>
        <time>2015-02-15T09:44:33Z</time>
      </trkpt>
      <trkpt lat="48.8021" lon="-3.23844">
        <ele>60</ele>
        <time>2015-02-15T09:44:34Z</time>
      </trkpt>
      <trkpt lat="48.80217" lon="-3.2384">
        <ele>60</ele>
        <time>2015-02-15T09:44:35Z</time>
      </trkpt>
      <trkpt lat="48.80224" lon="-3.23835">
        <ele>60</ele>
        <time>2015-02-15T09:44:36Z</time>
      </trkpt>
      <trkpt lat="48.8023" lon="-3.23831">
        <ele>60</ele>
        <time>2015-02-15T09:44:37Z</time>
      </trkpt>
      <trkpt lat="48.80237" lon="-3.23827">
        <ele>60</ele>
        <time>2015-02-15T09:44:38Z</time>
      </trkpt>
      <trkpt lat="48.80244" lon="-3.23823">
        <ele>60</ele>
        <time>2015-02-15T09:44:39Z</time>
      </trkpt>
      <trkpt lat="48.8025" lon="-3.23818">
        <ele>60</ele>
        <time>2015-02-15T09:44:40Z</time>
      </trkpt>
      <trkpt lat="48.80256" lon="-3.23814">
        <ele>60</ele>
        <time>2015-02-15T09:44:41Z</time>
      </trkpt>
      <trkpt lat="48.80261" lon="-3.2381">
        <ele>60</ele>
        <time>2015-02-15T09:44:42Z</time>
      </trkpt>
      <trkpt lat="48.80267" lon="-3.23805">
        <ele>60</ele>
        <time>2015-02-15T09:44:43Z</time>
      </trkpt>
      <trkpt lat="48.80273" lon="-3.238">
        <ele>60</ele>
        <time>2015-02-15T09:44:44Z</time>
      </trkpt>
      <trkpt lat="48.80278" lon="-3.23796">
        <ele>60</ele>
        <time>2015-02-15T09:44:45Z</time>
      </trkpt>
      <trkpt lat="48.80284" lon="-3.23791">
        <ele>60</ele>
        <time>2015-02-15T09:44:46Z</time>
      </trkpt>
      <trkpt lat="48.80289" lon="-3.23785">
        <ele>60</ele>
        <time>2015-02-15T09:44:47Z</time>
      </trkpt>
      <trkpt lat="48.80295" lon="-3.2378">
        <ele>60</ele>
        <time>2015-02-15T09:44:48Z</time>
      </trkpt>
      <trkpt lat="48.80299" lon="-3.23776">
        <ele>60</ele>
        <time>2015-02-15T09:44:49Z</time>
      </trkpt>
      <trkpt lat="48.80304" lon="-3.23771">
        <ele>60</ele>
        <time>2015-02-15T09:44:50Z</time>
      </trkpt>
      <trkpt lat="48.80309" lon="-3.23766">
        <ele>61</ele>
        <time>2015-02-15T09:44:51Z</time>
      </trkpt>
      <trkpt lat="48.80314" lon="-3.23761">
        <ele>61</ele>
        <time>2015-02-15T09:44:52Z</time>
      </trkpt>
      <trkpt lat="48.80319" lon="-3.23756">
        <ele>61</ele>
        <time>2015-02-15T09:44:53Z</time>
      </trkpt>
      <trkpt lat="48.80324" lon="-3.23751">
        <ele>61</ele>
        <time>2015-02-15T09:44:54Z</time>
      </trkpt>
      <trkpt lat="48.80328" lon="-3.23746">
        <ele>61</ele>
        <time>2015-02-15T09:44:55Z</time>
      </trkpt>
      <trkpt lat="48.80333" lon="-3.23742">
        <ele>61</ele>
        <time>2015-02-15T09:44:56Z</time>
      </trkpt>
      <trkpt lat="48.80338" lon="-3.23737">
        <ele>61</ele>
        <time>2015-02-15T09:44:57Z</time>
      </trkpt>
      <trkpt lat="48.80343" lon="-3.23733">
        <ele>61</ele>
        <time>2015-02-15T09:44:58Z</time>
      </trkpt>
      <trkpt lat="48.80348" lon="-3.23728">
        <ele>61</ele>
        <time>2015-02-15T09:44:59Z</time>
      </trkpt>
      <trkpt lat="48.80354" lon="-3.23724">
        <ele>61</ele>
        <time>2015-02-15T09:45:00Z</time>
      </trkpt>
      <trkpt lat="48.80359" lon="-3.23719">
        <ele>61</ele>
        <time>2015-02-15T09:45:01Z</time>
      </trkpt>
      <trkpt lat="48.80364" lon="-3.23714">
        <ele>61</ele>
        <time>2015-02-15T09:45:02Z</time>
      </trkpt>
      <trkpt lat="48.8037" lon="-3.2371">
        <ele>61</ele>
        <time>2015-02-15T09:45:03Z</time>
      </trkpt>
      <trkpt lat="48.80375" lon="-3.23704">
        <ele>61</ele>
        <time>2015-02-15T09:45:04Z</time>
      </trkpt>
      <trkpt lat="48.80381" lon="-3.23699">
        <ele>61</ele>
        <time>2015-02-15T09:45:05Z</time>
      </trkpt>
      <trkpt lat="48.80386" lon="-3.23694">
        <ele>61</ele>
        <time>2015-02-15T09:45:06Z</time>
      </trkpt>
      <trkpt lat="48.80392" lon="-3.23689">
        <ele>61</ele>
        <time>2015-02-15T09:45:07Z</time>
      </trkpt>
      <trkpt lat="48.80398" lon="-3.23683">
        <ele>61</ele>
        <time>2015-02-15T09:45:08Z</time>
      </trkpt>
      <trkpt lat="48.80404" lon="-3.23678">
        <ele>61</ele>
        <time>2015-02-15T09:45:09Z</time>
      </trkpt>
      <trkpt lat="48.8041" lon="-3.23673">
        <ele>61</ele>
        <time>2015-02-15T09:45:10Z</time>
      </trkpt>
      <trkpt lat="48.80415" lon="-3.23667">
        <ele>61</ele>
        <time>2015-02-15T09:45:11Z</time>
      </trkpt>
      <trkpt lat="48.80421" lon="-3.23662">
        <ele>61</ele>
        <time>2015-02-15T09:45:12Z</time>
      </trkpt>
      <trkpt lat="48.80427" lon="-3.23657">
        <ele>61</ele>
        <time>2015-02-15T09:45:13Z</time>
      </trkpt>
      <trkpt lat="48.80432" lon="-3.23651">
        <ele>61</ele>
        <time>2015-02-15T09:45:14Z</time>
      </trkpt>
      <trkpt lat="48.80438" lon="-3.23646">
        <ele>61</ele>
        <time>2015-02-15T09:45:15Z</time>
      </trkpt>
      <trkpt lat="48.80444" lon="-3.23641">
        <ele>61</ele>
        <time>2015-02-15T09:45:16Z</time>
      </trkpt>
      <trkpt lat="48.8045" lon="-3.23636">
        <ele>61</ele>
        <time>2015-02-15T09:45:17Z</time>
      </trkpt>
      <trkpt lat="48.80457" lon="-3.2363">
        <ele>61</ele>
        <time>2015-02-15T09:45:18Z</time>
      </trkpt>
      <trkpt lat="48.80463" lon="-3.23625">
        <ele>61</ele>
        <time>2015-02-15T09:45:19Z</time>
      </trkpt>
      <trkpt lat="48.80469" lon="-3.2362">
        <ele>61</ele>
        <time>2015-02-15T09:45:20Z</time>
      </trkpt>
      <trkpt lat="48.80476" lon="-3.23614">
        <ele>61</ele>
        <time>2015-02-15T09:45:21Z</time>
      </trkpt>
      <trkpt lat="48.80482" lon="-3.23608">
        <ele>61</ele>
        <time>2015-02-15T09:45:22Z</time>
      </trkpt>
      <trkpt lat="48.80488" lon="-3.23603">
        <ele>61</ele>
        <time>2015-02-15T09:45:23Z</time>
      </trkpt>
      <trkpt lat="48.80495" lon="-3.23598">
        <ele>61</ele>
        <time>2015-02-15T09:45:24Z</time>
      </trkpt>
      <trkpt lat="48.805" lon="-3.23593">
        <ele>61</ele>
        <time>2015-02-15T09:45:25Z</time>
      </trkpt>
      <trkpt lat="48.80507" lon="-3.23587">
        <ele>61</ele>
        <time>2015-02-15T09:45:26Z</time>
      </trkpt>
      <trkpt lat="48.80513" lon="-3.23582">
        <ele>61</ele>
        <time>2015-02-15T09:45:27Z</time>
      </trkpt>
      <trkpt lat="48.80518" lon="-3.23577">
        <ele>61</ele>
        <time>2015-02-15T09:45:28Z</time>
      </trkpt>
      <trkpt lat="48.80524" lon="-3.23571">
        <ele>61</ele>
        <time>2015-02-15T09:45:29Z</time>
      </trkpt>
      <trkpt lat="48.8053" lon="-3.23566">
        <ele>61</ele>
        <time>2015-02-15T09:45:30Z</time>
      </trkpt>
      <trkpt lat="48.80536" lon="-3.23561">
        <ele>61</ele>
        <time>2015-02-15T09:45:31Z</time>
      </trkpt>
      <trkpt lat="48.80541" lon="-3.23556">
        <ele>61</ele>
        <time>2015-02-15T09:45:32Z</time>
      </trkpt>
      <trkpt lat="48.80547" lon="-3.23551">
        <ele>61</ele>
        <time>2015-02-15T09:45:33Z</time>
      </trkpt>
      <trkpt lat="48.80552" lon="-3.23546">
        <ele>61</ele>
        <time>2015-02-15T09:45:34Z</time>
      </trkpt>
      <trkpt lat="48.80557" lon="-3.23542">
        <ele>61</ele>
        <time>2015-02-15T09:45:35Z</time>
      </trkpt>
      <trkpt lat="48.80563" lon="-3.23538">
        <ele>61</ele>
        <time>2015-02-15T09:45:36Z</time>
      </trkpt>
      <trkpt lat="48.80568" lon="-3.23534">
        <ele>61</ele>
        <time>2015-02-15T09:45:37Z</time>
      </trkpt>
      <trkpt lat="48.80574" lon="-3.2353">
        <ele>61</ele>
        <time>2015-02-15T09:45:38Z</time>
      </trkpt>
      <trkpt lat="48.8058" lon="-3.23527">
        <ele>61</ele>
        <time>2015-02-15T09:45:39Z</time>
      </trkpt>
      <trkpt lat="48.80586" lon="-3.23524">
        <ele>61</ele>
        <time>2015-02-15T09:45:40Z</time>
      </trkpt>
      <trkpt lat="48.80592" lon="-3.23521">
        <ele>61</ele>
        <time>2015-02-15T09:45:41Z</time>
      </trkpt>
      <trkpt lat="48.80598" lon="-3.23518">
        <ele>61</ele>
        <time>2015-02-15T09:45:42Z</time>
      </trkpt>
      <trkpt lat="48.80604" lon="-3.23516">
        <ele>61</ele>
        <time>2015-02-15T09:45:43Z</time>
      </trkpt>
      <trkpt lat="48.80611" lon="-3.23514">
        <ele>61</ele>
        <time>2015-02-15T09:45:44Z</time>
      </trkpt>
      <trkpt lat="48.80617" lon="-3.23512">
        <ele>61</ele>
        <time>2015-02-15T09:45:45Z</time>
      </trkpt>
      <trkpt lat="48.80623" lon="-3.23509">
        <ele>61</ele>
        <time>2015-02-15T09:45:46Z</time>
      </trkpt>
      <trkpt lat="48.80629" lon="-3.23506">
        <ele>61</ele>
        <time>2015-02-15T09:45:47Z</time>
      </trkpt>
      <trkpt lat="48.80635" lon="-3.23503">
        <ele>61</ele>
        <time>2015-02-15T09:45:48Z</time>
      </trkpt>
      <trkpt lat="48.80641" lon="-3.235">
        <ele>61</ele>
        <time>2015-02-15T09:45:49Z</time>
      </trkpt>
      <trkpt lat="48.80647" lon="-3.23496">
        <ele>61</ele>
        <time>2015-02-15T09:45:50Z</time>
      </trkpt>
      <trkpt lat="48.80653" lon="-3.23493">
        <ele>61</ele>
        <time>2015-02-15T09:45:51Z</time>
      </trkpt>
      <trkpt lat="48.80659" lon="-3.23489">
        <ele>61</ele>
        <time>2015-02-15T09:45:52Z</time>
      </trkpt>
      <trkpt lat="48.80665" lon="-3.23486">
        <ele>61</ele>
        <time>2015-02-15T09:45:53Z</time>
      </trkpt>
      <trkpt lat="48.80671" lon="-3.23482">
        <ele>61</ele>
        <time>2015-02-15T09:45:54Z</time>
      </trkpt>
      <trkpt lat="48.80677" lon="-3.23479">
        <ele>61</ele>
        <time>2015-02-15T09:45:55Z</time>
      </trkpt>
      <trkpt lat="48.80683" lon="-3.23476">
        <ele>61</ele>
        <time>2015-02-15T09:45:56Z</time>
      </trkpt>
      <trkpt lat="48.80689" lon="-3.23473">
        <ele>61</ele>
        <time>2015-02-15T09:45:57Z</time>
      </trkpt>
      <trkpt lat="48.80695" lon="-3.23471">
        <ele>61</ele>
        <time>2015-02-15T09:45:58Z</time>
      </trkpt>
      <trkpt lat="48.80701" lon="-3.23468">
        <ele>61</ele>
        <time>2015-02-15T09:45:59Z</time>
      </trkpt>
      <trkpt lat="48.80708" lon="-3.23465">
        <ele>61</ele>
        <time>2015-02-15T09:46:00Z</time>
      </trkpt>
      <trkpt lat="48.80713" lon="-3.23462">
        <ele>61</ele>
        <time>2015-02-15T09:46:01Z</time>
      </trkpt>
      <trkpt lat="48.80719" lon="-3.2346">
        <ele>61</ele>
        <time>2015-02-15T09:46:02Z</time>
      </trkpt>
      <trkpt lat="48.80724" lon="-3.23458">
        <ele>61</ele>
        <time>2015-02-15T09:46:03Z</time>
      </trkpt>
      <trkpt lat="48.8073" lon="-3.23456">
        <ele>61</ele>
        <time>2015-02-15T09:46:04Z</time>
      </trkpt>
      <trkpt lat="48.80735" lon="-3.23455">
        <ele>61</ele>
        <time>2015-02-15T09:46:05Z</time>
      </trkpt>
      <trkpt lat="48.80741" lon="-3.23453">
        <ele>61</ele>
        <time>2015-02-15T09:46:06Z</time>
      </trkpt>
      <trkpt lat="48.80747" lon="-3.23453">
        <ele>61</ele>
        <time>2015-02-15T09:46:07Z</time>
      </trkpt>
      <trkpt lat="48.80753" lon="-3.23453">
        <ele>61</ele>
        <time>2015-02-15T09:46:08Z</time>
      </trkpt>
      <trkpt lat="48.80759" lon="-3.23453">
        <ele>61</ele>
        <time>2015-02-15T09:46:09Z</time>
      </trkpt>
      <trkpt lat="48.80765" lon="-3.23454">
        <ele>61</ele>
        <time>2015-02-15T09:46:10Z</time>
      </trkpt>
      <trkpt lat="48.80772" lon="-3.23456">
        <ele>61</ele>
        <time>2015-02-15T09:46:11Z</time>
      </trkpt>
      <trkpt lat="48.80778" lon="-3.23459">
        <ele>61</ele>
        <time>2015-02-15T09:46:12Z</time>
      </trkpt>
      <trkpt lat="48.80785" lon="-3.23463">
        <ele>61</ele>
        <time>2015-02-15T09:46:13Z</time>
      </trkpt>
      <trkpt lat="48.80791" lon="-3.23468">
        <ele>61</ele>
        <time>2015-02-15T09:46:14Z</time>
      </trkpt>
      <trkpt lat="48.80798" lon="-3.23475">
        <ele>60</ele>
        <time>2015-02-15T09:46:15Z</time>
      </trkpt>
      <trkpt lat="48.80804" lon="-3.23481">
        <ele>60</ele>
        <time>2015-02-15T09:46:16Z</time>
      </trkpt>
      <trkpt lat="48.8081" lon="-3.23489">
        <ele>60</ele>
        <time>2015-02-15T09:46:17Z</time>
      </trkpt>
      <trkpt lat="48.80816" lon="-3.23496">
        <ele>59</ele>
        <time>2015-02-15T09:46:18Z</time>
      </trkpt>
      <trkpt lat="48.80823" lon="-3.23503">
        <ele>59</ele>
        <time>2015-02-15T09:46:19Z</time>
      </trkpt>
      <trkpt lat="48.80829" lon="-3.23509">
        <ele>59</ele>
        <time>2015-02-15T09:46:20Z</time>
      </trkpt>
      <trkpt lat="48.80835" lon="-3.23516">
        <ele>59</ele>
        <time>2015-02-15T09:46:21Z</time>
      </trkpt>
      <trkpt lat="48.80841" lon="-3.23521">
        <ele>59</ele>
        <time>2015-02-15T09:46:22Z</time>
      </trkpt>
      <trkpt lat="48.80847" lon="-3.23526">
        <ele>59</ele>
        <time>2015-02-15T09:46:23Z</time>
      </trkpt>
      <trkpt lat="48.80852" lon="-3.23531">
        <ele>59</ele>
        <time>2015-02-15T09:46:24Z</time>
      </trkpt>
      <trkpt lat="48.80857" lon="-3.23536">
        <ele>59</ele>
        <time>2015-02-15T09:46:25Z</time>
      </trkpt>
      <trkpt lat="48.80863" lon="-3.23541">
        <ele>59</ele>
        <time>2015-02-15T09:46:26Z</time>
      </trkpt>
      <trkpt lat="48.80868" lon="-3.23546">
        <ele>59</ele>
        <time>2015-02-15T09:46:27Z</time>
      </trkpt>
      <trkpt lat="48.80873" lon="-3.23551">
        <ele>59</ele>
        <time>2015-02-15T09:46:28Z</time>
      </trkpt>
      <trkpt lat="48.80879" lon="-3.23556">
        <ele>59</ele>
        <time>2015-02-15T09:46:29Z</time>
      </trkpt>
      <trkpt lat="48.80884" lon="-3.23561">
        <ele>59</ele>
        <time>2015-02-15T09:46:30Z</time>
      </trkpt>
      <trkpt lat="48.80889" lon="-3.23565">
        <ele>59</ele>
        <time>2015-02-15T09:46:31Z</time>
      </trkpt>
      <trkpt lat="48.80894" lon="-3.2357">
        <ele>59</ele>
        <time>2015-02-15T09:46:32Z</time>
      </trkpt>
      <trkpt lat="48.80899" lon="-3.23574">
        <ele>59</ele>
        <time>2015-02-15T09:46:33Z</time>
      </trkpt>
      <trkpt lat="48.80903" lon="-3.23579">
        <ele>59</ele>
        <time>2015-02-15T09:46:34Z</time>
      </trkpt>
      <trkpt lat="48.80908" lon="-3.23583">
        <ele>59</ele>
        <time>2015-02-15T09:46:35Z</time>
      </trkpt>
      <trkpt lat="48.80912" lon="-3.23588">
        <ele>59</ele>
        <time>2015-02-15T09:46:36Z</time>
      </trkpt>
      <trkpt lat="48.80917" lon="-3.23592">
        <ele>59</ele>
        <time>2015-02-15T09:46:37Z</time>
      </trkpt>
      <trkpt lat="48.80922" lon="-3.23596">
        <ele>59</ele>
        <time>2015-02-15T09:46:38Z</time>
      </trkpt>
      <trkpt lat="48.80927" lon="-3.23601">
        <ele>59</ele>
        <time>2015-02-15T09:46:39Z</time>
      </trkpt>
      <trkpt lat="48.80931" lon="-3.23605">
        <ele>59</ele>
        <time>2015-02-15T09:46:40Z</time>
      </trkpt>
      <trkpt lat="48.80936" lon="-3.23609">
        <ele>59</ele>
        <time>2015-02-15T09:46:41Z</time>
      </trkpt>
      <trkpt lat="48.80941" lon="-3.23613">
        <ele>59</ele>
        <time>2015-02-15T09:46:42Z</time>
      </trkpt>
      <trkpt lat="48.80946" lon="-3.23617">
        <ele>59</ele>
        <time>2015-02-15T09:46:43Z</time>
      </trkpt>
      <trkpt lat="48.80951" lon="-3.23621">
        <ele>59</ele>
        <time>2015-02-15T09:46:44Z</time>
      </trkpt>
      <trkpt lat="48.80957" lon="-3.23625">
        <ele>59</ele>
        <time>2015-02-15T09:46:45Z</time>
      </trkpt>
      <trkpt lat="48.80962" lon="-3.23628">
        <ele>59</ele>
        <time>2015-02-15T09:46:46Z</time>
      </trkpt>
      <trkpt lat="48.80968" lon="-3.23631">
        <ele>59</ele>
        <time>2015-02-15T09:46:47Z</time>
      </trkpt>
      <trkpt lat="48.80973" lon="-3.23634">
        <ele>59</ele>
        <time>2015-02-15T09:46:48Z</time>
      </trkpt>
      <trkpt lat="48.80979" lon="-3.23636">
        <ele>59</ele>
        <time>2015-02-15T09:46:49Z</time>
      </trkpt>
      <trkpt lat="48.80985" lon="-3.23638">
        <ele>59</ele>
        <time>2015-02-15T09:46:50Z</time>
      </trkpt>
      <trkpt lat="48.80991" lon="-3.23639">
        <ele>59</ele>
        <time>2015-02-15T09:46:51Z</time>
      </trkpt>
      <trkpt lat="48.80997" lon="-3.2364">
        <ele>59</ele>
        <time>2015-02-15T09:46:52Z</time>
      </trkpt>
      <trkpt lat="48.81002" lon="-3.23642">
        <ele>59</ele>
        <time>2015-02-15T09:46:53Z</time>
      </trkpt>
      <trkpt lat="48.81008" lon="-3.23643">
        <ele>59</ele>
        <time>2015-02-15T09:46:54Z</time>
      </trkpt>
      <trkpt lat="48.81014" lon="-3.23644">
        <ele>59</ele>
        <time>2015-02-15T09:46:55Z</time>
      </trkpt>
      <trkpt lat="48.81019" lon="-3.23645">
        <ele>59</ele>
        <time>2015-02-15T09:46:56Z</time>
      </trkpt>
      <trkpt lat="48.81024" lon="-3.23647">
        <ele>59</ele>
        <time>2015-02-15T09:46:57Z</time>
      </trkpt>
      <trkpt lat="48.81029" lon="-3.23648">
        <ele>59</ele>
        <time>2015-02-15T09:46:58Z</time>
      </trkpt>
      <trkpt lat="48.81034" lon="-3.23651">
        <ele>59</ele>
        <time>2015-02-15T09:46:59Z</time>
      </trkpt>
      <trkpt lat="48.81039" lon="-3.23653">
        <ele>59</ele>
        <time>2015-02-15T09:47:00Z</time>
      </trkpt>
      <trkpt lat="48.81044" lon="-3.23656">
        <ele>59</ele>
        <time>2015-02-15T09:47:01Z</time>
      </trkpt>
      <trkpt lat="48.8105" lon="-3.23659">
        <ele>59</ele>
        <time>2015-02-15T09:47:02Z</time>
      </trkpt>
      <trkpt lat="48.81056" lon="-3.23662">
        <ele>59</ele>
        <time>2015-02-15T09:47:03Z</time>
      </trkpt>
      <trkpt lat="48.81062" lon="-3.23665">
        <ele>59</ele>
        <time>2015-02-15T09:47:04Z</time>
      </trkpt>
      <trkpt lat="48.81068" lon="-3.23668">
        <ele>59</ele>
        <time>2015-02-15T09:47:05Z</time>
      </trkpt>
      <trkpt lat="48.81074" lon="-3.23671">
        <ele>59</ele>
        <time>2015-02-15T09:47:06Z</time>
      </trkpt>
      <trkpt lat="48.8108" lon="-3.23674">
        <ele>59</ele>
        <time>2015-02-15T09:47:07Z</time>
      </trkpt>
      <trkpt lat="48.81086" lon="-3.23677">
        <ele>59</ele>
        <time>2015-02-15T09:47:08Z</time>
      </trkpt>
      <trkpt lat="48.81092" lon="-3.23681">
        <ele>59</ele>
        <time>2015-02-15T09:47:09Z</time>
      </trkpt>
      <trkpt lat="48.81099" lon="-3.23684">
        <ele>59</ele>
        <time>2015-02-15T09:47:10Z</time>
      </trkpt>
      <trkpt lat="48.81105" lon="-3.23687">
        <ele>59</ele>
        <time>2015-02-15T09:47:11Z</time>
      </trkpt>
      <trkpt lat="48.8111" lon="-3.23691">
        <ele>59</ele>
        <time>2015-02-15T09:47:12Z</time>
      </trkpt>
      <trkpt lat="48.81116" lon="-3.23696">
        <ele>59</ele>
        <time>2015-02-15T09:47:13Z</time>
      </trkpt>
      <trkpt lat="48.81122" lon="-3.237">
        <ele>59</ele>
        <time>2015-02-15T09:47:14Z</time>
      </trkpt>
      <trkpt lat="48.81128" lon="-3.23704">
        <ele>59</ele>
        <time>2015-02-15T09:47:15Z</time>
      </trkpt>
      <trkpt lat="48.81134" lon="-3.23707">
        <ele>59</ele>
        <time>2015-02-15T09:47:16Z</time>
      </trkpt>
      <trkpt lat="48.81141" lon="-3.2371">
        <ele>59</ele>
        <time>2015-02-15T09:47:17Z</time>
      </trkpt>
      <trkpt lat="48.81147" lon="-3.23713">
        <ele>59</ele>
        <time>2015-02-15T09:47:18Z</time>
      </trkpt>
      <trkpt lat="48.81154" lon="-3.23716">
        <ele>59</ele>
        <time>2015-02-15T09:47:19Z</time>
      </trkpt>
      <trkpt lat="48.8116" lon="-3.2372">
        <ele>59</ele>
        <time>2015-02-15T09:47:20Z</time>
      </trkpt>
      <trkpt lat="48.81167" lon="-3.23724">
        <ele>59</ele>
        <time>2015-02-15T09:47:21Z</time>
      </trkpt>
      <trkpt lat="48.81173" lon="-3.23728">
        <ele>59</ele>
        <time>2015-02-15T09:47:22Z</time>
      </trkpt>
      <trkpt lat="48.81179" lon="-3.23733">
        <ele>59</ele>
        <time>2015-02-15T09:47:23Z</time>
      </trkpt>
      <trkpt lat="48.81185" lon="-3.23739">
        <ele>59</ele>
        <time>2015-02-15T09:47:24Z</time>
      </trkpt>
      <trkpt lat="48.81191" lon="-3.23746">
        <ele>59</ele>
        <time>2015-02-15T09:47:25Z</time>
      </trkpt>
      <trkpt lat="48.81197" lon="-3.23753">
        <ele>59</ele>
        <time>2015-02-15T09:47:26Z</time>
      </trkpt>
      <trkpt lat="48.81202" lon="-3.23761">
        <ele>59</ele>
        <time>2015-02-15T09:47:27Z</time>
      </trkpt>
      <trkpt lat="48.81207" lon="-3.23769">
        <ele>59</ele>
        <time>2015-02-15T09:47:28Z</time>
      </trkpt>
      <trkpt lat="48.81213" lon="-3.23776">
        <ele>59</ele>
        <time>2015-02-15T09:47:29Z</time>
      </trkpt>
      <trkpt lat="48.81218" lon="-3.23783">
        <ele>59</ele>
        <time>2015-02-15T09:47:30Z</time>
      </trkpt>
      <trkpt lat="48.81225" lon="-3.23789">
        <ele>59</ele>
        <time>2015-02-15T09:47:31Z</time>
      </trkpt>
      <trkpt lat="48.81231" lon="-3.23793">
        <ele>58</ele>
        <time>2015-02-15T09:47:32Z</time>
      </trkpt>
      <trkpt lat="48.81238" lon="-3.23797">
        <ele>58</ele>
        <time>2015-02-15T09:47:33Z</time>
      </trkpt>
      <trkpt lat="48.81246" lon="-3.23799">
        <ele>58</ele>
        <time>2015-02-15T09:47:34Z</time>
      </trkpt>
      <trkpt lat="48.81253" lon="-3.23801">
        <ele>58</ele>
        <time>2015-02-15T09:47:35Z</time>
      </trkpt>
      <trkpt lat="48.81261" lon="-3.23802">
        <ele>58</ele>
        <time>2015-02-15T09:47:36Z</time>
      </trkpt>
      <trkpt lat="48.81269" lon="-3.23803">
        <ele>58</ele>
        <time>2015-02-15T09:47:37Z</time>
      </trkpt>
      <trkpt lat="48.81276" lon="-3.23804">
        <ele>58</ele>
        <time>2015-02-15T09:47:38Z</time>
      </trkpt>
      <trkpt lat="48.81284" lon="-3.23805">
        <ele>58</ele>
        <time>2015-02-15T09:47:39Z</time>
      </trkpt>
      <trkpt lat="48.81292" lon="-3.23805">
        <ele>58</ele>
        <time>2015-02-15T09:47:40Z</time>
      </trkpt>
      <trkpt lat="48.813" lon="-3.23805">
        <ele>58</ele>
        <time>2015-02-15T09:47:41Z</time>
      </trkpt>
      <trkpt lat="48.81307" lon="-3.23805">
        <ele>57</ele>
        <time>2015-02-15T09:47:42Z</time>
      </trkpt>
      <trkpt lat="48.81315" lon="-3.23804">
        <ele>57</ele>
        <time>2015-02-15T09:47:43Z</time>
      </trkpt>
      <trkpt lat="48.81322" lon="-3.23803">
        <ele>57</ele>
        <time>2015-02-15T09:47:44Z</time>
      </trkpt>
      <trkpt lat="48.8133" lon="-3.23802">
        <ele>57</ele>
        <time>2015-02-15T09:47:45Z</time>
      </trkpt>
      <trkpt lat="48.81337" lon="-3.23801">
        <ele>57</ele>
        <time>2015-02-15T09:47:46Z</time>
      </trkpt>
      <trkpt lat="48.81344" lon="-3.238">
        <ele>56</ele>
        <time>2015-02-15T09:47:47Z</time>
      </trkpt>
      <trkpt lat="48.81352" lon="-3.23798">
        <ele>56</ele>
        <time>2015-02-15T09:47:48Z</time>
      </trkpt>
      <trkpt lat="48.81359" lon="-3.23797">
        <ele>56</ele>
        <time>2015-02-15T09:47:49Z</time>
      </trkpt>
      <trkpt lat="48.81367" lon="-3.23796">
        <ele>56</ele>
        <time>2015-02-15T09:47:50Z</time>
      </trkpt>
      <trkpt lat="48.81374" lon="-3.23794">
        <ele>56</ele>
        <time>2015-02-15T09:47:51Z</time>
      </trkpt>
      <trkpt lat="48.81382" lon="-3.23792">
        <ele>56</ele>
        <time>2015-02-15T09:47:52Z</time>
      </trkpt>
      <trkpt lat="48.81389" lon="-3.2379">
        <ele>56</ele>
        <time>2015-02-15T09:47:53Z</time>
      </trkpt>
      <trkpt lat="48.81397" lon="-3.23789">
        <ele>56</ele>
        <time>2015-02-15T09:47:54Z</time>
      </trkpt>
      <trkpt lat="48.81405" lon="-3.23787">
        <ele>56</ele>
        <time>2015-02-15T09:47:55Z</time>
      </trkpt>
      <trkpt lat="48.81413" lon="-3.23786">
        <ele>55</ele>
        <time>2015-02-15T09:47:56Z</time>
      </trkpt>
      <trkpt lat="48.81421" lon="-3.23784">
        <ele>55</ele>
        <time>2015-02-15T09:47:57Z</time>
      </trkpt>
      <trkpt lat="48.81429" lon="-3.23783">
        <ele>55</ele>
        <time>2015-02-15T09:47:58Z</time>
      </trkpt>
      <trkpt lat="48.81437" lon="-3.23782">
        <ele>55</ele>
        <time>2015-02-15T09:47:59Z</time>
      </trkpt>
      <trkpt lat="48.81444" lon="-3.23781">
        <ele>55</ele>
        <time>2015-02-15T09:48:00Z</time>
      </trkpt>
      <trkpt lat="48.81452" lon="-3.2378">
        <ele>55</ele>
        <time>2015-02-15T09:48:01Z</time>
      </trkpt>
      <trkpt lat="48.8146" lon="-3.23779">
        <ele>55</ele>
        <time>2015-02-15T09:48:02Z</time>
      </trkpt>
      <trkpt lat="48.81468" lon="-3.23779">
        <ele>54</ele>
        <time>2015-02-15T09:48:03Z</time>
      </trkpt>
      <trkpt lat="48.81476" lon="-3.23778">
        <ele>54</ele>
        <time>2015-02-15T09:48:04Z</time>
      </trkpt>
      <trkpt lat="48.81484" lon="-3.23778">
        <ele>54</ele>
        <time>2015-02-15T09:48:05Z</time>
      </trkpt>
      <trkpt lat="48.81492" lon="-3.23778">
        <ele>54</ele>
        <time>2015-02-15T09:48:06Z</time>
      </trkpt>
      <trkpt lat="48.815" lon="-3.23777">
        <ele>54</ele>
        <time>2015-02-15T09:48:07Z</time>
      </trkpt>
      <trkpt lat="48.81509" lon="-3.23777">
        <ele>53</ele>
        <time>2015-02-15T09:48:08Z</time>
      </trkpt>
      <trkpt lat="48.81516" lon="-3.23776">
        <ele>53</ele>
        <time>2015-02-15T09:48:09Z</time>
      </trkpt>
      <trkpt lat="48.81524" lon="-3.23776">
        <ele>53</ele>
        <time>2015-02-15T09:48:10Z</time>
      </trkpt>
      <trkpt lat="48.81532" lon="-3.23776">
        <ele>53</ele>
        <time>2015-02-15T09:48:11Z</time>
      </trkpt>
      <trkpt lat="48.8154" lon="-3.23775">
        <ele>53</ele>
        <time>2015-02-15T09:48:12Z</time>
      </trkpt>
      <trkpt lat="48.81548" lon="-3.23775">
        <ele>53</ele>
        <time>2015-02-15T09:48:13Z</time>
      </trkpt>
      <trkpt lat="48.81555" lon="-3.23774">
        <ele>53</ele>
        <time>2015-02-15T09:48:14Z</time>
      </trkpt>
      <trkpt lat="48.81563" lon="-3.23773">
        <ele>53</ele>
        <time>2015-02-15T09:48:15Z</time>
      </trkpt>
      <trkpt lat="48.8157" lon="-3.23771">
        <ele>52</ele>
        <time>2015-02-15T09:48:16Z</time>
      </trkpt>
      <trkpt lat="48.81578" lon="-3.23769">
        <ele>52</ele>
        <time>2015-02-15T09:48:17Z</time>
      </trkpt>
      <trkpt lat="48.81585" lon="-3.23766">
        <ele>52</ele>
        <time>2015-02-15T09:48:18Z</time>
      </trkpt>
      <trkpt lat="48.81592" lon="-3.23764">
        <ele>52</ele>
        <time>2015-02-15T09:48:19Z</time>
      </trkpt>
      <trkpt lat="48.81599" lon="-3.23762">
        <ele>51</ele>
        <time>2015-02-15T09:48:20Z</time>
      </trkpt>
      <trkpt lat="48.81605" lon="-3.23759">
        <ele>51</ele>
        <time>2015-02-15T09:48:21Z</time>
      </trkpt>
      <trkpt lat="48.81612" lon="-3.23756">
        <ele>51</ele>
        <time>2015-02-15T09:48:22Z</time>
      </trkpt>
      <trkpt lat="48.8162" lon="-3.23753">
        <ele>51</ele>
        <time>2015-02-15T09:48:23Z</time>
      </trkpt>
      <trkpt lat="48.81627" lon="-3.2375">
        <ele>51</ele>
        <time>2015-02-15T09:48:24Z</time>
      </trkpt>
      <trkpt lat="48.81634" lon="-3.23747">
        <ele>50</ele>
        <time>2015-02-15T09:48:25Z</time>
      </trkpt>
      <trkpt lat="48.81641" lon="-3.23745">
        <ele>50</ele>
        <time>2015-02-15T09:48:26Z</time>
      </trkpt>
      <trkpt lat="48.81648" lon="-3.23743">
        <ele>50</ele>
        <time>2015-02-15T09:48:27Z</time>
      </trkpt>
      <trkpt lat="48.81655" lon="-3.23741">
        <ele>50</ele>
        <time>2015-02-15T09:48:28Z</time>
      </trkpt>
      <trkpt lat="48.81663" lon="-3.2374">
        <ele>50</ele>
        <time>2015-02-15T09:48:29Z</time>
      </trkpt>
      <trkpt lat="48.8167" lon="-3.23738">
        <ele>50</ele>
        <time>2015-02-15T09:48:30Z</time>
      </trkpt>
      <trkpt lat="48.81678" lon="-3.23738">
        <ele>50</ele>
        <time>2015-02-15T09:48:31Z</time>
      </trkpt>
      <trkpt lat="48.81684" lon="-3.23738">
        <ele>50</ele>
        <time>2015-02-15T09:48:32Z</time>
      </trkpt>
      <trkpt lat="48.81698" lon="-3.23738">
        <ele>50</ele>
        <time>2015-02-15T09:48:34Z</time>
      </trkpt>
      <trkpt lat="48.81705" lon="-3.23739">
        <ele>50</ele>
        <time>2015-02-15T09:48:35Z</time>
      </trkpt>
      <trkpt lat="48.81712" lon="-3.2374">
        <ele>50</ele>
        <time>2015-02-15T09:48:36Z</time>
      </trkpt>
      <trkpt lat="48.81718" lon="-3.23741">
        <ele>50</ele>
        <time>2015-02-15T09:48:37Z</time>
      </trkpt>
      <trkpt lat="48.81724" lon="-3.23743">
        <ele>50</ele>
        <time>2015-02-15T09:48:38Z</time>
      </trkpt>
      <trkpt lat="48.8173" lon="-3.23744">
        <ele>50</ele>
        <time>2015-02-15T09:48:39Z</time>
      </trkpt>
      <trkpt lat="48.81736" lon="-3.23746">
        <ele>50</ele>
        <time>2015-02-15T09:48:40Z</time>
      </trkpt>
      <trkpt lat="48.81742" lon="-3.23747">
        <ele>50</ele>
        <time>2015-02-15T09:48:41Z</time>
      </trkpt>
      <trkpt lat="48.81748" lon="-3.23749">
        <ele>50</ele>
        <time>2015-02-15T09:48:42Z</time>
      </trkpt>
      <trkpt lat="48.81754" lon="-3.23751">
        <ele>50</ele>
        <time>2015-02-15T09:48:43Z</time>
      </trkpt>
      <trkpt lat="48.8176" lon="-3.23753">
        <ele>50</ele>
        <time>2015-02-15T09:48:44Z</time>
      </trkpt>
      <trkpt lat="48.81765" lon="-3.23754">
        <ele>50</ele>
        <time>2015-02-15T09:48:45Z</time>
      </trkpt>
      <trkpt lat="48.81771" lon="-3.23756">
        <ele>50</ele>
        <time>2015-02-15T09:48:46Z</time>
      </trkpt>
      <trkpt lat="48.81776" lon="-3.23756">
        <ele>50</ele>
        <time>2015-02-15T09:48:47Z</time>
      </trkpt>
      <trkpt lat="48.81782" lon="-3.23757">
        <ele>49</ele>
        <time>2015-02-15T09:48:48Z</time>
      </trkpt>
      <trkpt lat="48.81788" lon="-3.23756">
        <ele>49</ele>
        <time>2015-02-15T09:48:49Z</time>
      </trkpt>
      <trkpt lat="48.81794" lon="-3.23755">
        <ele>49</ele>
        <time>2015-02-15T09:48:50Z</time>
      </trkpt>
      <trkpt lat="48.818" lon="-3.23754">
        <ele>49</ele>
        <time>2015-02-15T09:48:51Z</time>
      </trkpt>
      <trkpt lat="48.81805" lon="-3.23752">
        <ele>49</ele>
        <time>2015-02-15T09:48:52Z</time>
      </trkpt>
      <trkpt lat="48.81811" lon="-3.2375">
        <ele>49</ele>
        <time>2015-02-15T09:48:53Z</time>
      </trkpt>
      <trkpt lat="48.81816" lon="-3.23747">
        <ele>49</ele>
        <time>2015-02-15T09:48:54Z</time>
      </trkpt>
      <trkpt lat="48.81821" lon="-3.23744">
        <ele>49</ele>
        <time>2015-02-15T09:48:55Z</time>
      </trkpt>
      <trkpt lat="48.81826" lon="-3.23741">
        <ele>49</ele>
        <time>2015-02-15T09:48:56Z</time>
      </trkpt>
      <trkpt lat="48.81831" lon="-3.23737">
        <ele>49</ele>
        <time>2015-02-15T09:48:57Z</time>
      </trkpt>
      <trkpt lat="48.81836" lon="-3.23734">
        <ele>49</ele>
        <time>2015-02-15T09:48:58Z</time>
      </trkpt>
      <trkpt lat="48.81841" lon="-3.23731">
        <ele>49</ele>
        <time>2015-02-15T09:48:59Z</time>
      </trkpt>
      <trkpt lat="48.81845" lon="-3.23728">
        <ele>49</ele>
        <time>2015-02-15T09:49:00Z</time>
      </trkpt>
      <trkpt lat="48.81849" lon="-3.23725">
        <ele>49</ele>
        <time>2015-02-15T09:49:01Z</time>
      </trkpt>
      <trkpt lat="48.81853" lon="-3.23722">
        <ele>49</ele>
        <time>2015-02-15T09:49:02Z</time>
      </trkpt>
      <trkpt lat="48.81857" lon="-3.23719">
        <ele>49</ele>
        <time>2015-02-15T09:49:03Z</time>
      </trkpt>
      <trkpt lat="48.81861" lon="-3.23717">
        <ele>49</ele>
        <time>2015-02-15T09:49:04Z</time>
      </trkpt>
      <trkpt lat="48.81865" lon="-3.23713">
        <ele>49</ele>
        <time>2015-02-15T09:49:05Z</time>
      </trkpt>
      <trkpt lat="48.8187" lon="-3.2371">
        <ele>49</ele>
        <time>2015-02-15T09:49:06Z</time>
      </trkpt>
      <trkpt lat="48.81874" lon="-3.23707">
        <ele>49</ele>
        <time>2015-02-15T09:49:07Z</time>
      </trkpt>
      <trkpt lat="48.81879" lon="-3.23704">
        <ele>49</ele>
        <time>2015-02-15T09:49:08Z</time>
      </trkpt>
      <trkpt lat="48.81884" lon="-3.237">
        <ele>49</ele>
        <time>2015-02-15T09:49:09Z</time>
      </trkpt>
      <trkpt lat="48.81889" lon="-3.23697">
        <ele>49</ele>
        <time>2015-02-15T09:49:10Z</time>
      </trkpt>
      <trkpt lat="48.81894" lon="-3.23693">
        <ele>49</ele>
        <time>2015-02-15T09:49:11Z</time>
      </trkpt>
      <trkpt lat="48.81899" lon="-3.2369">
        <ele>49</ele>
        <time>2015-02-15T09:49:12Z</time>
      </trkpt>
      <trkpt lat="48.81905" lon="-3.23686">
        <ele>49</ele>
        <time>2015-02-15T09:49:13Z</time>
      </trkpt>
      <trkpt lat="48.8191" lon="-3.23683">
        <ele>49</ele>
        <time>2015-02-15T09:49:14Z</time>
      </trkpt>
      <trkpt lat="48.81915" lon="-3.23679">
        <ele>49</ele>
        <time>2015-02-15T09:49:15Z</time>
      </trkpt>
      <trkpt lat="48.8192" lon="-3.23676">
        <ele>49</ele>
        <time>2015-02-15T09:49:16Z</time>
      </trkpt>
      <trkpt lat="48.81925" lon="-3.23672">
        <ele>49</ele>
        <time>2015-02-15T09:49:17Z</time>
      </trkpt>
      <trkpt lat="48.8193" lon="-3.23669">
        <ele>49</ele>
        <time>2015-02-15T09:49:18Z</time>
      </trkpt>
      <trkpt lat="48.81935" lon="-3.23665">
        <ele>49</ele>
        <time>2015-02-15T09:49:19Z</time>
      </trkpt>
      <trkpt lat="48.8194" lon="-3.23662">
        <ele>49</ele>
        <time>2015-02-15T09:49:20Z</time>
      </trkpt>
      <trkpt lat="48.81945" lon="-3.23658">
        <ele>49</ele>
        <time>2015-02-15T09:49:21Z</time>
      </trkpt>
      <trkpt lat="48.8195" lon="-3.23655">
        <ele>49</ele>
        <time>2015-02-15T09:49:22Z</time>
      </trkpt>
      <trkpt lat="48.81955" lon="-3.23652">
        <ele>49</ele>
        <time>2015-02-15T09:49:23Z</time>
      </trkpt>
      <trkpt lat="48.8196" lon="-3.23649">
        <ele>49</ele>
        <time>2015-02-15T09:49:24Z</time>
      </trkpt>
      <trkpt lat="48.81964" lon="-3.23645">
        <ele>49</ele>
        <time>2015-02-15T09:49:25Z</time>
      </trkpt>
      <trkpt lat="48.81969" lon="-3.23642">
        <ele>49</ele>
        <time>2015-02-15T09:49:26Z</time>
      </trkpt>
      <trkpt lat="48.81973" lon="-3.23639">
        <ele>49</ele>
        <time>2015-02-15T09:49:27Z</time>
      </trkpt>
      <trkpt lat="48.81977" lon="-3.23637">
        <ele>49</ele>
        <time>2015-02-15T09:49:28Z</time>
      </trkpt>
      <trkpt lat="48.81981" lon="-3.23634">
        <ele>49</ele>
        <time>2015-02-15T09:49:29Z</time>
      </trkpt>
      <trkpt lat="48.81985" lon="-3.23631">
        <ele>49</ele>
        <time>2015-02-15T09:49:30Z</time>
      </trkpt>
      <trkpt lat="48.8199" lon="-3.23628">
        <ele>49</ele>
        <time>2015-02-15T09:49:31Z</time>
      </trkpt>
      <trkpt lat="48.81994" lon="-3.23625">
        <ele>49</ele>
        <time>2015-02-15T09:49:32Z</time>
      </trkpt>
      <trkpt lat="48.81998" lon="-3.23622">
        <ele>49</ele>
        <time>2015-02-15T09:49:33Z</time>
      </trkpt>
      <trkpt lat="48.82003" lon="-3.23619">
        <ele>49</ele>
        <time>2015-02-15T09:49:34Z</time>
      </trkpt>
      <trkpt lat="48.82007" lon="-3.23617">
        <ele>49</ele>
        <time>2015-02-15T09:49:35Z</time>
      </trkpt>
      <trkpt lat="48.82011" lon="-3.23614">
        <ele>49</ele>
        <time>2015-02-15T09:49:36Z</time>
      </trkpt>
      <trkpt lat="48.82016" lon="-3.2361">
        <ele>49</ele>
        <time>2015-02-15T09:49:37Z</time>
      </trkpt>
      <trkpt lat="48.82021" lon="-3.23607">
        <ele>49</ele>
        <time>2015-02-15T09:49:38Z</time>
      </trkpt>
      <trkpt lat="48.82027" lon="-3.23603">
        <ele>49</ele>
        <time>2015-02-15T09:49:39Z</time>
      </trkpt>
      <trkpt lat="48.82032" lon="-3.236">
        <ele>49</ele>
        <time>2015-02-15T09:49:40Z</time>
      </trkpt>
      <trkpt lat="48.82037" lon="-3.23596">
        <ele>49</ele>
        <time>2015-02-15T09:49:41Z</time>
      </trkpt>
      <trkpt lat="48.82042" lon="-3.23592">
        <ele>49</ele>
        <time>2015-02-15T09:49:42Z</time>
      </trkpt>
      <trkpt lat="48.82046" lon="-3.23589">
        <ele>49</ele>
        <time>2015-02-15T09:49:43Z</time>
      </trkpt>
      <trkpt lat="48.82051" lon="-3.23585">
        <ele>49</ele>
        <time>2015-02-15T09:49:44Z</time>
      </trkpt>
      <trkpt lat="48.82056" lon="-3.23582">
        <ele>49</ele>
        <time>2015-02-15T09:49:45Z</time>
      </trkpt>
      <trkpt lat="48.82061" lon="-3.23579">
        <ele>49</ele>
        <time>2015-02-15T09:49:46Z</time>
      </trkpt>
      <trkpt lat="48.82065" lon="-3.23576">
        <ele>49</ele>
        <time>2015-02-15T09:49:47Z</time>
      </trkpt>
      <trkpt lat="48.82069" lon="-3.23573">
        <ele>49</ele>
        <time>2015-02-15T09:49:48Z</time>
      </trkpt>
      <trkpt lat="48.82073" lon="-3.2357">
        <ele>49</ele>
        <time>2015-02-15T09:49:49Z</time>
      </trkpt>
      <trkpt lat="48.82078" lon="-3.23567">
        <ele>49</ele>
        <time>2015-02-15T09:49:50Z</time>
      </trkpt>
      <trkpt lat="48.82082" lon="-3.23564">
        <ele>50</ele>
        <time>2015-02-15T09:49:51Z</time>
      </trkpt>
      <trkpt lat="48.82087" lon="-3.23561">
        <ele>50</ele>
        <time>2015-02-15T09:49:52Z</time>
      </trkpt>
      <trkpt lat="48.82092" lon="-3.23558">
        <ele>50</ele>
        <time>2015-02-15T09:49:53Z</time>
      </trkpt>
      <trkpt lat="48.82097" lon="-3.23554">
        <ele>50</ele>
        <time>2015-02-15T09:49:54Z</time>
      </trkpt>
      <trkpt lat="48.82102" lon="-3.23551">
        <ele>50</ele>
        <time>2015-02-15T09:49:55Z</time>
      </trkpt>
      <trkpt lat="48.82107" lon="-3.23547">
        <ele>50</ele>
        <time>2015-02-15T09:49:56Z</time>
      </trkpt>
      <trkpt lat="48.82112" lon="-3.23544">
        <ele>50</ele>
        <time>2015-02-15T09:49:57Z</time>
      </trkpt>
      <trkpt lat="48.82117" lon="-3.2354">
        <ele>50</ele>
        <time>2015-02-15T09:49:58Z</time>
      </trkpt>
      <trkpt lat="48.82122" lon="-3.23536">
        <ele>50</ele>
        <time>2015-02-15T09:49:59Z</time>
      </trkpt>
      <trkpt lat="48.82128" lon="-3.23533">
        <ele>50</ele>
        <time>2015-02-15T09:50:00Z</time>
      </trkpt>
      <trkpt lat="48.82133" lon="-3.23529">
        <ele>50</ele>
        <time>2015-02-15T09:50:01Z</time>
      </trkpt>
      <trkpt lat="48.82139" lon="-3.23525">
        <ele>50</ele>
        <time>2015-02-15T09:50:02Z</time>
      </trkpt>
      <trkpt lat="48.82144" lon="-3.23521">
        <ele>50</ele>
        <time>2015-02-15T09:50:03Z</time>
      </trkpt>
      <trkpt lat="48.8215" lon="-3.23518">
        <ele>50</ele>
        <time>2015-02-15T09:50:04Z</time>
      </trkpt>
      <trkpt lat="48.82155" lon="-3.23514">
        <ele>50</ele>
        <time>2015-02-15T09:50:05Z</time>
      </trkpt>
      <trkpt lat="48.82161" lon="-3.2351">
        <ele>50</ele>
        <time>2015-02-15T09:50:06Z</time>
      </trkpt>
      <trkpt lat="48.82166" lon="-3.23507">
        <ele>50</ele>
        <time>2015-02-15T09:50:07Z</time>
      </trkpt>
      <trkpt lat="48.82172" lon="-3.23503">
        <ele>50</ele>
        <time>2015-02-15T09:50:08Z</time>
      </trkpt>
      <trkpt lat="48.82177" lon="-3.23499">
        <ele>50</ele>
        <time>2015-02-15T09:50:09Z</time>
      </trkpt>
      <trkpt lat="48.82183" lon="-3.23495">
        <ele>50</ele>
        <time>2015-02-15T09:50:10Z</time>
      </trkpt>
      <trkpt lat="48.82189" lon="-3.23491">
        <ele>50</ele>
        <time>2015-02-15T09:50:11Z</time>
      </trkpt>
      <trkpt lat="48.82195" lon="-3.23487">
        <ele>50</ele>
        <time>2015-02-15T09:50:12Z</time>
      </trkpt>
      <trkpt lat="48.82201" lon="-3.23483">
        <ele>50</ele>
        <time>2015-02-15T09:50:13Z</time>
      </trkpt>
      <trkpt lat="48.82206" lon="-3.23479">
        <ele>50</ele>
        <time>2015-02-15T09:50:14Z</time>
      </trkpt>
      <trkpt lat="48.82213" lon="-3.23475">
        <ele>50</ele>
        <time>2015-02-15T09:50:15Z</time>
      </trkpt>
      <trkpt lat="48.82219" lon="-3.23471">
        <ele>50</ele>
        <time>2015-02-15T09:50:16Z</time>
      </trkpt>
      <trkpt lat="48.82225" lon="-3.23467">
        <ele>50</ele>
        <time>2015-02-15T09:50:17Z</time>
      </trkpt>
      <trkpt lat="48.82232" lon="-3.23464">
        <ele>50</ele>
        <time>2015-02-15T09:50:18Z</time>
      </trkpt>
      <trkpt lat="48.82238" lon="-3.23461">
        <ele>50</ele>
        <time>2015-02-15T09:50:19Z</time>
      </trkpt>
      <trkpt lat="48.82245" lon="-3.23457">
        <ele>50</ele>
        <time>2015-02-15T09:50:20Z</time>
      </trkpt>
      <trkpt lat="48.82252" lon="-3.23454">
        <ele>50</ele>
        <time>2015-02-15T09:50:21Z</time>
      </trkpt>
      <trkpt lat="48.82259" lon="-3.2345">
        <ele>50</ele>
        <time>2015-02-15T09:50:22Z</time>
      </trkpt>
      <trkpt lat="48.82266" lon="-3.23447">
        <ele>50</ele>
        <time>2015-02-15T09:50:23Z</time>
      </trkpt>
      <trkpt lat="48.82273" lon="-3.23444">
        <ele>50</ele>
        <time>2015-02-15T09:50:24Z</time>
      </trkpt>
      <trkpt lat="48.8228" lon="-3.23441">
        <ele>50</ele>
        <time>2015-02-15T09:50:25Z</time>
      </trkpt>
      <trkpt lat="48.82288" lon="-3.23438">
        <ele>50</ele>
        <time>2015-02-15T09:50:26Z</time>
      </trkpt>
      <trkpt lat="48.82296" lon="-3.23435">
        <ele>50</ele>
        <time>2015-02-15T09:50:27Z</time>
      </trkpt>
      <trkpt lat="48.82303" lon="-3.23433">
        <ele>50</ele>
        <time>2015-02-15T09:50:28Z</time>
      </trkpt>
      <trkpt lat="48.82311" lon="-3.23431">
        <ele>50</ele>
        <time>2015-02-15T09:50:29Z</time>
      </trkpt>
      <trkpt lat="48.82318" lon="-3.23429">
        <ele>50</ele>
        <time>2015-02-15T09:50:30Z</time>
      </trkpt>
      <trkpt lat="48.82326" lon="-3.23427">
        <ele>50</ele>
        <time>2015-02-15T09:50:31Z</time>
      </trkpt>
      <trkpt lat="48.82333" lon="-3.23425">
        <ele>50</ele>
        <time>2015-02-15T09:50:32Z</time>
      </trkpt>
      <trkpt lat="48.8234" lon="-3.23424">
        <ele>50</ele>
        <time>2015-02-15T09:50:33Z</time>
      </trkpt>
      <trkpt lat="48.82347" lon="-3.23423">
        <ele>50</ele>
        <time>2015-02-15T09:50:34Z</time>
      </trkpt>
      <trkpt lat="48.82355" lon="-3.23422">
        <ele>50</ele>
        <time>2015-02-15T09:50:35Z</time>
      </trkpt>
      <trkpt lat="48.82362" lon="-3.23421">
        <ele>50</ele>
        <time>2015-02-15T09:50:36Z</time>
      </trkpt>
      <trkpt lat="48.8237" lon="-3.2342">
        <ele>50</ele>
        <time>2015-02-15T09:50:37Z</time>
      </trkpt>
      <trkpt lat="48.82378" lon="-3.23419">
        <ele>50</ele>
        <time>2015-02-15T09:50:38Z</time>
      </trkpt>
      <trkpt lat="48.82386" lon="-3.23418">
        <ele>50</ele>
        <time>2015-02-15T09:50:39Z</time>
      </trkpt>
      <trkpt lat="48.82393" lon="-3.23418">
        <ele>50</ele>
        <time>2015-02-15T09:50:40Z</time>
      </trkpt>
      <trkpt lat="48.82401" lon="-3.23418">
        <ele>50</ele>
        <time>2015-02-15T09:50:41Z</time>
      </trkpt>
      <trkpt lat="48.82409" lon="-3.23418">
        <ele>50</ele>
        <time>2015-02-15T09:50:42Z</time>
      </trkpt>
      <trkpt lat="48.82417" lon="-3.23418">
        <ele>50</ele>
        <time>2015-02-15T09:50:43Z</time>
      </trkpt>
      <trkpt lat="48.82425" lon="-3.23419">
        <ele>50</ele>
        <time>2015-02-15T09:50:44Z</time>
      </trkpt>
      <trkpt lat="48.82433" lon="-3.23419">
        <ele>50</ele>
        <time>2015-02-15T09:50:45Z</time>
      </trkpt>
      <trkpt lat="48.82441" lon="-3.2342">
        <ele>50</ele>
        <time>2015-02-15T09:50:46Z</time>
      </trkpt>
      <trkpt lat="48.8245" lon="-3.23421">
        <ele>50</ele>
        <time>2015-02-15T09:50:47Z</time>
      </trkpt>
      <trkpt lat="48.82458" lon="-3.23422">
        <ele>50</ele>
        <time>2015-02-15T09:50:48Z</time>
      </trkpt>
      <trkpt lat="48.82466" lon="-3.23423">
        <ele>49</ele>
        <time>2015-02-15T09:50:49Z</time>
      </trkpt>
      <trkpt lat="48.82474" lon="-3.23424">
        <ele>49</ele>
        <time>2015-02-15T09:50:50Z</time>
      </trkpt>
      <trkpt lat="48.82483" lon="-3.23425">
        <ele>49</ele>
        <time>2015-02-15T09:50:51Z</time>
      </trkpt>
      <trkpt lat="48.82491" lon="-3.23426">
        <ele>49</ele>
        <time>2015-02-15T09:50:52Z</time>
      </trkpt>
      <trkpt lat="48.82499" lon="-3.23427">
        <ele>48</ele>
        <time>2015-02-15T09:50:53Z</time>
      </trkpt>
      <trkpt lat="48.82508" lon="-3.23428">
        <ele>48</ele>
        <time>2015-02-15T09:50:54Z</time>
      </trkpt>
      <trkpt lat="48.82517" lon="-3.23429">
        <ele>48</ele>
        <time>2015-02-15T09:50:55Z</time>
      </trkpt>
      <trkpt lat="48.82526" lon="-3.23431">
        <ele>48</ele>
        <time>2015-02-15T09:50:56Z</time>
      </trkpt>
      <trkpt lat="48.82534" lon="-3.23432">
        <ele>47</ele>
        <time>2015-02-15T09:50:57Z</time>
      </trkpt>
      <trkpt lat="48.82543" lon="-3.23433">
        <ele>47</ele>
        <time>2015-02-15T09:50:58Z</time>
      </trkpt>
      <trkpt lat="48.82552" lon="-3.23434">
        <ele>47</ele>
        <time>2015-02-15T09:50:59Z</time>
      </trkpt>
      <trkpt lat="48.82561" lon="-3.23435">
        <ele>47</ele>
        <time>2015-02-15T09:51:00Z</time>
      </trkpt>
      <trkpt lat="48.8257" lon="-3.23437">
        <ele>46</ele>
        <time>2015-02-15T09:51:01Z</time>
      </trkpt>
      <trkpt lat="48.82578" lon="-3.23438">
        <ele>46</ele>
        <time>2015-02-15T09:51:02Z</time>
      </trkpt>
      <trkpt lat="48.82587" lon="-3.23439">
        <ele>46</ele>
        <time>2015-02-15T09:51:03Z</time>
      </trkpt>
      <trkpt lat="48.82596" lon="-3.2344">
        <ele>45</ele>
        <time>2015-02-15T09:51:04Z</time>
      </trkpt>
      <trkpt lat="48.82605" lon="-3.23442">
        <ele>45</ele>
        <time>2015-02-15T09:51:05Z</time>
      </trkpt>
      <trkpt lat="48.82615" lon="-3.23443">
        <ele>45</ele>
        <time>2015-02-15T09:51:06Z</time>
      </trkpt>
      <trkpt lat="48.82625" lon="-3.23445">
        <ele>44</ele>
        <time>2015-02-15T09:51:07Z</time>
      </trkpt>
      <trkpt lat="48.82634" lon="-3.23446">
        <ele>44</ele>
        <time>2015-02-15T09:51:08Z</time>
      </trkpt>
      <trkpt lat="48.82645" lon="-3.23447">
        <ele>43</ele>
        <time>2015-02-15T09:51:09Z</time>
      </trkpt>
      <trkpt lat="48.82655" lon="-3.23449">
        <ele>42</ele>
        <time>2015-02-15T09:51:10Z</time>
      </trkpt>
      <trkpt lat="48.82665" lon="-3.2345">
        <ele>42</ele>
        <time>2015-02-15T09:51:11Z</time>
      </trkpt>
      <trkpt lat="48.82676" lon="-3.23452">
        <ele>41</ele>
        <time>2015-02-15T09:51:12Z</time>
      </trkpt>
      <trkpt lat="48.82686" lon="-3.23454">
        <ele>41</ele>
        <time>2015-02-15T09:51:13Z</time>
      </trkpt>
      <trkpt lat="48.82697" lon="-3.23455">
        <ele>40</ele>
        <time>2015-02-15T09:51:14Z</time>
      </trkpt>
      <trkpt lat="48.82707" lon="-3.23457">
        <ele>40</ele>
        <time>2015-02-15T09:51:15Z</time>
      </trkpt>
      <trkpt lat="48.82718" lon="-3.23458">
        <ele>39</ele>
        <time>2015-02-15T09:51:16Z</time>
      </trkpt>
      <trkpt lat="48.82728" lon="-3.2346">
        <ele>39</ele>
        <time>2015-02-15T09:51:17Z</time>
      </trkpt>
      <trkpt lat="48.82739" lon="-3.23462">
        <ele>38</ele>
        <time>2015-02-15T09:51:18Z</time>
      </trkpt>
      <trkpt lat="48.82749" lon="-3.23463">
        <ele>38</ele>
        <time>2015-02-15T09:51:19Z</time>
      </trkpt>
      <trkpt lat="48.82759" lon="-3.23464">
        <ele>38</ele>
        <time>2015-02-15T09:51:20Z</time>
      </trkpt>
      <trkpt lat="48.82769" lon="-3.23466">
        <ele>38</ele>
        <time>2015-02-15T09:51:21Z</time>
      </trkpt>
      <trkpt lat="48.82779" lon="-3.23467">
        <ele>38</ele>
        <time>2015-02-15T09:51:22Z</time>
      </trkpt>
      <trkpt lat="48.82787" lon="-3.23468">
        <ele>38</ele>
        <time>2015-02-15T09:51:23Z</time>
      </trkpt>
      <trkpt lat="48.82796" lon="-3.2347">
        <ele>38</ele>
        <time>2015-02-15T09:51:24Z</time>
      </trkpt>
      <trkpt lat="48.82804" lon="-3.2347">
        <ele>38</ele>
        <time>2015-02-15T09:51:25Z</time>
      </trkpt>
      <trkpt lat="48.82811" lon="-3.23471">
        <ele>38</ele>
        <time>2015-02-15T09:51:26Z</time>
      </trkpt>
      <trkpt lat="48.82819" lon="-3.23472">
        <ele>38</ele>
        <time>2015-02-15T09:51:27Z</time>
      </trkpt>
      <trkpt lat="48.82826" lon="-3.23473">
        <ele>38</ele>
        <time>2015-02-15T09:51:28Z</time>
      </trkpt>
      <trkpt lat="48.82832" lon="-3.23474">
        <ele>38</ele>
        <time>2015-02-15T09:51:29Z</time>
      </trkpt>
      <trkpt lat="48.82839" lon="-3.23474">
        <ele>38</ele>
        <time>2015-02-15T09:51:30Z</time>
      </trkpt>
      <trkpt lat="48.82846" lon="-3.23475">
        <ele>38</ele>
        <time>2015-02-15T09:51:31Z</time>
      </trkpt>
      <trkpt lat="48.82852" lon="-3.23476">
        <ele>38</ele>
        <time>2015-02-15T09:51:32Z</time>
      </trkpt>
      <trkpt lat="48.82859" lon="-3.23477">
        <ele>38</ele>
        <time>2015-02-15T09:51:33Z</time>
      </trkpt>
      <trkpt lat="48.82865" lon="-3.23478">
        <ele>38</ele>
        <time>2015-02-15T09:51:34Z</time>
      </trkpt>
      <trkpt lat="48.8287" lon="-3.23479">
        <ele>38</ele>
        <time>2015-02-15T09:51:35Z</time>
      </trkpt>
      <trkpt lat="48.82876" lon="-3.2348">
        <ele>38</ele>
        <time>2015-02-15T09:51:36Z</time>
      </trkpt>
      <trkpt lat="48.82882" lon="-3.23481">
        <ele>38</ele>
        <time>2015-02-15T09:51:37Z</time>
      </trkpt>
      <trkpt lat="48.82887" lon="-3.23481">
        <ele>38</ele>
        <time>2015-02-15T09:51:38Z</time>
      </trkpt>
      <trkpt lat="48.82893" lon="-3.23482">
        <ele>39</ele>
        <time>2015-02-15T09:51:39Z</time>
      </trkpt>
      <trkpt lat="48.82898" lon="-3.23482">
        <ele>39</ele>
        <time>2015-02-15T09:51:40Z</time>
      </trkpt>
      <trkpt lat="48.82903" lon="-3.23483">
        <ele>39</ele>
        <time>2015-02-15T09:51:41Z</time>
      </trkpt>
      <trkpt lat="48.82909" lon="-3.23484">
        <ele>40</ele>
        <time>2015-02-15T09:51:42Z</time>
      </trkpt>
      <trkpt lat="48.82914" lon="-3.23485">
        <ele>40</ele>
        <time>2015-02-15T09:51:43Z</time>
      </trkpt>
      <trkpt lat="48.82919" lon="-3.23485">
        <ele>41</ele>
        <time>2015-02-15T09:51:44Z</time>
      </trkpt>
      <trkpt lat="48.82925" lon="-3.23486">
        <ele>41</ele>
        <time>2015-02-15T09:51:45Z</time>
      </trkpt>
      <trkpt lat="48.8293" lon="-3.23487">
        <ele>41</ele>
        <time>2015-02-15T09:51:46Z</time>
      </trkpt>
      <trkpt lat="48.82936" lon="-3.23488">
        <ele>42</ele>
        <time>2015-02-15T09:51:47Z</time>
      </trkpt>
      <trkpt lat="48.82942" lon="-3.23488">
        <ele>42</ele>
        <time>2015-02-15T09:51:48Z</time>
      </trkpt>
      <trkpt lat="48.82948" lon="-3.23489">
        <ele>42</ele>
        <time>2015-02-15T09:51:49Z</time>
      </trkpt>
      <trkpt lat="48.82953" lon="-3.2349">
        <ele>43</ele>
        <time>2015-02-15T09:51:50Z</time>
      </trkpt>
      <trkpt lat="48.82959" lon="-3.2349">
        <ele>43</ele>
        <time>2015-02-15T09:51:51Z</time>
      </trkpt>
      <trkpt lat="48.82965" lon="-3.23491">
        <ele>43</ele>
        <time>2015-02-15T09:51:52Z</time>
      </trkpt>
      <trkpt lat="48.82971" lon="-3.23492">
        <ele>44</ele>
        <time>2015-02-15T09:51:53Z</time>
      </trkpt>
      <trkpt lat="48.82977" lon="-3.23493">
        <ele>44</ele>
        <time>2015-02-15T09:51:54Z</time>
      </trkpt>
      <trkpt lat="48.82983" lon="-3.23494">
        <ele>45</ele>
        <time>2015-02-15T09:51:55Z</time>
      </trkpt>
      <trkpt lat="48.82989" lon="-3.23495">
        <ele>45</ele>
        <time>2015-02-15T09:51:56Z</time>
      </trkpt>
      <trkpt lat="48.82995" lon="-3.23497">
        <ele>45</ele>
        <time>2015-02-15T09:51:57Z</time>
      </trkpt>
      <trkpt lat="48.83001" lon="-3.23498">
        <ele>46</ele>
        <time>2015-02-15T09:51:58Z</time>
      </trkpt>
      <trkpt lat="48.83007" lon="-3.235">
        <ele>46</ele>
        <time>2015-02-15T09:51:59Z</time>
      </trkpt>
      <trkpt lat="48.83013" lon="-3.23502">
        <ele>47</ele>
        <time>2015-02-15T09:52:00Z</time>
      </trkpt>
      <trkpt lat="48.83018" lon="-3.23504">
        <ele>47</ele>
        <time>2015-02-15T09:52:01Z</time>
      </trkpt>
      <trkpt lat="48.83024" lon="-3.23506">
        <ele>48</ele>
        <time>2015-02-15T09:52:02Z</time>
      </trkpt>
      <trkpt lat="48.8303" lon="-3.23508">
        <ele>48</ele>
        <time>2015-02-15T09:52:03Z</time>
      </trkpt>
      <trkpt lat="48.83036" lon="-3.2351">
        <ele>48</ele>
        <time>2015-02-15T09:52:04Z</time>
      </trkpt>
      <trkpt lat="48.83042" lon="-3.23513">
        <ele>49</ele>
        <time>2015-02-15T09:52:05Z</time>
      </trkpt>
      <trkpt lat="48.83048" lon="-3.23516">
        <ele>49</ele>
        <time>2015-02-15T09:52:06Z</time>
      </trkpt>
      <trkpt lat="48.83054" lon="-3.23518">
        <ele>50</ele>
        <time>2015-02-15T09:52:07Z</time>
      </trkpt>
      <trkpt lat="48.8306" lon="-3.2352">
        <ele>50</ele>
        <time>2015-02-15T09:52:08Z</time>
      </trkpt>
      <trkpt lat="48.83065" lon="-3.23522">
        <ele>50</ele>
        <time>2015-02-15T09:52:09Z</time>
      </trkpt>
      <trkpt lat="48.83072" lon="-3.23524">
        <ele>50</ele>
        <time>2015-02-15T09:52:10Z</time>
      </trkpt>
      <trkpt lat="48.83078" lon="-3.23526">
        <ele>51</ele>
        <time>2015-02-15T09:52:11Z</time>
      </trkpt>
      <trkpt lat="48.83084" lon="-3.23527">
        <ele>51</ele>
        <time>2015-02-15T09:52:12Z</time>
      </trkpt>
      <trkpt lat="48.8309" lon="-3.23527">
        <ele>51</ele>
        <time>2015-02-15T09:52:13Z</time>
      </trkpt>
      <trkpt lat="48.83103" lon="-3.23527">
        <ele>52</ele>
        <time>2015-02-15T09:52:15Z</time>
      </trkpt>
      <trkpt lat="48.8311" lon="-3.23526">
        <ele>52</ele>
        <time>2015-02-15T09:52:16Z</time>
      </trkpt>
      <trkpt lat="48.83116" lon="-3.23525">
        <ele>52</ele>
        <time>2015-02-15T09:52:17Z</time>
      </trkpt>
      <trkpt lat="48.83122" lon="-3.23524">
        <ele>52</ele>
        <time>2015-02-15T09:52:18Z</time>
      </trkpt>
      <trkpt lat="48.83129" lon="-3.23523">
        <ele>53</ele>
        <time>2015-02-15T09:52:19Z</time>
      </trkpt>
      <trkpt lat="48.83135" lon="-3.23521">
        <ele>53</ele>
        <time>2015-02-15T09:52:20Z</time>
      </trkpt>
      <trkpt lat="48.83141" lon="-3.2352">
        <ele>53</ele>
        <time>2015-02-15T09:52:21Z</time>
      </trkpt>
      <trkpt lat="48.83147" lon="-3.23519">
        <ele>53</ele>
        <time>2015-02-15T09:52:22Z</time>
      </trkpt>
      <trkpt lat="48.83154" lon="-3.23518">
        <ele>53</ele>
        <time>2015-02-15T09:52:23Z</time>
      </trkpt>
      <trkpt lat="48.83167" lon="-3.23519">
        <ele>53</ele>
        <time>2015-02-15T09:52:25Z</time>
      </trkpt>
      <trkpt lat="48.83173" lon="-3.23519">
        <ele>54</ele>
        <time>2015-02-15T09:52:26Z</time>
      </trkpt>
      <trkpt lat="48.83179" lon="-3.2352">
        <ele>54</ele>
        <time>2015-02-15T09:52:27Z</time>
      </trkpt>
      <trkpt lat="48.83185" lon="-3.23521">
        <ele>54</ele>
        <time>2015-02-15T09:52:28Z</time>
      </trkpt>
      <trkpt lat="48.83191" lon="-3.23522">
        <ele>54</ele>
        <time>2015-02-15T09:52:29Z</time>
      </trkpt>
      <trkpt lat="48.83197" lon="-3.23524">
        <ele>54</ele>
        <time>2015-02-15T09:52:30Z</time>
      </trkpt>
      <trkpt lat="48.83203" lon="-3.23525">
        <ele>54</ele>
        <time>2015-02-15T09:52:31Z</time>
      </trkpt>
      <trkpt lat="48.83207" lon="-3.23526">
        <ele>54</ele>
        <time>2015-02-15T09:52:32Z</time>
      </trkpt>
      <trkpt lat="48.83212" lon="-3.23527">
        <ele>54</ele>
        <time>2015-02-15T09:52:33Z</time>
      </trkpt>
      <trkpt lat="48.83217" lon="-3.23527">
        <ele>54</ele>
        <time>2015-02-15T09:52:34Z</time>
      </trkpt>
      <trkpt lat="48.83221" lon="-3.23527">
        <ele>54</ele>
        <time>2015-02-15T09:52:35Z</time>
      </trkpt>
      <trkpt lat="48.83225" lon="-3.23528">
        <ele>54</ele>
        <time>2015-02-15T09:52:36Z</time>
      </trkpt>
      <trkpt lat="48.83229" lon="-3.23529">
        <ele>54</ele>
        <time>2015-02-15T09:52:37Z</time>
      </trkpt>
      <trkpt lat="48.83233" lon="-3.2353">
        <ele>54</ele>
        <time>2015-02-15T09:52:38Z</time>
      </trkpt>
      <trkpt lat="48.83235" lon="-3.23534">
        <ele>54</ele>
        <time>2015-02-15T09:52:39Z</time>
      </trkpt>
      <trkpt lat="48.83236" lon="-3.2354">
        <ele>54</ele>
        <time>2015-02-15T09:52:40Z</time>
      </trkpt>
      <trkpt lat="48.83234" lon="-3.23548">
        <ele>54</ele>
        <time>2015-02-15T09:52:41Z</time>
      </trkpt>
      <trkpt lat="48.83232" lon="-3.23556">
        <ele>54</ele>
        <time>2015-02-15T09:52:42Z</time>
      </trkpt>
      <trkpt lat="48.83229" lon="-3.23564">
        <ele>54</ele>
        <time>2015-02-15T09:52:43Z</time>
      </trkpt>
      <trkpt lat="48.83226" lon="-3.23573">
        <ele>54</ele>
        <time>2015-02-15T09:52:44Z</time>
      </trkpt>
      <trkpt lat="48.83223" lon="-3.23583">
        <ele>54</ele>
        <time>2015-02-15T09:52:45Z</time>
      </trkpt>
      <trkpt lat="48.83219" lon="-3.23592">
        <ele>54</ele>
        <time>2015-02-15T09:52:46Z</time>
      </trkpt>
      <trkpt lat="48.83215" lon="-3.23601">
        <ele>54</ele>
        <time>2015-02-15T09:52:47Z</time>
      </trkpt>
      <trkpt lat="48.83211" lon="-3.2361">
        <ele>54</ele>
        <time>2015-02-15T09:52:48Z</time>
      </trkpt>
      <trkpt lat="48.83207" lon="-3.23619">
        <ele>54</ele>
        <time>2015-02-15T09:52:49Z</time>
      </trkpt>
      <trkpt lat="48.83202" lon="-3.23628">
        <ele>54</ele>
        <time>2015-02-15T09:52:50Z</time>
      </trkpt>
      <trkpt lat="48.83197" lon="-3.23637">
        <ele>54</ele>
        <time>2015-02-15T09:52:51Z</time>
      </trkpt>
      <trkpt lat="48.83191" lon="-3.23645">
        <ele>54</ele>
        <time>2015-02-15T09:52:52Z</time>
      </trkpt>
      <trkpt lat="48.83186" lon="-3.23653">
        <ele>54</ele>
        <time>2015-02-15T09:52:53Z</time>
      </trkpt>
      <trkpt lat="48.8318" lon="-3.23661">
        <ele>54</ele>
        <time>2015-02-15T09:52:54Z</time>
      </trkpt>
      <trkpt lat="48.83175" lon="-3.23669">
        <ele>54</ele>
        <time>2015-02-15T09:52:55Z</time>
      </trkpt>
      <trkpt lat="48.83169" lon="-3.23676">
        <ele>54</ele>
        <time>2015-02-15T09:52:56Z</time>
      </trkpt>
      <trkpt lat="48.83163" lon="-3.23683">
        <ele>54</ele>
        <time>2015-02-15T09:52:57Z</time>
      </trkpt>
      <trkpt lat="48.83158" lon="-3.23691">
        <ele>54</ele>
        <time>2015-02-15T09:52:58Z</time>
      </trkpt>
      <trkpt lat="48.83152" lon="-3.23698">
        <ele>54</ele>
        <time>2015-02-15T09:52:59Z</time>
      </trkpt>
      <trkpt lat="48.83147" lon="-3.23706">
        <ele>54</ele>
        <time>2015-02-15T09:53:00Z</time>
      </trkpt>
      <trkpt lat="48.83142" lon="-3.23713">
        <ele>54</ele>
        <time>2015-02-15T09:53:01Z</time>
      </trkpt>
      <trkpt lat="48.83137" lon="-3.23721">
        <ele>54</ele>
        <time>2015-02-15T09:53:02Z</time>
      </trkpt>
      <trkpt lat="48.83133" lon="-3.2373">
        <ele>54</ele>
        <time>2015-02-15T09:53:03Z</time>
      </trkpt>
      <trkpt lat="48.8313" lon="-3.23739">
        <ele>54</ele>
        <time>2015-02-15T09:53:04Z</time>
      </trkpt>
      <trkpt lat="48.83127" lon="-3.23749">
        <ele>54</ele>
        <time>2015-02-15T09:53:05Z</time>
      </trkpt>
      <trkpt lat="48.83126" lon="-3.23759">
        <ele>54</ele>
        <time>2015-02-15T09:53:06Z</time>
      </trkpt>
      <trkpt lat="48.83126" lon="-3.23769">
        <ele>54</ele>
        <time>2015-02-15T09:53:07Z</time>
      </trkpt>
      <trkpt lat="48.83126" lon="-3.23778">
        <ele>54</ele>
        <time>2015-02-15T09:53:08Z</time>
      </trkpt>
      <trkpt lat="48.83126" lon="-3.23788">
        <ele>54</ele>
        <time>2015-02-15T09:53:09Z</time>
      </trkpt>
      <trkpt lat="48.83127" lon="-3.23797">
        <ele>54</ele>
        <time>2015-02-15T09:53:10Z</time>
      </trkpt>
      <trkpt lat="48.83128" lon="-3.23807">
        <ele>54</ele>
        <time>2015-02-15T09:53:11Z</time>
      </trkpt>
      <trkpt lat="48.83128" lon="-3.23816">
        <ele>54</ele>
        <time>2015-02-15T09:53:12Z</time>
      </trkpt>
      <trkpt lat="48.83129" lon="-3.23826">
        <ele>54</ele>
        <time>2015-02-15T09:53:13Z</time>
      </trkpt>
      <trkpt lat="48.83129" lon="-3.23836">
        <ele>54</ele>
        <time>2015-02-15T09:53:14Z</time>
      </trkpt>
      <trkpt lat="48.8313" lon="-3.23845">
        <ele>54</ele>
        <time>2015-02-15T09:53:15Z</time>
      </trkpt>
      <trkpt lat="48.83131" lon="-3.23855">
        <ele>54</ele>
        <time>2015-02-15T09:53:16Z</time>
      </trkpt>
      <trkpt lat="48.83132" lon="-3.23865">
        <ele>55</ele>
        <time>2015-02-15T09:53:17Z</time>
      </trkpt>
      <trkpt lat="48.83133" lon="-3.23876">
        <ele>55</ele>
        <time>2015-02-15T09:53:18Z</time>
      </trkpt>
      <trkpt lat="48.83133" lon="-3.23885">
        <ele>55</ele>
        <time>2015-02-15T09:53:19Z</time>
      </trkpt>
      <trkpt lat="48.83134" lon="-3.23896">
        <ele>55</ele>
        <time>2015-02-15T09:53:20Z</time>
      </trkpt>
      <trkpt lat="48.83135" lon="-3.23906">
        <ele>55</ele>
        <time>2015-02-15T09:53:21Z</time>
      </trkpt>
      <trkpt lat="48.83135" lon="-3.23917">
        <ele>55</ele>
        <time>2015-02-15T09:53:22Z</time>
      </trkpt>
      <trkpt lat="48.83136" lon="-3.23927">
        <ele>55</ele>
        <time>2015-02-15T09:53:23Z</time>
      </trkpt>
      <trkpt lat="48.83137" lon="-3.23937">
        <ele>55</ele>
        <time>2015-02-15T09:53:24Z</time>
      </trkpt>
      <trkpt lat="48.83137" lon="-3.23948">
        <ele>55</ele>
        <time>2015-02-15T09:53:25Z</time>
      </trkpt>
      <trkpt lat="48.83138" lon="-3.23958">
        <ele>56</ele>
        <time>2015-02-15T09:53:26Z</time>
      </trkpt>
      <trkpt lat="48.83138" lon="-3.23969">
        <ele>56</ele>
        <time>2015-02-15T09:53:27Z</time>
      </trkpt>
      <trkpt lat="48.83138" lon="-3.24012">
        <ele>56</ele>
        <time>2015-02-15T09:53:31Z</time>
      </trkpt>
      <trkpt lat="48.83138" lon="-3.24034">
        <ele>56</ele>
        <time>2015-02-15T09:53:33Z</time>
      </trkpt>
      <trkpt lat="48.83137" lon="-3.24056">
        <ele>57</ele>
        <time>2015-02-15T09:53:35Z</time>
      </trkpt>
      <trkpt lat="48.83137" lon="-3.24078">
        <ele>57</ele>
        <time>2015-02-15T09:53:37Z</time>
      </trkpt>
      <trkpt lat="48.83136" lon="-3.24089">
        <ele>57</ele>
        <time>2015-02-15T09:53:38Z</time>
      </trkpt>
      <trkpt lat="48.83136" lon="-3.24099">
        <ele>57</ele>
        <time>2015-02-15T09:53:39Z</time>
      </trkpt>
      <trkpt lat="48.83135" lon="-3.2411">
        <ele>57</ele>
        <time>2015-02-15T09:53:40Z</time>
      </trkpt>
      <trkpt lat="48.83133" lon="-3.24121">
        <ele>58</ele>
        <time>2015-02-15T09:53:41Z</time>
      </trkpt>
      <trkpt lat="48.83132" lon="-3.24131">
        <ele>58</ele>
        <time>2015-02-15T09:53:42Z</time>
      </trkpt>
      <trkpt lat="48.83129" lon="-3.2414">
        <ele>58</ele>
        <time>2015-02-15T09:53:43Z</time>
      </trkpt>
      <trkpt lat="48.83126" lon="-3.24149">
        <ele>58</ele>
        <time>2015-02-15T09:53:44Z</time>
      </trkpt>
      <trkpt lat="48.83123" lon="-3.24158">
        <ele>59</ele>
        <time>2015-02-15T09:53:45Z</time>
      </trkpt>
      <trkpt lat="48.83119" lon="-3.24166">
        <ele>59</ele>
        <time>2015-02-15T09:53:46Z</time>
      </trkpt>
      <trkpt lat="48.83116" lon="-3.24175">
        <ele>59</ele>
        <time>2015-02-15T09:53:47Z</time>
      </trkpt>
      <trkpt lat="48.83112" lon="-3.24182">
        <ele>59</ele>
        <time>2015-02-15T09:53:48Z</time>
      </trkpt>
      <trkpt lat="48.83108" lon="-3.2419">
        <ele>60</ele>
        <time>2015-02-15T09:53:49Z</time>
      </trkpt>
      <trkpt lat="48.83104" lon="-3.24197">
        <ele>60</ele>
        <time>2015-02-15T09:53:50Z</time>
      </trkpt>
      <trkpt lat="48.83099" lon="-3.24204">
        <ele>60</ele>
        <time>2015-02-15T09:53:51Z</time>
      </trkpt>
      <trkpt lat="48.83094" lon="-3.24211">
        <ele>60</ele>
        <time>2015-02-15T09:53:52Z</time>
      </trkpt>
      <trkpt lat="48.83089" lon="-3.24218">
        <ele>60</ele>
        <time>2015-02-15T09:53:53Z</time>
      </trkpt>
      <trkpt lat="48.83085" lon="-3.24224">
        <ele>61</ele>
        <time>2015-02-15T09:53:54Z</time>
      </trkpt>
      <trkpt lat="48.8308" lon="-3.2423">
        <ele>61</ele>
        <time>2015-02-15T09:53:55Z</time>
      </trkpt>
      <trkpt lat="48.83075" lon="-3.24236">
        <ele>61</ele>
        <time>2015-02-15T09:53:56Z</time>
      </trkpt>
      <trkpt lat="48.8307" lon="-3.24242">
        <ele>61</ele>
        <time>2015-02-15T09:53:57Z</time>
      </trkpt>
      <trkpt lat="48.83065" lon="-3.24249">
        <ele>61</ele>
        <time>2015-02-15T09:53:58Z</time>
      </trkpt>
      <trkpt lat="48.8306" lon="-3.24256">
        <ele>61</ele>
        <time>2015-02-15T09:53:59Z</time>
      </trkpt>
      <trkpt lat="48.83055" lon="-3.24264">
        <ele>61</ele>
        <time>2015-02-15T09:54:00Z</time>
      </trkpt>
      <trkpt lat="48.83051" lon="-3.24272">
        <ele>62</ele>
        <time>2015-02-15T09:54:01Z</time>
      </trkpt>
      <trkpt lat="48.83047" lon="-3.24279">
        <ele>62</ele>
        <time>2015-02-15T09:54:02Z</time>
      </trkpt>
      <trkpt lat="48.83044" lon="-3.24287">
        <ele>62</ele>
        <time>2015-02-15T09:54:03Z</time>
      </trkpt>
      <trkpt lat="48.83041" lon="-3.24295">
        <ele>62</ele>
        <time>2015-02-15T09:54:04Z</time>
      </trkpt>
      <trkpt lat="48.83037" lon="-3.24303">
        <ele>62</ele>
        <time>2015-02-15T09:54:05Z</time>
      </trkpt>
      <trkpt lat="48.83034" lon="-3.2431">
        <ele>62</ele>
        <time>2015-02-15T09:54:06Z</time>
      </trkpt>
      <trkpt lat="48.83031" lon="-3.24319">
        <ele>63</ele>
        <time>2015-02-15T09:54:07Z</time>
      </trkpt>
      <trkpt lat="48.83027" lon="-3.24327">
        <ele>63</ele>
        <time>2015-02-15T09:54:08Z</time>
      </trkpt>
      <trkpt lat="48.83024" lon="-3.24336">
        <ele>63</ele>
        <time>2015-02-15T09:54:09Z</time>
      </trkpt>
      <trkpt lat="48.8302" lon="-3.24345">
        <ele>63</ele>
        <time>2015-02-15T09:54:10Z</time>
      </trkpt>
      <trkpt lat="48.83017" lon="-3.24354">
        <ele>63</ele>
        <time>2015-02-15T09:54:11Z</time>
      </trkpt>
      <trkpt lat="48.83013" lon="-3.24362">
        <ele>63</ele>
        <time>2015-02-15T09:54:12Z</time>
      </trkpt>
      <trkpt lat="48.83009" lon="-3.24371">
        <ele>64</ele>
        <time>2015-02-15T09:54:13Z</time>
      </trkpt>
      <trkpt lat="48.83005" lon="-3.2438">
        <ele>64</ele>
        <time>2015-02-15T09:54:14Z</time>
      </trkpt>
      <trkpt lat="48.83001" lon="-3.24389">
        <ele>64</ele>
        <time>2015-02-15T09:54:15Z</time>
      </trkpt>
      <trkpt lat="48.82998" lon="-3.24398">
        <ele>64</ele>
        <time>2015-02-15T09:54:16Z</time>
      </trkpt>
      <trkpt lat="48.82994" lon="-3.24407">
        <ele>64</ele>
        <time>2015-02-15T09:54:17Z</time>
      </trkpt>
      <trkpt lat="48.8299" lon="-3.24416">
        <ele>64</ele>
        <time>2015-02-15T09:54:18Z</time>
      </trkpt>
      <trkpt lat="48.82986" lon="-3.24425">
        <ele>64</ele>
        <time>2015-02-15T09:54:19Z</time>
      </trkpt>
      <trkpt lat="48.82982" lon="-3.24435">
        <ele>64</ele>
        <time>2015-02-15T09:54:20Z</time>
      </trkpt>
      <trkpt lat="48.82978" lon="-3.24444">
        <ele>64</ele>
        <time>2015-02-15T09:54:21Z</time>
      </trkpt>
      <trkpt lat="48.82974" lon="-3.24454">
        <ele>64</ele>
        <time>2015-02-15T09:54:22Z</time>
      </trkpt>
      <trkpt lat="48.8297" lon="-3.24463">
        <ele>64</ele>
        <time>2015-02-15T09:54:23Z</time>
      </trkpt>
      <trkpt lat="48.82965" lon="-3.24473">
        <ele>64</ele>
        <time>2015-02-15T09:54:24Z</time>
      </trkpt>
      <trkpt lat="48.82961" lon="-3.24483">
        <ele>64</ele>
        <time>2015-02-15T09:54:25Z</time>
      </trkpt>
      <trkpt lat="48.82956" lon="-3.24492">
        <ele>64</ele>
        <time>2015-02-15T09:54:26Z</time>
      </trkpt>
      <trkpt lat="48.82952" lon="-3.24502">
        <ele>64</ele>
        <time>2015-02-15T09:54:27Z</time>
      </trkpt>
      <trkpt lat="48.82947" lon="-3.24512">
        <ele>64</ele>
        <time>2015-02-15T09:54:28Z</time>
      </trkpt>
      <trkpt lat="48.82942" lon="-3.24521">
        <ele>64</ele>
        <time>2015-02-15T09:54:29Z</time>
      </trkpt>
      <trkpt lat="48.82937" lon="-3.24531">
        <ele>64</ele>
        <time>2015-02-15T09:54:30Z</time>
      </trkpt>
      <trkpt lat="48.82932" lon="-3.24541">
        <ele>64</ele>
        <time>2015-02-15T09:54:31Z</time>
      </trkpt>
      <trkpt lat="48.82927" lon="-3.2455">
        <ele>64</ele>
        <time>2015-02-15T09:54:32Z</time>
      </trkpt>
      <trkpt lat="48.82923" lon="-3.2456">
        <ele>64</ele>
        <time>2015-02-15T09:54:33Z</time>
      </trkpt>
      <trkpt lat="48.82918" lon="-3.2457">
        <ele>64</ele>
        <time>2015-02-15T09:54:34Z</time>
      </trkpt>
      <trkpt lat="48.82913" lon="-3.24579">
        <ele>64</ele>
        <time>2015-02-15T09:54:35Z</time>
      </trkpt>
      <trkpt lat="48.82909" lon="-3.24588">
        <ele>64</ele>
        <time>2015-02-15T09:54:36Z</time>
      </trkpt>
      <trkpt lat="48.82904" lon="-3.24598">
        <ele>64</ele>
        <time>2015-02-15T09:54:37Z</time>
      </trkpt>
      <trkpt lat="48.82899" lon="-3.24607">
        <ele>64</ele>
        <time>2015-02-15T09:54:38Z</time>
      </trkpt>
      <trkpt lat="48.82894" lon="-3.24617">
        <ele>64</ele>
        <time>2015-02-15T09:54:39Z</time>
      </trkpt>
      <trkpt lat="48.82889" lon="-3.24626">
        <ele>64</ele>
        <time>2015-02-15T09:54:40Z</time>
      </trkpt>
      <trkpt lat="48.82884" lon="-3.24636">
        <ele>64</ele>
        <time>2015-02-15T09:54:41Z</time>
      </trkpt>
      <trkpt lat="48.82879" lon="-3.24645">
        <ele>64</ele>
        <time>2015-02-15T09:54:42Z</time>
      </trkpt>
      <trkpt lat="48.82875" lon="-3.24655">
        <ele>64</ele>
        <time>2015-02-15T09:54:43Z</time>
      </trkpt>
      <trkpt lat="48.8287" lon="-3.24664">
        <ele>64</ele>
        <time>2015-02-15T09:54:44Z</time>
      </trkpt>
      <trkpt lat="48.82865" lon="-3.24673">
        <ele>64</ele>
        <time>2015-02-15T09:54:45Z</time>
      </trkpt>
      <trkpt lat="48.82861" lon="-3.24683">
        <ele>64</ele>
        <time>2015-02-15T09:54:46Z</time>
      </trkpt>
      <trkpt lat="48.82856" lon="-3.24692">
        <ele>64</ele>
        <time>2015-02-15T09:54:47Z</time>
      </trkpt>
      <trkpt lat="48.82851" lon="-3.24701">
        <ele>64</ele>
        <time>2015-02-15T09:54:48Z</time>
      </trkpt>
      <trkpt lat="48.82846" lon="-3.2471">
        <ele>64</ele>
        <time>2015-02-15T09:54:49Z</time>
      </trkpt>
      <trkpt lat="48.82841" lon="-3.2472">
        <ele>64</ele>
        <time>2015-02-15T09:54:50Z</time>
      </trkpt>
      <trkpt lat="48.82837" lon="-3.24729">
        <ele>64</ele>
        <time>2015-02-15T09:54:51Z</time>
      </trkpt>
      <trkpt lat="48.82832" lon="-3.24738">
        <ele>64</ele>
        <time>2015-02-15T09:54:52Z</time>
      </trkpt>
      <trkpt lat="48.82827" lon="-3.24747">
        <ele>64</ele>
        <time>2015-02-15T09:54:53Z</time>
      </trkpt>
      <trkpt lat="48.82823" lon="-3.24756">
        <ele>64</ele>
        <time>2015-02-15T09:54:54Z</time>
      </trkpt>
      <trkpt lat="48.82819" lon="-3.24764">
        <ele>64</ele>
        <time>2015-02-15T09:54:55Z</time>
      </trkpt>
      <trkpt lat="48.82814" lon="-3.24773">
        <ele>65</ele>
        <time>2015-02-15T09:54:56Z</time>
      </trkpt>
      <trkpt lat="48.8281" lon="-3.24782">
        <ele>65</ele>
        <time>2015-02-15T09:54:57Z</time>
      </trkpt>
      <trkpt lat="48.82805" lon="-3.24791">
        <ele>65</ele>
        <time>2015-02-15T09:54:58Z</time>
      </trkpt>
      <trkpt lat="48.82801" lon="-3.248">
        <ele>65</ele>
        <time>2015-02-15T09:54:59Z</time>
      </trkpt>
      <trkpt lat="48.82796" lon="-3.24809">
        <ele>65</ele>
        <time>2015-02-15T09:55:00Z</time>
      </trkpt>
      <trkpt lat="48.82791" lon="-3.24818">
        <ele>65</ele>
        <time>2015-02-15T09:55:01Z</time>
      </trkpt>
      <trkpt lat="48.82786" lon="-3.24827">
        <ele>65</ele>
        <time>2015-02-15T09:55:02Z</time>
      </trkpt>
      <trkpt lat="48.82781" lon="-3.24836">
        <ele>65</ele>
        <time>2015-02-15T09:55:03Z</time>
      </trkpt>
      <trkpt lat="48.82776" lon="-3.24845">
        <ele>65</ele>
        <time>2015-02-15T09:55:04Z</time>
      </trkpt>
      <trkpt lat="48.82771" lon="-3.24854">
        <ele>65</ele>
        <time>2015-02-15T09:55:05Z</time>
      </trkpt>
      <trkpt lat="48.82765" lon="-3.24863">
        <ele>65</ele>
        <time>2015-02-15T09:55:06Z</time>
      </trkpt>
      <trkpt lat="48.8276" lon="-3.24871">
        <ele>66</ele>
        <time>2015-02-15T09:55:07Z</time>
      </trkpt>
      <trkpt lat="48.82754" lon="-3.2488">
        <ele>66</ele>
        <time>2015-02-15T09:55:08Z</time>
      </trkpt>
      <trkpt lat="48.82748" lon="-3.24888">
        <ele>66</ele>
        <time>2015-02-15T09:55:09Z</time>
      </trkpt>
      <trkpt lat="48.82742" lon="-3.24897">
        <ele>66</ele>
        <time>2015-02-15T09:55:10Z</time>
      </trkpt>
      <trkpt lat="48.82736" lon="-3.24906">
        <ele>66</ele>
        <time>2015-02-15T09:55:11Z</time>
      </trkpt>
      <trkpt lat="48.8273" lon="-3.24914">
        <ele>66</ele>
        <time>2015-02-15T09:55:12Z</time>
      </trkpt>
      <trkpt lat="48.82724" lon="-3.24923">
        <ele>66</ele>
        <time>2015-02-15T09:55:13Z</time>
      </trkpt>
      <trkpt lat="48.82718" lon="-3.24931">
        <ele>66</ele>
        <time>2015-02-15T09:55:14Z</time>
      </trkpt>
      <trkpt lat="48.82712" lon="-3.2494">
        <ele>66</ele>
        <time>2015-02-15T09:55:15Z</time>
      </trkpt>
      <trkpt lat="48.82706" lon="-3.24948">
        <ele>66</ele>
        <time>2015-02-15T09:55:16Z</time>
      </trkpt>
      <trkpt lat="48.82699" lon="-3.24956">
        <ele>66</ele>
        <time>2015-02-15T09:55:17Z</time>
      </trkpt>
      <trkpt lat="48.82693" lon="-3.24965">
        <ele>66</ele>
        <time>2015-02-15T09:55:18Z</time>
      </trkpt>
      <trkpt lat="48.82687" lon="-3.24973">
        <ele>66</ele>
        <time>2015-02-15T09:55:19Z</time>
      </trkpt>
      <trkpt lat="48.82681" lon="-3.24982">
        <ele>66</ele>
        <time>2015-02-15T09:55:20Z</time>
      </trkpt>
      <trkpt lat="48.82675" lon="-3.2499">
        <ele>66</ele>
        <time>2015-02-15T09:55:21Z</time>
      </trkpt>
      <trkpt lat="48.82669" lon="-3.24998">
        <ele>66</ele>
        <time>2015-02-15T09:55:22Z</time>
      </trkpt>
      <trkpt lat="48.82662" lon="-3.25006">
        <ele>66</ele>
        <time>2015-02-15T09:55:23Z</time>
      </trkpt>
      <trkpt lat="48.82655" lon="-3.25013">
        <ele>66</ele>
        <time>2015-02-15T09:55:24Z</time>
      </trkpt>
      <trkpt lat="48.82649" lon="-3.25021">
        <ele>66</ele>
        <time>2015-02-15T09:55:25Z</time>
      </trkpt>
      <trkpt lat="48.82642" lon="-3.25028">
        <ele>66</ele>
        <time>2015-02-15T09:55:26Z</time>
      </trkpt>
      <trkpt lat="48.82635" lon="-3.25035">
        <ele>66</ele>
        <time>2015-02-15T09:55:27Z</time>
      </trkpt>
      <trkpt lat="48.82628" lon="-3.25041">
        <ele>66</ele>
        <time>2015-02-15T09:55:28Z</time>
      </trkpt>
      <trkpt lat="48.8262" lon="-3.25046">
        <ele>66</ele>
        <time>2015-02-15T09:55:29Z</time>
      </trkpt>
      <trkpt lat="48.82612" lon="-3.25051">
        <ele>66</ele>
        <time>2015-02-15T09:55:30Z</time>
      </trkpt>
      <trkpt lat="48.82604" lon="-3.25055">
        <ele>66</ele>
        <time>2015-02-15T09:55:31Z</time>
      </trkpt>
      <trkpt lat="48.82596" lon="-3.25059">
        <ele>66</ele>
        <time>2015-02-15T09:55:32Z</time>
      </trkpt>
      <trkpt lat="48.82587" lon="-3.25062">
        <ele>66</ele>
        <time>2015-02-15T09:55:33Z</time>
      </trkpt>
      <trkpt lat="48.82579" lon="-3.25065">
        <ele>66</ele>
        <time>2015-02-15T09:55:34Z</time>
      </trkpt>
      <trkpt lat="48.8257" lon="-3.25068">
        <ele>66</ele>
        <time>2015-02-15T09:55:35Z</time>
      </trkpt>
      <trkpt lat="48.82561" lon="-3.2507">
        <ele>66</ele>
        <time>2015-02-15T09:55:36Z</time>
      </trkpt>
      <trkpt lat="48.82552" lon="-3.25072">
        <ele>66</ele>
        <time>2015-02-15T09:55:37Z</time>
      </trkpt>
      <trkpt lat="48.82544" lon="-3.25073">
        <ele>66</ele>
        <time>2015-02-15T09:55:38Z</time>
      </trkpt>
      <trkpt lat="48.82535" lon="-3.25075">
        <ele>66</ele>
        <time>2015-02-15T09:55:39Z</time>
      </trkpt>
      <trkpt lat="48.82526" lon="-3.25077">
        <ele>66</ele>
        <time>2015-02-15T09:55:40Z</time>
      </trkpt>
      <trkpt lat="48.82517" lon="-3.25079">
        <ele>66</ele>
        <time>2015-02-15T09:55:41Z</time>
      </trkpt>
      <trkpt lat="48.82508" lon="-3.25082">
        <ele>66</ele>
        <time>2015-02-15T09:55:42Z</time>
      </trkpt>
      <trkpt lat="48.82499" lon="-3.25087">
        <ele>66</ele>
        <time>2015-02-15T09:55:43Z</time>
      </trkpt>
      <trkpt lat="48.82491" lon="-3.25093">
        <ele>66</ele>
        <time>2015-02-15T09:55:44Z</time>
      </trkpt>
      <trkpt lat="48.82483" lon="-3.25099">
        <ele>66</ele>
        <time>2015-02-15T09:55:45Z</time>
      </trkpt>
      <trkpt lat="48.82476" lon="-3.25106">
        <ele>66</ele>
        <time>2015-02-15T09:55:46Z</time>
      </trkpt>
      <trkpt lat="48.82468" lon="-3.25113">
        <ele>66</ele>
        <time>2015-02-15T09:55:47Z</time>
      </trkpt>
      <trkpt lat="48.82461" lon="-3.2512">
        <ele>66</ele>
        <time>2015-02-15T09:55:48Z</time>
      </trkpt>
      <trkpt lat="48.82453" lon="-3.25127">
        <ele>66</ele>
        <time>2015-02-15T09:55:49Z</time>
      </trkpt>
      <trkpt lat="48.82446" lon="-3.25134">
        <ele>66</ele>
        <time>2015-02-15T09:55:50Z</time>
      </trkpt>
      <trkpt lat="48.82438" lon="-3.25142">
        <ele>66</ele>
        <time>2015-02-15T09:55:51Z</time>
      </trkpt>
      <trkpt lat="48.8243" lon="-3.25149">
        <ele>66</ele>
        <time>2015-02-15T09:55:52Z</time>
      </trkpt>
      <trkpt lat="48.82423" lon="-3.25156">
        <ele>66</ele>
        <time>2015-02-15T09:55:53Z</time>
      </trkpt>
      <trkpt lat="48.82415" lon="-3.25163">
        <ele>66</ele>
        <time>2015-02-15T09:55:54Z</time>
      </trkpt>
      <trkpt lat="48.82408" lon="-3.2517">
        <ele>66</ele>
        <time>2015-02-15T09:55:55Z</time>
      </trkpt>
      <trkpt lat="48.82401" lon="-3.25178">
        <ele>66</ele>
        <time>2015-02-15T09:55:56Z</time>
      </trkpt>
      <trkpt lat="48.82393" lon="-3.25186">
        <ele>66</ele>
        <time>2015-02-15T09:55:57Z</time>
      </trkpt>
      <trkpt lat="48.82386" lon="-3.25194">
        <ele>66</ele>
        <time>2015-02-15T09:55:58Z</time>
      </trkpt>
      <trkpt lat="48.82379" lon="-3.25203">
        <ele>66</ele>
        <time>2015-02-15T09:55:59Z</time>
      </trkpt>
      <trkpt lat="48.82372" lon="-3.25213">
        <ele>66</ele>
        <time>2015-02-15T09:56:00Z</time>
      </trkpt>
      <trkpt lat="48.82365" lon="-3.25224">
        <ele>66</ele>
        <time>2015-02-15T09:56:01Z</time>
      </trkpt>
      <trkpt lat="48.82359" lon="-3.25235">
        <ele>66</ele>
        <time>2015-02-15T09:56:02Z</time>
      </trkpt>
      <trkpt lat="48.82353" lon="-3.25246">
        <ele>66</ele>
        <time>2015-02-15T09:56:03Z</time>
      </trkpt>
      <trkpt lat="48.82347" lon="-3.25257">
        <ele>66</ele>
        <time>2015-02-15T09:56:04Z</time>
      </trkpt>
      <trkpt lat="48.82341" lon="-3.25268">
        <ele>66</ele>
        <time>2015-02-15T09:56:05Z</time>
      </trkpt>
      <trkpt lat="48.82336" lon="-3.25279">
        <ele>66</ele>
        <time>2015-02-15T09:56:06Z</time>
      </trkpt>
      <trkpt lat="48.8233" lon="-3.25291">
        <ele>66</ele>
        <time>2015-02-15T09:56:07Z</time>
      </trkpt>
      <trkpt lat="48.82324" lon="-3.25302">
        <ele>66</ele>
        <time>2015-02-15T09:56:08Z</time>
      </trkpt>
      <trkpt lat="48.82319" lon="-3.25314">
        <ele>66</ele>
        <time>2015-02-15T09:56:09Z</time>
      </trkpt>
      <trkpt lat="48.82313" lon="-3.25326">
        <ele>66</ele>
        <time>2015-02-15T09:56:10Z</time>
      </trkpt>
      <trkpt lat="48.82308" lon="-3.25338">
        <ele>66</ele>
        <time>2015-02-15T09:56:11Z</time>
      </trkpt>
      <trkpt lat="48.82302" lon="-3.25351">
        <ele>66</ele>
        <time>2015-02-15T09:56:12Z</time>
      </trkpt>
      <trkpt lat="48.82297" lon="-3.25363">
        <ele>66</ele>
        <time>2015-02-15T09:56:13Z</time>
      </trkpt>
      <trkpt lat="48.82292" lon="-3.25375">
        <ele>66</ele>
        <time>2015-02-15T09:56:14Z</time>
      </trkpt>
      <trkpt lat="48.82287" lon="-3.25388">
        <ele>66</ele>
        <time>2015-02-15T09:56:15Z</time>
      </trkpt>
      <trkpt lat="48.82282" lon="-3.254">
        <ele>66</ele>
        <time>2015-02-15T09:56:16Z</time>
      </trkpt>
      <trkpt lat="48.82278" lon="-3.25413">
        <ele>66</ele>
        <time>2015-02-15T09:56:17Z</time>
      </trkpt>
      <trkpt lat="48.82274" lon="-3.25426">
        <ele>66</ele>
        <time>2015-02-15T09:56:18Z</time>
      </trkpt>
      <trkpt lat="48.82271" lon="-3.25439">
        <ele>66</ele>
        <time>2015-02-15T09:56:19Z</time>
      </trkpt>
      <trkpt lat="48.82267" lon="-3.25452">
        <ele>66</ele>
        <time>2015-02-15T09:56:20Z</time>
      </trkpt>
      <trkpt lat="48.82264" lon="-3.25465">
        <ele>66</ele>
        <time>2015-02-15T09:56:21Z</time>
      </trkpt>
      <trkpt lat="48.82259" lon="-3.25478">
        <ele>66</ele>
        <time>2015-02-15T09:56:22Z</time>
      </trkpt>
      <trkpt lat="48.82254" lon="-3.25489">
        <ele>66</ele>
        <time>2015-02-15T09:56:23Z</time>
      </trkpt>
      <trkpt lat="48.82248" lon="-3.255">
        <ele>66</ele>
        <time>2015-02-15T09:56:24Z</time>
      </trkpt>
      <trkpt lat="48.82243" lon="-3.2551">
        <ele>66</ele>
        <time>2015-02-15T09:56:25Z</time>
      </trkpt>
      <trkpt lat="48.82237" lon="-3.25521">
        <ele>66</ele>
        <time>2015-02-15T09:56:26Z</time>
      </trkpt>
      <trkpt lat="48.82232" lon="-3.25531">
        <ele>66</ele>
        <time>2015-02-15T09:56:27Z</time>
      </trkpt>
      <trkpt lat="48.82226" lon="-3.25542">
        <ele>66</ele>
        <time>2015-02-15T09:56:28Z</time>
      </trkpt>
      <trkpt lat="48.8222" lon="-3.25553">
        <ele>66</ele>
        <time>2015-02-15T09:56:29Z</time>
      </trkpt>
      <trkpt lat="48.82215" lon="-3.25563">
        <ele>66</ele>
        <time>2015-02-15T09:56:30Z</time>
      </trkpt>
      <trkpt lat="48.8221" lon="-3.25574">
        <ele>66</ele>
        <time>2015-02-15T09:56:31Z</time>
      </trkpt>
      <trkpt lat="48.82205" lon="-3.25585">
        <ele>66</ele>
        <time>2015-02-15T09:56:32Z</time>
      </trkpt>
      <trkpt lat="48.822" lon="-3.25596">
        <ele>66</ele>
        <time>2015-02-15T09:56:33Z</time>
      </trkpt>
      <trkpt lat="48.82195" lon="-3.25607">
        <ele>66</ele>
        <time>2015-02-15T09:56:34Z</time>
      </trkpt>
      <trkpt lat="48.8219" lon="-3.25618">
        <ele>66</ele>
        <time>2015-02-15T09:56:35Z</time>
      </trkpt>
      <trkpt lat="48.82185" lon="-3.25629">
        <ele>66</ele>
        <time>2015-02-15T09:56:36Z</time>
      </trkpt>
      <trkpt lat="48.8218" lon="-3.25639">
        <ele>66</ele>
        <time>2015-02-15T09:56:37Z</time>
      </trkpt>
      <trkpt lat="48.82175" lon="-3.25649">
        <ele>66</ele>
        <time>2015-02-15T09:56:38Z</time>
      </trkpt>
      <trkpt lat="48.8217" lon="-3.25658">
        <ele>66</ele>
        <time>2015-02-15T09:56:39Z</time>
      </trkpt>
      <trkpt lat="48.82164" lon="-3.25668">
        <ele>66</ele>
        <time>2015-02-15T09:56:40Z</time>
      </trkpt>
      <trkpt lat="48.82159" lon="-3.25677">
        <ele>66</ele>
        <time>2015-02-15T09:56:41Z</time>
      </trkpt>
      <trkpt lat="48.82153" lon="-3.25686">
        <ele>66</ele>
        <time>2015-02-15T09:56:42Z</time>
      </trkpt>
      <trkpt lat="48.82146" lon="-3.25696">
        <ele>66</ele>
        <time>2015-02-15T09:56:43Z</time>
      </trkpt>
      <trkpt lat="48.8214" lon="-3.25705">
        <ele>66</ele>
        <time>2015-02-15T09:56:44Z</time>
      </trkpt>
      <trkpt lat="48.82134" lon="-3.25715">
        <ele>66</ele>
        <time>2015-02-15T09:56:45Z</time>
      </trkpt>
      <trkpt lat="48.82128" lon="-3.25725">
        <ele>66</ele>
        <time>2015-02-15T09:56:46Z</time>
      </trkpt>
      <trkpt lat="48.82123" lon="-3.25736">
        <ele>66</ele>
        <time>2015-02-15T09:56:47Z</time>
      </trkpt>
      <trkpt lat="48.82117" lon="-3.25747">
        <ele>66</ele>
        <time>2015-02-15T09:56:48Z</time>
      </trkpt>
      <trkpt lat="48.82113" lon="-3.25758">
        <ele>66</ele>
        <time>2015-02-15T09:56:49Z</time>
      </trkpt>
      <trkpt lat="48.82108" lon="-3.2577">
        <ele>66</ele>
        <time>2015-02-15T09:56:50Z</time>
      </trkpt>
      <trkpt lat="48.82103" lon="-3.25781">
        <ele>66</ele>
        <time>2015-02-15T09:56:51Z</time>
      </trkpt>
      <trkpt lat="48.82098" lon="-3.25793">
        <ele>66</ele>
        <time>2015-02-15T09:56:52Z</time>
      </trkpt>
      <trkpt lat="48.82092" lon="-3.25804">
        <ele>66</ele>
        <time>2015-02-15T09:56:53Z</time>
      </trkpt>
      <trkpt lat="48.82086" lon="-3.25815">
        <ele>66</ele>
        <time>2015-02-15T09:56:54Z</time>
      </trkpt>
      <trkpt lat="48.8208" lon="-3.25826">
        <ele>66</ele>
        <time>2015-02-15T09:56:55Z</time>
      </trkpt>
      <trkpt lat="48.82073" lon="-3.25836">
        <ele>66</ele>
        <time>2015-02-15T09:56:56Z</time>
      </trkpt>
      <trkpt lat="48.82067" lon="-3.25846">
        <ele>66</ele>
        <time>2015-02-15T09:56:57Z</time>
      </trkpt>
      <trkpt lat="48.82061" lon="-3.25857">
        <ele>66</ele>
        <time>2015-02-15T09:56:58Z</time>
      </trkpt>
      <trkpt lat="48.82054" lon="-3.25868">
        <ele>66</ele>
        <time>2015-02-15T09:56:59Z</time>
      </trkpt>
      <trkpt lat="48.82049" lon="-3.25879">
        <ele>66</ele>
        <time>2015-02-15T09:57:00Z</time>
      </trkpt>
      <trkpt lat="48.82043" lon="-3.2589">
        <ele>66</ele>
        <time>2015-02-15T09:57:01Z</time>
      </trkpt>
      <trkpt lat="48.82038" lon="-3.25902">
        <ele>66</ele>
        <time>2015-02-15T09:57:02Z</time>
      </trkpt>
      <trkpt lat="48.82034" lon="-3.25914">
        <ele>66</ele>
        <time>2015-02-15T09:57:03Z</time>
      </trkpt>
      <trkpt lat="48.8203" lon="-3.25926">
        <ele>66</ele>
        <time>2015-02-15T09:57:04Z</time>
      </trkpt>
      <trkpt lat="48.82028" lon="-3.2594">
        <ele>66</ele>
        <time>2015-02-15T09:57:05Z</time>
      </trkpt>
      <trkpt lat="48.82027" lon="-3.25954">
        <ele>66</ele>
        <time>2015-02-15T09:57:06Z</time>
      </trkpt>
      <trkpt lat="48.82027" lon="-3.25968">
        <ele>66</ele>
        <time>2015-02-15T09:57:07Z</time>
      </trkpt>
      <trkpt lat="48.82027" lon="-3.25981">
        <ele>66</ele>
        <time>2015-02-15T09:57:08Z</time>
      </trkpt>
      <trkpt lat="48.82028" lon="-3.25994">
        <ele>66</ele>
        <time>2015-02-15T09:57:09Z</time>
      </trkpt>
      <trkpt lat="48.82028" lon="-3.26007">
        <ele>66</ele>
        <time>2015-02-15T09:57:10Z</time>
      </trkpt>
      <trkpt lat="48.82027" lon="-3.26032">
        <ele>66</ele>
        <time>2015-02-15T09:57:12Z</time>
      </trkpt>
      <trkpt lat="48.82026" lon="-3.26044">
        <ele>66</ele>
        <time>2015-02-15T09:57:13Z</time>
      </trkpt>
      <trkpt lat="48.82024" lon="-3.26056">
        <ele>66</ele>
        <time>2015-02-15T09:57:14Z</time>
      </trkpt>
      <trkpt lat="48.82021" lon="-3.26068">
        <ele>66</ele>
        <time>2015-02-15T09:57:15Z</time>
      </trkpt>
      <trkpt lat="48.82018" lon="-3.2608">
        <ele>66</ele>
        <time>2015-02-15T09:57:16Z</time>
      </trkpt>
      <trkpt lat="48.82013" lon="-3.2609">
        <ele>67</ele>
        <time>2015-02-15T09:57:17Z</time>
      </trkpt>
      <trkpt lat="48.82009" lon="-3.26101">
        <ele>67</ele>
        <time>2015-02-15T09:57:18Z</time>
      </trkpt>
      <trkpt lat="48.82004" lon="-3.26111">
        <ele>67</ele>
        <time>2015-02-15T09:57:19Z</time>
      </trkpt>
      <trkpt lat="48.81999" lon="-3.26122">
        <ele>67</ele>
        <time>2015-02-15T09:57:20Z</time>
      </trkpt>
      <trkpt lat="48.81995" lon="-3.26133">
        <ele>67</ele>
        <time>2015-02-15T09:57:21Z</time>
      </trkpt>
      <trkpt lat="48.8199" lon="-3.26144">
        <ele>67</ele>
        <time>2015-02-15T09:57:22Z</time>
      </trkpt>
      <trkpt lat="48.81986" lon="-3.26156">
        <ele>67</ele>
        <time>2015-02-15T09:57:23Z</time>
      </trkpt>
      <trkpt lat="48.81982" lon="-3.26168">
        <ele>67</ele>
        <time>2015-02-15T09:57:24Z</time>
      </trkpt>
      <trkpt lat="48.81978" lon="-3.2618">
        <ele>67</ele>
        <time>2015-02-15T09:57:25Z</time>
      </trkpt>
      <trkpt lat="48.81975" lon="-3.26194">
        <ele>67</ele>
        <time>2015-02-15T09:57:26Z</time>
      </trkpt>
      <trkpt lat="48.81973" lon="-3.26207">
        <ele>67</ele>
        <time>2015-02-15T09:57:27Z</time>
      </trkpt>
      <trkpt lat="48.81973" lon="-3.26221">
        <ele>67</ele>
        <time>2015-02-15T09:57:28Z</time>
      </trkpt>
      <trkpt lat="48.81973" lon="-3.26235">
        <ele>67</ele>
        <time>2015-02-15T09:57:29Z</time>
      </trkpt>
      <trkpt lat="48.81973" lon="-3.26248">
        <ele>67</ele>
        <time>2015-02-15T09:57:30Z</time>
      </trkpt>
      <trkpt lat="48.81974" lon="-3.26262">
        <ele>67</ele>
        <time>2015-02-15T09:57:31Z</time>
      </trkpt>
      <trkpt lat="48.81975" lon="-3.26276">
        <ele>67</ele>
        <time>2015-02-15T09:57:32Z</time>
      </trkpt>
      <trkpt lat="48.81976" lon="-3.2629">
        <ele>67</ele>
        <time>2015-02-15T09:57:33Z</time>
      </trkpt>
      <trkpt lat="48.81977" lon="-3.26304">
        <ele>67</ele>
        <time>2015-02-15T09:57:34Z</time>
      </trkpt>
      <trkpt lat="48.81979" lon="-3.26318">
        <ele>67</ele>
        <time>2015-02-15T09:57:35Z</time>
      </trkpt>
      <trkpt lat="48.81982" lon="-3.26332">
        <ele>67</ele>
        <time>2015-02-15T09:57:36Z</time>
      </trkpt>
      <trkpt lat="48.81984" lon="-3.26345">
        <ele>67</ele>
        <time>2015-02-15T09:57:37Z</time>
      </trkpt>
      <trkpt lat="48.81986" lon="-3.26359">
        <ele>67</ele>
        <time>2015-02-15T09:57:38Z</time>
      </trkpt>
      <trkpt lat="48.81989" lon="-3.26373">
        <ele>67</ele>
        <time>2015-02-15T09:57:39Z</time>
      </trkpt>
      <trkpt lat="48.81991" lon="-3.26388">
        <ele>67</ele>
        <time>2015-02-15T09:57:40Z</time>
      </trkpt>
      <trkpt lat="48.81993" lon="-3.26402">
        <ele>67</ele>
        <time>2015-02-15T09:57:41Z</time>
      </trkpt>
      <trkpt lat="48.81996" lon="-3.26416">
        <ele>67</ele>
        <time>2015-02-15T09:57:42Z</time>
      </trkpt>
      <trkpt lat="48.81999" lon="-3.2643">
        <ele>67</ele>
        <time>2015-02-15T09:57:43Z</time>
      </trkpt>
      <trkpt lat="48.82003" lon="-3.26443">
        <ele>67</ele>
        <time>2015-02-15T09:57:44Z</time>
      </trkpt>
      <trkpt lat="48.82007" lon="-3.26456">
        <ele>67</ele>
        <time>2015-02-15T09:57:45Z</time>
      </trkpt>
      <trkpt lat="48.82011" lon="-3.26468">
        <ele>67</ele>
        <time>2015-02-15T09:57:46Z</time>
      </trkpt>
      <trkpt lat="48.82014" lon="-3.2648">
        <ele>67</ele>
        <time>2015-02-15T09:57:47Z</time>
      </trkpt>
      <trkpt lat="48.82017" lon="-3.26493">
        <ele>67</ele>
        <time>2015-02-15T09:57:48Z</time>
      </trkpt>
      <trkpt lat="48.82018" lon="-3.26505">
        <ele>67</ele>
        <time>2015-02-15T09:57:49Z</time>
      </trkpt>
      <trkpt lat="48.82017" lon="-3.26519">
        <ele>67</ele>
        <time>2015-02-15T09:57:50Z</time>
      </trkpt>
      <trkpt lat="48.82016" lon="-3.26532">
        <ele>67</ele>
        <time>2015-02-15T09:57:51Z</time>
      </trkpt>
      <trkpt lat="48.82015" lon="-3.26545">
        <ele>67</ele>
        <time>2015-02-15T09:57:52Z</time>
      </trkpt>
      <trkpt lat="48.82013" lon="-3.26558">
        <ele>67</ele>
        <time>2015-02-15T09:57:53Z</time>
      </trkpt>
      <trkpt lat="48.82012" lon="-3.26571">
        <ele>67</ele>
        <time>2015-02-15T09:57:54Z</time>
      </trkpt>
      <trkpt lat="48.82011" lon="-3.26583">
        <ele>67</ele>
        <time>2015-02-15T09:57:55Z</time>
      </trkpt>
      <trkpt lat="48.82009" lon="-3.26596">
        <ele>67</ele>
        <time>2015-02-15T09:57:56Z</time>
      </trkpt>
      <trkpt lat="48.82008" lon="-3.26608">
        <ele>67</ele>
        <time>2015-02-15T09:57:57Z</time>
      </trkpt>
      <trkpt lat="48.82005" lon="-3.2662">
        <ele>67</ele>
        <time>2015-02-15T09:57:58Z</time>
      </trkpt>
      <trkpt lat="48.82002" lon="-3.26631">
        <ele>67</ele>
        <time>2015-02-15T09:57:59Z</time>
      </trkpt>
      <trkpt lat="48.81998" lon="-3.26642">
        <ele>67</ele>
        <time>2015-02-15T09:58:00Z</time>
      </trkpt>
      <trkpt lat="48.81994" lon="-3.26652">
        <ele>67</ele>
        <time>2015-02-15T09:58:01Z</time>
      </trkpt>
      <trkpt lat="48.81989" lon="-3.26661">
        <ele>67</ele>
        <time>2015-02-15T09:58:02Z</time>
      </trkpt>
      <trkpt lat="48.81984" lon="-3.2667">
        <ele>67</ele>
        <time>2015-02-15T09:58:03Z</time>
      </trkpt>
      <trkpt lat="48.81979" lon="-3.26679">
        <ele>67</ele>
        <time>2015-02-15T09:58:04Z</time>
      </trkpt>
      <trkpt lat="48.81973" lon="-3.26688">
        <ele>67</ele>
        <time>2015-02-15T09:58:05Z</time>
      </trkpt>
      <trkpt lat="48.81967" lon="-3.26697">
        <ele>67</ele>
        <time>2015-02-15T09:58:06Z</time>
      </trkpt>
      <trkpt lat="48.81962" lon="-3.26706">
        <ele>67</ele>
        <time>2015-02-15T09:58:07Z</time>
      </trkpt>
      <trkpt lat="48.81956" lon="-3.26715">
        <ele>67</ele>
        <time>2015-02-15T09:58:08Z</time>
      </trkpt>
      <trkpt lat="48.81951" lon="-3.26724">
        <ele>67</ele>
        <time>2015-02-15T09:58:09Z</time>
      </trkpt>
      <trkpt lat="48.81945" lon="-3.26733">
        <ele>67</ele>
        <time>2015-02-15T09:58:10Z</time>
      </trkpt>
      <trkpt lat="48.81939" lon="-3.26743">
        <ele>67</ele>
        <time>2015-02-15T09:58:11Z</time>
      </trkpt>
      <trkpt lat="48.81934" lon="-3.26752">
        <ele>67</ele>
        <time>2015-02-15T09:58:12Z</time>
      </trkpt>
      <trkpt lat="48.81928" lon="-3.26761">
        <ele>67</ele>
        <time>2015-02-15T09:58:13Z</time>
      </trkpt>
      <trkpt lat="48.81922" lon="-3.2677">
        <ele>67</ele>
        <time>2015-02-15T09:58:14Z</time>
      </trkpt>
      <trkpt lat="48.81916" lon="-3.26779">
        <ele>67</ele>
        <time>2015-02-15T09:58:15Z</time>
      </trkpt>
      <trkpt lat="48.8191" lon="-3.26788">
        <ele>67</ele>
        <time>2015-02-15T09:58:16Z</time>
      </trkpt>
      <trkpt lat="48.81904" lon="-3.26797">
        <ele>67</ele>
        <time>2015-02-15T09:58:17Z</time>
      </trkpt>
      <trkpt lat="48.81898" lon="-3.26806">
        <ele>67</ele>
        <time>2015-02-15T09:58:18Z</time>
      </trkpt>
      <trkpt lat="48.81892" lon="-3.26815">
        <ele>67</ele>
        <time>2015-02-15T09:58:19Z</time>
      </trkpt>
      <trkpt lat="48.81887" lon="-3.26825">
        <ele>67</ele>
        <time>2015-02-15T09:58:20Z</time>
      </trkpt>
      <trkpt lat="48.81882" lon="-3.26836">
        <ele>67</ele>
        <time>2015-02-15T09:58:21Z</time>
      </trkpt>
      <trkpt lat="48.81877" lon="-3.26847">
        <ele>67</ele>
        <time>2015-02-15T09:58:22Z</time>
      </trkpt>
      <trkpt lat="48.81873" lon="-3.26859">
        <ele>67</ele>
        <time>2015-02-15T09:58:23Z</time>
      </trkpt>
      <trkpt lat="48.8187" lon="-3.26871">
        <ele>67</ele>
        <time>2015-02-15T09:58:24Z</time>
      </trkpt>
      <trkpt lat="48.81867" lon="-3.26885">
        <ele>67</ele>
        <time>2015-02-15T09:58:25Z</time>
      </trkpt>
      <trkpt lat="48.81865" lon="-3.26898">
        <ele>67</ele>
        <time>2015-02-15T09:58:26Z</time>
      </trkpt>
      <trkpt lat="48.81863" lon="-3.26912">
        <ele>67</ele>
        <time>2015-02-15T09:58:27Z</time>
      </trkpt>
      <trkpt lat="48.81863" lon="-3.26925">
        <ele>67</ele>
        <time>2015-02-15T09:58:28Z</time>
      </trkpt>
      <trkpt lat="48.81863" lon="-3.26953">
        <ele>67</ele>
        <time>2015-02-15T09:58:30Z</time>
      </trkpt>
      <trkpt lat="48.81865" lon="-3.26967">
        <ele>67</ele>
        <time>2015-02-15T09:58:31Z</time>
      </trkpt>
      <trkpt lat="48.81867" lon="-3.2698">
        <ele>67</ele>
        <time>2015-02-15T09:58:32Z</time>
      </trkpt>
      <trkpt lat="48.81869" lon="-3.26993">
        <ele>67</ele>
        <time>2015-02-15T09:58:33Z</time>
      </trkpt>
      <trkpt lat="48.81871" lon="-3.27007">
        <ele>67</ele>
        <time>2015-02-15T09:58:34Z</time>
      </trkpt>
      <trkpt lat="48.81873" lon="-3.27019">
        <ele>67</ele>
        <time>2015-02-15T09:58:35Z</time>
      </trkpt>
      <trkpt lat="48.81875" lon="-3.27032">
        <ele>67</ele>
        <time>2015-02-15T09:58:36Z</time>
      </trkpt>
      <trkpt lat="48.81876" lon="-3.27044">
        <ele>67</ele>
        <time>2015-02-15T09:58:37Z</time>
      </trkpt>
      <trkpt lat="48.81877" lon="-3.27056">
        <ele>67</ele>
        <time>2015-02-15T09:58:38Z</time>
      </trkpt>
      <trkpt lat="48.81878" lon="-3.27068">
        <ele>67</ele>
        <time>2015-02-15T09:58:39Z</time>
      </trkpt>
      <trkpt lat="48.81878" lon="-3.2708">
        <ele>67</ele>
        <time>2015-02-15T09:58:40Z</time>
      </trkpt>
      <trkpt lat="48.81879" lon="-3.27093">
        <ele>67</ele>
        <time>2015-02-15T09:58:41Z</time>
      </trkpt>
      <trkpt lat="48.81878" lon="-3.27116">
        <ele>67</ele>
        <time>2015-02-15T09:58:43Z</time>
      </trkpt>
      <trkpt lat="48.81878" lon="-3.27128">
        <ele>67</ele>
        <time>2015-02-15T09:58:44Z</time>
      </trkpt>
      <trkpt lat="48.81878" lon="-3.27141">
        <ele>68</ele>
        <time>2015-02-15T09:58:45Z</time>
      </trkpt>
      <trkpt lat="48.81877" lon="-3.27153">
        <ele>68</ele>
        <time>2015-02-15T09:58:46Z</time>
      </trkpt>
      <trkpt lat="48.81876" lon="-3.27167">
        <ele>68</ele>
        <time>2015-02-15T09:58:47Z</time>
      </trkpt>
      <trkpt lat="48.81876" lon="-3.2718">
        <ele>68</ele>
        <time>2015-02-15T09:58:48Z</time>
      </trkpt>
      <trkpt lat="48.81876" lon="-3.27193">
        <ele>68</ele>
        <time>2015-02-15T09:58:49Z</time>
      </trkpt>
      <trkpt lat="48.81875" lon="-3.27219">
        <ele>68</ele>
        <time>2015-02-15T09:58:51Z</time>
      </trkpt>
      <trkpt lat="48.81874" lon="-3.27232">
        <ele>68</ele>
        <time>2015-02-15T09:58:52Z</time>
      </trkpt>
      <trkpt lat="48.81873" lon="-3.27245">
        <ele>69</ele>
        <time>2015-02-15T09:58:53Z</time>
      </trkpt>
      <trkpt lat="48.81872" lon="-3.27259">
        <ele>69</ele>
        <time>2015-02-15T09:58:54Z</time>
      </trkpt>
      <trkpt lat="48.81872" lon="-3.27287">
        <ele>69</ele>
        <time>2015-02-15T09:58:56Z</time>
      </trkpt>
      <trkpt lat="48.81872" lon="-3.27301">
        <ele>69</ele>
        <time>2015-02-15T09:58:57Z</time>
      </trkpt>
      <trkpt lat="48.81873" lon="-3.27343">
        <ele>69</ele>
        <time>2015-02-15T09:59:00Z</time>
      </trkpt>
      <trkpt lat="48.81872" lon="-3.27357">
        <ele>69</ele>
        <time>2015-02-15T09:59:01Z</time>
      </trkpt>
      <trkpt lat="48.81872" lon="-3.27371">
        <ele>69</ele>
        <time>2015-02-15T09:59:02Z</time>
      </trkpt>
      <trkpt lat="48.81871" lon="-3.27386">
        <ele>69</ele>
        <time>2015-02-15T09:59:03Z</time>
      </trkpt>
      <trkpt lat="48.81869" lon="-3.274">
        <ele>69</ele>
        <time>2015-02-15T09:59:04Z</time>
      </trkpt>
      <trkpt lat="48.81868" lon="-3.27415">
        <ele>69</ele>
        <time>2015-02-15T09:59:05Z</time>
      </trkpt>
      <trkpt lat="48.81866" lon="-3.2743">
        <ele>69</ele>
        <time>2015-02-15T09:59:06Z</time>
      </trkpt>
      <trkpt lat="48.81863" lon="-3.27444">
        <ele>69</ele>
        <time>2015-02-15T09:59:07Z</time>
      </trkpt>
      <trkpt lat="48.8186" lon="-3.27458">
        <ele>69</ele>
        <time>2015-02-15T09:59:08Z</time>
      </trkpt>
      <trkpt lat="48.81856" lon="-3.27471">
        <ele>69</ele>
        <time>2015-02-15T09:59:09Z</time>
      </trkpt>
      <trkpt lat="48.81852" lon="-3.27485">
        <ele>69</ele>
        <time>2015-02-15T09:59:10Z</time>
      </trkpt>
      <trkpt lat="48.81847" lon="-3.27498">
        <ele>69</ele>
        <time>2015-02-15T09:59:11Z</time>
      </trkpt>
      <trkpt lat="48.81843" lon="-3.27512">
        <ele>69</ele>
        <time>2015-02-15T09:59:12Z</time>
      </trkpt>
      <trkpt lat="48.81838" lon="-3.27526">
        <ele>69</ele>
        <time>2015-02-15T09:59:13Z</time>
      </trkpt>
      <trkpt lat="48.81833" lon="-3.2754">
        <ele>69</ele>
        <time>2015-02-15T09:59:14Z</time>
      </trkpt>
      <trkpt lat="48.81828" lon="-3.27554">
        <ele>69</ele>
        <time>2015-02-15T09:59:15Z</time>
      </trkpt>
      <trkpt lat="48.81823" lon="-3.27568">
        <ele>69</ele>
        <time>2015-02-15T09:59:16Z</time>
      </trkpt>
      <trkpt lat="48.81819" lon="-3.27581">
        <ele>69</ele>
        <time>2015-02-15T09:59:17Z</time>
      </trkpt>
      <trkpt lat="48.81815" lon="-3.27595">
        <ele>69</ele>
        <time>2015-02-15T09:59:18Z</time>
      </trkpt>
      <trkpt lat="48.8181" lon="-3.27609">
        <ele>69</ele>
        <time>2015-02-15T09:59:19Z</time>
      </trkpt>
      <trkpt lat="48.81805" lon="-3.27622">
        <ele>69</ele>
        <time>2015-02-15T09:59:20Z</time>
      </trkpt>
      <trkpt lat="48.81801" lon="-3.27636">
        <ele>69</ele>
        <time>2015-02-15T09:59:21Z</time>
      </trkpt>
      <trkpt lat="48.81796" lon="-3.27649">
        <ele>69</ele>
        <time>2015-02-15T09:59:22Z</time>
      </trkpt>
      <trkpt lat="48.81792" lon="-3.27662">
        <ele>69</ele>
        <time>2015-02-15T09:59:23Z</time>
      </trkpt>
      <trkpt lat="48.81787" lon="-3.27675">
        <ele>69</ele>
        <time>2015-02-15T09:59:24Z</time>
      </trkpt>
      <trkpt lat="48.81783" lon="-3.27689">
        <ele>69</ele>
        <time>2015-02-15T09:59:25Z</time>
      </trkpt>
      <trkpt lat="48.81779" lon="-3.27703">
        <ele>69</ele>
        <time>2015-02-15T09:59:26Z</time>
      </trkpt>
      <trkpt lat="48.81776" lon="-3.27717">
        <ele>69</ele>
        <time>2015-02-15T09:59:27Z</time>
      </trkpt>
      <trkpt lat="48.81773" lon="-3.27731">
        <ele>69</ele>
        <time>2015-02-15T09:59:28Z</time>
      </trkpt>
      <trkpt lat="48.8177" lon="-3.27746">
        <ele>69</ele>
        <time>2015-02-15T09:59:29Z</time>
      </trkpt>
      <trkpt lat="48.81766" lon="-3.2776">
        <ele>69</ele>
        <time>2015-02-15T09:59:30Z</time>
      </trkpt>
      <trkpt lat="48.81763" lon="-3.27774">
        <ele>69</ele>
        <time>2015-02-15T09:59:31Z</time>
      </trkpt>
      <trkpt lat="48.8176" lon="-3.27787">
        <ele>69</ele>
        <time>2015-02-15T09:59:32Z</time>
      </trkpt>
      <trkpt lat="48.81757" lon="-3.27801">
        <ele>69</ele>
        <time>2015-02-15T09:59:33Z</time>
      </trkpt>
      <trkpt lat="48.81753" lon="-3.27815">
        <ele>69</ele>
        <time>2015-02-15T09:59:34Z</time>
      </trkpt>
      <trkpt lat="48.8175" lon="-3.27828">
        <ele>69</ele>
        <time>2015-02-15T09:59:35Z</time>
      </trkpt>
      <trkpt lat="48.81746" lon="-3.2784">
        <ele>69</ele>
        <time>2015-02-15T09:59:36Z</time>
      </trkpt>
      <trkpt lat="48.81742" lon="-3.27853">
        <ele>69</ele>
        <time>2015-02-15T09:59:37Z</time>
      </trkpt>
      <trkpt lat="48.81738" lon="-3.27865">
        <ele>69</ele>
        <time>2015-02-15T09:59:38Z</time>
      </trkpt>
      <trkpt lat="48.81733" lon="-3.27877">
        <ele>69</ele>
        <time>2015-02-15T09:59:39Z</time>
      </trkpt>
      <trkpt lat="48.81728" lon="-3.27888">
        <ele>69</ele>
        <time>2015-02-15T09:59:40Z</time>
      </trkpt>
      <trkpt lat="48.81723" lon="-3.27899">
        <ele>69</ele>
        <time>2015-02-15T09:59:41Z</time>
      </trkpt>
      <trkpt lat="48.81718" lon="-3.2791">
        <ele>69</ele>
        <time>2015-02-15T09:59:42Z</time>
      </trkpt>
      <trkpt lat="48.81712" lon="-3.27921">
        <ele>69</ele>
        <time>2015-02-15T09:59:43Z</time>
      </trkpt>
      <trkpt lat="48.81707" lon="-3.27931">
        <ele>69</ele>
        <time>2015-02-15T09:59:44Z</time>
      </trkpt>
      <trkpt lat="48.81701" lon="-3.27942">
        <ele>69</ele>
        <time>2015-02-15T09:59:45Z</time>
      </trkpt>
      <trkpt lat="48.81695" lon="-3.27952">
        <ele>69</ele>
        <time>2015-02-15T09:59:46Z</time>
      </trkpt>
      <trkpt lat="48.81689" lon="-3.27963">
        <ele>69</ele>
        <time>2015-02-15T09:59:47Z</time>
      </trkpt>
      <trkpt lat="48.81683" lon="-3.27974">
        <ele>69</ele>
        <time>2015-02-15T09:59:48Z</time>
      </trkpt>
      <trkpt lat="48.81678" lon="-3.27986">
        <ele>69</ele>
        <time>2015-02-15T09:59:49Z</time>
      </trkpt>
      <trkpt lat="48.81672" lon="-3.27997">
        <ele>69</ele>
        <time>2015-02-15T09:59:50Z</time>
      </trkpt>
      <trkpt lat="48.81666" lon="-3.28009">
        <ele>69</ele>
        <time>2015-02-15T09:59:51Z</time>
      </trkpt>
      <trkpt lat="48.81661" lon="-3.28021">
        <ele>69</ele>
        <time>2015-02-15T09:59:52Z</time>
      </trkpt>
      <trkpt lat="48.81656" lon="-3.28034">
        <ele>69</ele>
        <time>2015-02-15T09:59:53Z</time>
      </trkpt>
      <trkpt lat="48.81651" lon="-3.28046">
        <ele>69</ele>
        <time>2015-02-15T09:59:54Z</time>
      </trkpt>
      <trkpt lat="48.81647" lon="-3.28059">
        <ele>69</ele>
        <time>2015-02-15T09:59:55Z</time>
      </trkpt>
      <trkpt lat="48.81643" lon="-3.28071">
        <ele>69</ele>
        <time>2015-02-15T09:59:56Z</time>
      </trkpt>
      <trkpt lat="48.81639" lon="-3.28083">
        <ele>69</ele>
        <time>2015-02-15T09:59:57Z</time>
      </trkpt>
      <trkpt lat="48.81636" lon="-3.28095">
        <ele>69</ele>
        <time>2015-02-15T09:59:58Z</time>
      </trkpt>
      <trkpt lat="48.81632" lon="-3.28107">
        <ele>69</ele>
        <time>2015-02-15T09:59:59Z</time>
      </trkpt>
      <trkpt lat="48.81628" lon="-3.28119">
        <ele>69</ele>
        <time>2015-02-15T10:00:00Z</time>
      </trkpt>
      <trkpt lat="48.81625" lon="-3.2813">
        <ele>69</ele>
        <time>2015-02-15T10:00:01Z</time>
      </trkpt>
      <trkpt lat="48.81621" lon="-3.28142">
        <ele>69</ele>
        <time>2015-02-15T10:00:02Z</time>
      </trkpt>
      <trkpt lat="48.81617" lon="-3.28153">
        <ele>69</ele>
        <time>2015-02-15T10:00:03Z</time>
      </trkpt>
      <trkpt lat="48.81614" lon="-3.28164">
        <ele>69</ele>
        <time>2015-02-15T10:00:04Z</time>
      </trkpt>
      <trkpt lat="48.8161" lon="-3.28176">
        <ele>69</ele>
        <time>2015-02-15T10:00:05Z</time>
      </trkpt>
      <trkpt lat="48.81607" lon="-3.28187">
        <ele>69</ele>
        <time>2015-02-15T10:00:06Z</time>
      </trkpt>
      <trkpt lat="48.81605" lon="-3.28198">
        <ele>69</ele>
        <time>2015-02-15T10:00:07Z</time>
      </trkpt>
      <trkpt lat="48.81603" lon="-3.2821">
        <ele>69</ele>
        <time>2015-02-15T10:00:08Z</time>
      </trkpt>
      <trkpt lat="48.81601" lon="-3.28222">
        <ele>69</ele>
        <time>2015-02-15T10:00:09Z</time>
      </trkpt>
      <trkpt lat="48.81599" lon="-3.28235">
        <ele>69</ele>
        <time>2015-02-15T10:00:10Z</time>
      </trkpt>
      <trkpt lat="48.81598" lon="-3.28248">
        <ele>69</ele>
        <time>2015-02-15T10:00:11Z</time>
      </trkpt>
      <trkpt lat="48.81597" lon="-3.28261">
        <ele>69</ele>
        <time>2015-02-15T10:00:12Z</time>
      </trkpt>
      <trkpt lat="48.81596" lon="-3.28274">
        <ele>69</ele>
        <time>2015-02-15T10:00:13Z</time>
      </trkpt>
      <trkpt lat="48.81595" lon="-3.28287">
        <ele>69</ele>
        <time>2015-02-15T10:00:14Z</time>
      </trkpt>
      <trkpt lat="48.81595" lon="-3.283">
        <ele>69</ele>
        <time>2015-02-15T10:00:15Z</time>
      </trkpt>
      <trkpt lat="48.81595" lon="-3.28312">
        <ele>69</ele>
        <time>2015-02-15T10:00:16Z</time>
      </trkpt>
      <trkpt lat="48.81596" lon="-3.28325">
        <ele>69</ele>
        <time>2015-02-15T10:00:17Z</time>
      </trkpt>
      <trkpt lat="48.81596" lon="-3.28338">
        <ele>69</ele>
        <time>2015-02-15T10:00:18Z</time>
      </trkpt>
      <trkpt lat="48.81597" lon="-3.28351">
        <ele>69</ele>
        <time>2015-02-15T10:00:19Z</time>
      </trkpt>
      <trkpt lat="48.81598" lon="-3.28363">
        <ele>69</ele>
        <time>2015-02-15T10:00:20Z</time>
      </trkpt>
      <trkpt lat="48.81598" lon="-3.28376">
        <ele>69</ele>
        <time>2015-02-15T10:00:21Z</time>
      </trkpt>
      <trkpt lat="48.81598" lon="-3.28388">
        <ele>69</ele>
        <time>2015-02-15T10:00:22Z</time>
      </trkpt>
      <trkpt lat="48.81597" lon="-3.284">
        <ele>69</ele>
        <time>2015-02-15T10:00:23Z</time>
      </trkpt>
      <trkpt lat="48.81596" lon="-3.28413">
        <ele>69</ele>
        <time>2015-02-15T10:00:24Z</time>
      </trkpt>
      <trkpt lat="48.81595" lon="-3.28426">
        <ele>69</ele>
        <time>2015-02-15T10:00:25Z</time>
      </trkpt>
      <trkpt lat="48.81593" lon="-3.28439">
        <ele>69</ele>
        <time>2015-02-15T10:00:26Z</time>
      </trkpt>
      <trkpt lat="48.81591" lon="-3.28451">
        <ele>69</ele>
        <time>2015-02-15T10:00:27Z</time>
      </trkpt>
      <trkpt lat="48.81588" lon="-3.28465">
        <ele>69</ele>
        <time>2015-02-15T10:00:28Z</time>
      </trkpt>
      <trkpt lat="48.81586" lon="-3.28479">
        <ele>69</ele>
        <time>2015-02-15T10:00:29Z</time>
      </trkpt>
      <trkpt lat="48.81583" lon="-3.28493">
        <ele>69</ele>
        <time>2015-02-15T10:00:30Z</time>
      </trkpt>
      <trkpt lat="48.8158" lon="-3.28508">
        <ele>69</ele>
        <time>2015-02-15T10:00:31Z</time>
      </trkpt>
      <trkpt lat="48.81577" lon="-3.28522">
        <ele>69</ele>
        <time>2015-02-15T10:00:32Z</time>
      </trkpt>
      <trkpt lat="48.81574" lon="-3.28537">
        <ele>69</ele>
        <time>2015-02-15T10:00:33Z</time>
      </trkpt>
      <trkpt lat="48.81571" lon="-3.28551">
        <ele>69</ele>
        <time>2015-02-15T10:00:34Z</time>
      </trkpt>
      <trkpt lat="48.81568" lon="-3.28566">
        <ele>69</ele>
        <time>2015-02-15T10:00:35Z</time>
      </trkpt>
      <trkpt lat="48.81566" lon="-3.28581">
        <ele>69</ele>
        <time>2015-02-15T10:00:36Z</time>
      </trkpt>
      <trkpt lat="48.81564" lon="-3.28597">
        <ele>69</ele>
        <time>2015-02-15T10:00:37Z</time>
      </trkpt>
      <trkpt lat="48.81564" lon="-3.28612">
        <ele>69</ele>
        <time>2015-02-15T10:00:38Z</time>
      </trkpt>
      <trkpt lat="48.81563" lon="-3.28627">
        <ele>69</ele>
        <time>2015-02-15T10:00:39Z</time>
      </trkpt>
      <trkpt lat="48.81562" lon="-3.28642">
        <ele>69</ele>
        <time>2015-02-15T10:00:40Z</time>
      </trkpt>
      <trkpt lat="48.81562" lon="-3.28657">
        <ele>69</ele>
        <time>2015-02-15T10:00:41Z</time>
      </trkpt>
      <trkpt lat="48.81561" lon="-3.28672">
        <ele>69</ele>
        <time>2015-02-15T10:00:42Z</time>
      </trkpt>
      <trkpt lat="48.8156" lon="-3.28687">
        <ele>69</ele>
        <time>2015-02-15T10:00:43Z</time>
      </trkpt>
      <trkpt lat="48.81559" lon="-3.28702">
        <ele>69</ele>
        <time>2015-02-15T10:00:44Z</time>
      </trkpt>
      <trkpt lat="48.81556" lon="-3.28716">
        <ele>69</ele>
        <time>2015-02-15T10:00:45Z</time>
      </trkpt>
      <trkpt lat="48.81554" lon="-3.28731">
        <ele>69</ele>
        <time>2015-02-15T10:00:46Z</time>
      </trkpt>
      <trkpt lat="48.81551" lon="-3.28746">
        <ele>69</ele>
        <time>2015-02-15T10:00:47Z</time>
      </trkpt>
      <trkpt lat="48.81548" lon="-3.28761">
        <ele>69</ele>
        <time>2015-02-15T10:00:48Z</time>
      </trkpt>
      <trkpt lat="48.81544" lon="-3.28776">
        <ele>69</ele>
        <time>2015-02-15T10:00:49Z</time>
      </trkpt>
      <trkpt lat="48.8154" lon="-3.2879">
        <ele>69</ele>
        <time>2015-02-15T10:00:50Z</time>
      </trkpt>
      <trkpt lat="48.81536" lon="-3.28804">
        <ele>69</ele>
        <time>2015-02-15T10:00:51Z</time>
      </trkpt>
      <trkpt lat="48.81533" lon="-3.28818">
        <ele>69</ele>
        <time>2015-02-15T10:00:52Z</time>
      </trkpt>
      <trkpt lat="48.81529" lon="-3.28833">
        <ele>69</ele>
        <time>2015-02-15T10:00:53Z</time>
      </trkpt>
      <trkpt lat="48.81525" lon="-3.28847">
        <ele>69</ele>
        <time>2015-02-15T10:00:54Z</time>
      </trkpt>
      <trkpt lat="48.81522" lon="-3.28861">
        <ele>69</ele>
        <time>2015-02-15T10:00:55Z</time>
      </trkpt>
      <trkpt lat="48.81519" lon="-3.28875">
        <ele>69</ele>
        <time>2015-02-15T10:00:56Z</time>
      </trkpt>
      <trkpt lat="48.81515" lon="-3.2889">
        <ele>69</ele>
        <time>2015-02-15T10:00:57Z</time>
      </trkpt>
      <trkpt lat="48.81512" lon="-3.28904">
        <ele>69</ele>
        <time>2015-02-15T10:00:58Z</time>
      </trkpt>
      <trkpt lat="48.81509" lon="-3.28919">
        <ele>69</ele>
        <time>2015-02-15T10:00:59Z</time>
      </trkpt>
      <trkpt lat="48.81506" lon="-3.28933">
        <ele>69</ele>
        <time>2015-02-15T10:01:00Z</time>
      </trkpt>
      <trkpt lat="48.81503" lon="-3.28947">
        <ele>69</ele>
        <time>2015-02-15T10:01:01Z</time>
      </trkpt>
      <trkpt lat="48.815" lon="-3.28961">
        <ele>69</ele>
        <time>2015-02-15T10:01:02Z</time>
      </trkpt>
      <trkpt lat="48.81496" lon="-3.28976">
        <ele>69</ele>
        <time>2015-02-15T10:01:03Z</time>
      </trkpt>
      <trkpt lat="48.81493" lon="-3.2899">
        <ele>69</ele>
        <time>2015-02-15T10:01:04Z</time>
      </trkpt>
      <trkpt lat="48.8149" lon="-3.29003">
        <ele>69</ele>
        <time>2015-02-15T10:01:05Z</time>
      </trkpt>
      <trkpt lat="48.81488" lon="-3.29017">
        <ele>69</ele>
        <time>2015-02-15T10:01:06Z</time>
      </trkpt>
      <trkpt lat="48.81485" lon="-3.29031">
        <ele>69</ele>
        <time>2015-02-15T10:01:07Z</time>
      </trkpt>
      <trkpt lat="48.81482" lon="-3.29046">
        <ele>69</ele>
        <time>2015-02-15T10:01:08Z</time>
      </trkpt>
      <trkpt lat="48.8148" lon="-3.2906">
        <ele>69</ele>
        <time>2015-02-15T10:01:09Z</time>
      </trkpt>
      <trkpt lat="48.81477" lon="-3.29074">
        <ele>69</ele>
        <time>2015-02-15T10:01:10Z</time>
      </trkpt>
      <trkpt lat="48.81476" lon="-3.29087">
        <ele>69</ele>
        <time>2015-02-15T10:01:11Z</time>
      </trkpt>
      <trkpt lat="48.81474" lon="-3.29101">
        <ele>69</ele>
        <time>2015-02-15T10:01:12Z</time>
      </trkpt>
      <trkpt lat="48.81474" lon="-3.29115">
        <ele>69</ele>
        <time>2015-02-15T10:01:13Z</time>
      </trkpt>
      <trkpt lat="48.81473" lon="-3.29129">
        <ele>69</ele>
        <time>2015-02-15T10:01:14Z</time>
      </trkpt>
      <trkpt lat="48.81473" lon="-3.29143">
        <ele>69</ele>
        <time>2015-02-15T10:01:15Z</time>
      </trkpt>
      <trkpt lat="48.81472" lon="-3.2917">
        <ele>69</ele>
        <time>2015-02-15T10:01:17Z</time>
      </trkpt>
      <trkpt lat="48.81472" lon="-3.29184">
        <ele>69</ele>
        <time>2015-02-15T10:01:18Z</time>
      </trkpt>
      <trkpt lat="48.81472" lon="-3.29197">
        <ele>69</ele>
        <time>2015-02-15T10:01:19Z</time>
      </trkpt>
      <trkpt lat="48.81471" lon="-3.29222">
        <ele>69</ele>
        <time>2015-02-15T10:01:21Z</time>
      </trkpt>
      <trkpt lat="48.8147" lon="-3.29235">
        <ele>69</ele>
        <time>2015-02-15T10:01:22Z</time>
      </trkpt>
      <trkpt lat="48.81469" lon="-3.29247">
        <ele>69</ele>
        <time>2015-02-15T10:01:23Z</time>
      </trkpt>
      <trkpt lat="48.81467" lon="-3.29259">
        <ele>69</ele>
        <time>2015-02-15T10:01:24Z</time>
      </trkpt>
      <trkpt lat="48.81464" lon="-3.2927">
        <ele>69</ele>
        <time>2015-02-15T10:01:25Z</time>
      </trkpt>
      <trkpt lat="48.8146" lon="-3.29281">
        <ele>69</ele>
        <time>2015-02-15T10:01:26Z</time>
      </trkpt>
      <trkpt lat="48.81456" lon="-3.29292">
        <ele>69</ele>
        <time>2015-02-15T10:01:27Z</time>
      </trkpt>
      <trkpt lat="48.81451" lon="-3.29303">
        <ele>69</ele>
        <time>2015-02-15T10:01:28Z</time>
      </trkpt>
      <trkpt lat="48.81447" lon="-3.29313">
        <ele>69</ele>
        <time>2015-02-15T10:01:29Z</time>
      </trkpt>
      <trkpt lat="48.81442" lon="-3.29324">
        <ele>69</ele>
        <time>2015-02-15T10:01:30Z</time>
      </trkpt>
      <trkpt lat="48.81438" lon="-3.29335">
        <ele>69</ele>
        <time>2015-02-15T10:01:31Z</time>
      </trkpt>
      <trkpt lat="48.81433" lon="-3.29346">
        <ele>69</ele>
        <time>2015-02-15T10:01:32Z</time>
      </trkpt>
      <trkpt lat="48.81429" lon="-3.29356">
        <ele>69</ele>
        <time>2015-02-15T10:01:33Z</time>
      </trkpt>
      <trkpt lat="48.81425" lon="-3.29367">
        <ele>69</ele>
        <time>2015-02-15T10:01:34Z</time>
      </trkpt>
      <trkpt lat="48.81421" lon="-3.29377">
        <ele>69</ele>
        <time>2015-02-15T10:01:35Z</time>
      </trkpt>
      <trkpt lat="48.81416" lon="-3.29387">
        <ele>69</ele>
        <time>2015-02-15T10:01:36Z</time>
      </trkpt>
      <trkpt lat="48.81411" lon="-3.29396">
        <ele>69</ele>
        <time>2015-02-15T10:01:37Z</time>
      </trkpt>
      <trkpt lat="48.81405" lon="-3.29405">
        <ele>69</ele>
        <time>2015-02-15T10:01:38Z</time>
      </trkpt>
      <trkpt lat="48.814" lon="-3.29414">
        <ele>69</ele>
        <time>2015-02-15T10:01:39Z</time>
      </trkpt>
      <trkpt lat="48.81395" lon="-3.29422">
        <ele>69</ele>
        <time>2015-02-15T10:01:40Z</time>
      </trkpt>
      <trkpt lat="48.81389" lon="-3.29431">
        <ele>69</ele>
        <time>2015-02-15T10:01:41Z</time>
      </trkpt>
      <trkpt lat="48.81384" lon="-3.29439">
        <ele>69</ele>
        <time>2015-02-15T10:01:42Z</time>
      </trkpt>
      <trkpt lat="48.81378" lon="-3.29446">
        <ele>69</ele>
        <time>2015-02-15T10:01:43Z</time>
      </trkpt>
      <trkpt lat="48.81373" lon="-3.29453">
        <ele>69</ele>
        <time>2015-02-15T10:01:44Z</time>
      </trkpt>
      <trkpt lat="48.81367" lon="-3.29461">
        <ele>69</ele>
        <time>2015-02-15T10:01:45Z</time>
      </trkpt>
      <trkpt lat="48.81362" lon="-3.29468">
        <ele>69</ele>
        <time>2015-02-15T10:01:46Z</time>
      </trkpt>
      <trkpt lat="48.81358" lon="-3.29475">
        <ele>69</ele>
        <time>2015-02-15T10:01:47Z</time>
      </trkpt>
      <trkpt lat="48.81353" lon="-3.29481">
        <ele>69</ele>
        <time>2015-02-15T10:01:48Z</time>
      </trkpt>
      <trkpt lat="48.81349" lon="-3.29487">
        <ele>69</ele>
        <time>2015-02-15T10:01:49Z</time>
      </trkpt>
      <trkpt lat="48.81346" lon="-3.29494">
        <ele>69</ele>
        <time>2015-02-15T10:01:50Z</time>
      </trkpt>
      <trkpt lat="48.81346" lon="-3.29501">
        <ele>69</ele>
        <time>2015-02-15T10:01:51Z</time>
      </trkpt>
      <trkpt lat="48.81348" lon="-3.29506">
        <ele>69</ele>
        <time>2015-02-15T10:01:52Z</time>
      </trkpt>
      <trkpt lat="48.81351" lon="-3.2951">
        <ele>69</ele>
        <time>2015-02-15T10:01:53Z</time>
      </trkpt>
      <trkpt lat="48.81356" lon="-3.29514">
        <ele>69</ele>
        <time>2015-02-15T10:01:54Z</time>
      </trkpt>
      <trkpt lat="48.81361" lon="-3.29517">
        <ele>69</ele>
        <time>2015-02-15T10:01:55Z</time>
      </trkpt>
      <trkpt lat="48.81366" lon="-3.2952">
        <ele>69</ele>
        <time>2015-02-15T10:01:56Z</time>
      </trkpt>
      <trkpt lat="48.81371" lon="-3.29522">
        <ele>69</ele>
        <time>2015-02-15T10:01:57Z</time>
      </trkpt>
      <trkpt lat="48.81376" lon="-3.29526">
        <ele>69</ele>
        <time>2015-02-15T10:01:58Z</time>
      </trkpt>
      <trkpt lat="48.81382" lon="-3.29529">
        <ele>69</ele>
        <time>2015-02-15T10:01:59Z</time>
      </trkpt>
      <trkpt lat="48.81387" lon="-3.29533">
        <ele>69</ele>
        <time>2015-02-15T10:02:00Z</time>
      </trkpt>
      <trkpt lat="48.81393" lon="-3.29538">
        <ele>69</ele>
        <time>2015-02-15T10:02:01Z</time>
      </trkpt>
      <trkpt lat="48.81398" lon="-3.29542">
        <ele>69</ele>
        <time>2015-02-15T10:02:02Z</time>
      </trkpt>
      <trkpt lat="48.81404" lon="-3.29547">
        <ele>69</ele>
        <time>2015-02-15T10:02:03Z</time>
      </trkpt>
      <trkpt lat="48.81409" lon="-3.29552">
        <ele>69</ele>
        <time>2015-02-15T10:02:04Z</time>
      </trkpt>
      <trkpt lat="48.81414" lon="-3.29559">
        <ele>69</ele>
        <time>2015-02-15T10:02:05Z</time>
      </trkpt>
      <trkpt lat="48.81419" lon="-3.29566">
        <ele>69</ele>
        <time>2015-02-15T10:02:06Z</time>
      </trkpt>
      <trkpt lat="48.81424" lon="-3.29572">
        <ele>69</ele>
        <time>2015-02-15T10:02:07Z</time>
      </trkpt>
      <trkpt lat="48.81428" lon="-3.29579">
        <ele>69</ele>
        <time>2015-02-15T10:02:08Z</time>
      </trkpt>
      <trkpt lat="48.81433" lon="-3.29586">
        <ele>69</ele>
        <time>2015-02-15T10:02:09Z</time>
      </trkpt>
      <trkpt lat="48.81438" lon="-3.29593">
        <ele>69</ele>
        <time>2015-02-15T10:02:10Z</time>
      </trkpt>
      <trkpt lat="48.81443" lon="-3.29601">
        <ele>69</ele>
        <time>2015-02-15T10:02:11Z</time>
      </trkpt>
      <trkpt lat="48.81448" lon="-3.29608">
        <ele>69</ele>
        <time>2015-02-15T10:02:12Z</time>
      </trkpt>
      <trkpt lat="48.81453" lon="-3.29616">
        <ele>69</ele>
        <time>2015-02-15T10:02:13Z</time>
      </trkpt>
      <trkpt lat="48.81458" lon="-3.29624">
        <ele>69</ele>
        <time>2015-02-15T10:02:14Z</time>
      </trkpt>
      <trkpt lat="48.81462" lon="-3.29631">
        <ele>69</ele>
        <time>2015-02-15T10:02:15Z</time>
      </trkpt>
      <trkpt lat="48.81467" lon="-3.29638">
        <ele>69</ele>
        <time>2015-02-15T10:02:16Z</time>
      </trkpt>
      <trkpt lat="48.81472" lon="-3.29645">
        <ele>69</ele>
        <time>2015-02-15T10:02:17Z</time>
      </trkpt>
      <trkpt lat="48.81476" lon="-3.29652">
        <ele>69</ele>
        <time>2015-02-15T10:02:18Z</time>
      </trkpt>
      <trkpt lat="48.81481" lon="-3.29658">
        <ele>69</ele>
        <time>2015-02-15T10:02:19Z</time>
      </trkpt>
      <trkpt lat="48.81485" lon="-3.29665">
        <ele>69</ele>
        <time>2015-02-15T10:02:20Z</time>
      </trkpt>
      <trkpt lat="48.8149" lon="-3.29671">
        <ele>69</ele>
        <time>2015-02-15T10:02:21Z</time>
      </trkpt>
      <trkpt lat="48.81495" lon="-3.29677">
        <ele>69</ele>
        <time>2015-02-15T10:02:22Z</time>
      </trkpt>
      <trkpt lat="48.81499" lon="-3.29682">
        <ele>69</ele>
        <time>2015-02-15T10:02:23Z</time>
      </trkpt>
      <trkpt lat="48.81504" lon="-3.29688">
        <ele>69</ele>
        <time>2015-02-15T10:02:24Z</time>
      </trkpt>
      <trkpt lat="48.81508" lon="-3.29693">
        <ele>69</ele>
        <time>2015-02-15T10:02:25Z</time>
      </trkpt>
      <trkpt lat="48.81512" lon="-3.29698">
        <ele>69</ele>
        <time>2015-02-15T10:02:26Z</time>
      </trkpt>
      <trkpt lat="48.81517" lon="-3.29703">
        <ele>69</ele>
        <time>2015-02-15T10:02:27Z</time>
      </trkpt>
      <trkpt lat="48.81521" lon="-3.29708">
        <ele>69</ele>
        <time>2015-02-15T10:02:28Z</time>
      </trkpt>
      <trkpt lat="48.81526" lon="-3.29713">
        <ele>69</ele>
        <time>2015-02-15T10:02:29Z</time>
      </trkpt>
      <trkpt lat="48.8153" lon="-3.29718">
        <ele>69</ele>
        <time>2015-02-15T10:02:30Z</time>
      </trkpt>
      <trkpt lat="48.81535" lon="-3.29724">
        <ele>69</ele>
        <time>2015-02-15T10:02:31Z</time>
      </trkpt>
      <trkpt lat="48.81539" lon="-3.29729">
        <ele>70</ele>
        <time>2015-02-15T10:02:32Z</time>
      </trkpt>
      <trkpt lat="48.81543" lon="-3.29734">
        <ele>70</ele>
        <time>2015-02-15T10:02:33Z</time>
      </trkpt>
      <trkpt lat="48.81548" lon="-3.2974">
        <ele>70</ele>
        <time>2015-02-15T10:02:34Z</time>
      </trkpt>
      <trkpt lat="48.81553" lon="-3.29745">
        <ele>70</ele>
        <time>2015-02-15T10:02:35Z</time>
      </trkpt>
      <trkpt lat="48.81557" lon="-3.2975">
        <ele>70</ele>
        <time>2015-02-15T10:02:36Z</time>
      </trkpt>
      <trkpt lat="48.81562" lon="-3.29756">
        <ele>70</ele>
        <time>2015-02-15T10:02:37Z</time>
      </trkpt>
      <trkpt lat="48.81566" lon="-3.29761">
        <ele>71</ele>
        <time>2015-02-15T10:02:38Z</time>
      </trkpt>
      <trkpt lat="48.81571" lon="-3.29766">
        <ele>71</ele>
        <time>2015-02-15T10:02:39Z</time>
      </trkpt>
      <trkpt lat="48.81575" lon="-3.29771">
        <ele>71</ele>
        <time>2015-02-15T10:02:40Z</time>
      </trkpt>
      <trkpt lat="48.8158" lon="-3.29776">
        <ele>71</ele>
        <time>2015-02-15T10:02:41Z</time>
      </trkpt>
      <trkpt lat="48.81586" lon="-3.29779">
        <ele>71</ele>
        <time>2015-02-15T10:02:42Z</time>
      </trkpt>
      <trkpt lat="48.81592" lon="-3.29782">
        <ele>72</ele>
        <time>2015-02-15T10:02:43Z</time>
      </trkpt>
      <trkpt lat="48.81597" lon="-3.29783">
        <ele>72</ele>
        <time>2015-02-15T10:02:44Z</time>
      </trkpt>
      <trkpt lat="48.81603" lon="-3.29785">
        <ele>72</ele>
        <time>2015-02-15T10:02:45Z</time>
      </trkpt>
      <trkpt lat="48.81608" lon="-3.29786">
        <ele>72</ele>
        <time>2015-02-15T10:02:46Z</time>
      </trkpt>
      <trkpt lat="48.81614" lon="-3.29787">
        <ele>72</ele>
        <time>2015-02-15T10:02:47Z</time>
      </trkpt>
      <trkpt lat="48.8162" lon="-3.29788">
        <ele>72</ele>
        <time>2015-02-15T10:02:48Z</time>
      </trkpt>
      <trkpt lat="48.81625" lon="-3.29789">
        <ele>72</ele>
        <time>2015-02-15T10:02:49Z</time>
      </trkpt>
      <trkpt lat="48.81632" lon="-3.2979">
        <ele>72</ele>
        <time>2015-02-15T10:02:50Z</time>
      </trkpt>
      <trkpt lat="48.81638" lon="-3.29791">
        <ele>72</ele>
        <time>2015-02-15T10:02:51Z</time>
      </trkpt>
      <trkpt lat="48.81644" lon="-3.29792">
        <ele>72</ele>
        <time>2015-02-15T10:02:52Z</time>
      </trkpt>
      <trkpt lat="48.8165" lon="-3.29793">
        <ele>72</ele>
        <time>2015-02-15T10:02:53Z</time>
      </trkpt>
      <trkpt lat="48.81656" lon="-3.29794">
        <ele>72</ele>
        <time>2015-02-15T10:02:54Z</time>
      </trkpt>
      <trkpt lat="48.81661" lon="-3.29795">
        <ele>72</ele>
        <time>2015-02-15T10:02:55Z</time>
      </trkpt>
      <trkpt lat="48.81667" lon="-3.29797">
        <ele>72</ele>
        <time>2015-02-15T10:02:56Z</time>
      </trkpt>
      <trkpt lat="48.81673" lon="-3.29798">
        <ele>72</ele>
        <time>2015-02-15T10:02:57Z</time>
      </trkpt>
      <trkpt lat="48.81679" lon="-3.29799">
        <ele>72</ele>
        <time>2015-02-15T10:02:58Z</time>
      </trkpt>
      <trkpt lat="48.81685" lon="-3.298">
        <ele>72</ele>
        <time>2015-02-15T10:02:59Z</time>
      </trkpt>
      <trkpt lat="48.81691" lon="-3.29801">
        <ele>72</ele>
        <time>2015-02-15T10:03:00Z</time>
      </trkpt>
      <trkpt lat="48.81696" lon="-3.29802">
        <ele>72</ele>
        <time>2015-02-15T10:03:01Z</time>
      </trkpt>
      <trkpt lat="48.81702" lon="-3.29803">
        <ele>72</ele>
        <time>2015-02-15T10:03:02Z</time>
      </trkpt>
      <trkpt lat="48.81709" lon="-3.29804">
        <ele>72</ele>
        <time>2015-02-15T10:03:03Z</time>
      </trkpt>
      <trkpt lat="48.81715" lon="-3.29805">
        <ele>72</ele>
        <time>2015-02-15T10:03:04Z</time>
      </trkpt>
      <trkpt lat="48.81721" lon="-3.29805">
        <ele>72</ele>
        <time>2015-02-15T10:03:05Z</time>
      </trkpt>
      <trkpt lat="48.81728" lon="-3.29806">
        <ele>72</ele>
        <time>2015-02-15T10:03:06Z</time>
      </trkpt>
      <trkpt lat="48.81735" lon="-3.29807">
        <ele>72</ele>
        <time>2015-02-15T10:03:07Z</time>
      </trkpt>
      <trkpt lat="48.81742" lon="-3.29808">
        <ele>72</ele>
        <time>2015-02-15T10:03:08Z</time>
      </trkpt>
      <trkpt lat="48.81749" lon="-3.29808">
        <ele>72</ele>
        <time>2015-02-15T10:03:09Z</time>
      </trkpt>
      <trkpt lat="48.81756" lon="-3.29809">
        <ele>72</ele>
        <time>2015-02-15T10:03:10Z</time>
      </trkpt>
      <trkpt lat="48.81763" lon="-3.29809">
        <ele>72</ele>
        <time>2015-02-15T10:03:11Z</time>
      </trkpt>
      <trkpt lat="48.8177" lon="-3.2981">
        <ele>72</ele>
        <time>2015-02-15T10:03:12Z</time>
      </trkpt>
      <trkpt lat="48.81777" lon="-3.2981">
        <ele>72</ele>
        <time>2015-02-15T10:03:13Z</time>
      </trkpt>
      <trkpt lat="48.81816" lon="-3.2981">
        <ele>72</ele>
        <time>2015-02-15T10:03:18Z</time>
      </trkpt>
      <trkpt lat="48.81824" lon="-3.29811">
        <ele>72</ele>
        <time>2015-02-15T10:03:19Z</time>
      </trkpt>
      <trkpt lat="48.81841" lon="-3.29811">
        <ele>72</ele>
        <time>2015-02-15T10:03:21Z</time>
      </trkpt>
      <trkpt lat="48.81849" lon="-3.29811">
        <ele>72</ele>
        <time>2015-02-15T10:03:22Z</time>
      </trkpt>
      <trkpt lat="48.81858" lon="-3.29813">
        <ele>72</ele>
        <time>2015-02-15T10:03:23Z</time>
      </trkpt>
      <trkpt lat="48.81866" lon="-3.29814">
        <ele>72</ele>
        <time>2015-02-15T10:03:24Z</time>
      </trkpt>
      <trkpt lat="48.81875" lon="-3.29817">
        <ele>72</ele>
        <time>2015-02-15T10:03:25Z</time>
      </trkpt>
      <trkpt lat="48.81884" lon="-3.29819">
        <ele>71</ele>
        <time>2015-02-15T10:03:26Z</time>
      </trkpt>
      <trkpt lat="48.81892" lon="-3.29822">
        <ele>71</ele>
        <time>2015-02-15T10:03:27Z</time>
      </trkpt>
      <trkpt lat="48.819" lon="-3.29826">
        <ele>71</ele>
        <time>2015-02-15T10:03:28Z</time>
      </trkpt>
      <trkpt lat="48.81907" lon="-3.29831">
        <ele>71</ele>
        <time>2015-02-15T10:03:29Z</time>
      </trkpt>
      <trkpt lat="48.81915" lon="-3.29835">
        <ele>71</ele>
        <time>2015-02-15T10:03:30Z</time>
      </trkpt>
      <trkpt lat="48.81922" lon="-3.2984">
        <ele>71</ele>
        <time>2015-02-15T10:03:31Z</time>
      </trkpt>
      <trkpt lat="48.8193" lon="-3.29845">
        <ele>70</ele>
        <time>2015-02-15T10:03:32Z</time>
      </trkpt>
      <trkpt lat="48.81937" lon="-3.2985">
        <ele>70</ele>
        <time>2015-02-15T10:03:33Z</time>
      </trkpt>
      <trkpt lat="48.81945" lon="-3.29854">
        <ele>70</ele>
        <time>2015-02-15T10:03:34Z</time>
      </trkpt>
      <trkpt lat="48.81953" lon="-3.29858">
        <ele>70</ele>
        <time>2015-02-15T10:03:35Z</time>
      </trkpt>
      <trkpt lat="48.81961" lon="-3.29862">
        <ele>69</ele>
        <time>2015-02-15T10:03:36Z</time>
      </trkpt>
      <trkpt lat="48.81969" lon="-3.29865">
        <ele>69</ele>
        <time>2015-02-15T10:03:37Z</time>
      </trkpt>
      <trkpt lat="48.81979" lon="-3.29867">
        <ele>69</ele>
        <time>2015-02-15T10:03:38Z</time>
      </trkpt>
      <trkpt lat="48.81988" lon="-3.29868">
        <ele>68</ele>
        <time>2015-02-15T10:03:39Z</time>
      </trkpt>
      <trkpt lat="48.81997" lon="-3.29868">
        <ele>68</ele>
        <time>2015-02-15T10:03:40Z</time>
      </trkpt>
      <trkpt lat="48.82006" lon="-3.29868">
        <ele>67</ele>
        <time>2015-02-15T10:03:41Z</time>
      </trkpt>
      <trkpt lat="48.82015" lon="-3.29868">
        <ele>67</ele>
        <time>2015-02-15T10:03:42Z</time>
      </trkpt>
      <trkpt lat="48.82025" lon="-3.29869">
        <ele>67</ele>
        <time>2015-02-15T10:03:43Z</time>
      </trkpt>
      <trkpt lat="48.82035" lon="-3.29871">
        <ele>67</ele>
        <time>2015-02-15T10:03:44Z</time>
      </trkpt>
      <trkpt lat="48.82045" lon="-3.29872">
        <ele>66</ele>
        <time>2015-02-15T10:03:45Z</time>
      </trkpt>
      <trkpt lat="48.82055" lon="-3.29874">
        <ele>66</ele>
        <time>2015-02-15T10:03:46Z</time>
      </trkpt>
      <trkpt lat="48.82064" lon="-3.29877">
        <ele>66</ele>
        <time>2015-02-15T10:03:47Z</time>
      </trkpt>
      <trkpt lat="48.82074" lon="-3.29882">
        <ele>66</ele>
        <time>2015-02-15T10:03:48Z</time>
      </trkpt>
      <trkpt lat="48.82084" lon="-3.2989">
        <ele>65</ele>
        <time>2015-02-15T10:03:49Z</time>
      </trkpt>
      <trkpt lat="48.82092" lon="-3.29898">
        <ele>65</ele>
        <time>2015-02-15T10:03:50Z</time>
      </trkpt>
      <trkpt lat="48.82101" lon="-3.29908">
        <ele>64</ele>
        <time>2015-02-15T10:03:51Z</time>
      </trkpt>
      <trkpt lat="48.82108" lon="-3.29918">
        <ele>63</ele>
        <time>2015-02-15T10:03:52Z</time>
      </trkpt>
      <trkpt lat="48.82115" lon="-3.29928">
        <ele>63</ele>
        <time>2015-02-15T10:03:53Z</time>
      </trkpt>
      <trkpt lat="48.82122" lon="-3.29938">
        <ele>62</ele>
        <time>2015-02-15T10:03:54Z</time>
      </trkpt>
      <trkpt lat="48.82129" lon="-3.29948">
        <ele>62</ele>
        <time>2015-02-15T10:03:55Z</time>
      </trkpt>
      <trkpt lat="48.82137" lon="-3.29957">
        <ele>61</ele>
        <time>2015-02-15T10:03:56Z</time>
      </trkpt>
      <trkpt lat="48.82144" lon="-3.29967">
        <ele>61</ele>
        <time>2015-02-15T10:03:57Z</time>
      </trkpt>
      <trkpt lat="48.82151" lon="-3.29975">
        <ele>61</ele>
        <time>2015-02-15T10:03:58Z</time>
      </trkpt>
      <trkpt lat="48.82159" lon="-3.29984">
        <ele>60</ele>
        <time>2015-02-15T10:03:59Z</time>
      </trkpt>
      <trkpt lat="48.82167" lon="-3.29992">
        <ele>60</ele>
        <time>2015-02-15T10:04:00Z</time>
      </trkpt>
      <trkpt lat="48.82175" lon="-3.30001">
        <ele>60</ele>
        <time>2015-02-15T10:04:01Z</time>
      </trkpt>
      <trkpt lat="48.82182" lon="-3.30009">
        <ele>60</ele>
        <time>2015-02-15T10:04:02Z</time>
      </trkpt>
      <trkpt lat="48.82191" lon="-3.30017">
        <ele>60</ele>
        <time>2015-02-15T10:04:03Z</time>
      </trkpt>
      <trkpt lat="48.82199" lon="-3.30025">
        <ele>60</ele>
        <time>2015-02-15T10:04:04Z</time>
      </trkpt>
      <trkpt lat="48.82207" lon="-3.30033">
        <ele>60</ele>
        <time>2015-02-15T10:04:05Z</time>
      </trkpt>
      <trkpt lat="48.82215" lon="-3.3004">
        <ele>60</ele>
        <time>2015-02-15T10:04:06Z</time>
      </trkpt>
      <trkpt lat="48.82223" lon="-3.30046">
        <ele>60</ele>
        <time>2015-02-15T10:04:07Z</time>
      </trkpt>
      <trkpt lat="48.82231" lon="-3.30052">
        <ele>59</ele>
        <time>2015-02-15T10:04:08Z</time>
      </trkpt>
      <trkpt lat="48.8224" lon="-3.30058">
        <ele>59</ele>
        <time>2015-02-15T10:04:09Z</time>
      </trkpt>
      <trkpt lat="48.82248" lon="-3.30063">
        <ele>59</ele>
        <time>2015-02-15T10:04:10Z</time>
      </trkpt>
      <trkpt lat="48.82256" lon="-3.30069">
        <ele>59</ele>
        <time>2015-02-15T10:04:11Z</time>
      </trkpt>
      <trkpt lat="48.82264" lon="-3.30074">
        <ele>59</ele>
        <time>2015-02-15T10:04:12Z</time>
      </trkpt>
      <trkpt lat="48.82272" lon="-3.3008">
        <ele>59</ele>
        <time>2015-02-15T10:04:13Z</time>
      </trkpt>
      <trkpt lat="48.8228" lon="-3.30086">
        <ele>59</ele>
        <time>2015-02-15T10:04:14Z</time>
      </trkpt>
      <trkpt lat="48.82288" lon="-3.30093">
        <ele>59</ele>
        <time>2015-02-15T10:04:15Z</time>
      </trkpt>
      <trkpt lat="48.82295" lon="-3.30101">
        <ele>58</ele>
        <time>2015-02-15T10:04:16Z</time>
      </trkpt>
      <trkpt lat="48.82302" lon="-3.30109">
        <ele>58</ele>
        <time>2015-02-15T10:04:17Z</time>
      </trkpt>
      <trkpt lat="48.82309" lon="-3.30118">
        <ele>58</ele>
        <time>2015-02-15T10:04:18Z</time>
      </trkpt>
      <trkpt lat="48.82316" lon="-3.30128">
        <ele>58</ele>
        <time>2015-02-15T10:04:19Z</time>
      </trkpt>
      <trkpt lat="48.82323" lon="-3.30137">
        <ele>57</ele>
        <time>2015-02-15T10:04:20Z</time>
      </trkpt>
      <trkpt lat="48.8233" lon="-3.30147">
        <ele>57</ele>
        <time>2015-02-15T10:04:21Z</time>
      </trkpt>
      <trkpt lat="48.82338" lon="-3.30157">
        <ele>56</ele>
        <time>2015-02-15T10:04:22Z</time>
      </trkpt>
      <trkpt lat="48.82346" lon="-3.30167">
        <ele>56</ele>
        <time>2015-02-15T10:04:23Z</time>
      </trkpt>
      <trkpt lat="48.82354" lon="-3.30178">
        <ele>55</ele>
        <time>2015-02-15T10:04:24Z</time>
      </trkpt>
      <trkpt lat="48.82361" lon="-3.30189">
        <ele>55</ele>
        <time>2015-02-15T10:04:25Z</time>
      </trkpt>
      <trkpt lat="48.82369" lon="-3.30201">
        <ele>54</ele>
        <time>2015-02-15T10:04:26Z</time>
      </trkpt>
      <trkpt lat="48.82376" lon="-3.30213">
        <ele>54</ele>
        <time>2015-02-15T10:04:27Z</time>
      </trkpt>
      <trkpt lat="48.82383" lon="-3.30225">
        <ele>54</ele>
        <time>2015-02-15T10:04:28Z</time>
      </trkpt>
      <trkpt lat="48.8239" lon="-3.30237">
        <ele>54</ele>
        <time>2015-02-15T10:04:29Z</time>
      </trkpt>
      <trkpt lat="48.82397" lon="-3.30248">
        <ele>54</ele>
        <time>2015-02-15T10:04:30Z</time>
      </trkpt>
      <trkpt lat="48.82405" lon="-3.30257">
        <ele>54</ele>
        <time>2015-02-15T10:04:31Z</time>
      </trkpt>
      <trkpt lat="48.82413" lon="-3.30266">
        <ele>54</ele>
        <time>2015-02-15T10:04:32Z</time>
      </trkpt>
      <trkpt lat="48.82421" lon="-3.30273">
        <ele>54</ele>
        <time>2015-02-15T10:04:33Z</time>
      </trkpt>
      <trkpt lat="48.82429" lon="-3.30279">
        <ele>54</ele>
        <time>2015-02-15T10:04:34Z</time>
      </trkpt>
      <trkpt lat="48.82438" lon="-3.30284">
        <ele>54</ele>
        <time>2015-02-15T10:04:35Z</time>
      </trkpt>
      <trkpt lat="48.82446" lon="-3.30288">
        <ele>54</ele>
        <time>2015-02-15T10:04:36Z</time>
      </trkpt>
      <trkpt lat="48.82454" lon="-3.3029">
        <ele>54</ele>
        <time>2015-02-15T10:04:37Z</time>
      </trkpt>
      <trkpt lat="48.82462" lon="-3.30292">
        <ele>54</ele>
        <time>2015-02-15T10:04:38Z</time>
      </trkpt>
      <trkpt lat="48.8247" lon="-3.30293">
        <ele>54</ele>
        <time>2015-02-15T10:04:39Z</time>
      </trkpt>
      <trkpt lat="48.82478" lon="-3.30294">
        <ele>54</ele>
        <time>2015-02-15T10:04:40Z</time>
      </trkpt>
      <trkpt lat="48.82486" lon="-3.30295">
        <ele>54</ele>
        <time>2015-02-15T10:04:41Z</time>
      </trkpt>
      <trkpt lat="48.82494" lon="-3.30295">
        <ele>54</ele>
        <time>2015-02-15T10:04:42Z</time>
      </trkpt>
      <trkpt lat="48.82502" lon="-3.30296">
        <ele>54</ele>
        <time>2015-02-15T10:04:43Z</time>
      </trkpt>
      <trkpt lat="48.8251" lon="-3.30296">
        <ele>54</ele>
        <time>2015-02-15T10:04:44Z</time>
      </trkpt>
      <trkpt lat="48.82518" lon="-3.30297">
        <ele>54</ele>
        <time>2015-02-15T10:04:45Z</time>
      </trkpt>
      <trkpt lat="48.82525" lon="-3.30297">
        <ele>54</ele>
        <time>2015-02-15T10:04:46Z</time>
      </trkpt>
      <trkpt lat="48.82533" lon="-3.30298">
        <ele>54</ele>
        <time>2015-02-15T10:04:47Z</time>
      </trkpt>
      <trkpt lat="48.8254" lon="-3.303">
        <ele>54</ele>
        <time>2015-02-15T10:04:48Z</time>
      </trkpt>
      <trkpt lat="48.82547" lon="-3.30302">
        <ele>54</ele>
        <time>2015-02-15T10:04:49Z</time>
      </trkpt>
      <trkpt lat="48.82554" lon="-3.30305">
        <ele>54</ele>
        <time>2015-02-15T10:04:50Z</time>
      </trkpt>
      <trkpt lat="48.82561" lon="-3.30307">
        <ele>54</ele>
        <time>2015-02-15T10:04:51Z</time>
      </trkpt>
      <trkpt lat="48.82568" lon="-3.3031">
        <ele>54</ele>
        <time>2015-02-15T10:04:52Z</time>
      </trkpt>
      <trkpt lat="48.82576" lon="-3.30312">
        <ele>54</ele>
        <time>2015-02-15T10:04:53Z</time>
      </trkpt>
      <trkpt lat="48.82584" lon="-3.30314">
        <ele>54</ele>
        <time>2015-02-15T10:04:54Z</time>
      </trkpt>
      <trkpt lat="48.82592" lon="-3.30315">
        <ele>54</ele>
        <time>2015-02-15T10:04:55Z</time>
      </trkpt>
      <trkpt lat="48.826" lon="-3.30317">
        <ele>54</ele>
        <time>2015-02-15T10:04:56Z</time>
      </trkpt>
      <trkpt lat="48.82608" lon="-3.30318">
        <ele>54</ele>
        <time>2015-02-15T10:04:57Z</time>
      </trkpt>
      <trkpt lat="48.82617" lon="-3.30318">
        <ele>54</ele>
        <time>2015-02-15T10:04:58Z</time>
      </trkpt>
      <trkpt lat="48.82626" lon="-3.30319">
        <ele>54</ele>
        <time>2015-02-15T10:04:59Z</time>
      </trkpt>
      <trkpt lat="48.82636" lon="-3.3032">
        <ele>54</ele>
        <time>2015-02-15T10:05:00Z</time>
      </trkpt>
      <trkpt lat="48.82645" lon="-3.3032">
        <ele>54</ele>
        <time>2015-02-15T10:05:01Z</time>
      </trkpt>
      <trkpt lat="48.82654" lon="-3.3032">
        <ele>54</ele>
        <time>2015-02-15T10:05:02Z</time>
      </trkpt>
      <trkpt lat="48.82663" lon="-3.3032">
        <ele>54</ele>
        <time>2015-02-15T10:05:03Z</time>
      </trkpt>
      <trkpt lat="48.82671" lon="-3.30321">
        <ele>53</ele>
        <time>2015-02-15T10:05:04Z</time>
      </trkpt>
      <trkpt lat="48.8268" lon="-3.30321">
        <ele>53</ele>
        <time>2015-02-15T10:05:05Z</time>
      </trkpt>
      <trkpt lat="48.82689" lon="-3.30322">
        <ele>53</ele>
        <time>2015-02-15T10:05:06Z</time>
      </trkpt>
      <trkpt lat="48.82697" lon="-3.30322">
        <ele>53</ele>
        <time>2015-02-15T10:05:07Z</time>
      </trkpt>
      <trkpt lat="48.82705" lon="-3.30323">
        <ele>53</ele>
        <time>2015-02-15T10:05:08Z</time>
      </trkpt>
      <trkpt lat="48.82713" lon="-3.30323">
        <ele>53</ele>
        <time>2015-02-15T10:05:09Z</time>
      </trkpt>
      <trkpt lat="48.82721" lon="-3.30323">
        <ele>53</ele>
        <time>2015-02-15T10:05:10Z</time>
      </trkpt>
      <trkpt lat="48.82729" lon="-3.30323">
        <ele>53</ele>
        <time>2015-02-15T10:05:11Z</time>
      </trkpt>
      <trkpt lat="48.82737" lon="-3.30323">
        <ele>53</ele>
        <time>2015-02-15T10:05:12Z</time>
      </trkpt>
      <trkpt lat="48.82751" lon="-3.30323">
        <ele>53</ele>
        <time>2015-02-15T10:05:14Z</time>
      </trkpt>
      <trkpt lat="48.82764" lon="-3.30323">
        <ele>53</ele>
        <time>2015-02-15T10:05:16Z</time>
      </trkpt>
      <trkpt lat="48.82771" lon="-3.30323">
        <ele>53</ele>
        <time>2015-02-15T10:05:17Z</time>
      </trkpt>
      <trkpt lat="48.82777" lon="-3.30323">
        <ele>53</ele>
        <time>2015-02-15T10:05:18Z</time>
      </trkpt>
      <trkpt lat="48.82783" lon="-3.30323">
        <ele>53</ele>
        <time>2015-02-15T10:05:19Z</time>
      </trkpt>
      <trkpt lat="48.82789" lon="-3.30324">
        <ele>53</ele>
        <time>2015-02-15T10:05:20Z</time>
      </trkpt>
      <trkpt lat="48.82795" lon="-3.30324">
        <ele>53</ele>
        <time>2015-02-15T10:05:21Z</time>
      </trkpt>
      <trkpt lat="48.82801" lon="-3.30324">
        <ele>53</ele>
        <time>2015-02-15T10:05:22Z</time>
      </trkpt>
      <trkpt lat="48.82806" lon="-3.30324">
        <ele>53</ele>
        <time>2015-02-15T10:05:23Z</time>
      </trkpt>
      <trkpt lat="48.82811" lon="-3.30325">
        <ele>53</ele>
        <time>2015-02-15T10:05:24Z</time>
      </trkpt>
      <trkpt lat="48.82816" lon="-3.30326">
        <ele>53</ele>
        <time>2015-02-15T10:05:25Z</time>
      </trkpt>
      <trkpt lat="48.82822" lon="-3.30328">
        <ele>53</ele>
        <time>2015-02-15T10:05:26Z</time>
      </trkpt>
      <trkpt lat="48.82827" lon="-3.3033">
        <ele>53</ele>
        <time>2015-02-15T10:05:27Z</time>
      </trkpt>
      <trkpt lat="48.82832" lon="-3.30332">
        <ele>53</ele>
        <time>2015-02-15T10:05:28Z</time>
      </trkpt>
      <trkpt lat="48.82837" lon="-3.30336">
        <ele>53</ele>
        <time>2015-02-15T10:05:29Z</time>
      </trkpt>
      <trkpt lat="48.82843" lon="-3.3034">
        <ele>53</ele>
        <time>2015-02-15T10:05:30Z</time>
      </trkpt>
      <trkpt lat="48.82848" lon="-3.30345">
        <ele>53</ele>
        <time>2015-02-15T10:05:31Z</time>
      </trkpt>
      <trkpt lat="48.82853" lon="-3.3035">
        <ele>53</ele>
        <time>2015-02-15T10:05:32Z</time>
      </trkpt>
      <trkpt lat="48.82859" lon="-3.30356">
        <ele>53</ele>
        <time>2015-02-15T10:05:33Z</time>
      </trkpt>
      <trkpt lat="48.82864" lon="-3.30363">
        <ele>53</ele>
        <time>2015-02-15T10:05:34Z</time>
      </trkpt>
      <trkpt lat="48.82869" lon="-3.3037">
        <ele>53</ele>
        <time>2015-02-15T10:05:35Z</time>
      </trkpt>
      <trkpt lat="48.82874" lon="-3.30376">
        <ele>53</ele>
        <time>2015-02-15T10:05:36Z</time>
      </trkpt>
      <trkpt lat="48.8288" lon="-3.30383">
        <ele>53</ele>
        <time>2015-02-15T10:05:37Z</time>
      </trkpt>
      <trkpt lat="48.82885" lon="-3.30389">
        <ele>53</ele>
        <time>2015-02-15T10:05:38Z</time>
      </trkpt>
      <trkpt lat="48.82892" lon="-3.30394">
        <ele>53</ele>
        <time>2015-02-15T10:05:39Z</time>
      </trkpt>
      <trkpt lat="48.82898" lon="-3.30398">
        <ele>53</ele>
        <time>2015-02-15T10:05:40Z</time>
      </trkpt>
      <trkpt lat="48.82906" lon="-3.304">
        <ele>53</ele>
        <time>2015-02-15T10:05:41Z</time>
      </trkpt>
      <trkpt lat="48.82914" lon="-3.30401">
        <ele>53</ele>
        <time>2015-02-15T10:05:42Z</time>
      </trkpt>
      <trkpt lat="48.82922" lon="-3.30399">
        <ele>53</ele>
        <time>2015-02-15T10:05:43Z</time>
      </trkpt>
      <trkpt lat="48.8293" lon="-3.30395">
        <ele>53</ele>
        <time>2015-02-15T10:05:44Z</time>
      </trkpt>
      <trkpt lat="48.82937" lon="-3.30389">
        <ele>53</ele>
        <time>2015-02-15T10:05:45Z</time>
      </trkpt>
      <trkpt lat="48.82944" lon="-3.30382">
        <ele>52</ele>
        <time>2015-02-15T10:05:46Z</time>
      </trkpt>
      <trkpt lat="48.82951" lon="-3.30375">
        <ele>52</ele>
        <time>2015-02-15T10:05:47Z</time>
      </trkpt>
      <trkpt lat="48.82958" lon="-3.30367">
        <ele>52</ele>
        <time>2015-02-15T10:05:48Z</time>
      </trkpt>
      <trkpt lat="48.82965" lon="-3.3036">
        <ele>51</ele>
        <time>2015-02-15T10:05:49Z</time>
      </trkpt>
      <trkpt lat="48.82973" lon="-3.30352">
        <ele>51</ele>
        <time>2015-02-15T10:05:50Z</time>
      </trkpt>
      <trkpt lat="48.8298" lon="-3.30345">
        <ele>51</ele>
        <time>2015-02-15T10:05:51Z</time>
      </trkpt>
      <trkpt lat="48.82988" lon="-3.30338">
        <ele>50</ele>
        <time>2015-02-15T10:05:52Z</time>
      </trkpt>
      <trkpt lat="48.82996" lon="-3.30332">
        <ele>50</ele>
        <time>2015-02-15T10:05:53Z</time>
      </trkpt>
      <trkpt lat="48.83004" lon="-3.30327">
        <ele>50</ele>
        <time>2015-02-15T10:05:54Z</time>
      </trkpt>
      <trkpt lat="48.83013" lon="-3.30324">
        <ele>49</ele>
        <time>2015-02-15T10:05:55Z</time>
      </trkpt>
      <trkpt lat="48.83022" lon="-3.30322">
        <ele>49</ele>
        <time>2015-02-15T10:05:56Z</time>
      </trkpt>
      <trkpt lat="48.83041" lon="-3.30324">
        <ele>48</ele>
        <time>2015-02-15T10:05:58Z</time>
      </trkpt>
      <trkpt lat="48.83049" lon="-3.30329">
        <ele>48</ele>
        <time>2015-02-15T10:05:59Z</time>
      </trkpt>
      <trkpt lat="48.83058" lon="-3.30336">
        <ele>48</ele>
        <time>2015-02-15T10:06:00Z</time>
      </trkpt>
      <trkpt lat="48.83066" lon="-3.30344">
        <ele>47</ele>
        <time>2015-02-15T10:06:01Z</time>
      </trkpt>
      <trkpt lat="48.83073" lon="-3.30354">
        <ele>47</ele>
        <time>2015-02-15T10:06:02Z</time>
      </trkpt>
      <trkpt lat="48.83081" lon="-3.30364">
        <ele>46</ele>
        <time>2015-02-15T10:06:03Z</time>
      </trkpt>
      <trkpt lat="48.83088" lon="-3.30374">
        <ele>46</ele>
        <time>2015-02-15T10:06:04Z</time>
      </trkpt>
      <trkpt lat="48.83095" lon="-3.30384">
        <ele>46</ele>
        <time>2015-02-15T10:06:05Z</time>
      </trkpt>
      <trkpt lat="48.83102" lon="-3.30395">
        <ele>45</ele>
        <time>2015-02-15T10:06:06Z</time>
      </trkpt>
      <trkpt lat="48.83109" lon="-3.30405">
        <ele>45</ele>
        <time>2015-02-15T10:06:07Z</time>
      </trkpt>
      <trkpt lat="48.83116" lon="-3.30415">
        <ele>45</ele>
        <time>2015-02-15T10:06:08Z</time>
      </trkpt>
      <trkpt lat="48.83123" lon="-3.30425">
        <ele>45</ele>
        <time>2015-02-15T10:06:09Z</time>
      </trkpt>
      <trkpt lat="48.83129" lon="-3.30435">
        <ele>45</ele>
        <time>2015-02-15T10:06:10Z</time>
      </trkpt>
      <trkpt lat="48.83136" lon="-3.30445">
        <ele>45</ele>
        <time>2015-02-15T10:06:11Z</time>
      </trkpt>
      <trkpt lat="48.83143" lon="-3.30455">
        <ele>45</ele>
        <time>2015-02-15T10:06:12Z</time>
      </trkpt>
      <trkpt lat="48.83149" lon="-3.30465">
        <ele>45</ele>
        <time>2015-02-15T10:06:13Z</time>
      </trkpt>
      <trkpt lat="48.83155" lon="-3.30473">
        <ele>45</ele>
        <time>2015-02-15T10:06:14Z</time>
      </trkpt>
      <trkpt lat="48.83162" lon="-3.30482">
        <ele>45</ele>
        <time>2015-02-15T10:06:15Z</time>
      </trkpt>
      <trkpt lat="48.83168" lon="-3.3049">
        <ele>45</ele>
        <time>2015-02-15T10:06:16Z</time>
      </trkpt>
      <trkpt lat="48.83174" lon="-3.30497">
        <ele>45</ele>
        <time>2015-02-15T10:06:17Z</time>
      </trkpt>
      <trkpt lat="48.83181" lon="-3.30504">
        <ele>45</ele>
        <time>2015-02-15T10:06:18Z</time>
      </trkpt>
      <trkpt lat="48.83187" lon="-3.30511">
        <ele>45</ele>
        <time>2015-02-15T10:06:19Z</time>
      </trkpt>
      <trkpt lat="48.83193" lon="-3.30518">
        <ele>45</ele>
        <time>2015-02-15T10:06:20Z</time>
      </trkpt>
      <trkpt lat="48.83199" lon="-3.30524">
        <ele>45</ele>
        <time>2015-02-15T10:06:21Z</time>
      </trkpt>
      <trkpt lat="48.83205" lon="-3.3053">
        <ele>45</ele>
        <time>2015-02-15T10:06:22Z</time>
      </trkpt>
      <trkpt lat="48.83211" lon="-3.30535">
        <ele>45</ele>
        <time>2015-02-15T10:06:23Z</time>
      </trkpt>
      <trkpt lat="48.83216" lon="-3.30541">
        <ele>45</ele>
        <time>2015-02-15T10:06:24Z</time>
      </trkpt>
      <trkpt lat="48.83221" lon="-3.30546">
        <ele>45</ele>
        <time>2015-02-15T10:06:25Z</time>
      </trkpt>
      <trkpt lat="48.83226" lon="-3.30551">
        <ele>45</ele>
        <time>2015-02-15T10:06:26Z</time>
      </trkpt>
      <trkpt lat="48.83231" lon="-3.30556">
        <ele>45</ele>
        <time>2015-02-15T10:06:27Z</time>
      </trkpt>
      <trkpt lat="48.83236" lon="-3.30561">
        <ele>45</ele>
        <time>2015-02-15T10:06:28Z</time>
      </trkpt>
      <trkpt lat="48.83242" lon="-3.30566">
        <ele>45</ele>
        <time>2015-02-15T10:06:29Z</time>
      </trkpt>
      <trkpt lat="48.83248" lon="-3.3057">
        <ele>45</ele>
        <time>2015-02-15T10:06:30Z</time>
      </trkpt>
      <trkpt lat="48.83255" lon="-3.30574">
        <ele>45</ele>
        <time>2015-02-15T10:06:31Z</time>
      </trkpt>
      <trkpt lat="48.83261" lon="-3.30576">
        <ele>45</ele>
        <time>2015-02-15T10:06:32Z</time>
      </trkpt>
      <trkpt lat="48.83268" lon="-3.30578">
        <ele>45</ele>
        <time>2015-02-15T10:06:33Z</time>
      </trkpt>
      <trkpt lat="48.83275" lon="-3.3058">
        <ele>45</ele>
        <time>2015-02-15T10:06:34Z</time>
      </trkpt>
      <trkpt lat="48.83282" lon="-3.3058">
        <ele>45</ele>
        <time>2015-02-15T10:06:35Z</time>
      </trkpt>
      <trkpt lat="48.8329" lon="-3.3058">
        <ele>45</ele>
        <time>2015-02-15T10:06:36Z</time>
      </trkpt>
      <trkpt lat="48.83298" lon="-3.30579">
        <ele>45</ele>
        <time>2015-02-15T10:06:37Z</time>
      </trkpt>
      <trkpt lat="48.83306" lon="-3.30578">
        <ele>45</ele>
        <time>2015-02-15T10:06:38Z</time>
      </trkpt>
      <trkpt lat="48.83314" lon="-3.30576">
        <ele>45</ele>
        <time>2015-02-15T10:06:39Z</time>
      </trkpt>
      <trkpt lat="48.83322" lon="-3.30576">
        <ele>45</ele>
        <time>2015-02-15T10:06:40Z</time>
      </trkpt>
      <trkpt lat="48.83331" lon="-3.30575">
        <ele>45</ele>
        <time>2015-02-15T10:06:41Z</time>
      </trkpt>
      <trkpt lat="48.8334" lon="-3.30575">
        <ele>45</ele>
        <time>2015-02-15T10:06:42Z</time>
      </trkpt>
      <trkpt lat="48.83358" lon="-3.30575">
        <ele>45</ele>
        <time>2015-02-15T10:06:44Z</time>
      </trkpt>
      <trkpt lat="48.83368" lon="-3.30577">
        <ele>45</ele>
        <time>2015-02-15T10:06:45Z</time>
      </trkpt>
      <trkpt lat="48.83377" lon="-3.30581">
        <ele>44</ele>
        <time>2015-02-15T10:06:46Z</time>
      </trkpt>
      <trkpt lat="48.83387" lon="-3.30585">
        <ele>43</ele>
        <time>2015-02-15T10:06:47Z</time>
      </trkpt>
      <trkpt lat="48.83395" lon="-3.30591">
        <ele>43</ele>
        <time>2015-02-15T10:06:48Z</time>
      </trkpt>
      <trkpt lat="48.83404" lon="-3.30598">
        <ele>42</ele>
        <time>2015-02-15T10:06:49Z</time>
      </trkpt>
      <trkpt lat="48.83411" lon="-3.30607">
        <ele>41</ele>
        <time>2015-02-15T10:06:50Z</time>
      </trkpt>
      <trkpt lat="48.83418" lon="-3.30617">
        <ele>41</ele>
        <time>2015-02-15T10:06:51Z</time>
      </trkpt>
      <trkpt lat="48.83424" lon="-3.30628">
        <ele>40</ele>
        <time>2015-02-15T10:06:52Z</time>
      </trkpt>
      <trkpt lat="48.83429" lon="-3.30641">
        <ele>40</ele>
        <time>2015-02-15T10:06:53Z</time>
      </trkpt>
      <trkpt lat="48.83432" lon="-3.30656">
        <ele>39</ele>
        <time>2015-02-15T10:06:54Z</time>
      </trkpt>
      <trkpt lat="48.83434" lon="-3.30672">
        <ele>39</ele>
        <time>2015-02-15T10:06:55Z</time>
      </trkpt>
      <trkpt lat="48.83435" lon="-3.30688">
        <ele>39</ele>
        <time>2015-02-15T10:06:56Z</time>
      </trkpt>
      <trkpt lat="48.83435" lon="-3.30721">
        <ele>38</ele>
        <time>2015-02-15T10:06:58Z</time>
      </trkpt>
      <trkpt lat="48.83435" lon="-3.30769">
        <ele>36</ele>
        <time>2015-02-15T10:07:01Z</time>
      </trkpt>
      <trkpt lat="48.83434" lon="-3.30831">
        <ele>34</ele>
        <time>2015-02-15T10:07:05Z</time>
      </trkpt>
      <trkpt lat="48.83434" lon="-3.30862">
        <ele>33</ele>
        <time>2015-02-15T10:07:07Z</time>
      </trkpt>
      <trkpt lat="48.83434" lon="-3.30877">
        <ele>33</ele>
        <time>2015-02-15T10:07:08Z</time>
      </trkpt>
      <trkpt lat="48.83434" lon="-3.30923">
        <ele>31</ele>
        <time>2015-02-15T10:07:11Z</time>
      </trkpt>
      <trkpt lat="48.83436" lon="-3.30939">
        <ele>30</ele>
        <time>2015-02-15T10:07:12Z</time>
      </trkpt>
      <trkpt lat="48.83438" lon="-3.30954">
        <ele>29</ele>
        <time>2015-02-15T10:07:13Z</time>
      </trkpt>
      <trkpt lat="48.83442" lon="-3.30969">
        <ele>28</ele>
        <time>2015-02-15T10:07:14Z</time>
      </trkpt>
      <trkpt lat="48.83448" lon="-3.30982">
        <ele>28</ele>
        <time>2015-02-15T10:07:15Z</time>
      </trkpt>
      <trkpt lat="48.83455" lon="-3.30994">
        <ele>27</ele>
        <time>2015-02-15T10:07:16Z</time>
      </trkpt>
      <trkpt lat="48.83463" lon="-3.31004">
        <ele>26</ele>
        <time>2015-02-15T10:07:17Z</time>
      </trkpt>
      <trkpt lat="48.83472" lon="-3.31011">
        <ele>25</ele>
        <time>2015-02-15T10:07:18Z</time>
      </trkpt>
      <trkpt lat="48.83482" lon="-3.31015">
        <ele>25</ele>
        <time>2015-02-15T10:07:19Z</time>
      </trkpt>
      <trkpt lat="48.83491" lon="-3.31017">
        <ele>24</ele>
        <time>2015-02-15T10:07:20Z</time>
      </trkpt>
      <trkpt lat="48.835" lon="-3.31018">
        <ele>23</ele>
        <time>2015-02-15T10:07:21Z</time>
      </trkpt>
      <trkpt lat="48.83516" lon="-3.31019">
        <ele>22</ele>
        <time>2015-02-15T10:07:23Z</time>
      </trkpt>
      <trkpt lat="48.83522" lon="-3.31021">
        <ele>22</ele>
        <time>2015-02-15T10:07:24Z</time>
      </trkpt>
      <trkpt lat="48.83528" lon="-3.31025">
        <ele>21</ele>
        <time>2015-02-15T10:07:25Z</time>
      </trkpt>
      <trkpt lat="48.83532" lon="-3.31032">
        <ele>21</ele>
        <time>2015-02-15T10:07:26Z</time>
      </trkpt>
      <trkpt lat="48.83534" lon="-3.31042">
        <ele>21</ele>
        <time>2015-02-15T10:07:27Z</time>
      </trkpt>
      <trkpt lat="48.83532" lon="-3.31063">
        <ele>21</ele>
        <time>2015-02-15T10:07:29Z</time>
      </trkpt>
      <trkpt lat="48.83531" lon="-3.31074">
        <ele>21</ele>
        <time>2015-02-15T10:07:30Z</time>
      </trkpt>
      <trkpt lat="48.83529" lon="-3.31086">
        <ele>21</ele>
        <time>2015-02-15T10:07:31Z</time>
      </trkpt>
      <trkpt lat="48.83527" lon="-3.31098">
        <ele>21</ele>
        <time>2015-02-15T10:07:32Z</time>
      </trkpt>
      <trkpt lat="48.83525" lon="-3.31109">
        <ele>21</ele>
        <time>2015-02-15T10:07:33Z</time>
      </trkpt>
      <trkpt lat="48.83523" lon="-3.31121">
        <ele>21</ele>
        <time>2015-02-15T10:07:34Z</time>
      </trkpt>
      <trkpt lat="48.83521" lon="-3.31132">
        <ele>21</ele>
        <time>2015-02-15T10:07:35Z</time>
      </trkpt>
      <trkpt lat="48.83518" lon="-3.31143">
        <ele>21</ele>
        <time>2015-02-15T10:07:36Z</time>
      </trkpt>
      <trkpt lat="48.83515" lon="-3.31154">
        <ele>20</ele>
        <time>2015-02-15T10:07:37Z</time>
      </trkpt>
      <trkpt lat="48.83511" lon="-3.31164">
        <ele>20</ele>
        <time>2015-02-15T10:07:38Z</time>
      </trkpt>
      <trkpt lat="48.83508" lon="-3.31174">
        <ele>20</ele>
        <time>2015-02-15T10:07:39Z</time>
      </trkpt>
      <trkpt lat="48.83504" lon="-3.31184">
        <ele>20</ele>
        <time>2015-02-15T10:07:40Z</time>
      </trkpt>
      <trkpt lat="48.835" lon="-3.31192">
        <ele>20</ele>
        <time>2015-02-15T10:07:41Z</time>
      </trkpt>
      <trkpt lat="48.83495" lon="-3.31201">
        <ele>20</ele>
        <time>2015-02-15T10:07:42Z</time>
      </trkpt>
      <trkpt lat="48.83491" lon="-3.3121">
        <ele>20</ele>
        <time>2015-02-15T10:07:43Z</time>
      </trkpt>
      <trkpt lat="48.83487" lon="-3.31218">
        <ele>20</ele>
        <time>2015-02-15T10:07:44Z</time>
      </trkpt>
      <trkpt lat="48.83482" lon="-3.31226">
        <ele>20</ele>
        <time>2015-02-15T10:07:45Z</time>
      </trkpt>
      <trkpt lat="48.83477" lon="-3.31233">
        <ele>20</ele>
        <time>2015-02-15T10:07:46Z</time>
      </trkpt>
      <trkpt lat="48.83472" lon="-3.31241">
        <ele>20</ele>
        <time>2015-02-15T10:07:47Z</time>
      </trkpt>
      <trkpt lat="48.83468" lon="-3.31248">
        <ele>20</ele>
        <time>2015-02-15T10:07:48Z</time>
      </trkpt>
      <trkpt lat="48.83463" lon="-3.31254">
        <ele>20</ele>
        <time>2015-02-15T10:07:49Z</time>
      </trkpt>
      <trkpt lat="48.83459" lon="-3.31261">
        <ele>20</ele>
        <time>2015-02-15T10:07:50Z</time>
      </trkpt>
      <trkpt lat="48.83455" lon="-3.31268">
        <ele>20</ele>
        <time>2015-02-15T10:07:51Z</time>
      </trkpt>
      <trkpt lat="48.83451" lon="-3.31274">
        <ele>20</ele>
        <time>2015-02-15T10:07:52Z</time>
      </trkpt>
      <trkpt lat="48.83447" lon="-3.3128">
        <ele>20</ele>
        <time>2015-02-15T10:07:53Z</time>
      </trkpt>
      <trkpt lat="48.83443" lon="-3.31286">
        <ele>20</ele>
        <time>2015-02-15T10:07:54Z</time>
      </trkpt>
      <trkpt lat="48.83439" lon="-3.31292">
        <ele>20</ele>
        <time>2015-02-15T10:07:55Z</time>
      </trkpt>
      <trkpt lat="48.83435" lon="-3.31297">
        <ele>20</ele>
        <time>2015-02-15T10:07:56Z</time>
      </trkpt>
      <trkpt lat="48.83431" lon="-3.31303">
        <ele>20</ele>
        <time>2015-02-15T10:07:57Z</time>
      </trkpt>
      <trkpt lat="48.83427" lon="-3.31309">
        <ele>20</ele>
        <time>2015-02-15T10:07:58Z</time>
      </trkpt>
      <trkpt lat="48.83423" lon="-3.31315">
        <ele>20</ele>
        <time>2015-02-15T10:07:59Z</time>
      </trkpt>
      <trkpt lat="48.83419" lon="-3.31321">
        <ele>20</ele>
        <time>2015-02-15T10:08:00Z</time>
      </trkpt>
      <trkpt lat="48.83414" lon="-3.31327">
        <ele>20</ele>
        <time>2015-02-15T10:08:01Z</time>
      </trkpt>
      <trkpt lat="48.8341" lon="-3.31333">
        <ele>20</ele>
        <time>2015-02-15T10:08:02Z</time>
      </trkpt>
      <trkpt lat="48.83406" lon="-3.3134">
        <ele>20</ele>
        <time>2015-02-15T10:08:03Z</time>
      </trkpt>
      <trkpt lat="48.83401" lon="-3.31346">
        <ele>20</ele>
        <time>2015-02-15T10:08:04Z</time>
      </trkpt>
      <trkpt lat="48.83397" lon="-3.31353">
        <ele>20</ele>
        <time>2015-02-15T10:08:05Z</time>
      </trkpt>
      <trkpt lat="48.83392" lon="-3.3136">
        <ele>20</ele>
        <time>2015-02-15T10:08:06Z</time>
      </trkpt>
      <trkpt lat="48.83387" lon="-3.31367">
        <ele>20</ele>
        <time>2015-02-15T10:08:07Z</time>
      </trkpt>
      <trkpt lat="48.83382" lon="-3.31374">
        <ele>20</ele>
        <time>2015-02-15T10:08:08Z</time>
      </trkpt>
      <trkpt lat="48.83377" lon="-3.31382">
        <ele>20</ele>
        <time>2015-02-15T10:08:09Z</time>
      </trkpt>
      <trkpt lat="48.83371" lon="-3.3139">
        <ele>20</ele>
        <time>2015-02-15T10:08:10Z</time>
      </trkpt>
      <trkpt lat="48.83365" lon="-3.31399">
        <ele>20</ele>
        <time>2015-02-15T10:08:11Z</time>
      </trkpt>
      <trkpt lat="48.83359" lon="-3.31408">
        <ele>20</ele>
        <time>2015-02-15T10:08:12Z</time>
      </trkpt>
      <trkpt lat="48.83353" lon="-3.31417">
        <ele>20</ele>
        <time>2015-02-15T10:08:13Z</time>
      </trkpt>
      <trkpt lat="48.83347" lon="-3.31427">
        <ele>20</ele>
        <time>2015-02-15T10:08:14Z</time>
      </trkpt>
      <trkpt lat="48.8334" lon="-3.31437">
        <ele>20</ele>
        <time>2015-02-15T10:08:15Z</time>
      </trkpt>
      <trkpt lat="48.83334" lon="-3.31446">
        <ele>20</ele>
        <time>2015-02-15T10:08:16Z</time>
      </trkpt>
      <trkpt lat="48.83329" lon="-3.31455">
        <ele>20</ele>
        <time>2015-02-15T10:08:17Z</time>
      </trkpt>
      <trkpt lat="48.83323" lon="-3.31464">
        <ele>20</ele>
        <time>2015-02-15T10:08:18Z</time>
      </trkpt>
      <trkpt lat="48.83317" lon="-3.31473">
        <ele>20</ele>
        <time>2015-02-15T10:08:19Z</time>
      </trkpt>
      <trkpt lat="48.83311" lon="-3.31481">
        <ele>20</ele>
        <time>2015-02-15T10:08:20Z</time>
      </trkpt>
      <trkpt lat="48.83306" lon="-3.31489">
        <ele>20</ele>
        <time>2015-02-15T10:08:21Z</time>
      </trkpt>
      <trkpt lat="48.83301" lon="-3.31497">
        <ele>20</ele>
        <time>2015-02-15T10:08:22Z</time>
      </trkpt>
      <trkpt lat="48.83297" lon="-3.31505">
        <ele>20</ele>
        <time>2015-02-15T10:08:23Z</time>
      </trkpt>
      <trkpt lat="48.83292" lon="-3.31512">
        <ele>20</ele>
        <time>2015-02-15T10:08:24Z</time>
      </trkpt>
      <trkpt lat="48.83288" lon="-3.3152">
        <ele>20</ele>
        <time>2015-02-15T10:08:25Z</time>
      </trkpt>
      <trkpt lat="48.83284" lon="-3.31527">
        <ele>20</ele>
        <time>2015-02-15T10:08:26Z</time>
      </trkpt>
      <trkpt lat="48.83279" lon="-3.31534">
        <ele>20</ele>
        <time>2015-02-15T10:08:27Z</time>
      </trkpt>
      <trkpt lat="48.83275" lon="-3.3154">
        <ele>20</ele>
        <time>2015-02-15T10:08:28Z</time>
      </trkpt>
      <trkpt lat="48.83271" lon="-3.31547">
        <ele>20</ele>
        <time>2015-02-15T10:08:29Z</time>
      </trkpt>
      <trkpt lat="48.83266" lon="-3.31555">
        <ele>20</ele>
        <time>2015-02-15T10:08:30Z</time>
      </trkpt>
      <trkpt lat="48.83262" lon="-3.31562">
        <ele>20</ele>
        <time>2015-02-15T10:08:31Z</time>
      </trkpt>
      <trkpt lat="48.83258" lon="-3.31569">
        <ele>20</ele>
        <time>2015-02-15T10:08:32Z</time>
      </trkpt>
      <trkpt lat="48.83253" lon="-3.31576">
        <ele>20</ele>
        <time>2015-02-15T10:08:33Z</time>
      </trkpt>
      <trkpt lat="48.83248" lon="-3.31583">
        <ele>20</ele>
        <time>2015-02-15T10:08:34Z</time>
      </trkpt>
      <trkpt lat="48.83244" lon="-3.3159">
        <ele>20</ele>
        <time>2015-02-15T10:08:35Z</time>
      </trkpt>
      <trkpt lat="48.83239" lon="-3.31598">
        <ele>20</ele>
        <time>2015-02-15T10:08:36Z</time>
      </trkpt>
      <trkpt lat="48.83234" lon="-3.31606">
        <ele>20</ele>
        <time>2015-02-15T10:08:37Z</time>
      </trkpt>
      <trkpt lat="48.83229" lon="-3.31614">
        <ele>20</ele>
        <time>2015-02-15T10:08:38Z</time>
      </trkpt>
      <trkpt lat="48.83223" lon="-3.31622">
        <ele>20</ele>
        <time>2015-02-15T10:08:39Z</time>
      </trkpt>
      <trkpt lat="48.83218" lon="-3.31631">
        <ele>20</ele>
        <time>2015-02-15T10:08:40Z</time>
      </trkpt>
      <trkpt lat="48.83212" lon="-3.3164">
        <ele>20</ele>
        <time>2015-02-15T10:08:41Z</time>
      </trkpt>
      <trkpt lat="48.83206" lon="-3.31649">
        <ele>20</ele>
        <time>2015-02-15T10:08:42Z</time>
      </trkpt>
      <trkpt lat="48.832" lon="-3.31659">
        <ele>20</ele>
        <time>2015-02-15T10:08:43Z</time>
      </trkpt>
      <trkpt lat="48.83194" lon="-3.31668">
        <ele>20</ele>
        <time>2015-02-15T10:08:44Z</time>
      </trkpt>
      <trkpt lat="48.83188" lon="-3.31679">
        <ele>20</ele>
        <time>2015-02-15T10:08:45Z</time>
      </trkpt>
      <trkpt lat="48.83182" lon="-3.31689">
        <ele>19</ele>
        <time>2015-02-15T10:08:46Z</time>
      </trkpt>
      <trkpt lat="48.83175" lon="-3.31699">
        <ele>18</ele>
        <time>2015-02-15T10:08:47Z</time>
      </trkpt>
      <trkpt lat="48.83169" lon="-3.3171">
        <ele>18</ele>
        <time>2015-02-15T10:08:48Z</time>
      </trkpt>
      <trkpt lat="48.83163" lon="-3.3172">
        <ele>18</ele>
        <time>2015-02-15T10:08:49Z</time>
      </trkpt>
      <trkpt lat="48.83156" lon="-3.3173">
        <ele>17</ele>
        <time>2015-02-15T10:08:50Z</time>
      </trkpt>
      <trkpt lat="48.8315" lon="-3.3174">
        <ele>17</ele>
        <time>2015-02-15T10:08:51Z</time>
      </trkpt>
      <trkpt lat="48.83144" lon="-3.3175">
        <ele>16</ele>
        <time>2015-02-15T10:08:52Z</time>
      </trkpt>
      <trkpt lat="48.83138" lon="-3.31761">
        <ele>16</ele>
        <time>2015-02-15T10:08:53Z</time>
      </trkpt>
      <trkpt lat="48.83132" lon="-3.3177">
        <ele>16</ele>
        <time>2015-02-15T10:08:54Z</time>
      </trkpt>
      <trkpt lat="48.83126" lon="-3.3178">
        <ele>15</ele>
        <time>2015-02-15T10:08:55Z</time>
      </trkpt>
      <trkpt lat="48.8312" lon="-3.3179">
        <ele>15</ele>
        <time>2015-02-15T10:08:56Z</time>
      </trkpt>
      <trkpt lat="48.83113" lon="-3.318">
        <ele>15</ele>
        <time>2015-02-15T10:08:57Z</time>
      </trkpt>
      <trkpt lat="48.83107" lon="-3.3181">
        <ele>14</ele>
        <time>2015-02-15T10:08:58Z</time>
      </trkpt>
      <trkpt lat="48.83101" lon="-3.3182">
        <ele>14</ele>
        <time>2015-02-15T10:08:59Z</time>
      </trkpt>
      <trkpt lat="48.83094" lon="-3.3183">
        <ele>13</ele>
        <time>2015-02-15T10:09:00Z</time>
      </trkpt>
      <trkpt lat="48.83088" lon="-3.3184">
        <ele>13</ele>
        <time>2015-02-15T10:09:01Z</time>
      </trkpt>
      <trkpt lat="48.83082" lon="-3.3185">
        <ele>13</ele>
        <time>2015-02-15T10:09:02Z</time>
      </trkpt>
      <trkpt lat="48.83075" lon="-3.31861">
        <ele>12</ele>
        <time>2015-02-15T10:09:03Z</time>
      </trkpt>
      <trkpt lat="48.83069" lon="-3.31871">
        <ele>12</ele>
        <time>2015-02-15T10:09:04Z</time>
      </trkpt>
      <trkpt lat="48.83062" lon="-3.31881">
        <ele>12</ele>
        <time>2015-02-15T10:09:05Z</time>
      </trkpt>
      <trkpt lat="48.83056" lon="-3.31891">
        <ele>12</ele>
        <time>2015-02-15T10:09:06Z</time>
      </trkpt>
      <trkpt lat="48.8305" lon="-3.31901">
        <ele>12</ele>
        <time>2015-02-15T10:09:07Z</time>
      </trkpt>
      <trkpt lat="48.83044" lon="-3.3191">
        <ele>12</ele>
        <time>2015-02-15T10:09:08Z</time>
      </trkpt>
      <trkpt lat="48.83039" lon="-3.31919">
        <ele>12</ele>
        <time>2015-02-15T10:09:09Z</time>
      </trkpt>
      <trkpt lat="48.83033" lon="-3.31928">
        <ele>12</ele>
        <time>2015-02-15T10:09:10Z</time>
      </trkpt>
      <trkpt lat="48.83028" lon="-3.31937">
        <ele>12</ele>
        <time>2015-02-15T10:09:11Z</time>
      </trkpt>
      <trkpt lat="48.83023" lon="-3.31945">
        <ele>12</ele>
        <time>2015-02-15T10:09:12Z</time>
      </trkpt>
      <trkpt lat="48.83018" lon="-3.31954">
        <ele>12</ele>
        <time>2015-02-15T10:09:13Z</time>
      </trkpt>
      <trkpt lat="48.83014" lon="-3.31961">
        <ele>12</ele>
        <time>2015-02-15T10:09:14Z</time>
      </trkpt>
      <trkpt lat="48.83009" lon="-3.31969">
        <ele>12</ele>
        <time>2015-02-15T10:09:15Z</time>
      </trkpt>
      <trkpt lat="48.83004" lon="-3.31976">
        <ele>12</ele>
        <time>2015-02-15T10:09:16Z</time>
      </trkpt>
      <trkpt lat="48.83" lon="-3.31983">
        <ele>12</ele>
        <time>2015-02-15T10:09:17Z</time>
      </trkpt>
      <trkpt lat="48.82996" lon="-3.3199">
        <ele>12</ele>
        <time>2015-02-15T10:09:18Z</time>
      </trkpt>
      <trkpt lat="48.82991" lon="-3.31997">
        <ele>12</ele>
        <time>2015-02-15T10:09:19Z</time>
      </trkpt>
      <trkpt lat="48.82987" lon="-3.32004">
        <ele>12</ele>
        <time>2015-02-15T10:09:20Z</time>
      </trkpt>
      <trkpt lat="48.82983" lon="-3.32011">
        <ele>12</ele>
        <time>2015-02-15T10:09:21Z</time>
      </trkpt>
      <trkpt lat="48.82979" lon="-3.32018">
        <ele>12</ele>
        <time>2015-02-15T10:09:22Z</time>
      </trkpt>
      <trkpt lat="48.82975" lon="-3.32025">
        <ele>12</ele>
        <time>2015-02-15T10:09:23Z</time>
      </trkpt>
      <trkpt lat="48.82971" lon="-3.32031">
        <ele>12</ele>
        <time>2015-02-15T10:09:24Z</time>
      </trkpt>
      <trkpt lat="48.82967" lon="-3.32038">
        <ele>12</ele>
        <time>2015-02-15T10:09:25Z</time>
      </trkpt>
      <trkpt lat="48.82963" lon="-3.32045">
        <ele>12</ele>
        <time>2015-02-15T10:09:26Z</time>
      </trkpt>
      <trkpt lat="48.82958" lon="-3.32051">
        <ele>12</ele>
        <time>2015-02-15T10:09:27Z</time>
      </trkpt>
      <trkpt lat="48.82954" lon="-3.32058">
        <ele>12</ele>
        <time>2015-02-15T10:09:28Z</time>
      </trkpt>
      <trkpt lat="48.8295" lon="-3.32064">
        <ele>12</ele>
        <time>2015-02-15T10:09:29Z</time>
      </trkpt>
      <trkpt lat="48.82946" lon="-3.32071">
        <ele>12</ele>
        <time>2015-02-15T10:09:30Z</time>
      </trkpt>
      <trkpt lat="48.82942" lon="-3.32077">
        <ele>12</ele>
        <time>2015-02-15T10:09:31Z</time>
      </trkpt>
      <trkpt lat="48.82939" lon="-3.32083">
        <ele>12</ele>
        <time>2015-02-15T10:09:32Z</time>
      </trkpt>
      <trkpt lat="48.82935" lon="-3.32089">
        <ele>12</ele>
        <time>2015-02-15T10:09:33Z</time>
      </trkpt>
      <trkpt lat="48.82931" lon="-3.32095">
        <ele>12</ele>
        <time>2015-02-15T10:09:34Z</time>
      </trkpt>
      <trkpt lat="48.82927" lon="-3.32101">
        <ele>13</ele>
        <time>2015-02-15T10:09:35Z</time>
      </trkpt>
      <trkpt lat="48.82924" lon="-3.32107">
        <ele>13</ele>
        <time>2015-02-15T10:09:36Z</time>
      </trkpt>
      <trkpt lat="48.8292" lon="-3.32113">
        <ele>14</ele>
        <time>2015-02-15T10:09:37Z</time>
      </trkpt>
      <trkpt lat="48.82916" lon="-3.32119">
        <ele>14</ele>
        <time>2015-02-15T10:09:38Z</time>
      </trkpt>
      <trkpt lat="48.82913" lon="-3.32124">
        <ele>14</ele>
        <time>2015-02-15T10:09:39Z</time>
      </trkpt>
      <trkpt lat="48.82909" lon="-3.3213">
        <ele>15</ele>
        <time>2015-02-15T10:09:40Z</time>
      </trkpt>
      <trkpt lat="48.82906" lon="-3.32136">
        <ele>15</ele>
        <time>2015-02-15T10:09:41Z</time>
      </trkpt>
      <trkpt lat="48.82902" lon="-3.32142">
        <ele>15</ele>
        <time>2015-02-15T10:09:42Z</time>
      </trkpt>
      <trkpt lat="48.82898" lon="-3.32148">
        <ele>16</ele>
        <time>2015-02-15T10:09:43Z</time>
      </trkpt>
      <trkpt lat="48.82895" lon="-3.32153">
        <ele>16</ele>
        <time>2015-02-15T10:09:44Z</time>
      </trkpt>
      <trkpt lat="48.82891" lon="-3.32159">
        <ele>16</ele>
        <time>2015-02-15T10:09:45Z</time>
      </trkpt>
      <trkpt lat="48.82888" lon="-3.32165">
        <ele>17</ele>
        <time>2015-02-15T10:09:46Z</time>
      </trkpt>
      <trkpt lat="48.82884" lon="-3.3217">
        <ele>17</ele>
        <time>2015-02-15T10:09:47Z</time>
      </trkpt>
      <trkpt lat="48.8288" lon="-3.32176">
        <ele>17</ele>
        <time>2015-02-15T10:09:48Z</time>
      </trkpt>
      <trkpt lat="48.82877" lon="-3.32182">
        <ele>17</ele>
        <time>2015-02-15T10:09:49Z</time>
      </trkpt>
      <trkpt lat="48.82874" lon="-3.32188">
        <ele>18</ele>
        <time>2015-02-15T10:09:50Z</time>
      </trkpt>
      <trkpt lat="48.8287" lon="-3.32193">
        <ele>18</ele>
        <time>2015-02-15T10:09:51Z</time>
      </trkpt>
      <trkpt lat="48.82866" lon="-3.322">
        <ele>18</ele>
        <time>2015-02-15T10:09:52Z</time>
      </trkpt>
      <trkpt lat="48.82862" lon="-3.32206">
        <ele>18</ele>
        <time>2015-02-15T10:09:53Z</time>
      </trkpt>
      <trkpt lat="48.82859" lon="-3.32212">
        <ele>19</ele>
        <time>2015-02-15T10:09:54Z</time>
      </trkpt>
      <trkpt lat="48.82855" lon="-3.32218">
        <ele>19</ele>
        <time>2015-02-15T10:09:55Z</time>
      </trkpt>
      <trkpt lat="48.82851" lon="-3.32224">
        <ele>19</ele>
        <time>2015-02-15T10:09:56Z</time>
      </trkpt>
      <trkpt lat="48.82847" lon="-3.3223">
        <ele>19</ele>
        <time>2015-02-15T10:09:57Z</time>
      </trkpt>
      <trkpt lat="48.82843" lon="-3.32236">
        <ele>19</ele>
        <time>2015-02-15T10:09:58Z</time>
      </trkpt>
      <trkpt lat="48.82839" lon="-3.32242">
        <ele>19</ele>
        <time>2015-02-15T10:09:59Z</time>
      </trkpt>
      <trkpt lat="48.82835" lon="-3.32249">
        <ele>19</ele>
        <time>2015-02-15T10:10:00Z</time>
      </trkpt>
      <trkpt lat="48.8283" lon="-3.32255">
        <ele>19</ele>
        <time>2015-02-15T10:10:01Z</time>
      </trkpt>
      <trkpt lat="48.82826" lon="-3.3226">
        <ele>19</ele>
        <time>2015-02-15T10:10:02Z</time>
      </trkpt>
      <trkpt lat="48.82821" lon="-3.32267">
        <ele>19</ele>
        <time>2015-02-15T10:10:03Z</time>
      </trkpt>
      <trkpt lat="48.82816" lon="-3.32273">
        <ele>19</ele>
        <time>2015-02-15T10:10:04Z</time>
      </trkpt>
      <trkpt lat="48.82811" lon="-3.32279">
        <ele>19</ele>
        <time>2015-02-15T10:10:05Z</time>
      </trkpt>
      <trkpt lat="48.82806" lon="-3.32286">
        <ele>19</ele>
        <time>2015-02-15T10:10:06Z</time>
      </trkpt>
      <trkpt lat="48.82801" lon="-3.32292">
        <ele>19</ele>
        <time>2015-02-15T10:10:07Z</time>
      </trkpt>
      <trkpt lat="48.82795" lon="-3.32298">
        <ele>19</ele>
        <time>2015-02-15T10:10:08Z</time>
      </trkpt>
      <trkpt lat="48.8279" lon="-3.32305">
        <ele>19</ele>
        <time>2015-02-15T10:10:09Z</time>
      </trkpt>
      <trkpt lat="48.82784" lon="-3.32311">
        <ele>19</ele>
        <time>2015-02-15T10:10:10Z</time>
      </trkpt>
      <trkpt lat="48.82777" lon="-3.32318">
        <ele>19</ele>
        <time>2015-02-15T10:10:11Z</time>
      </trkpt>
      <trkpt lat="48.82771" lon="-3.32324">
        <ele>19</ele>
        <time>2015-02-15T10:10:12Z</time>
      </trkpt>
      <trkpt lat="48.82764" lon="-3.32331">
        <ele>19</ele>
        <time>2015-02-15T10:10:13Z</time>
      </trkpt>
      <trkpt lat="48.82757" lon="-3.32337">
        <ele>19</ele>
        <time>2015-02-15T10:10:14Z</time>
      </trkpt>
      <trkpt lat="48.82749" lon="-3.32344">
        <ele>19</ele>
        <time>2015-02-15T10:10:15Z</time>
      </trkpt>
      <trkpt lat="48.82742" lon="-3.3235">
        <ele>19</ele>
        <time>2015-02-15T10:10:16Z</time>
      </trkpt>
      <trkpt lat="48.82733" lon="-3.32357">
        <ele>19</ele>
        <time>2015-02-15T10:10:17Z</time>
      </trkpt>
      <trkpt lat="48.82725" lon="-3.32363">
        <ele>19</ele>
        <time>2015-02-15T10:10:18Z</time>
      </trkpt>
      <trkpt lat="48.82717" lon="-3.32369">
        <ele>19</ele>
        <time>2015-02-15T10:10:19Z</time>
      </trkpt>
      <trkpt lat="48.82708" lon="-3.32375">
        <ele>19</ele>
        <time>2015-02-15T10:10:20Z</time>
      </trkpt>
      <trkpt lat="48.82701" lon="-3.3238">
        <ele>19</ele>
        <time>2015-02-15T10:10:21Z</time>
      </trkpt>
      <trkpt lat="48.82693" lon="-3.32386">
        <ele>19</ele>
        <time>2015-02-15T10:10:22Z</time>
      </trkpt>
      <trkpt lat="48.82686" lon="-3.32391">
        <ele>19</ele>
        <time>2015-02-15T10:10:23Z</time>
      </trkpt>
      <trkpt lat="48.82679" lon="-3.32396">
        <ele>19</ele>
        <time>2015-02-15T10:10:24Z</time>
      </trkpt>
      <trkpt lat="48.82672" lon="-3.324">
        <ele>19</ele>
        <time>2015-02-15T10:10:25Z</time>
      </trkpt>
      <trkpt lat="48.82666" lon="-3.32405">
        <ele>19</ele>
        <time>2015-02-15T10:10:26Z</time>
      </trkpt>
      <trkpt lat="48.8266" lon="-3.3241">
        <ele>19</ele>
        <time>2015-02-15T10:10:27Z</time>
      </trkpt>
      <trkpt lat="48.82654" lon="-3.32414">
        <ele>19</ele>
        <time>2015-02-15T10:10:28Z</time>
      </trkpt>
      <trkpt lat="48.82648" lon="-3.32418">
        <ele>19</ele>
        <time>2015-02-15T10:10:29Z</time>
      </trkpt>
      <trkpt lat="48.82643" lon="-3.32422">
        <ele>19</ele>
        <time>2015-02-15T10:10:30Z</time>
      </trkpt>
      <trkpt lat="48.82638" lon="-3.32427">
        <ele>19</ele>
        <time>2015-02-15T10:10:31Z</time>
      </trkpt>
      <trkpt lat="48.82633" lon="-3.32431">
        <ele>19</ele>
        <time>2015-02-15T10:10:32Z</time>
      </trkpt>
      <trkpt lat="48.82628" lon="-3.32435">
        <ele>19</ele>
        <time>2015-02-15T10:10:33Z</time>
      </trkpt>
      <trkpt lat="48.82624" lon="-3.32438">
        <ele>19</ele>
        <time>2015-02-15T10:10:34Z</time>
      </trkpt>
      <trkpt lat="48.82619" lon="-3.32443">
        <ele>19</ele>
        <time>2015-02-15T10:10:35Z</time>
      </trkpt>
      <trkpt lat="48.82615" lon="-3.32447">
        <ele>19</ele>
        <time>2015-02-15T10:10:36Z</time>
      </trkpt>
      <trkpt lat="48.82611" lon="-3.32451">
        <ele>19</ele>
        <time>2015-02-15T10:10:37Z</time>
      </trkpt>
      <trkpt lat="48.82607" lon="-3.32455">
        <ele>20</ele>
        <time>2015-02-15T10:10:38Z</time>
      </trkpt>
      <trkpt lat="48.82602" lon="-3.32459">
        <ele>20</ele>
        <time>2015-02-15T10:10:39Z</time>
      </trkpt>
      <trkpt lat="48.82599" lon="-3.32464">
        <ele>20</ele>
        <time>2015-02-15T10:10:40Z</time>
      </trkpt>
      <trkpt lat="48.82595" lon="-3.32468">
        <ele>21</ele>
        <time>2015-02-15T10:10:41Z</time>
      </trkpt>
      <trkpt lat="48.8259" lon="-3.32472">
        <ele>21</ele>
        <time>2015-02-15T10:10:42Z</time>
      </trkpt>
      <trkpt lat="48.82587" lon="-3.32477">
        <ele>22</ele>
        <time>2015-02-15T10:10:43Z</time>
      </trkpt>
      <trkpt lat="48.82582" lon="-3.32482">
        <ele>22</ele>
        <time>2015-02-15T10:10:44Z</time>
      </trkpt>
      <trkpt lat="48.82578" lon="-3.32487">
        <ele>22</ele>
        <time>2015-02-15T10:10:45Z</time>
      </trkpt>
      <trkpt lat="48.82574" lon="-3.32492">
        <ele>23</ele>
        <time>2015-02-15T10:10:46Z</time>
      </trkpt>
      <trkpt lat="48.8257" lon="-3.32497">
        <ele>23</ele>
        <time>2015-02-15T10:10:47Z</time>
      </trkpt>
      <trkpt lat="48.82566" lon="-3.32502">
        <ele>24</ele>
        <time>2015-02-15T10:10:48Z</time>
      </trkpt>
      <trkpt lat="48.82563" lon="-3.32507">
        <ele>24</ele>
        <time>2015-02-15T10:10:49Z</time>
      </trkpt>
      <trkpt lat="48.82559" lon="-3.32512">
        <ele>24</ele>
        <time>2015-02-15T10:10:50Z</time>
      </trkpt>
      <trkpt lat="48.82555" lon="-3.32517">
        <ele>25</ele>
        <time>2015-02-15T10:10:51Z</time>
      </trkpt>
      <trkpt lat="48.82551" lon="-3.32522">
        <ele>25</ele>
        <time>2015-02-15T10:10:52Z</time>
      </trkpt>
      <trkpt lat="48.82547" lon="-3.32527">
        <ele>25</ele>
        <time>2015-02-15T10:10:53Z</time>
      </trkpt>
      <trkpt lat="48.82544" lon="-3.32533">
        <ele>26</ele>
        <time>2015-02-15T10:10:54Z</time>
      </trkpt>
      <trkpt lat="48.82541" lon="-3.32538">
        <ele>26</ele>
        <time>2015-02-15T10:10:55Z</time>
      </trkpt>
      <trkpt lat="48.82537" lon="-3.32544">
        <ele>26</ele>
        <time>2015-02-15T10:10:56Z</time>
      </trkpt>
      <trkpt lat="48.82534" lon="-3.32549">
        <ele>27</ele>
        <time>2015-02-15T10:10:57Z</time>
      </trkpt>
      <trkpt lat="48.82531" lon="-3.32554">
        <ele>27</ele>
        <time>2015-02-15T10:10:58Z</time>
      </trkpt>
      <trkpt lat="48.82527" lon="-3.3256">
        <ele>27</ele>
        <time>2015-02-15T10:10:59Z</time>
      </trkpt>
      <trkpt lat="48.82524" lon="-3.32565">
        <ele>27</ele>
        <time>2015-02-15T10:11:00Z</time>
      </trkpt>
      <trkpt lat="48.8252" lon="-3.32571">
        <ele>28</ele>
        <time>2015-02-15T10:11:01Z</time>
      </trkpt>
      <trkpt lat="48.82517" lon="-3.32577">
        <ele>28</ele>
        <time>2015-02-15T10:11:02Z</time>
      </trkpt>
      <trkpt lat="48.82513" lon="-3.32583">
        <ele>28</ele>
        <time>2015-02-15T10:11:03Z</time>
      </trkpt>
      <trkpt lat="48.8251" lon="-3.32589">
        <ele>28</ele>
        <time>2015-02-15T10:11:04Z</time>
      </trkpt>
      <trkpt lat="48.82507" lon="-3.32595">
        <ele>29</ele>
        <time>2015-02-15T10:11:05Z</time>
      </trkpt>
      <trkpt lat="48.82503" lon="-3.32601">
        <ele>29</ele>
        <time>2015-02-15T10:11:06Z</time>
      </trkpt>
      <trkpt lat="48.825" lon="-3.32607">
        <ele>29</ele>
        <time>2015-02-15T10:11:07Z</time>
      </trkpt>
      <trkpt lat="48.82497" lon="-3.32614">
        <ele>29</ele>
        <time>2015-02-15T10:11:08Z</time>
      </trkpt>
      <trkpt lat="48.82494" lon="-3.3262">
        <ele>29</ele>
        <time>2015-02-15T10:11:09Z</time>
      </trkpt>
      <trkpt lat="48.82491" lon="-3.32626">
        <ele>30</ele>
        <time>2015-02-15T10:11:10Z</time>
      </trkpt>
      <trkpt lat="48.82488" lon="-3.32633">
        <ele>30</ele>
        <time>2015-02-15T10:11:11Z</time>
      </trkpt>
      <trkpt lat="48.82485" lon="-3.32639">
        <ele>30</ele>
        <time>2015-02-15T10:11:12Z</time>
      </trkpt>
      <trkpt lat="48.82482" lon="-3.32646">
        <ele>30</ele>
        <time>2015-02-15T10:11:13Z</time>
      </trkpt>
      <trkpt lat="48.82479" lon="-3.32653">
        <ele>30</ele>
        <time>2015-02-15T10:11:14Z</time>
      </trkpt>
      <trkpt lat="48.82476" lon="-3.3266">
        <ele>30</ele>
        <time>2015-02-15T10:11:15Z</time>
      </trkpt>
      <trkpt lat="48.82473" lon="-3.32667">
        <ele>30</ele>
        <time>2015-02-15T10:11:16Z</time>
      </trkpt>
      <trkpt lat="48.82471" lon="-3.32675">
        <ele>30</ele>
        <time>2015-02-15T10:11:17Z</time>
      </trkpt>
      <trkpt lat="48.82468" lon="-3.32682">
        <ele>30</ele>
        <time>2015-02-15T10:11:18Z</time>
      </trkpt>
      <trkpt lat="48.82465" lon="-3.3269">
        <ele>30</ele>
        <time>2015-02-15T10:11:19Z</time>
      </trkpt>
      <trkpt lat="48.82462" lon="-3.32697">
        <ele>30</ele>
        <time>2015-02-15T10:11:20Z</time>
      </trkpt>
      <trkpt lat="48.8246" lon="-3.32705">
        <ele>31</ele>
        <time>2015-02-15T10:11:21Z</time>
      </trkpt>
      <trkpt lat="48.82457" lon="-3.32713">
        <ele>31</ele>
        <time>2015-02-15T10:11:22Z</time>
      </trkpt>
      <trkpt lat="48.82454" lon="-3.32721">
        <ele>31</ele>
        <time>2015-02-15T10:11:23Z</time>
      </trkpt>
      <trkpt lat="48.82452" lon="-3.32729">
        <ele>31</ele>
        <time>2015-02-15T10:11:24Z</time>
      </trkpt>
      <trkpt lat="48.82449" lon="-3.32736">
        <ele>31</ele>
        <time>2015-02-15T10:11:25Z</time>
      </trkpt>
      <trkpt lat="48.82446" lon="-3.32744">
        <ele>31</ele>
        <time>2015-02-15T10:11:26Z</time>
      </trkpt>
      <trkpt lat="48.82444" lon="-3.32752">
        <ele>31</ele>
        <time>2015-02-15T10:11:27Z</time>
      </trkpt>
      <trkpt lat="48.82441" lon="-3.3276">
        <ele>31</ele>
        <time>2015-02-15T10:11:28Z</time>
      </trkpt>
      <trkpt lat="48.82438" lon="-3.32768">
        <ele>31</ele>
        <time>2015-02-15T10:11:29Z</time>
      </trkpt>
      <trkpt lat="48.82436" lon="-3.32776">
        <ele>31</ele>
        <time>2015-02-15T10:11:30Z</time>
      </trkpt>
      <trkpt lat="48.82433" lon="-3.32784">
        <ele>31</ele>
        <time>2015-02-15T10:11:31Z</time>
      </trkpt>
      <trkpt lat="48.82431" lon="-3.32793">
        <ele>32</ele>
        <time>2015-02-15T10:11:32Z</time>
      </trkpt>
      <trkpt lat="48.82428" lon="-3.32801">
        <ele>32</ele>
        <time>2015-02-15T10:11:33Z</time>
      </trkpt>
      <trkpt lat="48.82425" lon="-3.32809">
        <ele>32</ele>
        <time>2015-02-15T10:11:34Z</time>
      </trkpt>
      <trkpt lat="48.82423" lon="-3.32818">
        <ele>32</ele>
        <time>2015-02-15T10:11:35Z</time>
      </trkpt>
      <trkpt lat="48.8242" lon="-3.32826">
        <ele>32</ele>
        <time>2015-02-15T10:11:36Z</time>
      </trkpt>
      <trkpt lat="48.82417" lon="-3.32835">
        <ele>32</ele>
        <time>2015-02-15T10:11:37Z</time>
      </trkpt>
      <trkpt lat="48.82414" lon="-3.32843">
        <ele>32</ele>
        <time>2015-02-15T10:11:38Z</time>
      </trkpt>
      <trkpt lat="48.82411" lon="-3.32852">
        <ele>32</ele>
        <time>2015-02-15T10:11:39Z</time>
      </trkpt>
      <trkpt lat="48.82409" lon="-3.32861">
        <ele>32</ele>
        <time>2015-02-15T10:11:40Z</time>
      </trkpt>
      <trkpt lat="48.82405" lon="-3.3287">
        <ele>32</ele>
        <time>2015-02-15T10:11:41Z</time>
      </trkpt>
      <trkpt lat="48.82402" lon="-3.32879">
        <ele>32</ele>
        <time>2015-02-15T10:11:42Z</time>
      </trkpt>
      <trkpt lat="48.82399" lon="-3.32888">
        <ele>32</ele>
        <time>2015-02-15T10:11:43Z</time>
      </trkpt>
      <trkpt lat="48.82397" lon="-3.32897">
        <ele>32</ele>
        <time>2015-02-15T10:11:44Z</time>
      </trkpt>
      <trkpt lat="48.82394" lon="-3.32907">
        <ele>32</ele>
        <time>2015-02-15T10:11:45Z</time>
      </trkpt>
      <trkpt lat="48.82391" lon="-3.32916">
        <ele>32</ele>
        <time>2015-02-15T10:11:46Z</time>
      </trkpt>
      <trkpt lat="48.82388" lon="-3.32925">
        <ele>32</ele>
        <time>2015-02-15T10:11:47Z</time>
      </trkpt>
      <trkpt lat="48.82385" lon="-3.32935">
        <ele>32</ele>
        <time>2015-02-15T10:11:48Z</time>
      </trkpt>
      <trkpt lat="48.82382" lon="-3.32944">
        <ele>32</ele>
        <time>2015-02-15T10:11:49Z</time>
      </trkpt>
      <trkpt lat="48.82379" lon="-3.32954">
        <ele>32</ele>
        <time>2015-02-15T10:11:50Z</time>
      </trkpt>
      <trkpt lat="48.82376" lon="-3.32963">
        <ele>32</ele>
        <time>2015-02-15T10:11:51Z</time>
      </trkpt>
      <trkpt lat="48.82373" lon="-3.32973">
        <ele>32</ele>
        <time>2015-02-15T10:11:52Z</time>
      </trkpt>
      <trkpt lat="48.8237" lon="-3.32983">
        <ele>32</ele>
        <time>2015-02-15T10:11:53Z</time>
      </trkpt>
      <trkpt lat="48.82366" lon="-3.32993">
        <ele>32</ele>
        <time>2015-02-15T10:11:54Z</time>
      </trkpt>
      <trkpt lat="48.82363" lon="-3.33003">
        <ele>32</ele>
        <time>2015-02-15T10:11:55Z</time>
      </trkpt>
      <trkpt lat="48.8236" lon="-3.33013">
        <ele>32</ele>
        <time>2015-02-15T10:11:56Z</time>
      </trkpt>
      <trkpt lat="48.82357" lon="-3.33022">
        <ele>32</ele>
        <time>2015-02-15T10:11:57Z</time>
      </trkpt>
      <trkpt lat="48.82354" lon="-3.33032">
        <ele>32</ele>
        <time>2015-02-15T10:11:58Z</time>
      </trkpt>
      <trkpt lat="48.82351" lon="-3.33041">
        <ele>32</ele>
        <time>2015-02-15T10:11:59Z</time>
      </trkpt>
      <trkpt lat="48.82348" lon="-3.3305">
        <ele>32</ele>
        <time>2015-02-15T10:12:00Z</time>
      </trkpt>
      <trkpt lat="48.82345" lon="-3.3306">
        <ele>32</ele>
        <time>2015-02-15T10:12:01Z</time>
      </trkpt>
      <trkpt lat="48.82342" lon="-3.33069">
        <ele>32</ele>
        <time>2015-02-15T10:12:02Z</time>
      </trkpt>
      <trkpt lat="48.82339" lon="-3.33078">
        <ele>32</ele>
        <time>2015-02-15T10:12:03Z</time>
      </trkpt>
      <trkpt lat="48.82337" lon="-3.33086">
        <ele>32</ele>
        <time>2015-02-15T10:12:04Z</time>
      </trkpt>
      <trkpt lat="48.82334" lon="-3.33095">
        <ele>33</ele>
        <time>2015-02-15T10:12:05Z</time>
      </trkpt>
      <trkpt lat="48.82331" lon="-3.33103">
        <ele>33</ele>
        <time>2015-02-15T10:12:06Z</time>
      </trkpt>
      <trkpt lat="48.82328" lon="-3.33111">
        <ele>34</ele>
        <time>2015-02-15T10:12:07Z</time>
      </trkpt>
      <trkpt lat="48.82326" lon="-3.33119">
        <ele>34</ele>
        <time>2015-02-15T10:12:08Z</time>
      </trkpt>
      <trkpt lat="48.82323" lon="-3.33128">
        <ele>35</ele>
        <time>2015-02-15T10:12:09Z</time>
      </trkpt>
      <trkpt lat="48.8232" lon="-3.33136">
        <ele>35</ele>
        <time>2015-02-15T10:12:10Z</time>
      </trkpt>
      <trkpt lat="48.82318" lon="-3.33145">
        <ele>35</ele>
        <time>2015-02-15T10:12:11Z</time>
      </trkpt>
      <trkpt lat="48.82315" lon="-3.33153">
        <ele>36</ele>
        <time>2015-02-15T10:12:12Z</time>
      </trkpt>
      <trkpt lat="48.82312" lon="-3.33162">
        <ele>36</ele>
        <time>2015-02-15T10:12:13Z</time>
      </trkpt>
      <trkpt lat="48.82309" lon="-3.33171">
        <ele>37</ele>
        <time>2015-02-15T10:12:14Z</time>
      </trkpt>
      <trkpt lat="48.82306" lon="-3.3318">
        <ele>37</ele>
        <time>2015-02-15T10:12:15Z</time>
      </trkpt>
      <trkpt lat="48.82303" lon="-3.33189">
        <ele>37</ele>
        <time>2015-02-15T10:12:16Z</time>
      </trkpt>
      <trkpt lat="48.82301" lon="-3.33198">
        <ele>38</ele>
        <time>2015-02-15T10:12:17Z</time>
      </trkpt>
      <trkpt lat="48.82298" lon="-3.33207">
        <ele>38</ele>
        <time>2015-02-15T10:12:18Z</time>
      </trkpt>
      <trkpt lat="48.82295" lon="-3.33216">
        <ele>38</ele>
        <time>2015-02-15T10:12:19Z</time>
      </trkpt>
      <trkpt lat="48.82292" lon="-3.33225">
        <ele>38</ele>
        <time>2015-02-15T10:12:20Z</time>
      </trkpt>
      <trkpt lat="48.82289" lon="-3.33234">
        <ele>39</ele>
        <time>2015-02-15T10:12:21Z</time>
      </trkpt>
      <trkpt lat="48.82286" lon="-3.33243">
        <ele>39</ele>
        <time>2015-02-15T10:12:22Z</time>
      </trkpt>
      <trkpt lat="48.82283" lon="-3.33253">
        <ele>39</ele>
        <time>2015-02-15T10:12:23Z</time>
      </trkpt>
      <trkpt lat="48.8228" lon="-3.33262">
        <ele>39</ele>
        <time>2015-02-15T10:12:24Z</time>
      </trkpt>
      <trkpt lat="48.82278" lon="-3.33272">
        <ele>39</ele>
        <time>2015-02-15T10:12:25Z</time>
      </trkpt>
      <trkpt lat="48.82275" lon="-3.33283">
        <ele>39</ele>
        <time>2015-02-15T10:12:26Z</time>
      </trkpt>
      <trkpt lat="48.82272" lon="-3.33293">
        <ele>39</ele>
        <time>2015-02-15T10:12:27Z</time>
      </trkpt>
      <trkpt lat="48.8227" lon="-3.33304">
        <ele>39</ele>
        <time>2015-02-15T10:12:28Z</time>
      </trkpt>
      <trkpt lat="48.82267" lon="-3.33315">
        <ele>39</ele>
        <time>2015-02-15T10:12:29Z</time>
      </trkpt>
      <trkpt lat="48.82264" lon="-3.33326">
        <ele>39</ele>
        <time>2015-02-15T10:12:30Z</time>
      </trkpt>
      <trkpt lat="48.82262" lon="-3.33338">
        <ele>39</ele>
        <time>2015-02-15T10:12:31Z</time>
      </trkpt>
      <trkpt lat="48.82259" lon="-3.33349">
        <ele>39</ele>
        <time>2015-02-15T10:12:32Z</time>
      </trkpt>
      <trkpt lat="48.82256" lon="-3.33361">
        <ele>39</ele>
        <time>2015-02-15T10:12:33Z</time>
      </trkpt>
      <trkpt lat="48.82254" lon="-3.33374">
        <ele>39</ele>
        <time>2015-02-15T10:12:34Z</time>
      </trkpt>
      <trkpt lat="48.82252" lon="-3.33386">
        <ele>39</ele>
        <time>2015-02-15T10:12:35Z</time>
      </trkpt>
      <trkpt lat="48.8225" lon="-3.33399">
        <ele>39</ele>
        <time>2015-02-15T10:12:36Z</time>
      </trkpt>
      <trkpt lat="48.82247" lon="-3.33412">
        <ele>39</ele>
        <time>2015-02-15T10:12:37Z</time>
      </trkpt>
      <trkpt lat="48.82245" lon="-3.33426">
        <ele>39</ele>
        <time>2015-02-15T10:12:38Z</time>
      </trkpt>
      <trkpt lat="48.82244" lon="-3.33439">
        <ele>39</ele>
        <time>2015-02-15T10:12:39Z</time>
      </trkpt>
      <trkpt lat="48.82242" lon="-3.33453">
        <ele>39</ele>
        <time>2015-02-15T10:12:40Z</time>
      </trkpt>
      <trkpt lat="48.82241" lon="-3.33467">
        <ele>39</ele>
        <time>2015-02-15T10:12:41Z</time>
      </trkpt>
      <trkpt lat="48.8224" lon="-3.33482">
        <ele>39</ele>
        <time>2015-02-15T10:12:42Z</time>
      </trkpt>
      <trkpt lat="48.82238" lon="-3.33496">
        <ele>39</ele>
        <time>2015-02-15T10:12:43Z</time>
      </trkpt>
      <trkpt lat="48.82238" lon="-3.33511">
        <ele>38</ele>
        <time>2015-02-15T10:12:44Z</time>
      </trkpt>
      <trkpt lat="48.82236" lon="-3.33526">
        <ele>38</ele>
        <time>2015-02-15T10:12:45Z</time>
      </trkpt>
      <trkpt lat="48.82236" lon="-3.33542">
        <ele>37</ele>
        <time>2015-02-15T10:12:46Z</time>
      </trkpt>
      <trkpt lat="48.82235" lon="-3.33558">
        <ele>36</ele>
        <time>2015-02-15T10:12:47Z</time>
      </trkpt>
      <trkpt lat="48.82234" lon="-3.33575">
        <ele>36</ele>
        <time>2015-02-15T10:12:48Z</time>
      </trkpt>
      <trkpt lat="48.82233" lon="-3.33592">
        <ele>35</ele>
        <time>2015-02-15T10:12:49Z</time>
      </trkpt>
      <trkpt lat="48.82232" lon="-3.3361">
        <ele>34</ele>
        <time>2015-02-15T10:12:50Z</time>
      </trkpt>
      <trkpt lat="48.82231" lon="-3.33629">
        <ele>33</ele>
        <time>2015-02-15T10:12:51Z</time>
      </trkpt>
      <trkpt lat="48.8223" lon="-3.33648">
        <ele>32</ele>
        <time>2015-02-15T10:12:52Z</time>
      </trkpt>
      <trkpt lat="48.82229" lon="-3.33669">
        <ele>31</ele>
        <time>2015-02-15T10:12:53Z</time>
      </trkpt>
      <trkpt lat="48.82227" lon="-3.3369">
        <ele>30</ele>
        <time>2015-02-15T10:12:54Z</time>
      </trkpt>
      <trkpt lat="48.82226" lon="-3.33712">
        <ele>29</ele>
        <time>2015-02-15T10:12:55Z</time>
      </trkpt>
      <trkpt lat="48.82225" lon="-3.33733">
        <ele>28</ele>
        <time>2015-02-15T10:12:56Z</time>
      </trkpt>
      <trkpt lat="48.82224" lon="-3.33755">
        <ele>27</ele>
        <time>2015-02-15T10:12:57Z</time>
      </trkpt>
      <trkpt lat="48.82223" lon="-3.33776">
        <ele>26</ele>
        <time>2015-02-15T10:12:58Z</time>
      </trkpt>
      <trkpt lat="48.82222" lon="-3.33797">
        <ele>25</ele>
        <time>2015-02-15T10:12:59Z</time>
      </trkpt>
      <trkpt lat="48.8222" lon="-3.33817">
        <ele>24</ele>
        <time>2015-02-15T10:13:00Z</time>
      </trkpt>
      <trkpt lat="48.82219" lon="-3.33835">
        <ele>23</ele>
        <time>2015-02-15T10:13:01Z</time>
      </trkpt>
      <trkpt lat="48.82218" lon="-3.33852">
        <ele>22</ele>
        <time>2015-02-15T10:13:02Z</time>
      </trkpt>
      <trkpt lat="48.82217" lon="-3.33869">
        <ele>21</ele>
        <time>2015-02-15T10:13:03Z</time>
      </trkpt>
      <trkpt lat="48.82216" lon="-3.33884">
        <ele>21</ele>
        <time>2015-02-15T10:13:04Z</time>
      </trkpt>
      <trkpt lat="48.82216" lon="-3.33899">
        <ele>21</ele>
        <time>2015-02-15T10:13:05Z</time>
      </trkpt>
      <trkpt lat="48.82215" lon="-3.33912">
        <ele>21</ele>
        <time>2015-02-15T10:13:06Z</time>
      </trkpt>
      <trkpt lat="48.82215" lon="-3.33926">
        <ele>21</ele>
        <time>2015-02-15T10:13:07Z</time>
      </trkpt>
      <trkpt lat="48.82214" lon="-3.33939">
        <ele>21</ele>
        <time>2015-02-15T10:13:08Z</time>
      </trkpt>
      <trkpt lat="48.82214" lon="-3.33951">
        <ele>21</ele>
        <time>2015-02-15T10:13:09Z</time>
      </trkpt>
      <trkpt lat="48.82214" lon="-3.33962">
        <ele>21</ele>
        <time>2015-02-15T10:13:10Z</time>
      </trkpt>
      <trkpt lat="48.82213" lon="-3.33974">
        <ele>21</ele>
        <time>2015-02-15T10:13:11Z</time>
      </trkpt>
      <trkpt lat="48.82213" lon="-3.33985">
        <ele>22</ele>
        <time>2015-02-15T10:13:12Z</time>
      </trkpt>
      <trkpt lat="48.82212" lon="-3.33996">
        <ele>22</ele>
        <time>2015-02-15T10:13:13Z</time>
      </trkpt>
      <trkpt lat="48.82212" lon="-3.34007">
        <ele>23</ele>
        <time>2015-02-15T10:13:14Z</time>
      </trkpt>
      <trkpt lat="48.82211" lon="-3.34018">
        <ele>24</ele>
        <time>2015-02-15T10:13:15Z</time>
      </trkpt>
      <trkpt lat="48.82211" lon="-3.34029">
        <ele>24</ele>
        <time>2015-02-15T10:13:16Z</time>
      </trkpt>
      <trkpt lat="48.82211" lon="-3.3404">
        <ele>25</ele>
        <time>2015-02-15T10:13:17Z</time>
      </trkpt>
      <trkpt lat="48.8221" lon="-3.34051">
        <ele>25</ele>
        <time>2015-02-15T10:13:18Z</time>
      </trkpt>
      <trkpt lat="48.82209" lon="-3.34062">
        <ele>25</ele>
        <time>2015-02-15T10:13:19Z</time>
      </trkpt>
      <trkpt lat="48.82209" lon="-3.34073">
        <ele>25</ele>
        <time>2015-02-15T10:13:20Z</time>
      </trkpt>
      <trkpt lat="48.82208" lon="-3.34085">
        <ele>26</ele>
        <time>2015-02-15T10:13:21Z</time>
      </trkpt>
      <trkpt lat="48.82208" lon="-3.34096">
        <ele>26</ele>
        <time>2015-02-15T10:13:22Z</time>
      </trkpt>
      <trkpt lat="48.82207" lon="-3.34107">
        <ele>26</ele>
        <time>2015-02-15T10:13:23Z</time>
      </trkpt>
      <trkpt lat="48.82207" lon="-3.34119">
        <ele>26</ele>
        <time>2015-02-15T10:13:24Z</time>
      </trkpt>
      <trkpt lat="48.82206" lon="-3.34131">
        <ele>26</ele>
        <time>2015-02-15T10:13:25Z</time>
      </trkpt>
      <trkpt lat="48.82206" lon="-3.34143">
        <ele>26</ele>
        <time>2015-02-15T10:13:26Z</time>
      </trkpt>
      <trkpt lat="48.82205" lon="-3.34155">
        <ele>26</ele>
        <time>2015-02-15T10:13:27Z</time>
      </trkpt>
      <trkpt lat="48.82205" lon="-3.34167">
        <ele>26</ele>
        <time>2015-02-15T10:13:28Z</time>
      </trkpt>
      <trkpt lat="48.82204" lon="-3.3418">
        <ele>26</ele>
        <time>2015-02-15T10:13:29Z</time>
      </trkpt>
      <trkpt lat="48.82204" lon="-3.34192">
        <ele>26</ele>
        <time>2015-02-15T10:13:30Z</time>
      </trkpt>
      <trkpt lat="48.82203" lon="-3.34205">
        <ele>26</ele>
        <time>2015-02-15T10:13:31Z</time>
      </trkpt>
      <trkpt lat="48.82203" lon="-3.34218">
        <ele>26</ele>
        <time>2015-02-15T10:13:32Z</time>
      </trkpt>
      <trkpt lat="48.82203" lon="-3.34231">
        <ele>26</ele>
        <time>2015-02-15T10:13:33Z</time>
      </trkpt>
      <trkpt lat="48.82202" lon="-3.34244">
        <ele>26</ele>
        <time>2015-02-15T10:13:34Z</time>
      </trkpt>
      <trkpt lat="48.82203" lon="-3.34304">
        <ele>26</ele>
        <time>2015-02-15T10:13:39Z</time>
      </trkpt>
      <trkpt lat="48.82203" lon="-3.34315">
        <ele>26</ele>
        <time>2015-02-15T10:13:40Z</time>
      </trkpt>
      <trkpt lat="48.82203" lon="-3.34348">
        <ele>27</ele>
        <time>2015-02-15T10:13:43Z</time>
      </trkpt>
      <trkpt lat="48.82204" lon="-3.34358">
        <ele>27</ele>
        <time>2015-02-15T10:13:44Z</time>
      </trkpt>
      <trkpt lat="48.82204" lon="-3.34379">
        <ele>28</ele>
        <time>2015-02-15T10:13:46Z</time>
      </trkpt>
      <trkpt lat="48.82204" lon="-3.3439">
        <ele>29</ele>
        <time>2015-02-15T10:13:47Z</time>
      </trkpt>
      <trkpt lat="48.82205" lon="-3.3441">
        <ele>30</ele>
        <time>2015-02-15T10:13:49Z</time>
      </trkpt>
      <trkpt lat="48.82205" lon="-3.3442">
        <ele>30</ele>
        <time>2015-02-15T10:13:50Z</time>
      </trkpt>
      <trkpt lat="48.82206" lon="-3.3443">
        <ele>30</ele>
        <time>2015-02-15T10:13:51Z</time>
      </trkpt>
      <trkpt lat="48.82206" lon="-3.3444">
        <ele>30</ele>
        <time>2015-02-15T10:13:52Z</time>
      </trkpt>
      <trkpt lat="48.82206" lon="-3.34451">
        <ele>31</ele>
        <time>2015-02-15T10:13:53Z</time>
      </trkpt>
      <trkpt lat="48.82207" lon="-3.34461">
        <ele>31</ele>
        <time>2015-02-15T10:13:54Z</time>
      </trkpt>
      <trkpt lat="48.82207" lon="-3.34471">
        <ele>31</ele>
        <time>2015-02-15T10:13:55Z</time>
      </trkpt>
      <trkpt lat="48.82207" lon="-3.34481">
        <ele>31</ele>
        <time>2015-02-15T10:13:56Z</time>
      </trkpt>
      <trkpt lat="48.82208" lon="-3.34491">
        <ele>32</ele>
        <time>2015-02-15T10:13:57Z</time>
      </trkpt>
      <trkpt lat="48.82208" lon="-3.34511">
        <ele>32</ele>
        <time>2015-02-15T10:13:59Z</time>
      </trkpt>
      <trkpt lat="48.82209" lon="-3.34521">
        <ele>32</ele>
        <time>2015-02-15T10:14:00Z</time>
      </trkpt>
      <trkpt lat="48.82209" lon="-3.34541">
        <ele>33</ele>
        <time>2015-02-15T10:14:02Z</time>
      </trkpt>
      <trkpt lat="48.82209" lon="-3.34581">
        <ele>33</ele>
        <time>2015-02-15T10:14:06Z</time>
      </trkpt>
      <trkpt lat="48.82208" lon="-3.34592">
        <ele>33</ele>
        <time>2015-02-15T10:14:07Z</time>
      </trkpt>
      <trkpt lat="48.82208" lon="-3.34603">
        <ele>33</ele>
        <time>2015-02-15T10:14:08Z</time>
      </trkpt>
      <trkpt lat="48.82207" lon="-3.34615">
        <ele>33</ele>
        <time>2015-02-15T10:14:09Z</time>
      </trkpt>
      <trkpt lat="48.82206" lon="-3.34627">
        <ele>33</ele>
        <time>2015-02-15T10:14:10Z</time>
      </trkpt>
      <trkpt lat="48.82205" lon="-3.3464">
        <ele>33</ele>
        <time>2015-02-15T10:14:11Z</time>
      </trkpt>
      <trkpt lat="48.82204" lon="-3.34653">
        <ele>33</ele>
        <time>2015-02-15T10:14:12Z</time>
      </trkpt>
      <trkpt lat="48.82202" lon="-3.34667">
        <ele>33</ele>
        <time>2015-02-15T10:14:13Z</time>
      </trkpt>
      <trkpt lat="48.82201" lon="-3.34681">
        <ele>33</ele>
        <time>2015-02-15T10:14:14Z</time>
      </trkpt>
      <trkpt lat="48.82199" lon="-3.34695">
        <ele>33</ele>
        <time>2015-02-15T10:14:15Z</time>
      </trkpt>
      <trkpt lat="48.82198" lon="-3.3471">
        <ele>33</ele>
        <time>2015-02-15T10:14:16Z</time>
      </trkpt>
      <trkpt lat="48.82196" lon="-3.34725">
        <ele>33</ele>
        <time>2015-02-15T10:14:17Z</time>
      </trkpt>
      <trkpt lat="48.82195" lon="-3.34739">
        <ele>33</ele>
        <time>2015-02-15T10:14:18Z</time>
      </trkpt>
      <trkpt lat="48.82193" lon="-3.34754">
        <ele>33</ele>
        <time>2015-02-15T10:14:19Z</time>
      </trkpt>
      <trkpt lat="48.82192" lon="-3.3477">
        <ele>32</ele>
        <time>2015-02-15T10:14:20Z</time>
      </trkpt>
      <trkpt lat="48.82189" lon="-3.34785">
        <ele>32</ele>
        <time>2015-02-15T10:14:21Z</time>
      </trkpt>
      <trkpt lat="48.82186" lon="-3.34801">
        <ele>31</ele>
        <time>2015-02-15T10:14:22Z</time>
      </trkpt>
      <trkpt lat="48.82182" lon="-3.34817">
        <ele>30</ele>
        <time>2015-02-15T10:14:23Z</time>
      </trkpt>
      <trkpt lat="48.82178" lon="-3.34833">
        <ele>29</ele>
        <time>2015-02-15T10:14:24Z</time>
      </trkpt>
      <trkpt lat="48.82174" lon="-3.3485">
        <ele>29</ele>
        <time>2015-02-15T10:14:25Z</time>
      </trkpt>
      <trkpt lat="48.8217" lon="-3.34867">
        <ele>28</ele>
        <time>2015-02-15T10:14:26Z</time>
      </trkpt>
      <trkpt lat="48.82165" lon="-3.34884">
        <ele>27</ele>
        <time>2015-02-15T10:14:27Z</time>
      </trkpt>
      <trkpt lat="48.82161" lon="-3.34902">
        <ele>26</ele>
        <time>2015-02-15T10:14:28Z</time>
      </trkpt>
      <trkpt lat="48.82156" lon="-3.3492">
        <ele>25</ele>
        <time>2015-02-15T10:14:29Z</time>
      </trkpt>
      <trkpt lat="48.8215" lon="-3.34938">
        <ele>24</ele>
        <time>2015-02-15T10:14:30Z</time>
      </trkpt>
      <trkpt lat="48.82143" lon="-3.34955">
        <ele>23</ele>
        <time>2015-02-15T10:14:31Z</time>
      </trkpt>
      <trkpt lat="48.82137" lon="-3.34973">
        <ele>22</ele>
        <time>2015-02-15T10:14:32Z</time>
      </trkpt>
      <trkpt lat="48.82129" lon="-3.3499">
        <ele>21</ele>
        <time>2015-02-15T10:14:33Z</time>
      </trkpt>
      <trkpt lat="48.82122" lon="-3.35008">
        <ele>20</ele>
        <time>2015-02-15T10:14:34Z</time>
      </trkpt>
      <trkpt lat="48.82115" lon="-3.35025">
        <ele>19</ele>
        <time>2015-02-15T10:14:35Z</time>
      </trkpt>
      <trkpt lat="48.82107" lon="-3.35043">
        <ele>18</ele>
        <time>2015-02-15T10:14:36Z</time>
      </trkpt>
      <trkpt lat="48.821" lon="-3.3506">
        <ele>17</ele>
        <time>2015-02-15T10:14:37Z</time>
      </trkpt>
      <trkpt lat="48.82093" lon="-3.35078">
        <ele>16</ele>
        <time>2015-02-15T10:14:38Z</time>
      </trkpt>
      <trkpt lat="48.82086" lon="-3.35095">
        <ele>15</ele>
        <time>2015-02-15T10:14:39Z</time>
      </trkpt>
      <trkpt lat="48.8208" lon="-3.35112">
        <ele>14</ele>
        <time>2015-02-15T10:14:40Z</time>
      </trkpt>
      <trkpt lat="48.82074" lon="-3.35128">
        <ele>13</ele>
        <time>2015-02-15T10:14:41Z</time>
      </trkpt>
      <trkpt lat="48.82069" lon="-3.35144">
        <ele>12</ele>
        <time>2015-02-15T10:14:42Z</time>
      </trkpt>
      <trkpt lat="48.82063" lon="-3.35159">
        <ele>12</ele>
        <time>2015-02-15T10:14:43Z</time>
      </trkpt>
      <trkpt lat="48.82057" lon="-3.35174">
        <ele>12</ele>
        <time>2015-02-15T10:14:44Z</time>
      </trkpt>
      <trkpt lat="48.82052" lon="-3.35189">
        <ele>12</ele>
        <time>2015-02-15T10:14:45Z</time>
      </trkpt>
      <trkpt lat="48.82047" lon="-3.35203">
        <ele>12</ele>
        <time>2015-02-15T10:14:46Z</time>
      </trkpt>
      <trkpt lat="48.82042" lon="-3.35217">
        <ele>12</ele>
        <time>2015-02-15T10:14:47Z</time>
      </trkpt>
      <trkpt lat="48.82037" lon="-3.3523">
        <ele>12</ele>
        <time>2015-02-15T10:14:48Z</time>
      </trkpt>
      <trkpt lat="48.82032" lon="-3.35243">
        <ele>12</ele>
        <time>2015-02-15T10:14:49Z</time>
      </trkpt>
      <trkpt lat="48.82028" lon="-3.35256">
        <ele>12</ele>
        <time>2015-02-15T10:14:50Z</time>
      </trkpt>
      <trkpt lat="48.82023" lon="-3.35268">
        <ele>12</ele>
        <time>2015-02-15T10:14:51Z</time>
      </trkpt>
      <trkpt lat="48.82019" lon="-3.3528">
        <ele>12</ele>
        <time>2015-02-15T10:14:52Z</time>
      </trkpt>
      <trkpt lat="48.82014" lon="-3.35293">
        <ele>12</ele>
        <time>2015-02-15T10:14:53Z</time>
      </trkpt>
      <trkpt lat="48.8201" lon="-3.35305">
        <ele>12</ele>
        <time>2015-02-15T10:14:54Z</time>
      </trkpt>
      <trkpt lat="48.82006" lon="-3.35317">
        <ele>12</ele>
        <time>2015-02-15T10:14:55Z</time>
      </trkpt>
      <trkpt lat="48.82003" lon="-3.35329">
        <ele>12</ele>
        <time>2015-02-15T10:14:56Z</time>
      </trkpt>
      <trkpt lat="48.81999" lon="-3.35341">
        <ele>12</ele>
        <time>2015-02-15T10:14:57Z</time>
      </trkpt>
      <trkpt lat="48.81996" lon="-3.35353">
        <ele>12</ele>
        <time>2015-02-15T10:14:58Z</time>
      </trkpt>
      <trkpt lat="48.81993" lon="-3.35365">
        <ele>12</ele>
        <time>2015-02-15T10:14:59Z</time>
      </trkpt>
      <trkpt lat="48.8199" lon="-3.35378">
        <ele>12</ele>
        <time>2015-02-15T10:15:00Z</time>
      </trkpt>
      <trkpt lat="48.81987" lon="-3.35389">
        <ele>12</ele>
        <time>2015-02-15T10:15:01Z</time>
      </trkpt>
      <trkpt lat="48.81983" lon="-3.35402">
        <ele>12</ele>
        <time>2015-02-15T10:15:02Z</time>
      </trkpt>
      <trkpt lat="48.8198" lon="-3.35414">
        <ele>12</ele>
        <time>2015-02-15T10:15:03Z</time>
      </trkpt>
      <trkpt lat="48.81977" lon="-3.35426">
        <ele>12</ele>
        <time>2015-02-15T10:15:04Z</time>
      </trkpt>
      <trkpt lat="48.81974" lon="-3.35437">
        <ele>12</ele>
        <time>2015-02-15T10:15:05Z</time>
      </trkpt>
      <trkpt lat="48.8197" lon="-3.35449">
        <ele>12</ele>
        <time>2015-02-15T10:15:06Z</time>
      </trkpt>
      <trkpt lat="48.81967" lon="-3.35461">
        <ele>12</ele>
        <time>2015-02-15T10:15:07Z</time>
      </trkpt>
      <trkpt lat="48.81964" lon="-3.35473">
        <ele>12</ele>
        <time>2015-02-15T10:15:08Z</time>
      </trkpt>
      <trkpt lat="48.81961" lon="-3.35484">
        <ele>12</ele>
        <time>2015-02-15T10:15:09Z</time>
      </trkpt>
      <trkpt lat="48.81958" lon="-3.35496">
        <ele>12</ele>
        <time>2015-02-15T10:15:10Z</time>
      </trkpt>
      <trkpt lat="48.81955" lon="-3.35507">
        <ele>12</ele>
        <time>2015-02-15T10:15:11Z</time>
      </trkpt>
      <trkpt lat="48.81952" lon="-3.35518">
        <ele>12</ele>
        <time>2015-02-15T10:15:12Z</time>
      </trkpt>
      <trkpt lat="48.81949" lon="-3.35528">
        <ele>12</ele>
        <time>2015-02-15T10:15:13Z</time>
      </trkpt>
      <trkpt lat="48.81946" lon="-3.35539">
        <ele>12</ele>
        <time>2015-02-15T10:15:14Z</time>
      </trkpt>
      <trkpt lat="48.81943" lon="-3.35549">
        <ele>12</ele>
        <time>2015-02-15T10:15:15Z</time>
      </trkpt>
      <trkpt lat="48.8194" lon="-3.3556">
        <ele>12</ele>
        <time>2015-02-15T10:15:16Z</time>
      </trkpt>
      <trkpt lat="48.81938" lon="-3.3557">
        <ele>12</ele>
        <time>2015-02-15T10:15:17Z</time>
      </trkpt>
      <trkpt lat="48.81935" lon="-3.35579">
        <ele>12</ele>
        <time>2015-02-15T10:15:18Z</time>
      </trkpt>
      <trkpt lat="48.81933" lon="-3.35588">
        <ele>12</ele>
        <time>2015-02-15T10:15:19Z</time>
      </trkpt>
      <trkpt lat="48.81931" lon="-3.35597">
        <ele>12</ele>
        <time>2015-02-15T10:15:20Z</time>
      </trkpt>
      <trkpt lat="48.81928" lon="-3.35605">
        <ele>12</ele>
        <time>2015-02-15T10:15:21Z</time>
      </trkpt>
      <trkpt lat="48.81927" lon="-3.35614">
        <ele>12</ele>
        <time>2015-02-15T10:15:22Z</time>
      </trkpt>
      <trkpt lat="48.81926" lon="-3.35621">
        <ele>12</ele>
        <time>2015-02-15T10:15:23Z</time>
      </trkpt>
      <trkpt lat="48.81925" lon="-3.35629">
        <ele>12</ele>
        <time>2015-02-15T10:15:24Z</time>
      </trkpt>
      <trkpt lat="48.81924" lon="-3.35635">
        <ele>12</ele>
        <time>2015-02-15T10:15:25Z</time>
      </trkpt>
      <trkpt lat="48.81924" lon="-3.35642">
        <ele>12</ele>
        <time>2015-02-15T10:15:26Z</time>
      </trkpt>
      <trkpt lat="48.81924" lon="-3.35655">
        <ele>12</ele>
        <time>2015-02-15T10:15:28Z</time>
      </trkpt>
      <trkpt lat="48.81925" lon="-3.35661">
        <ele>12</ele>
        <time>2015-02-15T10:15:29Z</time>
      </trkpt>
      <trkpt lat="48.81926" lon="-3.35667">
        <ele>12</ele>
        <time>2015-02-15T10:15:30Z</time>
      </trkpt>
      <trkpt lat="48.81927" lon="-3.35673">
        <ele>13</ele>
        <time>2015-02-15T10:15:31Z</time>
      </trkpt>
      <trkpt lat="48.81928" lon="-3.35679">
        <ele>13</ele>
        <time>2015-02-15T10:15:32Z</time>
      </trkpt>
      <trkpt lat="48.81929" lon="-3.35685">
        <ele>13</ele>
        <time>2015-02-15T10:15:33Z</time>
      </trkpt>
      <trkpt lat="48.8193" lon="-3.3569">
        <ele>14</ele>
        <time>2015-02-15T10:15:34Z</time>
      </trkpt>
      <trkpt lat="48.81932" lon="-3.35695">
        <ele>14</ele>
        <time>2015-02-15T10:15:35Z</time>
      </trkpt>
      <trkpt lat="48.81933" lon="-3.35701">
        <ele>15</ele>
        <time>2015-02-15T10:15:36Z</time>
      </trkpt>
      <trkpt lat="48.81934" lon="-3.35706">
        <ele>15</ele>
        <time>2015-02-15T10:15:37Z</time>
      </trkpt>
      <trkpt lat="48.81936" lon="-3.35711">
        <ele>16</ele>
        <time>2015-02-15T10:15:38Z</time>
      </trkpt>
      <trkpt lat="48.81937" lon="-3.35717">
        <ele>16</ele>
        <time>2015-02-15T10:15:39Z</time>
      </trkpt>
      <trkpt lat="48.81939" lon="-3.35721">
        <ele>17</ele>
        <time>2015-02-15T10:15:40Z</time>
      </trkpt>
      <trkpt lat="48.8194" lon="-3.35727">
        <ele>17</ele>
        <time>2015-02-15T10:15:41Z</time>
      </trkpt>
      <trkpt lat="48.81942" lon="-3.35732">
        <ele>18</ele>
        <time>2015-02-15T10:15:42Z</time>
      </trkpt>
      <trkpt lat="48.81943" lon="-3.35737">
        <ele>18</ele>
        <time>2015-02-15T10:15:43Z</time>
      </trkpt>
      <trkpt lat="48.81944" lon="-3.35742">
        <ele>18</ele>
        <time>2015-02-15T10:15:44Z</time>
      </trkpt>
      <trkpt lat="48.81945" lon="-3.35747">
        <ele>19</ele>
        <time>2015-02-15T10:15:45Z</time>
      </trkpt>
      <trkpt lat="48.81947" lon="-3.35752">
        <ele>19</ele>
        <time>2015-02-15T10:15:46Z</time>
      </trkpt>
      <trkpt lat="48.81948" lon="-3.35757">
        <ele>20</ele>
        <time>2015-02-15T10:15:47Z</time>
      </trkpt>
      <trkpt lat="48.81949" lon="-3.35762">
        <ele>20</ele>
        <time>2015-02-15T10:15:48Z</time>
      </trkpt>
      <trkpt lat="48.8195" lon="-3.35767">
        <ele>21</ele>
        <time>2015-02-15T10:15:49Z</time>
      </trkpt>
      <trkpt lat="48.81951" lon="-3.35772">
        <ele>21</ele>
        <time>2015-02-15T10:15:50Z</time>
      </trkpt>
      <trkpt lat="48.81952" lon="-3.35777">
        <ele>22</ele>
        <time>2015-02-15T10:15:51Z</time>
      </trkpt>
      <trkpt lat="48.81953" lon="-3.35782">
        <ele>22</ele>
        <time>2015-02-15T10:15:52Z</time>
      </trkpt>
      <trkpt lat="48.81954" lon="-3.35787">
        <ele>23</ele>
        <time>2015-02-15T10:15:53Z</time>
      </trkpt>
      <trkpt lat="48.81954" lon="-3.35792">
        <ele>23</ele>
        <time>2015-02-15T10:15:54Z</time>
      </trkpt>
      <trkpt lat="48.81955" lon="-3.35797">
        <ele>23</ele>
        <time>2015-02-15T10:15:55Z</time>
      </trkpt>
      <trkpt lat="48.81954" lon="-3.35807">
        <ele>24</ele>
        <time>2015-02-15T10:15:57Z</time>
      </trkpt>
      <trkpt lat="48.81954" lon="-3.35812">
        <ele>25</ele>
        <time>2015-02-15T10:15:58Z</time>
      </trkpt>
      <trkpt lat="48.81953" lon="-3.35818">
        <ele>25</ele>
        <time>2015-02-15T10:15:59Z</time>
      </trkpt>
      <trkpt lat="48.81951" lon="-3.35823">
        <ele>26</ele>
        <time>2015-02-15T10:16:00Z</time>
      </trkpt>
      <trkpt lat="48.8195" lon="-3.35827">
        <ele>26</ele>
        <time>2015-02-15T10:16:01Z</time>
      </trkpt>
      <trkpt lat="48.81949" lon="-3.35833">
        <ele>26</ele>
        <time>2015-02-15T10:16:02Z</time>
      </trkpt>
      <trkpt lat="48.81947" lon="-3.35838">
        <ele>27</ele>
        <time>2015-02-15T10:16:03Z</time>
      </trkpt>
      <trkpt lat="48.81946" lon="-3.35843">
        <ele>27</ele>
        <time>2015-02-15T10:16:04Z</time>
      </trkpt>
      <trkpt lat="48.81944" lon="-3.35848">
        <ele>27</ele>
        <time>2015-02-15T10:16:05Z</time>
      </trkpt>
      <trkpt lat="48.81943" lon="-3.35853">
        <ele>28</ele>
        <time>2015-02-15T10:16:06Z</time>
      </trkpt>
      <trkpt lat="48.81941" lon="-3.35858">
        <ele>28</ele>
        <time>2015-02-15T10:16:07Z</time>
      </trkpt>
      <trkpt lat="48.81939" lon="-3.35863">
        <ele>28</ele>
        <time>2015-02-15T10:16:08Z</time>
      </trkpt>
      <trkpt lat="48.81938" lon="-3.35868">
        <ele>28</ele>
        <time>2015-02-15T10:16:09Z</time>
      </trkpt>
      <trkpt lat="48.81937" lon="-3.35873">
        <ele>29</ele>
        <time>2015-02-15T10:16:10Z</time>
      </trkpt>
      <trkpt lat="48.81935" lon="-3.35878">
        <ele>29</ele>
        <time>2015-02-15T10:16:11Z</time>
      </trkpt>
      <trkpt lat="48.81933" lon="-3.35883">
        <ele>29</ele>
        <time>2015-02-15T10:16:12Z</time>
      </trkpt>
      <trkpt lat="48.81932" lon="-3.35888">
        <ele>29</ele>
        <time>2015-02-15T10:16:13Z</time>
      </trkpt>
      <trkpt lat="48.81931" lon="-3.35893">
        <ele>30</ele>
        <time>2015-02-15T10:16:14Z</time>
      </trkpt>
      <trkpt lat="48.81929" lon="-3.35898">
        <ele>30</ele>
        <time>2015-02-15T10:16:15Z</time>
      </trkpt>
      <trkpt lat="48.81927" lon="-3.35903">
        <ele>30</ele>
        <time>2015-02-15T10:16:16Z</time>
      </trkpt>
      <trkpt lat="48.81926" lon="-3.35909">
        <ele>30</ele>
        <time>2015-02-15T10:16:17Z</time>
      </trkpt>
      <trkpt lat="48.81924" lon="-3.35914">
        <ele>31</ele>
        <time>2015-02-15T10:16:18Z</time>
      </trkpt>
      <trkpt lat="48.81923" lon="-3.35919">
        <ele>31</ele>
        <time>2015-02-15T10:16:19Z</time>
      </trkpt>
      <trkpt lat="48.81921" lon="-3.35924">
        <ele>31</ele>
        <time>2015-02-15T10:16:20Z</time>
      </trkpt>
      <trkpt lat="48.81919" lon="-3.35929">
        <ele>31</ele>
        <time>2015-02-15T10:16:21Z</time>
      </trkpt>
      <trkpt lat="48.81917" lon="-3.35934">
        <ele>31</ele>
        <time>2015-02-15T10:16:22Z</time>
      </trkpt>
      <trkpt lat="48.81916" lon="-3.35939">
        <ele>32</ele>
        <time>2015-02-15T10:16:23Z</time>
      </trkpt>
      <trkpt lat="48.81914" lon="-3.35944">
        <ele>32</ele>
        <time>2015-02-15T10:16:24Z</time>
      </trkpt>
      <trkpt lat="48.81911" lon="-3.35949">
        <ele>32</ele>
        <time>2015-02-15T10:16:25Z</time>
      </trkpt>
      <trkpt lat="48.81909" lon="-3.35955">
        <ele>32</ele>
        <time>2015-02-15T10:16:26Z</time>
      </trkpt>
      <trkpt lat="48.81907" lon="-3.3596">
        <ele>32</ele>
        <time>2015-02-15T10:16:27Z</time>
      </trkpt>
      <trkpt lat="48.81904" lon="-3.35964">
        <ele>33</ele>
        <time>2015-02-15T10:16:28Z</time>
      </trkpt>
      <trkpt lat="48.81902" lon="-3.35969">
        <ele>33</ele>
        <time>2015-02-15T10:16:29Z</time>
      </trkpt>
      <trkpt lat="48.81899" lon="-3.35973">
        <ele>33</ele>
        <time>2015-02-15T10:16:30Z</time>
      </trkpt>
      <trkpt lat="48.81896" lon="-3.35977">
        <ele>33</ele>
        <time>2015-02-15T10:16:31Z</time>
      </trkpt>
      <trkpt lat="48.81893" lon="-3.3598">
        <ele>34</ele>
        <time>2015-02-15T10:16:32Z</time>
      </trkpt>
      <trkpt lat="48.8189" lon="-3.35984">
        <ele>34</ele>
        <time>2015-02-15T10:16:33Z</time>
      </trkpt>
      <trkpt lat="48.81887" lon="-3.35987">
        <ele>34</ele>
        <time>2015-02-15T10:16:34Z</time>
      </trkpt>
      <trkpt lat="48.81883" lon="-3.3599">
        <ele>34</ele>
        <time>2015-02-15T10:16:35Z</time>
      </trkpt>
      <trkpt lat="48.8188" lon="-3.35992">
        <ele>34</ele>
        <time>2015-02-15T10:16:36Z</time>
      </trkpt>
      <trkpt lat="48.81876" lon="-3.35995">
        <ele>35</ele>
        <time>2015-02-15T10:16:37Z</time>
      </trkpt>
      <trkpt lat="48.81873" lon="-3.35997">
        <ele>35</ele>
        <time>2015-02-15T10:16:38Z</time>
      </trkpt>
      <trkpt lat="48.8187" lon="-3.35999">
        <ele>35</ele>
        <time>2015-02-15T10:16:39Z</time>
      </trkpt>
      <trkpt lat="48.81866" lon="-3.36001">
        <ele>35</ele>
        <time>2015-02-15T10:16:40Z</time>
      </trkpt>
      <trkpt lat="48.81863" lon="-3.36002">
        <ele>35</ele>
        <time>2015-02-15T10:16:41Z</time>
      </trkpt>
      <trkpt lat="48.8186" lon="-3.36004">
        <ele>35</ele>
        <time>2015-02-15T10:16:42Z</time>
      </trkpt>
      <trkpt lat="48.81856" lon="-3.36005">
        <ele>36</ele>
        <time>2015-02-15T10:16:43Z</time>
      </trkpt>
      <trkpt lat="48.81852" lon="-3.36006">
        <ele>36</ele>
        <time>2015-02-15T10:16:44Z</time>
      </trkpt>
      <trkpt lat="48.81849" lon="-3.36007">
        <ele>36</ele>
        <time>2015-02-15T10:16:45Z</time>
      </trkpt>
      <trkpt lat="48.81845" lon="-3.36008">
        <ele>36</ele>
        <time>2015-02-15T10:16:46Z</time>
      </trkpt>
      <trkpt lat="48.81842" lon="-3.36008">
        <ele>37</ele>
        <time>2015-02-15T10:16:47Z</time>
      </trkpt>
      <trkpt lat="48.81838" lon="-3.36009">
        <ele>37</ele>
        <time>2015-02-15T10:16:48Z</time>
      </trkpt>
      <trkpt lat="48.81834" lon="-3.36009">
        <ele>37</ele>
        <time>2015-02-15T10:16:49Z</time>
      </trkpt>
      <trkpt lat="48.81831" lon="-3.36009">
        <ele>37</ele>
        <time>2015-02-15T10:16:50Z</time>
      </trkpt>
      <trkpt lat="48.81827" lon="-3.36009">
        <ele>37</ele>
        <time>2015-02-15T10:16:51Z</time>
      </trkpt>
      <trkpt lat="48.81823" lon="-3.36008">
        <ele>38</ele>
        <time>2015-02-15T10:16:52Z</time>
      </trkpt>
      <trkpt lat="48.8182" lon="-3.36008">
        <ele>38</ele>
        <time>2015-02-15T10:16:53Z</time>
      </trkpt>
      <trkpt lat="48.81816" lon="-3.36007">
        <ele>38</ele>
        <time>2015-02-15T10:16:54Z</time>
      </trkpt>
      <trkpt lat="48.81812" lon="-3.36005">
        <ele>39</ele>
        <time>2015-02-15T10:16:55Z</time>
      </trkpt>
      <trkpt lat="48.81808" lon="-3.36004">
        <ele>39</ele>
        <time>2015-02-15T10:16:56Z</time>
      </trkpt>
      <trkpt lat="48.81805" lon="-3.36002">
        <ele>39</ele>
        <time>2015-02-15T10:16:57Z</time>
      </trkpt>
      <trkpt lat="48.81801" lon="-3.36">
        <ele>40</ele>
        <time>2015-02-15T10:16:58Z</time>
      </trkpt>
      <trkpt lat="48.81797" lon="-3.35998">
        <ele>40</ele>
        <time>2015-02-15T10:16:59Z</time>
      </trkpt>
      <trkpt lat="48.81794" lon="-3.35995">
        <ele>40</ele>
        <time>2015-02-15T10:17:00Z</time>
      </trkpt>
      <trkpt lat="48.8179" lon="-3.35992">
        <ele>41</ele>
        <time>2015-02-15T10:17:01Z</time>
      </trkpt>
      <trkpt lat="48.81786" lon="-3.35989">
        <ele>41</ele>
        <time>2015-02-15T10:17:02Z</time>
      </trkpt>
      <trkpt lat="48.81783" lon="-3.35985">
        <ele>41</ele>
        <time>2015-02-15T10:17:03Z</time>
      </trkpt>
      <trkpt lat="48.8178" lon="-3.35981">
        <ele>42</ele>
        <time>2015-02-15T10:17:04Z</time>
      </trkpt>
      <trkpt lat="48.81776" lon="-3.35977">
        <ele>42</ele>
        <time>2015-02-15T10:17:05Z</time>
      </trkpt>
      <trkpt lat="48.81773" lon="-3.35973">
        <ele>42</ele>
        <time>2015-02-15T10:17:06Z</time>
      </trkpt>
      <trkpt lat="48.81771" lon="-3.35968">
        <ele>42</ele>
        <time>2015-02-15T10:17:07Z</time>
      </trkpt>
      <trkpt lat="48.81768" lon="-3.35964">
        <ele>43</ele>
        <time>2015-02-15T10:17:08Z</time>
      </trkpt>
      <trkpt lat="48.81765" lon="-3.35959">
        <ele>43</ele>
        <time>2015-02-15T10:17:09Z</time>
      </trkpt>
      <trkpt lat="48.81763" lon="-3.35954">
        <ele>43</ele>
        <time>2015-02-15T10:17:10Z</time>
      </trkpt>
      <trkpt lat="48.8176" lon="-3.35949">
        <ele>43</ele>
        <time>2015-02-15T10:17:11Z</time>
      </trkpt>
      <trkpt lat="48.81758" lon="-3.35945">
        <ele>44</ele>
        <time>2015-02-15T10:17:12Z</time>
      </trkpt>
      <trkpt lat="48.81755" lon="-3.3594">
        <ele>44</ele>
        <time>2015-02-15T10:17:13Z</time>
      </trkpt>
      <trkpt lat="48.81753" lon="-3.35935">
        <ele>44</ele>
        <time>2015-02-15T10:17:14Z</time>
      </trkpt>
      <trkpt lat="48.81751" lon="-3.3593">
        <ele>44</ele>
        <time>2015-02-15T10:17:15Z</time>
      </trkpt>
      <trkpt lat="48.81749" lon="-3.35924">
        <ele>44</ele>
        <time>2015-02-15T10:17:16Z</time>
      </trkpt>
      <trkpt lat="48.81746" lon="-3.35919">
        <ele>44</ele>
        <time>2015-02-15T10:17:17Z</time>
      </trkpt>
      <trkpt lat="48.81744" lon="-3.35913">
        <ele>45</ele>
        <time>2015-02-15T10:17:18Z</time>
      </trkpt>
      <trkpt lat="48.81741" lon="-3.35908">
        <ele>45</ele>
        <time>2015-02-15T10:17:19Z</time>
      </trkpt>
      <trkpt lat="48.81738" lon="-3.35902">
        <ele>45</ele>
        <time>2015-02-15T10:17:20Z</time>
      </trkpt>
      <trkpt lat="48.81735" lon="-3.35896">
        <ele>45</ele>
        <time>2015-02-15T10:17:21Z</time>
      </trkpt>
      <trkpt lat="48.81732" lon="-3.3589">
        <ele>45</ele>
        <time>2015-02-15T10:17:22Z</time>
      </trkpt>
      <trkpt lat="48.81728" lon="-3.35884">
        <ele>45</ele>
        <time>2015-02-15T10:17:23Z</time>
      </trkpt>
      <trkpt lat="48.81725" lon="-3.35879">
        <ele>46</ele>
        <time>2015-02-15T10:17:24Z</time>
      </trkpt>
      <trkpt lat="48.81721" lon="-3.35874">
        <ele>46</ele>
        <time>2015-02-15T10:17:25Z</time>
      </trkpt>
      <trkpt lat="48.81717" lon="-3.35869">
        <ele>46</ele>
        <time>2015-02-15T10:17:26Z</time>
      </trkpt>
      <trkpt lat="48.81713" lon="-3.35865">
        <ele>46</ele>
        <time>2015-02-15T10:17:27Z</time>
      </trkpt>
      <trkpt lat="48.81708" lon="-3.3586">
        <ele>46</ele>
        <time>2015-02-15T10:17:28Z</time>
      </trkpt>
      <trkpt lat="48.81704" lon="-3.35857">
        <ele>46</ele>
        <time>2015-02-15T10:17:29Z</time>
      </trkpt>
      <trkpt lat="48.81699" lon="-3.35854">
        <ele>47</ele>
        <time>2015-02-15T10:17:30Z</time>
      </trkpt>
      <trkpt lat="48.81694" lon="-3.35851">
        <ele>47</ele>
        <time>2015-02-15T10:17:31Z</time>
      </trkpt>
      <trkpt lat="48.81689" lon="-3.35849">
        <ele>47</ele>
        <time>2015-02-15T10:17:32Z</time>
      </trkpt>
      <trkpt lat="48.81684" lon="-3.35847">
        <ele>47</ele>
        <time>2015-02-15T10:17:33Z</time>
      </trkpt>
      <trkpt lat="48.81679" lon="-3.35846">
        <ele>47</ele>
        <time>2015-02-15T10:17:34Z</time>
      </trkpt>
      <trkpt lat="48.81674" lon="-3.35845">
        <ele>47</ele>
        <time>2015-02-15T10:17:35Z</time>
      </trkpt>
      <trkpt lat="48.81668" lon="-3.35845">
        <ele>48</ele>
        <time>2015-02-15T10:17:36Z</time>
      </trkpt>
      <trkpt lat="48.81663" lon="-3.35845">
        <ele>48</ele>
        <time>2015-02-15T10:17:37Z</time>
      </trkpt>
      <trkpt lat="48.81657" lon="-3.35845">
        <ele>48</ele>
        <time>2015-02-15T10:17:38Z</time>
      </trkpt>
      <trkpt lat="48.81652" lon="-3.35846">
        <ele>48</ele>
        <time>2015-02-15T10:17:39Z</time>
      </trkpt>
      <trkpt lat="48.81646" lon="-3.35847">
        <ele>48</ele>
        <time>2015-02-15T10:17:40Z</time>
      </trkpt>
      <trkpt lat="48.8164" lon="-3.35848">
        <ele>49</ele>
        <time>2015-02-15T10:17:41Z</time>
      </trkpt>
      <trkpt lat="48.81634" lon="-3.35849">
        <ele>49</ele>
        <time>2015-02-15T10:17:42Z</time>
      </trkpt>
      <trkpt lat="48.81628" lon="-3.35849">
        <ele>49</ele>
        <time>2015-02-15T10:17:43Z</time>
      </trkpt>
      <trkpt lat="48.81622" lon="-3.35849">
        <ele>49</ele>
        <time>2015-02-15T10:17:44Z</time>
      </trkpt>
      <trkpt lat="48.81609" lon="-3.35849">
        <ele>49</ele>
        <time>2015-02-15T10:17:46Z</time>
      </trkpt>
      <trkpt lat="48.81602" lon="-3.35849">
        <ele>49</ele>
        <time>2015-02-15T10:17:47Z</time>
      </trkpt>
      <trkpt lat="48.81595" lon="-3.35849">
        <ele>49</ele>
        <time>2015-02-15T10:17:48Z</time>
      </trkpt>
      <trkpt lat="48.81581" lon="-3.35848">
        <ele>49</ele>
        <time>2015-02-15T10:17:50Z</time>
      </trkpt>
      <trkpt lat="48.81574" lon="-3.35848">
        <ele>49</ele>
        <time>2015-02-15T10:17:51Z</time>
      </trkpt>
      <trkpt lat="48.81567" lon="-3.35847">
        <ele>49</ele>
        <time>2015-02-15T10:17:52Z</time>
      </trkpt>
      <trkpt lat="48.81559" lon="-3.35847">
        <ele>49</ele>
        <time>2015-02-15T10:17:53Z</time>
      </trkpt>
      <trkpt lat="48.81551" lon="-3.35847">
        <ele>49</ele>
        <time>2015-02-15T10:17:54Z</time>
      </trkpt>
      <trkpt lat="48.81544" lon="-3.35847">
        <ele>49</ele>
        <time>2015-02-15T10:17:55Z</time>
      </trkpt>
      <trkpt lat="48.81529" lon="-3.35846">
        <ele>49</ele>
        <time>2015-02-15T10:17:57Z</time>
      </trkpt>
      <trkpt lat="48.81521" lon="-3.35846">
        <ele>49</ele>
        <time>2015-02-15T10:17:58Z</time>
      </trkpt>
      <trkpt lat="48.81513" lon="-3.35846">
        <ele>49</ele>
        <time>2015-02-15T10:17:59Z</time>
      </trkpt>
      <trkpt lat="48.81506" lon="-3.35846">
        <ele>49</ele>
        <time>2015-02-15T10:18:00Z</time>
      </trkpt>
      <trkpt lat="48.81498" lon="-3.35845">
        <ele>49</ele>
        <time>2015-02-15T10:18:01Z</time>
      </trkpt>
      <trkpt lat="48.81491" lon="-3.35845">
        <ele>49</ele>
        <time>2015-02-15T10:18:02Z</time>
      </trkpt>
      <trkpt lat="48.81483" lon="-3.35845">
        <ele>49</ele>
        <time>2015-02-15T10:18:03Z</time>
      </trkpt>
      <trkpt lat="48.81476" lon="-3.35846">
        <ele>49</ele>
        <time>2015-02-15T10:18:04Z</time>
      </trkpt>
      <trkpt lat="48.81469" lon="-3.35847">
        <ele>49</ele>
        <time>2015-02-15T10:18:05Z</time>
      </trkpt>
      <trkpt lat="48.81462" lon="-3.35848">
        <ele>49</ele>
        <time>2015-02-15T10:18:06Z</time>
      </trkpt>
      <trkpt lat="48.81454" lon="-3.35849">
        <ele>49</ele>
        <time>2015-02-15T10:18:07Z</time>
      </trkpt>
      <trkpt lat="48.81448" lon="-3.3585">
        <ele>49</ele>
        <time>2015-02-15T10:18:08Z</time>
      </trkpt>
      <trkpt lat="48.8144" lon="-3.35853">
        <ele>49</ele>
        <time>2015-02-15T10:18:09Z</time>
      </trkpt>
      <trkpt lat="48.81434" lon="-3.35856">
        <ele>49</ele>
        <time>2015-02-15T10:18:10Z</time>
      </trkpt>
      <trkpt lat="48.81427" lon="-3.35859">
        <ele>49</ele>
        <time>2015-02-15T10:18:11Z</time>
      </trkpt>
      <trkpt lat="48.81421" lon="-3.35863">
        <ele>49</ele>
        <time>2015-02-15T10:18:12Z</time>
      </trkpt>
      <trkpt lat="48.81416" lon="-3.35867">
        <ele>49</ele>
        <time>2015-02-15T10:18:13Z</time>
      </trkpt>
      <trkpt lat="48.8141" lon="-3.35872">
        <ele>49</ele>
        <time>2015-02-15T10:18:14Z</time>
      </trkpt>
      <trkpt lat="48.81405" lon="-3.35875">
        <ele>49</ele>
        <time>2015-02-15T10:18:15Z</time>
      </trkpt>
      <trkpt lat="48.81399" lon="-3.35877">
        <ele>49</ele>
        <time>2015-02-15T10:18:16Z</time>
      </trkpt>
      <trkpt lat="48.81394" lon="-3.35879">
        <ele>49</ele>
        <time>2015-02-15T10:18:17Z</time>
      </trkpt>
      <trkpt lat="48.81388" lon="-3.35879">
        <ele>49</ele>
        <time>2015-02-15T10:18:18Z</time>
      </trkpt>
      <trkpt lat="48.81382" lon="-3.35878">
        <ele>49</ele>
        <time>2015-02-15T10:18:19Z</time>
      </trkpt>
      <trkpt lat="48.81377" lon="-3.35876">
        <ele>49</ele>
        <time>2015-02-15T10:18:20Z</time>
      </trkpt>
      <trkpt lat="48.81371" lon="-3.35872">
        <ele>49</ele>
        <time>2015-02-15T10:18:21Z</time>
      </trkpt>
      <trkpt lat="48.81366" lon="-3.35868">
        <ele>49</ele>
        <time>2015-02-15T10:18:22Z</time>
      </trkpt>
      <trkpt lat="48.81361" lon="-3.35863">
        <ele>49</ele>
        <time>2015-02-15T10:18:23Z</time>
      </trkpt>
      <trkpt lat="48.81356" lon="-3.35858">
        <ele>49</ele>
        <time>2015-02-15T10:18:24Z</time>
      </trkpt>
      <trkpt lat="48.81351" lon="-3.35852">
        <ele>49</ele>
        <time>2015-02-15T10:18:25Z</time>
      </trkpt>
      <trkpt lat="48.81347" lon="-3.35848">
        <ele>49</ele>
        <time>2015-02-15T10:18:26Z</time>
      </trkpt>
      <trkpt lat="48.81342" lon="-3.35843">
        <ele>49</ele>
        <time>2015-02-15T10:18:27Z</time>
      </trkpt>
      <trkpt lat="48.81337" lon="-3.35838">
        <ele>49</ele>
        <time>2015-02-15T10:18:28Z</time>
      </trkpt>
      <trkpt lat="48.81332" lon="-3.35833">
        <ele>49</ele>
        <time>2015-02-15T10:18:29Z</time>
      </trkpt>
      <trkpt lat="48.81327" lon="-3.35828">
        <ele>49</ele>
        <time>2015-02-15T10:18:30Z</time>
      </trkpt>
      <trkpt lat="48.81322" lon="-3.35823">
        <ele>49</ele>
        <time>2015-02-15T10:18:31Z</time>
      </trkpt>
      <trkpt lat="48.81317" lon="-3.35819">
        <ele>49</ele>
        <time>2015-02-15T10:18:32Z</time>
      </trkpt>
      <trkpt lat="48.81313" lon="-3.35814">
        <ele>49</ele>
        <time>2015-02-15T10:18:33Z</time>
      </trkpt>
      <trkpt lat="48.81308" lon="-3.35809">
        <ele>49</ele>
        <time>2015-02-15T10:18:34Z</time>
      </trkpt>
      <trkpt lat="48.81304" lon="-3.35805">
        <ele>49</ele>
        <time>2015-02-15T10:18:35Z</time>
      </trkpt>
      <trkpt lat="48.813" lon="-3.358">
        <ele>49</ele>
        <time>2015-02-15T10:18:36Z</time>
      </trkpt>
      <trkpt lat="48.81296" lon="-3.35797">
        <ele>49</ele>
        <time>2015-02-15T10:18:37Z</time>
      </trkpt>
      <trkpt lat="48.81293" lon="-3.35793">
        <ele>49</ele>
        <time>2015-02-15T10:18:38Z</time>
      </trkpt>
      <trkpt lat="48.8129" lon="-3.3579">
        <ele>49</ele>
        <time>2015-02-15T10:18:39Z</time>
      </trkpt>
      <trkpt lat="48.81287" lon="-3.35788">
        <ele>49</ele>
        <time>2015-02-15T10:18:40Z</time>
      </trkpt>
      <trkpt lat="48.81283" lon="-3.35786">
        <ele>49</ele>
        <time>2015-02-15T10:18:41Z</time>
      </trkpt>
      <trkpt lat="48.8128" lon="-3.35783">
        <ele>50</ele>
        <time>2015-02-15T10:18:42Z</time>
      </trkpt>
      <trkpt lat="48.81277" lon="-3.35781">
        <ele>50</ele>
        <time>2015-02-15T10:18:43Z</time>
      </trkpt>
      <trkpt lat="48.81274" lon="-3.35777">
        <ele>50</ele>
        <time>2015-02-15T10:18:44Z</time>
      </trkpt>
      <trkpt lat="48.81271" lon="-3.35773">
        <ele>50</ele>
        <time>2015-02-15T10:18:45Z</time>
      </trkpt>
      <trkpt lat="48.81268" lon="-3.35767">
        <ele>50</ele>
        <time>2015-02-15T10:18:46Z</time>
      </trkpt>
      <trkpt lat="48.81265" lon="-3.35761">
        <ele>50</ele>
        <time>2015-02-15T10:18:47Z</time>
      </trkpt>
      <trkpt lat="48.81263" lon="-3.35753">
        <ele>50</ele>
        <time>2015-02-15T10:18:48Z</time>
      </trkpt>
      <trkpt lat="48.8126" lon="-3.35745">
        <ele>50</ele>
        <time>2015-02-15T10:18:49Z</time>
      </trkpt>
      <trkpt lat="48.81258" lon="-3.35736">
        <ele>50</ele>
        <time>2015-02-15T10:18:50Z</time>
      </trkpt>
      <trkpt lat="48.81255" lon="-3.35727">
        <ele>50</ele>
        <time>2015-02-15T10:18:51Z</time>
      </trkpt>
      <trkpt lat="48.81251" lon="-3.35718">
        <ele>50</ele>
        <time>2015-02-15T10:18:52Z</time>
      </trkpt>
      <trkpt lat="48.81247" lon="-3.35709">
        <ele>50</ele>
        <time>2015-02-15T10:18:53Z</time>
      </trkpt>
      <trkpt lat="48.81243" lon="-3.357">
        <ele>50</ele>
        <time>2015-02-15T10:18:54Z</time>
      </trkpt>
      <trkpt lat="48.81239" lon="-3.35692">
        <ele>50</ele>
        <time>2015-02-15T10:18:55Z</time>
      </trkpt>
      <trkpt lat="48.81234" lon="-3.35684">
        <ele>50</ele>
        <time>2015-02-15T10:18:56Z</time>
      </trkpt>
      <trkpt lat="48.81229" lon="-3.35676">
        <ele>50</ele>
        <time>2015-02-15T10:18:57Z</time>
      </trkpt>
      <trkpt lat="48.81223" lon="-3.3567">
        <ele>50</ele>
        <time>2015-02-15T10:18:58Z</time>
      </trkpt>
      <trkpt lat="48.81217" lon="-3.35664">
        <ele>50</ele>
        <time>2015-02-15T10:18:59Z</time>
      </trkpt>
      <trkpt lat="48.8121" lon="-3.35659">
        <ele>50</ele>
        <time>2015-02-15T10:19:00Z</time>
      </trkpt>
      <trkpt lat="48.81204" lon="-3.35654">
        <ele>50</ele>
        <time>2015-02-15T10:19:01Z</time>
      </trkpt>
      <trkpt lat="48.81197" lon="-3.35649">
        <ele>50</ele>
        <time>2015-02-15T10:19:02Z</time>
      </trkpt>
      <trkpt lat="48.81191" lon="-3.35645">
        <ele>50</ele>
        <time>2015-02-15T10:19:03Z</time>
      </trkpt>
      <trkpt lat="48.81185" lon="-3.35641">
        <ele>50</ele>
        <time>2015-02-15T10:19:04Z</time>
      </trkpt>
      <trkpt lat="48.81179" lon="-3.35638">
        <ele>50</ele>
        <time>2015-02-15T10:19:05Z</time>
      </trkpt>
      <trkpt lat="48.81173" lon="-3.35634">
        <ele>50</ele>
        <time>2015-02-15T10:19:06Z</time>
      </trkpt>
      <trkpt lat="48.81168" lon="-3.35631">
        <ele>50</ele>
        <time>2015-02-15T10:19:07Z</time>
      </trkpt>
      <trkpt lat="48.81162" lon="-3.35627">
        <ele>50</ele>
        <time>2015-02-15T10:19:08Z</time>
      </trkpt>
      <trkpt lat="48.81157" lon="-3.35623">
        <ele>50</ele>
        <time>2015-02-15T10:19:09Z</time>
      </trkpt>
      <trkpt lat="48.81152" lon="-3.3562">
        <ele>50</ele>
        <time>2015-02-15T10:19:10Z</time>
      </trkpt>
      <trkpt lat="48.81147" lon="-3.35616">
        <ele>50</ele>
        <time>2015-02-15T10:19:11Z</time>
      </trkpt>
      <trkpt lat="48.81141" lon="-3.35613">
        <ele>50</ele>
        <time>2015-02-15T10:19:12Z</time>
      </trkpt>
      <trkpt lat="48.81136" lon="-3.3561">
        <ele>50</ele>
        <time>2015-02-15T10:19:13Z</time>
      </trkpt>
      <trkpt lat="48.81132" lon="-3.35607">
        <ele>50</ele>
        <time>2015-02-15T10:19:14Z</time>
      </trkpt>
      <trkpt lat="48.81128" lon="-3.35604">
        <ele>50</ele>
        <time>2015-02-15T10:19:15Z</time>
      </trkpt>
      <trkpt lat="48.81123" lon="-3.35601">
        <ele>50</ele>
        <time>2015-02-15T10:19:16Z</time>
      </trkpt>
      <trkpt lat="48.81119" lon="-3.35598">
        <ele>50</ele>
        <time>2015-02-15T10:19:17Z</time>
      </trkpt>
      <trkpt lat="48.81114" lon="-3.35595">
        <ele>51</ele>
        <time>2015-02-15T10:19:18Z</time>
      </trkpt>
      <trkpt lat="48.8111" lon="-3.35593">
        <ele>51</ele>
        <time>2015-02-15T10:19:19Z</time>
      </trkpt>
      <trkpt lat="48.81105" lon="-3.3559">
        <ele>51</ele>
        <time>2015-02-15T10:19:20Z</time>
      </trkpt>
      <trkpt lat="48.81101" lon="-3.35587">
        <ele>51</ele>
        <time>2015-02-15T10:19:21Z</time>
      </trkpt>
      <trkpt lat="48.81097" lon="-3.35584">
        <ele>52</ele>
        <time>2015-02-15T10:19:22Z</time>
      </trkpt>
      <trkpt lat="48.81092" lon="-3.35581">
        <ele>52</ele>
        <time>2015-02-15T10:19:23Z</time>
      </trkpt>
      <trkpt lat="48.81088" lon="-3.35578">
        <ele>52</ele>
        <time>2015-02-15T10:19:24Z</time>
      </trkpt>
      <trkpt lat="48.81084" lon="-3.35575">
        <ele>53</ele>
        <time>2015-02-15T10:19:25Z</time>
      </trkpt>
      <trkpt lat="48.81079" lon="-3.35573">
        <ele>53</ele>
        <time>2015-02-15T10:19:26Z</time>
      </trkpt>
      <trkpt lat="48.81076" lon="-3.3557">
        <ele>53</ele>
        <time>2015-02-15T10:19:27Z</time>
      </trkpt>
      <trkpt lat="48.81071" lon="-3.35567">
        <ele>54</ele>
        <time>2015-02-15T10:19:28Z</time>
      </trkpt>
      <trkpt lat="48.81068" lon="-3.35565">
        <ele>54</ele>
        <time>2015-02-15T10:19:29Z</time>
      </trkpt>
      <trkpt lat="48.81064" lon="-3.35562">
        <ele>54</ele>
        <time>2015-02-15T10:19:30Z</time>
      </trkpt>
      <trkpt lat="48.8106" lon="-3.3556">
        <ele>54</ele>
        <time>2015-02-15T10:19:31Z</time>
      </trkpt>
      <trkpt lat="48.81056" lon="-3.35558">
        <ele>55</ele>
        <time>2015-02-15T10:19:32Z</time>
      </trkpt>
      <trkpt lat="48.81052" lon="-3.35556">
        <ele>55</ele>
        <time>2015-02-15T10:19:33Z</time>
      </trkpt>
      <trkpt lat="48.81049" lon="-3.35554">
        <ele>55</ele>
        <time>2015-02-15T10:19:34Z</time>
      </trkpt>
      <trkpt lat="48.81045" lon="-3.35552">
        <ele>55</ele>
        <time>2015-02-15T10:19:35Z</time>
      </trkpt>
      <trkpt lat="48.81041" lon="-3.35549">
        <ele>56</ele>
        <time>2015-02-15T10:19:36Z</time>
      </trkpt>
      <trkpt lat="48.81037" lon="-3.35547">
        <ele>56</ele>
        <time>2015-02-15T10:19:37Z</time>
      </trkpt>
      <trkpt lat="48.81033" lon="-3.35544">
        <ele>56</ele>
        <time>2015-02-15T10:19:38Z</time>
      </trkpt>
      <trkpt lat="48.81029" lon="-3.35541">
        <ele>56</ele>
        <time>2015-02-15T10:19:39Z</time>
      </trkpt>
      <trkpt lat="48.81025" lon="-3.35538">
        <ele>56</ele>
        <time>2015-02-15T10:19:40Z</time>
      </trkpt>
      <trkpt lat="48.8102" lon="-3.35535">
        <ele>56</ele>
        <time>2015-02-15T10:19:41Z</time>
      </trkpt>
      <trkpt lat="48.81017" lon="-3.35532">
        <ele>57</ele>
        <time>2015-02-15T10:19:42Z</time>
      </trkpt>
      <trkpt lat="48.81013" lon="-3.35529">
        <ele>57</ele>
        <time>2015-02-15T10:19:43Z</time>
      </trkpt>
      <trkpt lat="48.81009" lon="-3.35526">
        <ele>57</ele>
        <time>2015-02-15T10:19:44Z</time>
      </trkpt>
      <trkpt lat="48.81005" lon="-3.35522">
        <ele>57</ele>
        <time>2015-02-15T10:19:45Z</time>
      </trkpt>
      <trkpt lat="48.81002" lon="-3.35519">
        <ele>57</ele>
        <time>2015-02-15T10:19:46Z</time>
      </trkpt>
      <trkpt lat="48.80999" lon="-3.35515">
        <ele>57</ele>
        <time>2015-02-15T10:19:47Z</time>
      </trkpt>
      <trkpt lat="48.80995" lon="-3.35511">
        <ele>57</ele>
        <time>2015-02-15T10:19:48Z</time>
      </trkpt>
      <trkpt lat="48.80992" lon="-3.35508">
        <ele>57</ele>
        <time>2015-02-15T10:19:49Z</time>
      </trkpt>
      <trkpt lat="48.80989" lon="-3.35504">
        <ele>57</ele>
        <time>2015-02-15T10:19:50Z</time>
      </trkpt>
      <trkpt lat="48.80985" lon="-3.355">
        <ele>57</ele>
        <time>2015-02-15T10:19:51Z</time>
      </trkpt>
      <trkpt lat="48.80982" lon="-3.35496">
        <ele>57</ele>
        <time>2015-02-15T10:19:52Z</time>
      </trkpt>
      <trkpt lat="48.80979" lon="-3.35491">
        <ele>57</ele>
        <time>2015-02-15T10:19:53Z</time>
      </trkpt>
      <trkpt lat="48.80975" lon="-3.35486">
        <ele>57</ele>
        <time>2015-02-15T10:19:54Z</time>
      </trkpt>
      <trkpt lat="48.80971" lon="-3.35481">
        <ele>57</ele>
        <time>2015-02-15T10:19:55Z</time>
      </trkpt>
      <trkpt lat="48.80967" lon="-3.35475">
        <ele>57</ele>
        <time>2015-02-15T10:19:56Z</time>
      </trkpt>
      <trkpt lat="48.80963" lon="-3.3547">
        <ele>57</ele>
        <time>2015-02-15T10:19:57Z</time>
      </trkpt>
      <trkpt lat="48.80959" lon="-3.35465">
        <ele>57</ele>
        <time>2015-02-15T10:19:58Z</time>
      </trkpt>
      <trkpt lat="48.80955" lon="-3.3546">
        <ele>57</ele>
        <time>2015-02-15T10:19:59Z</time>
      </trkpt>
      <trkpt lat="48.80952" lon="-3.35455">
        <ele>57</ele>
        <time>2015-02-15T10:20:00Z</time>
      </trkpt>
      <trkpt lat="48.80948" lon="-3.3545">
        <ele>57</ele>
        <time>2015-02-15T10:20:01Z</time>
      </trkpt>
      <trkpt lat="48.80944" lon="-3.35445">
        <ele>57</ele>
        <time>2015-02-15T10:20:02Z</time>
      </trkpt>
      <trkpt lat="48.80941" lon="-3.3544">
        <ele>57</ele>
        <time>2015-02-15T10:20:03Z</time>
      </trkpt>
      <trkpt lat="48.80937" lon="-3.35435">
        <ele>57</ele>
        <time>2015-02-15T10:20:04Z</time>
      </trkpt>
      <trkpt lat="48.80933" lon="-3.3543">
        <ele>57</ele>
        <time>2015-02-15T10:20:05Z</time>
      </trkpt>
      <trkpt lat="48.80929" lon="-3.35425">
        <ele>57</ele>
        <time>2015-02-15T10:20:06Z</time>
      </trkpt>
      <trkpt lat="48.80924" lon="-3.3542">
        <ele>57</ele>
        <time>2015-02-15T10:20:07Z</time>
      </trkpt>
      <trkpt lat="48.8092" lon="-3.35415">
        <ele>57</ele>
        <time>2015-02-15T10:20:08Z</time>
      </trkpt>
      <trkpt lat="48.80916" lon="-3.3541">
        <ele>57</ele>
        <time>2015-02-15T10:20:09Z</time>
      </trkpt>
      <trkpt lat="48.80912" lon="-3.35404">
        <ele>57</ele>
        <time>2015-02-15T10:20:10Z</time>
      </trkpt>
      <trkpt lat="48.80909" lon="-3.354">
        <ele>57</ele>
        <time>2015-02-15T10:20:11Z</time>
      </trkpt>
      <trkpt lat="48.80905" lon="-3.35395">
        <ele>57</ele>
        <time>2015-02-15T10:20:12Z</time>
      </trkpt>
      <trkpt lat="48.80901" lon="-3.3539">
        <ele>57</ele>
        <time>2015-02-15T10:20:13Z</time>
      </trkpt>
      <trkpt lat="48.80897" lon="-3.35385">
        <ele>57</ele>
        <time>2015-02-15T10:20:14Z</time>
      </trkpt>
      <trkpt lat="48.80893" lon="-3.3538">
        <ele>57</ele>
        <time>2015-02-15T10:20:15Z</time>
      </trkpt>
      <trkpt lat="48.80889" lon="-3.35375">
        <ele>57</ele>
        <time>2015-02-15T10:20:16Z</time>
      </trkpt>
      <trkpt lat="48.80885" lon="-3.35369">
        <ele>57</ele>
        <time>2015-02-15T10:20:17Z</time>
      </trkpt>
      <trkpt lat="48.8088" lon="-3.35364">
        <ele>57</ele>
        <time>2015-02-15T10:20:18Z</time>
      </trkpt>
      <trkpt lat="48.80876" lon="-3.35358">
        <ele>57</ele>
        <time>2015-02-15T10:20:19Z</time>
      </trkpt>
      <trkpt lat="48.80871" lon="-3.35352">
        <ele>57</ele>
        <time>2015-02-15T10:20:20Z</time>
      </trkpt>
      <trkpt lat="48.80867" lon="-3.35347">
        <ele>57</ele>
        <time>2015-02-15T10:20:21Z</time>
      </trkpt>
      <trkpt lat="48.80862" lon="-3.35341">
        <ele>57</ele>
        <time>2015-02-15T10:20:22Z</time>
      </trkpt>
      <trkpt lat="48.80858" lon="-3.35335">
        <ele>58</ele>
        <time>2015-02-15T10:20:23Z</time>
      </trkpt>
      <trkpt lat="48.80854" lon="-3.3533">
        <ele>58</ele>
        <time>2015-02-15T10:20:24Z</time>
      </trkpt>
      <trkpt lat="48.8085" lon="-3.35324">
        <ele>58</ele>
        <time>2015-02-15T10:20:25Z</time>
      </trkpt>
      <trkpt lat="48.80846" lon="-3.35319">
        <ele>59</ele>
        <time>2015-02-15T10:20:26Z</time>
      </trkpt>
      <trkpt lat="48.80842" lon="-3.35313">
        <ele>59</ele>
        <time>2015-02-15T10:20:27Z</time>
      </trkpt>
      <trkpt lat="48.80838" lon="-3.35307">
        <ele>59</ele>
        <time>2015-02-15T10:20:28Z</time>
      </trkpt>
      <trkpt lat="48.80833" lon="-3.35302">
        <ele>59</ele>
        <time>2015-02-15T10:20:29Z</time>
      </trkpt>
      <trkpt lat="48.80829" lon="-3.35297">
        <ele>59</ele>
        <time>2015-02-15T10:20:30Z</time>
      </trkpt>
      <trkpt lat="48.80825" lon="-3.35291">
        <ele>59</ele>
        <time>2015-02-15T10:20:31Z</time>
      </trkpt>
      <trkpt lat="48.8082" lon="-3.35285">
        <ele>59</ele>
        <time>2015-02-15T10:20:32Z</time>
      </trkpt>
      <trkpt lat="48.80816" lon="-3.35279">
        <ele>60</ele>
        <time>2015-02-15T10:20:33Z</time>
      </trkpt>
      <trkpt lat="48.80812" lon="-3.35274">
        <ele>60</ele>
        <time>2015-02-15T10:20:34Z</time>
      </trkpt>
      <trkpt lat="48.80807" lon="-3.35269">
        <ele>60</ele>
        <time>2015-02-15T10:20:35Z</time>
      </trkpt>
      <trkpt lat="48.80803" lon="-3.35264">
        <ele>60</ele>
        <time>2015-02-15T10:20:36Z</time>
      </trkpt>
      <trkpt lat="48.80799" lon="-3.3526">
        <ele>60</ele>
        <time>2015-02-15T10:20:37Z</time>
      </trkpt>
      <trkpt lat="48.80794" lon="-3.35256">
        <ele>60</ele>
        <time>2015-02-15T10:20:38Z</time>
      </trkpt>
      <trkpt lat="48.8079" lon="-3.35252">
        <ele>60</ele>
        <time>2015-02-15T10:20:39Z</time>
      </trkpt>
      <trkpt lat="48.80785" lon="-3.35248">
        <ele>60</ele>
        <time>2015-02-15T10:20:40Z</time>
      </trkpt>
      <trkpt lat="48.80781" lon="-3.35244">
        <ele>60</ele>
        <time>2015-02-15T10:20:41Z</time>
      </trkpt>
      <trkpt lat="48.80776" lon="-3.35241">
        <ele>61</ele>
        <time>2015-02-15T10:20:42Z</time>
      </trkpt>
      <trkpt lat="48.80771" lon="-3.35238">
        <ele>61</ele>
        <time>2015-02-15T10:20:43Z</time>
      </trkpt>
      <trkpt lat="48.80766" lon="-3.35234">
        <ele>61</ele>
        <time>2015-02-15T10:20:44Z</time>
      </trkpt>
      <trkpt lat="48.80761" lon="-3.35231">
        <ele>61</ele>
        <time>2015-02-15T10:20:45Z</time>
      </trkpt>
      <trkpt lat="48.80757" lon="-3.35228">
        <ele>62</ele>
        <time>2015-02-15T10:20:46Z</time>
      </trkpt>
      <trkpt lat="48.80751" lon="-3.35226">
        <ele>62</ele>
        <time>2015-02-15T10:20:47Z</time>
      </trkpt>
      <trkpt lat="48.80746" lon="-3.35224">
        <ele>62</ele>
        <time>2015-02-15T10:20:48Z</time>
      </trkpt>
      <trkpt lat="48.80741" lon="-3.35222">
        <ele>62</ele>
        <time>2015-02-15T10:20:49Z</time>
      </trkpt>
      <trkpt lat="48.80735" lon="-3.3522">
        <ele>63</ele>
        <time>2015-02-15T10:20:50Z</time>
      </trkpt>
      <trkpt lat="48.8073" lon="-3.35218">
        <ele>63</ele>
        <time>2015-02-15T10:20:51Z</time>
      </trkpt>
      <trkpt lat="48.80724" lon="-3.35217">
        <ele>63</ele>
        <time>2015-02-15T10:20:52Z</time>
      </trkpt>
      <trkpt lat="48.80719" lon="-3.35216">
        <ele>63</ele>
        <time>2015-02-15T10:20:53Z</time>
      </trkpt>
      <trkpt lat="48.80713" lon="-3.35215">
        <ele>63</ele>
        <time>2015-02-15T10:20:54Z</time>
      </trkpt>
      <trkpt lat="48.80707" lon="-3.35214">
        <ele>64</ele>
        <time>2015-02-15T10:20:55Z</time>
      </trkpt>
      <trkpt lat="48.80701" lon="-3.35213">
        <ele>64</ele>
        <time>2015-02-15T10:20:56Z</time>
      </trkpt>
      <trkpt lat="48.80695" lon="-3.35212">
        <ele>64</ele>
        <time>2015-02-15T10:20:57Z</time>
      </trkpt>
      <trkpt lat="48.8069" lon="-3.35212">
        <ele>64</ele>
        <time>2015-02-15T10:20:58Z</time>
      </trkpt>
      <trkpt lat="48.80684" lon="-3.35211">
        <ele>64</ele>
        <time>2015-02-15T10:20:59Z</time>
      </trkpt>
      <trkpt lat="48.80678" lon="-3.3521">
        <ele>64</ele>
        <time>2015-02-15T10:21:00Z</time>
      </trkpt>
      <trkpt lat="48.80671" lon="-3.3521">
        <ele>64</ele>
        <time>2015-02-15T10:21:01Z</time>
      </trkpt>
      <trkpt lat="48.80665" lon="-3.35209">
        <ele>64</ele>
        <time>2015-02-15T10:21:02Z</time>
      </trkpt>
      <trkpt lat="48.80658" lon="-3.35208">
        <ele>64</ele>
        <time>2015-02-15T10:21:03Z</time>
      </trkpt>
      <trkpt lat="48.80652" lon="-3.35208">
        <ele>64</ele>
        <time>2015-02-15T10:21:04Z</time>
      </trkpt>
      <trkpt lat="48.80645" lon="-3.35207">
        <ele>64</ele>
        <time>2015-02-15T10:21:05Z</time>
      </trkpt>
      <trkpt lat="48.80638" lon="-3.35206">
        <ele>64</ele>
        <time>2015-02-15T10:21:06Z</time>
      </trkpt>
      <trkpt lat="48.80632" lon="-3.35206">
        <ele>64</ele>
        <time>2015-02-15T10:21:07Z</time>
      </trkpt>
      <trkpt lat="48.80625" lon="-3.35205">
        <ele>64</ele>
        <time>2015-02-15T10:21:08Z</time>
      </trkpt>
      <trkpt lat="48.80618" lon="-3.35204">
        <ele>64</ele>
        <time>2015-02-15T10:21:09Z</time>
      </trkpt>
      <trkpt lat="48.80611" lon="-3.35203">
        <ele>64</ele>
        <time>2015-02-15T10:21:10Z</time>
      </trkpt>
      <trkpt lat="48.80604" lon="-3.35203">
        <ele>64</ele>
        <time>2015-02-15T10:21:11Z</time>
      </trkpt>
      <trkpt lat="48.80597" lon="-3.35202">
        <ele>64</ele>
        <time>2015-02-15T10:21:12Z</time>
      </trkpt>
      <trkpt lat="48.8059" lon="-3.35201">
        <ele>64</ele>
        <time>2015-02-15T10:21:13Z</time>
      </trkpt>
      <trkpt lat="48.80582" lon="-3.352">
        <ele>64</ele>
        <time>2015-02-15T10:21:14Z</time>
      </trkpt>
      <trkpt lat="48.80574" lon="-3.35199">
        <ele>64</ele>
        <time>2015-02-15T10:21:15Z</time>
      </trkpt>
      <trkpt lat="48.80567" lon="-3.35198">
        <ele>64</ele>
        <time>2015-02-15T10:21:16Z</time>
      </trkpt>
      <trkpt lat="48.80559" lon="-3.35197">
        <ele>64</ele>
        <time>2015-02-15T10:21:17Z</time>
      </trkpt>
      <trkpt lat="48.80551" lon="-3.35196">
        <ele>64</ele>
        <time>2015-02-15T10:21:18Z</time>
      </trkpt>
      <trkpt lat="48.80543" lon="-3.35195">
        <ele>64</ele>
        <time>2015-02-15T10:21:19Z</time>
      </trkpt>
      <trkpt lat="48.80536" lon="-3.35194">
        <ele>64</ele>
        <time>2015-02-15T10:21:20Z</time>
      </trkpt>
      <trkpt lat="48.80528" lon="-3.35193">
        <ele>64</ele>
        <time>2015-02-15T10:21:21Z</time>
      </trkpt>
      <trkpt lat="48.8052" lon="-3.35192">
        <ele>64</ele>
        <time>2015-02-15T10:21:22Z</time>
      </trkpt>
      <trkpt lat="48.80512" lon="-3.35191">
        <ele>64</ele>
        <time>2015-02-15T10:21:23Z</time>
      </trkpt>
      <trkpt lat="48.80505" lon="-3.3519">
        <ele>64</ele>
        <time>2015-02-15T10:21:24Z</time>
      </trkpt>
      <trkpt lat="48.80497" lon="-3.35189">
        <ele>64</ele>
        <time>2015-02-15T10:21:25Z</time>
      </trkpt>
      <trkpt lat="48.80489" lon="-3.35188">
        <ele>64</ele>
        <time>2015-02-15T10:21:26Z</time>
      </trkpt>
      <trkpt lat="48.80481" lon="-3.35188">
        <ele>64</ele>
        <time>2015-02-15T10:21:27Z</time>
      </trkpt>
      <trkpt lat="48.80474" lon="-3.35187">
        <ele>64</ele>
        <time>2015-02-15T10:21:28Z</time>
      </trkpt>
      <trkpt lat="48.80466" lon="-3.35186">
        <ele>64</ele>
        <time>2015-02-15T10:21:29Z</time>
      </trkpt>
      <trkpt lat="48.80459" lon="-3.35185">
        <ele>64</ele>
        <time>2015-02-15T10:21:30Z</time>
      </trkpt>
      <trkpt lat="48.80452" lon="-3.35184">
        <ele>64</ele>
        <time>2015-02-15T10:21:31Z</time>
      </trkpt>
      <trkpt lat="48.80444" lon="-3.35183">
        <ele>64</ele>
        <time>2015-02-15T10:21:32Z</time>
      </trkpt>
      <trkpt lat="48.80437" lon="-3.35182">
        <ele>64</ele>
        <time>2015-02-15T10:21:33Z</time>
      </trkpt>
      <trkpt lat="48.8043" lon="-3.35181">
        <ele>64</ele>
        <time>2015-02-15T10:21:34Z</time>
      </trkpt>
      <trkpt lat="48.80423" lon="-3.3518">
        <ele>64</ele>
        <time>2015-02-15T10:21:36Z</time>
      </trkpt>
      <trkpt lat="48.80416" lon="-3.35179">
        <ele>64</ele>
        <time>2015-02-15T10:21:36Z</time>
      </trkpt>
      <trkpt lat="48.8041" lon="-3.35178">
        <ele>64</ele>
        <time>2015-02-15T10:21:37Z</time>
      </trkpt>
      <trkpt lat="48.80403" lon="-3.35177">
        <ele>65</ele>
        <time>2015-02-15T10:21:38Z</time>
      </trkpt>
      <trkpt lat="48.80397" lon="-3.35176">
        <ele>65</ele>
        <time>2015-02-15T10:21:39Z</time>
      </trkpt>
      <trkpt lat="48.8039" lon="-3.35175">
        <ele>65</ele>
        <time>2015-02-15T10:21:40Z</time>
      </trkpt>
      <trkpt lat="48.80384" lon="-3.35174">
        <ele>65</ele>
        <time>2015-02-15T10:21:41Z</time>
      </trkpt>
      <trkpt lat="48.80377" lon="-3.35174">
        <ele>66</ele>
        <time>2015-02-15T10:21:42Z</time>
      </trkpt>
      <trkpt lat="48.80371" lon="-3.35172">
        <ele>66</ele>
        <time>2015-02-15T10:21:43Z</time>
      </trkpt>
      <trkpt lat="48.80364" lon="-3.35171">
        <ele>66</ele>
        <time>2015-02-15T10:21:44Z</time>
      </trkpt>
      <trkpt lat="48.80357" lon="-3.3517">
        <ele>66</ele>
        <time>2015-02-15T10:21:45Z</time>
      </trkpt>
      <trkpt lat="48.80351" lon="-3.35168">
        <ele>67</ele>
        <time>2015-02-15T10:21:46Z</time>
      </trkpt>
      <trkpt lat="48.80344" lon="-3.35167">
        <ele>67</ele>
        <time>2015-02-15T10:21:47Z</time>
      </trkpt>
      <trkpt lat="48.80338" lon="-3.35165">
        <ele>67</ele>
        <time>2015-02-15T10:21:48Z</time>
      </trkpt>
      <trkpt lat="48.80331" lon="-3.35163">
        <ele>68</ele>
        <time>2015-02-15T10:21:49Z</time>
      </trkpt>
      <trkpt lat="48.80325" lon="-3.35161">
        <ele>68</ele>
        <time>2015-02-15T10:21:50Z</time>
      </trkpt>
      <trkpt lat="48.80318" lon="-3.35159">
        <ele>68</ele>
        <time>2015-02-15T10:21:51Z</time>
      </trkpt>
      <trkpt lat="48.80312" lon="-3.35157">
        <ele>68</ele>
        <time>2015-02-15T10:21:52Z</time>
      </trkpt>
      <trkpt lat="48.80305" lon="-3.35155">
        <ele>69</ele>
        <time>2015-02-15T10:21:53Z</time>
      </trkpt>
      <trkpt lat="48.80298" lon="-3.35153">
        <ele>69</ele>
        <time>2015-02-15T10:21:54Z</time>
      </trkpt>
      <trkpt lat="48.80291" lon="-3.35151">
        <ele>69</ele>
        <time>2015-02-15T10:21:55Z</time>
      </trkpt>
      <trkpt lat="48.80284" lon="-3.35149">
        <ele>69</ele>
        <time>2015-02-15T10:21:56Z</time>
      </trkpt>
      <trkpt lat="48.80276" lon="-3.35147">
        <ele>69</ele>
        <time>2015-02-15T10:21:57Z</time>
      </trkpt>
      <trkpt lat="48.80269" lon="-3.35145">
        <ele>69</ele>
        <time>2015-02-15T10:21:58Z</time>
      </trkpt>
      <trkpt lat="48.80262" lon="-3.35142">
        <ele>70</ele>
        <time>2015-02-15T10:21:59Z</time>
      </trkpt>
      <trkpt lat="48.80255" lon="-3.3514">
        <ele>70</ele>
        <time>2015-02-15T10:22:00Z</time>
      </trkpt>
      <trkpt lat="48.80248" lon="-3.35138">
        <ele>70</ele>
        <time>2015-02-15T10:22:01Z</time>
      </trkpt>
      <trkpt lat="48.80241" lon="-3.35136">
        <ele>70</ele>
        <time>2015-02-15T10:22:02Z</time>
      </trkpt>
      <trkpt lat="48.80233" lon="-3.35134">
        <ele>70</ele>
        <time>2015-02-15T10:22:03Z</time>
      </trkpt>
      <trkpt lat="48.80226" lon="-3.35132">
        <ele>70</ele>
        <time>2015-02-15T10:22:04Z</time>
      </trkpt>
      <trkpt lat="48.80218" lon="-3.35129">
        <ele>70</ele>
        <time>2015-02-15T10:22:05Z</time>
      </trkpt>
      <trkpt lat="48.80211" lon="-3.35127">
        <ele>70</ele>
        <time>2015-02-15T10:22:06Z</time>
      </trkpt>
      <trkpt lat="48.80204" lon="-3.35124">
        <ele>71</ele>
        <time>2015-02-15T10:22:07Z</time>
      </trkpt>
      <trkpt lat="48.80196" lon="-3.35122">
        <ele>71</ele>
        <time>2015-02-15T10:22:08Z</time>
      </trkpt>
      <trkpt lat="48.80189" lon="-3.35118">
        <ele>71</ele>
        <time>2015-02-15T10:22:09Z</time>
      </trkpt>
      <trkpt lat="48.80182" lon="-3.35115">
        <ele>71</ele>
        <time>2015-02-15T10:22:10Z</time>
      </trkpt>
      <trkpt lat="48.80175" lon="-3.3511">
        <ele>71</ele>
        <time>2015-02-15T10:22:11Z</time>
      </trkpt>
      <trkpt lat="48.80168" lon="-3.35106">
        <ele>71</ele>
        <time>2015-02-15T10:22:12Z</time>
      </trkpt>
      <trkpt lat="48.80161" lon="-3.35102">
        <ele>71</ele>
        <time>2015-02-15T10:22:13Z</time>
      </trkpt>
      <trkpt lat="48.80154" lon="-3.35097">
        <ele>72</ele>
        <time>2015-02-15T10:22:14Z</time>
      </trkpt>
      <trkpt lat="48.80148" lon="-3.35091">
        <ele>72</ele>
        <time>2015-02-15T10:22:15Z</time>
      </trkpt>
      <trkpt lat="48.80141" lon="-3.35085">
        <ele>72</ele>
        <time>2015-02-15T10:22:16Z</time>
      </trkpt>
      <trkpt lat="48.80135" lon="-3.35079">
        <ele>72</ele>
        <time>2015-02-15T10:22:17Z</time>
      </trkpt>
      <trkpt lat="48.80129" lon="-3.35072">
        <ele>72</ele>
        <time>2015-02-15T10:22:18Z</time>
      </trkpt>
      <trkpt lat="48.80124" lon="-3.35065">
        <ele>72</ele>
        <time>2015-02-15T10:22:19Z</time>
      </trkpt>
      <trkpt lat="48.80118" lon="-3.35058">
        <ele>72</ele>
        <time>2015-02-15T10:22:20Z</time>
      </trkpt>
      <trkpt lat="48.80113" lon="-3.3505">
        <ele>73</ele>
        <time>2015-02-15T10:22:21Z</time>
      </trkpt>
      <trkpt lat="48.80108" lon="-3.35043">
        <ele>73</ele>
        <time>2015-02-15T10:22:22Z</time>
      </trkpt>
      <trkpt lat="48.80103" lon="-3.35035">
        <ele>73</ele>
        <time>2015-02-15T10:22:23Z</time>
      </trkpt>
      <trkpt lat="48.80098" lon="-3.35027">
        <ele>73</ele>
        <time>2015-02-15T10:22:24Z</time>
      </trkpt>
      <trkpt lat="48.80093" lon="-3.35019">
        <ele>73</ele>
        <time>2015-02-15T10:22:25Z</time>
      </trkpt>
      <trkpt lat="48.80088" lon="-3.35011">
        <ele>73</ele>
        <time>2015-02-15T10:22:26Z</time>
      </trkpt>
      <trkpt lat="48.80083" lon="-3.35004">
        <ele>74</ele>
        <time>2015-02-15T10:22:27Z</time>
      </trkpt>
      <trkpt lat="48.80079" lon="-3.34996">
        <ele>74</ele>
        <time>2015-02-15T10:22:28Z</time>
      </trkpt>
      <trkpt lat="48.80074" lon="-3.34988">
        <ele>74</ele>
        <time>2015-02-15T10:22:29Z</time>
      </trkpt>
      <trkpt lat="48.80069" lon="-3.34981">
        <ele>75</ele>
        <time>2015-02-15T10:22:30Z</time>
      </trkpt>
      <trkpt lat="48.80064" lon="-3.34973">
        <ele>75</ele>
        <time>2015-02-15T10:22:31Z</time>
      </trkpt>
      <trkpt lat="48.80059" lon="-3.34964">
        <ele>75</ele>
        <time>2015-02-15T10:22:32Z</time>
      </trkpt>
      <trkpt lat="48.80055" lon="-3.34956">
        <ele>75</ele>
        <time>2015-02-15T10:22:33Z</time>
      </trkpt>
      <trkpt lat="48.8005" lon="-3.34948">
        <ele>76</ele>
        <time>2015-02-15T10:22:34Z</time>
      </trkpt>
      <trkpt lat="48.80045" lon="-3.34939">
        <ele>76</ele>
        <time>2015-02-15T10:22:35Z</time>
      </trkpt>
      <trkpt lat="48.8004" lon="-3.34931">
        <ele>76</ele>
        <time>2015-02-15T10:22:36Z</time>
      </trkpt>
      <trkpt lat="48.80035" lon="-3.34923">
        <ele>76</ele>
        <time>2015-02-15T10:22:37Z</time>
      </trkpt>
      <trkpt lat="48.8003" lon="-3.34915">
        <ele>76</ele>
        <time>2015-02-15T10:22:38Z</time>
      </trkpt>
      <trkpt lat="48.80025" lon="-3.34907">
        <ele>76</ele>
        <time>2015-02-15T10:22:39Z</time>
      </trkpt>
      <trkpt lat="48.80021" lon="-3.34899">
        <ele>77</ele>
        <time>2015-02-15T10:22:40Z</time>
      </trkpt>
      <trkpt lat="48.80016" lon="-3.34891">
        <ele>77</ele>
        <time>2015-02-15T10:22:41Z</time>
      </trkpt>
      <trkpt lat="48.80011" lon="-3.34884">
        <ele>77</ele>
        <time>2015-02-15T10:22:42Z</time>
      </trkpt>
      <trkpt lat="48.80007" lon="-3.34876">
        <ele>77</ele>
        <time>2015-02-15T10:22:43Z</time>
      </trkpt>
      <trkpt lat="48.80002" lon="-3.34869">
        <ele>77</ele>
        <time>2015-02-15T10:22:44Z</time>
      </trkpt>
      <trkpt lat="48.79997" lon="-3.34862">
        <ele>78</ele>
        <time>2015-02-15T10:22:45Z</time>
      </trkpt>
      <trkpt lat="48.79992" lon="-3.34856">
        <ele>78</ele>
        <time>2015-02-15T10:22:46Z</time>
      </trkpt>
      <trkpt lat="48.79987" lon="-3.3485">
        <ele>78</ele>
        <time>2015-02-15T10:22:47Z</time>
      </trkpt>
      <trkpt lat="48.79981" lon="-3.34845">
        <ele>78</ele>
        <time>2015-02-15T10:22:48Z</time>
      </trkpt>
      <trkpt lat="48.79975" lon="-3.3484">
        <ele>78</ele>
        <time>2015-02-15T10:22:49Z</time>
      </trkpt>
      <trkpt lat="48.79969" lon="-3.34835">
        <ele>78</ele>
        <time>2015-02-15T10:22:50Z</time>
      </trkpt>
      <trkpt lat="48.79962" lon="-3.34831">
        <ele>78</ele>
        <time>2015-02-15T10:22:51Z</time>
      </trkpt>
      <trkpt lat="48.79956" lon="-3.34827">
        <ele>78</ele>
        <time>2015-02-15T10:22:52Z</time>
      </trkpt>
      <trkpt lat="48.79949" lon="-3.34823">
        <ele>78</ele>
        <time>2015-02-15T10:22:53Z</time>
      </trkpt>
      <trkpt lat="48.79942" lon="-3.34821">
        <ele>78</ele>
        <time>2015-02-15T10:22:54Z</time>
      </trkpt>
      <trkpt lat="48.79935" lon="-3.34818">
        <ele>79</ele>
        <time>2015-02-15T10:22:55Z</time>
      </trkpt>
      <trkpt lat="48.79928" lon="-3.34817">
        <ele>79</ele>
        <time>2015-02-15T10:22:56Z</time>
      </trkpt>
      <trkpt lat="48.79921" lon="-3.34815">
        <ele>79</ele>
        <time>2015-02-15T10:22:57Z</time>
      </trkpt>
      <trkpt lat="48.79914" lon="-3.34815">
        <ele>79</ele>
        <time>2015-02-15T10:22:58Z</time>
      </trkpt>
      <trkpt lat="48.79907" lon="-3.34815">
        <ele>79</ele>
        <time>2015-02-15T10:22:59Z</time>
      </trkpt>
      <trkpt lat="48.799" lon="-3.34815">
        <ele>80</ele>
        <time>2015-02-15T10:23:00Z</time>
      </trkpt>
      <trkpt lat="48.79893" lon="-3.34816">
        <ele>80</ele>
        <time>2015-02-15T10:23:01Z</time>
      </trkpt>
      <trkpt lat="48.79886" lon="-3.34818">
        <ele>80</ele>
        <time>2015-02-15T10:23:02Z</time>
      </trkpt>
      <trkpt lat="48.79878" lon="-3.3482">
        <ele>80</ele>
        <time>2015-02-15T10:23:03Z</time>
      </trkpt>
      <trkpt lat="48.79871" lon="-3.34823">
        <ele>80</ele>
        <time>2015-02-15T10:23:04Z</time>
      </trkpt>
      <trkpt lat="48.79864" lon="-3.34826">
        <ele>80</ele>
        <time>2015-02-15T10:23:05Z</time>
      </trkpt>
      <trkpt lat="48.79857" lon="-3.34829">
        <ele>80</ele>
        <time>2015-02-15T10:23:06Z</time>
      </trkpt>
      <trkpt lat="48.7985" lon="-3.34831">
        <ele>80</ele>
        <time>2015-02-15T10:23:07Z</time>
      </trkpt>
      <trkpt lat="48.79842" lon="-3.34834">
        <ele>80</ele>
        <time>2015-02-15T10:23:08Z</time>
      </trkpt>
      <trkpt lat="48.79835" lon="-3.34836">
        <ele>81</ele>
        <time>2015-02-15T10:23:09Z</time>
      </trkpt>
      <trkpt lat="48.79828" lon="-3.34838">
        <ele>81</ele>
        <time>2015-02-15T10:23:10Z</time>
      </trkpt>
      <trkpt lat="48.7982" lon="-3.34839">
        <ele>81</ele>
        <time>2015-02-15T10:23:11Z</time>
      </trkpt>
      <trkpt lat="48.79812" lon="-3.3484">
        <ele>81</ele>
        <time>2015-02-15T10:23:12Z</time>
      </trkpt>
      <trkpt lat="48.79805" lon="-3.34841">
        <ele>81</ele>
        <time>2015-02-15T10:23:13Z</time>
      </trkpt>
      <trkpt lat="48.79797" lon="-3.3484">
        <ele>82</ele>
        <time>2015-02-15T10:23:14Z</time>
      </trkpt>
      <trkpt lat="48.79789" lon="-3.34839">
        <ele>82</ele>
        <time>2015-02-15T10:23:15Z</time>
      </trkpt>
      <trkpt lat="48.79781" lon="-3.34837">
        <ele>82</ele>
        <time>2015-02-15T10:23:16Z</time>
      </trkpt>
      <trkpt lat="48.79773" lon="-3.34834">
        <ele>82</ele>
        <time>2015-02-15T10:23:17Z</time>
      </trkpt>
      <trkpt lat="48.79766" lon="-3.3483">
        <ele>82</ele>
        <time>2015-02-15T10:23:18Z</time>
      </trkpt>
      <trkpt lat="48.79758" lon="-3.34826">
        <ele>82</ele>
        <time>2015-02-15T10:23:19Z</time>
      </trkpt>
      <trkpt lat="48.7975" lon="-3.34823">
        <ele>83</ele>
        <time>2015-02-15T10:23:20Z</time>
      </trkpt>
      <trkpt lat="48.79743" lon="-3.34819">
        <ele>83</ele>
        <time>2015-02-15T10:23:21Z</time>
      </trkpt>
      <trkpt lat="48.79735" lon="-3.34814">
        <ele>83</ele>
        <time>2015-02-15T10:23:22Z</time>
      </trkpt>
      <trkpt lat="48.79727" lon="-3.3481">
        <ele>83</ele>
        <time>2015-02-15T10:23:23Z</time>
      </trkpt>
      <trkpt lat="48.7972" lon="-3.34807">
        <ele>83</ele>
        <time>2015-02-15T10:23:24Z</time>
      </trkpt>
      <trkpt lat="48.79712" lon="-3.34803">
        <ele>83</ele>
        <time>2015-02-15T10:23:25Z</time>
      </trkpt>
      <trkpt lat="48.79704" lon="-3.34799">
        <ele>83</ele>
        <time>2015-02-15T10:23:26Z</time>
      </trkpt>
      <trkpt lat="48.79696" lon="-3.34796">
        <ele>83</ele>
        <time>2015-02-15T10:23:27Z</time>
      </trkpt>
      <trkpt lat="48.79688" lon="-3.34792">
        <ele>84</ele>
        <time>2015-02-15T10:23:28Z</time>
      </trkpt>
      <trkpt lat="48.7968" lon="-3.34788">
        <ele>84</ele>
        <time>2015-02-15T10:23:29Z</time>
      </trkpt>
      <trkpt lat="48.79672" lon="-3.34784">
        <ele>84</ele>
        <time>2015-02-15T10:23:30Z</time>
      </trkpt>
      <trkpt lat="48.79664" lon="-3.34781">
        <ele>84</ele>
        <time>2015-02-15T10:23:31Z</time>
      </trkpt>
      <trkpt lat="48.79656" lon="-3.34777">
        <ele>84</ele>
        <time>2015-02-15T10:23:32Z</time>
      </trkpt>
      <trkpt lat="48.79648" lon="-3.34773">
        <ele>84</ele>
        <time>2015-02-15T10:23:33Z</time>
      </trkpt>
      <trkpt lat="48.79639" lon="-3.34769">
        <ele>84</ele>
        <time>2015-02-15T10:23:34Z</time>
      </trkpt>
      <trkpt lat="48.79631" lon="-3.34764">
        <ele>84</ele>
        <time>2015-02-15T10:23:35Z</time>
      </trkpt>
      <trkpt lat="48.79623" lon="-3.3476">
        <ele>84</ele>
        <time>2015-02-15T10:23:36Z</time>
      </trkpt>
      <trkpt lat="48.79614" lon="-3.34756">
        <ele>84</ele>
        <time>2015-02-15T10:23:37Z</time>
      </trkpt>
      <trkpt lat="48.79605" lon="-3.34752">
        <ele>84</ele>
        <time>2015-02-15T10:23:38Z</time>
      </trkpt>
      <trkpt lat="48.79596" lon="-3.34748">
        <ele>84</ele>
        <time>2015-02-15T10:23:39Z</time>
      </trkpt>
      <trkpt lat="48.79588" lon="-3.34744">
        <ele>84</ele>
        <time>2015-02-15T10:23:40Z</time>
      </trkpt>
      <trkpt lat="48.79579" lon="-3.34739">
        <ele>84</ele>
        <time>2015-02-15T10:23:41Z</time>
      </trkpt>
      <trkpt lat="48.7957" lon="-3.34735">
        <ele>84</ele>
        <time>2015-02-15T10:23:42Z</time>
      </trkpt>
      <trkpt lat="48.79562" lon="-3.34732">
        <ele>84</ele>
        <time>2015-02-15T10:23:43Z</time>
      </trkpt>
      <trkpt lat="48.79554" lon="-3.34727">
        <ele>84</ele>
        <time>2015-02-15T10:23:44Z</time>
      </trkpt>
      <trkpt lat="48.79545" lon="-3.34723">
        <ele>84</ele>
        <time>2015-02-15T10:23:45Z</time>
      </trkpt>
      <trkpt lat="48.79536" lon="-3.34719">
        <ele>84</ele>
        <time>2015-02-15T10:23:46Z</time>
      </trkpt>
      <trkpt lat="48.79528" lon="-3.34715">
        <ele>84</ele>
        <time>2015-02-15T10:23:47Z</time>
      </trkpt>
      <trkpt lat="48.79519" lon="-3.3471">
        <ele>84</ele>
        <time>2015-02-15T10:23:48Z</time>
      </trkpt>
      <trkpt lat="48.79511" lon="-3.34706">
        <ele>84</ele>
        <time>2015-02-15T10:23:49Z</time>
      </trkpt>
      <trkpt lat="48.79502" lon="-3.34701">
        <ele>84</ele>
        <time>2015-02-15T10:23:50Z</time>
      </trkpt>
      <trkpt lat="48.79494" lon="-3.34695">
        <ele>84</ele>
        <time>2015-02-15T10:23:51Z</time>
      </trkpt>
      <trkpt lat="48.79486" lon="-3.34688">
        <ele>84</ele>
        <time>2015-02-15T10:23:52Z</time>
      </trkpt>
      <trkpt lat="48.79479" lon="-3.34681">
        <ele>84</ele>
        <time>2015-02-15T10:23:53Z</time>
      </trkpt>
      <trkpt lat="48.79472" lon="-3.34673">
        <ele>84</ele>
        <time>2015-02-15T10:23:54Z</time>
      </trkpt>
      <trkpt lat="48.79464" lon="-3.34665">
        <ele>84</ele>
        <time>2015-02-15T10:23:55Z</time>
      </trkpt>
      <trkpt lat="48.79457" lon="-3.34656">
        <ele>84</ele>
        <time>2015-02-15T10:23:56Z</time>
      </trkpt>
      <trkpt lat="48.7945" lon="-3.34647">
        <ele>84</ele>
        <time>2015-02-15T10:23:57Z</time>
      </trkpt>
      <trkpt lat="48.79444" lon="-3.34637">
        <ele>84</ele>
        <time>2015-02-15T10:23:58Z</time>
      </trkpt>
      <trkpt lat="48.79437" lon="-3.34627">
        <ele>84</ele>
        <time>2015-02-15T10:23:59Z</time>
      </trkpt>
      <trkpt lat="48.79431" lon="-3.34617">
        <ele>84</ele>
        <time>2015-02-15T10:24:00Z</time>
      </trkpt>
      <trkpt lat="48.79425" lon="-3.34608">
        <ele>84</ele>
        <time>2015-02-15T10:24:01Z</time>
      </trkpt>
      <trkpt lat="48.79418" lon="-3.34599">
        <ele>84</ele>
        <time>2015-02-15T10:24:02Z</time>
      </trkpt>
      <trkpt lat="48.79411" lon="-3.3459">
        <ele>84</ele>
        <time>2015-02-15T10:24:03Z</time>
      </trkpt>
      <trkpt lat="48.79404" lon="-3.34582">
        <ele>85</ele>
        <time>2015-02-15T10:24:04Z</time>
      </trkpt>
      <trkpt lat="48.79396" lon="-3.34573">
        <ele>85</ele>
        <time>2015-02-15T10:24:05Z</time>
      </trkpt>
      <trkpt lat="48.79388" lon="-3.34565">
        <ele>85</ele>
        <time>2015-02-15T10:24:06Z</time>
      </trkpt>
      <trkpt lat="48.7938" lon="-3.34558">
        <ele>85</ele>
        <time>2015-02-15T10:24:07Z</time>
      </trkpt>
      <trkpt lat="48.79372" lon="-3.34551">
        <ele>85</ele>
        <time>2015-02-15T10:24:08Z</time>
      </trkpt>
      <trkpt lat="48.79364" lon="-3.34545">
        <ele>85</ele>
        <time>2015-02-15T10:24:09Z</time>
      </trkpt>
      <trkpt lat="48.79355" lon="-3.34539">
        <ele>85</ele>
        <time>2015-02-15T10:24:10Z</time>
      </trkpt>
      <trkpt lat="48.79346" lon="-3.34534">
        <ele>85</ele>
        <time>2015-02-15T10:24:11Z</time>
      </trkpt>
      <trkpt lat="48.79337" lon="-3.3453">
        <ele>85</ele>
        <time>2015-02-15T10:24:12Z</time>
      </trkpt>
      <trkpt lat="48.79328" lon="-3.34526">
        <ele>85</ele>
        <time>2015-02-15T10:24:13Z</time>
      </trkpt>
      <trkpt lat="48.79318" lon="-3.34523">
        <ele>85</ele>
        <time>2015-02-15T10:24:14Z</time>
      </trkpt>
      <trkpt lat="48.79309" lon="-3.3452">
        <ele>85</ele>
        <time>2015-02-15T10:24:15Z</time>
      </trkpt>
      <trkpt lat="48.793" lon="-3.34517">
        <ele>85</ele>
        <time>2015-02-15T10:24:16Z</time>
      </trkpt>
      <trkpt lat="48.7929" lon="-3.34515">
        <ele>85</ele>
        <time>2015-02-15T10:24:17Z</time>
      </trkpt>
      <trkpt lat="48.7928" lon="-3.34512">
        <ele>85</ele>
        <time>2015-02-15T10:24:18Z</time>
      </trkpt>
      <trkpt lat="48.79271" lon="-3.3451">
        <ele>85</ele>
        <time>2015-02-15T10:24:19Z</time>
      </trkpt>
      <trkpt lat="48.79261" lon="-3.34507">
        <ele>85</ele>
        <time>2015-02-15T10:24:20Z</time>
      </trkpt>
      <trkpt lat="48.79252" lon="-3.34505">
        <ele>85</ele>
        <time>2015-02-15T10:24:21Z</time>
      </trkpt>
      <trkpt lat="48.79243" lon="-3.34502">
        <ele>85</ele>
        <time>2015-02-15T10:24:22Z</time>
      </trkpt>
      <trkpt lat="48.79234" lon="-3.345">
        <ele>85</ele>
        <time>2015-02-15T10:24:23Z</time>
      </trkpt>
      <trkpt lat="48.79225" lon="-3.34498">
        <ele>85</ele>
        <time>2015-02-15T10:24:24Z</time>
      </trkpt>
      <trkpt lat="48.79216" lon="-3.34496">
        <ele>85</ele>
        <time>2015-02-15T10:24:25Z</time>
      </trkpt>
      <trkpt lat="48.79207" lon="-3.34493">
        <ele>85</ele>
        <time>2015-02-15T10:24:26Z</time>
      </trkpt>
      <trkpt lat="48.79198" lon="-3.34491">
        <ele>85</ele>
        <time>2015-02-15T10:24:27Z</time>
      </trkpt>
      <trkpt lat="48.7919" lon="-3.34487">
        <ele>85</ele>
        <time>2015-02-15T10:24:28Z</time>
      </trkpt>
      <trkpt lat="48.79181" lon="-3.34483">
        <ele>85</ele>
        <time>2015-02-15T10:24:29Z</time>
      </trkpt>
      <trkpt lat="48.79173" lon="-3.34477">
        <ele>85</ele>
        <time>2015-02-15T10:24:30Z</time>
      </trkpt>
      <trkpt lat="48.79165" lon="-3.34471">
        <ele>85</ele>
        <time>2015-02-15T10:24:31Z</time>
      </trkpt>
      <trkpt lat="48.79157" lon="-3.34464">
        <ele>85</ele>
        <time>2015-02-15T10:24:32Z</time>
      </trkpt>
      <trkpt lat="48.79149" lon="-3.34457">
        <ele>85</ele>
        <time>2015-02-15T10:24:33Z</time>
      </trkpt>
      <trkpt lat="48.79142" lon="-3.3445">
        <ele>85</ele>
        <time>2015-02-15T10:24:34Z</time>
      </trkpt>
      <trkpt lat="48.79136" lon="-3.34442">
        <ele>85</ele>
        <time>2015-02-15T10:24:35Z</time>
      </trkpt>
      <trkpt lat="48.79129" lon="-3.34433">
        <ele>85</ele>
        <time>2015-02-15T10:24:36Z</time>
      </trkpt>
      <trkpt lat="48.79123" lon="-3.34424">
        <ele>85</ele>
        <time>2015-02-15T10:24:37Z</time>
      </trkpt>
      <trkpt lat="48.79117" lon="-3.34414">
        <ele>85</ele>
        <time>2015-02-15T10:24:38Z</time>
      </trkpt>
      <trkpt lat="48.79111" lon="-3.34404">
        <ele>85</ele>
        <time>2015-02-15T10:24:39Z</time>
      </trkpt>
      <trkpt lat="48.79106" lon="-3.34393">
        <ele>85</ele>
        <time>2015-02-15T10:24:40Z</time>
      </trkpt>
      <trkpt lat="48.79101" lon="-3.34382">
        <ele>85</ele>
        <time>2015-02-15T10:24:41Z</time>
      </trkpt>
      <trkpt lat="48.79095" lon="-3.34371">
        <ele>85</ele>
        <time>2015-02-15T10:24:42Z</time>
      </trkpt>
      <trkpt lat="48.7909" lon="-3.3436">
        <ele>86</ele>
        <time>2015-02-15T10:24:43Z</time>
      </trkpt>
      <trkpt lat="48.79085" lon="-3.34349">
        <ele>86</ele>
        <time>2015-02-15T10:24:44Z</time>
      </trkpt>
      <trkpt lat="48.79079" lon="-3.34338">
        <ele>86</ele>
        <time>2015-02-15T10:24:45Z</time>
      </trkpt>
      <trkpt lat="48.79074" lon="-3.34327">
        <ele>86</ele>
        <time>2015-02-15T10:24:46Z</time>
      </trkpt>
      <trkpt lat="48.79069" lon="-3.34316">
        <ele>86</ele>
        <time>2015-02-15T10:24:47Z</time>
      </trkpt>
      <trkpt lat="48.79064" lon="-3.34306">
        <ele>86</ele>
        <time>2015-02-15T10:24:48Z</time>
      </trkpt>
      <trkpt lat="48.79059" lon="-3.34295">
        <ele>86</ele>
        <time>2015-02-15T10:24:49Z</time>
      </trkpt>
      <trkpt lat="48.79054" lon="-3.34283">
        <ele>87</ele>
        <time>2015-02-15T10:24:50Z</time>
      </trkpt>
      <trkpt lat="48.79049" lon="-3.34273">
        <ele>87</ele>
        <time>2015-02-15T10:24:51Z</time>
      </trkpt>
      <trkpt lat="48.79044" lon="-3.34262">
        <ele>87</ele>
        <time>2015-02-15T10:24:52Z</time>
      </trkpt>
      <trkpt lat="48.79039" lon="-3.34252">
        <ele>87</ele>
        <time>2015-02-15T10:24:53Z</time>
      </trkpt>
      <trkpt lat="48.79034" lon="-3.34242">
        <ele>87</ele>
        <time>2015-02-15T10:24:54Z</time>
      </trkpt>
      <trkpt lat="48.7903" lon="-3.34231">
        <ele>87</ele>
        <time>2015-02-15T10:24:55Z</time>
      </trkpt>
      <trkpt lat="48.79025" lon="-3.34221">
        <ele>88</ele>
        <time>2015-02-15T10:24:56Z</time>
      </trkpt>
      <trkpt lat="48.7902" lon="-3.34211">
        <ele>88</ele>
        <time>2015-02-15T10:24:57Z</time>
      </trkpt>
      <trkpt lat="48.79016" lon="-3.34201">
        <ele>88</ele>
        <time>2015-02-15T10:24:58Z</time>
      </trkpt>
      <trkpt lat="48.79011" lon="-3.34191">
        <ele>89</ele>
        <time>2015-02-15T10:24:59Z</time>
      </trkpt>
      <trkpt lat="48.79007" lon="-3.34181">
        <ele>89</ele>
        <time>2015-02-15T10:25:00Z</time>
      </trkpt>
      <trkpt lat="48.79002" lon="-3.34172">
        <ele>89</ele>
        <time>2015-02-15T10:25:01Z</time>
      </trkpt>
      <trkpt lat="48.78998" lon="-3.34162">
        <ele>90</ele>
        <time>2015-02-15T10:25:02Z</time>
      </trkpt>
      <trkpt lat="48.78994" lon="-3.34152">
        <ele>90</ele>
        <time>2015-02-15T10:25:03Z</time>
      </trkpt>
      <trkpt lat="48.7899" lon="-3.34143">
        <ele>90</ele>
        <time>2015-02-15T10:25:04Z</time>
      </trkpt>
      <trkpt lat="48.78986" lon="-3.34133">
        <ele>90</ele>
        <time>2015-02-15T10:25:05Z</time>
      </trkpt>
      <trkpt lat="48.78982" lon="-3.34124">
        <ele>91</ele>
        <time>2015-02-15T10:25:06Z</time>
      </trkpt>
      <trkpt lat="48.78978" lon="-3.34115">
        <ele>91</ele>
        <time>2015-02-15T10:25:07Z</time>
      </trkpt>
      <trkpt lat="48.78973" lon="-3.34106">
        <ele>91</ele>
        <time>2015-02-15T10:25:08Z</time>
      </trkpt>
      <trkpt lat="48.78969" lon="-3.34097">
        <ele>91</ele>
        <time>2015-02-15T10:25:09Z</time>
      </trkpt>
      <trkpt lat="48.78965" lon="-3.34088">
        <ele>92</ele>
        <time>2015-02-15T10:25:10Z</time>
      </trkpt>
      <trkpt lat="48.78962" lon="-3.34079">
        <ele>92</ele>
        <time>2015-02-15T10:25:11Z</time>
      </trkpt>
      <trkpt lat="48.78958" lon="-3.3407">
        <ele>92</ele>
        <time>2015-02-15T10:25:12Z</time>
      </trkpt>
      <trkpt lat="48.78954" lon="-3.34061">
        <ele>92</ele>
        <time>2015-02-15T10:25:13Z</time>
      </trkpt>
      <trkpt lat="48.78951" lon="-3.34052">
        <ele>92</ele>
        <time>2015-02-15T10:25:14Z</time>
      </trkpt>
      <trkpt lat="48.78947" lon="-3.34042">
        <ele>93</ele>
        <time>2015-02-15T10:25:15Z</time>
      </trkpt>
      <trkpt lat="48.78944" lon="-3.34033">
        <ele>93</ele>
        <time>2015-02-15T10:25:16Z</time>
      </trkpt>
      <trkpt lat="48.78942" lon="-3.34022">
        <ele>93</ele>
        <time>2015-02-15T10:25:17Z</time>
      </trkpt>
      <trkpt lat="48.78939" lon="-3.34012">
        <ele>93</ele>
        <time>2015-02-15T10:25:18Z</time>
      </trkpt>
      <trkpt lat="48.78937" lon="-3.34001">
        <ele>93</ele>
        <time>2015-02-15T10:25:19Z</time>
      </trkpt>
      <trkpt lat="48.78935" lon="-3.33991">
        <ele>93</ele>
        <time>2015-02-15T10:25:20Z</time>
      </trkpt>
      <trkpt lat="48.78933" lon="-3.33979">
        <ele>93</ele>
        <time>2015-02-15T10:25:21Z</time>
      </trkpt>
      <trkpt lat="48.78932" lon="-3.33967">
        <ele>93</ele>
        <time>2015-02-15T10:25:22Z</time>
      </trkpt>
      <trkpt lat="48.78931" lon="-3.33955">
        <ele>93</ele>
        <time>2015-02-15T10:25:23Z</time>
      </trkpt>
      <trkpt lat="48.7893" lon="-3.33942">
        <ele>93</ele>
        <time>2015-02-15T10:25:24Z</time>
      </trkpt>
      <trkpt lat="48.78929" lon="-3.3393">
        <ele>93</ele>
        <time>2015-02-15T10:25:25Z</time>
      </trkpt>
      <trkpt lat="48.78929" lon="-3.33879">
        <ele>93</ele>
        <time>2015-02-15T10:25:29Z</time>
      </trkpt>
      <trkpt lat="48.78929" lon="-3.33841">
        <ele>93</ele>
        <time>2015-02-15T10:25:32Z</time>
      </trkpt>
      <trkpt lat="48.78929" lon="-3.33794">
        <ele>93</ele>
        <time>2015-02-15T10:25:36Z</time>
      </trkpt>
      <trkpt lat="48.78928" lon="-3.33771">
        <ele>93</ele>
        <time>2015-02-15T10:25:38Z</time>
      </trkpt>
      <trkpt lat="48.78928" lon="-3.33761">
        <ele>93</ele>
        <time>2015-02-15T10:25:39Z</time>
      </trkpt>
      <trkpt lat="48.78928" lon="-3.33751">
        <ele>93</ele>
        <time>2015-02-15T10:25:40Z</time>
      </trkpt>
      <trkpt lat="48.78927" lon="-3.33742">
        <ele>93</ele>
        <time>2015-02-15T10:25:41Z</time>
      </trkpt>
      <trkpt lat="48.78926" lon="-3.33732">
        <ele>93</ele>
        <time>2015-02-15T10:25:42Z</time>
      </trkpt>
      <trkpt lat="48.78925" lon="-3.33723">
        <ele>93</ele>
        <time>2015-02-15T10:25:43Z</time>
      </trkpt>
      <trkpt lat="48.78924" lon="-3.33714">
        <ele>93</ele>
        <time>2015-02-15T10:25:44Z</time>
      </trkpt>
      <trkpt lat="48.78923" lon="-3.33705">
        <ele>93</ele>
        <time>2015-02-15T10:25:45Z</time>
      </trkpt>
      <trkpt lat="48.78921" lon="-3.33695">
        <ele>93</ele>
        <time>2015-02-15T10:25:46Z</time>
      </trkpt>
      <trkpt lat="48.78919" lon="-3.33686">
        <ele>93</ele>
        <time>2015-02-15T10:25:47Z</time>
      </trkpt>
      <trkpt lat="48.78917" lon="-3.33676">
        <ele>93</ele>
        <time>2015-02-15T10:25:48Z</time>
      </trkpt>
      <trkpt lat="48.78914" lon="-3.33667">
        <ele>93</ele>
        <time>2015-02-15T10:25:49Z</time>
      </trkpt>
      <trkpt lat="48.78912" lon="-3.33658">
        <ele>93</ele>
        <time>2015-02-15T10:25:50Z</time>
      </trkpt>
      <trkpt lat="48.78909" lon="-3.33648">
        <ele>93</ele>
        <time>2015-02-15T10:25:51Z</time>
      </trkpt>
      <trkpt lat="48.78906" lon="-3.3364">
        <ele>93</ele>
        <time>2015-02-15T10:25:52Z</time>
      </trkpt>
      <trkpt lat="48.78903" lon="-3.3363">
        <ele>93</ele>
        <time>2015-02-15T10:25:53Z</time>
      </trkpt>
      <trkpt lat="48.789" lon="-3.33621">
        <ele>93</ele>
        <time>2015-02-15T10:25:54Z</time>
      </trkpt>
      <trkpt lat="48.78896" lon="-3.33612">
        <ele>93</ele>
        <time>2015-02-15T10:25:55Z</time>
      </trkpt>
      <trkpt lat="48.78893" lon="-3.33602">
        <ele>93</ele>
        <time>2015-02-15T10:25:56Z</time>
      </trkpt>
      <trkpt lat="48.7889" lon="-3.33593">
        <ele>93</ele>
        <time>2015-02-15T10:25:57Z</time>
      </trkpt>
      <trkpt lat="48.78887" lon="-3.33583">
        <ele>94</ele>
        <time>2015-02-15T10:25:58Z</time>
      </trkpt>
      <trkpt lat="48.78884" lon="-3.33574">
        <ele>94</ele>
        <time>2015-02-15T10:25:59Z</time>
      </trkpt>
      <trkpt lat="48.78881" lon="-3.33565">
        <ele>94</ele>
        <time>2015-02-15T10:26:00Z</time>
      </trkpt>
      <trkpt lat="48.78878" lon="-3.33556">
        <ele>94</ele>
        <time>2015-02-15T10:26:01Z</time>
      </trkpt>
      <trkpt lat="48.78875" lon="-3.33547">
        <ele>94</ele>
        <time>2015-02-15T10:26:02Z</time>
      </trkpt>
      <trkpt lat="48.78872" lon="-3.33538">
        <ele>94</ele>
        <time>2015-02-15T10:26:03Z</time>
      </trkpt>
      <trkpt lat="48.78868" lon="-3.33529">
        <ele>95</ele>
        <time>2015-02-15T10:26:04Z</time>
      </trkpt>
      <trkpt lat="48.78865" lon="-3.33519">
        <ele>95</ele>
        <time>2015-02-15T10:26:05Z</time>
      </trkpt>
      <trkpt lat="48.78862" lon="-3.3351">
        <ele>95</ele>
        <time>2015-02-15T10:26:06Z</time>
      </trkpt>
      <trkpt lat="48.78858" lon="-3.33501">
        <ele>95</ele>
        <time>2015-02-15T10:26:07Z</time>
      </trkpt>
      <trkpt lat="48.78854" lon="-3.33491">
        <ele>96</ele>
        <time>2015-02-15T10:26:08Z</time>
      </trkpt>
      <trkpt lat="48.7885" lon="-3.33481">
        <ele>96</ele>
        <time>2015-02-15T10:26:09Z</time>
      </trkpt>
      <trkpt lat="48.78846" lon="-3.33472">
        <ele>96</ele>
        <time>2015-02-15T10:26:10Z</time>
      </trkpt>
      <trkpt lat="48.78841" lon="-3.33462">
        <ele>96</ele>
        <time>2015-02-15T10:26:11Z</time>
      </trkpt>
      <trkpt lat="48.78837" lon="-3.33453">
        <ele>96</ele>
        <time>2015-02-15T10:26:12Z</time>
      </trkpt>
      <trkpt lat="48.78833" lon="-3.33443">
        <ele>96</ele>
        <time>2015-02-15T10:26:13Z</time>
      </trkpt>
      <trkpt lat="48.78828" lon="-3.33434">
        <ele>96</ele>
        <time>2015-02-15T10:26:14Z</time>
      </trkpt>
      <trkpt lat="48.78823" lon="-3.33425">
        <ele>97</ele>
        <time>2015-02-15T10:26:15Z</time>
      </trkpt>
      <trkpt lat="48.78819" lon="-3.33415">
        <ele>97</ele>
        <time>2015-02-15T10:26:16Z</time>
      </trkpt>
      <trkpt lat="48.78814" lon="-3.33406">
        <ele>97</ele>
        <time>2015-02-15T10:26:17Z</time>
      </trkpt>
      <trkpt lat="48.7881" lon="-3.33397">
        <ele>97</ele>
        <time>2015-02-15T10:26:18Z</time>
      </trkpt>
      <trkpt lat="48.78805" lon="-3.33389">
        <ele>97</ele>
        <time>2015-02-15T10:26:19Z</time>
      </trkpt>
      <trkpt lat="48.78801" lon="-3.3338">
        <ele>97</ele>
        <time>2015-02-15T10:26:20Z</time>
      </trkpt>
      <trkpt lat="48.78796" lon="-3.3337">
        <ele>97</ele>
        <time>2015-02-15T10:26:21Z</time>
      </trkpt>
      <trkpt lat="48.78791" lon="-3.33361">
        <ele>97</ele>
        <time>2015-02-15T10:26:22Z</time>
      </trkpt>
      <trkpt lat="48.78785" lon="-3.33352">
        <ele>97</ele>
        <time>2015-02-15T10:26:23Z</time>
      </trkpt>
      <trkpt lat="48.78779" lon="-3.33343">
        <ele>97</ele>
        <time>2015-02-15T10:26:24Z</time>
      </trkpt>
      <trkpt lat="48.78773" lon="-3.33335">
        <ele>97</ele>
        <time>2015-02-15T10:26:25Z</time>
      </trkpt>
      <trkpt lat="48.78767" lon="-3.33327">
        <ele>97</ele>
        <time>2015-02-15T10:26:26Z</time>
      </trkpt>
      <trkpt lat="48.7876" lon="-3.33319">
        <ele>97</ele>
        <time>2015-02-15T10:26:27Z</time>
      </trkpt>
      <trkpt lat="48.78754" lon="-3.33311">
        <ele>97</ele>
        <time>2015-02-15T10:26:28Z</time>
      </trkpt>
      <trkpt lat="48.78747" lon="-3.33304">
        <ele>97</ele>
        <time>2015-02-15T10:26:29Z</time>
      </trkpt>
      <trkpt lat="48.7874" lon="-3.33297">
        <ele>97</ele>
        <time>2015-02-15T10:26:30Z</time>
      </trkpt>
      <trkpt lat="48.78732" lon="-3.33291">
        <ele>97</ele>
        <time>2015-02-15T10:26:31Z</time>
      </trkpt>
      <trkpt lat="48.78724" lon="-3.33285">
        <ele>97</ele>
        <time>2015-02-15T10:26:32Z</time>
      </trkpt>
      <trkpt lat="48.78717" lon="-3.33279">
        <ele>97</ele>
        <time>2015-02-15T10:26:33Z</time>
      </trkpt>
      <trkpt lat="48.78709" lon="-3.33274">
        <ele>97</ele>
        <time>2015-02-15T10:26:34Z</time>
      </trkpt>
      <trkpt lat="48.78701" lon="-3.33269">
        <ele>97</ele>
        <time>2015-02-15T10:26:35Z</time>
      </trkpt>
      <trkpt lat="48.78693" lon="-3.33264">
        <ele>97</ele>
        <time>2015-02-15T10:26:36Z</time>
      </trkpt>
      <trkpt lat="48.78685" lon="-3.33259">
        <ele>97</ele>
        <time>2015-02-15T10:26:37Z</time>
      </trkpt>
      <trkpt lat="48.78678" lon="-3.33254">
        <ele>97</ele>
        <time>2015-02-15T10:26:38Z</time>
      </trkpt>
      <trkpt lat="48.78671" lon="-3.33248">
        <ele>97</ele>
        <time>2015-02-15T10:26:39Z</time>
      </trkpt>
      <trkpt lat="48.78664" lon="-3.33241">
        <ele>97</ele>
        <time>2015-02-15T10:26:40Z</time>
      </trkpt>
      <trkpt lat="48.78658" lon="-3.33234">
        <ele>97</ele>
        <time>2015-02-15T10:26:41Z</time>
      </trkpt>
      <trkpt lat="48.78651" lon="-3.33226">
        <ele>97</ele>
        <time>2015-02-15T10:26:42Z</time>
      </trkpt>
      <trkpt lat="48.78645" lon="-3.33218">
        <ele>97</ele>
        <time>2015-02-15T10:26:43Z</time>
      </trkpt>
      <trkpt lat="48.7864" lon="-3.3321">
        <ele>98</ele>
        <time>2015-02-15T10:26:44Z</time>
      </trkpt>
      <trkpt lat="48.78635" lon="-3.33202">
        <ele>98</ele>
        <time>2015-02-15T10:26:45Z</time>
      </trkpt>
      <trkpt lat="48.7863" lon="-3.33193">
        <ele>98</ele>
        <time>2015-02-15T10:26:46Z</time>
      </trkpt>
      <trkpt lat="48.78624" lon="-3.33185">
        <ele>98</ele>
        <time>2015-02-15T10:26:47Z</time>
      </trkpt>
      <trkpt lat="48.78619" lon="-3.33177">
        <ele>98</ele>
        <time>2015-02-15T10:26:48Z</time>
      </trkpt>
      <trkpt lat="48.78614" lon="-3.33169">
        <ele>98</ele>
        <time>2015-02-15T10:26:49Z</time>
      </trkpt>
      <trkpt lat="48.78609" lon="-3.33161">
        <ele>98</ele>
        <time>2015-02-15T10:26:50Z</time>
      </trkpt>
      <trkpt lat="48.78603" lon="-3.33152">
        <ele>98</ele>
        <time>2015-02-15T10:26:51Z</time>
      </trkpt>
      <trkpt lat="48.78598" lon="-3.33144">
        <ele>98</ele>
        <time>2015-02-15T10:26:52Z</time>
      </trkpt>
      <trkpt lat="48.78593" lon="-3.33135">
        <ele>99</ele>
        <time>2015-02-15T10:26:53Z</time>
      </trkpt>
      <trkpt lat="48.78587" lon="-3.33127">
        <ele>99</ele>
        <time>2015-02-15T10:26:54Z</time>
      </trkpt>
      <trkpt lat="48.78582" lon="-3.33119">
        <ele>99</ele>
        <time>2015-02-15T10:26:55Z</time>
      </trkpt>
      <trkpt lat="48.78577" lon="-3.3311">
        <ele>99</ele>
        <time>2015-02-15T10:26:56Z</time>
      </trkpt>
      <trkpt lat="48.78572" lon="-3.33102">
        <ele>99</ele>
        <time>2015-02-15T10:26:57Z</time>
      </trkpt>
      <trkpt lat="48.78567" lon="-3.33093">
        <ele>100</ele>
        <time>2015-02-15T10:26:58Z</time>
      </trkpt>
      <trkpt lat="48.78563" lon="-3.33084">
        <ele>100</ele>
        <time>2015-02-15T10:26:59Z</time>
      </trkpt>
      <trkpt lat="48.78558" lon="-3.33075">
        <ele>100</ele>
        <time>2015-02-15T10:27:00Z</time>
      </trkpt>
      <trkpt lat="48.78553" lon="-3.33065">
        <ele>100</ele>
        <time>2015-02-15T10:27:01Z</time>
      </trkpt>
      <trkpt lat="48.78549" lon="-3.33055">
        <ele>100</ele>
        <time>2015-02-15T10:27:02Z</time>
      </trkpt>
      <trkpt lat="48.78545" lon="-3.33046">
        <ele>100</ele>
        <time>2015-02-15T10:27:03Z</time>
      </trkpt>
      <trkpt lat="48.78541" lon="-3.33036">
        <ele>100</ele>
        <time>2015-02-15T10:27:04Z</time>
      </trkpt>
      <trkpt lat="48.78537" lon="-3.33026">
        <ele>100</ele>
        <time>2015-02-15T10:27:05Z</time>
      </trkpt>
      <trkpt lat="48.78533" lon="-3.33016">
        <ele>101</ele>
        <time>2015-02-15T10:27:06Z</time>
      </trkpt>
      <trkpt lat="48.7853" lon="-3.33007">
        <ele>101</ele>
        <time>2015-02-15T10:27:07Z</time>
      </trkpt>
      <trkpt lat="48.78527" lon="-3.32997">
        <ele>101</ele>
        <time>2015-02-15T10:27:08Z</time>
      </trkpt>
      <trkpt lat="48.78524" lon="-3.32987">
        <ele>101</ele>
        <time>2015-02-15T10:27:09Z</time>
      </trkpt>
      <trkpt lat="48.78522" lon="-3.32976">
        <ele>101</ele>
        <time>2015-02-15T10:27:10Z</time>
      </trkpt>
      <trkpt lat="48.7852" lon="-3.32966">
        <ele>101</ele>
        <time>2015-02-15T10:27:11Z</time>
      </trkpt>
      <trkpt lat="48.78517" lon="-3.32957">
        <ele>101</ele>
        <time>2015-02-15T10:27:12Z</time>
      </trkpt>
      <trkpt lat="48.78514" lon="-3.3295">
        <ele>101</ele>
        <time>2015-02-15T10:27:13Z</time>
      </trkpt>
      <trkpt lat="48.78509" lon="-3.32944">
        <ele>101</ele>
        <time>2015-02-15T10:27:14Z</time>
      </trkpt>
      <trkpt lat="48.78503" lon="-3.3294">
        <ele>101</ele>
        <time>2015-02-15T10:27:15Z</time>
      </trkpt>
      <trkpt lat="48.78496" lon="-3.32938">
        <ele>101</ele>
        <time>2015-02-15T10:27:16Z</time>
      </trkpt>
      <trkpt lat="48.78489" lon="-3.32939">
        <ele>101</ele>
        <time>2015-02-15T10:27:17Z</time>
      </trkpt>
      <trkpt lat="48.78482" lon="-3.32942">
        <ele>101</ele>
        <time>2015-02-15T10:27:18Z</time>
      </trkpt>
      <trkpt lat="48.78475" lon="-3.32947">
        <ele>101</ele>
        <time>2015-02-15T10:27:19Z</time>
      </trkpt>
      <trkpt lat="48.78468" lon="-3.32954">
        <ele>101</ele>
        <time>2015-02-15T10:27:20Z</time>
      </trkpt>
      <trkpt lat="48.78463" lon="-3.32962">
        <ele>101</ele>
        <time>2015-02-15T10:27:21Z</time>
      </trkpt>
      <trkpt lat="48.78457" lon="-3.32971">
        <ele>101</ele>
        <time>2015-02-15T10:27:22Z</time>
      </trkpt>
      <trkpt lat="48.78453" lon="-3.3298">
        <ele>101</ele>
        <time>2015-02-15T10:27:23Z</time>
      </trkpt>
      <trkpt lat="48.78448" lon="-3.3299">
        <ele>101</ele>
        <time>2015-02-15T10:27:24Z</time>
      </trkpt>
      <trkpt lat="48.78444" lon="-3.32999">
        <ele>101</ele>
        <time>2015-02-15T10:27:25Z</time>
      </trkpt>
      <trkpt lat="48.78439" lon="-3.33009">
        <ele>101</ele>
        <time>2015-02-15T10:27:26Z</time>
      </trkpt>
      <trkpt lat="48.78435" lon="-3.33018">
        <ele>101</ele>
        <time>2015-02-15T10:27:27Z</time>
      </trkpt>
      <trkpt lat="48.78431" lon="-3.33028">
        <ele>101</ele>
        <time>2015-02-15T10:27:28Z</time>
      </trkpt>
      <trkpt lat="48.78427" lon="-3.33037">
        <ele>101</ele>
        <time>2015-02-15T10:27:29Z</time>
      </trkpt>
      <trkpt lat="48.78424" lon="-3.33046">
        <ele>101</ele>
        <time>2015-02-15T10:27:30Z</time>
      </trkpt>
      <trkpt lat="48.7842" lon="-3.33055">
        <ele>101</ele>
        <time>2015-02-15T10:27:31Z</time>
      </trkpt>
      <trkpt lat="48.78416" lon="-3.33064">
        <ele>101</ele>
        <time>2015-02-15T10:27:32Z</time>
      </trkpt>
      <trkpt lat="48.78413" lon="-3.33073">
        <ele>101</ele>
        <time>2015-02-15T10:27:33Z</time>
      </trkpt>
      <trkpt lat="48.78409" lon="-3.33082">
        <ele>101</ele>
        <time>2015-02-15T10:27:34Z</time>
      </trkpt>
      <trkpt lat="48.78405" lon="-3.33092">
        <ele>101</ele>
        <time>2015-02-15T10:27:35Z</time>
      </trkpt>
      <trkpt lat="48.78401" lon="-3.33101">
        <ele>101</ele>
        <time>2015-02-15T10:27:36Z</time>
      </trkpt>
      <trkpt lat="48.78397" lon="-3.3311">
        <ele>101</ele>
        <time>2015-02-15T10:27:37Z</time>
      </trkpt>
      <trkpt lat="48.78393" lon="-3.33119">
        <ele>101</ele>
        <time>2015-02-15T10:27:38Z</time>
      </trkpt>
      <trkpt lat="48.78389" lon="-3.33127">
        <ele>101</ele>
        <time>2015-02-15T10:27:39Z</time>
      </trkpt>
      <trkpt lat="48.78385" lon="-3.33136">
        <ele>101</ele>
        <time>2015-02-15T10:27:40Z</time>
      </trkpt>
      <trkpt lat="48.78382" lon="-3.33145">
        <ele>101</ele>
        <time>2015-02-15T10:27:41Z</time>
      </trkpt>
      <trkpt lat="48.78378" lon="-3.33153">
        <ele>101</ele>
        <time>2015-02-15T10:27:42Z</time>
      </trkpt>
      <trkpt lat="48.78375" lon="-3.33162">
        <ele>101</ele>
        <time>2015-02-15T10:27:43Z</time>
      </trkpt>
      <trkpt lat="48.78371" lon="-3.3317">
        <ele>101</ele>
        <time>2015-02-15T10:27:44Z</time>
      </trkpt>
      <trkpt lat="48.78368" lon="-3.33178">
        <ele>101</ele>
        <time>2015-02-15T10:27:45Z</time>
      </trkpt>
      <trkpt lat="48.78364" lon="-3.33186">
        <ele>101</ele>
        <time>2015-02-15T10:27:46Z</time>
      </trkpt>
      <trkpt lat="48.7836" lon="-3.33194">
        <ele>101</ele>
        <time>2015-02-15T10:27:47Z</time>
      </trkpt>
      <trkpt lat="48.78356" lon="-3.33202">
        <ele>101</ele>
        <time>2015-02-15T10:27:48Z</time>
      </trkpt>
      <trkpt lat="48.78352" lon="-3.3321">
        <ele>101</ele>
        <time>2015-02-15T10:27:49Z</time>
      </trkpt>
      <trkpt lat="48.78349" lon="-3.33219">
        <ele>101</ele>
        <time>2015-02-15T10:27:50Z</time>
      </trkpt>
      <trkpt lat="48.78345" lon="-3.33227">
        <ele>101</ele>
        <time>2015-02-15T10:27:51Z</time>
      </trkpt>
      <trkpt lat="48.78341" lon="-3.33236">
        <ele>101</ele>
        <time>2015-02-15T10:27:52Z</time>
      </trkpt>
      <trkpt lat="48.78336" lon="-3.33244">
        <ele>101</ele>
        <time>2015-02-15T10:27:53Z</time>
      </trkpt>
      <trkpt lat="48.78333" lon="-3.33253">
        <ele>101</ele>
        <time>2015-02-15T10:27:54Z</time>
      </trkpt>
      <trkpt lat="48.78328" lon="-3.33261">
        <ele>101</ele>
        <time>2015-02-15T10:27:55Z</time>
      </trkpt>
      <trkpt lat="48.78325" lon="-3.3327">
        <ele>101</ele>
        <time>2015-02-15T10:27:56Z</time>
      </trkpt>
      <trkpt lat="48.78321" lon="-3.33278">
        <ele>101</ele>
        <time>2015-02-15T10:27:57Z</time>
      </trkpt>
      <trkpt lat="48.78317" lon="-3.33287">
        <ele>101</ele>
        <time>2015-02-15T10:27:58Z</time>
      </trkpt>
      <trkpt lat="48.78312" lon="-3.33296">
        <ele>101</ele>
        <time>2015-02-15T10:27:59Z</time>
      </trkpt>
      <trkpt lat="48.78308" lon="-3.33305">
        <ele>101</ele>
        <time>2015-02-15T10:28:00Z</time>
      </trkpt>
      <trkpt lat="48.78303" lon="-3.33314">
        <ele>101</ele>
        <time>2015-02-15T10:28:01Z</time>
      </trkpt>
      <trkpt lat="48.78299" lon="-3.33323">
        <ele>101</ele>
        <time>2015-02-15T10:28:02Z</time>
      </trkpt>
      <trkpt lat="48.78294" lon="-3.33332">
        <ele>101</ele>
        <time>2015-02-15T10:28:03Z</time>
      </trkpt>
      <trkpt lat="48.78289" lon="-3.33341">
        <ele>101</ele>
        <time>2015-02-15T10:28:04Z</time>
      </trkpt>
      <trkpt lat="48.78284" lon="-3.3335">
        <ele>101</ele>
        <time>2015-02-15T10:28:05Z</time>
      </trkpt>
      <trkpt lat="48.78279" lon="-3.33359">
        <ele>101</ele>
        <time>2015-02-15T10:28:06Z</time>
      </trkpt>
      <trkpt lat="48.78275" lon="-3.33369">
        <ele>101</ele>
        <time>2015-02-15T10:28:07Z</time>
      </trkpt>
      <trkpt lat="48.7827" lon="-3.33378">
        <ele>101</ele>
        <time>2015-02-15T10:28:08Z</time>
      </trkpt>
      <trkpt lat="48.78265" lon="-3.33387">
        <ele>101</ele>
        <time>2015-02-15T10:28:09Z</time>
      </trkpt>
      <trkpt lat="48.78261" lon="-3.33397">
        <ele>101</ele>
        <time>2015-02-15T10:28:10Z</time>
      </trkpt>
      <trkpt lat="48.78255" lon="-3.33406">
        <ele>101</ele>
        <time>2015-02-15T10:28:11Z</time>
      </trkpt>
      <trkpt lat="48.7825" lon="-3.33414">
        <ele>101</ele>
        <time>2015-02-15T10:28:12Z</time>
      </trkpt>
      <trkpt lat="48.78244" lon="-3.33423">
        <ele>101</ele>
        <time>2015-02-15T10:28:13Z</time>
      </trkpt>
      <trkpt lat="48.78238" lon="-3.33431">
        <ele>101</ele>
        <time>2015-02-15T10:28:14Z</time>
      </trkpt>
      <trkpt lat="48.78231" lon="-3.33438">
        <ele>101</ele>
        <time>2015-02-15T10:28:15Z</time>
      </trkpt>
      <trkpt lat="48.78225" lon="-3.33446">
        <ele>101</ele>
        <time>2015-02-15T10:28:16Z</time>
      </trkpt>
      <trkpt lat="48.78217" lon="-3.33453">
        <ele>101</ele>
        <time>2015-02-15T10:28:17Z</time>
      </trkpt>
      <trkpt lat="48.7821" lon="-3.33461">
        <ele>101</ele>
        <time>2015-02-15T10:28:18Z</time>
      </trkpt>
      <trkpt lat="48.78204" lon="-3.33469">
        <ele>101</ele>
        <time>2015-02-15T10:28:19Z</time>
      </trkpt>
      <trkpt lat="48.78197" lon="-3.33477">
        <ele>101</ele>
        <time>2015-02-15T10:28:20Z</time>
      </trkpt>
      <trkpt lat="48.7819" lon="-3.33486">
        <ele>101</ele>
        <time>2015-02-15T10:28:21Z</time>
      </trkpt>
      <trkpt lat="48.78184" lon="-3.33496">
        <ele>101</ele>
        <time>2015-02-15T10:28:22Z</time>
      </trkpt>
      <trkpt lat="48.78178" lon="-3.33506">
        <ele>101</ele>
        <time>2015-02-15T10:28:23Z</time>
      </trkpt>
      <trkpt lat="48.78172" lon="-3.33516">
        <ele>101</ele>
        <time>2015-02-15T10:28:24Z</time>
      </trkpt>
      <trkpt lat="48.78167" lon="-3.33527">
        <ele>101</ele>
        <time>2015-02-15T10:28:25Z</time>
      </trkpt>
      <trkpt lat="48.78162" lon="-3.33538">
        <ele>101</ele>
        <time>2015-02-15T10:28:26Z</time>
      </trkpt>
      <trkpt lat="48.78157" lon="-3.3355">
        <ele>101</ele>
        <time>2015-02-15T10:28:27Z</time>
      </trkpt>
      <trkpt lat="48.78152" lon="-3.33561">
        <ele>101</ele>
        <time>2015-02-15T10:28:28Z</time>
      </trkpt>
      <trkpt lat="48.78148" lon="-3.33574">
        <ele>101</ele>
        <time>2015-02-15T10:28:29Z</time>
      </trkpt>
      <trkpt lat="48.78144" lon="-3.33586">
        <ele>101</ele>
        <time>2015-02-15T10:28:30Z</time>
      </trkpt>
      <trkpt lat="48.7814" lon="-3.33599">
        <ele>101</ele>
        <time>2015-02-15T10:28:31Z</time>
      </trkpt>
      <trkpt lat="48.78137" lon="-3.33612">
        <ele>101</ele>
        <time>2015-02-15T10:28:32Z</time>
      </trkpt>
      <trkpt lat="48.78133" lon="-3.33625">
        <ele>101</ele>
        <time>2015-02-15T10:28:33Z</time>
      </trkpt>
      <trkpt lat="48.78129" lon="-3.33637">
        <ele>101</ele>
        <time>2015-02-15T10:28:34Z</time>
      </trkpt>
      <trkpt lat="48.78125" lon="-3.33649">
        <ele>101</ele>
        <time>2015-02-15T10:28:35Z</time>
      </trkpt>
      <trkpt lat="48.7812" lon="-3.3366">
        <ele>101</ele>
        <time>2015-02-15T10:28:36Z</time>
      </trkpt>
      <trkpt lat="48.78116" lon="-3.33672">
        <ele>101</ele>
        <time>2015-02-15T10:28:37Z</time>
      </trkpt>
      <trkpt lat="48.78112" lon="-3.33682">
        <ele>101</ele>
        <time>2015-02-15T10:28:38Z</time>
      </trkpt>
      <trkpt lat="48.78108" lon="-3.33694">
        <ele>101</ele>
        <time>2015-02-15T10:28:39Z</time>
      </trkpt>
      <trkpt lat="48.78104" lon="-3.33705">
        <ele>101</ele>
        <time>2015-02-15T10:28:40Z</time>
      </trkpt>
      <trkpt lat="48.78101" lon="-3.33716">
        <ele>101</ele>
        <time>2015-02-15T10:28:41Z</time>
      </trkpt>
      <trkpt lat="48.78098" lon="-3.33727">
        <ele>101</ele>
        <time>2015-02-15T10:28:42Z</time>
      </trkpt>
      <trkpt lat="48.78094" lon="-3.33738">
        <ele>101</ele>
        <time>2015-02-15T10:28:43Z</time>
      </trkpt>
      <trkpt lat="48.78092" lon="-3.3375">
        <ele>101</ele>
        <time>2015-02-15T10:28:44Z</time>
      </trkpt>
      <trkpt lat="48.78089" lon="-3.33761">
        <ele>101</ele>
        <time>2015-02-15T10:28:45Z</time>
      </trkpt>
      <trkpt lat="48.78086" lon="-3.33773">
        <ele>101</ele>
        <time>2015-02-15T10:28:46Z</time>
      </trkpt>
      <trkpt lat="48.78083" lon="-3.33785">
        <ele>101</ele>
        <time>2015-02-15T10:28:47Z</time>
      </trkpt>
      <trkpt lat="48.78081" lon="-3.33796">
        <ele>101</ele>
        <time>2015-02-15T10:28:48Z</time>
      </trkpt>
      <trkpt lat="48.78078" lon="-3.33808">
        <ele>101</ele>
        <time>2015-02-15T10:28:49Z</time>
      </trkpt>
      <trkpt lat="48.78076" lon="-3.3382">
        <ele>101</ele>
        <time>2015-02-15T10:28:50Z</time>
      </trkpt>
      <trkpt lat="48.78074" lon="-3.33831">
        <ele>101</ele>
        <time>2015-02-15T10:28:51Z</time>
      </trkpt>
      <trkpt lat="48.78072" lon="-3.33843">
        <ele>101</ele>
        <time>2015-02-15T10:28:52Z</time>
      </trkpt>
      <trkpt lat="48.7807" lon="-3.33854">
        <ele>101</ele>
        <time>2015-02-15T10:28:53Z</time>
      </trkpt>
      <trkpt lat="48.78068" lon="-3.33865">
        <ele>101</ele>
        <time>2015-02-15T10:28:54Z</time>
      </trkpt>
      <trkpt lat="48.78065" lon="-3.33875">
        <ele>101</ele>
        <time>2015-02-15T10:28:55Z</time>
      </trkpt>
      <trkpt lat="48.78063" lon="-3.33885">
        <ele>101</ele>
        <time>2015-02-15T10:28:56Z</time>
      </trkpt>
      <trkpt lat="48.78061" lon="-3.33896">
        <ele>101</ele>
        <time>2015-02-15T10:28:57Z</time>
      </trkpt>
      <trkpt lat="48.78058" lon="-3.33906">
        <ele>101</ele>
        <time>2015-02-15T10:28:58Z</time>
      </trkpt>
      <trkpt lat="48.78056" lon="-3.33917">
        <ele>101</ele>
        <time>2015-02-15T10:28:59Z</time>
      </trkpt>
      <trkpt lat="48.78054" lon="-3.33927">
        <ele>101</ele>
        <time>2015-02-15T10:29:00Z</time>
      </trkpt>
      <trkpt lat="48.78052" lon="-3.33938">
        <ele>101</ele>
        <time>2015-02-15T10:29:01Z</time>
      </trkpt>
      <trkpt lat="48.7805" lon="-3.33948">
        <ele>101</ele>
        <time>2015-02-15T10:29:02Z</time>
      </trkpt>
      <trkpt lat="48.78048" lon="-3.33958">
        <ele>101</ele>
        <time>2015-02-15T10:29:03Z</time>
      </trkpt>
      <trkpt lat="48.78047" lon="-3.33969">
        <ele>101</ele>
        <time>2015-02-15T10:29:04Z</time>
      </trkpt>
      <trkpt lat="48.78045" lon="-3.3398">
        <ele>101</ele>
        <time>2015-02-15T10:29:05Z</time>
      </trkpt>
      <trkpt lat="48.78043" lon="-3.33991">
        <ele>101</ele>
        <time>2015-02-15T10:29:06Z</time>
      </trkpt>
      <trkpt lat="48.7804" lon="-3.34002">
        <ele>101</ele>
        <time>2015-02-15T10:29:07Z</time>
      </trkpt>
      <trkpt lat="48.78038" lon="-3.34013">
        <ele>101</ele>
        <time>2015-02-15T10:29:08Z</time>
      </trkpt>
      <trkpt lat="48.78035" lon="-3.34024">
        <ele>101</ele>
        <time>2015-02-15T10:29:09Z</time>
      </trkpt>
      <trkpt lat="48.78033" lon="-3.34036">
        <ele>101</ele>
        <time>2015-02-15T10:29:10Z</time>
      </trkpt>
      <trkpt lat="48.7803" lon="-3.34048">
        <ele>101</ele>
        <time>2015-02-15T10:29:11Z</time>
      </trkpt>
      <trkpt lat="48.78027" lon="-3.3406">
        <ele>101</ele>
        <time>2015-02-15T10:29:12Z</time>
      </trkpt>
      <trkpt lat="48.78023" lon="-3.34072">
        <ele>101</ele>
        <time>2015-02-15T10:29:13Z</time>
      </trkpt>
      <trkpt lat="48.7802" lon="-3.34085">
        <ele>101</ele>
        <time>2015-02-15T10:29:14Z</time>
      </trkpt>
      <trkpt lat="48.78017" lon="-3.34098">
        <ele>101</ele>
        <time>2015-02-15T10:29:15Z</time>
      </trkpt>
      <trkpt lat="48.78015" lon="-3.34112">
        <ele>101</ele>
        <time>2015-02-15T10:29:16Z</time>
      </trkpt>
      <trkpt lat="48.78014" lon="-3.34126">
        <ele>101</ele>
        <time>2015-02-15T10:29:17Z</time>
      </trkpt>
      <trkpt lat="48.78013" lon="-3.3414">
        <ele>101</ele>
        <time>2015-02-15T10:29:18Z</time>
      </trkpt>
      <trkpt lat="48.78012" lon="-3.34154">
        <ele>101</ele>
        <time>2015-02-15T10:29:19Z</time>
      </trkpt>
      <trkpt lat="48.78011" lon="-3.34168">
        <ele>101</ele>
        <time>2015-02-15T10:29:20Z</time>
      </trkpt>
      <trkpt lat="48.7801" lon="-3.34181">
        <ele>101</ele>
        <time>2015-02-15T10:29:21Z</time>
      </trkpt>
      <trkpt lat="48.78009" lon="-3.34195">
        <ele>101</ele>
        <time>2015-02-15T10:29:22Z</time>
      </trkpt>
      <trkpt lat="48.78007" lon="-3.34208">
        <ele>101</ele>
        <time>2015-02-15T10:29:23Z</time>
      </trkpt>
      <trkpt lat="48.78005" lon="-3.34222">
        <ele>101</ele>
        <time>2015-02-15T10:29:24Z</time>
      </trkpt>
      <trkpt lat="48.78003" lon="-3.34235">
        <ele>101</ele>
        <time>2015-02-15T10:29:25Z</time>
      </trkpt>
      <trkpt lat="48.78" lon="-3.34247">
        <ele>101</ele>
        <time>2015-02-15T10:29:26Z</time>
      </trkpt>
      <trkpt lat="48.77997" lon="-3.3426">
        <ele>101</ele>
        <time>2015-02-15T10:29:27Z</time>
      </trkpt>
      <trkpt lat="48.77993" lon="-3.34272">
        <ele>101</ele>
        <time>2015-02-15T10:29:28Z</time>
      </trkpt>
      <trkpt lat="48.77989" lon="-3.34284">
        <ele>101</ele>
        <time>2015-02-15T10:29:29Z</time>
      </trkpt>
      <trkpt lat="48.77985" lon="-3.34295">
        <ele>101</ele>
        <time>2015-02-15T10:29:30Z</time>
      </trkpt>
      <trkpt lat="48.77981" lon="-3.34307">
        <ele>101</ele>
        <time>2015-02-15T10:29:31Z</time>
      </trkpt>
      <trkpt lat="48.77976" lon="-3.34318">
        <ele>101</ele>
        <time>2015-02-15T10:29:32Z</time>
      </trkpt>
      <trkpt lat="48.77971" lon="-3.34329">
        <ele>101</ele>
        <time>2015-02-15T10:29:33Z</time>
      </trkpt>
      <trkpt lat="48.77967" lon="-3.3434">
        <ele>101</ele>
        <time>2015-02-15T10:29:34Z</time>
      </trkpt>
      <trkpt lat="48.77962" lon="-3.34351">
        <ele>101</ele>
        <time>2015-02-15T10:29:35Z</time>
      </trkpt>
      <trkpt lat="48.77957" lon="-3.34363">
        <ele>101</ele>
        <time>2015-02-15T10:29:36Z</time>
      </trkpt>
      <trkpt lat="48.77953" lon="-3.34374">
        <ele>101</ele>
        <time>2015-02-15T10:29:37Z</time>
      </trkpt>
      <trkpt lat="48.77948" lon="-3.34385">
        <ele>101</ele>
        <time>2015-02-15T10:29:38Z</time>
      </trkpt>
      <trkpt lat="48.77944" lon="-3.34397">
        <ele>101</ele>
        <time>2015-02-15T10:29:39Z</time>
      </trkpt>
      <trkpt lat="48.7794" lon="-3.34409">
        <ele>101</ele>
        <time>2015-02-15T10:29:40Z</time>
      </trkpt>
      <trkpt lat="48.77936" lon="-3.34421">
        <ele>101</ele>
        <time>2015-02-15T10:29:41Z</time>
      </trkpt>
      <trkpt lat="48.77932" lon="-3.34433">
        <ele>101</ele>
        <time>2015-02-15T10:29:42Z</time>
      </trkpt>
      <trkpt lat="48.77929" lon="-3.34445">
        <ele>101</ele>
        <time>2015-02-15T10:29:43Z</time>
      </trkpt>
      <trkpt lat="48.77926" lon="-3.34457">
        <ele>101</ele>
        <time>2015-02-15T10:29:44Z</time>
      </trkpt>
      <trkpt lat="48.77922" lon="-3.3447">
        <ele>101</ele>
        <time>2015-02-15T10:29:45Z</time>
      </trkpt>
      <trkpt lat="48.77919" lon="-3.34482">
        <ele>101</ele>
        <time>2015-02-15T10:29:46Z</time>
      </trkpt>
      <trkpt lat="48.77916" lon="-3.34494">
        <ele>101</ele>
        <time>2015-02-15T10:29:47Z</time>
      </trkpt>
      <trkpt lat="48.77912" lon="-3.34506">
        <ele>101</ele>
        <time>2015-02-15T10:29:48Z</time>
      </trkpt>
      <trkpt lat="48.77909" lon="-3.34518">
        <ele>101</ele>
        <time>2015-02-15T10:29:49Z</time>
      </trkpt>
      <trkpt lat="48.77906" lon="-3.3453">
        <ele>101</ele>
        <time>2015-02-15T10:29:50Z</time>
      </trkpt>
      <trkpt lat="48.77903" lon="-3.34542">
        <ele>101</ele>
        <time>2015-02-15T10:29:51Z</time>
      </trkpt>
      <trkpt lat="48.77901" lon="-3.34554">
        <ele>101</ele>
        <time>2015-02-15T10:29:52Z</time>
      </trkpt>
      <trkpt lat="48.77899" lon="-3.34567">
        <ele>101</ele>
        <time>2015-02-15T10:29:53Z</time>
      </trkpt>
      <trkpt lat="48.77897" lon="-3.3458">
        <ele>101</ele>
        <time>2015-02-15T10:29:54Z</time>
      </trkpt>
      <trkpt lat="48.77894" lon="-3.34594">
        <ele>101</ele>
        <time>2015-02-15T10:29:55Z</time>
      </trkpt>
      <trkpt lat="48.77892" lon="-3.34608">
        <ele>101</ele>
        <time>2015-02-15T10:29:56Z</time>
      </trkpt>
      <trkpt lat="48.77889" lon="-3.34622">
        <ele>101</ele>
        <time>2015-02-15T10:29:57Z</time>
      </trkpt>
      <trkpt lat="48.77887" lon="-3.34637">
        <ele>101</ele>
        <time>2015-02-15T10:29:58Z</time>
      </trkpt>
      <trkpt lat="48.77884" lon="-3.34651">
        <ele>101</ele>
        <time>2015-02-15T10:29:59Z</time>
      </trkpt>
      <trkpt lat="48.77882" lon="-3.34665">
        <ele>101</ele>
        <time>2015-02-15T10:30:00Z</time>
      </trkpt>
      <trkpt lat="48.77879" lon="-3.34679">
        <ele>101</ele>
        <time>2015-02-15T10:30:01Z</time>
      </trkpt>
      <trkpt lat="48.77875" lon="-3.34693">
        <ele>101</ele>
        <time>2015-02-15T10:30:02Z</time>
      </trkpt>
      <trkpt lat="48.77872" lon="-3.34707">
        <ele>101</ele>
        <time>2015-02-15T10:30:03Z</time>
      </trkpt>
      <trkpt lat="48.77869" lon="-3.3472">
        <ele>101</ele>
        <time>2015-02-15T10:30:04Z</time>
      </trkpt>
      <trkpt lat="48.77865" lon="-3.34734">
        <ele>101</ele>
        <time>2015-02-15T10:30:05Z</time>
      </trkpt>
      <trkpt lat="48.77861" lon="-3.34748">
        <ele>101</ele>
        <time>2015-02-15T10:30:06Z</time>
      </trkpt>
      <trkpt lat="48.77858" lon="-3.34762">
        <ele>101</ele>
        <time>2015-02-15T10:30:07Z</time>
      </trkpt>
      <trkpt lat="48.77855" lon="-3.34775">
        <ele>100</ele>
        <time>2015-02-15T10:30:08Z</time>
      </trkpt>
      <trkpt lat="48.77851" lon="-3.34788">
        <ele>100</ele>
        <time>2015-02-15T10:30:09Z</time>
      </trkpt>
      <trkpt lat="48.77848" lon="-3.34801">
        <ele>100</ele>
        <time>2015-02-15T10:30:10Z</time>
      </trkpt>
      <trkpt lat="48.77845" lon="-3.34814">
        <ele>100</ele>
        <time>2015-02-15T10:30:11Z</time>
      </trkpt>
      <trkpt lat="48.77842" lon="-3.34827">
        <ele>100</ele>
        <time>2015-02-15T10:30:12Z</time>
      </trkpt>
      <trkpt lat="48.77838" lon="-3.34839">
        <ele>100</ele>
        <time>2015-02-15T10:30:13Z</time>
      </trkpt>
      <trkpt lat="48.77834" lon="-3.34851">
        <ele>100</ele>
        <time>2015-02-15T10:30:14Z</time>
      </trkpt>
      <trkpt lat="48.7783" lon="-3.34864">
        <ele>100</ele>
        <time>2015-02-15T10:30:15Z</time>
      </trkpt>
      <trkpt lat="48.77826" lon="-3.34876">
        <ele>100</ele>
        <time>2015-02-15T10:30:16Z</time>
      </trkpt>
      <trkpt lat="48.77822" lon="-3.34888">
        <ele>100</ele>
        <time>2015-02-15T10:30:17Z</time>
      </trkpt>
      <trkpt lat="48.77819" lon="-3.34901">
        <ele>100</ele>
        <time>2015-02-15T10:30:18Z</time>
      </trkpt>
      <trkpt lat="48.77816" lon="-3.34914">
        <ele>100</ele>
        <time>2015-02-15T10:30:19Z</time>
      </trkpt>
      <trkpt lat="48.77813" lon="-3.34927">
        <ele>100</ele>
        <time>2015-02-15T10:30:20Z</time>
      </trkpt>
      <trkpt lat="48.77811" lon="-3.3494">
        <ele>100</ele>
        <time>2015-02-15T10:30:21Z</time>
      </trkpt>
      <trkpt lat="48.77809" lon="-3.34953">
        <ele>100</ele>
        <time>2015-02-15T10:30:22Z</time>
      </trkpt>
      <trkpt lat="48.77808" lon="-3.34966">
        <ele>100</ele>
        <time>2015-02-15T10:30:23Z</time>
      </trkpt>
      <trkpt lat="48.77808" lon="-3.3498">
        <ele>100</ele>
        <time>2015-02-15T10:30:24Z</time>
      </trkpt>
      <trkpt lat="48.77807" lon="-3.35006">
        <ele>100</ele>
        <time>2015-02-15T10:30:26Z</time>
      </trkpt>
      <trkpt lat="48.77807" lon="-3.35019">
        <ele>100</ele>
        <time>2015-02-15T10:30:27Z</time>
      </trkpt>
      <trkpt lat="48.77806" lon="-3.35032">
        <ele>100</ele>
        <time>2015-02-15T10:30:28Z</time>
      </trkpt>
      <trkpt lat="48.77805" lon="-3.35045">
        <ele>100</ele>
        <time>2015-02-15T10:30:29Z</time>
      </trkpt>
      <trkpt lat="48.77803" lon="-3.35058">
        <ele>100</ele>
        <time>2015-02-15T10:30:30Z</time>
      </trkpt>
      <trkpt lat="48.778" lon="-3.3507">
        <ele>100</ele>
        <time>2015-02-15T10:30:31Z</time>
      </trkpt>
      <trkpt lat="48.77798" lon="-3.35082">
        <ele>100</ele>
        <time>2015-02-15T10:30:32Z</time>
      </trkpt>
      <trkpt lat="48.77795" lon="-3.35095">
        <ele>100</ele>
        <time>2015-02-15T10:30:33Z</time>
      </trkpt>
      <trkpt lat="48.77793" lon="-3.35107">
        <ele>100</ele>
        <time>2015-02-15T10:30:34Z</time>
      </trkpt>
      <trkpt lat="48.7779" lon="-3.35119">
        <ele>100</ele>
        <time>2015-02-15T10:30:35Z</time>
      </trkpt>
      <trkpt lat="48.77787" lon="-3.35131">
        <ele>100</ele>
        <time>2015-02-15T10:30:36Z</time>
      </trkpt>
      <trkpt lat="48.77785" lon="-3.35143">
        <ele>100</ele>
        <time>2015-02-15T10:30:37Z</time>
      </trkpt>
      <trkpt lat="48.77783" lon="-3.35154">
        <ele>100</ele>
        <time>2015-02-15T10:30:38Z</time>
      </trkpt>
      <trkpt lat="48.7778" lon="-3.35166">
        <ele>100</ele>
        <time>2015-02-15T10:30:39Z</time>
      </trkpt>
      <trkpt lat="48.77778" lon="-3.35178">
        <ele>100</ele>
        <time>2015-02-15T10:30:40Z</time>
      </trkpt>
      <trkpt lat="48.77775" lon="-3.3519">
        <ele>100</ele>
        <time>2015-02-15T10:30:41Z</time>
      </trkpt>
      <trkpt lat="48.77772" lon="-3.35202">
        <ele>100</ele>
        <time>2015-02-15T10:30:42Z</time>
      </trkpt>
      <trkpt lat="48.77769" lon="-3.35214">
        <ele>100</ele>
        <time>2015-02-15T10:30:43Z</time>
      </trkpt>
      <trkpt lat="48.77765" lon="-3.35226">
        <ele>100</ele>
        <time>2015-02-15T10:30:44Z</time>
      </trkpt>
      <trkpt lat="48.77762" lon="-3.35238">
        <ele>100</ele>
        <time>2015-02-15T10:30:45Z</time>
      </trkpt>
      <trkpt lat="48.77758" lon="-3.3525">
        <ele>100</ele>
        <time>2015-02-15T10:30:46Z</time>
      </trkpt>
      <trkpt lat="48.77755" lon="-3.35262">
        <ele>100</ele>
        <time>2015-02-15T10:30:47Z</time>
      </trkpt>
      <trkpt lat="48.77751" lon="-3.35274">
        <ele>100</ele>
        <time>2015-02-15T10:30:48Z</time>
      </trkpt>
      <trkpt lat="48.77747" lon="-3.35287">
        <ele>100</ele>
        <time>2015-02-15T10:30:49Z</time>
      </trkpt>
      <trkpt lat="48.77743" lon="-3.35299">
        <ele>100</ele>
        <time>2015-02-15T10:30:50Z</time>
      </trkpt>
      <trkpt lat="48.77739" lon="-3.35312">
        <ele>100</ele>
        <time>2015-02-15T10:30:51Z</time>
      </trkpt>
      <trkpt lat="48.77735" lon="-3.35325">
        <ele>100</ele>
        <time>2015-02-15T10:30:52Z</time>
      </trkpt>
      <trkpt lat="48.77731" lon="-3.35338">
        <ele>100</ele>
        <time>2015-02-15T10:30:53Z</time>
      </trkpt>
      <trkpt lat="48.77727" lon="-3.35351">
        <ele>100</ele>
        <time>2015-02-15T10:30:54Z</time>
      </trkpt>
      <trkpt lat="48.77723" lon="-3.35365">
        <ele>100</ele>
        <time>2015-02-15T10:30:55Z</time>
      </trkpt>
      <trkpt lat="48.77718" lon="-3.35378">
        <ele>100</ele>
        <time>2015-02-15T10:30:56Z</time>
      </trkpt>
      <trkpt lat="48.77713" lon="-3.35391">
        <ele>100</ele>
        <time>2015-02-15T10:30:57Z</time>
      </trkpt>
      <trkpt lat="48.77707" lon="-3.35404">
        <ele>100</ele>
        <time>2015-02-15T10:30:58Z</time>
      </trkpt>
      <trkpt lat="48.77702" lon="-3.35417">
        <ele>100</ele>
        <time>2015-02-15T10:30:59Z</time>
      </trkpt>
      <trkpt lat="48.77696" lon="-3.35431">
        <ele>100</ele>
        <time>2015-02-15T10:31:00Z</time>
      </trkpt>
      <trkpt lat="48.7769" lon="-3.35444">
        <ele>100</ele>
        <time>2015-02-15T10:31:01Z</time>
      </trkpt>
      <trkpt lat="48.77685" lon="-3.35457">
        <ele>100</ele>
        <time>2015-02-15T10:31:02Z</time>
      </trkpt>
      <trkpt lat="48.7768" lon="-3.35469">
        <ele>100</ele>
        <time>2015-02-15T10:31:03Z</time>
      </trkpt>
      <trkpt lat="48.77675" lon="-3.35481">
        <ele>100</ele>
        <time>2015-02-15T10:31:04Z</time>
      </trkpt>
      <trkpt lat="48.7767" lon="-3.35493">
        <ele>100</ele>
        <time>2015-02-15T10:31:05Z</time>
      </trkpt>
      <trkpt lat="48.77665" lon="-3.35504">
        <ele>100</ele>
        <time>2015-02-15T10:31:06Z</time>
      </trkpt>
      <trkpt lat="48.7766" lon="-3.35516">
        <ele>100</ele>
        <time>2015-02-15T10:31:07Z</time>
      </trkpt>
      <trkpt lat="48.77655" lon="-3.35527">
        <ele>100</ele>
        <time>2015-02-15T10:31:08Z</time>
      </trkpt>
      <trkpt lat="48.7765" lon="-3.35539">
        <ele>100</ele>
        <time>2015-02-15T10:31:09Z</time>
      </trkpt>
      <trkpt lat="48.77645" lon="-3.35551">
        <ele>100</ele>
        <time>2015-02-15T10:31:10Z</time>
      </trkpt>
      <trkpt lat="48.77641" lon="-3.35564">
        <ele>100</ele>
        <time>2015-02-15T10:31:11Z</time>
      </trkpt>
      <trkpt lat="48.77636" lon="-3.35577">
        <ele>100</ele>
        <time>2015-02-15T10:31:12Z</time>
      </trkpt>
      <trkpt lat="48.77631" lon="-3.3559">
        <ele>100</ele>
        <time>2015-02-15T10:31:13Z</time>
      </trkpt>
      <trkpt lat="48.77626" lon="-3.35603">
        <ele>100</ele>
        <time>2015-02-15T10:31:14Z</time>
      </trkpt>
      <trkpt lat="48.77622" lon="-3.35617">
        <ele>100</ele>
        <time>2015-02-15T10:31:15Z</time>
      </trkpt>
      <trkpt lat="48.77618" lon="-3.3563">
        <ele>100</ele>
        <time>2015-02-15T10:31:16Z</time>
      </trkpt>
      <trkpt lat="48.77615" lon="-3.35644">
        <ele>100</ele>
        <time>2015-02-15T10:31:17Z</time>
      </trkpt>
      <trkpt lat="48.77612" lon="-3.35658">
        <ele>100</ele>
        <time>2015-02-15T10:31:18Z</time>
      </trkpt>
      <trkpt lat="48.77608" lon="-3.35672">
        <ele>100</ele>
        <time>2015-02-15T10:31:19Z</time>
      </trkpt>
      <trkpt lat="48.77604" lon="-3.35686">
        <ele>100</ele>
        <time>2015-02-15T10:31:20Z</time>
      </trkpt>
      <trkpt lat="48.77601" lon="-3.357">
        <ele>100</ele>
        <time>2015-02-15T10:31:21Z</time>
      </trkpt>
      <trkpt lat="48.77597" lon="-3.35714">
        <ele>100</ele>
        <time>2015-02-15T10:31:22Z</time>
      </trkpt>
      <trkpt lat="48.77592" lon="-3.35727">
        <ele>100</ele>
        <time>2015-02-15T10:31:23Z</time>
      </trkpt>
      <trkpt lat="48.77588" lon="-3.3574">
        <ele>100</ele>
        <time>2015-02-15T10:31:24Z</time>
      </trkpt>
      <trkpt lat="48.77583" lon="-3.35754">
        <ele>100</ele>
        <time>2015-02-15T10:31:25Z</time>
      </trkpt>
      <trkpt lat="48.77578" lon="-3.35767">
        <ele>100</ele>
        <time>2015-02-15T10:31:26Z</time>
      </trkpt>
      <trkpt lat="48.77573" lon="-3.3578">
        <ele>100</ele>
        <time>2015-02-15T10:31:27Z</time>
      </trkpt>
      <trkpt lat="48.77568" lon="-3.35792">
        <ele>100</ele>
        <time>2015-02-15T10:31:28Z</time>
      </trkpt>
      <trkpt lat="48.77563" lon="-3.35804">
        <ele>100</ele>
        <time>2015-02-15T10:31:29Z</time>
      </trkpt>
      <trkpt lat="48.77557" lon="-3.35817">
        <ele>100</ele>
        <time>2015-02-15T10:31:30Z</time>
      </trkpt>
      <trkpt lat="48.77551" lon="-3.35829">
        <ele>100</ele>
        <time>2015-02-15T10:31:31Z</time>
      </trkpt>
      <trkpt lat="48.77546" lon="-3.35841">
        <ele>100</ele>
        <time>2015-02-15T10:31:32Z</time>
      </trkpt>
      <trkpt lat="48.7754" lon="-3.35853">
        <ele>100</ele>
        <time>2015-02-15T10:31:33Z</time>
      </trkpt>
      <trkpt lat="48.77534" lon="-3.35866">
        <ele>100</ele>
        <time>2015-02-15T10:31:34Z</time>
      </trkpt>
      <trkpt lat="48.77529" lon="-3.35878">
        <ele>100</ele>
        <time>2015-02-15T10:31:35Z</time>
      </trkpt>
      <trkpt lat="48.77524" lon="-3.35891">
        <ele>100</ele>
        <time>2015-02-15T10:31:36Z</time>
      </trkpt>
      <trkpt lat="48.77519" lon="-3.35905">
        <ele>100</ele>
        <time>2015-02-15T10:31:37Z</time>
      </trkpt>
      <trkpt lat="48.77515" lon="-3.35918">
        <ele>100</ele>
        <time>2015-02-15T10:31:38Z</time>
      </trkpt>
      <trkpt lat="48.77511" lon="-3.35931">
        <ele>100</ele>
        <time>2015-02-15T10:31:39Z</time>
      </trkpt>
      <trkpt lat="48.77507" lon="-3.35944">
        <ele>100</ele>
        <time>2015-02-15T10:31:40Z</time>
      </trkpt>
      <trkpt lat="48.77504" lon="-3.35957">
        <ele>100</ele>
        <time>2015-02-15T10:31:41Z</time>
      </trkpt>
      <trkpt lat="48.775" lon="-3.3597">
        <ele>100</ele>
        <time>2015-02-15T10:31:42Z</time>
      </trkpt>
      <trkpt lat="48.77496" lon="-3.35982">
        <ele>100</ele>
        <time>2015-02-15T10:31:43Z</time>
      </trkpt>
      <trkpt lat="48.77493" lon="-3.35995">
        <ele>100</ele>
        <time>2015-02-15T10:31:44Z</time>
      </trkpt>
      <trkpt lat="48.77489" lon="-3.36007">
        <ele>100</ele>
        <time>2015-02-15T10:31:45Z</time>
      </trkpt>
      <trkpt lat="48.77485" lon="-3.36019">
        <ele>100</ele>
        <time>2015-02-15T10:31:46Z</time>
      </trkpt>
      <trkpt lat="48.77481" lon="-3.36032">
        <ele>100</ele>
        <time>2015-02-15T10:31:47Z</time>
      </trkpt>
      <trkpt lat="48.77477" lon="-3.36045">
        <ele>100</ele>
        <time>2015-02-15T10:31:48Z</time>
      </trkpt>
      <trkpt lat="48.77472" lon="-3.36058">
        <ele>100</ele>
        <time>2015-02-15T10:31:49Z</time>
      </trkpt>
      <trkpt lat="48.77467" lon="-3.36071">
        <ele>100</ele>
        <time>2015-02-15T10:31:50Z</time>
      </trkpt>
      <trkpt lat="48.77462" lon="-3.36083">
        <ele>100</ele>
        <time>2015-02-15T10:31:51Z</time>
      </trkpt>
      <trkpt lat="48.77457" lon="-3.36096">
        <ele>100</ele>
        <time>2015-02-15T10:31:52Z</time>
      </trkpt>
      <trkpt lat="48.77452" lon="-3.36108">
        <ele>100</ele>
        <time>2015-02-15T10:31:53Z</time>
      </trkpt>
      <trkpt lat="48.77446" lon="-3.3612">
        <ele>100</ele>
        <time>2015-02-15T10:31:54Z</time>
      </trkpt>
      <trkpt lat="48.77441" lon="-3.36131">
        <ele>100</ele>
        <time>2015-02-15T10:31:55Z</time>
      </trkpt>
      <trkpt lat="48.77436" lon="-3.36142">
        <ele>100</ele>
        <time>2015-02-15T10:31:56Z</time>
      </trkpt>
      <trkpt lat="48.7743" lon="-3.36154">
        <ele>100</ele>
        <time>2015-02-15T10:31:57Z</time>
      </trkpt>
      <trkpt lat="48.77425" lon="-3.36165">
        <ele>100</ele>
        <time>2015-02-15T10:31:58Z</time>
      </trkpt>
      <trkpt lat="48.7742" lon="-3.36176">
        <ele>100</ele>
        <time>2015-02-15T10:31:59Z</time>
      </trkpt>
      <trkpt lat="48.77414" lon="-3.36187">
        <ele>100</ele>
        <time>2015-02-15T10:32:00Z</time>
      </trkpt>
      <trkpt lat="48.77409" lon="-3.36198">
        <ele>100</ele>
        <time>2015-02-15T10:32:01Z</time>
      </trkpt>
      <trkpt lat="48.77404" lon="-3.36209">
        <ele>100</ele>
        <time>2015-02-15T10:32:02Z</time>
      </trkpt>
      <trkpt lat="48.77399" lon="-3.3622">
        <ele>100</ele>
        <time>2015-02-15T10:32:03Z</time>
      </trkpt>
      <trkpt lat="48.77393" lon="-3.36231">
        <ele>100</ele>
        <time>2015-02-15T10:32:04Z</time>
      </trkpt>
      <trkpt lat="48.77388" lon="-3.36243">
        <ele>100</ele>
        <time>2015-02-15T10:32:05Z</time>
      </trkpt>
      <trkpt lat="48.77383" lon="-3.36255">
        <ele>100</ele>
        <time>2015-02-15T10:32:06Z</time>
      </trkpt>
      <trkpt lat="48.77377" lon="-3.36266">
        <ele>100</ele>
        <time>2015-02-15T10:32:07Z</time>
      </trkpt>
      <trkpt lat="48.77371" lon="-3.36277">
        <ele>100</ele>
        <time>2015-02-15T10:32:08Z</time>
      </trkpt>
      <trkpt lat="48.77366" lon="-3.36289">
        <ele>100</ele>
        <time>2015-02-15T10:32:09Z</time>
      </trkpt>
      <trkpt lat="48.7736" lon="-3.363">
        <ele>100</ele>
        <time>2015-02-15T10:32:10Z</time>
      </trkpt>
      <trkpt lat="48.77354" lon="-3.36312">
        <ele>100</ele>
        <time>2015-02-15T10:32:11Z</time>
      </trkpt>
      <trkpt lat="48.77349" lon="-3.36323">
        <ele>100</ele>
        <time>2015-02-15T10:32:12Z</time>
      </trkpt>
      <trkpt lat="48.77344" lon="-3.36335">
        <ele>100</ele>
        <time>2015-02-15T10:32:13Z</time>
      </trkpt>
      <trkpt lat="48.77339" lon="-3.36346">
        <ele>100</ele>
        <time>2015-02-15T10:32:14Z</time>
      </trkpt>
      <trkpt lat="48.77334" lon="-3.36358">
        <ele>100</ele>
        <time>2015-02-15T10:32:15Z</time>
      </trkpt>
      <trkpt lat="48.7733" lon="-3.3637">
        <ele>100</ele>
        <time>2015-02-15T10:32:16Z</time>
      </trkpt>
      <trkpt lat="48.77325" lon="-3.36382">
        <ele>100</ele>
        <time>2015-02-15T10:32:17Z</time>
      </trkpt>
      <trkpt lat="48.7732" lon="-3.36395">
        <ele>100</ele>
        <time>2015-02-15T10:32:18Z</time>
      </trkpt>
      <trkpt lat="48.77315" lon="-3.36407">
        <ele>100</ele>
        <time>2015-02-15T10:32:19Z</time>
      </trkpt>
      <trkpt lat="48.7731" lon="-3.3642">
        <ele>100</ele>
        <time>2015-02-15T10:32:20Z</time>
      </trkpt>
      <trkpt lat="48.77305" lon="-3.36432">
        <ele>100</ele>
        <time>2015-02-15T10:32:21Z</time>
      </trkpt>
      <trkpt lat="48.773" lon="-3.36443">
        <ele>100</ele>
        <time>2015-02-15T10:32:22Z</time>
      </trkpt>
      <trkpt lat="48.77295" lon="-3.36454">
        <ele>100</ele>
        <time>2015-02-15T10:32:23Z</time>
      </trkpt>
      <trkpt lat="48.77289" lon="-3.36464">
        <ele>100</ele>
        <time>2015-02-15T10:32:24Z</time>
      </trkpt>
      <trkpt lat="48.77283" lon="-3.36473">
        <ele>100</ele>
        <time>2015-02-15T10:32:25Z</time>
      </trkpt>
      <trkpt lat="48.77278" lon="-3.36482">
        <ele>100</ele>
        <time>2015-02-15T10:32:26Z</time>
      </trkpt>
      <trkpt lat="48.77272" lon="-3.36491">
        <ele>100</ele>
        <time>2015-02-15T10:32:27Z</time>
      </trkpt>
      <trkpt lat="48.77267" lon="-3.365">
        <ele>100</ele>
        <time>2015-02-15T10:32:28Z</time>
      </trkpt>
      <trkpt lat="48.77261" lon="-3.36508">
        <ele>100</ele>
        <time>2015-02-15T10:32:29Z</time>
      </trkpt>
      <trkpt lat="48.77256" lon="-3.36516">
        <ele>100</ele>
        <time>2015-02-15T10:32:30Z</time>
      </trkpt>
      <trkpt lat="48.77251" lon="-3.36525">
        <ele>100</ele>
        <time>2015-02-15T10:32:31Z</time>
      </trkpt>
      <trkpt lat="48.77246" lon="-3.36533">
        <ele>100</ele>
        <time>2015-02-15T10:32:32Z</time>
      </trkpt>
      <trkpt lat="48.77242" lon="-3.3654">
        <ele>100</ele>
        <time>2015-02-15T10:32:33Z</time>
      </trkpt>
      <trkpt lat="48.77237" lon="-3.36548">
        <ele>100</ele>
        <time>2015-02-15T10:32:34Z</time>
      </trkpt>
      <trkpt lat="48.77232" lon="-3.36556">
        <ele>100</ele>
        <time>2015-02-15T10:32:35Z</time>
      </trkpt>
      <trkpt lat="48.77227" lon="-3.36563">
        <ele>100</ele>
        <time>2015-02-15T10:32:36Z</time>
      </trkpt>
      <trkpt lat="48.77224" lon="-3.36571">
        <ele>100</ele>
        <time>2015-02-15T10:32:37Z</time>
      </trkpt>
      <trkpt lat="48.7722" lon="-3.36579">
        <ele>100</ele>
        <time>2015-02-15T10:32:38Z</time>
      </trkpt>
      <trkpt lat="48.77217" lon="-3.36587">
        <ele>100</ele>
        <time>2015-02-15T10:32:39Z</time>
      </trkpt>
      <trkpt lat="48.77213" lon="-3.36596">
        <ele>100</ele>
        <time>2015-02-15T10:32:40Z</time>
      </trkpt>
      <trkpt lat="48.7721" lon="-3.36604">
        <ele>100</ele>
        <time>2015-02-15T10:32:41Z</time>
      </trkpt>
      <trkpt lat="48.77206" lon="-3.36612">
        <ele>100</ele>
        <time>2015-02-15T10:32:42Z</time>
      </trkpt>
      <trkpt lat="48.77201" lon="-3.36618">
        <ele>100</ele>
        <time>2015-02-15T10:32:43Z</time>
      </trkpt>
      <trkpt lat="48.77196" lon="-3.36624">
        <ele>100</ele>
        <time>2015-02-15T10:32:44Z</time>
      </trkpt>
      <trkpt lat="48.77191" lon="-3.36631">
        <ele>100</ele>
        <time>2015-02-15T10:32:45Z</time>
      </trkpt>
      <trkpt lat="48.77187" lon="-3.3664">
        <ele>100</ele>
        <time>2015-02-15T10:32:46Z</time>
      </trkpt>
      <trkpt lat="48.77184" lon="-3.3665">
        <ele>100</ele>
        <time>2015-02-15T10:32:47Z</time>
      </trkpt>
      <trkpt lat="48.7718" lon="-3.36662">
        <ele>100</ele>
        <time>2015-02-15T10:32:48Z</time>
      </trkpt>
      <trkpt lat="48.77178" lon="-3.36674">
        <ele>100</ele>
        <time>2015-02-15T10:32:49Z</time>
      </trkpt>
      <trkpt lat="48.77175" lon="-3.36686">
        <ele>100</ele>
        <time>2015-02-15T10:32:50Z</time>
      </trkpt>
      <trkpt lat="48.77171" lon="-3.36698">
        <ele>99</ele>
        <time>2015-02-15T10:32:51Z</time>
      </trkpt>
      <trkpt lat="48.77168" lon="-3.36709">
        <ele>99</ele>
        <time>2015-02-15T10:32:52Z</time>
      </trkpt>
      <trkpt lat="48.77163" lon="-3.36719">
        <ele>99</ele>
        <time>2015-02-15T10:32:53Z</time>
      </trkpt>
      <trkpt lat="48.77159" lon="-3.36729">
        <ele>99</ele>
        <time>2015-02-15T10:32:54Z</time>
      </trkpt>
      <trkpt lat="48.77154" lon="-3.36738">
        <ele>99</ele>
        <time>2015-02-15T10:32:55Z</time>
      </trkpt>
      <trkpt lat="48.77149" lon="-3.36746">
        <ele>99</ele>
        <time>2015-02-15T10:32:56Z</time>
      </trkpt>
      <trkpt lat="48.77143" lon="-3.36753">
        <ele>99</ele>
        <time>2015-02-15T10:32:57Z</time>
      </trkpt>
      <trkpt lat="48.77137" lon="-3.36761">
        <ele>99</ele>
        <time>2015-02-15T10:32:58Z</time>
      </trkpt>
      <trkpt lat="48.77131" lon="-3.36769">
        <ele>99</ele>
        <time>2015-02-15T10:32:59Z</time>
      </trkpt>
      <trkpt lat="48.77125" lon="-3.36776">
        <ele>99</ele>
        <time>2015-02-15T10:33:00Z</time>
      </trkpt>
      <trkpt lat="48.77119" lon="-3.36783">
        <ele>99</ele>
        <time>2015-02-15T10:33:01Z</time>
      </trkpt>
      <trkpt lat="48.77113" lon="-3.3679">
        <ele>99</ele>
        <time>2015-02-15T10:33:02Z</time>
      </trkpt>
      <trkpt lat="48.77107" lon="-3.36797">
        <ele>99</ele>
        <time>2015-02-15T10:33:03Z</time>
      </trkpt>
      <trkpt lat="48.77102" lon="-3.36804">
        <ele>99</ele>
        <time>2015-02-15T10:33:04Z</time>
      </trkpt>
      <trkpt lat="48.77097" lon="-3.3681">
        <ele>99</ele>
        <time>2015-02-15T10:33:05Z</time>
      </trkpt>
      <trkpt lat="48.77092" lon="-3.36817">
        <ele>99</ele>
        <time>2015-02-15T10:33:06Z</time>
      </trkpt>
      <trkpt lat="48.77087" lon="-3.36823">
        <ele>99</ele>
        <time>2015-02-15T10:33:07Z</time>
      </trkpt>
      <trkpt lat="48.77082" lon="-3.36829">
        <ele>99</ele>
        <time>2015-02-15T10:33:08Z</time>
      </trkpt>
      <trkpt lat="48.77077" lon="-3.36835">
        <ele>99</ele>
        <time>2015-02-15T10:33:09Z</time>
      </trkpt>
      <trkpt lat="48.77072" lon="-3.36842">
        <ele>99</ele>
        <time>2015-02-15T10:33:10Z</time>
      </trkpt>
      <trkpt lat="48.77067" lon="-3.3685">
        <ele>99</ele>
        <time>2015-02-15T10:33:11Z</time>
      </trkpt>
      <trkpt lat="48.77063" lon="-3.36857">
        <ele>99</ele>
        <time>2015-02-15T10:33:12Z</time>
      </trkpt>
      <trkpt lat="48.77058" lon="-3.36864">
        <ele>99</ele>
        <time>2015-02-15T10:33:13Z</time>
      </trkpt>
      <trkpt lat="48.77054" lon="-3.36872">
        <ele>98</ele>
        <time>2015-02-15T10:33:14Z</time>
      </trkpt>
      <trkpt lat="48.7705" lon="-3.36879">
        <ele>98</ele>
        <time>2015-02-15T10:33:15Z</time>
      </trkpt>
      <trkpt lat="48.77046" lon="-3.36888">
        <ele>98</ele>
        <time>2015-02-15T10:33:16Z</time>
      </trkpt>
      <trkpt lat="48.77042" lon="-3.36896">
        <ele>98</ele>
        <time>2015-02-15T10:33:17Z</time>
      </trkpt>
      <trkpt lat="48.77038" lon="-3.36906">
        <ele>97</ele>
        <time>2015-02-15T10:33:18Z</time>
      </trkpt>
      <trkpt lat="48.77034" lon="-3.36914">
        <ele>97</ele>
        <time>2015-02-15T10:33:19Z</time>
      </trkpt>
      <trkpt lat="48.77029" lon="-3.36924">
        <ele>97</ele>
        <time>2015-02-15T10:33:20Z</time>
      </trkpt>
      <trkpt lat="48.77025" lon="-3.36932">
        <ele>97</ele>
        <time>2015-02-15T10:33:21Z</time>
      </trkpt>
      <trkpt lat="48.77021" lon="-3.36941">
        <ele>96</ele>
        <time>2015-02-15T10:33:22Z</time>
      </trkpt>
      <trkpt lat="48.77017" lon="-3.3695">
        <ele>96</ele>
        <time>2015-02-15T10:33:23Z</time>
      </trkpt>
      <trkpt lat="48.77013" lon="-3.36959">
        <ele>96</ele>
        <time>2015-02-15T10:33:24Z</time>
      </trkpt>
      <trkpt lat="48.77008" lon="-3.36968">
        <ele>96</ele>
        <time>2015-02-15T10:33:25Z</time>
      </trkpt>
      <trkpt lat="48.77004" lon="-3.36977">
        <ele>95</ele>
        <time>2015-02-15T10:33:26Z</time>
      </trkpt>
      <trkpt lat="48.76999" lon="-3.36984">
        <ele>95</ele>
        <time>2015-02-15T10:33:27Z</time>
      </trkpt>
      <trkpt lat="48.76995" lon="-3.36991">
        <ele>95</ele>
        <time>2015-02-15T10:33:28Z</time>
      </trkpt>
      <trkpt lat="48.76991" lon="-3.36998">
        <ele>94</ele>
        <time>2015-02-15T10:33:29Z</time>
      </trkpt>
      <trkpt lat="48.76987" lon="-3.37004">
        <ele>94</ele>
        <time>2015-02-15T10:33:30Z</time>
      </trkpt>
      <trkpt lat="48.76983" lon="-3.37011">
        <ele>94</ele>
        <time>2015-02-15T10:33:31Z</time>
      </trkpt>
      <trkpt lat="48.76979" lon="-3.37017">
        <ele>94</ele>
        <time>2015-02-15T10:33:32Z</time>
      </trkpt>
      <trkpt lat="48.76975" lon="-3.37025">
        <ele>94</ele>
        <time>2015-02-15T10:33:33Z</time>
      </trkpt>
      <trkpt lat="48.76971" lon="-3.37032">
        <ele>94</ele>
        <time>2015-02-15T10:33:34Z</time>
      </trkpt>
      <trkpt lat="48.76967" lon="-3.3704">
        <ele>94</ele>
        <time>2015-02-15T10:33:35Z</time>
      </trkpt>
      <trkpt lat="48.76963" lon="-3.37049">
        <ele>94</ele>
        <time>2015-02-15T10:33:36Z</time>
      </trkpt>
      <trkpt lat="48.76959" lon="-3.37057">
        <ele>94</ele>
        <time>2015-02-15T10:33:37Z</time>
      </trkpt>
      <trkpt lat="48.76955" lon="-3.37066">
        <ele>94</ele>
        <time>2015-02-15T10:33:38Z</time>
      </trkpt>
      <trkpt lat="48.76952" lon="-3.37075">
        <ele>94</ele>
        <time>2015-02-15T10:33:39Z</time>
      </trkpt>
      <trkpt lat="48.76948" lon="-3.37084">
        <ele>94</ele>
        <time>2015-02-15T10:33:40Z</time>
      </trkpt>
      <trkpt lat="48.76944" lon="-3.37093">
        <ele>94</ele>
        <time>2015-02-15T10:33:41Z</time>
      </trkpt>
      <trkpt lat="48.7694" lon="-3.37102">
        <ele>94</ele>
        <time>2015-02-15T10:33:42Z</time>
      </trkpt>
      <trkpt lat="48.76937" lon="-3.37112">
        <ele>94</ele>
        <time>2015-02-15T10:33:43Z</time>
      </trkpt>
      <trkpt lat="48.76933" lon="-3.37121">
        <ele>94</ele>
        <time>2015-02-15T10:33:44Z</time>
      </trkpt>
      <trkpt lat="48.7693" lon="-3.37131">
        <ele>94</ele>
        <time>2015-02-15T10:33:45Z</time>
      </trkpt>
      <trkpt lat="48.76926" lon="-3.37141">
        <ele>94</ele>
        <time>2015-02-15T10:33:46Z</time>
      </trkpt>
      <trkpt lat="48.76923" lon="-3.37151">
        <ele>94</ele>
        <time>2015-02-15T10:33:47Z</time>
      </trkpt>
      <trkpt lat="48.7692" lon="-3.37161">
        <ele>94</ele>
        <time>2015-02-15T10:33:48Z</time>
      </trkpt>
      <trkpt lat="48.76917" lon="-3.37172">
        <ele>94</ele>
        <time>2015-02-15T10:33:49Z</time>
      </trkpt>
      <trkpt lat="48.76914" lon="-3.37182">
        <ele>94</ele>
        <time>2015-02-15T10:33:50Z</time>
      </trkpt>
      <trkpt lat="48.76911" lon="-3.37192">
        <ele>94</ele>
        <time>2015-02-15T10:33:51Z</time>
      </trkpt>
      <trkpt lat="48.76908" lon="-3.37203">
        <ele>94</ele>
        <time>2015-02-15T10:33:52Z</time>
      </trkpt>
      <trkpt lat="48.76906" lon="-3.37214">
        <ele>94</ele>
        <time>2015-02-15T10:33:53Z</time>
      </trkpt>
      <trkpt lat="48.76903" lon="-3.37226">
        <ele>94</ele>
        <time>2015-02-15T10:33:54Z</time>
      </trkpt>
      <trkpt lat="48.769" lon="-3.37237">
        <ele>94</ele>
        <time>2015-02-15T10:33:55Z</time>
      </trkpt>
      <trkpt lat="48.76897" lon="-3.37249">
        <ele>94</ele>
        <time>2015-02-15T10:33:56Z</time>
      </trkpt>
      <trkpt lat="48.76895" lon="-3.37261">
        <ele>94</ele>
        <time>2015-02-15T10:33:57Z</time>
      </trkpt>
      <trkpt lat="48.76892" lon="-3.37274">
        <ele>94</ele>
        <time>2015-02-15T10:33:58Z</time>
      </trkpt>
      <trkpt lat="48.76889" lon="-3.37286">
        <ele>94</ele>
        <time>2015-02-15T10:33:59Z</time>
      </trkpt>
      <trkpt lat="48.76885" lon="-3.37298">
        <ele>94</ele>
        <time>2015-02-15T10:34:00Z</time>
      </trkpt>
      <trkpt lat="48.76882" lon="-3.3731">
        <ele>94</ele>
        <time>2015-02-15T10:34:01Z</time>
      </trkpt>
      <trkpt lat="48.76878" lon="-3.37322">
        <ele>94</ele>
        <time>2015-02-15T10:34:02Z</time>
      </trkpt>
      <trkpt lat="48.76874" lon="-3.37334">
        <ele>94</ele>
        <time>2015-02-15T10:34:03Z</time>
      </trkpt>
      <trkpt lat="48.76869" lon="-3.37346">
        <ele>94</ele>
        <time>2015-02-15T10:34:04Z</time>
      </trkpt>
      <trkpt lat="48.76865" lon="-3.37357">
        <ele>94</ele>
        <time>2015-02-15T10:34:05Z</time>
      </trkpt>
      <trkpt lat="48.76861" lon="-3.37368">
        <ele>94</ele>
        <time>2015-02-15T10:34:06Z</time>
      </trkpt>
      <trkpt lat="48.76856" lon="-3.37379">
        <ele>94</ele>
        <time>2015-02-15T10:34:07Z</time>
      </trkpt>
      <trkpt lat="48.76852" lon="-3.37389">
        <ele>94</ele>
        <time>2015-02-15T10:34:08Z</time>
      </trkpt>
      <trkpt lat="48.76848" lon="-3.374">
        <ele>94</ele>
        <time>2015-02-15T10:34:09Z</time>
      </trkpt>
      <trkpt lat="48.76845" lon="-3.37411">
        <ele>94</ele>
        <time>2015-02-15T10:34:10Z</time>
      </trkpt>
      <trkpt lat="48.76841" lon="-3.37421">
        <ele>94</ele>
        <time>2015-02-15T10:34:11Z</time>
      </trkpt>
      <trkpt lat="48.76838" lon="-3.37432">
        <ele>94</ele>
        <time>2015-02-15T10:34:12Z</time>
      </trkpt>
      <trkpt lat="48.76834" lon="-3.37443">
        <ele>94</ele>
        <time>2015-02-15T10:34:13Z</time>
      </trkpt>
      <trkpt lat="48.76831" lon="-3.37454">
        <ele>94</ele>
        <time>2015-02-15T10:34:14Z</time>
      </trkpt>
      <trkpt lat="48.76827" lon="-3.37465">
        <ele>94</ele>
        <time>2015-02-15T10:34:15Z</time>
      </trkpt>
      <trkpt lat="48.76824" lon="-3.37475">
        <ele>94</ele>
        <time>2015-02-15T10:34:16Z</time>
      </trkpt>
      <trkpt lat="48.76821" lon="-3.37486">
        <ele>94</ele>
        <time>2015-02-15T10:34:17Z</time>
      </trkpt>
      <trkpt lat="48.76817" lon="-3.37496">
        <ele>94</ele>
        <time>2015-02-15T10:34:18Z</time>
      </trkpt>
      <trkpt lat="48.76814" lon="-3.37507">
        <ele>94</ele>
        <time>2015-02-15T10:34:19Z</time>
      </trkpt>
      <trkpt lat="48.76811" lon="-3.37518">
        <ele>94</ele>
        <time>2015-02-15T10:34:20Z</time>
      </trkpt>
      <trkpt lat="48.76807" lon="-3.37529">
        <ele>94</ele>
        <time>2015-02-15T10:34:21Z</time>
      </trkpt>
      <trkpt lat="48.76804" lon="-3.3754">
        <ele>94</ele>
        <time>2015-02-15T10:34:22Z</time>
      </trkpt>
      <trkpt lat="48.76801" lon="-3.37551">
        <ele>94</ele>
        <time>2015-02-15T10:34:23Z</time>
      </trkpt>
      <trkpt lat="48.76797" lon="-3.37561">
        <ele>94</ele>
        <time>2015-02-15T10:34:24Z</time>
      </trkpt>
      <trkpt lat="48.76794" lon="-3.37572">
        <ele>94</ele>
        <time>2015-02-15T10:34:25Z</time>
      </trkpt>
      <trkpt lat="48.76791" lon="-3.37583">
        <ele>94</ele>
        <time>2015-02-15T10:34:26Z</time>
      </trkpt>
      <trkpt lat="48.76787" lon="-3.37594">
        <ele>94</ele>
        <time>2015-02-15T10:34:27Z</time>
      </trkpt>
      <trkpt lat="48.76784" lon="-3.37605">
        <ele>94</ele>
        <time>2015-02-15T10:34:28Z</time>
      </trkpt>
      <trkpt lat="48.7678" lon="-3.37615">
        <ele>94</ele>
        <time>2015-02-15T10:34:29Z</time>
      </trkpt>
      <trkpt lat="48.76778" lon="-3.37626">
        <ele>94</ele>
        <time>2015-02-15T10:34:30Z</time>
      </trkpt>
      <trkpt lat="48.76774" lon="-3.37636">
        <ele>94</ele>
        <time>2015-02-15T10:34:31Z</time>
      </trkpt>
      <trkpt lat="48.76771" lon="-3.37647">
        <ele>94</ele>
        <time>2015-02-15T10:34:32Z</time>
      </trkpt>
      <trkpt lat="48.76768" lon="-3.37657">
        <ele>94</ele>
        <time>2015-02-15T10:34:33Z</time>
      </trkpt>
      <trkpt lat="48.76765" lon="-3.37667">
        <ele>94</ele>
        <time>2015-02-15T10:34:34Z</time>
      </trkpt>
      <trkpt lat="48.76762" lon="-3.37677">
        <ele>94</ele>
        <time>2015-02-15T10:34:35Z</time>
      </trkpt>
      <trkpt lat="48.76758" lon="-3.37687">
        <ele>94</ele>
        <time>2015-02-15T10:34:36Z</time>
      </trkpt>
      <trkpt lat="48.76755" lon="-3.37698">
        <ele>94</ele>
        <time>2015-02-15T10:34:37Z</time>
      </trkpt>
      <trkpt lat="48.76752" lon="-3.37708">
        <ele>94</ele>
        <time>2015-02-15T10:34:38Z</time>
      </trkpt>
      <trkpt lat="48.76749" lon="-3.37718">
        <ele>94</ele>
        <time>2015-02-15T10:34:39Z</time>
      </trkpt>
      <trkpt lat="48.76746" lon="-3.37729">
        <ele>94</ele>
        <time>2015-02-15T10:34:40Z</time>
      </trkpt>
      <trkpt lat="48.76742" lon="-3.3774">
        <ele>94</ele>
        <time>2015-02-15T10:34:41Z</time>
      </trkpt>
      <trkpt lat="48.76739" lon="-3.37752">
        <ele>94</ele>
        <time>2015-02-15T10:34:42Z</time>
      </trkpt>
      <trkpt lat="48.76736" lon="-3.37763">
        <ele>94</ele>
        <time>2015-02-15T10:34:43Z</time>
      </trkpt>
      <trkpt lat="48.76732" lon="-3.37774">
        <ele>94</ele>
        <time>2015-02-15T10:34:44Z</time>
      </trkpt>
      <trkpt lat="48.76729" lon="-3.37786">
        <ele>94</ele>
        <time>2015-02-15T10:34:45Z</time>
      </trkpt>
      <trkpt lat="48.76725" lon="-3.37797">
        <ele>94</ele>
        <time>2015-02-15T10:34:46Z</time>
      </trkpt>
      <trkpt lat="48.76722" lon="-3.37808">
        <ele>94</ele>
        <time>2015-02-15T10:34:47Z</time>
      </trkpt>
      <trkpt lat="48.76719" lon="-3.3782">
        <ele>94</ele>
        <time>2015-02-15T10:34:48Z</time>
      </trkpt>
      <trkpt lat="48.76715" lon="-3.37832">
        <ele>94</ele>
        <time>2015-02-15T10:34:49Z</time>
      </trkpt>
      <trkpt lat="48.76712" lon="-3.37843">
        <ele>94</ele>
        <time>2015-02-15T10:34:50Z</time>
      </trkpt>
      <trkpt lat="48.76708" lon="-3.37855">
        <ele>94</ele>
        <time>2015-02-15T10:34:51Z</time>
      </trkpt>
      <trkpt lat="48.76704" lon="-3.37867">
        <ele>94</ele>
        <time>2015-02-15T10:34:52Z</time>
      </trkpt>
      <trkpt lat="48.76701" lon="-3.37879">
        <ele>94</ele>
        <time>2015-02-15T10:34:53Z</time>
      </trkpt>
      <trkpt lat="48.76698" lon="-3.37891">
        <ele>94</ele>
        <time>2015-02-15T10:34:54Z</time>
      </trkpt>
      <trkpt lat="48.76694" lon="-3.37903">
        <ele>94</ele>
        <time>2015-02-15T10:34:55Z</time>
      </trkpt>
      <trkpt lat="48.7669" lon="-3.37915">
        <ele>94</ele>
        <time>2015-02-15T10:34:56Z</time>
      </trkpt>
      <trkpt lat="48.76687" lon="-3.37927">
        <ele>94</ele>
        <time>2015-02-15T10:34:57Z</time>
      </trkpt>
      <trkpt lat="48.76683" lon="-3.37939">
        <ele>94</ele>
        <time>2015-02-15T10:34:58Z</time>
      </trkpt>
      <trkpt lat="48.76679" lon="-3.37951">
        <ele>94</ele>
        <time>2015-02-15T10:34:59Z</time>
      </trkpt>
      <trkpt lat="48.76676" lon="-3.37963">
        <ele>94</ele>
        <time>2015-02-15T10:35:00Z</time>
      </trkpt>
      <trkpt lat="48.76672" lon="-3.37976">
        <ele>94</ele>
        <time>2015-02-15T10:35:01Z</time>
      </trkpt>
      <trkpt lat="48.76668" lon="-3.37989">
        <ele>94</ele>
        <time>2015-02-15T10:35:02Z</time>
      </trkpt>
      <trkpt lat="48.76664" lon="-3.38002">
        <ele>94</ele>
        <time>2015-02-15T10:35:03Z</time>
      </trkpt>
      <trkpt lat="48.76661" lon="-3.38015">
        <ele>94</ele>
        <time>2015-02-15T10:35:04Z</time>
      </trkpt>
      <trkpt lat="48.76657" lon="-3.38028">
        <ele>94</ele>
        <time>2015-02-15T10:35:05Z</time>
      </trkpt>
      <trkpt lat="48.76653" lon="-3.38041">
        <ele>94</ele>
        <time>2015-02-15T10:35:06Z</time>
      </trkpt>
      <trkpt lat="48.76649" lon="-3.38054">
        <ele>94</ele>
        <time>2015-02-15T10:35:07Z</time>
      </trkpt>
      <trkpt lat="48.76646" lon="-3.38067">
        <ele>94</ele>
        <time>2015-02-15T10:35:08Z</time>
      </trkpt>
      <trkpt lat="48.76642" lon="-3.3808">
        <ele>94</ele>
        <time>2015-02-15T10:35:09Z</time>
      </trkpt>
      <trkpt lat="48.76638" lon="-3.38093">
        <ele>94</ele>
        <time>2015-02-15T10:35:10Z</time>
      </trkpt>
      <trkpt lat="48.76635" lon="-3.38106">
        <ele>94</ele>
        <time>2015-02-15T10:35:11Z</time>
      </trkpt>
      <trkpt lat="48.76631" lon="-3.38119">
        <ele>94</ele>
        <time>2015-02-15T10:35:12Z</time>
      </trkpt>
      <trkpt lat="48.76627" lon="-3.38132">
        <ele>94</ele>
        <time>2015-02-15T10:35:13Z</time>
      </trkpt>
      <trkpt lat="48.76624" lon="-3.38144">
        <ele>94</ele>
        <time>2015-02-15T10:35:14Z</time>
      </trkpt>
      <trkpt lat="48.7662" lon="-3.38157">
        <ele>94</ele>
        <time>2015-02-15T10:35:15Z</time>
      </trkpt>
      <trkpt lat="48.76617" lon="-3.3817">
        <ele>94</ele>
        <time>2015-02-15T10:35:16Z</time>
      </trkpt>
      <trkpt lat="48.76614" lon="-3.38182">
        <ele>94</ele>
        <time>2015-02-15T10:35:17Z</time>
      </trkpt>
      <trkpt lat="48.7661" lon="-3.38194">
        <ele>94</ele>
        <time>2015-02-15T10:35:18Z</time>
      </trkpt>
      <trkpt lat="48.76606" lon="-3.38207">
        <ele>94</ele>
        <time>2015-02-15T10:35:19Z</time>
      </trkpt>
      <trkpt lat="48.76603" lon="-3.38219">
        <ele>94</ele>
        <time>2015-02-15T10:35:20Z</time>
      </trkpt>
      <trkpt lat="48.766" lon="-3.3823">
        <ele>94</ele>
        <time>2015-02-15T10:35:21Z</time>
      </trkpt>
      <trkpt lat="48.76596" lon="-3.38242">
        <ele>95</ele>
        <time>2015-02-15T10:35:22Z</time>
      </trkpt>
      <trkpt lat="48.76593" lon="-3.38254">
        <ele>95</ele>
        <time>2015-02-15T10:35:23Z</time>
      </trkpt>
      <trkpt lat="48.7659" lon="-3.38265">
        <ele>95</ele>
        <time>2015-02-15T10:35:24Z</time>
      </trkpt>
      <trkpt lat="48.76586" lon="-3.38277">
        <ele>95</ele>
        <time>2015-02-15T10:35:25Z</time>
      </trkpt>
      <trkpt lat="48.76583" lon="-3.38288">
        <ele>95</ele>
        <time>2015-02-15T10:35:26Z</time>
      </trkpt>
      <trkpt lat="48.7658" lon="-3.38299">
        <ele>96</ele>
        <time>2015-02-15T10:35:27Z</time>
      </trkpt>
      <trkpt lat="48.76576" lon="-3.38311">
        <ele>96</ele>
        <time>2015-02-15T10:35:28Z</time>
      </trkpt>
      <trkpt lat="48.76573" lon="-3.38322">
        <ele>96</ele>
        <time>2015-02-15T10:35:29Z</time>
      </trkpt>
      <trkpt lat="48.7657" lon="-3.38334">
        <ele>96</ele>
        <time>2015-02-15T10:35:30Z</time>
      </trkpt>
      <trkpt lat="48.76567" lon="-3.38345">
        <ele>96</ele>
        <time>2015-02-15T10:35:31Z</time>
      </trkpt>
      <trkpt lat="48.76564" lon="-3.38357">
        <ele>96</ele>
        <time>2015-02-15T10:35:32Z</time>
      </trkpt>
      <trkpt lat="48.76561" lon="-3.38368">
        <ele>96</ele>
        <time>2015-02-15T10:35:33Z</time>
      </trkpt>
      <trkpt lat="48.76557" lon="-3.3838">
        <ele>96</ele>
        <time>2015-02-15T10:35:34Z</time>
      </trkpt>
      <trkpt lat="48.76554" lon="-3.38391">
        <ele>96</ele>
        <time>2015-02-15T10:35:35Z</time>
      </trkpt>
      <trkpt lat="48.76551" lon="-3.38402">
        <ele>96</ele>
        <time>2015-02-15T10:35:36Z</time>
      </trkpt>
      <trkpt lat="48.76548" lon="-3.38414">
        <ele>97</ele>
        <time>2015-02-15T10:35:37Z</time>
      </trkpt>
      <trkpt lat="48.76545" lon="-3.38425">
        <ele>97</ele>
        <time>2015-02-15T10:35:38Z</time>
      </trkpt>
      <trkpt lat="48.76541" lon="-3.38436">
        <ele>97</ele>
        <time>2015-02-15T10:35:39Z</time>
      </trkpt>
      <trkpt lat="48.76538" lon="-3.38448">
        <ele>97</ele>
        <time>2015-02-15T10:35:40Z</time>
      </trkpt>
      <trkpt lat="48.76535" lon="-3.3846">
        <ele>97</ele>
        <time>2015-02-15T10:35:41Z</time>
      </trkpt>
      <trkpt lat="48.76531" lon="-3.38472">
        <ele>97</ele>
        <time>2015-02-15T10:35:42Z</time>
      </trkpt>
      <trkpt lat="48.72914" lon="-3.38572">
        <ele>82</ele>
        <time>2015-02-15T10:53:12Z</time>
      </trkpt>
    </trkseg>
  </trk>
</gpx>